<?xml version="1.0" encoding="UTF-8" standalone="no" ?>
<gpx xmlns="http://www.topografix.com/GPX/1/1" xmlns:xsi="http://www.w3.org/2001/XMLSchema-instance" xsi:schemaLocation="http://www.topografix.com/GPX/1/1 http://www.topografix.com/GPX/1/1/gpx.xsd" version="1.1" creator="VisuGPX - https://www.visugpx.com">
  <metadata>
    <name>Enregistrement du 10/11/2024</name>
  </metadata>
  <trk>
    <name><![CDATA[Enregistrement du 10/11/2024_1]]></name>
    <trkseg>
      <trkpt lat="45.86513" lon="1.23782">
        <ele>338.8</ele>
        <time>2024-11-10T13:03:44Z</time>
      </trkpt>
      <trkpt lat="45.86514" lon="1.23783">
        <ele>338.9</ele>
        <time>2024-11-10T13:04:12Z</time>
      </trkpt>
      <trkpt lat="45.86514" lon="1.23782">
        <ele>338.9</ele>
        <time>2024-11-10T13:04:28Z</time>
      </trkpt>
      <trkpt lat="45.86514" lon="1.23784">
        <ele>338.9</ele>
        <time>2024-11-10T13:04:45Z</time>
      </trkpt>
      <trkpt lat="45.86513" lon="1.23781">
        <ele>338.9</ele>
        <time>2024-11-10T13:05:18Z</time>
      </trkpt>
      <trkpt lat="45.86514" lon="1.23778">
        <ele>339</ele>
        <time>2024-11-10T13:05:20Z</time>
      </trkpt>
      <trkpt lat="45.86516" lon="1.23777">
        <ele>339</ele>
        <time>2024-11-10T13:05:22Z</time>
      </trkpt>
      <trkpt lat="45.86519" lon="1.2378">
        <ele>339.1</ele>
        <time>2024-11-10T13:05:24Z</time>
      </trkpt>
      <trkpt lat="45.8652" lon="1.23785">
        <ele>339.1</ele>
        <time>2024-11-10T13:05:26Z</time>
      </trkpt>
      <trkpt lat="45.8652" lon="1.23791">
        <ele>339.2</ele>
        <time>2024-11-10T13:05:28Z</time>
      </trkpt>
      <trkpt lat="45.86521" lon="1.23797">
        <ele>339.3</ele>
        <time>2024-11-10T13:05:30Z</time>
      </trkpt>
      <trkpt lat="45.86523" lon="1.23801">
        <ele>339.3</ele>
        <time>2024-11-10T13:05:31Z</time>
      </trkpt>
      <trkpt lat="45.86526" lon="1.23802">
        <ele>339.4</ele>
        <time>2024-11-10T13:05:32Z</time>
      </trkpt>
      <trkpt lat="45.8653" lon="1.23803">
        <ele>339.5</ele>
        <time>2024-11-10T13:05:33Z</time>
      </trkpt>
      <trkpt lat="45.86534" lon="1.23804">
        <ele>339.5</ele>
        <time>2024-11-10T13:05:34Z</time>
      </trkpt>
      <trkpt lat="45.86537" lon="1.23804">
        <ele>339.6</ele>
        <time>2024-11-10T13:05:35Z</time>
      </trkpt>
      <trkpt lat="45.86541" lon="1.23806">
        <ele>339.7</ele>
        <time>2024-11-10T13:05:37Z</time>
      </trkpt>
      <trkpt lat="45.86545" lon="1.23807">
        <ele>339.7</ele>
        <time>2024-11-10T13:05:39Z</time>
      </trkpt>
      <trkpt lat="45.8655" lon="1.2381">
        <ele>339.8</ele>
        <time>2024-11-10T13:05:41Z</time>
      </trkpt>
      <trkpt lat="45.86552" lon="1.23814">
        <ele>339.9</ele>
        <time>2024-11-10T13:05:42Z</time>
      </trkpt>
      <trkpt lat="45.86555" lon="1.23818">
        <ele>340</ele>
        <time>2024-11-10T13:05:43Z</time>
      </trkpt>
      <trkpt lat="45.8656" lon="1.23819">
        <ele>340</ele>
        <time>2024-11-10T13:05:44Z</time>
      </trkpt>
      <trkpt lat="45.86563" lon="1.2382">
        <ele>340.1</ele>
        <time>2024-11-10T13:05:45Z</time>
      </trkpt>
      <trkpt lat="45.86567" lon="1.23821">
        <ele>340.2</ele>
        <time>2024-11-10T13:05:46Z</time>
      </trkpt>
      <trkpt lat="45.8657" lon="1.23821">
        <ele>340.2</ele>
        <time>2024-11-10T13:05:47Z</time>
      </trkpt>
      <trkpt lat="45.86573" lon="1.23821">
        <ele>340.3</ele>
        <time>2024-11-10T13:05:48Z</time>
      </trkpt>
      <trkpt lat="45.86577" lon="1.23821">
        <ele>340.4</ele>
        <time>2024-11-10T13:05:49Z</time>
      </trkpt>
      <trkpt lat="45.8658" lon="1.23821">
        <ele>340.5</ele>
        <time>2024-11-10T13:05:50Z</time>
      </trkpt>
      <trkpt lat="45.86583" lon="1.23821">
        <ele>340.5</ele>
        <time>2024-11-10T13:05:51Z</time>
      </trkpt>
      <trkpt lat="45.86586" lon="1.23821">
        <ele>340.6</ele>
        <time>2024-11-10T13:05:52Z</time>
      </trkpt>
      <trkpt lat="45.8659" lon="1.23822">
        <ele>340.6</ele>
        <time>2024-11-10T13:05:53Z</time>
      </trkpt>
      <trkpt lat="45.86593" lon="1.23822">
        <ele>340.7</ele>
        <time>2024-11-10T13:05:54Z</time>
      </trkpt>
      <trkpt lat="45.86596" lon="1.23822">
        <ele>340.7</ele>
        <time>2024-11-10T13:05:55Z</time>
      </trkpt>
      <trkpt lat="45.86599" lon="1.23823">
        <ele>340.8</ele>
        <time>2024-11-10T13:05:56Z</time>
      </trkpt>
      <trkpt lat="45.86603" lon="1.23823">
        <ele>340.9</ele>
        <time>2024-11-10T13:05:57Z</time>
      </trkpt>
      <trkpt lat="45.86606" lon="1.23824">
        <ele>340.9</ele>
        <time>2024-11-10T13:05:58Z</time>
      </trkpt>
      <trkpt lat="45.86609" lon="1.23824">
        <ele>341</ele>
        <time>2024-11-10T13:05:59Z</time>
      </trkpt>
      <trkpt lat="45.86612" lon="1.23825">
        <ele>341</ele>
        <time>2024-11-10T13:06:00Z</time>
      </trkpt>
      <trkpt lat="45.86616" lon="1.23825">
        <ele>341.1</ele>
        <time>2024-11-10T13:06:01Z</time>
      </trkpt>
      <trkpt lat="45.86619" lon="1.23825">
        <ele>341.2</ele>
        <time>2024-11-10T13:06:02Z</time>
      </trkpt>
      <trkpt lat="45.86623" lon="1.23825">
        <ele>341.3</ele>
        <time>2024-11-10T13:06:03Z</time>
      </trkpt>
      <trkpt lat="45.86626" lon="1.23826">
        <ele>341.3</ele>
        <time>2024-11-10T13:06:04Z</time>
      </trkpt>
      <trkpt lat="45.8663" lon="1.23826">
        <ele>341.5</ele>
        <time>2024-11-10T13:06:05Z</time>
      </trkpt>
      <trkpt lat="45.86633" lon="1.23827">
        <ele>341.5</ele>
        <time>2024-11-10T13:06:06Z</time>
      </trkpt>
      <trkpt lat="45.86637" lon="1.23827">
        <ele>341.7</ele>
        <time>2024-11-10T13:06:07Z</time>
      </trkpt>
      <trkpt lat="45.8664" lon="1.23828">
        <ele>341.8</ele>
        <time>2024-11-10T13:06:08Z</time>
      </trkpt>
      <trkpt lat="45.86644" lon="1.23829">
        <ele>341.9</ele>
        <time>2024-11-10T13:06:10Z</time>
      </trkpt>
      <trkpt lat="45.86648" lon="1.23829">
        <ele>342</ele>
        <time>2024-11-10T13:06:11Z</time>
      </trkpt>
      <trkpt lat="45.86652" lon="1.23829">
        <ele>342.2</ele>
        <time>2024-11-10T13:06:12Z</time>
      </trkpt>
      <trkpt lat="45.86655" lon="1.23828">
        <ele>342.3</ele>
        <time>2024-11-10T13:06:13Z</time>
      </trkpt>
      <trkpt lat="45.86659" lon="1.23828">
        <ele>342.4</ele>
        <time>2024-11-10T13:06:14Z</time>
      </trkpt>
      <trkpt lat="45.86663" lon="1.23828">
        <ele>342.6</ele>
        <time>2024-11-10T13:06:15Z</time>
      </trkpt>
      <trkpt lat="45.86667" lon="1.23828">
        <ele>342.8</ele>
        <time>2024-11-10T13:06:16Z</time>
      </trkpt>
      <trkpt lat="45.86671" lon="1.23828">
        <ele>343</ele>
        <time>2024-11-10T13:06:17Z</time>
      </trkpt>
      <trkpt lat="45.86674" lon="1.23828">
        <ele>343.1</ele>
        <time>2024-11-10T13:06:18Z</time>
      </trkpt>
      <trkpt lat="45.86678" lon="1.23829">
        <ele>343.3</ele>
        <time>2024-11-10T13:06:19Z</time>
      </trkpt>
      <trkpt lat="45.86682" lon="1.23829">
        <ele>343.6</ele>
        <time>2024-11-10T13:06:20Z</time>
      </trkpt>
      <trkpt lat="45.86686" lon="1.2383">
        <ele>343.8</ele>
        <time>2024-11-10T13:06:21Z</time>
      </trkpt>
      <trkpt lat="45.8669" lon="1.23831">
        <ele>344</ele>
        <time>2024-11-10T13:06:22Z</time>
      </trkpt>
      <trkpt lat="45.86693" lon="1.23832">
        <ele>344.2</ele>
        <time>2024-11-10T13:06:23Z</time>
      </trkpt>
      <trkpt lat="45.86697" lon="1.23832">
        <ele>344.4</ele>
        <time>2024-11-10T13:06:24Z</time>
      </trkpt>
      <trkpt lat="45.867" lon="1.23832">
        <ele>344.6</ele>
        <time>2024-11-10T13:06:25Z</time>
      </trkpt>
      <trkpt lat="45.86703" lon="1.23832">
        <ele>344.7</ele>
        <time>2024-11-10T13:06:26Z</time>
      </trkpt>
      <trkpt lat="45.86707" lon="1.23832">
        <ele>344.9</ele>
        <time>2024-11-10T13:06:27Z</time>
      </trkpt>
      <trkpt lat="45.8671" lon="1.23832">
        <ele>345.1</ele>
        <time>2024-11-10T13:06:28Z</time>
      </trkpt>
      <trkpt lat="45.86713" lon="1.23832">
        <ele>345.3</ele>
        <time>2024-11-10T13:06:29Z</time>
      </trkpt>
      <trkpt lat="45.86717" lon="1.23833">
        <ele>345.5</ele>
        <time>2024-11-10T13:06:30Z</time>
      </trkpt>
      <trkpt lat="45.8672" lon="1.23834">
        <ele>345.6</ele>
        <time>2024-11-10T13:06:31Z</time>
      </trkpt>
      <trkpt lat="45.86723" lon="1.23835">
        <ele>345.8</ele>
        <time>2024-11-10T13:06:32Z</time>
      </trkpt>
      <trkpt lat="45.86726" lon="1.23835">
        <ele>345.9</ele>
        <time>2024-11-10T13:06:33Z</time>
      </trkpt>
      <trkpt lat="45.8673" lon="1.23835">
        <ele>346.1</ele>
        <time>2024-11-10T13:06:34Z</time>
      </trkpt>
      <trkpt lat="45.86733" lon="1.23835">
        <ele>346.2</ele>
        <time>2024-11-10T13:06:35Z</time>
      </trkpt>
      <trkpt lat="45.86736" lon="1.23835">
        <ele>346.4</ele>
        <time>2024-11-10T13:06:36Z</time>
      </trkpt>
      <trkpt lat="45.86739" lon="1.23836">
        <ele>346.5</ele>
        <time>2024-11-10T13:06:37Z</time>
      </trkpt>
      <trkpt lat="45.86742" lon="1.23839">
        <ele>346.7</ele>
        <time>2024-11-10T13:06:38Z</time>
      </trkpt>
      <trkpt lat="45.86744" lon="1.23843">
        <ele>346.6</ele>
        <time>2024-11-10T13:06:39Z</time>
      </trkpt>
      <trkpt lat="45.86745" lon="1.23848">
        <ele>346.6</ele>
        <time>2024-11-10T13:06:40Z</time>
      </trkpt>
      <trkpt lat="45.86746" lon="1.23853">
        <ele>346.6</ele>
        <time>2024-11-10T13:06:41Z</time>
      </trkpt>
      <trkpt lat="45.86746" lon="1.2386">
        <ele>346.5</ele>
        <time>2024-11-10T13:06:42Z</time>
      </trkpt>
      <trkpt lat="45.86747" lon="1.23867">
        <ele>346.4</ele>
        <time>2024-11-10T13:06:43Z</time>
      </trkpt>
      <trkpt lat="45.86747" lon="1.23873">
        <ele>346.4</ele>
        <time>2024-11-10T13:06:44Z</time>
      </trkpt>
      <trkpt lat="45.86747" lon="1.2388">
        <ele>346.3</ele>
        <time>2024-11-10T13:06:45Z</time>
      </trkpt>
      <trkpt lat="45.86748" lon="1.23888">
        <ele>346.2</ele>
        <time>2024-11-10T13:06:46Z</time>
      </trkpt>
      <trkpt lat="45.86748" lon="1.23895">
        <ele>346.2</ele>
        <time>2024-11-10T13:06:47Z</time>
      </trkpt>
      <trkpt lat="45.86748" lon="1.23902">
        <ele>346.1</ele>
        <time>2024-11-10T13:06:48Z</time>
      </trkpt>
      <trkpt lat="45.86748" lon="1.23909">
        <ele>346.1</ele>
        <time>2024-11-10T13:06:49Z</time>
      </trkpt>
      <trkpt lat="45.86748" lon="1.23916">
        <ele>346</ele>
        <time>2024-11-10T13:06:50Z</time>
      </trkpt>
      <trkpt lat="45.86748" lon="1.23923">
        <ele>346</ele>
        <time>2024-11-10T13:06:51Z</time>
      </trkpt>
      <trkpt lat="45.86748" lon="1.23929">
        <ele>346</ele>
        <time>2024-11-10T13:06:52Z</time>
      </trkpt>
      <trkpt lat="45.86748" lon="1.23934">
        <ele>345.9</ele>
        <time>2024-11-10T13:06:53Z</time>
      </trkpt>
      <trkpt lat="45.86748" lon="1.2394">
        <ele>345.9</ele>
        <time>2024-11-10T13:06:54Z</time>
      </trkpt>
      <trkpt lat="45.86748" lon="1.23947">
        <ele>345.9</ele>
        <time>2024-11-10T13:06:55Z</time>
      </trkpt>
      <trkpt lat="45.86749" lon="1.23953">
        <ele>345.9</ele>
        <time>2024-11-10T13:06:56Z</time>
      </trkpt>
      <trkpt lat="45.86749" lon="1.23958">
        <ele>345.9</ele>
        <time>2024-11-10T13:06:57Z</time>
      </trkpt>
      <trkpt lat="45.86751" lon="1.23963">
        <ele>345.9</ele>
        <time>2024-11-10T13:06:58Z</time>
      </trkpt>
      <trkpt lat="45.86755" lon="1.23967">
        <ele>345.8</ele>
        <time>2024-11-10T13:07:00Z</time>
      </trkpt>
      <trkpt lat="45.8676" lon="1.23969">
        <ele>345.8</ele>
        <time>2024-11-10T13:07:01Z</time>
      </trkpt>
      <trkpt lat="45.86765" lon="1.2397">
        <ele>345.8</ele>
        <time>2024-11-10T13:07:02Z</time>
      </trkpt>
      <trkpt lat="45.86769" lon="1.2397">
        <ele>345.8</ele>
        <time>2024-11-10T13:07:03Z</time>
      </trkpt>
      <trkpt lat="45.86773" lon="1.23971">
        <ele>345.9</ele>
        <time>2024-11-10T13:07:04Z</time>
      </trkpt>
      <trkpt lat="45.86777" lon="1.23972">
        <ele>345.9</ele>
        <time>2024-11-10T13:07:05Z</time>
      </trkpt>
      <trkpt lat="45.86781" lon="1.23972">
        <ele>346</ele>
        <time>2024-11-10T13:07:06Z</time>
      </trkpt>
      <trkpt lat="45.86786" lon="1.23972">
        <ele>346.1</ele>
        <time>2024-11-10T13:07:07Z</time>
      </trkpt>
      <trkpt lat="45.8679" lon="1.23972">
        <ele>346.1</ele>
        <time>2024-11-10T13:07:08Z</time>
      </trkpt>
      <trkpt lat="45.86794" lon="1.23972">
        <ele>346.2</ele>
        <time>2024-11-10T13:07:09Z</time>
      </trkpt>
      <trkpt lat="45.86798" lon="1.23971">
        <ele>346.3</ele>
        <time>2024-11-10T13:07:10Z</time>
      </trkpt>
      <trkpt lat="45.86802" lon="1.23971">
        <ele>346.4</ele>
        <time>2024-11-10T13:07:11Z</time>
      </trkpt>
      <trkpt lat="45.86805" lon="1.23971">
        <ele>346.5</ele>
        <time>2024-11-10T13:07:12Z</time>
      </trkpt>
      <trkpt lat="45.8681" lon="1.2397">
        <ele>346.6</ele>
        <time>2024-11-10T13:07:13Z</time>
      </trkpt>
      <trkpt lat="45.86814" lon="1.23969">
        <ele>346.7</ele>
        <time>2024-11-10T13:07:14Z</time>
      </trkpt>
      <trkpt lat="45.86818" lon="1.23969">
        <ele>346.8</ele>
        <time>2024-11-10T13:07:15Z</time>
      </trkpt>
      <trkpt lat="45.86822" lon="1.23969">
        <ele>346.9</ele>
        <time>2024-11-10T13:07:16Z</time>
      </trkpt>
      <trkpt lat="45.86825" lon="1.23969">
        <ele>347</ele>
        <time>2024-11-10T13:07:17Z</time>
      </trkpt>
      <trkpt lat="45.86829" lon="1.2397">
        <ele>347.1</ele>
        <time>2024-11-10T13:07:18Z</time>
      </trkpt>
      <trkpt lat="45.86832" lon="1.23969">
        <ele>347.2</ele>
        <time>2024-11-10T13:07:19Z</time>
      </trkpt>
      <trkpt lat="45.86835" lon="1.23969">
        <ele>347.3</ele>
        <time>2024-11-10T13:07:20Z</time>
      </trkpt>
      <trkpt lat="45.86838" lon="1.23969">
        <ele>347.4</ele>
        <time>2024-11-10T13:07:21Z</time>
      </trkpt>
      <trkpt lat="45.86842" lon="1.23969">
        <ele>347.6</ele>
        <time>2024-11-10T13:07:22Z</time>
      </trkpt>
      <trkpt lat="45.86845" lon="1.23969">
        <ele>347.7</ele>
        <time>2024-11-10T13:07:23Z</time>
      </trkpt>
      <trkpt lat="45.86849" lon="1.23969">
        <ele>347.8</ele>
        <time>2024-11-10T13:07:24Z</time>
      </trkpt>
      <trkpt lat="45.86852" lon="1.2397">
        <ele>347.9</ele>
        <time>2024-11-10T13:07:25Z</time>
      </trkpt>
      <trkpt lat="45.86855" lon="1.23972">
        <ele>348</ele>
        <time>2024-11-10T13:07:26Z</time>
      </trkpt>
      <trkpt lat="45.86856" lon="1.23975">
        <ele>347.9</ele>
        <time>2024-11-10T13:07:27Z</time>
      </trkpt>
      <trkpt lat="45.86856" lon="1.2398">
        <ele>347.8</ele>
        <time>2024-11-10T13:07:28Z</time>
      </trkpt>
      <trkpt lat="45.86856" lon="1.23986">
        <ele>347.7</ele>
        <time>2024-11-10T13:07:29Z</time>
      </trkpt>
      <trkpt lat="45.86856" lon="1.23993">
        <ele>347.5</ele>
        <time>2024-11-10T13:07:30Z</time>
      </trkpt>
      <trkpt lat="45.86855" lon="1.24">
        <ele>347.3</ele>
        <time>2024-11-10T13:07:31Z</time>
      </trkpt>
      <trkpt lat="45.86856" lon="1.24007">
        <ele>347.1</ele>
        <time>2024-11-10T13:07:32Z</time>
      </trkpt>
      <trkpt lat="45.86855" lon="1.24015">
        <ele>346.9</ele>
        <time>2024-11-10T13:07:33Z</time>
      </trkpt>
      <trkpt lat="45.86855" lon="1.24022">
        <ele>346.7</ele>
        <time>2024-11-10T13:07:34Z</time>
      </trkpt>
      <trkpt lat="45.86856" lon="1.24029">
        <ele>346.5</ele>
        <time>2024-11-10T13:07:36Z</time>
      </trkpt>
      <trkpt lat="45.86858" lon="1.24033">
        <ele>346.3</ele>
        <time>2024-11-10T13:07:37Z</time>
      </trkpt>
      <trkpt lat="45.86862" lon="1.24038">
        <ele>346</ele>
        <time>2024-11-10T13:07:39Z</time>
      </trkpt>
      <trkpt lat="45.86866" lon="1.24041">
        <ele>345.8</ele>
        <time>2024-11-10T13:07:40Z</time>
      </trkpt>
      <trkpt lat="45.86869" lon="1.24043">
        <ele>345.7</ele>
        <time>2024-11-10T13:07:41Z</time>
      </trkpt>
      <trkpt lat="45.86872" lon="1.24044">
        <ele>345.6</ele>
        <time>2024-11-10T13:07:42Z</time>
      </trkpt>
      <trkpt lat="45.86875" lon="1.24045">
        <ele>345.5</ele>
        <time>2024-11-10T13:07:43Z</time>
      </trkpt>
      <trkpt lat="45.86878" lon="1.24047">
        <ele>345.4</ele>
        <time>2024-11-10T13:07:44Z</time>
      </trkpt>
      <trkpt lat="45.86882" lon="1.24049">
        <ele>345.3</ele>
        <time>2024-11-10T13:07:45Z</time>
      </trkpt>
      <trkpt lat="45.86885" lon="1.24051">
        <ele>345.2</ele>
        <time>2024-11-10T13:07:46Z</time>
      </trkpt>
      <trkpt lat="45.86889" lon="1.24053">
        <ele>345.1</ele>
        <time>2024-11-10T13:07:47Z</time>
      </trkpt>
      <trkpt lat="45.86893" lon="1.24056">
        <ele>345.1</ele>
        <time>2024-11-10T13:07:48Z</time>
      </trkpt>
      <trkpt lat="45.86897" lon="1.24058">
        <ele>345</ele>
        <time>2024-11-10T13:07:49Z</time>
      </trkpt>
      <trkpt lat="45.86901" lon="1.2406">
        <ele>345</ele>
        <time>2024-11-10T13:07:50Z</time>
      </trkpt>
      <trkpt lat="45.86904" lon="1.24062">
        <ele>345</ele>
        <time>2024-11-10T13:07:51Z</time>
      </trkpt>
      <trkpt lat="45.86908" lon="1.24064">
        <ele>345</ele>
        <time>2024-11-10T13:07:52Z</time>
      </trkpt>
      <trkpt lat="45.86911" lon="1.24066">
        <ele>345</ele>
        <time>2024-11-10T13:07:53Z</time>
      </trkpt>
      <trkpt lat="45.86914" lon="1.24068">
        <ele>345.1</ele>
        <time>2024-11-10T13:07:54Z</time>
      </trkpt>
      <trkpt lat="45.86917" lon="1.24069">
        <ele>345.1</ele>
        <time>2024-11-10T13:07:55Z</time>
      </trkpt>
      <trkpt lat="45.8692" lon="1.24071">
        <ele>345.2</ele>
        <time>2024-11-10T13:07:56Z</time>
      </trkpt>
      <trkpt lat="45.86923" lon="1.24072">
        <ele>345.3</ele>
        <time>2024-11-10T13:07:57Z</time>
      </trkpt>
      <trkpt lat="45.86927" lon="1.24073">
        <ele>345.4</ele>
        <time>2024-11-10T13:07:58Z</time>
      </trkpt>
      <trkpt lat="45.8693" lon="1.24075">
        <ele>345.5</ele>
        <time>2024-11-10T13:07:59Z</time>
      </trkpt>
      <trkpt lat="45.86933" lon="1.24077">
        <ele>345.6</ele>
        <time>2024-11-10T13:08:00Z</time>
      </trkpt>
      <trkpt lat="45.86936" lon="1.24079">
        <ele>345.6</ele>
        <time>2024-11-10T13:08:01Z</time>
      </trkpt>
      <trkpt lat="45.86939" lon="1.2408">
        <ele>345.6</ele>
        <time>2024-11-10T13:08:02Z</time>
      </trkpt>
      <trkpt lat="45.86943" lon="1.24082">
        <ele>345.6</ele>
        <time>2024-11-10T13:08:03Z</time>
      </trkpt>
      <trkpt lat="45.86946" lon="1.24083">
        <ele>345.6</ele>
        <time>2024-11-10T13:08:04Z</time>
      </trkpt>
      <trkpt lat="45.86949" lon="1.24085">
        <ele>345.5</ele>
        <time>2024-11-10T13:08:05Z</time>
      </trkpt>
      <trkpt lat="45.86952" lon="1.24087">
        <ele>345.4</ele>
        <time>2024-11-10T13:08:06Z</time>
      </trkpt>
      <trkpt lat="45.86956" lon="1.24089">
        <ele>345.2</ele>
        <time>2024-11-10T13:08:07Z</time>
      </trkpt>
      <trkpt lat="45.86959" lon="1.24091">
        <ele>345.1</ele>
        <time>2024-11-10T13:08:08Z</time>
      </trkpt>
      <trkpt lat="45.86963" lon="1.24093">
        <ele>344.9</ele>
        <time>2024-11-10T13:08:09Z</time>
      </trkpt>
      <trkpt lat="45.86966" lon="1.24094">
        <ele>344.7</ele>
        <time>2024-11-10T13:08:10Z</time>
      </trkpt>
      <trkpt lat="45.86969" lon="1.24096">
        <ele>344.5</ele>
        <time>2024-11-10T13:08:11Z</time>
      </trkpt>
      <trkpt lat="45.86973" lon="1.24098">
        <ele>344.3</ele>
        <time>2024-11-10T13:08:12Z</time>
      </trkpt>
      <trkpt lat="45.86977" lon="1.241">
        <ele>344.1</ele>
        <time>2024-11-10T13:08:13Z</time>
      </trkpt>
      <trkpt lat="45.86982" lon="1.24102">
        <ele>343.8</ele>
        <time>2024-11-10T13:08:14Z</time>
      </trkpt>
      <trkpt lat="45.86986" lon="1.24105">
        <ele>343.6</ele>
        <time>2024-11-10T13:08:15Z</time>
      </trkpt>
      <trkpt lat="45.8699" lon="1.24107">
        <ele>343.5</ele>
        <time>2024-11-10T13:08:16Z</time>
      </trkpt>
      <trkpt lat="45.86994" lon="1.2411">
        <ele>343.4</ele>
        <time>2024-11-10T13:08:17Z</time>
      </trkpt>
      <trkpt lat="45.86998" lon="1.24114">
        <ele>343.3</ele>
        <time>2024-11-10T13:08:18Z</time>
      </trkpt>
      <trkpt lat="45.87003" lon="1.24119">
        <ele>343.2</ele>
        <time>2024-11-10T13:08:19Z</time>
      </trkpt>
      <trkpt lat="45.87007" lon="1.24123">
        <ele>343.1</ele>
        <time>2024-11-10T13:08:20Z</time>
      </trkpt>
      <trkpt lat="45.87011" lon="1.24127">
        <ele>343</ele>
        <time>2024-11-10T13:08:21Z</time>
      </trkpt>
      <trkpt lat="45.87015" lon="1.24131">
        <ele>342.9</ele>
        <time>2024-11-10T13:08:22Z</time>
      </trkpt>
      <trkpt lat="45.87019" lon="1.24134">
        <ele>342.8</ele>
        <time>2024-11-10T13:08:23Z</time>
      </trkpt>
      <trkpt lat="45.87024" lon="1.24138">
        <ele>342.7</ele>
        <time>2024-11-10T13:08:24Z</time>
      </trkpt>
      <trkpt lat="45.87026" lon="1.24141">
        <ele>342.6</ele>
        <time>2024-11-10T13:08:25Z</time>
      </trkpt>
      <trkpt lat="45.87029" lon="1.24145">
        <ele>342.5</ele>
        <time>2024-11-10T13:08:26Z</time>
      </trkpt>
      <trkpt lat="45.87033" lon="1.24149">
        <ele>342.4</ele>
        <time>2024-11-10T13:08:27Z</time>
      </trkpt>
      <trkpt lat="45.87036" lon="1.24153">
        <ele>342.4</ele>
        <time>2024-11-10T13:08:28Z</time>
      </trkpt>
      <trkpt lat="45.87039" lon="1.24157">
        <ele>342.3</ele>
        <time>2024-11-10T13:08:29Z</time>
      </trkpt>
      <trkpt lat="45.87043" lon="1.24162">
        <ele>342.2</ele>
        <time>2024-11-10T13:08:31Z</time>
      </trkpt>
      <trkpt lat="45.87047" lon="1.24165">
        <ele>342.2</ele>
        <time>2024-11-10T13:08:32Z</time>
      </trkpt>
      <trkpt lat="45.8705" lon="1.24168">
        <ele>342.1</ele>
        <time>2024-11-10T13:08:33Z</time>
      </trkpt>
      <trkpt lat="45.87053" lon="1.24171">
        <ele>342.1</ele>
        <time>2024-11-10T13:08:34Z</time>
      </trkpt>
      <trkpt lat="45.87056" lon="1.24174">
        <ele>342.1</ele>
        <time>2024-11-10T13:08:35Z</time>
      </trkpt>
      <trkpt lat="45.87059" lon="1.24178">
        <ele>342.1</ele>
        <time>2024-11-10T13:08:36Z</time>
      </trkpt>
      <trkpt lat="45.87062" lon="1.24181">
        <ele>342.1</ele>
        <time>2024-11-10T13:08:37Z</time>
      </trkpt>
      <trkpt lat="45.87066" lon="1.24184">
        <ele>342.1</ele>
        <time>2024-11-10T13:08:38Z</time>
      </trkpt>
      <trkpt lat="45.87069" lon="1.24187">
        <ele>342.2</ele>
        <time>2024-11-10T13:08:39Z</time>
      </trkpt>
      <trkpt lat="45.87072" lon="1.24188">
        <ele>342.2</ele>
        <time>2024-11-10T13:08:40Z</time>
      </trkpt>
      <trkpt lat="45.87076" lon="1.2419">
        <ele>342.3</ele>
        <time>2024-11-10T13:08:42Z</time>
      </trkpt>
      <trkpt lat="45.87079" lon="1.24192">
        <ele>342.4</ele>
        <time>2024-11-10T13:08:45Z</time>
      </trkpt>
      <trkpt lat="45.87084" lon="1.24195">
        <ele>342.5</ele>
        <time>2024-11-10T13:08:47Z</time>
      </trkpt>
      <trkpt lat="45.87087" lon="1.24198">
        <ele>342.6</ele>
        <time>2024-11-10T13:08:48Z</time>
      </trkpt>
      <trkpt lat="45.87089" lon="1.24203">
        <ele>342.7</ele>
        <time>2024-11-10T13:08:50Z</time>
      </trkpt>
      <trkpt lat="45.87089" lon="1.24208">
        <ele>342.3</ele>
        <time>2024-11-10T13:08:51Z</time>
      </trkpt>
      <trkpt lat="45.87088" lon="1.24213">
        <ele>341.9</ele>
        <time>2024-11-10T13:08:52Z</time>
      </trkpt>
      <trkpt lat="45.87086" lon="1.24216">
        <ele>341.5</ele>
        <time>2024-11-10T13:08:53Z</time>
      </trkpt>
      <trkpt lat="45.87083" lon="1.2422">
        <ele>341.1</ele>
        <time>2024-11-10T13:08:54Z</time>
      </trkpt>
      <trkpt lat="45.8708" lon="1.24223">
        <ele>340.7</ele>
        <time>2024-11-10T13:08:55Z</time>
      </trkpt>
      <trkpt lat="45.87076" lon="1.24226">
        <ele>340.2</ele>
        <time>2024-11-10T13:08:56Z</time>
      </trkpt>
      <trkpt lat="45.87072" lon="1.2423">
        <ele>339.7</ele>
        <time>2024-11-10T13:08:57Z</time>
      </trkpt>
      <trkpt lat="45.87068" lon="1.24233">
        <ele>339.2</ele>
        <time>2024-11-10T13:08:58Z</time>
      </trkpt>
      <trkpt lat="45.87065" lon="1.24236">
        <ele>338.9</ele>
        <time>2024-11-10T13:08:59Z</time>
      </trkpt>
      <trkpt lat="45.87061" lon="1.24239">
        <ele>338.5</ele>
        <time>2024-11-10T13:09:00Z</time>
      </trkpt>
      <trkpt lat="45.87057" lon="1.24242">
        <ele>338.1</ele>
        <time>2024-11-10T13:09:01Z</time>
      </trkpt>
      <trkpt lat="45.87054" lon="1.24245">
        <ele>337.7</ele>
        <time>2024-11-10T13:09:02Z</time>
      </trkpt>
      <trkpt lat="45.8705" lon="1.24249">
        <ele>337.3</ele>
        <time>2024-11-10T13:09:04Z</time>
      </trkpt>
      <trkpt lat="45.87047" lon="1.24254">
        <ele>336.9</ele>
        <time>2024-11-10T13:09:05Z</time>
      </trkpt>
      <trkpt lat="45.87045" lon="1.24259">
        <ele>336.5</ele>
        <time>2024-11-10T13:09:06Z</time>
      </trkpt>
      <trkpt lat="45.87045" lon="1.24264">
        <ele>336.2</ele>
        <time>2024-11-10T13:09:07Z</time>
      </trkpt>
      <trkpt lat="45.87047" lon="1.2427">
        <ele>335.9</ele>
        <time>2024-11-10T13:09:08Z</time>
      </trkpt>
      <trkpt lat="45.87049" lon="1.24276">
        <ele>335.6</ele>
        <time>2024-11-10T13:09:09Z</time>
      </trkpt>
      <trkpt lat="45.8705" lon="1.24281">
        <ele>335.4</ele>
        <time>2024-11-10T13:09:10Z</time>
      </trkpt>
      <trkpt lat="45.87052" lon="1.24287">
        <ele>335.1</ele>
        <time>2024-11-10T13:09:11Z</time>
      </trkpt>
      <trkpt lat="45.87054" lon="1.24292">
        <ele>334.9</ele>
        <time>2024-11-10T13:09:12Z</time>
      </trkpt>
      <trkpt lat="45.87056" lon="1.24298">
        <ele>334.8</ele>
        <time>2024-11-10T13:09:13Z</time>
      </trkpt>
      <trkpt lat="45.87058" lon="1.24303">
        <ele>334.6</ele>
        <time>2024-11-10T13:09:14Z</time>
      </trkpt>
      <trkpt lat="45.8706" lon="1.24309">
        <ele>334.5</ele>
        <time>2024-11-10T13:09:15Z</time>
      </trkpt>
      <trkpt lat="45.87062" lon="1.24315">
        <ele>334.4</ele>
        <time>2024-11-10T13:09:16Z</time>
      </trkpt>
      <trkpt lat="45.87064" lon="1.2432">
        <ele>334.3</ele>
        <time>2024-11-10T13:09:17Z</time>
      </trkpt>
      <trkpt lat="45.87066" lon="1.24325">
        <ele>334.2</ele>
        <time>2024-11-10T13:09:18Z</time>
      </trkpt>
      <trkpt lat="45.87068" lon="1.24331">
        <ele>334.1</ele>
        <time>2024-11-10T13:09:19Z</time>
      </trkpt>
      <trkpt lat="45.8707" lon="1.24336">
        <ele>334.1</ele>
        <time>2024-11-10T13:09:20Z</time>
      </trkpt>
      <trkpt lat="45.87071" lon="1.24342">
        <ele>334</ele>
        <time>2024-11-10T13:09:21Z</time>
      </trkpt>
      <trkpt lat="45.87073" lon="1.24347">
        <ele>333.9</ele>
        <time>2024-11-10T13:09:22Z</time>
      </trkpt>
      <trkpt lat="45.87075" lon="1.24352">
        <ele>333.9</ele>
        <time>2024-11-10T13:09:23Z</time>
      </trkpt>
      <trkpt lat="45.87076" lon="1.24358">
        <ele>333.9</ele>
        <time>2024-11-10T13:09:24Z</time>
      </trkpt>
      <trkpt lat="45.87078" lon="1.24363">
        <ele>333.9</ele>
        <time>2024-11-10T13:09:25Z</time>
      </trkpt>
      <trkpt lat="45.87079" lon="1.24368">
        <ele>333.9</ele>
        <time>2024-11-10T13:09:26Z</time>
      </trkpt>
      <trkpt lat="45.87081" lon="1.24372">
        <ele>334</ele>
        <time>2024-11-10T13:09:27Z</time>
      </trkpt>
      <trkpt lat="45.87082" lon="1.24377">
        <ele>334</ele>
        <time>2024-11-10T13:09:28Z</time>
      </trkpt>
      <trkpt lat="45.87083" lon="1.24381">
        <ele>334.1</ele>
        <time>2024-11-10T13:09:29Z</time>
      </trkpt>
      <trkpt lat="45.87085" lon="1.24386">
        <ele>334.1</ele>
        <time>2024-11-10T13:09:30Z</time>
      </trkpt>
      <trkpt lat="45.87086" lon="1.2439">
        <ele>334.2</ele>
        <time>2024-11-10T13:09:31Z</time>
      </trkpt>
      <trkpt lat="45.87088" lon="1.24395">
        <ele>334.3</ele>
        <time>2024-11-10T13:09:32Z</time>
      </trkpt>
      <trkpt lat="45.8709" lon="1.244">
        <ele>334.4</ele>
        <time>2024-11-10T13:09:33Z</time>
      </trkpt>
      <trkpt lat="45.87091" lon="1.24405">
        <ele>334.5</ele>
        <time>2024-11-10T13:09:34Z</time>
      </trkpt>
      <trkpt lat="45.87093" lon="1.2441">
        <ele>334.6</ele>
        <time>2024-11-10T13:09:35Z</time>
      </trkpt>
      <trkpt lat="45.87095" lon="1.24414">
        <ele>334.7</ele>
        <time>2024-11-10T13:09:36Z</time>
      </trkpt>
      <trkpt lat="45.87096" lon="1.24419">
        <ele>334.9</ele>
        <time>2024-11-10T13:09:37Z</time>
      </trkpt>
      <trkpt lat="45.87097" lon="1.24424">
        <ele>335</ele>
        <time>2024-11-10T13:09:38Z</time>
      </trkpt>
      <trkpt lat="45.87099" lon="1.24429">
        <ele>335.2</ele>
        <time>2024-11-10T13:09:39Z</time>
      </trkpt>
      <trkpt lat="45.87101" lon="1.24433">
        <ele>335.3</ele>
        <time>2024-11-10T13:09:40Z</time>
      </trkpt>
      <trkpt lat="45.87102" lon="1.24438">
        <ele>335.4</ele>
        <time>2024-11-10T13:09:41Z</time>
      </trkpt>
      <trkpt lat="45.87104" lon="1.24442">
        <ele>335.5</ele>
        <time>2024-11-10T13:09:42Z</time>
      </trkpt>
      <trkpt lat="45.87105" lon="1.24446">
        <ele>335.7</ele>
        <time>2024-11-10T13:09:43Z</time>
      </trkpt>
      <trkpt lat="45.87106" lon="1.2445">
        <ele>335.8</ele>
        <time>2024-11-10T13:09:44Z</time>
      </trkpt>
      <trkpt lat="45.87107" lon="1.24454">
        <ele>336</ele>
        <time>2024-11-10T13:09:45Z</time>
      </trkpt>
      <trkpt lat="45.87109" lon="1.24458">
        <ele>336.1</ele>
        <time>2024-11-10T13:09:46Z</time>
      </trkpt>
      <trkpt lat="45.8711" lon="1.24462">
        <ele>336.3</ele>
        <time>2024-11-10T13:09:47Z</time>
      </trkpt>
      <trkpt lat="45.87111" lon="1.24465">
        <ele>336.5</ele>
        <time>2024-11-10T13:09:48Z</time>
      </trkpt>
      <trkpt lat="45.87112" lon="1.24469">
        <ele>336.7</ele>
        <time>2024-11-10T13:09:49Z</time>
      </trkpt>
      <trkpt lat="45.87114" lon="1.24473">
        <ele>336.9</ele>
        <time>2024-11-10T13:09:50Z</time>
      </trkpt>
      <trkpt lat="45.87115" lon="1.24477">
        <ele>337.1</ele>
        <time>2024-11-10T13:09:51Z</time>
      </trkpt>
      <trkpt lat="45.87117" lon="1.24482">
        <ele>337.4</ele>
        <time>2024-11-10T13:09:53Z</time>
      </trkpt>
      <trkpt lat="45.87119" lon="1.24488">
        <ele>337.7</ele>
        <time>2024-11-10T13:09:55Z</time>
      </trkpt>
      <trkpt lat="45.8712" lon="1.24494">
        <ele>338</ele>
        <time>2024-11-10T13:09:57Z</time>
      </trkpt>
      <trkpt lat="45.87122" lon="1.245">
        <ele>338.2</ele>
        <time>2024-11-10T13:09:59Z</time>
      </trkpt>
      <trkpt lat="45.87123" lon="1.24506">
        <ele>338.5</ele>
        <time>2024-11-10T13:10:01Z</time>
      </trkpt>
      <trkpt lat="45.87125" lon="1.24512">
        <ele>338.6</ele>
        <time>2024-11-10T13:10:03Z</time>
      </trkpt>
      <trkpt lat="45.87128" lon="1.24519">
        <ele>338.7</ele>
        <time>2024-11-10T13:10:05Z</time>
      </trkpt>
      <trkpt lat="45.87129" lon="1.24523">
        <ele>338.7</ele>
        <time>2024-11-10T13:10:06Z</time>
      </trkpt>
      <trkpt lat="45.87131" lon="1.24527">
        <ele>338.6</ele>
        <time>2024-11-10T13:10:07Z</time>
      </trkpt>
      <trkpt lat="45.87133" lon="1.24533">
        <ele>338.5</ele>
        <time>2024-11-10T13:10:09Z</time>
      </trkpt>
      <trkpt lat="45.87134" lon="1.24538">
        <ele>338.4</ele>
        <time>2024-11-10T13:10:10Z</time>
      </trkpt>
      <trkpt lat="45.87136" lon="1.24542">
        <ele>338.2</ele>
        <time>2024-11-10T13:10:11Z</time>
      </trkpt>
      <trkpt lat="45.87137" lon="1.24546">
        <ele>338.2</ele>
        <time>2024-11-10T13:10:12Z</time>
      </trkpt>
      <trkpt lat="45.8714" lon="1.24552">
        <ele>338.2</ele>
        <time>2024-11-10T13:10:14Z</time>
      </trkpt>
      <trkpt lat="45.87142" lon="1.24556">
        <ele>338.1</ele>
        <time>2024-11-10T13:10:15Z</time>
      </trkpt>
      <trkpt lat="45.87146" lon="1.2456">
        <ele>338</ele>
        <time>2024-11-10T13:10:17Z</time>
      </trkpt>
      <trkpt lat="45.87149" lon="1.24563">
        <ele>337.8</ele>
        <time>2024-11-10T13:10:18Z</time>
      </trkpt>
      <trkpt lat="45.87152" lon="1.24565">
        <ele>337.6</ele>
        <time>2024-11-10T13:10:19Z</time>
      </trkpt>
      <trkpt lat="45.87157" lon="1.24566">
        <ele>337.2</ele>
        <time>2024-11-10T13:10:21Z</time>
      </trkpt>
      <trkpt lat="45.8716" lon="1.24568">
        <ele>336.9</ele>
        <time>2024-11-10T13:10:22Z</time>
      </trkpt>
      <trkpt lat="45.87163" lon="1.2457">
        <ele>336.6</ele>
        <time>2024-11-10T13:10:23Z</time>
      </trkpt>
      <trkpt lat="45.87167" lon="1.24571">
        <ele>336.3</ele>
        <time>2024-11-10T13:10:24Z</time>
      </trkpt>
      <trkpt lat="45.87172" lon="1.2457">
        <ele>335.8</ele>
        <time>2024-11-10T13:10:25Z</time>
      </trkpt>
      <trkpt lat="45.87176" lon="1.24569">
        <ele>335.5</ele>
        <time>2024-11-10T13:10:26Z</time>
      </trkpt>
      <trkpt lat="45.87183" lon="1.24569">
        <ele>335</ele>
        <time>2024-11-10T13:10:27Z</time>
      </trkpt>
      <trkpt lat="45.8719" lon="1.24569">
        <ele>334.7</ele>
        <time>2024-11-10T13:10:28Z</time>
      </trkpt>
      <trkpt lat="45.87195" lon="1.24569">
        <ele>334.5</ele>
        <time>2024-11-10T13:10:29Z</time>
      </trkpt>
      <trkpt lat="45.872" lon="1.24569">
        <ele>334.4</ele>
        <time>2024-11-10T13:10:30Z</time>
      </trkpt>
      <trkpt lat="45.87206" lon="1.2457">
        <ele>334.3</ele>
        <time>2024-11-10T13:10:31Z</time>
      </trkpt>
      <trkpt lat="45.87211" lon="1.2457">
        <ele>334.2</ele>
        <time>2024-11-10T13:10:32Z</time>
      </trkpt>
      <trkpt lat="45.87216" lon="1.24571">
        <ele>334.1</ele>
        <time>2024-11-10T13:10:33Z</time>
      </trkpt>
      <trkpt lat="45.8722" lon="1.24571">
        <ele>333.9</ele>
        <time>2024-11-10T13:10:34Z</time>
      </trkpt>
      <trkpt lat="45.87224" lon="1.24572">
        <ele>333.6</ele>
        <time>2024-11-10T13:10:36Z</time>
      </trkpt>
      <trkpt lat="45.87228" lon="1.24572">
        <ele>333.3</ele>
        <time>2024-11-10T13:10:38Z</time>
      </trkpt>
      <trkpt lat="45.87231" lon="1.24572">
        <ele>332.9</ele>
        <time>2024-11-10T13:10:40Z</time>
      </trkpt>
      <trkpt lat="45.87235" lon="1.24573">
        <ele>332.4</ele>
        <time>2024-11-10T13:10:42Z</time>
      </trkpt>
      <trkpt lat="45.87238" lon="1.24571">
        <ele>331.8</ele>
        <time>2024-11-10T13:10:43Z</time>
      </trkpt>
      <trkpt lat="45.87241" lon="1.24569">
        <ele>330.3</ele>
        <time>2024-11-10T13:10:44Z</time>
      </trkpt>
      <trkpt lat="45.87243" lon="1.24564">
        <ele>330.5</ele>
        <time>2024-11-10T13:10:45Z</time>
      </trkpt>
      <trkpt lat="45.87246" lon="1.24559">
        <ele>330.7</ele>
        <time>2024-11-10T13:10:46Z</time>
      </trkpt>
      <trkpt lat="45.87248" lon="1.24553">
        <ele>330.8</ele>
        <time>2024-11-10T13:10:47Z</time>
      </trkpt>
      <trkpt lat="45.8725" lon="1.24547">
        <ele>331</ele>
        <time>2024-11-10T13:10:48Z</time>
      </trkpt>
      <trkpt lat="45.87252" lon="1.24541">
        <ele>331.2</ele>
        <time>2024-11-10T13:10:49Z</time>
      </trkpt>
      <trkpt lat="45.87256" lon="1.24537">
        <ele>331.4</ele>
        <time>2024-11-10T13:10:50Z</time>
      </trkpt>
      <trkpt lat="45.8726" lon="1.24534">
        <ele>331.6</ele>
        <time>2024-11-10T13:10:51Z</time>
      </trkpt>
      <trkpt lat="45.87264" lon="1.24531">
        <ele>331.8</ele>
        <time>2024-11-10T13:10:52Z</time>
      </trkpt>
      <trkpt lat="45.87268" lon="1.24528">
        <ele>331.9</ele>
        <time>2024-11-10T13:10:53Z</time>
      </trkpt>
      <trkpt lat="45.87272" lon="1.24523">
        <ele>332.1</ele>
        <time>2024-11-10T13:10:54Z</time>
      </trkpt>
      <trkpt lat="45.87276" lon="1.24519">
        <ele>332.2</ele>
        <time>2024-11-10T13:10:55Z</time>
      </trkpt>
      <trkpt lat="45.8728" lon="1.24516">
        <ele>332.2</ele>
        <time>2024-11-10T13:10:56Z</time>
      </trkpt>
      <trkpt lat="45.87284" lon="1.24512">
        <ele>332.3</ele>
        <time>2024-11-10T13:10:57Z</time>
      </trkpt>
      <trkpt lat="45.87288" lon="1.24511">
        <ele>332.3</ele>
        <time>2024-11-10T13:10:58Z</time>
      </trkpt>
      <trkpt lat="45.87293" lon="1.24508">
        <ele>332.4</ele>
        <time>2024-11-10T13:10:59Z</time>
      </trkpt>
      <trkpt lat="45.87297" lon="1.24508">
        <ele>332.4</ele>
        <time>2024-11-10T13:11:00Z</time>
      </trkpt>
      <trkpt lat="45.87301" lon="1.24507">
        <ele>332.5</ele>
        <time>2024-11-10T13:11:01Z</time>
      </trkpt>
      <trkpt lat="45.87305" lon="1.24504">
        <ele>332.6</ele>
        <time>2024-11-10T13:11:02Z</time>
      </trkpt>
      <trkpt lat="45.87309" lon="1.24502">
        <ele>332.7</ele>
        <time>2024-11-10T13:11:03Z</time>
      </trkpt>
      <trkpt lat="45.87313" lon="1.24498">
        <ele>332.8</ele>
        <time>2024-11-10T13:11:05Z</time>
      </trkpt>
      <trkpt lat="45.87318" lon="1.24496">
        <ele>332.9</ele>
        <time>2024-11-10T13:11:06Z</time>
      </trkpt>
      <trkpt lat="45.87321" lon="1.24492">
        <ele>333</ele>
        <time>2024-11-10T13:11:09Z</time>
      </trkpt>
      <trkpt lat="45.87325" lon="1.2449">
        <ele>333.1</ele>
        <time>2024-11-10T13:11:11Z</time>
      </trkpt>
      <trkpt lat="45.8733" lon="1.2449">
        <ele>333.2</ele>
        <time>2024-11-10T13:11:12Z</time>
      </trkpt>
      <trkpt lat="45.87336" lon="1.2449">
        <ele>333.3</ele>
        <time>2024-11-10T13:11:13Z</time>
      </trkpt>
      <trkpt lat="45.8734" lon="1.2449">
        <ele>333.4</ele>
        <time>2024-11-10T13:11:14Z</time>
      </trkpt>
      <trkpt lat="45.87345" lon="1.24489">
        <ele>333.5</ele>
        <time>2024-11-10T13:11:15Z</time>
      </trkpt>
      <trkpt lat="45.87349" lon="1.2449">
        <ele>333.6</ele>
        <time>2024-11-10T13:11:16Z</time>
      </trkpt>
      <trkpt lat="45.87353" lon="1.2449">
        <ele>333.8</ele>
        <time>2024-11-10T13:11:17Z</time>
      </trkpt>
      <trkpt lat="45.87357" lon="1.24491">
        <ele>333.9</ele>
        <time>2024-11-10T13:11:18Z</time>
      </trkpt>
      <trkpt lat="45.87363" lon="1.24493">
        <ele>334.1</ele>
        <time>2024-11-10T13:11:20Z</time>
      </trkpt>
      <trkpt lat="45.87365" lon="1.24494">
        <ele>334.2</ele>
        <time>2024-11-10T13:11:21Z</time>
      </trkpt>
      <trkpt lat="45.87369" lon="1.24495">
        <ele>334.4</ele>
        <time>2024-11-10T13:11:22Z</time>
      </trkpt>
      <trkpt lat="45.87372" lon="1.24496">
        <ele>334.6</ele>
        <time>2024-11-10T13:11:23Z</time>
      </trkpt>
      <trkpt lat="45.87375" lon="1.24496">
        <ele>334.7</ele>
        <time>2024-11-10T13:11:24Z</time>
      </trkpt>
      <trkpt lat="45.87379" lon="1.24495">
        <ele>334.9</ele>
        <time>2024-11-10T13:11:25Z</time>
      </trkpt>
      <trkpt lat="45.87381" lon="1.24494">
        <ele>335</ele>
        <time>2024-11-10T13:11:26Z</time>
      </trkpt>
      <trkpt lat="45.87386" lon="1.24494">
        <ele>335.3</ele>
        <time>2024-11-10T13:11:28Z</time>
      </trkpt>
      <trkpt lat="45.87389" lon="1.24494">
        <ele>335.4</ele>
        <time>2024-11-10T13:11:29Z</time>
      </trkpt>
      <trkpt lat="45.87393" lon="1.24494">
        <ele>335.6</ele>
        <time>2024-11-10T13:11:30Z</time>
      </trkpt>
      <trkpt lat="45.87396" lon="1.24494">
        <ele>335.8</ele>
        <time>2024-11-10T13:11:31Z</time>
      </trkpt>
      <trkpt lat="45.87399" lon="1.24493">
        <ele>335.9</ele>
        <time>2024-11-10T13:11:32Z</time>
      </trkpt>
      <trkpt lat="45.87402" lon="1.24491">
        <ele>336.1</ele>
        <time>2024-11-10T13:11:33Z</time>
      </trkpt>
      <trkpt lat="45.87406" lon="1.24487">
        <ele>336.3</ele>
        <time>2024-11-10T13:11:35Z</time>
      </trkpt>
      <trkpt lat="45.87409" lon="1.24483">
        <ele>336.4</ele>
        <time>2024-11-10T13:11:36Z</time>
      </trkpt>
      <trkpt lat="45.87411" lon="1.2448">
        <ele>336.4</ele>
        <time>2024-11-10T13:11:37Z</time>
      </trkpt>
      <trkpt lat="45.87414" lon="1.24477">
        <ele>336.4</ele>
        <time>2024-11-10T13:11:38Z</time>
      </trkpt>
      <trkpt lat="45.87417" lon="1.24473">
        <ele>336.4</ele>
        <time>2024-11-10T13:11:39Z</time>
      </trkpt>
      <trkpt lat="45.8742" lon="1.2447">
        <ele>336.5</ele>
        <time>2024-11-10T13:11:40Z</time>
      </trkpt>
      <trkpt lat="45.87422" lon="1.24466">
        <ele>336.5</ele>
        <time>2024-11-10T13:11:41Z</time>
      </trkpt>
      <trkpt lat="45.87425" lon="1.24462">
        <ele>336.5</ele>
        <time>2024-11-10T13:11:42Z</time>
      </trkpt>
      <trkpt lat="45.87427" lon="1.24459">
        <ele>336.5</ele>
        <time>2024-11-10T13:11:43Z</time>
      </trkpt>
      <trkpt lat="45.8743" lon="1.24455">
        <ele>336.6</ele>
        <time>2024-11-10T13:11:44Z</time>
      </trkpt>
      <trkpt lat="45.87432" lon="1.24451">
        <ele>336.7</ele>
        <time>2024-11-10T13:11:45Z</time>
      </trkpt>
      <trkpt lat="45.87434" lon="1.24447">
        <ele>336.7</ele>
        <time>2024-11-10T13:11:46Z</time>
      </trkpt>
      <trkpt lat="45.87436" lon="1.24444">
        <ele>336.8</ele>
        <time>2024-11-10T13:11:47Z</time>
      </trkpt>
      <trkpt lat="45.87438" lon="1.2444">
        <ele>336.9</ele>
        <time>2024-11-10T13:11:48Z</time>
      </trkpt>
      <trkpt lat="45.87441" lon="1.24437">
        <ele>336.9</ele>
        <time>2024-11-10T13:11:49Z</time>
      </trkpt>
      <trkpt lat="45.87444" lon="1.24433">
        <ele>337</ele>
        <time>2024-11-10T13:11:50Z</time>
      </trkpt>
      <trkpt lat="45.87447" lon="1.24431">
        <ele>337.1</ele>
        <time>2024-11-10T13:11:51Z</time>
      </trkpt>
      <trkpt lat="45.8745" lon="1.24429">
        <ele>337.2</ele>
        <time>2024-11-10T13:11:52Z</time>
      </trkpt>
      <trkpt lat="45.87453" lon="1.24426">
        <ele>337.3</ele>
        <time>2024-11-10T13:11:53Z</time>
      </trkpt>
      <trkpt lat="45.87456" lon="1.24423">
        <ele>337.3</ele>
        <time>2024-11-10T13:11:54Z</time>
      </trkpt>
      <trkpt lat="45.87459" lon="1.24421">
        <ele>337.4</ele>
        <time>2024-11-10T13:11:55Z</time>
      </trkpt>
      <trkpt lat="45.87461" lon="1.24419">
        <ele>337.4</ele>
        <time>2024-11-10T13:11:56Z</time>
      </trkpt>
      <trkpt lat="45.87464" lon="1.24417">
        <ele>337.5</ele>
        <time>2024-11-10T13:11:57Z</time>
      </trkpt>
      <trkpt lat="45.87467" lon="1.24416">
        <ele>337.6</ele>
        <time>2024-11-10T13:11:58Z</time>
      </trkpt>
      <trkpt lat="45.87471" lon="1.24414">
        <ele>337.7</ele>
        <time>2024-11-10T13:11:59Z</time>
      </trkpt>
      <trkpt lat="45.87474" lon="1.24413">
        <ele>337.7</ele>
        <time>2024-11-10T13:12:00Z</time>
      </trkpt>
      <trkpt lat="45.87477" lon="1.24412">
        <ele>337.7</ele>
        <time>2024-11-10T13:12:01Z</time>
      </trkpt>
      <trkpt lat="45.87479" lon="1.2441">
        <ele>337.7</ele>
        <time>2024-11-10T13:12:02Z</time>
      </trkpt>
      <trkpt lat="45.87482" lon="1.24409">
        <ele>337.8</ele>
        <time>2024-11-10T13:12:03Z</time>
      </trkpt>
      <trkpt lat="45.87486" lon="1.24407">
        <ele>337.8</ele>
        <time>2024-11-10T13:12:05Z</time>
      </trkpt>
      <trkpt lat="45.87491" lon="1.24404">
        <ele>337.8</ele>
        <time>2024-11-10T13:12:07Z</time>
      </trkpt>
      <trkpt lat="45.87494" lon="1.24402">
        <ele>337.8</ele>
        <time>2024-11-10T13:12:08Z</time>
      </trkpt>
      <trkpt lat="45.87498" lon="1.24404">
        <ele>337.9</ele>
        <time>2024-11-10T13:12:11Z</time>
      </trkpt>
      <trkpt lat="45.875" lon="1.24409">
        <ele>337.9</ele>
        <time>2024-11-10T13:12:13Z</time>
      </trkpt>
      <trkpt lat="45.87502" lon="1.24414">
        <ele>338</ele>
        <time>2024-11-10T13:12:14Z</time>
      </trkpt>
      <trkpt lat="45.87505" lon="1.24418">
        <ele>338</ele>
        <time>2024-11-10T13:12:16Z</time>
      </trkpt>
      <trkpt lat="45.87509" lon="1.24421">
        <ele>338.1</ele>
        <time>2024-11-10T13:12:18Z</time>
      </trkpt>
      <trkpt lat="45.87513" lon="1.24422">
        <ele>338.2</ele>
        <time>2024-11-10T13:12:19Z</time>
      </trkpt>
      <trkpt lat="45.87517" lon="1.24422">
        <ele>338.3</ele>
        <time>2024-11-10T13:12:21Z</time>
      </trkpt>
      <trkpt lat="45.87521" lon="1.24422">
        <ele>338.5</ele>
        <time>2024-11-10T13:12:22Z</time>
      </trkpt>
      <trkpt lat="45.87525" lon="1.24422">
        <ele>338.6</ele>
        <time>2024-11-10T13:12:23Z</time>
      </trkpt>
      <trkpt lat="45.87528" lon="1.2442">
        <ele>338.8</ele>
        <time>2024-11-10T13:12:25Z</time>
      </trkpt>
      <trkpt lat="45.87531" lon="1.24418">
        <ele>338.9</ele>
        <time>2024-11-10T13:12:27Z</time>
      </trkpt>
      <trkpt lat="45.87534" lon="1.24414">
        <ele>339</ele>
        <time>2024-11-10T13:12:29Z</time>
      </trkpt>
      <trkpt lat="45.87536" lon="1.24408">
        <ele>339.1</ele>
        <time>2024-11-10T13:12:31Z</time>
      </trkpt>
      <trkpt lat="45.87539" lon="1.24401">
        <ele>339.2</ele>
        <time>2024-11-10T13:12:33Z</time>
      </trkpt>
      <trkpt lat="45.87541" lon="1.24397">
        <ele>339.3</ele>
        <time>2024-11-10T13:12:34Z</time>
      </trkpt>
      <trkpt lat="45.87544" lon="1.24394">
        <ele>339.4</ele>
        <time>2024-11-10T13:12:36Z</time>
      </trkpt>
      <trkpt lat="45.87546" lon="1.2439">
        <ele>339.5</ele>
        <time>2024-11-10T13:12:38Z</time>
      </trkpt>
      <trkpt lat="45.87547" lon="1.24386">
        <ele>339.6</ele>
        <time>2024-11-10T13:12:39Z</time>
      </trkpt>
      <trkpt lat="45.87548" lon="1.2438">
        <ele>339.8</ele>
        <time>2024-11-10T13:12:41Z</time>
      </trkpt>
      <trkpt lat="45.87548" lon="1.24375">
        <ele>340</ele>
        <time>2024-11-10T13:12:42Z</time>
      </trkpt>
      <trkpt lat="45.87549" lon="1.2437">
        <ele>340.2</ele>
        <time>2024-11-10T13:12:43Z</time>
      </trkpt>
      <trkpt lat="45.8755" lon="1.24365">
        <ele>340.4</ele>
        <time>2024-11-10T13:12:45Z</time>
      </trkpt>
      <trkpt lat="45.87553" lon="1.24362">
        <ele>340.5</ele>
        <time>2024-11-10T13:12:46Z</time>
      </trkpt>
      <trkpt lat="45.87556" lon="1.2436">
        <ele>340.7</ele>
        <time>2024-11-10T13:12:47Z</time>
      </trkpt>
      <trkpt lat="45.8756" lon="1.24358">
        <ele>340.9</ele>
        <time>2024-11-10T13:12:48Z</time>
      </trkpt>
      <trkpt lat="45.87564" lon="1.24356">
        <ele>341.1</ele>
        <time>2024-11-10T13:12:49Z</time>
      </trkpt>
      <trkpt lat="45.87568" lon="1.24355">
        <ele>341.3</ele>
        <time>2024-11-10T13:12:50Z</time>
      </trkpt>
      <trkpt lat="45.87571" lon="1.24354">
        <ele>341.4</ele>
        <time>2024-11-10T13:12:51Z</time>
      </trkpt>
      <trkpt lat="45.87575" lon="1.24353">
        <ele>341.6</ele>
        <time>2024-11-10T13:12:52Z</time>
      </trkpt>
      <trkpt lat="45.87579" lon="1.24351">
        <ele>341.8</ele>
        <time>2024-11-10T13:12:53Z</time>
      </trkpt>
      <trkpt lat="45.87583" lon="1.24351">
        <ele>342</ele>
        <time>2024-11-10T13:12:54Z</time>
      </trkpt>
      <trkpt lat="45.87586" lon="1.24351">
        <ele>342.2</ele>
        <time>2024-11-10T13:12:55Z</time>
      </trkpt>
      <trkpt lat="45.8759" lon="1.2435">
        <ele>342.5</ele>
        <time>2024-11-10T13:12:56Z</time>
      </trkpt>
      <trkpt lat="45.87593" lon="1.2435">
        <ele>342.7</ele>
        <time>2024-11-10T13:12:57Z</time>
      </trkpt>
      <trkpt lat="45.87597" lon="1.24348">
        <ele>343</ele>
        <time>2024-11-10T13:12:58Z</time>
      </trkpt>
      <trkpt lat="45.87601" lon="1.24346">
        <ele>343.4</ele>
        <time>2024-11-10T13:12:59Z</time>
      </trkpt>
      <trkpt lat="45.87604" lon="1.24344">
        <ele>343.7</ele>
        <time>2024-11-10T13:13:00Z</time>
      </trkpt>
      <trkpt lat="45.87607" lon="1.24343">
        <ele>344</ele>
        <time>2024-11-10T13:13:01Z</time>
      </trkpt>
      <trkpt lat="45.87611" lon="1.24341">
        <ele>344.5</ele>
        <time>2024-11-10T13:13:03Z</time>
      </trkpt>
      <trkpt lat="45.87614" lon="1.2434">
        <ele>344.9</ele>
        <time>2024-11-10T13:13:04Z</time>
      </trkpt>
      <trkpt lat="45.87619" lon="1.24338">
        <ele>345.6</ele>
        <time>2024-11-10T13:13:06Z</time>
      </trkpt>
      <trkpt lat="45.87622" lon="1.24337">
        <ele>346.1</ele>
        <time>2024-11-10T13:13:07Z</time>
      </trkpt>
      <trkpt lat="45.87626" lon="1.24337">
        <ele>346.7</ele>
        <time>2024-11-10T13:13:09Z</time>
      </trkpt>
      <trkpt lat="45.87629" lon="1.24337">
        <ele>347.2</ele>
        <time>2024-11-10T13:13:10Z</time>
      </trkpt>
      <trkpt lat="45.87633" lon="1.24336">
        <ele>347.9</ele>
        <time>2024-11-10T13:13:12Z</time>
      </trkpt>
      <trkpt lat="45.87638" lon="1.24334">
        <ele>348.7</ele>
        <time>2024-11-10T13:13:14Z</time>
      </trkpt>
      <trkpt lat="45.87642" lon="1.24332">
        <ele>349.3</ele>
        <time>2024-11-10T13:13:16Z</time>
      </trkpt>
      <trkpt lat="45.87645" lon="1.24329">
        <ele>349.9</ele>
        <time>2024-11-10T13:13:18Z</time>
      </trkpt>
      <trkpt lat="45.87648" lon="1.24326">
        <ele>350.4</ele>
        <time>2024-11-10T13:13:20Z</time>
      </trkpt>
      <trkpt lat="45.87651" lon="1.24321">
        <ele>351</ele>
        <time>2024-11-10T13:13:22Z</time>
      </trkpt>
      <trkpt lat="45.87654" lon="1.24318">
        <ele>351.4</ele>
        <time>2024-11-10T13:13:23Z</time>
      </trkpt>
      <trkpt lat="45.87658" lon="1.24314">
        <ele>352</ele>
        <time>2024-11-10T13:13:25Z</time>
      </trkpt>
      <trkpt lat="45.8766" lon="1.24311">
        <ele>352.3</ele>
        <time>2024-11-10T13:13:26Z</time>
      </trkpt>
      <trkpt lat="45.87663" lon="1.24308">
        <ele>352.6</ele>
        <time>2024-11-10T13:13:27Z</time>
      </trkpt>
      <trkpt lat="45.87665" lon="1.24305">
        <ele>352.9</ele>
        <time>2024-11-10T13:13:28Z</time>
      </trkpt>
      <trkpt lat="45.87667" lon="1.24302">
        <ele>353.1</ele>
        <time>2024-11-10T13:13:29Z</time>
      </trkpt>
      <trkpt lat="45.87669" lon="1.24299">
        <ele>353.3</ele>
        <time>2024-11-10T13:13:30Z</time>
      </trkpt>
      <trkpt lat="45.87671" lon="1.24294">
        <ele>353.6</ele>
        <time>2024-11-10T13:13:32Z</time>
      </trkpt>
      <trkpt lat="45.87674" lon="1.2429">
        <ele>353.8</ele>
        <time>2024-11-10T13:13:34Z</time>
      </trkpt>
      <trkpt lat="45.87678" lon="1.24287">
        <ele>354</ele>
        <time>2024-11-10T13:13:36Z</time>
      </trkpt>
      <trkpt lat="45.87682" lon="1.24283">
        <ele>354.3</ele>
        <time>2024-11-10T13:13:38Z</time>
      </trkpt>
      <trkpt lat="45.87686" lon="1.24284">
        <ele>354.1</ele>
        <time>2024-11-10T13:13:40Z</time>
      </trkpt>
      <trkpt lat="45.87689" lon="1.24287">
        <ele>353.9</ele>
        <time>2024-11-10T13:13:42Z</time>
      </trkpt>
      <trkpt lat="45.8769" lon="1.24291">
        <ele>353.8</ele>
        <time>2024-11-10T13:13:44Z</time>
      </trkpt>
      <trkpt lat="45.87692" lon="1.24294">
        <ele>353.7</ele>
        <time>2024-11-10T13:13:51Z</time>
      </trkpt>
      <trkpt lat="45.87693" lon="1.24298">
        <ele>353.5</ele>
        <time>2024-11-10T13:14:10Z</time>
      </trkpt>
      <trkpt lat="45.87693" lon="1.24303">
        <ele>353.4</ele>
        <time>2024-11-10T13:14:12Z</time>
      </trkpt>
      <trkpt lat="45.87692" lon="1.24308">
        <ele>353.3</ele>
        <time>2024-11-10T13:14:13Z</time>
      </trkpt>
      <trkpt lat="45.87692" lon="1.24313">
        <ele>353.2</ele>
        <time>2024-11-10T13:14:14Z</time>
      </trkpt>
      <trkpt lat="45.87692" lon="1.24317">
        <ele>353.1</ele>
        <time>2024-11-10T13:14:15Z</time>
      </trkpt>
      <trkpt lat="45.87692" lon="1.24322">
        <ele>353</ele>
        <time>2024-11-10T13:14:16Z</time>
      </trkpt>
      <trkpt lat="45.87692" lon="1.24327">
        <ele>353</ele>
        <time>2024-11-10T13:14:17Z</time>
      </trkpt>
      <trkpt lat="45.87692" lon="1.24332">
        <ele>352.9</ele>
        <time>2024-11-10T13:14:18Z</time>
      </trkpt>
      <trkpt lat="45.87692" lon="1.24337">
        <ele>352.8</ele>
        <time>2024-11-10T13:14:19Z</time>
      </trkpt>
      <trkpt lat="45.87692" lon="1.24342">
        <ele>352.8</ele>
        <time>2024-11-10T13:14:20Z</time>
      </trkpt>
      <trkpt lat="45.87692" lon="1.24347">
        <ele>352.8</ele>
        <time>2024-11-10T13:14:21Z</time>
      </trkpt>
      <trkpt lat="45.87692" lon="1.24351">
        <ele>352.7</ele>
        <time>2024-11-10T13:14:22Z</time>
      </trkpt>
      <trkpt lat="45.87692" lon="1.24356">
        <ele>352.7</ele>
        <time>2024-11-10T13:14:23Z</time>
      </trkpt>
      <trkpt lat="45.87692" lon="1.24361">
        <ele>352.7</ele>
        <time>2024-11-10T13:14:24Z</time>
      </trkpt>
      <trkpt lat="45.87692" lon="1.24365">
        <ele>352.7</ele>
        <time>2024-11-10T13:14:25Z</time>
      </trkpt>
      <trkpt lat="45.87692" lon="1.24369">
        <ele>352.7</ele>
        <time>2024-11-10T13:14:26Z</time>
      </trkpt>
      <trkpt lat="45.87693" lon="1.24373">
        <ele>352.8</ele>
        <time>2024-11-10T13:14:27Z</time>
      </trkpt>
      <trkpt lat="45.87695" lon="1.24377">
        <ele>353.4</ele>
        <time>2024-11-10T13:14:29Z</time>
      </trkpt>
      <trkpt lat="45.87698" lon="1.24379">
        <ele>353.6</ele>
        <time>2024-11-10T13:14:31Z</time>
      </trkpt>
      <trkpt lat="45.87702" lon="1.24381">
        <ele>353.9</ele>
        <time>2024-11-10T13:14:33Z</time>
      </trkpt>
      <trkpt lat="45.87706" lon="1.24383">
        <ele>354.2</ele>
        <time>2024-11-10T13:14:35Z</time>
      </trkpt>
      <trkpt lat="45.87711" lon="1.24385">
        <ele>354.7</ele>
        <time>2024-11-10T13:14:37Z</time>
      </trkpt>
      <trkpt lat="45.87715" lon="1.24388">
        <ele>355</ele>
        <time>2024-11-10T13:14:39Z</time>
      </trkpt>
      <trkpt lat="45.8772" lon="1.2439">
        <ele>355.4</ele>
        <time>2024-11-10T13:14:41Z</time>
      </trkpt>
      <trkpt lat="45.87725" lon="1.24392">
        <ele>355.9</ele>
        <time>2024-11-10T13:14:43Z</time>
      </trkpt>
      <trkpt lat="45.87729" lon="1.24395">
        <ele>356.2</ele>
        <time>2024-11-10T13:14:45Z</time>
      </trkpt>
      <trkpt lat="45.87734" lon="1.24397">
        <ele>356.7</ele>
        <time>2024-11-10T13:14:47Z</time>
      </trkpt>
      <trkpt lat="45.87739" lon="1.24399">
        <ele>357.1</ele>
        <time>2024-11-10T13:14:49Z</time>
      </trkpt>
      <trkpt lat="45.87744" lon="1.24401">
        <ele>357.5</ele>
        <time>2024-11-10T13:14:51Z</time>
      </trkpt>
      <trkpt lat="45.87749" lon="1.24404">
        <ele>357.6</ele>
        <time>2024-11-10T13:14:53Z</time>
      </trkpt>
      <trkpt lat="45.87754" lon="1.24406">
        <ele>357.7</ele>
        <time>2024-11-10T13:14:55Z</time>
      </trkpt>
      <trkpt lat="45.87757" lon="1.24408">
        <ele>357.8</ele>
        <time>2024-11-10T13:14:56Z</time>
      </trkpt>
      <trkpt lat="45.87762" lon="1.2441">
        <ele>358.1</ele>
        <time>2024-11-10T13:14:58Z</time>
      </trkpt>
      <trkpt lat="45.87765" lon="1.24412">
        <ele>358.4</ele>
        <time>2024-11-10T13:14:59Z</time>
      </trkpt>
      <trkpt lat="45.87768" lon="1.24414">
        <ele>358.7</ele>
        <time>2024-11-10T13:15:00Z</time>
      </trkpt>
      <trkpt lat="45.87773" lon="1.24416">
        <ele>359.1</ele>
        <time>2024-11-10T13:15:02Z</time>
      </trkpt>
      <trkpt lat="45.87776" lon="1.24418">
        <ele>359.3</ele>
        <time>2024-11-10T13:15:03Z</time>
      </trkpt>
      <trkpt lat="45.87779" lon="1.2442">
        <ele>359.6</ele>
        <time>2024-11-10T13:15:04Z</time>
      </trkpt>
      <trkpt lat="45.87782" lon="1.24421">
        <ele>359.9</ele>
        <time>2024-11-10T13:15:05Z</time>
      </trkpt>
      <trkpt lat="45.87786" lon="1.24424">
        <ele>360.2</ele>
        <time>2024-11-10T13:15:07Z</time>
      </trkpt>
      <trkpt lat="45.8779" lon="1.24426">
        <ele>360.6</ele>
        <time>2024-11-10T13:15:09Z</time>
      </trkpt>
      <trkpt lat="45.87794" lon="1.24428">
        <ele>360.9</ele>
        <time>2024-11-10T13:15:10Z</time>
      </trkpt>
      <trkpt lat="45.87797" lon="1.2443">
        <ele>361.2</ele>
        <time>2024-11-10T13:15:11Z</time>
      </trkpt>
      <trkpt lat="45.87801" lon="1.24432">
        <ele>361.5</ele>
        <time>2024-11-10T13:15:13Z</time>
      </trkpt>
      <trkpt lat="45.87804" lon="1.24434">
        <ele>361.8</ele>
        <time>2024-11-10T13:15:14Z</time>
      </trkpt>
      <trkpt lat="45.87807" lon="1.24436">
        <ele>362</ele>
        <time>2024-11-10T13:15:15Z</time>
      </trkpt>
      <trkpt lat="45.8781" lon="1.24437">
        <ele>362.3</ele>
        <time>2024-11-10T13:15:16Z</time>
      </trkpt>
      <trkpt lat="45.87814" lon="1.24441">
        <ele>362.7</ele>
        <time>2024-11-10T13:15:18Z</time>
      </trkpt>
      <trkpt lat="45.87818" lon="1.24443">
        <ele>363</ele>
        <time>2024-11-10T13:15:20Z</time>
      </trkpt>
      <trkpt lat="45.87822" lon="1.24443">
        <ele>363.5</ele>
        <time>2024-11-10T13:15:22Z</time>
      </trkpt>
      <trkpt lat="45.87825" lon="1.24443">
        <ele>363.4</ele>
        <time>2024-11-10T13:15:23Z</time>
      </trkpt>
      <trkpt lat="45.87828" lon="1.24442">
        <ele>363.3</ele>
        <time>2024-11-10T13:15:24Z</time>
      </trkpt>
      <trkpt lat="45.87831" lon="1.2444">
        <ele>363.3</ele>
        <time>2024-11-10T13:15:25Z</time>
      </trkpt>
      <trkpt lat="45.87834" lon="1.24439">
        <ele>363.2</ele>
        <time>2024-11-10T13:15:26Z</time>
      </trkpt>
      <trkpt lat="45.87837" lon="1.24437">
        <ele>363.1</ele>
        <time>2024-11-10T13:15:27Z</time>
      </trkpt>
      <trkpt lat="45.8784" lon="1.24435">
        <ele>363</ele>
        <time>2024-11-10T13:15:28Z</time>
      </trkpt>
      <trkpt lat="45.87843" lon="1.24434">
        <ele>363</ele>
        <time>2024-11-10T13:15:29Z</time>
      </trkpt>
      <trkpt lat="45.87846" lon="1.24433">
        <ele>362.9</ele>
        <time>2024-11-10T13:15:30Z</time>
      </trkpt>
      <trkpt lat="45.87849" lon="1.24432">
        <ele>362.9</ele>
        <time>2024-11-10T13:15:31Z</time>
      </trkpt>
      <trkpt lat="45.87851" lon="1.2443">
        <ele>362.8</ele>
        <time>2024-11-10T13:15:32Z</time>
      </trkpt>
      <trkpt lat="45.87854" lon="1.24429">
        <ele>362.8</ele>
        <time>2024-11-10T13:15:33Z</time>
      </trkpt>
      <trkpt lat="45.87857" lon="1.24428">
        <ele>362.8</ele>
        <time>2024-11-10T13:15:34Z</time>
      </trkpt>
      <trkpt lat="45.8786" lon="1.24427">
        <ele>362.8</ele>
        <time>2024-11-10T13:15:35Z</time>
      </trkpt>
      <trkpt lat="45.87864" lon="1.24428">
        <ele>362.8</ele>
        <time>2024-11-10T13:15:36Z</time>
      </trkpt>
      <trkpt lat="45.87867" lon="1.24429">
        <ele>362.9</ele>
        <time>2024-11-10T13:15:37Z</time>
      </trkpt>
      <trkpt lat="45.87869" lon="1.24432">
        <ele>362.9</ele>
        <time>2024-11-10T13:15:38Z</time>
      </trkpt>
      <trkpt lat="45.87872" lon="1.24435">
        <ele>362.9</ele>
        <time>2024-11-10T13:15:39Z</time>
      </trkpt>
      <trkpt lat="45.87874" lon="1.24438">
        <ele>362.9</ele>
        <time>2024-11-10T13:15:40Z</time>
      </trkpt>
      <trkpt lat="45.87877" lon="1.24441">
        <ele>363</ele>
        <time>2024-11-10T13:15:41Z</time>
      </trkpt>
      <trkpt lat="45.87879" lon="1.24445">
        <ele>363</ele>
        <time>2024-11-10T13:15:42Z</time>
      </trkpt>
      <trkpt lat="45.87882" lon="1.24449">
        <ele>363.1</ele>
        <time>2024-11-10T13:15:44Z</time>
      </trkpt>
      <trkpt lat="45.87886" lon="1.24453">
        <ele>363.2</ele>
        <time>2024-11-10T13:15:46Z</time>
      </trkpt>
      <trkpt lat="45.8789" lon="1.24456">
        <ele>363.3</ele>
        <time>2024-11-10T13:15:48Z</time>
      </trkpt>
      <trkpt lat="45.87895" lon="1.24459">
        <ele>363.4</ele>
        <time>2024-11-10T13:15:50Z</time>
      </trkpt>
      <trkpt lat="45.87899" lon="1.24461">
        <ele>363.6</ele>
        <time>2024-11-10T13:15:52Z</time>
      </trkpt>
      <trkpt lat="45.87905" lon="1.24461">
        <ele>363.8</ele>
        <time>2024-11-10T13:15:54Z</time>
      </trkpt>
      <trkpt lat="45.87908" lon="1.24461">
        <ele>363.9</ele>
        <time>2024-11-10T13:15:55Z</time>
      </trkpt>
      <trkpt lat="45.87911" lon="1.24461">
        <ele>364</ele>
        <time>2024-11-10T13:15:56Z</time>
      </trkpt>
      <trkpt lat="45.87915" lon="1.2446">
        <ele>364.1</ele>
        <time>2024-11-10T13:15:57Z</time>
      </trkpt>
      <trkpt lat="45.87918" lon="1.2446">
        <ele>364.2</ele>
        <time>2024-11-10T13:15:58Z</time>
      </trkpt>
      <trkpt lat="45.87921" lon="1.24459">
        <ele>364.4</ele>
        <time>2024-11-10T13:15:59Z</time>
      </trkpt>
      <trkpt lat="45.87923" lon="1.24458">
        <ele>364.5</ele>
        <time>2024-11-10T13:16:00Z</time>
      </trkpt>
      <trkpt lat="45.87926" lon="1.24457">
        <ele>364.6</ele>
        <time>2024-11-10T13:16:01Z</time>
      </trkpt>
      <trkpt lat="45.87929" lon="1.24456">
        <ele>364.8</ele>
        <time>2024-11-10T13:16:02Z</time>
      </trkpt>
      <trkpt lat="45.87932" lon="1.24454">
        <ele>365</ele>
        <time>2024-11-10T13:16:03Z</time>
      </trkpt>
      <trkpt lat="45.87935" lon="1.24453">
        <ele>365.2</ele>
        <time>2024-11-10T13:16:04Z</time>
      </trkpt>
      <trkpt lat="45.87937" lon="1.24451">
        <ele>365.3</ele>
        <time>2024-11-10T13:16:05Z</time>
      </trkpt>
      <trkpt lat="45.87941" lon="1.24449">
        <ele>365.6</ele>
        <time>2024-11-10T13:16:07Z</time>
      </trkpt>
      <trkpt lat="45.87945" lon="1.24446">
        <ele>365.9</ele>
        <time>2024-11-10T13:16:09Z</time>
      </trkpt>
      <trkpt lat="45.87948" lon="1.24444">
        <ele>366.1</ele>
        <time>2024-11-10T13:16:10Z</time>
      </trkpt>
      <trkpt lat="45.87952" lon="1.24441">
        <ele>366.5</ele>
        <time>2024-11-10T13:16:12Z</time>
      </trkpt>
      <trkpt lat="45.87956" lon="1.24438">
        <ele>366.8</ele>
        <time>2024-11-10T13:16:14Z</time>
      </trkpt>
      <trkpt lat="45.8796" lon="1.24435">
        <ele>367.2</ele>
        <time>2024-11-10T13:16:16Z</time>
      </trkpt>
      <trkpt lat="45.87964" lon="1.24431">
        <ele>367.6</ele>
        <time>2024-11-10T13:16:18Z</time>
      </trkpt>
      <trkpt lat="45.87968" lon="1.24427">
        <ele>368</ele>
        <time>2024-11-10T13:16:20Z</time>
      </trkpt>
      <trkpt lat="45.87973" lon="1.24424">
        <ele>368.4</ele>
        <time>2024-11-10T13:16:22Z</time>
      </trkpt>
      <trkpt lat="45.87978" lon="1.24421">
        <ele>368.8</ele>
        <time>2024-11-10T13:16:24Z</time>
      </trkpt>
      <trkpt lat="45.87982" lon="1.24418">
        <ele>369.2</ele>
        <time>2024-11-10T13:16:26Z</time>
      </trkpt>
      <trkpt lat="45.87986" lon="1.24415">
        <ele>369.6</ele>
        <time>2024-11-10T13:16:28Z</time>
      </trkpt>
      <trkpt lat="45.87989" lon="1.24414">
        <ele>369.8</ele>
        <time>2024-11-10T13:16:29Z</time>
      </trkpt>
      <trkpt lat="45.87992" lon="1.24413">
        <ele>370.1</ele>
        <time>2024-11-10T13:16:30Z</time>
      </trkpt>
      <trkpt lat="45.87995" lon="1.24412">
        <ele>370.4</ele>
        <time>2024-11-10T13:16:31Z</time>
      </trkpt>
      <trkpt lat="45.87998" lon="1.24411">
        <ele>370.6</ele>
        <time>2024-11-10T13:16:32Z</time>
      </trkpt>
      <trkpt lat="45.88001" lon="1.2441">
        <ele>370.9</ele>
        <time>2024-11-10T13:16:33Z</time>
      </trkpt>
      <trkpt lat="45.88006" lon="1.24409">
        <ele>371.4</ele>
        <time>2024-11-10T13:16:35Z</time>
      </trkpt>
      <trkpt lat="45.88009" lon="1.24411">
        <ele>371.7</ele>
        <time>2024-11-10T13:16:37Z</time>
      </trkpt>
      <trkpt lat="45.88013" lon="1.24414">
        <ele>372.1</ele>
        <time>2024-11-10T13:16:39Z</time>
      </trkpt>
      <trkpt lat="45.88016" lon="1.24418">
        <ele>372.5</ele>
        <time>2024-11-10T13:16:41Z</time>
      </trkpt>
      <trkpt lat="45.88019" lon="1.24423">
        <ele>372.8</ele>
        <time>2024-11-10T13:16:43Z</time>
      </trkpt>
      <trkpt lat="45.88022" lon="1.24428">
        <ele>373.1</ele>
        <time>2024-11-10T13:16:45Z</time>
      </trkpt>
      <trkpt lat="45.88024" lon="1.24434">
        <ele>373.4</ele>
        <time>2024-11-10T13:16:47Z</time>
      </trkpt>
      <trkpt lat="45.88027" lon="1.24441">
        <ele>373.8</ele>
        <time>2024-11-10T13:16:49Z</time>
      </trkpt>
      <trkpt lat="45.88029" lon="1.24448">
        <ele>374.1</ele>
        <time>2024-11-10T13:16:51Z</time>
      </trkpt>
      <trkpt lat="45.8803" lon="1.24453">
        <ele>374.3</ele>
        <time>2024-11-10T13:16:52Z</time>
      </trkpt>
      <trkpt lat="45.88032" lon="1.24457">
        <ele>374.4</ele>
        <time>2024-11-10T13:16:53Z</time>
      </trkpt>
      <trkpt lat="45.88034" lon="1.24461">
        <ele>374.6</ele>
        <time>2024-11-10T13:16:55Z</time>
      </trkpt>
      <trkpt lat="45.88037" lon="1.24465">
        <ele>374.7</ele>
        <time>2024-11-10T13:16:56Z</time>
      </trkpt>
      <trkpt lat="45.88039" lon="1.24468">
        <ele>374.8</ele>
        <time>2024-11-10T13:16:57Z</time>
      </trkpt>
      <trkpt lat="45.88041" lon="1.2447">
        <ele>374.8</ele>
        <time>2024-11-10T13:16:58Z</time>
      </trkpt>
      <trkpt lat="45.88043" lon="1.24474">
        <ele>374.8</ele>
        <time>2024-11-10T13:16:59Z</time>
      </trkpt>
      <trkpt lat="45.88045" lon="1.24477">
        <ele>374.8</ele>
        <time>2024-11-10T13:17:00Z</time>
      </trkpt>
      <trkpt lat="45.88047" lon="1.2448">
        <ele>374.7</ele>
        <time>2024-11-10T13:17:01Z</time>
      </trkpt>
      <trkpt lat="45.88049" lon="1.24483">
        <ele>374.7</ele>
        <time>2024-11-10T13:17:02Z</time>
      </trkpt>
      <trkpt lat="45.88051" lon="1.24487">
        <ele>374.6</ele>
        <time>2024-11-10T13:17:04Z</time>
      </trkpt>
      <trkpt lat="45.88054" lon="1.24493">
        <ele>374.4</ele>
        <time>2024-11-10T13:17:06Z</time>
      </trkpt>
      <trkpt lat="45.88056" lon="1.24497">
        <ele>374.3</ele>
        <time>2024-11-10T13:17:07Z</time>
      </trkpt>
      <trkpt lat="45.88059" lon="1.24501">
        <ele>374.2</ele>
        <time>2024-11-10T13:17:08Z</time>
      </trkpt>
      <trkpt lat="45.88061" lon="1.24505">
        <ele>374.1</ele>
        <time>2024-11-10T13:17:09Z</time>
      </trkpt>
      <trkpt lat="45.88063" lon="1.24509">
        <ele>374</ele>
        <time>2024-11-10T13:17:10Z</time>
      </trkpt>
      <trkpt lat="45.88066" lon="1.24514">
        <ele>374</ele>
        <time>2024-11-10T13:17:11Z</time>
      </trkpt>
      <trkpt lat="45.88068" lon="1.24518">
        <ele>374</ele>
        <time>2024-11-10T13:17:12Z</time>
      </trkpt>
      <trkpt lat="45.8807" lon="1.24523">
        <ele>374</ele>
        <time>2024-11-10T13:17:13Z</time>
      </trkpt>
      <trkpt lat="45.88073" lon="1.24527">
        <ele>373.9</ele>
        <time>2024-11-10T13:17:14Z</time>
      </trkpt>
      <trkpt lat="45.88076" lon="1.24532">
        <ele>373.9</ele>
        <time>2024-11-10T13:17:15Z</time>
      </trkpt>
      <trkpt lat="45.88079" lon="1.24537">
        <ele>373.9</ele>
        <time>2024-11-10T13:17:16Z</time>
      </trkpt>
      <trkpt lat="45.88081" lon="1.24542">
        <ele>373.9</ele>
        <time>2024-11-10T13:17:17Z</time>
      </trkpt>
      <trkpt lat="45.88083" lon="1.24546">
        <ele>373.9</ele>
        <time>2024-11-10T13:17:18Z</time>
      </trkpt>
      <trkpt lat="45.88085" lon="1.24552">
        <ele>373.9</ele>
        <time>2024-11-10T13:17:20Z</time>
      </trkpt>
      <trkpt lat="45.88088" lon="1.24557">
        <ele>373.9</ele>
        <time>2024-11-10T13:17:22Z</time>
      </trkpt>
      <trkpt lat="45.8809" lon="1.24562">
        <ele>374</ele>
        <time>2024-11-10T13:17:23Z</time>
      </trkpt>
      <trkpt lat="45.88091" lon="1.24567">
        <ele>374</ele>
        <time>2024-11-10T13:17:24Z</time>
      </trkpt>
      <trkpt lat="45.88092" lon="1.24572">
        <ele>374</ele>
        <time>2024-11-10T13:17:25Z</time>
      </trkpt>
      <trkpt lat="45.88093" lon="1.24578">
        <ele>374</ele>
        <time>2024-11-10T13:17:27Z</time>
      </trkpt>
      <trkpt lat="45.88094" lon="1.24584">
        <ele>373.8</ele>
        <time>2024-11-10T13:17:29Z</time>
      </trkpt>
      <trkpt lat="45.88095" lon="1.24589">
        <ele>373.6</ele>
        <time>2024-11-10T13:17:30Z</time>
      </trkpt>
      <trkpt lat="45.88095" lon="1.24595">
        <ele>373.4</ele>
        <time>2024-11-10T13:17:32Z</time>
      </trkpt>
      <trkpt lat="45.88093" lon="1.24601">
        <ele>373.2</ele>
        <time>2024-11-10T13:17:34Z</time>
      </trkpt>
      <trkpt lat="45.88091" lon="1.24605">
        <ele>373</ele>
        <time>2024-11-10T13:17:36Z</time>
      </trkpt>
      <trkpt lat="45.88089" lon="1.2461">
        <ele>372.9</ele>
        <time>2024-11-10T13:17:39Z</time>
      </trkpt>
      <trkpt lat="45.88087" lon="1.24614">
        <ele>372.8</ele>
        <time>2024-11-10T13:17:42Z</time>
      </trkpt>
      <trkpt lat="45.88086" lon="1.24619">
        <ele>372.7</ele>
        <time>2024-11-10T13:17:44Z</time>
      </trkpt>
      <trkpt lat="45.88084" lon="1.24625">
        <ele>372.6</ele>
        <time>2024-11-10T13:17:46Z</time>
      </trkpt>
      <trkpt lat="45.88082" lon="1.2463">
        <ele>372.5</ele>
        <time>2024-11-10T13:17:47Z</time>
      </trkpt>
      <trkpt lat="45.88081" lon="1.24633">
        <ele>372.5</ele>
        <time>2024-11-10T13:17:48Z</time>
      </trkpt>
      <trkpt lat="45.88079" lon="1.24637">
        <ele>372.5</ele>
        <time>2024-11-10T13:17:49Z</time>
      </trkpt>
      <trkpt lat="45.88075" lon="1.24642">
        <ele>372.5</ele>
        <time>2024-11-10T13:17:51Z</time>
      </trkpt>
      <trkpt lat="45.88072" lon="1.24648">
        <ele>372.5</ele>
        <time>2024-11-10T13:17:53Z</time>
      </trkpt>
      <trkpt lat="45.8807" lon="1.24653">
        <ele>372.5</ele>
        <time>2024-11-10T13:17:54Z</time>
      </trkpt>
      <trkpt lat="45.88068" lon="1.24657">
        <ele>372.6</ele>
        <time>2024-11-10T13:17:55Z</time>
      </trkpt>
      <trkpt lat="45.88065" lon="1.24661">
        <ele>372.7</ele>
        <time>2024-11-10T13:17:56Z</time>
      </trkpt>
      <trkpt lat="45.88063" lon="1.24665">
        <ele>372.7</ele>
        <time>2024-11-10T13:17:57Z</time>
      </trkpt>
      <trkpt lat="45.8806" lon="1.24669">
        <ele>372.9</ele>
        <time>2024-11-10T13:17:58Z</time>
      </trkpt>
      <trkpt lat="45.88058" lon="1.24672">
        <ele>372.9</ele>
        <time>2024-11-10T13:17:59Z</time>
      </trkpt>
      <trkpt lat="45.88054" lon="1.24675">
        <ele>373.1</ele>
        <time>2024-11-10T13:18:00Z</time>
      </trkpt>
      <trkpt lat="45.8805" lon="1.24676">
        <ele>373.1</ele>
        <time>2024-11-10T13:18:01Z</time>
      </trkpt>
      <trkpt lat="45.88046" lon="1.24677">
        <ele>373.2</ele>
        <time>2024-11-10T13:18:02Z</time>
      </trkpt>
      <trkpt lat="45.88042" lon="1.24678">
        <ele>373.2</ele>
        <time>2024-11-10T13:18:03Z</time>
      </trkpt>
      <trkpt lat="45.88038" lon="1.24678">
        <ele>373.3</ele>
        <time>2024-11-10T13:18:04Z</time>
      </trkpt>
      <trkpt lat="45.88034" lon="1.24679">
        <ele>373.3</ele>
        <time>2024-11-10T13:18:05Z</time>
      </trkpt>
      <trkpt lat="45.88031" lon="1.24679">
        <ele>373.3</ele>
        <time>2024-11-10T13:18:06Z</time>
      </trkpt>
      <trkpt lat="45.88026" lon="1.24679">
        <ele>373.3</ele>
        <time>2024-11-10T13:18:07Z</time>
      </trkpt>
      <trkpt lat="45.88022" lon="1.2468">
        <ele>373.3</ele>
        <time>2024-11-10T13:18:08Z</time>
      </trkpt>
      <trkpt lat="45.88018" lon="1.2468">
        <ele>373.2</ele>
        <time>2024-11-10T13:18:09Z</time>
      </trkpt>
      <trkpt lat="45.88013" lon="1.2468">
        <ele>373.2</ele>
        <time>2024-11-10T13:18:10Z</time>
      </trkpt>
      <trkpt lat="45.88009" lon="1.2468">
        <ele>373.2</ele>
        <time>2024-11-10T13:18:11Z</time>
      </trkpt>
      <trkpt lat="45.88005" lon="1.24679">
        <ele>373.2</ele>
        <time>2024-11-10T13:18:12Z</time>
      </trkpt>
      <trkpt lat="45.88" lon="1.24677">
        <ele>373.2</ele>
        <time>2024-11-10T13:18:13Z</time>
      </trkpt>
      <trkpt lat="45.87996" lon="1.24676">
        <ele>373.3</ele>
        <time>2024-11-10T13:18:14Z</time>
      </trkpt>
      <trkpt lat="45.87992" lon="1.24675">
        <ele>373.3</ele>
        <time>2024-11-10T13:18:15Z</time>
      </trkpt>
      <trkpt lat="45.87987" lon="1.24674">
        <ele>373.3</ele>
        <time>2024-11-10T13:18:16Z</time>
      </trkpt>
      <trkpt lat="45.87983" lon="1.24672">
        <ele>373.4</ele>
        <time>2024-11-10T13:18:17Z</time>
      </trkpt>
      <trkpt lat="45.87979" lon="1.24671">
        <ele>373.4</ele>
        <time>2024-11-10T13:18:18Z</time>
      </trkpt>
      <trkpt lat="45.87975" lon="1.24669">
        <ele>373.5</ele>
        <time>2024-11-10T13:18:19Z</time>
      </trkpt>
      <trkpt lat="45.87972" lon="1.24668">
        <ele>373.5</ele>
        <time>2024-11-10T13:18:20Z</time>
      </trkpt>
      <trkpt lat="45.87968" lon="1.24666">
        <ele>373.6</ele>
        <time>2024-11-10T13:18:21Z</time>
      </trkpt>
      <trkpt lat="45.87964" lon="1.24664">
        <ele>373.8</ele>
        <time>2024-11-10T13:18:22Z</time>
      </trkpt>
      <trkpt lat="45.8796" lon="1.24662">
        <ele>373.9</ele>
        <time>2024-11-10T13:18:23Z</time>
      </trkpt>
      <trkpt lat="45.87957" lon="1.2466">
        <ele>374</ele>
        <time>2024-11-10T13:18:24Z</time>
      </trkpt>
      <trkpt lat="45.87954" lon="1.24658">
        <ele>374.1</ele>
        <time>2024-11-10T13:18:25Z</time>
      </trkpt>
      <trkpt lat="45.87951" lon="1.24657">
        <ele>374.3</ele>
        <time>2024-11-10T13:18:26Z</time>
      </trkpt>
      <trkpt lat="45.87946" lon="1.24655">
        <ele>374.5</ele>
        <time>2024-11-10T13:18:28Z</time>
      </trkpt>
      <trkpt lat="45.87942" lon="1.24654">
        <ele>374.7</ele>
        <time>2024-11-10T13:18:29Z</time>
      </trkpt>
      <trkpt lat="45.87938" lon="1.24653">
        <ele>375</ele>
        <time>2024-11-10T13:18:31Z</time>
      </trkpt>
      <trkpt lat="45.87934" lon="1.24652">
        <ele>375.3</ele>
        <time>2024-11-10T13:18:33Z</time>
      </trkpt>
      <trkpt lat="45.8793" lon="1.24651">
        <ele>375.5</ele>
        <time>2024-11-10T13:18:35Z</time>
      </trkpt>
      <trkpt lat="45.87926" lon="1.24653">
        <ele>375.9</ele>
        <time>2024-11-10T13:18:37Z</time>
      </trkpt>
      <trkpt lat="45.87924" lon="1.24658">
        <ele>376</ele>
        <time>2024-11-10T13:18:39Z</time>
      </trkpt>
      <trkpt lat="45.87923" lon="1.24663">
        <ele>376</ele>
        <time>2024-11-10T13:18:41Z</time>
      </trkpt>
      <trkpt lat="45.87923" lon="1.2467">
        <ele>376</ele>
        <time>2024-11-10T13:18:43Z</time>
      </trkpt>
      <trkpt lat="45.87922" lon="1.24675">
        <ele>376</ele>
        <time>2024-11-10T13:18:44Z</time>
      </trkpt>
      <trkpt lat="45.87922" lon="1.24679">
        <ele>376</ele>
        <time>2024-11-10T13:18:45Z</time>
      </trkpt>
      <trkpt lat="45.87921" lon="1.24683">
        <ele>375.9</ele>
        <time>2024-11-10T13:18:46Z</time>
      </trkpt>
      <trkpt lat="45.8792" lon="1.24687">
        <ele>375.8</ele>
        <time>2024-11-10T13:18:47Z</time>
      </trkpt>
      <trkpt lat="45.87919" lon="1.24692">
        <ele>375.7</ele>
        <time>2024-11-10T13:18:48Z</time>
      </trkpt>
      <trkpt lat="45.87918" lon="1.24696">
        <ele>375.6</ele>
        <time>2024-11-10T13:18:49Z</time>
      </trkpt>
      <trkpt lat="45.87917" lon="1.247">
        <ele>375.4</ele>
        <time>2024-11-10T13:18:50Z</time>
      </trkpt>
      <trkpt lat="45.87916" lon="1.24704">
        <ele>375.3</ele>
        <time>2024-11-10T13:18:51Z</time>
      </trkpt>
      <trkpt lat="45.87915" lon="1.24709">
        <ele>375.1</ele>
        <time>2024-11-10T13:18:52Z</time>
      </trkpt>
      <trkpt lat="45.87913" lon="1.24714">
        <ele>374.8</ele>
        <time>2024-11-10T13:18:53Z</time>
      </trkpt>
      <trkpt lat="45.87911" lon="1.24719">
        <ele>374.6</ele>
        <time>2024-11-10T13:18:54Z</time>
      </trkpt>
      <trkpt lat="45.8791" lon="1.24724">
        <ele>374.4</ele>
        <time>2024-11-10T13:18:55Z</time>
      </trkpt>
      <trkpt lat="45.8791" lon="1.2473">
        <ele>374.1</ele>
        <time>2024-11-10T13:18:56Z</time>
      </trkpt>
      <trkpt lat="45.87908" lon="1.24737">
        <ele>373.7</ele>
        <time>2024-11-10T13:18:57Z</time>
      </trkpt>
      <trkpt lat="45.87907" lon="1.24743">
        <ele>373.4</ele>
        <time>2024-11-10T13:18:58Z</time>
      </trkpt>
      <trkpt lat="45.87907" lon="1.2475">
        <ele>373.1</ele>
        <time>2024-11-10T13:18:59Z</time>
      </trkpt>
      <trkpt lat="45.87907" lon="1.24757">
        <ele>372.7</ele>
        <time>2024-11-10T13:19:00Z</time>
      </trkpt>
      <trkpt lat="45.87907" lon="1.24764">
        <ele>372.3</ele>
        <time>2024-11-10T13:19:01Z</time>
      </trkpt>
      <trkpt lat="45.87907" lon="1.2477">
        <ele>372</ele>
        <time>2024-11-10T13:19:02Z</time>
      </trkpt>
      <trkpt lat="45.87907" lon="1.24777">
        <ele>371.6</ele>
        <time>2024-11-10T13:19:03Z</time>
      </trkpt>
      <trkpt lat="45.87907" lon="1.24784">
        <ele>371.2</ele>
        <time>2024-11-10T13:19:04Z</time>
      </trkpt>
      <trkpt lat="45.87907" lon="1.24791">
        <ele>370.9</ele>
        <time>2024-11-10T13:19:05Z</time>
      </trkpt>
      <trkpt lat="45.87907" lon="1.24798">
        <ele>370.5</ele>
        <time>2024-11-10T13:19:06Z</time>
      </trkpt>
      <trkpt lat="45.87907" lon="1.24805">
        <ele>370.1</ele>
        <time>2024-11-10T13:19:07Z</time>
      </trkpt>
      <trkpt lat="45.87907" lon="1.24813">
        <ele>369.6</ele>
        <time>2024-11-10T13:19:08Z</time>
      </trkpt>
      <trkpt lat="45.87907" lon="1.24821">
        <ele>369.1</ele>
        <time>2024-11-10T13:19:09Z</time>
      </trkpt>
      <trkpt lat="45.87906" lon="1.24829">
        <ele>368.6</ele>
        <time>2024-11-10T13:19:10Z</time>
      </trkpt>
      <trkpt lat="45.87906" lon="1.24838">
        <ele>368.1</ele>
        <time>2024-11-10T13:19:11Z</time>
      </trkpt>
      <trkpt lat="45.87905" lon="1.24847">
        <ele>367.5</ele>
        <time>2024-11-10T13:19:12Z</time>
      </trkpt>
      <trkpt lat="45.87905" lon="1.24857">
        <ele>367</ele>
        <time>2024-11-10T13:19:13Z</time>
      </trkpt>
      <trkpt lat="45.87905" lon="1.24867">
        <ele>366.4</ele>
        <time>2024-11-10T13:19:14Z</time>
      </trkpt>
      <trkpt lat="45.87905" lon="1.24877">
        <ele>365.9</ele>
        <time>2024-11-10T13:19:15Z</time>
      </trkpt>
      <trkpt lat="45.87906" lon="1.24888">
        <ele>365.4</ele>
        <time>2024-11-10T13:19:16Z</time>
      </trkpt>
      <trkpt lat="45.87906" lon="1.249">
        <ele>364.8</ele>
        <time>2024-11-10T13:19:17Z</time>
      </trkpt>
      <trkpt lat="45.87906" lon="1.24911">
        <ele>364.2</ele>
        <time>2024-11-10T13:19:18Z</time>
      </trkpt>
      <trkpt lat="45.87906" lon="1.24924">
        <ele>363.6</ele>
        <time>2024-11-10T13:19:19Z</time>
      </trkpt>
      <trkpt lat="45.87906" lon="1.24936">
        <ele>363.1</ele>
        <time>2024-11-10T13:19:20Z</time>
      </trkpt>
      <trkpt lat="45.87905" lon="1.24948">
        <ele>362.5</ele>
        <time>2024-11-10T13:19:21Z</time>
      </trkpt>
      <trkpt lat="45.87905" lon="1.24961">
        <ele>361.9</ele>
        <time>2024-11-10T13:19:22Z</time>
      </trkpt>
      <trkpt lat="45.87905" lon="1.24973">
        <ele>361.4</ele>
        <time>2024-11-10T13:19:23Z</time>
      </trkpt>
      <trkpt lat="45.87906" lon="1.24986">
        <ele>360.9</ele>
        <time>2024-11-10T13:19:24Z</time>
      </trkpt>
      <trkpt lat="45.87906" lon="1.24999">
        <ele>360.4</ele>
        <time>2024-11-10T13:19:25Z</time>
      </trkpt>
      <trkpt lat="45.87906" lon="1.25012">
        <ele>360</ele>
        <time>2024-11-10T13:19:26Z</time>
      </trkpt>
      <trkpt lat="45.87906" lon="1.25024">
        <ele>359.6</ele>
        <time>2024-11-10T13:19:27Z</time>
      </trkpt>
      <trkpt lat="45.87906" lon="1.25036">
        <ele>359.3</ele>
        <time>2024-11-10T13:19:28Z</time>
      </trkpt>
      <trkpt lat="45.87906" lon="1.25048">
        <ele>359</ele>
        <time>2024-11-10T13:19:29Z</time>
      </trkpt>
      <trkpt lat="45.87906" lon="1.2506">
        <ele>358.7</ele>
        <time>2024-11-10T13:19:30Z</time>
      </trkpt>
      <trkpt lat="45.87906" lon="1.25073">
        <ele>358.4</ele>
        <time>2024-11-10T13:19:31Z</time>
      </trkpt>
      <trkpt lat="45.87905" lon="1.25085">
        <ele>358.2</ele>
        <time>2024-11-10T13:19:32Z</time>
      </trkpt>
      <trkpt lat="45.87906" lon="1.25097">
        <ele>358</ele>
        <time>2024-11-10T13:19:33Z</time>
      </trkpt>
      <trkpt lat="45.87906" lon="1.25108">
        <ele>357.8</ele>
        <time>2024-11-10T13:19:34Z</time>
      </trkpt>
      <trkpt lat="45.87906" lon="1.25119">
        <ele>357.7</ele>
        <time>2024-11-10T13:19:35Z</time>
      </trkpt>
      <trkpt lat="45.87906" lon="1.2513">
        <ele>357.5</ele>
        <time>2024-11-10T13:19:36Z</time>
      </trkpt>
      <trkpt lat="45.87906" lon="1.25142">
        <ele>357.3</ele>
        <time>2024-11-10T13:19:37Z</time>
      </trkpt>
      <trkpt lat="45.87906" lon="1.25153">
        <ele>357.2</ele>
        <time>2024-11-10T13:19:38Z</time>
      </trkpt>
      <trkpt lat="45.87906" lon="1.25163">
        <ele>357</ele>
        <time>2024-11-10T13:19:39Z</time>
      </trkpt>
      <trkpt lat="45.87906" lon="1.25174">
        <ele>356.9</ele>
        <time>2024-11-10T13:19:40Z</time>
      </trkpt>
      <trkpt lat="45.87906" lon="1.25184">
        <ele>356.7</ele>
        <time>2024-11-10T13:19:41Z</time>
      </trkpt>
      <trkpt lat="45.87906" lon="1.25195">
        <ele>356.5</ele>
        <time>2024-11-10T13:19:42Z</time>
      </trkpt>
      <trkpt lat="45.87906" lon="1.25205">
        <ele>356.3</ele>
        <time>2024-11-10T13:19:43Z</time>
      </trkpt>
      <trkpt lat="45.87906" lon="1.25215">
        <ele>356.2</ele>
        <time>2024-11-10T13:19:44Z</time>
      </trkpt>
      <trkpt lat="45.87905" lon="1.25225">
        <ele>356</ele>
        <time>2024-11-10T13:19:45Z</time>
      </trkpt>
      <trkpt lat="45.87905" lon="1.25235">
        <ele>355.9</ele>
        <time>2024-11-10T13:19:46Z</time>
      </trkpt>
      <trkpt lat="45.87905" lon="1.25244">
        <ele>355.8</ele>
        <time>2024-11-10T13:19:47Z</time>
      </trkpt>
      <trkpt lat="45.87905" lon="1.25254">
        <ele>355.8</ele>
        <time>2024-11-10T13:19:48Z</time>
      </trkpt>
      <trkpt lat="45.87906" lon="1.25263">
        <ele>355.8</ele>
        <time>2024-11-10T13:19:49Z</time>
      </trkpt>
      <trkpt lat="45.87907" lon="1.25272">
        <ele>355.9</ele>
        <time>2024-11-10T13:19:50Z</time>
      </trkpt>
      <trkpt lat="45.87909" lon="1.2528">
        <ele>356</ele>
        <time>2024-11-10T13:19:51Z</time>
      </trkpt>
      <trkpt lat="45.87911" lon="1.25288">
        <ele>356.2</ele>
        <time>2024-11-10T13:19:52Z</time>
      </trkpt>
      <trkpt lat="45.87913" lon="1.25295">
        <ele>356.5</ele>
        <time>2024-11-10T13:19:53Z</time>
      </trkpt>
      <trkpt lat="45.87915" lon="1.25302">
        <ele>356.8</ele>
        <time>2024-11-10T13:19:54Z</time>
      </trkpt>
      <trkpt lat="45.87917" lon="1.25309">
        <ele>357.1</ele>
        <time>2024-11-10T13:19:55Z</time>
      </trkpt>
      <trkpt lat="45.87919" lon="1.25315">
        <ele>357.4</ele>
        <time>2024-11-10T13:19:56Z</time>
      </trkpt>
      <trkpt lat="45.87921" lon="1.25321">
        <ele>357.7</ele>
        <time>2024-11-10T13:19:57Z</time>
      </trkpt>
      <trkpt lat="45.87923" lon="1.25327">
        <ele>358</ele>
        <time>2024-11-10T13:19:58Z</time>
      </trkpt>
      <trkpt lat="45.87925" lon="1.25333">
        <ele>358.3</ele>
        <time>2024-11-10T13:19:59Z</time>
      </trkpt>
      <trkpt lat="45.87927" lon="1.25338">
        <ele>358.6</ele>
        <time>2024-11-10T13:20:00Z</time>
      </trkpt>
      <trkpt lat="45.87929" lon="1.25344">
        <ele>358.9</ele>
        <time>2024-11-10T13:20:01Z</time>
      </trkpt>
      <trkpt lat="45.8793" lon="1.25349">
        <ele>359.1</ele>
        <time>2024-11-10T13:20:02Z</time>
      </trkpt>
      <trkpt lat="45.87932" lon="1.25354">
        <ele>359.3</ele>
        <time>2024-11-10T13:20:03Z</time>
      </trkpt>
      <trkpt lat="45.87935" lon="1.25358">
        <ele>359.5</ele>
        <time>2024-11-10T13:20:04Z</time>
      </trkpt>
      <trkpt lat="45.87937" lon="1.25362">
        <ele>359.7</ele>
        <time>2024-11-10T13:20:05Z</time>
      </trkpt>
      <trkpt lat="45.87939" lon="1.25366">
        <ele>359.8</ele>
        <time>2024-11-10T13:20:06Z</time>
      </trkpt>
      <trkpt lat="45.87942" lon="1.25371">
        <ele>360</ele>
        <time>2024-11-10T13:20:07Z</time>
      </trkpt>
      <trkpt lat="45.87945" lon="1.25375">
        <ele>360.2</ele>
        <time>2024-11-10T13:20:08Z</time>
      </trkpt>
      <trkpt lat="45.87948" lon="1.2538">
        <ele>360.3</ele>
        <time>2024-11-10T13:20:09Z</time>
      </trkpt>
      <trkpt lat="45.8795" lon="1.25384">
        <ele>360.5</ele>
        <time>2024-11-10T13:20:10Z</time>
      </trkpt>
      <trkpt lat="45.87953" lon="1.25388">
        <ele>360.6</ele>
        <time>2024-11-10T13:20:11Z</time>
      </trkpt>
      <trkpt lat="45.87956" lon="1.25393">
        <ele>360.8</ele>
        <time>2024-11-10T13:20:12Z</time>
      </trkpt>
      <trkpt lat="45.87958" lon="1.25398">
        <ele>360.9</ele>
        <time>2024-11-10T13:20:13Z</time>
      </trkpt>
      <trkpt lat="45.87961" lon="1.25402">
        <ele>361</ele>
        <time>2024-11-10T13:20:14Z</time>
      </trkpt>
      <trkpt lat="45.87965" lon="1.25407">
        <ele>361.2</ele>
        <time>2024-11-10T13:20:15Z</time>
      </trkpt>
      <trkpt lat="45.87968" lon="1.25412">
        <ele>361.3</ele>
        <time>2024-11-10T13:20:16Z</time>
      </trkpt>
      <trkpt lat="45.87972" lon="1.25417">
        <ele>361.5</ele>
        <time>2024-11-10T13:20:17Z</time>
      </trkpt>
      <trkpt lat="45.87975" lon="1.25421">
        <ele>361.6</ele>
        <time>2024-11-10T13:20:18Z</time>
      </trkpt>
      <trkpt lat="45.87979" lon="1.25426">
        <ele>361.8</ele>
        <time>2024-11-10T13:20:19Z</time>
      </trkpt>
      <trkpt lat="45.87981" lon="1.2543">
        <ele>361.9</ele>
        <time>2024-11-10T13:20:20Z</time>
      </trkpt>
      <trkpt lat="45.87984" lon="1.25434">
        <ele>362</ele>
        <time>2024-11-10T13:20:21Z</time>
      </trkpt>
      <trkpt lat="45.87986" lon="1.25438">
        <ele>362.1</ele>
        <time>2024-11-10T13:20:22Z</time>
      </trkpt>
      <trkpt lat="45.8799" lon="1.25442">
        <ele>362.2</ele>
        <time>2024-11-10T13:20:23Z</time>
      </trkpt>
      <trkpt lat="45.87993" lon="1.25445">
        <ele>362.3</ele>
        <time>2024-11-10T13:20:24Z</time>
      </trkpt>
      <trkpt lat="45.87996" lon="1.25449">
        <ele>362.4</ele>
        <time>2024-11-10T13:20:25Z</time>
      </trkpt>
      <trkpt lat="45.87999" lon="1.25453">
        <ele>362.5</ele>
        <time>2024-11-10T13:20:26Z</time>
      </trkpt>
      <trkpt lat="45.88002" lon="1.25457">
        <ele>362.5</ele>
        <time>2024-11-10T13:20:27Z</time>
      </trkpt>
      <trkpt lat="45.88005" lon="1.25462">
        <ele>362.6</ele>
        <time>2024-11-10T13:20:28Z</time>
      </trkpt>
      <trkpt lat="45.88008" lon="1.25466">
        <ele>362.6</ele>
        <time>2024-11-10T13:20:29Z</time>
      </trkpt>
      <trkpt lat="45.88011" lon="1.25469">
        <ele>362.7</ele>
        <time>2024-11-10T13:20:30Z</time>
      </trkpt>
      <trkpt lat="45.88014" lon="1.25473">
        <ele>362.7</ele>
        <time>2024-11-10T13:20:31Z</time>
      </trkpt>
      <trkpt lat="45.88018" lon="1.25478">
        <ele>362.8</ele>
        <time>2024-11-10T13:20:32Z</time>
      </trkpt>
      <trkpt lat="45.88021" lon="1.25482">
        <ele>362.9</ele>
        <time>2024-11-10T13:20:33Z</time>
      </trkpt>
      <trkpt lat="45.88024" lon="1.25486">
        <ele>362.9</ele>
        <time>2024-11-10T13:20:34Z</time>
      </trkpt>
      <trkpt lat="45.88027" lon="1.25491">
        <ele>362.9</ele>
        <time>2024-11-10T13:20:35Z</time>
      </trkpt>
      <trkpt lat="45.8803" lon="1.25496">
        <ele>363</ele>
        <time>2024-11-10T13:20:36Z</time>
      </trkpt>
      <trkpt lat="45.88033" lon="1.255">
        <ele>363.1</ele>
        <time>2024-11-10T13:20:37Z</time>
      </trkpt>
      <trkpt lat="45.88036" lon="1.25504">
        <ele>363.1</ele>
        <time>2024-11-10T13:20:38Z</time>
      </trkpt>
      <trkpt lat="45.88039" lon="1.25508">
        <ele>363.2</ele>
        <time>2024-11-10T13:20:39Z</time>
      </trkpt>
      <trkpt lat="45.88042" lon="1.25513">
        <ele>363.3</ele>
        <time>2024-11-10T13:20:40Z</time>
      </trkpt>
      <trkpt lat="45.88044" lon="1.25517">
        <ele>363.3</ele>
        <time>2024-11-10T13:20:41Z</time>
      </trkpt>
      <trkpt lat="45.88047" lon="1.25522">
        <ele>363.4</ele>
        <time>2024-11-10T13:20:42Z</time>
      </trkpt>
      <trkpt lat="45.8805" lon="1.25526">
        <ele>363.5</ele>
        <time>2024-11-10T13:20:43Z</time>
      </trkpt>
      <trkpt lat="45.88052" lon="1.25531">
        <ele>363.6</ele>
        <time>2024-11-10T13:20:44Z</time>
      </trkpt>
      <trkpt lat="45.88054" lon="1.25535">
        <ele>363.6</ele>
        <time>2024-11-10T13:20:45Z</time>
      </trkpt>
      <trkpt lat="45.88056" lon="1.2554">
        <ele>363.7</ele>
        <time>2024-11-10T13:20:46Z</time>
      </trkpt>
      <trkpt lat="45.88058" lon="1.25545">
        <ele>363.8</ele>
        <time>2024-11-10T13:20:47Z</time>
      </trkpt>
      <trkpt lat="45.88059" lon="1.2555">
        <ele>363.8</ele>
        <time>2024-11-10T13:20:48Z</time>
      </trkpt>
      <trkpt lat="45.88061" lon="1.25556">
        <ele>363.9</ele>
        <time>2024-11-10T13:20:49Z</time>
      </trkpt>
      <trkpt lat="45.88062" lon="1.25561">
        <ele>363.9</ele>
        <time>2024-11-10T13:20:50Z</time>
      </trkpt>
      <trkpt lat="45.88063" lon="1.25567">
        <ele>364</ele>
        <time>2024-11-10T13:20:51Z</time>
      </trkpt>
      <trkpt lat="45.88064" lon="1.25573">
        <ele>364</ele>
        <time>2024-11-10T13:20:52Z</time>
      </trkpt>
      <trkpt lat="45.88065" lon="1.25579">
        <ele>364</ele>
        <time>2024-11-10T13:20:53Z</time>
      </trkpt>
      <trkpt lat="45.88066" lon="1.25585">
        <ele>364.1</ele>
        <time>2024-11-10T13:20:54Z</time>
      </trkpt>
      <trkpt lat="45.88067" lon="1.25592">
        <ele>364.1</ele>
        <time>2024-11-10T13:20:55Z</time>
      </trkpt>
      <trkpt lat="45.88067" lon="1.25598">
        <ele>364.1</ele>
        <time>2024-11-10T13:20:56Z</time>
      </trkpt>
      <trkpt lat="45.88068" lon="1.25603">
        <ele>364.1</ele>
        <time>2024-11-10T13:20:57Z</time>
      </trkpt>
      <trkpt lat="45.88068" lon="1.25608">
        <ele>364.1</ele>
        <time>2024-11-10T13:20:58Z</time>
      </trkpt>
      <trkpt lat="45.8807" lon="1.25613">
        <ele>364</ele>
        <time>2024-11-10T13:20:59Z</time>
      </trkpt>
      <trkpt lat="45.88073" lon="1.25616">
        <ele>364</ele>
        <time>2024-11-10T13:21:01Z</time>
      </trkpt>
      <trkpt lat="45.88076" lon="1.25616">
        <ele>364.2</ele>
        <time>2024-11-10T13:21:02Z</time>
      </trkpt>
      <trkpt lat="45.88079" lon="1.25616">
        <ele>364.4</ele>
        <time>2024-11-10T13:21:03Z</time>
      </trkpt>
      <trkpt lat="45.88083" lon="1.25616">
        <ele>364.6</ele>
        <time>2024-11-10T13:21:04Z</time>
      </trkpt>
      <trkpt lat="45.88086" lon="1.25615">
        <ele>364.8</ele>
        <time>2024-11-10T13:21:05Z</time>
      </trkpt>
      <trkpt lat="45.8809" lon="1.25615">
        <ele>365</ele>
        <time>2024-11-10T13:21:06Z</time>
      </trkpt>
      <trkpt lat="45.88093" lon="1.25614">
        <ele>365.3</ele>
        <time>2024-11-10T13:21:07Z</time>
      </trkpt>
      <trkpt lat="45.88097" lon="1.25616">
        <ele>365.5</ele>
        <time>2024-11-10T13:21:09Z</time>
      </trkpt>
      <trkpt lat="45.88099" lon="1.2562">
        <ele>365.5</ele>
        <time>2024-11-10T13:21:11Z</time>
      </trkpt>
      <trkpt lat="45.88101" lon="1.25624">
        <ele>365.5</ele>
        <time>2024-11-10T13:21:13Z</time>
      </trkpt>
      <trkpt lat="45.881" lon="1.25629">
        <ele>365.5</ele>
        <time>2024-11-10T13:21:15Z</time>
      </trkpt>
      <trkpt lat="45.88101" lon="1.25635">
        <ele>365.5</ele>
        <time>2024-11-10T13:21:17Z</time>
      </trkpt>
      <trkpt lat="45.88104" lon="1.2564">
        <ele>365.5</ele>
        <time>2024-11-10T13:21:19Z</time>
      </trkpt>
      <trkpt lat="45.88106" lon="1.25644">
        <ele>365.5</ele>
        <time>2024-11-10T13:21:20Z</time>
      </trkpt>
      <trkpt lat="45.88109" lon="1.25647">
        <ele>365.5</ele>
        <time>2024-11-10T13:21:21Z</time>
      </trkpt>
      <trkpt lat="45.88112" lon="1.25649">
        <ele>365.5</ele>
        <time>2024-11-10T13:21:22Z</time>
      </trkpt>
      <trkpt lat="45.88115" lon="1.25651">
        <ele>365.5</ele>
        <time>2024-11-10T13:21:23Z</time>
      </trkpt>
      <trkpt lat="45.88118" lon="1.25652">
        <ele>365.5</ele>
        <time>2024-11-10T13:21:24Z</time>
      </trkpt>
      <trkpt lat="45.88122" lon="1.25654">
        <ele>365.5</ele>
        <time>2024-11-10T13:21:25Z</time>
      </trkpt>
      <trkpt lat="45.88125" lon="1.25656">
        <ele>365.5</ele>
        <time>2024-11-10T13:21:26Z</time>
      </trkpt>
      <trkpt lat="45.88128" lon="1.25658">
        <ele>365.6</ele>
        <time>2024-11-10T13:21:27Z</time>
      </trkpt>
      <trkpt lat="45.88131" lon="1.25659">
        <ele>365.6</ele>
        <time>2024-11-10T13:21:28Z</time>
      </trkpt>
      <trkpt lat="45.88134" lon="1.25661">
        <ele>365.6</ele>
        <time>2024-11-10T13:21:29Z</time>
      </trkpt>
      <trkpt lat="45.88137" lon="1.25663">
        <ele>365.6</ele>
        <time>2024-11-10T13:21:30Z</time>
      </trkpt>
      <trkpt lat="45.8814" lon="1.25665">
        <ele>365.6</ele>
        <time>2024-11-10T13:21:31Z</time>
      </trkpt>
      <trkpt lat="45.88143" lon="1.25668">
        <ele>365.5</ele>
        <time>2024-11-10T13:21:32Z</time>
      </trkpt>
      <trkpt lat="45.88146" lon="1.25671">
        <ele>365.3</ele>
        <time>2024-11-10T13:21:33Z</time>
      </trkpt>
      <trkpt lat="45.88148" lon="1.25674">
        <ele>365.1</ele>
        <time>2024-11-10T13:21:34Z</time>
      </trkpt>
      <trkpt lat="45.88151" lon="1.25677">
        <ele>364.9</ele>
        <time>2024-11-10T13:21:35Z</time>
      </trkpt>
      <trkpt lat="45.88155" lon="1.25678">
        <ele>364.9</ele>
        <time>2024-11-10T13:21:36Z</time>
      </trkpt>
      <trkpt lat="45.88158" lon="1.25678">
        <ele>365</ele>
        <time>2024-11-10T13:21:37Z</time>
      </trkpt>
      <trkpt lat="45.88162" lon="1.25677">
        <ele>365.1</ele>
        <time>2024-11-10T13:21:38Z</time>
      </trkpt>
      <trkpt lat="45.88166" lon="1.25675">
        <ele>365.2</ele>
        <time>2024-11-10T13:21:39Z</time>
      </trkpt>
      <trkpt lat="45.8817" lon="1.25673">
        <ele>365.3</ele>
        <time>2024-11-10T13:21:40Z</time>
      </trkpt>
      <trkpt lat="45.88173" lon="1.25671">
        <ele>365.4</ele>
        <time>2024-11-10T13:21:41Z</time>
      </trkpt>
      <trkpt lat="45.88177" lon="1.25668">
        <ele>365.5</ele>
        <time>2024-11-10T13:21:42Z</time>
      </trkpt>
      <trkpt lat="45.88181" lon="1.25666">
        <ele>365.6</ele>
        <time>2024-11-10T13:21:43Z</time>
      </trkpt>
      <trkpt lat="45.88184" lon="1.25664">
        <ele>365.7</ele>
        <time>2024-11-10T13:21:44Z</time>
      </trkpt>
      <trkpt lat="45.88188" lon="1.25661">
        <ele>365.8</ele>
        <time>2024-11-10T13:21:45Z</time>
      </trkpt>
      <trkpt lat="45.88192" lon="1.25659">
        <ele>365.9</ele>
        <time>2024-11-10T13:21:46Z</time>
      </trkpt>
      <trkpt lat="45.88196" lon="1.25657">
        <ele>366</ele>
        <time>2024-11-10T13:21:47Z</time>
      </trkpt>
      <trkpt lat="45.88199" lon="1.25655">
        <ele>366.1</ele>
        <time>2024-11-10T13:21:48Z</time>
      </trkpt>
      <trkpt lat="45.88203" lon="1.25653">
        <ele>366.2</ele>
        <time>2024-11-10T13:21:49Z</time>
      </trkpt>
      <trkpt lat="45.88207" lon="1.2565">
        <ele>366.3</ele>
        <time>2024-11-10T13:21:50Z</time>
      </trkpt>
      <trkpt lat="45.88211" lon="1.25648">
        <ele>366.3</ele>
        <time>2024-11-10T13:21:51Z</time>
      </trkpt>
      <trkpt lat="45.88214" lon="1.25646">
        <ele>366.4</ele>
        <time>2024-11-10T13:21:52Z</time>
      </trkpt>
      <trkpt lat="45.88218" lon="1.25643">
        <ele>366.5</ele>
        <time>2024-11-10T13:21:53Z</time>
      </trkpt>
      <trkpt lat="45.88222" lon="1.25641">
        <ele>366.5</ele>
        <time>2024-11-10T13:21:54Z</time>
      </trkpt>
      <trkpt lat="45.88225" lon="1.25638">
        <ele>366.6</ele>
        <time>2024-11-10T13:21:55Z</time>
      </trkpt>
      <trkpt lat="45.88229" lon="1.25636">
        <ele>366.7</ele>
        <time>2024-11-10T13:21:56Z</time>
      </trkpt>
      <trkpt lat="45.88232" lon="1.25633">
        <ele>366.7</ele>
        <time>2024-11-10T13:21:57Z</time>
      </trkpt>
      <trkpt lat="45.88236" lon="1.2563">
        <ele>366.8</ele>
        <time>2024-11-10T13:21:58Z</time>
      </trkpt>
      <trkpt lat="45.88239" lon="1.25628">
        <ele>366.9</ele>
        <time>2024-11-10T13:21:59Z</time>
      </trkpt>
      <trkpt lat="45.88243" lon="1.25625">
        <ele>366.9</ele>
        <time>2024-11-10T13:22:00Z</time>
      </trkpt>
      <trkpt lat="45.88246" lon="1.25622">
        <ele>367</ele>
        <time>2024-11-10T13:22:01Z</time>
      </trkpt>
      <trkpt lat="45.8825" lon="1.25619">
        <ele>367</ele>
        <time>2024-11-10T13:22:02Z</time>
      </trkpt>
      <trkpt lat="45.88253" lon="1.25615">
        <ele>367.1</ele>
        <time>2024-11-10T13:22:03Z</time>
      </trkpt>
      <trkpt lat="45.88256" lon="1.25612">
        <ele>367.2</ele>
        <time>2024-11-10T13:22:04Z</time>
      </trkpt>
      <trkpt lat="45.88259" lon="1.25608">
        <ele>367.2</ele>
        <time>2024-11-10T13:22:05Z</time>
      </trkpt>
      <trkpt lat="45.88262" lon="1.25603">
        <ele>367.3</ele>
        <time>2024-11-10T13:22:06Z</time>
      </trkpt>
      <trkpt lat="45.88264" lon="1.25599">
        <ele>367.3</ele>
        <time>2024-11-10T13:22:07Z</time>
      </trkpt>
      <trkpt lat="45.88267" lon="1.25594">
        <ele>367.4</ele>
        <time>2024-11-10T13:22:08Z</time>
      </trkpt>
      <trkpt lat="45.88269" lon="1.25589">
        <ele>367.5</ele>
        <time>2024-11-10T13:22:09Z</time>
      </trkpt>
      <trkpt lat="45.88272" lon="1.25585">
        <ele>367.5</ele>
        <time>2024-11-10T13:22:10Z</time>
      </trkpt>
      <trkpt lat="45.88275" lon="1.25581">
        <ele>367.6</ele>
        <time>2024-11-10T13:22:11Z</time>
      </trkpt>
      <trkpt lat="45.88278" lon="1.25577">
        <ele>367.6</ele>
        <time>2024-11-10T13:22:12Z</time>
      </trkpt>
      <trkpt lat="45.88283" lon="1.25575">
        <ele>367.7</ele>
        <time>2024-11-10T13:22:13Z</time>
      </trkpt>
      <trkpt lat="45.88287" lon="1.25575">
        <ele>367.7</ele>
        <time>2024-11-10T13:22:14Z</time>
      </trkpt>
      <trkpt lat="45.88292" lon="1.25576">
        <ele>367.7</ele>
        <time>2024-11-10T13:22:15Z</time>
      </trkpt>
      <trkpt lat="45.88296" lon="1.25578">
        <ele>367.7</ele>
        <time>2024-11-10T13:22:16Z</time>
      </trkpt>
      <trkpt lat="45.88301" lon="1.2558">
        <ele>367.8</ele>
        <time>2024-11-10T13:22:17Z</time>
      </trkpt>
      <trkpt lat="45.88305" lon="1.25583">
        <ele>367.8</ele>
        <time>2024-11-10T13:22:18Z</time>
      </trkpt>
      <trkpt lat="45.88309" lon="1.25585">
        <ele>367.8</ele>
        <time>2024-11-10T13:22:19Z</time>
      </trkpt>
      <trkpt lat="45.88313" lon="1.25588">
        <ele>367.8</ele>
        <time>2024-11-10T13:22:20Z</time>
      </trkpt>
      <trkpt lat="45.88317" lon="1.2559">
        <ele>367.9</ele>
        <time>2024-11-10T13:22:21Z</time>
      </trkpt>
      <trkpt lat="45.88321" lon="1.25592">
        <ele>367.9</ele>
        <time>2024-11-10T13:22:22Z</time>
      </trkpt>
      <trkpt lat="45.88325" lon="1.25595">
        <ele>367.9</ele>
        <time>2024-11-10T13:22:23Z</time>
      </trkpt>
      <trkpt lat="45.88329" lon="1.25597">
        <ele>368</ele>
        <time>2024-11-10T13:22:24Z</time>
      </trkpt>
      <trkpt lat="45.88332" lon="1.25599">
        <ele>368</ele>
        <time>2024-11-10T13:22:25Z</time>
      </trkpt>
      <trkpt lat="45.88335" lon="1.25601">
        <ele>368.1</ele>
        <time>2024-11-10T13:22:26Z</time>
      </trkpt>
      <trkpt lat="45.88339" lon="1.25602">
        <ele>368.1</ele>
        <time>2024-11-10T13:22:27Z</time>
      </trkpt>
      <trkpt lat="45.88342" lon="1.25604">
        <ele>368.2</ele>
        <time>2024-11-10T13:22:28Z</time>
      </trkpt>
      <trkpt lat="45.88345" lon="1.25605">
        <ele>368.2</ele>
        <time>2024-11-10T13:22:29Z</time>
      </trkpt>
      <trkpt lat="45.88348" lon="1.25607">
        <ele>368.3</ele>
        <time>2024-11-10T13:22:30Z</time>
      </trkpt>
      <trkpt lat="45.88351" lon="1.25609">
        <ele>368.3</ele>
        <time>2024-11-10T13:22:31Z</time>
      </trkpt>
      <trkpt lat="45.88354" lon="1.25611">
        <ele>368.4</ele>
        <time>2024-11-10T13:22:32Z</time>
      </trkpt>
      <trkpt lat="45.88358" lon="1.25613">
        <ele>368.5</ele>
        <time>2024-11-10T13:22:33Z</time>
      </trkpt>
      <trkpt lat="45.88361" lon="1.25615">
        <ele>368.5</ele>
        <time>2024-11-10T13:22:34Z</time>
      </trkpt>
      <trkpt lat="45.88364" lon="1.25617">
        <ele>368.5</ele>
        <time>2024-11-10T13:22:35Z</time>
      </trkpt>
      <trkpt lat="45.88367" lon="1.25619">
        <ele>368.6</ele>
        <time>2024-11-10T13:22:36Z</time>
      </trkpt>
      <trkpt lat="45.88371" lon="1.25621">
        <ele>368.6</ele>
        <time>2024-11-10T13:22:37Z</time>
      </trkpt>
      <trkpt lat="45.88374" lon="1.25624">
        <ele>368.7</ele>
        <time>2024-11-10T13:22:38Z</time>
      </trkpt>
      <trkpt lat="45.88377" lon="1.25626">
        <ele>368.7</ele>
        <time>2024-11-10T13:22:39Z</time>
      </trkpt>
      <trkpt lat="45.88381" lon="1.25629">
        <ele>368.8</ele>
        <time>2024-11-10T13:22:40Z</time>
      </trkpt>
      <trkpt lat="45.88384" lon="1.25632">
        <ele>368.8</ele>
        <time>2024-11-10T13:22:41Z</time>
      </trkpt>
      <trkpt lat="45.88387" lon="1.25634">
        <ele>368.8</ele>
        <time>2024-11-10T13:22:42Z</time>
      </trkpt>
      <trkpt lat="45.8839" lon="1.25637">
        <ele>368.9</ele>
        <time>2024-11-10T13:22:43Z</time>
      </trkpt>
      <trkpt lat="45.88394" lon="1.25639">
        <ele>368.9</ele>
        <time>2024-11-10T13:22:44Z</time>
      </trkpt>
      <trkpt lat="45.88397" lon="1.25642">
        <ele>368.9</ele>
        <time>2024-11-10T13:22:45Z</time>
      </trkpt>
      <trkpt lat="45.884" lon="1.25644">
        <ele>368.8</ele>
        <time>2024-11-10T13:22:46Z</time>
      </trkpt>
      <trkpt lat="45.88402" lon="1.25647">
        <ele>368.8</ele>
        <time>2024-11-10T13:22:47Z</time>
      </trkpt>
      <trkpt lat="45.88406" lon="1.2565">
        <ele>368.8</ele>
        <time>2024-11-10T13:22:48Z</time>
      </trkpt>
      <trkpt lat="45.88409" lon="1.25653">
        <ele>368.7</ele>
        <time>2024-11-10T13:22:49Z</time>
      </trkpt>
      <trkpt lat="45.88412" lon="1.25655">
        <ele>368.7</ele>
        <time>2024-11-10T13:22:50Z</time>
      </trkpt>
      <trkpt lat="45.88415" lon="1.25658">
        <ele>368.7</ele>
        <time>2024-11-10T13:22:51Z</time>
      </trkpt>
      <trkpt lat="45.88418" lon="1.25662">
        <ele>368.6</ele>
        <time>2024-11-10T13:22:52Z</time>
      </trkpt>
      <trkpt lat="45.88422" lon="1.25665">
        <ele>368.5</ele>
        <time>2024-11-10T13:22:53Z</time>
      </trkpt>
      <trkpt lat="45.88425" lon="1.25668">
        <ele>368.5</ele>
        <time>2024-11-10T13:22:54Z</time>
      </trkpt>
      <trkpt lat="45.88429" lon="1.25671">
        <ele>368.4</ele>
        <time>2024-11-10T13:22:55Z</time>
      </trkpt>
      <trkpt lat="45.88433" lon="1.25674">
        <ele>368.3</ele>
        <time>2024-11-10T13:22:56Z</time>
      </trkpt>
      <trkpt lat="45.88436" lon="1.25681">
        <ele>368.2</ele>
        <time>2024-11-10T13:22:57Z</time>
      </trkpt>
      <trkpt lat="45.8844" lon="1.25686">
        <ele>368.1</ele>
        <time>2024-11-10T13:22:58Z</time>
      </trkpt>
      <trkpt lat="45.88443" lon="1.2569">
        <ele>368</ele>
        <time>2024-11-10T13:22:59Z</time>
      </trkpt>
      <trkpt lat="45.88447" lon="1.25693">
        <ele>367.9</ele>
        <time>2024-11-10T13:23:00Z</time>
      </trkpt>
      <trkpt lat="45.88451" lon="1.25696">
        <ele>367.8</ele>
        <time>2024-11-10T13:23:01Z</time>
      </trkpt>
      <trkpt lat="45.88455" lon="1.25699">
        <ele>367.8</ele>
        <time>2024-11-10T13:23:02Z</time>
      </trkpt>
      <trkpt lat="45.88459" lon="1.25702">
        <ele>367.7</ele>
        <time>2024-11-10T13:23:03Z</time>
      </trkpt>
      <trkpt lat="45.88463" lon="1.25705">
        <ele>367.6</ele>
        <time>2024-11-10T13:23:04Z</time>
      </trkpt>
      <trkpt lat="45.88467" lon="1.25708">
        <ele>367.5</ele>
        <time>2024-11-10T13:23:05Z</time>
      </trkpt>
      <trkpt lat="45.88471" lon="1.25711">
        <ele>367.4</ele>
        <time>2024-11-10T13:23:06Z</time>
      </trkpt>
      <trkpt lat="45.88475" lon="1.25714">
        <ele>367.3</ele>
        <time>2024-11-10T13:23:07Z</time>
      </trkpt>
      <trkpt lat="45.88479" lon="1.25717">
        <ele>367.2</ele>
        <time>2024-11-10T13:23:08Z</time>
      </trkpt>
      <trkpt lat="45.88483" lon="1.25719">
        <ele>367.1</ele>
        <time>2024-11-10T13:23:09Z</time>
      </trkpt>
      <trkpt lat="45.88487" lon="1.25722">
        <ele>366.9</ele>
        <time>2024-11-10T13:23:10Z</time>
      </trkpt>
      <trkpt lat="45.88491" lon="1.25726">
        <ele>366.8</ele>
        <time>2024-11-10T13:23:11Z</time>
      </trkpt>
      <trkpt lat="45.88495" lon="1.25729">
        <ele>366.6</ele>
        <time>2024-11-10T13:23:12Z</time>
      </trkpt>
      <trkpt lat="45.88499" lon="1.25733">
        <ele>366.4</ele>
        <time>2024-11-10T13:23:13Z</time>
      </trkpt>
      <trkpt lat="45.88503" lon="1.25737">
        <ele>366.2</ele>
        <time>2024-11-10T13:23:14Z</time>
      </trkpt>
      <trkpt lat="45.88508" lon="1.2574">
        <ele>365.9</ele>
        <time>2024-11-10T13:23:15Z</time>
      </trkpt>
      <trkpt lat="45.88512" lon="1.25744">
        <ele>365.6</ele>
        <time>2024-11-10T13:23:16Z</time>
      </trkpt>
      <trkpt lat="45.88517" lon="1.25747">
        <ele>365.3</ele>
        <time>2024-11-10T13:23:17Z</time>
      </trkpt>
      <trkpt lat="45.88522" lon="1.25751">
        <ele>365</ele>
        <time>2024-11-10T13:23:18Z</time>
      </trkpt>
      <trkpt lat="45.88526" lon="1.25755">
        <ele>364.7</ele>
        <time>2024-11-10T13:23:19Z</time>
      </trkpt>
      <trkpt lat="45.88531" lon="1.25759">
        <ele>364.3</ele>
        <time>2024-11-10T13:23:20Z</time>
      </trkpt>
      <trkpt lat="45.88536" lon="1.25763">
        <ele>363.9</ele>
        <time>2024-11-10T13:23:21Z</time>
      </trkpt>
      <trkpt lat="45.88541" lon="1.25767">
        <ele>363.6</ele>
        <time>2024-11-10T13:23:22Z</time>
      </trkpt>
      <trkpt lat="45.88546" lon="1.25772">
        <ele>363.2</ele>
        <time>2024-11-10T13:23:23Z</time>
      </trkpt>
      <trkpt lat="45.8855" lon="1.25776">
        <ele>362.9</ele>
        <time>2024-11-10T13:23:24Z</time>
      </trkpt>
      <trkpt lat="45.88554" lon="1.25781">
        <ele>362.5</ele>
        <time>2024-11-10T13:23:25Z</time>
      </trkpt>
      <trkpt lat="45.88558" lon="1.25786">
        <ele>362.2</ele>
        <time>2024-11-10T13:23:26Z</time>
      </trkpt>
      <trkpt lat="45.88562" lon="1.25792">
        <ele>361.9</ele>
        <time>2024-11-10T13:23:27Z</time>
      </trkpt>
      <trkpt lat="45.88565" lon="1.25797">
        <ele>361.6</ele>
        <time>2024-11-10T13:23:28Z</time>
      </trkpt>
      <trkpt lat="45.88568" lon="1.25802">
        <ele>361.4</ele>
        <time>2024-11-10T13:23:29Z</time>
      </trkpt>
      <trkpt lat="45.88571" lon="1.25808">
        <ele>361.1</ele>
        <time>2024-11-10T13:23:30Z</time>
      </trkpt>
      <trkpt lat="45.88574" lon="1.25813">
        <ele>360.8</ele>
        <time>2024-11-10T13:23:31Z</time>
      </trkpt>
      <trkpt lat="45.88576" lon="1.25818">
        <ele>360.6</ele>
        <time>2024-11-10T13:23:32Z</time>
      </trkpt>
      <trkpt lat="45.88578" lon="1.25823">
        <ele>360.5</ele>
        <time>2024-11-10T13:23:33Z</time>
      </trkpt>
      <trkpt lat="45.88581" lon="1.25828">
        <ele>360.2</ele>
        <time>2024-11-10T13:23:35Z</time>
      </trkpt>
      <trkpt lat="45.88584" lon="1.25831">
        <ele>360.1</ele>
        <time>2024-11-10T13:23:38Z</time>
      </trkpt>
      <trkpt lat="45.88584" lon="1.25836">
        <ele>359.9</ele>
        <time>2024-11-10T13:23:43Z</time>
      </trkpt>
      <trkpt lat="45.88584" lon="1.25842">
        <ele>359.7</ele>
        <time>2024-11-10T13:23:45Z</time>
      </trkpt>
      <trkpt lat="45.88586" lon="1.25848">
        <ele>359.5</ele>
        <time>2024-11-10T13:23:47Z</time>
      </trkpt>
      <trkpt lat="45.88588" lon="1.25852">
        <ele>359.5</ele>
        <time>2024-11-10T13:23:48Z</time>
      </trkpt>
      <trkpt lat="45.88591" lon="1.25855">
        <ele>359.4</ele>
        <time>2024-11-10T13:23:49Z</time>
      </trkpt>
      <trkpt lat="45.88595" lon="1.25857">
        <ele>359.4</ele>
        <time>2024-11-10T13:23:50Z</time>
      </trkpt>
      <trkpt lat="45.88598" lon="1.25857">
        <ele>359.3</ele>
        <time>2024-11-10T13:23:51Z</time>
      </trkpt>
      <trkpt lat="45.88602" lon="1.25856">
        <ele>359.3</ele>
        <time>2024-11-10T13:23:52Z</time>
      </trkpt>
      <trkpt lat="45.88605" lon="1.25853">
        <ele>359.2</ele>
        <time>2024-11-10T13:23:53Z</time>
      </trkpt>
      <trkpt lat="45.88608" lon="1.25849">
        <ele>359.2</ele>
        <time>2024-11-10T13:23:55Z</time>
      </trkpt>
      <trkpt lat="45.88611" lon="1.25846">
        <ele>359.1</ele>
        <time>2024-11-10T13:23:56Z</time>
      </trkpt>
      <trkpt lat="45.88614" lon="1.25843">
        <ele>359.1</ele>
        <time>2024-11-10T13:23:57Z</time>
      </trkpt>
      <trkpt lat="45.88616" lon="1.25841">
        <ele>359.1</ele>
        <time>2024-11-10T13:23:58Z</time>
      </trkpt>
      <trkpt lat="45.88618" lon="1.25839">
        <ele>359.1</ele>
        <time>2024-11-10T13:23:59Z</time>
      </trkpt>
      <trkpt lat="45.88621" lon="1.25837">
        <ele>359.1</ele>
        <time>2024-11-10T13:24:00Z</time>
      </trkpt>
      <trkpt lat="45.88624" lon="1.25835">
        <ele>359</ele>
        <time>2024-11-10T13:24:01Z</time>
      </trkpt>
      <trkpt lat="45.88627" lon="1.25832">
        <ele>359</ele>
        <time>2024-11-10T13:24:02Z</time>
      </trkpt>
      <trkpt lat="45.88629" lon="1.2583">
        <ele>359.1</ele>
        <time>2024-11-10T13:24:03Z</time>
      </trkpt>
      <trkpt lat="45.88632" lon="1.25828">
        <ele>359.1</ele>
        <time>2024-11-10T13:24:04Z</time>
      </trkpt>
      <trkpt lat="45.88635" lon="1.25825">
        <ele>359.2</ele>
        <time>2024-11-10T13:24:05Z</time>
      </trkpt>
      <trkpt lat="45.88638" lon="1.25823">
        <ele>359.3</ele>
        <time>2024-11-10T13:24:06Z</time>
      </trkpt>
      <trkpt lat="45.88642" lon="1.2582">
        <ele>359.4</ele>
        <time>2024-11-10T13:24:07Z</time>
      </trkpt>
      <trkpt lat="45.88645" lon="1.25817">
        <ele>359.5</ele>
        <time>2024-11-10T13:24:08Z</time>
      </trkpt>
      <trkpt lat="45.88648" lon="1.25815">
        <ele>359.6</ele>
        <time>2024-11-10T13:24:09Z</time>
      </trkpt>
      <trkpt lat="45.8865" lon="1.25813">
        <ele>359.6</ele>
        <time>2024-11-10T13:24:10Z</time>
      </trkpt>
      <trkpt lat="45.88653" lon="1.25811">
        <ele>359.8</ele>
        <time>2024-11-10T13:24:11Z</time>
      </trkpt>
      <trkpt lat="45.88656" lon="1.25808">
        <ele>359.9</ele>
        <time>2024-11-10T13:24:12Z</time>
      </trkpt>
      <trkpt lat="45.88659" lon="1.25806">
        <ele>360</ele>
        <time>2024-11-10T13:24:13Z</time>
      </trkpt>
      <trkpt lat="45.88661" lon="1.25803">
        <ele>360.1</ele>
        <time>2024-11-10T13:24:14Z</time>
      </trkpt>
      <trkpt lat="45.88664" lon="1.25801">
        <ele>360.3</ele>
        <time>2024-11-10T13:24:15Z</time>
      </trkpt>
      <trkpt lat="45.88667" lon="1.25798">
        <ele>360.4</ele>
        <time>2024-11-10T13:24:16Z</time>
      </trkpt>
      <trkpt lat="45.8867" lon="1.25794">
        <ele>360.5</ele>
        <time>2024-11-10T13:24:18Z</time>
      </trkpt>
      <trkpt lat="45.88673" lon="1.2579">
        <ele>360.7</ele>
        <time>2024-11-10T13:24:19Z</time>
      </trkpt>
      <trkpt lat="45.88676" lon="1.25787">
        <ele>360.8</ele>
        <time>2024-11-10T13:24:20Z</time>
      </trkpt>
      <trkpt lat="45.88679" lon="1.25784">
        <ele>360.9</ele>
        <time>2024-11-10T13:24:21Z</time>
      </trkpt>
      <trkpt lat="45.88682" lon="1.2578">
        <ele>360.9</ele>
        <time>2024-11-10T13:24:22Z</time>
      </trkpt>
      <trkpt lat="45.88684" lon="1.25777">
        <ele>361</ele>
        <time>2024-11-10T13:24:23Z</time>
      </trkpt>
      <trkpt lat="45.88687" lon="1.25773">
        <ele>361</ele>
        <time>2024-11-10T13:24:24Z</time>
      </trkpt>
      <trkpt lat="45.88689" lon="1.25769">
        <ele>361.1</ele>
        <time>2024-11-10T13:24:25Z</time>
      </trkpt>
      <trkpt lat="45.88692" lon="1.25766">
        <ele>361.1</ele>
        <time>2024-11-10T13:24:26Z</time>
      </trkpt>
      <trkpt lat="45.88695" lon="1.25762">
        <ele>361.2</ele>
        <time>2024-11-10T13:24:27Z</time>
      </trkpt>
      <trkpt lat="45.88697" lon="1.25758">
        <ele>361.2</ele>
        <time>2024-11-10T13:24:28Z</time>
      </trkpt>
      <trkpt lat="45.887" lon="1.25754">
        <ele>361.2</ele>
        <time>2024-11-10T13:24:29Z</time>
      </trkpt>
      <trkpt lat="45.88703" lon="1.2575">
        <ele>361.3</ele>
        <time>2024-11-10T13:24:30Z</time>
      </trkpt>
      <trkpt lat="45.88706" lon="1.25747">
        <ele>361.3</ele>
        <time>2024-11-10T13:24:31Z</time>
      </trkpt>
      <trkpt lat="45.88708" lon="1.25743">
        <ele>361.3</ele>
        <time>2024-11-10T13:24:32Z</time>
      </trkpt>
      <trkpt lat="45.88711" lon="1.25739">
        <ele>361.3</ele>
        <time>2024-11-10T13:24:33Z</time>
      </trkpt>
      <trkpt lat="45.88714" lon="1.25735">
        <ele>361.3</ele>
        <time>2024-11-10T13:24:34Z</time>
      </trkpt>
      <trkpt lat="45.88716" lon="1.2573">
        <ele>361.4</ele>
        <time>2024-11-10T13:24:35Z</time>
      </trkpt>
      <trkpt lat="45.88719" lon="1.25726">
        <ele>361.4</ele>
        <time>2024-11-10T13:24:36Z</time>
      </trkpt>
      <trkpt lat="45.88722" lon="1.25722">
        <ele>361.5</ele>
        <time>2024-11-10T13:24:37Z</time>
      </trkpt>
      <trkpt lat="45.88724" lon="1.25718">
        <ele>361.5</ele>
        <time>2024-11-10T13:24:38Z</time>
      </trkpt>
      <trkpt lat="45.88726" lon="1.25714">
        <ele>361.6</ele>
        <time>2024-11-10T13:24:39Z</time>
      </trkpt>
      <trkpt lat="45.88728" lon="1.25711">
        <ele>361.7</ele>
        <time>2024-11-10T13:24:40Z</time>
      </trkpt>
      <trkpt lat="45.8873" lon="1.25707">
        <ele>361.7</ele>
        <time>2024-11-10T13:24:41Z</time>
      </trkpt>
      <trkpt lat="45.88732" lon="1.25704">
        <ele>361.8</ele>
        <time>2024-11-10T13:24:42Z</time>
      </trkpt>
      <trkpt lat="45.88735" lon="1.257">
        <ele>361.9</ele>
        <time>2024-11-10T13:24:43Z</time>
      </trkpt>
      <trkpt lat="45.88737" lon="1.25697">
        <ele>362</ele>
        <time>2024-11-10T13:24:44Z</time>
      </trkpt>
      <trkpt lat="45.88739" lon="1.25693">
        <ele>362</ele>
        <time>2024-11-10T13:24:45Z</time>
      </trkpt>
      <trkpt lat="45.8874" lon="1.25689">
        <ele>362.1</ele>
        <time>2024-11-10T13:24:46Z</time>
      </trkpt>
      <trkpt lat="45.88742" lon="1.25685">
        <ele>362.1</ele>
        <time>2024-11-10T13:24:47Z</time>
      </trkpt>
      <trkpt lat="45.88744" lon="1.25681">
        <ele>362.1</ele>
        <time>2024-11-10T13:24:48Z</time>
      </trkpt>
      <trkpt lat="45.88746" lon="1.25678">
        <ele>362.1</ele>
        <time>2024-11-10T13:24:49Z</time>
      </trkpt>
      <trkpt lat="45.88748" lon="1.25674">
        <ele>362.1</ele>
        <time>2024-11-10T13:24:50Z</time>
      </trkpt>
      <trkpt lat="45.8875" lon="1.2567">
        <ele>362</ele>
        <time>2024-11-10T13:24:51Z</time>
      </trkpt>
      <trkpt lat="45.88752" lon="1.25666">
        <ele>362</ele>
        <time>2024-11-10T13:24:52Z</time>
      </trkpt>
      <trkpt lat="45.88754" lon="1.25662">
        <ele>361.9</ele>
        <time>2024-11-10T13:24:53Z</time>
      </trkpt>
      <trkpt lat="45.88756" lon="1.25657">
        <ele>361.8</ele>
        <time>2024-11-10T13:24:54Z</time>
      </trkpt>
      <trkpt lat="45.88759" lon="1.25653">
        <ele>361.6</ele>
        <time>2024-11-10T13:24:55Z</time>
      </trkpt>
      <trkpt lat="45.88761" lon="1.25649">
        <ele>361.5</ele>
        <time>2024-11-10T13:24:56Z</time>
      </trkpt>
      <trkpt lat="45.88763" lon="1.25644">
        <ele>361.3</ele>
        <time>2024-11-10T13:24:57Z</time>
      </trkpt>
      <trkpt lat="45.88766" lon="1.2564">
        <ele>361.1</ele>
        <time>2024-11-10T13:24:58Z</time>
      </trkpt>
      <trkpt lat="45.88769" lon="1.25635">
        <ele>360.9</ele>
        <time>2024-11-10T13:24:59Z</time>
      </trkpt>
      <trkpt lat="45.88771" lon="1.2563">
        <ele>360.7</ele>
        <time>2024-11-10T13:25:00Z</time>
      </trkpt>
      <trkpt lat="45.88774" lon="1.25625">
        <ele>360.5</ele>
        <time>2024-11-10T13:25:01Z</time>
      </trkpt>
      <trkpt lat="45.88777" lon="1.25619">
        <ele>360.2</ele>
        <time>2024-11-10T13:25:02Z</time>
      </trkpt>
      <trkpt lat="45.88781" lon="1.25614">
        <ele>360</ele>
        <time>2024-11-10T13:25:03Z</time>
      </trkpt>
      <trkpt lat="45.88784" lon="1.25609">
        <ele>359.9</ele>
        <time>2024-11-10T13:25:04Z</time>
      </trkpt>
      <trkpt lat="45.88788" lon="1.25603">
        <ele>359.7</ele>
        <time>2024-11-10T13:25:05Z</time>
      </trkpt>
      <trkpt lat="45.88792" lon="1.25598">
        <ele>359.6</ele>
        <time>2024-11-10T13:25:06Z</time>
      </trkpt>
      <trkpt lat="45.88796" lon="1.25593">
        <ele>359.6</ele>
        <time>2024-11-10T13:25:07Z</time>
      </trkpt>
      <trkpt lat="45.88799" lon="1.25589">
        <ele>359.6</ele>
        <time>2024-11-10T13:25:08Z</time>
      </trkpt>
      <trkpt lat="45.88803" lon="1.25584">
        <ele>359.7</ele>
        <time>2024-11-10T13:25:09Z</time>
      </trkpt>
      <trkpt lat="45.88806" lon="1.25579">
        <ele>359.8</ele>
        <time>2024-11-10T13:25:10Z</time>
      </trkpt>
      <trkpt lat="45.88808" lon="1.25575">
        <ele>359.8</ele>
        <time>2024-11-10T13:25:11Z</time>
      </trkpt>
      <trkpt lat="45.88811" lon="1.25571">
        <ele>360</ele>
        <time>2024-11-10T13:25:12Z</time>
      </trkpt>
      <trkpt lat="45.88814" lon="1.25566">
        <ele>360.1</ele>
        <time>2024-11-10T13:25:13Z</time>
      </trkpt>
      <trkpt lat="45.88817" lon="1.25562">
        <ele>360.3</ele>
        <time>2024-11-10T13:25:14Z</time>
      </trkpt>
      <trkpt lat="45.88819" lon="1.25557">
        <ele>360.5</ele>
        <time>2024-11-10T13:25:15Z</time>
      </trkpt>
      <trkpt lat="45.88822" lon="1.25553">
        <ele>360.8</ele>
        <time>2024-11-10T13:25:16Z</time>
      </trkpt>
      <trkpt lat="45.88825" lon="1.25549">
        <ele>361</ele>
        <time>2024-11-10T13:25:17Z</time>
      </trkpt>
      <trkpt lat="45.88827" lon="1.25546">
        <ele>361.3</ele>
        <time>2024-11-10T13:25:18Z</time>
      </trkpt>
      <trkpt lat="45.8883" lon="1.25542">
        <ele>361.6</ele>
        <time>2024-11-10T13:25:19Z</time>
      </trkpt>
      <trkpt lat="45.88832" lon="1.25538">
        <ele>361.8</ele>
        <time>2024-11-10T13:25:20Z</time>
      </trkpt>
      <trkpt lat="45.88835" lon="1.25536">
        <ele>362.1</ele>
        <time>2024-11-10T13:25:21Z</time>
      </trkpt>
      <trkpt lat="45.88838" lon="1.25533">
        <ele>362.4</ele>
        <time>2024-11-10T13:25:22Z</time>
      </trkpt>
      <trkpt lat="45.88841" lon="1.2553">
        <ele>362.7</ele>
        <time>2024-11-10T13:25:23Z</time>
      </trkpt>
      <trkpt lat="45.88844" lon="1.25527">
        <ele>363.1</ele>
        <time>2024-11-10T13:25:24Z</time>
      </trkpt>
      <trkpt lat="45.88847" lon="1.25523">
        <ele>363.5</ele>
        <time>2024-11-10T13:25:25Z</time>
      </trkpt>
      <trkpt lat="45.88849" lon="1.2552">
        <ele>363.8</ele>
        <time>2024-11-10T13:25:26Z</time>
      </trkpt>
      <trkpt lat="45.88852" lon="1.25517">
        <ele>364.1</ele>
        <time>2024-11-10T13:25:27Z</time>
      </trkpt>
      <trkpt lat="45.88855" lon="1.25514">
        <ele>364.5</ele>
        <time>2024-11-10T13:25:28Z</time>
      </trkpt>
      <trkpt lat="45.88857" lon="1.25512">
        <ele>364.7</ele>
        <time>2024-11-10T13:25:29Z</time>
      </trkpt>
      <trkpt lat="45.8886" lon="1.25509">
        <ele>365</ele>
        <time>2024-11-10T13:25:30Z</time>
      </trkpt>
      <trkpt lat="45.88863" lon="1.25505">
        <ele>365.4</ele>
        <time>2024-11-10T13:25:32Z</time>
      </trkpt>
      <trkpt lat="45.88866" lon="1.25502">
        <ele>365.7</ele>
        <time>2024-11-10T13:25:33Z</time>
      </trkpt>
      <trkpt lat="45.88869" lon="1.25499">
        <ele>366</ele>
        <time>2024-11-10T13:25:34Z</time>
      </trkpt>
      <trkpt lat="45.88871" lon="1.25497">
        <ele>366.1</ele>
        <time>2024-11-10T13:25:35Z</time>
      </trkpt>
      <trkpt lat="45.88874" lon="1.25494">
        <ele>366.4</ele>
        <time>2024-11-10T13:25:36Z</time>
      </trkpt>
      <trkpt lat="45.88876" lon="1.25492">
        <ele>366.5</ele>
        <time>2024-11-10T13:25:37Z</time>
      </trkpt>
      <trkpt lat="45.8888" lon="1.25489">
        <ele>366.8</ele>
        <time>2024-11-10T13:25:39Z</time>
      </trkpt>
      <trkpt lat="45.88883" lon="1.25486">
        <ele>367</ele>
        <time>2024-11-10T13:25:40Z</time>
      </trkpt>
      <trkpt lat="45.88885" lon="1.25483">
        <ele>367.1</ele>
        <time>2024-11-10T13:25:41Z</time>
      </trkpt>
      <trkpt lat="45.88888" lon="1.25481">
        <ele>367.2</ele>
        <time>2024-11-10T13:25:42Z</time>
      </trkpt>
      <trkpt lat="45.8889" lon="1.25479">
        <ele>367.3</ele>
        <time>2024-11-10T13:25:43Z</time>
      </trkpt>
      <trkpt lat="45.88893" lon="1.25477">
        <ele>367.4</ele>
        <time>2024-11-10T13:25:44Z</time>
      </trkpt>
      <trkpt lat="45.88895" lon="1.25474">
        <ele>367.5</ele>
        <time>2024-11-10T13:25:45Z</time>
      </trkpt>
      <trkpt lat="45.88898" lon="1.25471">
        <ele>367.6</ele>
        <time>2024-11-10T13:25:46Z</time>
      </trkpt>
      <trkpt lat="45.889" lon="1.25469">
        <ele>367.6</ele>
        <time>2024-11-10T13:25:47Z</time>
      </trkpt>
      <trkpt lat="45.88903" lon="1.25466">
        <ele>367.6</ele>
        <time>2024-11-10T13:25:48Z</time>
      </trkpt>
      <trkpt lat="45.88906" lon="1.25462">
        <ele>367.6</ele>
        <time>2024-11-10T13:25:49Z</time>
      </trkpt>
      <trkpt lat="45.88909" lon="1.25459">
        <ele>367.6</ele>
        <time>2024-11-10T13:25:50Z</time>
      </trkpt>
      <trkpt lat="45.88912" lon="1.25456">
        <ele>367.6</ele>
        <time>2024-11-10T13:25:51Z</time>
      </trkpt>
      <trkpt lat="45.88914" lon="1.25453">
        <ele>367.5</ele>
        <time>2024-11-10T13:25:52Z</time>
      </trkpt>
      <trkpt lat="45.88917" lon="1.25451">
        <ele>367.4</ele>
        <time>2024-11-10T13:25:53Z</time>
      </trkpt>
      <trkpt lat="45.8892" lon="1.25448">
        <ele>367.4</ele>
        <time>2024-11-10T13:25:54Z</time>
      </trkpt>
      <trkpt lat="45.88923" lon="1.25444">
        <ele>367.2</ele>
        <time>2024-11-10T13:25:55Z</time>
      </trkpt>
      <trkpt lat="45.88926" lon="1.25441">
        <ele>367.1</ele>
        <time>2024-11-10T13:25:56Z</time>
      </trkpt>
      <trkpt lat="45.88929" lon="1.25437">
        <ele>367</ele>
        <time>2024-11-10T13:25:57Z</time>
      </trkpt>
      <trkpt lat="45.88932" lon="1.25433">
        <ele>366.8</ele>
        <time>2024-11-10T13:25:58Z</time>
      </trkpt>
      <trkpt lat="45.88935" lon="1.25429">
        <ele>366.5</ele>
        <time>2024-11-10T13:25:59Z</time>
      </trkpt>
      <trkpt lat="45.88938" lon="1.25427">
        <ele>366.4</ele>
        <time>2024-11-10T13:26:00Z</time>
      </trkpt>
      <trkpt lat="45.88943" lon="1.25423">
        <ele>366</ele>
        <time>2024-11-10T13:26:01Z</time>
      </trkpt>
      <trkpt lat="45.88947" lon="1.2542">
        <ele>365.7</ele>
        <time>2024-11-10T13:26:02Z</time>
      </trkpt>
      <trkpt lat="45.88951" lon="1.25416">
        <ele>365.3</ele>
        <time>2024-11-10T13:26:03Z</time>
      </trkpt>
      <trkpt lat="45.88956" lon="1.25414">
        <ele>364.9</ele>
        <time>2024-11-10T13:26:04Z</time>
      </trkpt>
      <trkpt lat="45.8896" lon="1.25411">
        <ele>364.5</ele>
        <time>2024-11-10T13:26:05Z</time>
      </trkpt>
      <trkpt lat="45.88965" lon="1.25408">
        <ele>364.1</ele>
        <time>2024-11-10T13:26:06Z</time>
      </trkpt>
      <trkpt lat="45.88969" lon="1.25404">
        <ele>363.8</ele>
        <time>2024-11-10T13:26:07Z</time>
      </trkpt>
      <trkpt lat="45.88973" lon="1.25402">
        <ele>363.5</ele>
        <time>2024-11-10T13:26:08Z</time>
      </trkpt>
      <trkpt lat="45.88979" lon="1.25398">
        <ele>363.2</ele>
        <time>2024-11-10T13:26:09Z</time>
      </trkpt>
      <trkpt lat="45.88985" lon="1.25395">
        <ele>362.9</ele>
        <time>2024-11-10T13:26:10Z</time>
      </trkpt>
      <trkpt lat="45.88991" lon="1.25392">
        <ele>362.8</ele>
        <time>2024-11-10T13:26:11Z</time>
      </trkpt>
      <trkpt lat="45.88997" lon="1.25388">
        <ele>362.8</ele>
        <time>2024-11-10T13:26:12Z</time>
      </trkpt>
      <trkpt lat="45.89001" lon="1.25384">
        <ele>362.9</ele>
        <time>2024-11-10T13:26:13Z</time>
      </trkpt>
      <trkpt lat="45.89006" lon="1.2538">
        <ele>363.1</ele>
        <time>2024-11-10T13:26:14Z</time>
      </trkpt>
      <trkpt lat="45.8901" lon="1.25377">
        <ele>363.4</ele>
        <time>2024-11-10T13:26:15Z</time>
      </trkpt>
      <trkpt lat="45.89014" lon="1.25374">
        <ele>363.8</ele>
        <time>2024-11-10T13:26:16Z</time>
      </trkpt>
      <trkpt lat="45.89017" lon="1.25371">
        <ele>364.1</ele>
        <time>2024-11-10T13:26:17Z</time>
      </trkpt>
      <trkpt lat="45.8902" lon="1.25368">
        <ele>364.5</ele>
        <time>2024-11-10T13:26:18Z</time>
      </trkpt>
      <trkpt lat="45.89022" lon="1.25364">
        <ele>365</ele>
        <time>2024-11-10T13:26:19Z</time>
      </trkpt>
      <trkpt lat="45.89025" lon="1.2536">
        <ele>365.5</ele>
        <time>2024-11-10T13:26:20Z</time>
      </trkpt>
      <trkpt lat="45.89026" lon="1.25356">
        <ele>365.9</ele>
        <time>2024-11-10T13:26:21Z</time>
      </trkpt>
      <trkpt lat="45.89028" lon="1.25353">
        <ele>366.4</ele>
        <time>2024-11-10T13:26:22Z</time>
      </trkpt>
      <trkpt lat="45.89031" lon="1.25348">
        <ele>367</ele>
        <time>2024-11-10T13:26:24Z</time>
      </trkpt>
      <trkpt lat="45.89034" lon="1.25344">
        <ele>367.7</ele>
        <time>2024-11-10T13:26:26Z</time>
      </trkpt>
      <trkpt lat="45.89037" lon="1.2534">
        <ele>368.3</ele>
        <time>2024-11-10T13:26:28Z</time>
      </trkpt>
      <trkpt lat="45.89041" lon="1.25336">
        <ele>368.9</ele>
        <time>2024-11-10T13:26:30Z</time>
      </trkpt>
      <trkpt lat="45.89045" lon="1.25332">
        <ele>369.5</ele>
        <time>2024-11-10T13:26:32Z</time>
      </trkpt>
      <trkpt lat="45.89048" lon="1.2533">
        <ele>369.9</ele>
        <time>2024-11-10T13:26:33Z</time>
      </trkpt>
      <trkpt lat="45.89051" lon="1.25328">
        <ele>370.2</ele>
        <time>2024-11-10T13:26:34Z</time>
      </trkpt>
      <trkpt lat="45.89054" lon="1.25326">
        <ele>370.4</ele>
        <time>2024-11-10T13:26:35Z</time>
      </trkpt>
      <trkpt lat="45.89057" lon="1.25322">
        <ele>370.7</ele>
        <time>2024-11-10T13:26:37Z</time>
      </trkpt>
      <trkpt lat="45.89059" lon="1.25316">
        <ele>371</ele>
        <time>2024-11-10T13:26:39Z</time>
      </trkpt>
      <trkpt lat="45.89061" lon="1.25311">
        <ele>371.2</ele>
        <time>2024-11-10T13:26:40Z</time>
      </trkpt>
      <trkpt lat="45.89063" lon="1.25305">
        <ele>371.4</ele>
        <time>2024-11-10T13:26:42Z</time>
      </trkpt>
      <trkpt lat="45.89065" lon="1.25301">
        <ele>371.5</ele>
        <time>2024-11-10T13:26:43Z</time>
      </trkpt>
      <trkpt lat="45.89067" lon="1.25298">
        <ele>371.6</ele>
        <time>2024-11-10T13:26:44Z</time>
      </trkpt>
      <trkpt lat="45.8907" lon="1.25296">
        <ele>371.7</ele>
        <time>2024-11-10T13:26:45Z</time>
      </trkpt>
      <trkpt lat="45.89074" lon="1.25292">
        <ele>371.8</ele>
        <time>2024-11-10T13:26:47Z</time>
      </trkpt>
      <trkpt lat="45.89077" lon="1.25288">
        <ele>371.8</ele>
        <time>2024-11-10T13:26:48Z</time>
      </trkpt>
      <trkpt lat="45.8908" lon="1.25284">
        <ele>371.8</ele>
        <time>2024-11-10T13:26:50Z</time>
      </trkpt>
      <trkpt lat="45.89083" lon="1.25281">
        <ele>371.8</ele>
        <time>2024-11-10T13:26:51Z</time>
      </trkpt>
      <trkpt lat="45.89086" lon="1.25278">
        <ele>371.7</ele>
        <time>2024-11-10T13:26:52Z</time>
      </trkpt>
      <trkpt lat="45.89089" lon="1.25274">
        <ele>371.6</ele>
        <time>2024-11-10T13:26:53Z</time>
      </trkpt>
      <trkpt lat="45.89091" lon="1.2527">
        <ele>371.6</ele>
        <time>2024-11-10T13:26:54Z</time>
      </trkpt>
      <trkpt lat="45.89094" lon="1.25265">
        <ele>371.5</ele>
        <time>2024-11-10T13:26:55Z</time>
      </trkpt>
      <trkpt lat="45.89096" lon="1.2526">
        <ele>371.4</ele>
        <time>2024-11-10T13:26:56Z</time>
      </trkpt>
      <trkpt lat="45.89098" lon="1.25255">
        <ele>371.4</ele>
        <time>2024-11-10T13:26:57Z</time>
      </trkpt>
      <trkpt lat="45.891" lon="1.25251">
        <ele>371.3</ele>
        <time>2024-11-10T13:26:58Z</time>
      </trkpt>
      <trkpt lat="45.89103" lon="1.25248">
        <ele>371.3</ele>
        <time>2024-11-10T13:26:59Z</time>
      </trkpt>
      <trkpt lat="45.89105" lon="1.25244">
        <ele>371.3</ele>
        <time>2024-11-10T13:27:00Z</time>
      </trkpt>
      <trkpt lat="45.89108" lon="1.25242">
        <ele>371.3</ele>
        <time>2024-11-10T13:27:01Z</time>
      </trkpt>
      <trkpt lat="45.8911" lon="1.25239">
        <ele>371.3</ele>
        <time>2024-11-10T13:27:02Z</time>
      </trkpt>
      <trkpt lat="45.89113" lon="1.25236">
        <ele>371.4</ele>
        <time>2024-11-10T13:27:04Z</time>
      </trkpt>
      <trkpt lat="45.89117" lon="1.25233">
        <ele>371.4</ele>
        <time>2024-11-10T13:27:06Z</time>
      </trkpt>
      <trkpt lat="45.89122" lon="1.25231">
        <ele>371.5</ele>
        <time>2024-11-10T13:27:08Z</time>
      </trkpt>
      <trkpt lat="45.89126" lon="1.25228">
        <ele>371.5</ele>
        <time>2024-11-10T13:27:10Z</time>
      </trkpt>
      <trkpt lat="45.89129" lon="1.25227">
        <ele>371.6</ele>
        <time>2024-11-10T13:27:11Z</time>
      </trkpt>
      <trkpt lat="45.89133" lon="1.25224">
        <ele>371.6</ele>
        <time>2024-11-10T13:27:13Z</time>
      </trkpt>
      <trkpt lat="45.89136" lon="1.25222">
        <ele>371.7</ele>
        <time>2024-11-10T13:27:14Z</time>
      </trkpt>
      <trkpt lat="45.8914" lon="1.25218">
        <ele>371.7</ele>
        <time>2024-11-10T13:27:16Z</time>
      </trkpt>
      <trkpt lat="45.89143" lon="1.25212">
        <ele>371.6</ele>
        <time>2024-11-10T13:27:18Z</time>
      </trkpt>
      <trkpt lat="45.89146" lon="1.25208">
        <ele>371.5</ele>
        <time>2024-11-10T13:27:19Z</time>
      </trkpt>
      <trkpt lat="45.89149" lon="1.25204">
        <ele>371.3</ele>
        <time>2024-11-10T13:27:20Z</time>
      </trkpt>
      <trkpt lat="45.89151" lon="1.252">
        <ele>371.1</ele>
        <time>2024-11-10T13:27:21Z</time>
      </trkpt>
      <trkpt lat="45.89153" lon="1.25196">
        <ele>370.9</ele>
        <time>2024-11-10T13:27:22Z</time>
      </trkpt>
      <trkpt lat="45.89155" lon="1.25191">
        <ele>370.6</ele>
        <time>2024-11-10T13:27:24Z</time>
      </trkpt>
      <trkpt lat="45.89157" lon="1.25187">
        <ele>370.4</ele>
        <time>2024-11-10T13:27:26Z</time>
      </trkpt>
      <trkpt lat="45.89159" lon="1.25183">
        <ele>370.1</ele>
        <time>2024-11-10T13:27:51Z</time>
      </trkpt>
      <trkpt lat="45.89162" lon="1.25177">
        <ele>369.8</ele>
        <time>2024-11-10T13:27:53Z</time>
      </trkpt>
      <trkpt lat="45.89165" lon="1.25172">
        <ele>369.5</ele>
        <time>2024-11-10T13:27:54Z</time>
      </trkpt>
      <trkpt lat="45.89167" lon="1.25165">
        <ele>369.1</ele>
        <time>2024-11-10T13:27:55Z</time>
      </trkpt>
      <trkpt lat="45.8917" lon="1.25159">
        <ele>368.8</ele>
        <time>2024-11-10T13:27:56Z</time>
      </trkpt>
      <trkpt lat="45.89172" lon="1.25153">
        <ele>368.6</ele>
        <time>2024-11-10T13:27:57Z</time>
      </trkpt>
      <trkpt lat="45.89174" lon="1.25147">
        <ele>368.4</ele>
        <time>2024-11-10T13:27:58Z</time>
      </trkpt>
      <trkpt lat="45.89175" lon="1.25141">
        <ele>368.2</ele>
        <time>2024-11-10T13:27:59Z</time>
      </trkpt>
      <trkpt lat="45.89176" lon="1.25136">
        <ele>368.1</ele>
        <time>2024-11-10T13:28:00Z</time>
      </trkpt>
      <trkpt lat="45.89177" lon="1.25131">
        <ele>368</ele>
        <time>2024-11-10T13:28:01Z</time>
      </trkpt>
      <trkpt lat="45.89179" lon="1.25126">
        <ele>368</ele>
        <time>2024-11-10T13:28:03Z</time>
      </trkpt>
      <trkpt lat="45.89181" lon="1.25122">
        <ele>367.9</ele>
        <time>2024-11-10T13:28:04Z</time>
      </trkpt>
      <trkpt lat="45.89184" lon="1.25121">
        <ele>367.8</ele>
        <time>2024-11-10T13:28:05Z</time>
      </trkpt>
      <trkpt lat="45.89188" lon="1.25121">
        <ele>367.8</ele>
        <time>2024-11-10T13:28:06Z</time>
      </trkpt>
      <trkpt lat="45.89191" lon="1.25121">
        <ele>367.8</ele>
        <time>2024-11-10T13:28:07Z</time>
      </trkpt>
      <trkpt lat="45.89194" lon="1.25122">
        <ele>367.8</ele>
        <time>2024-11-10T13:28:08Z</time>
      </trkpt>
      <trkpt lat="45.89198" lon="1.25124">
        <ele>367.8</ele>
        <time>2024-11-10T13:28:09Z</time>
      </trkpt>
      <trkpt lat="45.89201" lon="1.25126">
        <ele>367.7</ele>
        <time>2024-11-10T13:28:10Z</time>
      </trkpt>
      <trkpt lat="45.89204" lon="1.25128">
        <ele>367.7</ele>
        <time>2024-11-10T13:28:11Z</time>
      </trkpt>
      <trkpt lat="45.89207" lon="1.2513">
        <ele>367.7</ele>
        <time>2024-11-10T13:28:12Z</time>
      </trkpt>
      <trkpt lat="45.8921" lon="1.25133">
        <ele>367.7</ele>
        <time>2024-11-10T13:28:13Z</time>
      </trkpt>
      <trkpt lat="45.89214" lon="1.25136">
        <ele>367.7</ele>
        <time>2024-11-10T13:28:14Z</time>
      </trkpt>
      <trkpt lat="45.89217" lon="1.25139">
        <ele>367.7</ele>
        <time>2024-11-10T13:28:15Z</time>
      </trkpt>
      <trkpt lat="45.89221" lon="1.25142">
        <ele>367.8</ele>
        <time>2024-11-10T13:28:16Z</time>
      </trkpt>
      <trkpt lat="45.89225" lon="1.25145">
        <ele>367.8</ele>
        <time>2024-11-10T13:28:17Z</time>
      </trkpt>
      <trkpt lat="45.89228" lon="1.2515">
        <ele>367.8</ele>
        <time>2024-11-10T13:28:18Z</time>
      </trkpt>
      <trkpt lat="45.89232" lon="1.25155">
        <ele>367.8</ele>
        <time>2024-11-10T13:28:19Z</time>
      </trkpt>
      <trkpt lat="45.89236" lon="1.25158">
        <ele>367.9</ele>
        <time>2024-11-10T13:28:20Z</time>
      </trkpt>
      <trkpt lat="45.89239" lon="1.25162">
        <ele>367.9</ele>
        <time>2024-11-10T13:28:21Z</time>
      </trkpt>
      <trkpt lat="45.89242" lon="1.25166">
        <ele>368</ele>
        <time>2024-11-10T13:28:22Z</time>
      </trkpt>
      <trkpt lat="45.89246" lon="1.2517">
        <ele>368</ele>
        <time>2024-11-10T13:28:23Z</time>
      </trkpt>
      <trkpt lat="45.89249" lon="1.25173">
        <ele>368.1</ele>
        <time>2024-11-10T13:28:24Z</time>
      </trkpt>
      <trkpt lat="45.89253" lon="1.25177">
        <ele>368.1</ele>
        <time>2024-11-10T13:28:25Z</time>
      </trkpt>
      <trkpt lat="45.89257" lon="1.25181">
        <ele>368.2</ele>
        <time>2024-11-10T13:28:26Z</time>
      </trkpt>
      <trkpt lat="45.89261" lon="1.25184">
        <ele>368.2</ele>
        <time>2024-11-10T13:28:27Z</time>
      </trkpt>
      <trkpt lat="45.89265" lon="1.25188">
        <ele>368.3</ele>
        <time>2024-11-10T13:28:28Z</time>
      </trkpt>
      <trkpt lat="45.89269" lon="1.25192">
        <ele>368.4</ele>
        <time>2024-11-10T13:28:29Z</time>
      </trkpt>
      <trkpt lat="45.89273" lon="1.25196">
        <ele>368.5</ele>
        <time>2024-11-10T13:28:30Z</time>
      </trkpt>
      <trkpt lat="45.89277" lon="1.252">
        <ele>368.6</ele>
        <time>2024-11-10T13:28:31Z</time>
      </trkpt>
      <trkpt lat="45.89281" lon="1.25204">
        <ele>368.8</ele>
        <time>2024-11-10T13:28:32Z</time>
      </trkpt>
      <trkpt lat="45.89285" lon="1.25207">
        <ele>368.9</ele>
        <time>2024-11-10T13:28:33Z</time>
      </trkpt>
      <trkpt lat="45.89289" lon="1.2521">
        <ele>369.1</ele>
        <time>2024-11-10T13:28:34Z</time>
      </trkpt>
      <trkpt lat="45.89292" lon="1.25212">
        <ele>369.2</ele>
        <time>2024-11-10T13:28:35Z</time>
      </trkpt>
      <trkpt lat="45.89295" lon="1.25214">
        <ele>369.3</ele>
        <time>2024-11-10T13:28:36Z</time>
      </trkpt>
      <trkpt lat="45.89299" lon="1.25215">
        <ele>369.5</ele>
        <time>2024-11-10T13:28:37Z</time>
      </trkpt>
      <trkpt lat="45.89302" lon="1.25216">
        <ele>369.6</ele>
        <time>2024-11-10T13:28:38Z</time>
      </trkpt>
      <trkpt lat="45.89306" lon="1.25216">
        <ele>369.8</ele>
        <time>2024-11-10T13:28:39Z</time>
      </trkpt>
      <trkpt lat="45.8931" lon="1.25217">
        <ele>370</ele>
        <time>2024-11-10T13:28:40Z</time>
      </trkpt>
      <trkpt lat="45.89313" lon="1.25217">
        <ele>370.1</ele>
        <time>2024-11-10T13:28:41Z</time>
      </trkpt>
      <trkpt lat="45.89317" lon="1.25218">
        <ele>370.3</ele>
        <time>2024-11-10T13:28:42Z</time>
      </trkpt>
      <trkpt lat="45.8932" lon="1.2522">
        <ele>370.5</ele>
        <time>2024-11-10T13:28:43Z</time>
      </trkpt>
      <trkpt lat="45.89323" lon="1.25222">
        <ele>370.7</ele>
        <time>2024-11-10T13:28:44Z</time>
      </trkpt>
      <trkpt lat="45.89327" lon="1.25225">
        <ele>370.9</ele>
        <time>2024-11-10T13:28:45Z</time>
      </trkpt>
      <trkpt lat="45.8933" lon="1.25228">
        <ele>371.1</ele>
        <time>2024-11-10T13:28:46Z</time>
      </trkpt>
      <trkpt lat="45.89332" lon="1.25232">
        <ele>371.2</ele>
        <time>2024-11-10T13:28:47Z</time>
      </trkpt>
      <trkpt lat="45.89336" lon="1.25236">
        <ele>371.4</ele>
        <time>2024-11-10T13:28:48Z</time>
      </trkpt>
      <trkpt lat="45.89339" lon="1.2524">
        <ele>371.6</ele>
        <time>2024-11-10T13:28:49Z</time>
      </trkpt>
      <trkpt lat="45.89342" lon="1.25244">
        <ele>371.7</ele>
        <time>2024-11-10T13:28:50Z</time>
      </trkpt>
      <trkpt lat="45.89345" lon="1.25247">
        <ele>371.9</ele>
        <time>2024-11-10T13:28:51Z</time>
      </trkpt>
      <trkpt lat="45.89348" lon="1.25251">
        <ele>372</ele>
        <time>2024-11-10T13:28:52Z</time>
      </trkpt>
      <trkpt lat="45.89351" lon="1.25254">
        <ele>372.2</ele>
        <time>2024-11-10T13:28:53Z</time>
      </trkpt>
      <trkpt lat="45.89353" lon="1.25257">
        <ele>372.3</ele>
        <time>2024-11-10T13:28:54Z</time>
      </trkpt>
      <trkpt lat="45.89356" lon="1.2526">
        <ele>372.4</ele>
        <time>2024-11-10T13:28:55Z</time>
      </trkpt>
      <trkpt lat="45.89358" lon="1.25263">
        <ele>372.5</ele>
        <time>2024-11-10T13:28:56Z</time>
      </trkpt>
      <trkpt lat="45.8936" lon="1.25266">
        <ele>372.7</ele>
        <time>2024-11-10T13:28:57Z</time>
      </trkpt>
      <trkpt lat="45.89363" lon="1.25269">
        <ele>372.9</ele>
        <time>2024-11-10T13:28:58Z</time>
      </trkpt>
      <trkpt lat="45.89365" lon="1.25272">
        <ele>373</ele>
        <time>2024-11-10T13:28:59Z</time>
      </trkpt>
      <trkpt lat="45.89368" lon="1.25275">
        <ele>373.2</ele>
        <time>2024-11-10T13:29:01Z</time>
      </trkpt>
      <trkpt lat="45.89372" lon="1.25279">
        <ele>373.5</ele>
        <time>2024-11-10T13:29:03Z</time>
      </trkpt>
      <trkpt lat="45.89376" lon="1.25283">
        <ele>373.8</ele>
        <time>2024-11-10T13:29:05Z</time>
      </trkpt>
      <trkpt lat="45.89379" lon="1.25286">
        <ele>374</ele>
        <time>2024-11-10T13:29:06Z</time>
      </trkpt>
      <trkpt lat="45.89381" lon="1.25289">
        <ele>374.1</ele>
        <time>2024-11-10T13:29:07Z</time>
      </trkpt>
      <trkpt lat="45.89384" lon="1.25292">
        <ele>374.3</ele>
        <time>2024-11-10T13:29:08Z</time>
      </trkpt>
      <trkpt lat="45.89386" lon="1.25295">
        <ele>374.5</ele>
        <time>2024-11-10T13:29:09Z</time>
      </trkpt>
      <trkpt lat="45.89388" lon="1.25298">
        <ele>374.7</ele>
        <time>2024-11-10T13:29:10Z</time>
      </trkpt>
      <trkpt lat="45.8939" lon="1.25301">
        <ele>374.8</ele>
        <time>2024-11-10T13:29:11Z</time>
      </trkpt>
      <trkpt lat="45.89393" lon="1.25304">
        <ele>375</ele>
        <time>2024-11-10T13:29:12Z</time>
      </trkpt>
      <trkpt lat="45.89395" lon="1.25307">
        <ele>375.2</ele>
        <time>2024-11-10T13:29:13Z</time>
      </trkpt>
      <trkpt lat="45.89397" lon="1.2531">
        <ele>375.4</ele>
        <time>2024-11-10T13:29:14Z</time>
      </trkpt>
      <trkpt lat="45.894" lon="1.25314">
        <ele>375.6</ele>
        <time>2024-11-10T13:29:16Z</time>
      </trkpt>
      <trkpt lat="45.89403" lon="1.25317">
        <ele>375.8</ele>
        <time>2024-11-10T13:29:17Z</time>
      </trkpt>
      <trkpt lat="45.89405" lon="1.2532">
        <ele>376</ele>
        <time>2024-11-10T13:29:18Z</time>
      </trkpt>
      <trkpt lat="45.89408" lon="1.25324">
        <ele>376.2</ele>
        <time>2024-11-10T13:29:19Z</time>
      </trkpt>
      <trkpt lat="45.8941" lon="1.25327">
        <ele>376.4</ele>
        <time>2024-11-10T13:29:20Z</time>
      </trkpt>
      <trkpt lat="45.89412" lon="1.2533">
        <ele>376.6</ele>
        <time>2024-11-10T13:29:21Z</time>
      </trkpt>
      <trkpt lat="45.89414" lon="1.25333">
        <ele>376.7</ele>
        <time>2024-11-10T13:29:22Z</time>
      </trkpt>
      <trkpt lat="45.89416" lon="1.25336">
        <ele>376.9</ele>
        <time>2024-11-10T13:29:23Z</time>
      </trkpt>
      <trkpt lat="45.89418" lon="1.25339">
        <ele>377.1</ele>
        <time>2024-11-10T13:29:24Z</time>
      </trkpt>
      <trkpt lat="45.89421" lon="1.25344">
        <ele>377.5</ele>
        <time>2024-11-10T13:29:26Z</time>
      </trkpt>
      <trkpt lat="45.89425" lon="1.25348">
        <ele>377.9</ele>
        <time>2024-11-10T13:29:28Z</time>
      </trkpt>
      <trkpt lat="45.89428" lon="1.2535">
        <ele>378.1</ele>
        <time>2024-11-10T13:29:29Z</time>
      </trkpt>
      <trkpt lat="45.89431" lon="1.25352">
        <ele>378.4</ele>
        <time>2024-11-10T13:29:30Z</time>
      </trkpt>
      <trkpt lat="45.89434" lon="1.25354">
        <ele>378.6</ele>
        <time>2024-11-10T13:29:31Z</time>
      </trkpt>
      <trkpt lat="45.89437" lon="1.25356">
        <ele>378.9</ele>
        <time>2024-11-10T13:29:32Z</time>
      </trkpt>
      <trkpt lat="45.8944" lon="1.25359">
        <ele>379.2</ele>
        <time>2024-11-10T13:29:33Z</time>
      </trkpt>
      <trkpt lat="45.89443" lon="1.25361">
        <ele>379.4</ele>
        <time>2024-11-10T13:29:34Z</time>
      </trkpt>
      <trkpt lat="45.89445" lon="1.25363">
        <ele>379.6</ele>
        <time>2024-11-10T13:29:35Z</time>
      </trkpt>
      <trkpt lat="45.89448" lon="1.25365">
        <ele>379.8</ele>
        <time>2024-11-10T13:29:36Z</time>
      </trkpt>
      <trkpt lat="45.8945" lon="1.25368">
        <ele>380</ele>
        <time>2024-11-10T13:29:37Z</time>
      </trkpt>
      <trkpt lat="45.89453" lon="1.25371">
        <ele>380.3</ele>
        <time>2024-11-10T13:29:38Z</time>
      </trkpt>
      <trkpt lat="45.89456" lon="1.25374">
        <ele>380.6</ele>
        <time>2024-11-10T13:29:39Z</time>
      </trkpt>
      <trkpt lat="45.89458" lon="1.25377">
        <ele>380.8</ele>
        <time>2024-11-10T13:29:40Z</time>
      </trkpt>
      <trkpt lat="45.89461" lon="1.2538">
        <ele>381.1</ele>
        <time>2024-11-10T13:29:41Z</time>
      </trkpt>
      <trkpt lat="45.89464" lon="1.25383">
        <ele>381.3</ele>
        <time>2024-11-10T13:29:42Z</time>
      </trkpt>
      <trkpt lat="45.89467" lon="1.25386">
        <ele>381.6</ele>
        <time>2024-11-10T13:29:43Z</time>
      </trkpt>
      <trkpt lat="45.89469" lon="1.25388">
        <ele>381.8</ele>
        <time>2024-11-10T13:29:44Z</time>
      </trkpt>
      <trkpt lat="45.89473" lon="1.25392">
        <ele>382.2</ele>
        <time>2024-11-10T13:29:46Z</time>
      </trkpt>
      <trkpt lat="45.89477" lon="1.25394">
        <ele>382.6</ele>
        <time>2024-11-10T13:29:48Z</time>
      </trkpt>
      <trkpt lat="45.89482" lon="1.25398">
        <ele>383</ele>
        <time>2024-11-10T13:29:50Z</time>
      </trkpt>
      <trkpt lat="45.89485" lon="1.254">
        <ele>383.3</ele>
        <time>2024-11-10T13:29:51Z</time>
      </trkpt>
      <trkpt lat="45.89488" lon="1.25403">
        <ele>383.6</ele>
        <time>2024-11-10T13:29:52Z</time>
      </trkpt>
      <trkpt lat="45.8949" lon="1.25406">
        <ele>383.8</ele>
        <time>2024-11-10T13:29:53Z</time>
      </trkpt>
      <trkpt lat="45.89492" lon="1.25409">
        <ele>384.1</ele>
        <time>2024-11-10T13:29:54Z</time>
      </trkpt>
      <trkpt lat="45.89496" lon="1.25412">
        <ele>384.4</ele>
        <time>2024-11-10T13:29:56Z</time>
      </trkpt>
      <trkpt lat="45.89499" lon="1.25415">
        <ele>384.7</ele>
        <time>2024-11-10T13:29:57Z</time>
      </trkpt>
      <trkpt lat="45.89502" lon="1.25417">
        <ele>384.9</ele>
        <time>2024-11-10T13:29:58Z</time>
      </trkpt>
      <trkpt lat="45.89505" lon="1.2542">
        <ele>385.2</ele>
        <time>2024-11-10T13:30:00Z</time>
      </trkpt>
      <trkpt lat="45.8951" lon="1.25424">
        <ele>385.6</ele>
        <time>2024-11-10T13:30:02Z</time>
      </trkpt>
      <trkpt lat="45.89513" lon="1.25427">
        <ele>385.8</ele>
        <time>2024-11-10T13:30:03Z</time>
      </trkpt>
      <trkpt lat="45.89516" lon="1.2543">
        <ele>386</ele>
        <time>2024-11-10T13:30:04Z</time>
      </trkpt>
      <trkpt lat="45.89519" lon="1.25432">
        <ele>386.1</ele>
        <time>2024-11-10T13:30:05Z</time>
      </trkpt>
      <trkpt lat="45.89521" lon="1.25435">
        <ele>386.3</ele>
        <time>2024-11-10T13:30:06Z</time>
      </trkpt>
      <trkpt lat="45.89524" lon="1.25436">
        <ele>386.4</ele>
        <time>2024-11-10T13:30:07Z</time>
      </trkpt>
      <trkpt lat="45.89527" lon="1.25438">
        <ele>386.5</ele>
        <time>2024-11-10T13:30:08Z</time>
      </trkpt>
      <trkpt lat="45.89529" lon="1.2544">
        <ele>386.6</ele>
        <time>2024-11-10T13:30:09Z</time>
      </trkpt>
      <trkpt lat="45.89532" lon="1.25441">
        <ele>386.7</ele>
        <time>2024-11-10T13:30:10Z</time>
      </trkpt>
      <trkpt lat="45.89534" lon="1.25443">
        <ele>386.8</ele>
        <time>2024-11-10T13:30:11Z</time>
      </trkpt>
      <trkpt lat="45.89536" lon="1.25446">
        <ele>386.9</ele>
        <time>2024-11-10T13:30:12Z</time>
      </trkpt>
      <trkpt lat="45.89539" lon="1.25448">
        <ele>387</ele>
        <time>2024-11-10T13:30:13Z</time>
      </trkpt>
      <trkpt lat="45.89541" lon="1.2545">
        <ele>387.1</ele>
        <time>2024-11-10T13:30:14Z</time>
      </trkpt>
      <trkpt lat="45.89544" lon="1.25452">
        <ele>387.2</ele>
        <time>2024-11-10T13:30:15Z</time>
      </trkpt>
      <trkpt lat="45.89546" lon="1.25455">
        <ele>387.3</ele>
        <time>2024-11-10T13:30:16Z</time>
      </trkpt>
      <trkpt lat="45.89549" lon="1.25457">
        <ele>387.3</ele>
        <time>2024-11-10T13:30:17Z</time>
      </trkpt>
      <trkpt lat="45.89551" lon="1.25459">
        <ele>387.4</ele>
        <time>2024-11-10T13:30:18Z</time>
      </trkpt>
      <trkpt lat="45.89554" lon="1.25461">
        <ele>387.4</ele>
        <time>2024-11-10T13:30:19Z</time>
      </trkpt>
      <trkpt lat="45.89557" lon="1.25464">
        <ele>387.5</ele>
        <time>2024-11-10T13:30:20Z</time>
      </trkpt>
      <trkpt lat="45.89561" lon="1.25467">
        <ele>387.5</ele>
        <time>2024-11-10T13:30:22Z</time>
      </trkpt>
      <trkpt lat="45.89564" lon="1.2547">
        <ele>387.6</ele>
        <time>2024-11-10T13:30:23Z</time>
      </trkpt>
      <trkpt lat="45.89567" lon="1.25472">
        <ele>387.6</ele>
        <time>2024-11-10T13:30:24Z</time>
      </trkpt>
      <trkpt lat="45.89569" lon="1.25475">
        <ele>387.6</ele>
        <time>2024-11-10T13:30:25Z</time>
      </trkpt>
      <trkpt lat="45.89572" lon="1.25478">
        <ele>387.6</ele>
        <time>2024-11-10T13:30:26Z</time>
      </trkpt>
      <trkpt lat="45.89575" lon="1.2548">
        <ele>387.6</ele>
        <time>2024-11-10T13:30:27Z</time>
      </trkpt>
      <trkpt lat="45.89578" lon="1.25483">
        <ele>387.6</ele>
        <time>2024-11-10T13:30:28Z</time>
      </trkpt>
      <trkpt lat="45.89581" lon="1.25485">
        <ele>387.7</ele>
        <time>2024-11-10T13:30:29Z</time>
      </trkpt>
      <trkpt lat="45.89583" lon="1.25488">
        <ele>387.7</ele>
        <time>2024-11-10T13:30:30Z</time>
      </trkpt>
      <trkpt lat="45.89586" lon="1.2549">
        <ele>387.7</ele>
        <time>2024-11-10T13:30:31Z</time>
      </trkpt>
      <trkpt lat="45.89589" lon="1.25492">
        <ele>387.7</ele>
        <time>2024-11-10T13:30:32Z</time>
      </trkpt>
      <trkpt lat="45.89592" lon="1.25495">
        <ele>387.7</ele>
        <time>2024-11-10T13:30:33Z</time>
      </trkpt>
      <trkpt lat="45.89595" lon="1.25497">
        <ele>387.7</ele>
        <time>2024-11-10T13:30:34Z</time>
      </trkpt>
      <trkpt lat="45.89599" lon="1.255">
        <ele>387.6</ele>
        <time>2024-11-10T13:30:36Z</time>
      </trkpt>
      <trkpt lat="45.89602" lon="1.25503">
        <ele>387.6</ele>
        <time>2024-11-10T13:30:37Z</time>
      </trkpt>
      <trkpt lat="45.89606" lon="1.25505">
        <ele>387.6</ele>
        <time>2024-11-10T13:30:38Z</time>
      </trkpt>
      <trkpt lat="45.89608" lon="1.25508">
        <ele>387.5</ele>
        <time>2024-11-10T13:30:39Z</time>
      </trkpt>
      <trkpt lat="45.89611" lon="1.2551">
        <ele>387.5</ele>
        <time>2024-11-10T13:30:40Z</time>
      </trkpt>
      <trkpt lat="45.89614" lon="1.25512">
        <ele>387.4</ele>
        <time>2024-11-10T13:30:41Z</time>
      </trkpt>
      <trkpt lat="45.89616" lon="1.25514">
        <ele>387.4</ele>
        <time>2024-11-10T13:30:42Z</time>
      </trkpt>
      <trkpt lat="45.89619" lon="1.25517">
        <ele>387.3</ele>
        <time>2024-11-10T13:30:43Z</time>
      </trkpt>
      <trkpt lat="45.89622" lon="1.25519">
        <ele>387.3</ele>
        <time>2024-11-10T13:30:44Z</time>
      </trkpt>
      <trkpt lat="45.89624" lon="1.2552">
        <ele>387.3</ele>
        <time>2024-11-10T13:30:45Z</time>
      </trkpt>
      <trkpt lat="45.89627" lon="1.25522">
        <ele>387.2</ele>
        <time>2024-11-10T13:30:46Z</time>
      </trkpt>
      <trkpt lat="45.8963" lon="1.25524">
        <ele>387.2</ele>
        <time>2024-11-10T13:30:47Z</time>
      </trkpt>
      <trkpt lat="45.89632" lon="1.25527">
        <ele>387.1</ele>
        <time>2024-11-10T13:30:48Z</time>
      </trkpt>
      <trkpt lat="45.89635" lon="1.25529">
        <ele>387.1</ele>
        <time>2024-11-10T13:30:49Z</time>
      </trkpt>
      <trkpt lat="45.89637" lon="1.25531">
        <ele>387</ele>
        <time>2024-11-10T13:30:50Z</time>
      </trkpt>
      <trkpt lat="45.8964" lon="1.25533">
        <ele>387</ele>
        <time>2024-11-10T13:30:51Z</time>
      </trkpt>
      <trkpt lat="45.89643" lon="1.25535">
        <ele>386.9</ele>
        <time>2024-11-10T13:30:52Z</time>
      </trkpt>
      <trkpt lat="45.89646" lon="1.25537">
        <ele>386.9</ele>
        <time>2024-11-10T13:30:53Z</time>
      </trkpt>
      <trkpt lat="45.89649" lon="1.2554">
        <ele>386.8</ele>
        <time>2024-11-10T13:30:54Z</time>
      </trkpt>
      <trkpt lat="45.89652" lon="1.25543">
        <ele>386.7</ele>
        <time>2024-11-10T13:30:55Z</time>
      </trkpt>
      <trkpt lat="45.89655" lon="1.25545">
        <ele>386.7</ele>
        <time>2024-11-10T13:30:56Z</time>
      </trkpt>
      <trkpt lat="45.89658" lon="1.25547">
        <ele>386.6</ele>
        <time>2024-11-10T13:30:57Z</time>
      </trkpt>
      <trkpt lat="45.8966" lon="1.25549">
        <ele>386.6</ele>
        <time>2024-11-10T13:30:58Z</time>
      </trkpt>
      <trkpt lat="45.89663" lon="1.25551">
        <ele>386.5</ele>
        <time>2024-11-10T13:30:59Z</time>
      </trkpt>
      <trkpt lat="45.89665" lon="1.25553">
        <ele>386.5</ele>
        <time>2024-11-10T13:31:00Z</time>
      </trkpt>
      <trkpt lat="45.89669" lon="1.25556">
        <ele>386.5</ele>
        <time>2024-11-10T13:31:02Z</time>
      </trkpt>
      <trkpt lat="45.89672" lon="1.25559">
        <ele>386.4</ele>
        <time>2024-11-10T13:31:03Z</time>
      </trkpt>
      <trkpt lat="45.89675" lon="1.25561">
        <ele>386.4</ele>
        <time>2024-11-10T13:31:04Z</time>
      </trkpt>
      <trkpt lat="45.89677" lon="1.25563">
        <ele>386.3</ele>
        <time>2024-11-10T13:31:05Z</time>
      </trkpt>
      <trkpt lat="45.89681" lon="1.25565">
        <ele>386.3</ele>
        <time>2024-11-10T13:31:07Z</time>
      </trkpt>
      <trkpt lat="45.89684" lon="1.25567">
        <ele>386.3</ele>
        <time>2024-11-10T13:31:08Z</time>
      </trkpt>
      <trkpt lat="45.89687" lon="1.2557">
        <ele>386.2</ele>
        <time>2024-11-10T13:31:09Z</time>
      </trkpt>
      <trkpt lat="45.8969" lon="1.25572">
        <ele>386.2</ele>
        <time>2024-11-10T13:31:10Z</time>
      </trkpt>
      <trkpt lat="45.89693" lon="1.25573">
        <ele>386.2</ele>
        <time>2024-11-10T13:31:11Z</time>
      </trkpt>
      <trkpt lat="45.89696" lon="1.25575">
        <ele>386.1</ele>
        <time>2024-11-10T13:31:12Z</time>
      </trkpt>
      <trkpt lat="45.89698" lon="1.25577">
        <ele>386.1</ele>
        <time>2024-11-10T13:31:13Z</time>
      </trkpt>
      <trkpt lat="45.89701" lon="1.25578">
        <ele>386.1</ele>
        <time>2024-11-10T13:31:14Z</time>
      </trkpt>
      <trkpt lat="45.89704" lon="1.25579">
        <ele>386</ele>
        <time>2024-11-10T13:31:15Z</time>
      </trkpt>
      <trkpt lat="45.89707" lon="1.25579">
        <ele>386</ele>
        <time>2024-11-10T13:31:16Z</time>
      </trkpt>
      <trkpt lat="45.89711" lon="1.2558">
        <ele>385.9</ele>
        <time>2024-11-10T13:31:18Z</time>
      </trkpt>
      <trkpt lat="45.89715" lon="1.25579">
        <ele>385.8</ele>
        <time>2024-11-10T13:31:20Z</time>
      </trkpt>
      <trkpt lat="45.89719" lon="1.25578">
        <ele>385.7</ele>
        <time>2024-11-10T13:31:22Z</time>
      </trkpt>
      <trkpt lat="45.89722" lon="1.25576">
        <ele>385.5</ele>
        <time>2024-11-10T13:31:23Z</time>
      </trkpt>
      <trkpt lat="45.89725" lon="1.25574">
        <ele>385.4</ele>
        <time>2024-11-10T13:31:24Z</time>
      </trkpt>
      <trkpt lat="45.89728" lon="1.25572">
        <ele>385.3</ele>
        <time>2024-11-10T13:31:25Z</time>
      </trkpt>
      <trkpt lat="45.89731" lon="1.2557">
        <ele>385.2</ele>
        <time>2024-11-10T13:31:26Z</time>
      </trkpt>
      <trkpt lat="45.89734" lon="1.25568">
        <ele>385.1</ele>
        <time>2024-11-10T13:31:27Z</time>
      </trkpt>
      <trkpt lat="45.89738" lon="1.25565">
        <ele>384.9</ele>
        <time>2024-11-10T13:31:28Z</time>
      </trkpt>
      <trkpt lat="45.89741" lon="1.25562">
        <ele>384.8</ele>
        <time>2024-11-10T13:31:29Z</time>
      </trkpt>
      <trkpt lat="45.89745" lon="1.2556">
        <ele>384.6</ele>
        <time>2024-11-10T13:31:30Z</time>
      </trkpt>
      <trkpt lat="45.89749" lon="1.25557">
        <ele>384.4</ele>
        <time>2024-11-10T13:31:31Z</time>
      </trkpt>
      <trkpt lat="45.89753" lon="1.25554">
        <ele>384.2</ele>
        <time>2024-11-10T13:31:32Z</time>
      </trkpt>
      <trkpt lat="45.89757" lon="1.25552">
        <ele>384.1</ele>
        <time>2024-11-10T13:31:33Z</time>
      </trkpt>
      <trkpt lat="45.89761" lon="1.25549">
        <ele>383.9</ele>
        <time>2024-11-10T13:31:34Z</time>
      </trkpt>
      <trkpt lat="45.89765" lon="1.25547">
        <ele>383.7</ele>
        <time>2024-11-10T13:31:35Z</time>
      </trkpt>
      <trkpt lat="45.89769" lon="1.25545">
        <ele>383.6</ele>
        <time>2024-11-10T13:31:36Z</time>
      </trkpt>
      <trkpt lat="45.89773" lon="1.25543">
        <ele>383.4</ele>
        <time>2024-11-10T13:31:37Z</time>
      </trkpt>
      <trkpt lat="45.89778" lon="1.25541">
        <ele>383.3</ele>
        <time>2024-11-10T13:31:38Z</time>
      </trkpt>
      <trkpt lat="45.89783" lon="1.25539">
        <ele>383.1</ele>
        <time>2024-11-10T13:31:39Z</time>
      </trkpt>
      <trkpt lat="45.89788" lon="1.25537">
        <ele>383</ele>
        <time>2024-11-10T13:31:40Z</time>
      </trkpt>
      <trkpt lat="45.89792" lon="1.25534">
        <ele>382.9</ele>
        <time>2024-11-10T13:31:41Z</time>
      </trkpt>
      <trkpt lat="45.89797" lon="1.25531">
        <ele>382.8</ele>
        <time>2024-11-10T13:31:42Z</time>
      </trkpt>
      <trkpt lat="45.89801" lon="1.25529">
        <ele>382.7</ele>
        <time>2024-11-10T13:31:43Z</time>
      </trkpt>
      <trkpt lat="45.89805" lon="1.25526">
        <ele>382.6</ele>
        <time>2024-11-10T13:31:44Z</time>
      </trkpt>
      <trkpt lat="45.89809" lon="1.25523">
        <ele>382.5</ele>
        <time>2024-11-10T13:31:45Z</time>
      </trkpt>
      <trkpt lat="45.89813" lon="1.25521">
        <ele>382.5</ele>
        <time>2024-11-10T13:31:46Z</time>
      </trkpt>
      <trkpt lat="45.89816" lon="1.25519">
        <ele>382.4</ele>
        <time>2024-11-10T13:31:47Z</time>
      </trkpt>
      <trkpt lat="45.8982" lon="1.25516">
        <ele>382.3</ele>
        <time>2024-11-10T13:31:48Z</time>
      </trkpt>
      <trkpt lat="45.89823" lon="1.25513">
        <ele>382.3</ele>
        <time>2024-11-10T13:31:49Z</time>
      </trkpt>
      <trkpt lat="45.89826" lon="1.25511">
        <ele>382.2</ele>
        <time>2024-11-10T13:31:50Z</time>
      </trkpt>
      <trkpt lat="45.89829" lon="1.25508">
        <ele>382.2</ele>
        <time>2024-11-10T13:31:51Z</time>
      </trkpt>
      <trkpt lat="45.89832" lon="1.25506">
        <ele>382.1</ele>
        <time>2024-11-10T13:31:52Z</time>
      </trkpt>
      <trkpt lat="45.89836" lon="1.25504">
        <ele>382.1</ele>
        <time>2024-11-10T13:31:53Z</time>
      </trkpt>
      <trkpt lat="45.89839" lon="1.25502">
        <ele>382.1</ele>
        <time>2024-11-10T13:31:54Z</time>
      </trkpt>
      <trkpt lat="45.89842" lon="1.25499">
        <ele>382</ele>
        <time>2024-11-10T13:31:55Z</time>
      </trkpt>
      <trkpt lat="45.89845" lon="1.25497">
        <ele>382</ele>
        <time>2024-11-10T13:31:56Z</time>
      </trkpt>
      <trkpt lat="45.89849" lon="1.25494">
        <ele>382</ele>
        <time>2024-11-10T13:31:57Z</time>
      </trkpt>
      <trkpt lat="45.89852" lon="1.25492">
        <ele>382</ele>
        <time>2024-11-10T13:31:58Z</time>
      </trkpt>
      <trkpt lat="45.89855" lon="1.25489">
        <ele>382</ele>
        <time>2024-11-10T13:31:59Z</time>
      </trkpt>
      <trkpt lat="45.89859" lon="1.25487">
        <ele>381.9</ele>
        <time>2024-11-10T13:32:00Z</time>
      </trkpt>
      <trkpt lat="45.89862" lon="1.25485">
        <ele>381.9</ele>
        <time>2024-11-10T13:32:01Z</time>
      </trkpt>
      <trkpt lat="45.89865" lon="1.25482">
        <ele>381.9</ele>
        <time>2024-11-10T13:32:02Z</time>
      </trkpt>
      <trkpt lat="45.89868" lon="1.2548">
        <ele>381.9</ele>
        <time>2024-11-10T13:32:03Z</time>
      </trkpt>
      <trkpt lat="45.89871" lon="1.25478">
        <ele>381.9</ele>
        <time>2024-11-10T13:32:04Z</time>
      </trkpt>
      <trkpt lat="45.89874" lon="1.25475">
        <ele>381.9</ele>
        <time>2024-11-10T13:32:05Z</time>
      </trkpt>
      <trkpt lat="45.89877" lon="1.25473">
        <ele>381.8</ele>
        <time>2024-11-10T13:32:06Z</time>
      </trkpt>
      <trkpt lat="45.89879" lon="1.2547">
        <ele>381.8</ele>
        <time>2024-11-10T13:32:07Z</time>
      </trkpt>
      <trkpt lat="45.89882" lon="1.25468">
        <ele>381.8</ele>
        <time>2024-11-10T13:32:08Z</time>
      </trkpt>
      <trkpt lat="45.89885" lon="1.25465">
        <ele>381.8</ele>
        <time>2024-11-10T13:32:09Z</time>
      </trkpt>
      <trkpt lat="45.89889" lon="1.25462">
        <ele>381.8</ele>
        <time>2024-11-10T13:32:10Z</time>
      </trkpt>
      <trkpt lat="45.89892" lon="1.2546">
        <ele>381.8</ele>
        <time>2024-11-10T13:32:11Z</time>
      </trkpt>
      <trkpt lat="45.89895" lon="1.25457">
        <ele>381.8</ele>
        <time>2024-11-10T13:32:12Z</time>
      </trkpt>
      <trkpt lat="45.89898" lon="1.25454">
        <ele>381.8</ele>
        <time>2024-11-10T13:32:13Z</time>
      </trkpt>
      <trkpt lat="45.89901" lon="1.25451">
        <ele>381.8</ele>
        <time>2024-11-10T13:32:14Z</time>
      </trkpt>
      <trkpt lat="45.89905" lon="1.25448">
        <ele>381.8</ele>
        <time>2024-11-10T13:32:15Z</time>
      </trkpt>
      <trkpt lat="45.89908" lon="1.25446">
        <ele>381.8</ele>
        <time>2024-11-10T13:32:16Z</time>
      </trkpt>
      <trkpt lat="45.89911" lon="1.25443">
        <ele>381.9</ele>
        <time>2024-11-10T13:32:17Z</time>
      </trkpt>
      <trkpt lat="45.89914" lon="1.2544">
        <ele>381.9</ele>
        <time>2024-11-10T13:32:18Z</time>
      </trkpt>
      <trkpt lat="45.89918" lon="1.25437">
        <ele>382</ele>
        <time>2024-11-10T13:32:19Z</time>
      </trkpt>
      <trkpt lat="45.89921" lon="1.25434">
        <ele>382</ele>
        <time>2024-11-10T13:32:20Z</time>
      </trkpt>
      <trkpt lat="45.89925" lon="1.25431">
        <ele>382.1</ele>
        <time>2024-11-10T13:32:21Z</time>
      </trkpt>
      <trkpt lat="45.89928" lon="1.25429">
        <ele>382.2</ele>
        <time>2024-11-10T13:32:22Z</time>
      </trkpt>
      <trkpt lat="45.89931" lon="1.25426">
        <ele>382.3</ele>
        <time>2024-11-10T13:32:23Z</time>
      </trkpt>
      <trkpt lat="45.89934" lon="1.25423">
        <ele>382.4</ele>
        <time>2024-11-10T13:32:24Z</time>
      </trkpt>
      <trkpt lat="45.89937" lon="1.2542">
        <ele>382.5</ele>
        <time>2024-11-10T13:32:25Z</time>
      </trkpt>
      <trkpt lat="45.89941" lon="1.25418">
        <ele>382.7</ele>
        <time>2024-11-10T13:32:26Z</time>
      </trkpt>
      <trkpt lat="45.89944" lon="1.25415">
        <ele>382.8</ele>
        <time>2024-11-10T13:32:27Z</time>
      </trkpt>
      <trkpt lat="45.89947" lon="1.25412">
        <ele>382.9</ele>
        <time>2024-11-10T13:32:28Z</time>
      </trkpt>
      <trkpt lat="45.8995" lon="1.2541">
        <ele>383</ele>
        <time>2024-11-10T13:32:29Z</time>
      </trkpt>
      <trkpt lat="45.89953" lon="1.25408">
        <ele>383.2</ele>
        <time>2024-11-10T13:32:30Z</time>
      </trkpt>
      <trkpt lat="45.89957" lon="1.25407">
        <ele>383.3</ele>
        <time>2024-11-10T13:32:32Z</time>
      </trkpt>
      <trkpt lat="45.89959" lon="1.25409">
        <ele>383.4</ele>
        <time>2024-11-10T13:32:33Z</time>
      </trkpt>
      <trkpt lat="45.8996" lon="1.25412">
        <ele>383.5</ele>
        <time>2024-11-10T13:32:34Z</time>
      </trkpt>
      <trkpt lat="45.89959" lon="1.25418">
        <ele>382.8</ele>
        <time>2024-11-10T13:32:36Z</time>
      </trkpt>
      <trkpt lat="45.89958" lon="1.25424">
        <ele>382.6</ele>
        <time>2024-11-10T13:32:37Z</time>
      </trkpt>
      <trkpt lat="45.89956" lon="1.25429">
        <ele>382.4</ele>
        <time>2024-11-10T13:32:38Z</time>
      </trkpt>
      <trkpt lat="45.89954" lon="1.25434">
        <ele>382.1</ele>
        <time>2024-11-10T13:32:39Z</time>
      </trkpt>
      <trkpt lat="45.89952" lon="1.25439">
        <ele>381.9</ele>
        <time>2024-11-10T13:32:40Z</time>
      </trkpt>
      <trkpt lat="45.8995" lon="1.25445">
        <ele>381.7</ele>
        <time>2024-11-10T13:32:41Z</time>
      </trkpt>
      <trkpt lat="45.89947" lon="1.25451">
        <ele>381.4</ele>
        <time>2024-11-10T13:32:42Z</time>
      </trkpt>
      <trkpt lat="45.89944" lon="1.25456">
        <ele>381.2</ele>
        <time>2024-11-10T13:32:43Z</time>
      </trkpt>
      <trkpt lat="45.89942" lon="1.25462">
        <ele>381</ele>
        <time>2024-11-10T13:32:44Z</time>
      </trkpt>
      <trkpt lat="45.8994" lon="1.25469">
        <ele>380.7</ele>
        <time>2024-11-10T13:32:45Z</time>
      </trkpt>
      <trkpt lat="45.89938" lon="1.25476">
        <ele>380.5</ele>
        <time>2024-11-10T13:32:46Z</time>
      </trkpt>
      <trkpt lat="45.89936" lon="1.25482">
        <ele>380.3</ele>
        <time>2024-11-10T13:32:47Z</time>
      </trkpt>
      <trkpt lat="45.89933" lon="1.2549">
        <ele>380.1</ele>
        <time>2024-11-10T13:32:48Z</time>
      </trkpt>
      <trkpt lat="45.89931" lon="1.25497">
        <ele>379.8</ele>
        <time>2024-11-10T13:32:49Z</time>
      </trkpt>
      <trkpt lat="45.89928" lon="1.25505">
        <ele>379.6</ele>
        <time>2024-11-10T13:32:50Z</time>
      </trkpt>
      <trkpt lat="45.89926" lon="1.25512">
        <ele>379.4</ele>
        <time>2024-11-10T13:32:51Z</time>
      </trkpt>
      <trkpt lat="45.89924" lon="1.25521">
        <ele>379.1</ele>
        <time>2024-11-10T13:32:52Z</time>
      </trkpt>
      <trkpt lat="45.89921" lon="1.25528">
        <ele>378.9</ele>
        <time>2024-11-10T13:32:53Z</time>
      </trkpt>
      <trkpt lat="45.89919" lon="1.25537">
        <ele>378.7</ele>
        <time>2024-11-10T13:32:54Z</time>
      </trkpt>
      <trkpt lat="45.89916" lon="1.25545">
        <ele>378.6</ele>
        <time>2024-11-10T13:32:55Z</time>
      </trkpt>
      <trkpt lat="45.89914" lon="1.25553">
        <ele>378.5</ele>
        <time>2024-11-10T13:32:56Z</time>
      </trkpt>
      <trkpt lat="45.89911" lon="1.25561">
        <ele>378.4</ele>
        <time>2024-11-10T13:32:57Z</time>
      </trkpt>
      <trkpt lat="45.89908" lon="1.2557">
        <ele>378.3</ele>
        <time>2024-11-10T13:32:58Z</time>
      </trkpt>
      <trkpt lat="45.89906" lon="1.25578">
        <ele>378.2</ele>
        <time>2024-11-10T13:32:59Z</time>
      </trkpt>
      <trkpt lat="45.89903" lon="1.25586">
        <ele>378.1</ele>
        <time>2024-11-10T13:33:00Z</time>
      </trkpt>
      <trkpt lat="45.89901" lon="1.25594">
        <ele>378</ele>
        <time>2024-11-10T13:33:01Z</time>
      </trkpt>
      <trkpt lat="45.89898" lon="1.25602">
        <ele>378</ele>
        <time>2024-11-10T13:33:02Z</time>
      </trkpt>
      <trkpt lat="45.89896" lon="1.2561">
        <ele>378</ele>
        <time>2024-11-10T13:33:03Z</time>
      </trkpt>
      <trkpt lat="45.89894" lon="1.25619">
        <ele>378</ele>
        <time>2024-11-10T13:33:04Z</time>
      </trkpt>
      <trkpt lat="45.89892" lon="1.25627">
        <ele>378</ele>
        <time>2024-11-10T13:33:05Z</time>
      </trkpt>
      <trkpt lat="45.89891" lon="1.25635">
        <ele>378.1</ele>
        <time>2024-11-10T13:33:06Z</time>
      </trkpt>
      <trkpt lat="45.8989" lon="1.25643">
        <ele>378.3</ele>
        <time>2024-11-10T13:33:07Z</time>
      </trkpt>
      <trkpt lat="45.8989" lon="1.2565">
        <ele>378.4</ele>
        <time>2024-11-10T13:33:08Z</time>
      </trkpt>
      <trkpt lat="45.8989" lon="1.25658">
        <ele>378.6</ele>
        <time>2024-11-10T13:33:09Z</time>
      </trkpt>
      <trkpt lat="45.89892" lon="1.25665">
        <ele>378.7</ele>
        <time>2024-11-10T13:33:10Z</time>
      </trkpt>
      <trkpt lat="45.89894" lon="1.25671">
        <ele>378.7</ele>
        <time>2024-11-10T13:33:11Z</time>
      </trkpt>
      <trkpt lat="45.89896" lon="1.25678">
        <ele>378.6</ele>
        <time>2024-11-10T13:33:12Z</time>
      </trkpt>
      <trkpt lat="45.89898" lon="1.25685">
        <ele>378.4</ele>
        <time>2024-11-10T13:33:13Z</time>
      </trkpt>
      <trkpt lat="45.89902" lon="1.25693">
        <ele>378.1</ele>
        <time>2024-11-10T13:33:14Z</time>
      </trkpt>
      <trkpt lat="45.89906" lon="1.25702">
        <ele>377.6</ele>
        <time>2024-11-10T13:33:15Z</time>
      </trkpt>
      <trkpt lat="45.89909" lon="1.25712">
        <ele>377.2</ele>
        <time>2024-11-10T13:33:16Z</time>
      </trkpt>
      <trkpt lat="45.89912" lon="1.25721">
        <ele>377.1</ele>
        <time>2024-11-10T13:33:17Z</time>
      </trkpt>
      <trkpt lat="45.89915" lon="1.25731">
        <ele>377</ele>
        <time>2024-11-10T13:33:18Z</time>
      </trkpt>
      <trkpt lat="45.89916" lon="1.25742">
        <ele>376.9</ele>
        <time>2024-11-10T13:33:19Z</time>
      </trkpt>
      <trkpt lat="45.89916" lon="1.25753">
        <ele>376.9</ele>
        <time>2024-11-10T13:33:20Z</time>
      </trkpt>
      <trkpt lat="45.89915" lon="1.25763">
        <ele>376.9</ele>
        <time>2024-11-10T13:33:21Z</time>
      </trkpt>
      <trkpt lat="45.89912" lon="1.25773">
        <ele>377</ele>
        <time>2024-11-10T13:33:22Z</time>
      </trkpt>
      <trkpt lat="45.8991" lon="1.25781">
        <ele>377</ele>
        <time>2024-11-10T13:33:23Z</time>
      </trkpt>
      <trkpt lat="45.89906" lon="1.25789">
        <ele>377.1</ele>
        <time>2024-11-10T13:33:24Z</time>
      </trkpt>
      <trkpt lat="45.89902" lon="1.25797">
        <ele>377.1</ele>
        <time>2024-11-10T13:33:25Z</time>
      </trkpt>
      <trkpt lat="45.89898" lon="1.25803">
        <ele>377.1</ele>
        <time>2024-11-10T13:33:26Z</time>
      </trkpt>
      <trkpt lat="45.89893" lon="1.25809">
        <ele>377.1</ele>
        <time>2024-11-10T13:33:27Z</time>
      </trkpt>
      <trkpt lat="45.89888" lon="1.25813">
        <ele>377.1</ele>
        <time>2024-11-10T13:33:28Z</time>
      </trkpt>
      <trkpt lat="45.89883" lon="1.25817">
        <ele>377.1</ele>
        <time>2024-11-10T13:33:29Z</time>
      </trkpt>
      <trkpt lat="45.89878" lon="1.25821">
        <ele>377</ele>
        <time>2024-11-10T13:33:30Z</time>
      </trkpt>
      <trkpt lat="45.89872" lon="1.25825">
        <ele>377</ele>
        <time>2024-11-10T13:33:31Z</time>
      </trkpt>
      <trkpt lat="45.89867" lon="1.25829">
        <ele>376.9</ele>
        <time>2024-11-10T13:33:32Z</time>
      </trkpt>
      <trkpt lat="45.89862" lon="1.25832">
        <ele>376.9</ele>
        <time>2024-11-10T13:33:33Z</time>
      </trkpt>
      <trkpt lat="45.89858" lon="1.25835">
        <ele>376.9</ele>
        <time>2024-11-10T13:33:34Z</time>
      </trkpt>
      <trkpt lat="45.89853" lon="1.25839">
        <ele>376.9</ele>
        <time>2024-11-10T13:33:35Z</time>
      </trkpt>
      <trkpt lat="45.89849" lon="1.25843">
        <ele>376.9</ele>
        <time>2024-11-10T13:33:36Z</time>
      </trkpt>
      <trkpt lat="45.89844" lon="1.25846">
        <ele>376.9</ele>
        <time>2024-11-10T13:33:37Z</time>
      </trkpt>
      <trkpt lat="45.89839" lon="1.25849">
        <ele>376.9</ele>
        <time>2024-11-10T13:33:38Z</time>
      </trkpt>
      <trkpt lat="45.89835" lon="1.25853">
        <ele>377</ele>
        <time>2024-11-10T13:33:39Z</time>
      </trkpt>
      <trkpt lat="45.8983" lon="1.25857">
        <ele>377.1</ele>
        <time>2024-11-10T13:33:40Z</time>
      </trkpt>
      <trkpt lat="45.89826" lon="1.2586">
        <ele>377.1</ele>
        <time>2024-11-10T13:33:41Z</time>
      </trkpt>
      <trkpt lat="45.89821" lon="1.25864">
        <ele>377.3</ele>
        <time>2024-11-10T13:33:42Z</time>
      </trkpt>
      <trkpt lat="45.89816" lon="1.25867">
        <ele>377.4</ele>
        <time>2024-11-10T13:33:43Z</time>
      </trkpt>
      <trkpt lat="45.89812" lon="1.2587">
        <ele>377.4</ele>
        <time>2024-11-10T13:33:44Z</time>
      </trkpt>
      <trkpt lat="45.89808" lon="1.25873">
        <ele>377.5</ele>
        <time>2024-11-10T13:33:45Z</time>
      </trkpt>
      <trkpt lat="45.89804" lon="1.25876">
        <ele>377.6</ele>
        <time>2024-11-10T13:33:46Z</time>
      </trkpt>
      <trkpt lat="45.89801" lon="1.25878">
        <ele>377.6</ele>
        <time>2024-11-10T13:33:47Z</time>
      </trkpt>
      <trkpt lat="45.89797" lon="1.25882">
        <ele>377.7</ele>
        <time>2024-11-10T13:33:48Z</time>
      </trkpt>
      <trkpt lat="45.89794" lon="1.25886">
        <ele>377.8</ele>
        <time>2024-11-10T13:33:49Z</time>
      </trkpt>
      <trkpt lat="45.89791" lon="1.25889">
        <ele>377.8</ele>
        <time>2024-11-10T13:33:50Z</time>
      </trkpt>
      <trkpt lat="45.89788" lon="1.25893">
        <ele>377.7</ele>
        <time>2024-11-10T13:33:51Z</time>
      </trkpt>
      <trkpt lat="45.89785" lon="1.25897">
        <ele>377.7</ele>
        <time>2024-11-10T13:33:52Z</time>
      </trkpt>
      <trkpt lat="45.89782" lon="1.25902">
        <ele>377.6</ele>
        <time>2024-11-10T13:33:53Z</time>
      </trkpt>
      <trkpt lat="45.89779" lon="1.25906">
        <ele>377.4</ele>
        <time>2024-11-10T13:33:54Z</time>
      </trkpt>
      <trkpt lat="45.89777" lon="1.2591">
        <ele>377.4</ele>
        <time>2024-11-10T13:33:55Z</time>
      </trkpt>
      <trkpt lat="45.89774" lon="1.25914">
        <ele>377.4</ele>
        <time>2024-11-10T13:33:56Z</time>
      </trkpt>
      <trkpt lat="45.89771" lon="1.25916">
        <ele>377.5</ele>
        <time>2024-11-10T13:33:57Z</time>
      </trkpt>
      <trkpt lat="45.89768" lon="1.25918">
        <ele>377.5</ele>
        <time>2024-11-10T13:33:58Z</time>
      </trkpt>
      <trkpt lat="45.89765" lon="1.2592">
        <ele>377.6</ele>
        <time>2024-11-10T13:33:59Z</time>
      </trkpt>
      <trkpt lat="45.89761" lon="1.25921">
        <ele>377.6</ele>
        <time>2024-11-10T13:34:00Z</time>
      </trkpt>
      <trkpt lat="45.89757" lon="1.25921">
        <ele>377.7</ele>
        <time>2024-11-10T13:34:01Z</time>
      </trkpt>
      <trkpt lat="45.89753" lon="1.2592">
        <ele>377.8</ele>
        <time>2024-11-10T13:34:02Z</time>
      </trkpt>
      <trkpt lat="45.8975" lon="1.25919">
        <ele>377.9</ele>
        <time>2024-11-10T13:34:03Z</time>
      </trkpt>
      <trkpt lat="45.89746" lon="1.25918">
        <ele>378</ele>
        <time>2024-11-10T13:34:04Z</time>
      </trkpt>
      <trkpt lat="45.89742" lon="1.25916">
        <ele>378.2</ele>
        <time>2024-11-10T13:34:06Z</time>
      </trkpt>
      <trkpt lat="45.89739" lon="1.25915">
        <ele>378.3</ele>
        <time>2024-11-10T13:34:07Z</time>
      </trkpt>
      <trkpt lat="45.89735" lon="1.25913">
        <ele>378.5</ele>
        <time>2024-11-10T13:34:08Z</time>
      </trkpt>
      <trkpt lat="45.89731" lon="1.2591">
        <ele>378.7</ele>
        <time>2024-11-10T13:34:09Z</time>
      </trkpt>
      <trkpt lat="45.89726" lon="1.25909">
        <ele>379</ele>
        <time>2024-11-10T13:34:10Z</time>
      </trkpt>
      <trkpt lat="45.89722" lon="1.25908">
        <ele>379.2</ele>
        <time>2024-11-10T13:34:11Z</time>
      </trkpt>
      <trkpt lat="45.89718" lon="1.25907">
        <ele>379.5</ele>
        <time>2024-11-10T13:34:12Z</time>
      </trkpt>
      <trkpt lat="45.89713" lon="1.25907">
        <ele>379.7</ele>
        <time>2024-11-10T13:34:13Z</time>
      </trkpt>
      <trkpt lat="45.89709" lon="1.25905">
        <ele>380</ele>
        <time>2024-11-10T13:34:14Z</time>
      </trkpt>
      <trkpt lat="45.89705" lon="1.25905">
        <ele>380.2</ele>
        <time>2024-11-10T13:34:15Z</time>
      </trkpt>
      <trkpt lat="45.89701" lon="1.25903">
        <ele>380.4</ele>
        <time>2024-11-10T13:34:16Z</time>
      </trkpt>
      <trkpt lat="45.89696" lon="1.25902">
        <ele>380.6</ele>
        <time>2024-11-10T13:34:17Z</time>
      </trkpt>
      <trkpt lat="45.89692" lon="1.25901">
        <ele>380.7</ele>
        <time>2024-11-10T13:34:18Z</time>
      </trkpt>
      <trkpt lat="45.89689" lon="1.259">
        <ele>380.9</ele>
        <time>2024-11-10T13:34:19Z</time>
      </trkpt>
      <trkpt lat="45.89685" lon="1.25899">
        <ele>381</ele>
        <time>2024-11-10T13:34:20Z</time>
      </trkpt>
      <trkpt lat="45.89681" lon="1.25898">
        <ele>381.1</ele>
        <time>2024-11-10T13:34:21Z</time>
      </trkpt>
      <trkpt lat="45.89677" lon="1.25898">
        <ele>381.2</ele>
        <time>2024-11-10T13:34:22Z</time>
      </trkpt>
      <trkpt lat="45.89673" lon="1.25898">
        <ele>381.3</ele>
        <time>2024-11-10T13:34:23Z</time>
      </trkpt>
      <trkpt lat="45.89669" lon="1.25899">
        <ele>381.3</ele>
        <time>2024-11-10T13:34:24Z</time>
      </trkpt>
      <trkpt lat="45.89666" lon="1.25901">
        <ele>381.3</ele>
        <time>2024-11-10T13:34:25Z</time>
      </trkpt>
      <trkpt lat="45.89663" lon="1.25902">
        <ele>381.3</ele>
        <time>2024-11-10T13:34:26Z</time>
      </trkpt>
      <trkpt lat="45.8966" lon="1.25904">
        <ele>381.3</ele>
        <time>2024-11-10T13:34:27Z</time>
      </trkpt>
      <trkpt lat="45.89655" lon="1.25905">
        <ele>381.3</ele>
        <time>2024-11-10T13:34:29Z</time>
      </trkpt>
      <trkpt lat="45.89651" lon="1.25906">
        <ele>381.3</ele>
        <time>2024-11-10T13:34:30Z</time>
      </trkpt>
      <trkpt lat="45.89647" lon="1.25907">
        <ele>381.2</ele>
        <time>2024-11-10T13:34:31Z</time>
      </trkpt>
      <trkpt lat="45.89643" lon="1.25908">
        <ele>381.2</ele>
        <time>2024-11-10T13:34:32Z</time>
      </trkpt>
      <trkpt lat="45.8964" lon="1.25909">
        <ele>381.2</ele>
        <time>2024-11-10T13:34:33Z</time>
      </trkpt>
      <trkpt lat="45.89635" lon="1.2591">
        <ele>381.2</ele>
        <time>2024-11-10T13:34:35Z</time>
      </trkpt>
      <trkpt lat="45.89631" lon="1.25911">
        <ele>381.2</ele>
        <time>2024-11-10T13:34:36Z</time>
      </trkpt>
      <trkpt lat="45.89627" lon="1.25911">
        <ele>381.1</ele>
        <time>2024-11-10T13:34:37Z</time>
      </trkpt>
      <trkpt lat="45.89624" lon="1.25912">
        <ele>381.1</ele>
        <time>2024-11-10T13:34:38Z</time>
      </trkpt>
      <trkpt lat="45.89621" lon="1.25912">
        <ele>381.1</ele>
        <time>2024-11-10T13:34:39Z</time>
      </trkpt>
      <trkpt lat="45.89618" lon="1.25913">
        <ele>381.1</ele>
        <time>2024-11-10T13:34:40Z</time>
      </trkpt>
      <trkpt lat="45.89614" lon="1.25914">
        <ele>381.1</ele>
        <time>2024-11-10T13:34:41Z</time>
      </trkpt>
      <trkpt lat="45.8961" lon="1.25914">
        <ele>381</ele>
        <time>2024-11-10T13:34:42Z</time>
      </trkpt>
      <trkpt lat="45.89606" lon="1.25915">
        <ele>381</ele>
        <time>2024-11-10T13:34:43Z</time>
      </trkpt>
      <trkpt lat="45.89601" lon="1.25916">
        <ele>381</ele>
        <time>2024-11-10T13:34:44Z</time>
      </trkpt>
      <trkpt lat="45.89597" lon="1.25917">
        <ele>380.9</ele>
        <time>2024-11-10T13:34:45Z</time>
      </trkpt>
      <trkpt lat="45.89593" lon="1.25918">
        <ele>380.9</ele>
        <time>2024-11-10T13:34:46Z</time>
      </trkpt>
      <trkpt lat="45.8959" lon="1.25919">
        <ele>380.8</ele>
        <time>2024-11-10T13:34:47Z</time>
      </trkpt>
      <trkpt lat="45.89586" lon="1.2592">
        <ele>380.8</ele>
        <time>2024-11-10T13:34:48Z</time>
      </trkpt>
      <trkpt lat="45.89582" lon="1.25922">
        <ele>380.7</ele>
        <time>2024-11-10T13:34:49Z</time>
      </trkpt>
      <trkpt lat="45.89578" lon="1.25924">
        <ele>380.7</ele>
        <time>2024-11-10T13:34:50Z</time>
      </trkpt>
      <trkpt lat="45.89573" lon="1.25925">
        <ele>380.6</ele>
        <time>2024-11-10T13:34:51Z</time>
      </trkpt>
      <trkpt lat="45.8957" lon="1.25927">
        <ele>380.6</ele>
        <time>2024-11-10T13:34:52Z</time>
      </trkpt>
      <trkpt lat="45.89566" lon="1.25929">
        <ele>380.6</ele>
        <time>2024-11-10T13:34:53Z</time>
      </trkpt>
      <trkpt lat="45.89562" lon="1.2593">
        <ele>380.5</ele>
        <time>2024-11-10T13:34:54Z</time>
      </trkpt>
      <trkpt lat="45.89558" lon="1.25932">
        <ele>380.4</ele>
        <time>2024-11-10T13:34:55Z</time>
      </trkpt>
      <trkpt lat="45.89554" lon="1.25935">
        <ele>380.3</ele>
        <time>2024-11-10T13:34:56Z</time>
      </trkpt>
      <trkpt lat="45.8955" lon="1.25938">
        <ele>380.1</ele>
        <time>2024-11-10T13:34:57Z</time>
      </trkpt>
      <trkpt lat="45.89545" lon="1.25942">
        <ele>379.9</ele>
        <time>2024-11-10T13:34:58Z</time>
      </trkpt>
      <trkpt lat="45.89541" lon="1.25947">
        <ele>379.7</ele>
        <time>2024-11-10T13:34:59Z</time>
      </trkpt>
      <trkpt lat="45.89536" lon="1.25952">
        <ele>379.5</ele>
        <time>2024-11-10T13:35:00Z</time>
      </trkpt>
      <trkpt lat="45.89534" lon="1.25957">
        <ele>379.3</ele>
        <time>2024-11-10T13:35:01Z</time>
      </trkpt>
      <trkpt lat="45.89532" lon="1.25962">
        <ele>379.1</ele>
        <time>2024-11-10T13:35:02Z</time>
      </trkpt>
      <trkpt lat="45.8953" lon="1.25967">
        <ele>378.8</ele>
        <time>2024-11-10T13:35:03Z</time>
      </trkpt>
      <trkpt lat="45.89529" lon="1.25972">
        <ele>378.6</ele>
        <time>2024-11-10T13:35:04Z</time>
      </trkpt>
      <trkpt lat="45.89528" lon="1.25978">
        <ele>378.3</ele>
        <time>2024-11-10T13:35:05Z</time>
      </trkpt>
      <trkpt lat="45.89526" lon="1.25985">
        <ele>377.8</ele>
        <time>2024-11-10T13:35:06Z</time>
      </trkpt>
      <trkpt lat="45.89524" lon="1.25992">
        <ele>377.4</ele>
        <time>2024-11-10T13:35:07Z</time>
      </trkpt>
      <trkpt lat="45.89521" lon="1.25999">
        <ele>377</ele>
        <time>2024-11-10T13:35:08Z</time>
      </trkpt>
      <trkpt lat="45.89519" lon="1.26007">
        <ele>376.5</ele>
        <time>2024-11-10T13:35:09Z</time>
      </trkpt>
      <trkpt lat="45.89516" lon="1.26015">
        <ele>376</ele>
        <time>2024-11-10T13:35:10Z</time>
      </trkpt>
      <trkpt lat="45.89515" lon="1.26024">
        <ele>375.6</ele>
        <time>2024-11-10T13:35:11Z</time>
      </trkpt>
      <trkpt lat="45.89513" lon="1.26033">
        <ele>375.2</ele>
        <time>2024-11-10T13:35:12Z</time>
      </trkpt>
      <trkpt lat="45.89511" lon="1.26043">
        <ele>374.8</ele>
        <time>2024-11-10T13:35:13Z</time>
      </trkpt>
      <trkpt lat="45.89509" lon="1.26052">
        <ele>374.5</ele>
        <time>2024-11-10T13:35:14Z</time>
      </trkpt>
      <trkpt lat="45.89507" lon="1.26061">
        <ele>374.1</ele>
        <time>2024-11-10T13:35:15Z</time>
      </trkpt>
      <trkpt lat="45.89505" lon="1.26071">
        <ele>373.7</ele>
        <time>2024-11-10T13:35:16Z</time>
      </trkpt>
      <trkpt lat="45.89503" lon="1.2608">
        <ele>373.3</ele>
        <time>2024-11-10T13:35:17Z</time>
      </trkpt>
      <trkpt lat="45.89501" lon="1.2609">
        <ele>372.8</ele>
        <time>2024-11-10T13:35:18Z</time>
      </trkpt>
      <trkpt lat="45.895" lon="1.261">
        <ele>372.3</ele>
        <time>2024-11-10T13:35:19Z</time>
      </trkpt>
      <trkpt lat="45.89498" lon="1.2611">
        <ele>371.8</ele>
        <time>2024-11-10T13:35:20Z</time>
      </trkpt>
      <trkpt lat="45.89497" lon="1.2612">
        <ele>371.4</ele>
        <time>2024-11-10T13:35:21Z</time>
      </trkpt>
      <trkpt lat="45.89497" lon="1.2613">
        <ele>370.9</ele>
        <time>2024-11-10T13:35:22Z</time>
      </trkpt>
      <trkpt lat="45.89498" lon="1.26139">
        <ele>370.6</ele>
        <time>2024-11-10T13:35:23Z</time>
      </trkpt>
      <trkpt lat="45.89498" lon="1.26149">
        <ele>370.2</ele>
        <time>2024-11-10T13:35:24Z</time>
      </trkpt>
      <trkpt lat="45.89499" lon="1.26158">
        <ele>369.9</ele>
        <time>2024-11-10T13:35:25Z</time>
      </trkpt>
      <trkpt lat="45.89499" lon="1.26167">
        <ele>369.6</ele>
        <time>2024-11-10T13:35:26Z</time>
      </trkpt>
      <trkpt lat="45.895" lon="1.26176">
        <ele>369.4</ele>
        <time>2024-11-10T13:35:27Z</time>
      </trkpt>
      <trkpt lat="45.89501" lon="1.26185">
        <ele>369.1</ele>
        <time>2024-11-10T13:35:28Z</time>
      </trkpt>
      <trkpt lat="45.89502" lon="1.26193">
        <ele>368.9</ele>
        <time>2024-11-10T13:35:29Z</time>
      </trkpt>
      <trkpt lat="45.89503" lon="1.26201">
        <ele>368.7</ele>
        <time>2024-11-10T13:35:30Z</time>
      </trkpt>
      <trkpt lat="45.89503" lon="1.26209">
        <ele>368.5</ele>
        <time>2024-11-10T13:35:31Z</time>
      </trkpt>
      <trkpt lat="45.89503" lon="1.26217">
        <ele>368.4</ele>
        <time>2024-11-10T13:35:32Z</time>
      </trkpt>
      <trkpt lat="45.89504" lon="1.26225">
        <ele>368.4</ele>
        <time>2024-11-10T13:35:33Z</time>
      </trkpt>
      <trkpt lat="45.89505" lon="1.26232">
        <ele>368.3</ele>
        <time>2024-11-10T13:35:34Z</time>
      </trkpt>
      <trkpt lat="45.89505" lon="1.26239">
        <ele>368.3</ele>
        <time>2024-11-10T13:35:35Z</time>
      </trkpt>
      <trkpt lat="45.89505" lon="1.26244">
        <ele>368.3</ele>
        <time>2024-11-10T13:35:36Z</time>
      </trkpt>
      <trkpt lat="45.89506" lon="1.2625">
        <ele>368.3</ele>
        <time>2024-11-10T13:35:38Z</time>
      </trkpt>
      <trkpt lat="45.89507" lon="1.26254">
        <ele>368.2</ele>
        <time>2024-11-10T13:35:40Z</time>
      </trkpt>
      <trkpt lat="45.8951" lon="1.26255">
        <ele>368.3</ele>
        <time>2024-11-10T13:35:42Z</time>
      </trkpt>
      <trkpt lat="45.89513" lon="1.26254">
        <ele>368.3</ele>
        <time>2024-11-10T13:35:44Z</time>
      </trkpt>
      <trkpt lat="45.89517" lon="1.26251">
        <ele>368.4</ele>
        <time>2024-11-10T13:35:46Z</time>
      </trkpt>
      <trkpt lat="45.8952" lon="1.26249">
        <ele>368.4</ele>
        <time>2024-11-10T13:35:47Z</time>
      </trkpt>
      <trkpt lat="45.89523" lon="1.26247">
        <ele>368.5</ele>
        <time>2024-11-10T13:35:48Z</time>
      </trkpt>
      <trkpt lat="45.89526" lon="1.26244">
        <ele>368.6</ele>
        <time>2024-11-10T13:35:49Z</time>
      </trkpt>
      <trkpt lat="45.8953" lon="1.26242">
        <ele>368.6</ele>
        <time>2024-11-10T13:35:50Z</time>
      </trkpt>
      <trkpt lat="45.89532" lon="1.2624">
        <ele>368.7</ele>
        <time>2024-11-10T13:35:51Z</time>
      </trkpt>
      <trkpt lat="45.89536" lon="1.26237">
        <ele>368.8</ele>
        <time>2024-11-10T13:35:52Z</time>
      </trkpt>
      <trkpt lat="45.89539" lon="1.26235">
        <ele>368.8</ele>
        <time>2024-11-10T13:35:53Z</time>
      </trkpt>
      <trkpt lat="45.89543" lon="1.26232">
        <ele>368.8</ele>
        <time>2024-11-10T13:35:54Z</time>
      </trkpt>
      <trkpt lat="45.89546" lon="1.2623">
        <ele>368.9</ele>
        <time>2024-11-10T13:35:55Z</time>
      </trkpt>
      <trkpt lat="45.8955" lon="1.26227">
        <ele>368.8</ele>
        <time>2024-11-10T13:35:56Z</time>
      </trkpt>
      <trkpt lat="45.89553" lon="1.26224">
        <ele>368.8</ele>
        <time>2024-11-10T13:35:57Z</time>
      </trkpt>
      <trkpt lat="45.89557" lon="1.26221">
        <ele>368.8</ele>
        <time>2024-11-10T13:35:58Z</time>
      </trkpt>
      <trkpt lat="45.8956" lon="1.26219">
        <ele>368.7</ele>
        <time>2024-11-10T13:35:59Z</time>
      </trkpt>
      <trkpt lat="45.89564" lon="1.26216">
        <ele>368.6</ele>
        <time>2024-11-10T13:36:00Z</time>
      </trkpt>
      <trkpt lat="45.89568" lon="1.26213">
        <ele>368.5</ele>
        <time>2024-11-10T13:36:01Z</time>
      </trkpt>
      <trkpt lat="45.89572" lon="1.2621">
        <ele>368.3</ele>
        <time>2024-11-10T13:36:02Z</time>
      </trkpt>
      <trkpt lat="45.89576" lon="1.26207">
        <ele>368.2</ele>
        <time>2024-11-10T13:36:03Z</time>
      </trkpt>
      <trkpt lat="45.8958" lon="1.26204">
        <ele>368</ele>
        <time>2024-11-10T13:36:04Z</time>
      </trkpt>
      <trkpt lat="45.89583" lon="1.26201">
        <ele>367.8</ele>
        <time>2024-11-10T13:36:05Z</time>
      </trkpt>
      <trkpt lat="45.89586" lon="1.26198">
        <ele>367.7</ele>
        <time>2024-11-10T13:36:06Z</time>
      </trkpt>
      <trkpt lat="45.89589" lon="1.26196">
        <ele>367.5</ele>
        <time>2024-11-10T13:36:08Z</time>
      </trkpt>
      <trkpt lat="45.89593" lon="1.26195">
        <ele>367.4</ele>
        <time>2024-11-10T13:36:10Z</time>
      </trkpt>
      <trkpt lat="45.89596" lon="1.26193">
        <ele>367.3</ele>
        <time>2024-11-10T13:36:12Z</time>
      </trkpt>
      <trkpt lat="45.89596" lon="1.2619">
        <ele>367.4</ele>
        <time>2024-11-10T13:36:15Z</time>
      </trkpt>
      <trkpt lat="45.89593" lon="1.2619">
        <ele>367.4</ele>
        <time>2024-11-10T13:36:17Z</time>
      </trkpt>
      <trkpt lat="45.89589" lon="1.26191">
        <ele>367.6</ele>
        <time>2024-11-10T13:36:18Z</time>
      </trkpt>
      <trkpt lat="45.89585" lon="1.26193">
        <ele>367.7</ele>
        <time>2024-11-10T13:36:19Z</time>
      </trkpt>
      <trkpt lat="45.89582" lon="1.26195">
        <ele>367.9</ele>
        <time>2024-11-10T13:36:20Z</time>
      </trkpt>
      <trkpt lat="45.89578" lon="1.26198">
        <ele>368</ele>
        <time>2024-11-10T13:36:21Z</time>
      </trkpt>
      <trkpt lat="45.89575" lon="1.26201">
        <ele>368.2</ele>
        <time>2024-11-10T13:36:22Z</time>
      </trkpt>
      <trkpt lat="45.89571" lon="1.26204">
        <ele>368.3</ele>
        <time>2024-11-10T13:36:23Z</time>
      </trkpt>
      <trkpt lat="45.89568" lon="1.26207">
        <ele>368.4</ele>
        <time>2024-11-10T13:36:24Z</time>
      </trkpt>
      <trkpt lat="45.89564" lon="1.2621">
        <ele>368.6</ele>
        <time>2024-11-10T13:36:25Z</time>
      </trkpt>
      <trkpt lat="45.89561" lon="1.26213">
        <ele>368.6</ele>
        <time>2024-11-10T13:36:26Z</time>
      </trkpt>
      <trkpt lat="45.89557" lon="1.26216">
        <ele>368.7</ele>
        <time>2024-11-10T13:36:27Z</time>
      </trkpt>
      <trkpt lat="45.89553" lon="1.26219">
        <ele>368.8</ele>
        <time>2024-11-10T13:36:28Z</time>
      </trkpt>
      <trkpt lat="45.8955" lon="1.26222">
        <ele>368.8</ele>
        <time>2024-11-10T13:36:29Z</time>
      </trkpt>
      <trkpt lat="45.89546" lon="1.26225">
        <ele>368.9</ele>
        <time>2024-11-10T13:36:30Z</time>
      </trkpt>
      <trkpt lat="45.89542" lon="1.26228">
        <ele>368.8</ele>
        <time>2024-11-10T13:36:31Z</time>
      </trkpt>
      <trkpt lat="45.89538" lon="1.26231">
        <ele>368.8</ele>
        <time>2024-11-10T13:36:32Z</time>
      </trkpt>
      <trkpt lat="45.89534" lon="1.26233">
        <ele>368.8</ele>
        <time>2024-11-10T13:36:33Z</time>
      </trkpt>
      <trkpt lat="45.8953" lon="1.26236">
        <ele>368.7</ele>
        <time>2024-11-10T13:36:34Z</time>
      </trkpt>
      <trkpt lat="45.89526" lon="1.26239">
        <ele>368.6</ele>
        <time>2024-11-10T13:36:35Z</time>
      </trkpt>
      <trkpt lat="45.89522" lon="1.26243">
        <ele>368.6</ele>
        <time>2024-11-10T13:36:36Z</time>
      </trkpt>
      <trkpt lat="45.89518" lon="1.26246">
        <ele>368.5</ele>
        <time>2024-11-10T13:36:37Z</time>
      </trkpt>
      <trkpt lat="45.89514" lon="1.26249">
        <ele>368.4</ele>
        <time>2024-11-10T13:36:38Z</time>
      </trkpt>
      <trkpt lat="45.89511" lon="1.26252">
        <ele>368.4</ele>
        <time>2024-11-10T13:36:39Z</time>
      </trkpt>
      <trkpt lat="45.89507" lon="1.26256">
        <ele>368.3</ele>
        <time>2024-11-10T13:36:40Z</time>
      </trkpt>
      <trkpt lat="45.89504" lon="1.26259">
        <ele>368.3</ele>
        <time>2024-11-10T13:36:41Z</time>
      </trkpt>
      <trkpt lat="45.89502" lon="1.26263">
        <ele>368.2</ele>
        <time>2024-11-10T13:36:43Z</time>
      </trkpt>
      <trkpt lat="45.89503" lon="1.26268">
        <ele>367.9</ele>
        <time>2024-11-10T13:36:45Z</time>
      </trkpt>
      <trkpt lat="45.89506" lon="1.2627">
        <ele>367.9</ele>
        <time>2024-11-10T13:36:46Z</time>
      </trkpt>
      <trkpt lat="45.89508" lon="1.26272">
        <ele>367.8</ele>
        <time>2024-11-10T13:36:47Z</time>
      </trkpt>
      <trkpt lat="45.89511" lon="1.26274">
        <ele>367.7</ele>
        <time>2024-11-10T13:36:48Z</time>
      </trkpt>
      <trkpt lat="45.89514" lon="1.26276">
        <ele>367.7</ele>
        <time>2024-11-10T13:36:49Z</time>
      </trkpt>
      <trkpt lat="45.89517" lon="1.26279">
        <ele>367.6</ele>
        <time>2024-11-10T13:36:50Z</time>
      </trkpt>
      <trkpt lat="45.8952" lon="1.26281">
        <ele>367.6</ele>
        <time>2024-11-10T13:36:51Z</time>
      </trkpt>
      <trkpt lat="45.89523" lon="1.26284">
        <ele>367.5</ele>
        <time>2024-11-10T13:36:52Z</time>
      </trkpt>
      <trkpt lat="45.89526" lon="1.26286">
        <ele>367.4</ele>
        <time>2024-11-10T13:36:53Z</time>
      </trkpt>
      <trkpt lat="45.89529" lon="1.26288">
        <ele>367.4</ele>
        <time>2024-11-10T13:36:54Z</time>
      </trkpt>
      <trkpt lat="45.89532" lon="1.2629">
        <ele>367.3</ele>
        <time>2024-11-10T13:36:55Z</time>
      </trkpt>
      <trkpt lat="45.89535" lon="1.26294">
        <ele>367.2</ele>
        <time>2024-11-10T13:36:56Z</time>
      </trkpt>
      <trkpt lat="45.89538" lon="1.26297">
        <ele>367.2</ele>
        <time>2024-11-10T13:36:57Z</time>
      </trkpt>
      <trkpt lat="45.89541" lon="1.263">
        <ele>367.1</ele>
        <time>2024-11-10T13:36:58Z</time>
      </trkpt>
      <trkpt lat="45.89545" lon="1.26303">
        <ele>367</ele>
        <time>2024-11-10T13:36:59Z</time>
      </trkpt>
      <trkpt lat="45.89548" lon="1.26306">
        <ele>366.9</ele>
        <time>2024-11-10T13:37:00Z</time>
      </trkpt>
      <trkpt lat="45.89551" lon="1.26309">
        <ele>366.9</ele>
        <time>2024-11-10T13:37:01Z</time>
      </trkpt>
      <trkpt lat="45.89555" lon="1.26311">
        <ele>366.8</ele>
        <time>2024-11-10T13:37:02Z</time>
      </trkpt>
      <trkpt lat="45.89559" lon="1.26314">
        <ele>366.7</ele>
        <time>2024-11-10T13:37:03Z</time>
      </trkpt>
      <trkpt lat="45.89562" lon="1.26316">
        <ele>366.6</ele>
        <time>2024-11-10T13:37:04Z</time>
      </trkpt>
      <trkpt lat="45.89566" lon="1.26318">
        <ele>366.5</ele>
        <time>2024-11-10T13:37:05Z</time>
      </trkpt>
      <trkpt lat="45.89571" lon="1.2632">
        <ele>366.3</ele>
        <time>2024-11-10T13:37:06Z</time>
      </trkpt>
      <trkpt lat="45.89575" lon="1.26322">
        <ele>366.2</ele>
        <time>2024-11-10T13:37:07Z</time>
      </trkpt>
      <trkpt lat="45.89579" lon="1.26324">
        <ele>366</ele>
        <time>2024-11-10T13:37:08Z</time>
      </trkpt>
      <trkpt lat="45.89584" lon="1.26327">
        <ele>365.7</ele>
        <time>2024-11-10T13:37:09Z</time>
      </trkpt>
      <trkpt lat="45.89588" lon="1.26329">
        <ele>365.5</ele>
        <time>2024-11-10T13:37:10Z</time>
      </trkpt>
      <trkpt lat="45.89593" lon="1.26331">
        <ele>365.1</ele>
        <time>2024-11-10T13:37:11Z</time>
      </trkpt>
      <trkpt lat="45.89598" lon="1.26334">
        <ele>364.8</ele>
        <time>2024-11-10T13:37:12Z</time>
      </trkpt>
      <trkpt lat="45.89603" lon="1.26337">
        <ele>364.4</ele>
        <time>2024-11-10T13:37:13Z</time>
      </trkpt>
      <trkpt lat="45.89608" lon="1.2634">
        <ele>364</ele>
        <time>2024-11-10T13:37:14Z</time>
      </trkpt>
      <trkpt lat="45.89613" lon="1.26343">
        <ele>363.7</ele>
        <time>2024-11-10T13:37:15Z</time>
      </trkpt>
      <trkpt lat="45.89618" lon="1.26346">
        <ele>363.3</ele>
        <time>2024-11-10T13:37:16Z</time>
      </trkpt>
      <trkpt lat="45.89624" lon="1.26348">
        <ele>363</ele>
        <time>2024-11-10T13:37:17Z</time>
      </trkpt>
      <trkpt lat="45.8963" lon="1.26351">
        <ele>362.6</ele>
        <time>2024-11-10T13:37:18Z</time>
      </trkpt>
      <trkpt lat="45.89637" lon="1.26354">
        <ele>362.2</ele>
        <time>2024-11-10T13:37:19Z</time>
      </trkpt>
      <trkpt lat="45.89644" lon="1.26357">
        <ele>361.9</ele>
        <time>2024-11-10T13:37:20Z</time>
      </trkpt>
      <trkpt lat="45.89651" lon="1.2636">
        <ele>361.5</ele>
        <time>2024-11-10T13:37:21Z</time>
      </trkpt>
      <trkpt lat="45.89658" lon="1.26363">
        <ele>361.2</ele>
        <time>2024-11-10T13:37:22Z</time>
      </trkpt>
      <trkpt lat="45.89664" lon="1.26366">
        <ele>361</ele>
        <time>2024-11-10T13:37:23Z</time>
      </trkpt>
      <trkpt lat="45.89672" lon="1.26369">
        <ele>360.7</ele>
        <time>2024-11-10T13:37:24Z</time>
      </trkpt>
      <trkpt lat="45.89678" lon="1.26372">
        <ele>360.5</ele>
        <time>2024-11-10T13:37:25Z</time>
      </trkpt>
      <trkpt lat="45.89685" lon="1.26374">
        <ele>360.2</ele>
        <time>2024-11-10T13:37:26Z</time>
      </trkpt>
      <trkpt lat="45.89692" lon="1.26377">
        <ele>360</ele>
        <time>2024-11-10T13:37:27Z</time>
      </trkpt>
      <trkpt lat="45.89698" lon="1.26379">
        <ele>359.9</ele>
        <time>2024-11-10T13:37:28Z</time>
      </trkpt>
      <trkpt lat="45.89704" lon="1.26381">
        <ele>359.8</ele>
        <time>2024-11-10T13:37:29Z</time>
      </trkpt>
      <trkpt lat="45.89709" lon="1.26383">
        <ele>359.7</ele>
        <time>2024-11-10T13:37:30Z</time>
      </trkpt>
      <trkpt lat="45.89714" lon="1.26386">
        <ele>359.6</ele>
        <time>2024-11-10T13:37:31Z</time>
      </trkpt>
      <trkpt lat="45.89718" lon="1.26388">
        <ele>359.6</ele>
        <time>2024-11-10T13:37:32Z</time>
      </trkpt>
      <trkpt lat="45.89721" lon="1.26391">
        <ele>359.5</ele>
        <time>2024-11-10T13:37:33Z</time>
      </trkpt>
      <trkpt lat="45.89723" lon="1.26394">
        <ele>359.5</ele>
        <time>2024-11-10T13:37:34Z</time>
      </trkpt>
      <trkpt lat="45.89724" lon="1.26398">
        <ele>359.4</ele>
        <time>2024-11-10T13:37:35Z</time>
      </trkpt>
      <trkpt lat="45.89724" lon="1.26402">
        <ele>359.6</ele>
        <time>2024-11-10T13:37:36Z</time>
      </trkpt>
      <trkpt lat="45.89723" lon="1.26407">
        <ele>359.7</ele>
        <time>2024-11-10T13:37:37Z</time>
      </trkpt>
      <trkpt lat="45.89722" lon="1.26411">
        <ele>359.7</ele>
        <time>2024-11-10T13:37:38Z</time>
      </trkpt>
      <trkpt lat="45.89721" lon="1.26416">
        <ele>359.8</ele>
        <time>2024-11-10T13:37:39Z</time>
      </trkpt>
      <trkpt lat="45.8972" lon="1.26421">
        <ele>359.9</ele>
        <time>2024-11-10T13:37:40Z</time>
      </trkpt>
      <trkpt lat="45.89718" lon="1.26427">
        <ele>360</ele>
        <time>2024-11-10T13:37:41Z</time>
      </trkpt>
      <trkpt lat="45.89717" lon="1.26432">
        <ele>360.1</ele>
        <time>2024-11-10T13:37:42Z</time>
      </trkpt>
      <trkpt lat="45.89716" lon="1.26439">
        <ele>360.1</ele>
        <time>2024-11-10T13:37:43Z</time>
      </trkpt>
      <trkpt lat="45.89715" lon="1.26445">
        <ele>360.1</ele>
        <time>2024-11-10T13:37:44Z</time>
      </trkpt>
      <trkpt lat="45.89714" lon="1.26451">
        <ele>360.1</ele>
        <time>2024-11-10T13:37:45Z</time>
      </trkpt>
      <trkpt lat="45.89712" lon="1.26458">
        <ele>360.1</ele>
        <time>2024-11-10T13:37:46Z</time>
      </trkpt>
      <trkpt lat="45.89711" lon="1.26465">
        <ele>360</ele>
        <time>2024-11-10T13:37:47Z</time>
      </trkpt>
      <trkpt lat="45.8971" lon="1.26472">
        <ele>359.9</ele>
        <time>2024-11-10T13:37:48Z</time>
      </trkpt>
      <trkpt lat="45.89708" lon="1.26479">
        <ele>359.8</ele>
        <time>2024-11-10T13:37:49Z</time>
      </trkpt>
      <trkpt lat="45.89707" lon="1.26486">
        <ele>359.6</ele>
        <time>2024-11-10T13:37:50Z</time>
      </trkpt>
      <trkpt lat="45.89705" lon="1.26493">
        <ele>359.5</ele>
        <time>2024-11-10T13:37:51Z</time>
      </trkpt>
      <trkpt lat="45.89703" lon="1.265">
        <ele>359.4</ele>
        <time>2024-11-10T13:37:52Z</time>
      </trkpt>
      <trkpt lat="45.89702" lon="1.26508">
        <ele>359.2</ele>
        <time>2024-11-10T13:37:53Z</time>
      </trkpt>
      <trkpt lat="45.89701" lon="1.26515">
        <ele>359</ele>
        <time>2024-11-10T13:37:54Z</time>
      </trkpt>
      <trkpt lat="45.897" lon="1.26523">
        <ele>358.7</ele>
        <time>2024-11-10T13:37:55Z</time>
      </trkpt>
      <trkpt lat="45.89698" lon="1.2653">
        <ele>358.4</ele>
        <time>2024-11-10T13:37:56Z</time>
      </trkpt>
      <trkpt lat="45.89697" lon="1.26538">
        <ele>358</ele>
        <time>2024-11-10T13:37:57Z</time>
      </trkpt>
      <trkpt lat="45.89695" lon="1.26547">
        <ele>357.7</ele>
        <time>2024-11-10T13:37:58Z</time>
      </trkpt>
      <trkpt lat="45.89693" lon="1.26555">
        <ele>357.4</ele>
        <time>2024-11-10T13:37:59Z</time>
      </trkpt>
      <trkpt lat="45.89692" lon="1.26565">
        <ele>357.2</ele>
        <time>2024-11-10T13:38:00Z</time>
      </trkpt>
      <trkpt lat="45.89691" lon="1.26574">
        <ele>357</ele>
        <time>2024-11-10T13:38:01Z</time>
      </trkpt>
      <trkpt lat="45.89691" lon="1.26584">
        <ele>356.9</ele>
        <time>2024-11-10T13:38:02Z</time>
      </trkpt>
      <trkpt lat="45.89692" lon="1.26593">
        <ele>356.9</ele>
        <time>2024-11-10T13:38:03Z</time>
      </trkpt>
      <trkpt lat="45.89692" lon="1.266">
        <ele>356.9</ele>
        <time>2024-11-10T13:38:04Z</time>
      </trkpt>
      <trkpt lat="45.89694" lon="1.26606">
        <ele>357</ele>
        <time>2024-11-10T13:38:05Z</time>
      </trkpt>
      <trkpt lat="45.89695" lon="1.26614">
        <ele>357</ele>
        <time>2024-11-10T13:38:06Z</time>
      </trkpt>
      <trkpt lat="45.89697" lon="1.26621">
        <ele>357.1</ele>
        <time>2024-11-10T13:38:07Z</time>
      </trkpt>
      <trkpt lat="45.89699" lon="1.26629">
        <ele>357.2</ele>
        <time>2024-11-10T13:38:08Z</time>
      </trkpt>
      <trkpt lat="45.897" lon="1.26637">
        <ele>357.3</ele>
        <time>2024-11-10T13:38:09Z</time>
      </trkpt>
      <trkpt lat="45.89698" lon="1.26644">
        <ele>357.4</ele>
        <time>2024-11-10T13:38:10Z</time>
      </trkpt>
      <trkpt lat="45.89696" lon="1.2665">
        <ele>357.4</ele>
        <time>2024-11-10T13:38:11Z</time>
      </trkpt>
      <trkpt lat="45.89694" lon="1.26656">
        <ele>357.5</ele>
        <time>2024-11-10T13:38:12Z</time>
      </trkpt>
      <trkpt lat="45.89692" lon="1.26663">
        <ele>357.5</ele>
        <time>2024-11-10T13:38:13Z</time>
      </trkpt>
      <trkpt lat="45.8969" lon="1.2667">
        <ele>357.5</ele>
        <time>2024-11-10T13:38:14Z</time>
      </trkpt>
      <trkpt lat="45.89688" lon="1.26677">
        <ele>357.5</ele>
        <time>2024-11-10T13:38:15Z</time>
      </trkpt>
      <trkpt lat="45.89685" lon="1.26684">
        <ele>357.5</ele>
        <time>2024-11-10T13:38:16Z</time>
      </trkpt>
      <trkpt lat="45.89683" lon="1.26691">
        <ele>357.5</ele>
        <time>2024-11-10T13:38:17Z</time>
      </trkpt>
      <trkpt lat="45.89682" lon="1.26698">
        <ele>357.5</ele>
        <time>2024-11-10T13:38:18Z</time>
      </trkpt>
      <trkpt lat="45.8968" lon="1.26705">
        <ele>357.5</ele>
        <time>2024-11-10T13:38:19Z</time>
      </trkpt>
      <trkpt lat="45.89679" lon="1.26711">
        <ele>357.5</ele>
        <time>2024-11-10T13:38:20Z</time>
      </trkpt>
      <trkpt lat="45.89677" lon="1.26717">
        <ele>357.6</ele>
        <time>2024-11-10T13:38:21Z</time>
      </trkpt>
      <trkpt lat="45.89675" lon="1.26724">
        <ele>357.6</ele>
        <time>2024-11-10T13:38:22Z</time>
      </trkpt>
      <trkpt lat="45.89672" lon="1.26731">
        <ele>357.6</ele>
        <time>2024-11-10T13:38:23Z</time>
      </trkpt>
      <trkpt lat="45.8967" lon="1.26737">
        <ele>357.6</ele>
        <time>2024-11-10T13:38:24Z</time>
      </trkpt>
      <trkpt lat="45.89668" lon="1.26744">
        <ele>357.6</ele>
        <time>2024-11-10T13:38:25Z</time>
      </trkpt>
      <trkpt lat="45.89666" lon="1.2675">
        <ele>357.7</ele>
        <time>2024-11-10T13:38:26Z</time>
      </trkpt>
      <trkpt lat="45.89664" lon="1.26757">
        <ele>357.7</ele>
        <time>2024-11-10T13:38:27Z</time>
      </trkpt>
      <trkpt lat="45.89663" lon="1.26764">
        <ele>357.8</ele>
        <time>2024-11-10T13:38:28Z</time>
      </trkpt>
      <trkpt lat="45.89662" lon="1.26771">
        <ele>357.8</ele>
        <time>2024-11-10T13:38:29Z</time>
      </trkpt>
      <trkpt lat="45.89661" lon="1.26778">
        <ele>357.9</ele>
        <time>2024-11-10T13:38:30Z</time>
      </trkpt>
      <trkpt lat="45.8966" lon="1.26783">
        <ele>358</ele>
        <time>2024-11-10T13:38:31Z</time>
      </trkpt>
      <trkpt lat="45.89659" lon="1.26789">
        <ele>358</ele>
        <time>2024-11-10T13:38:32Z</time>
      </trkpt>
      <trkpt lat="45.89658" lon="1.26795">
        <ele>358.1</ele>
        <time>2024-11-10T13:38:33Z</time>
      </trkpt>
      <trkpt lat="45.89656" lon="1.26801">
        <ele>358.2</ele>
        <time>2024-11-10T13:38:34Z</time>
      </trkpt>
      <trkpt lat="45.89653" lon="1.26807">
        <ele>358.3</ele>
        <time>2024-11-10T13:38:35Z</time>
      </trkpt>
      <trkpt lat="45.8965" lon="1.26813">
        <ele>358.4</ele>
        <time>2024-11-10T13:38:36Z</time>
      </trkpt>
      <trkpt lat="45.89648" lon="1.26818">
        <ele>358.4</ele>
        <time>2024-11-10T13:38:37Z</time>
      </trkpt>
      <trkpt lat="45.89646" lon="1.26824">
        <ele>358.5</ele>
        <time>2024-11-10T13:38:38Z</time>
      </trkpt>
      <trkpt lat="45.89645" lon="1.26829">
        <ele>358.6</ele>
        <time>2024-11-10T13:38:39Z</time>
      </trkpt>
      <trkpt lat="45.89644" lon="1.26834">
        <ele>358.7</ele>
        <time>2024-11-10T13:38:40Z</time>
      </trkpt>
      <trkpt lat="45.89643" lon="1.26838">
        <ele>358.7</ele>
        <time>2024-11-10T13:38:41Z</time>
      </trkpt>
      <trkpt lat="45.89643" lon="1.26843">
        <ele>358.8</ele>
        <time>2024-11-10T13:38:42Z</time>
      </trkpt>
      <trkpt lat="45.89644" lon="1.26848">
        <ele>358.8</ele>
        <time>2024-11-10T13:38:44Z</time>
      </trkpt>
      <trkpt lat="45.89647" lon="1.26852">
        <ele>358.6</ele>
        <time>2024-11-10T13:38:50Z</time>
      </trkpt>
      <trkpt lat="45.89652" lon="1.26854">
        <ele>358.5</ele>
        <time>2024-11-10T13:38:52Z</time>
      </trkpt>
      <trkpt lat="45.89656" lon="1.26855">
        <ele>358.4</ele>
        <time>2024-11-10T13:38:53Z</time>
      </trkpt>
      <trkpt lat="45.8966" lon="1.26856">
        <ele>358.3</ele>
        <time>2024-11-10T13:38:54Z</time>
      </trkpt>
      <trkpt lat="45.89664" lon="1.26857">
        <ele>358.2</ele>
        <time>2024-11-10T13:38:55Z</time>
      </trkpt>
      <trkpt lat="45.89667" lon="1.26858">
        <ele>358.1</ele>
        <time>2024-11-10T13:38:56Z</time>
      </trkpt>
      <trkpt lat="45.89671" lon="1.26859">
        <ele>358</ele>
        <time>2024-11-10T13:38:57Z</time>
      </trkpt>
      <trkpt lat="45.89675" lon="1.26861">
        <ele>357.9</ele>
        <time>2024-11-10T13:38:58Z</time>
      </trkpt>
      <trkpt lat="45.89679" lon="1.26863">
        <ele>357.9</ele>
        <time>2024-11-10T13:38:59Z</time>
      </trkpt>
      <trkpt lat="45.89684" lon="1.26865">
        <ele>357.7</ele>
        <time>2024-11-10T13:39:00Z</time>
      </trkpt>
      <trkpt lat="45.89688" lon="1.26866">
        <ele>357.7</ele>
        <time>2024-11-10T13:39:01Z</time>
      </trkpt>
      <trkpt lat="45.89692" lon="1.26867">
        <ele>357.6</ele>
        <time>2024-11-10T13:39:02Z</time>
      </trkpt>
      <trkpt lat="45.89695" lon="1.26867">
        <ele>357.5</ele>
        <time>2024-11-10T13:39:03Z</time>
      </trkpt>
      <trkpt lat="45.897" lon="1.26868">
        <ele>357.4</ele>
        <time>2024-11-10T13:39:04Z</time>
      </trkpt>
      <trkpt lat="45.89704" lon="1.26867">
        <ele>357.2</ele>
        <time>2024-11-10T13:39:05Z</time>
      </trkpt>
      <trkpt lat="45.89709" lon="1.26868">
        <ele>357</ele>
        <time>2024-11-10T13:39:06Z</time>
      </trkpt>
      <trkpt lat="45.89714" lon="1.26868">
        <ele>356.8</ele>
        <time>2024-11-10T13:39:07Z</time>
      </trkpt>
      <trkpt lat="45.89719" lon="1.2687">
        <ele>356.6</ele>
        <time>2024-11-10T13:39:08Z</time>
      </trkpt>
      <trkpt lat="45.89724" lon="1.2687">
        <ele>356.3</ele>
        <time>2024-11-10T13:39:09Z</time>
      </trkpt>
      <trkpt lat="45.8973" lon="1.2687">
        <ele>356</ele>
        <time>2024-11-10T13:39:10Z</time>
      </trkpt>
      <trkpt lat="45.89735" lon="1.2687">
        <ele>355.7</ele>
        <time>2024-11-10T13:39:11Z</time>
      </trkpt>
      <trkpt lat="45.89741" lon="1.26869">
        <ele>355.3</ele>
        <time>2024-11-10T13:39:12Z</time>
      </trkpt>
      <trkpt lat="45.89746" lon="1.26868">
        <ele>355</ele>
        <time>2024-11-10T13:39:13Z</time>
      </trkpt>
      <trkpt lat="45.89753" lon="1.26867">
        <ele>354.5</ele>
        <time>2024-11-10T13:39:14Z</time>
      </trkpt>
      <trkpt lat="45.89759" lon="1.26867">
        <ele>354</ele>
        <time>2024-11-10T13:39:15Z</time>
      </trkpt>
      <trkpt lat="45.89766" lon="1.26867">
        <ele>353.5</ele>
        <time>2024-11-10T13:39:16Z</time>
      </trkpt>
      <trkpt lat="45.89772" lon="1.26866">
        <ele>353.1</ele>
        <time>2024-11-10T13:39:17Z</time>
      </trkpt>
      <trkpt lat="45.89778" lon="1.26864">
        <ele>352.6</ele>
        <time>2024-11-10T13:39:18Z</time>
      </trkpt>
      <trkpt lat="45.89785" lon="1.26861">
        <ele>351.9</ele>
        <time>2024-11-10T13:39:19Z</time>
      </trkpt>
      <trkpt lat="45.89791" lon="1.26858">
        <ele>351.4</ele>
        <time>2024-11-10T13:39:20Z</time>
      </trkpt>
      <trkpt lat="45.89795" lon="1.26855">
        <ele>350.9</ele>
        <time>2024-11-10T13:39:21Z</time>
      </trkpt>
      <trkpt lat="45.89801" lon="1.26854">
        <ele>350.4</ele>
        <time>2024-11-10T13:39:22Z</time>
      </trkpt>
      <trkpt lat="45.89807" lon="1.26854">
        <ele>349.9</ele>
        <time>2024-11-10T13:39:23Z</time>
      </trkpt>
      <trkpt lat="45.89812" lon="1.26856">
        <ele>349.6</ele>
        <time>2024-11-10T13:39:24Z</time>
      </trkpt>
      <trkpt lat="45.89818" lon="1.26861">
        <ele>349.2</ele>
        <time>2024-11-10T13:39:25Z</time>
      </trkpt>
      <trkpt lat="45.89823" lon="1.26866">
        <ele>349</ele>
        <time>2024-11-10T13:39:26Z</time>
      </trkpt>
      <trkpt lat="45.89828" lon="1.26874">
        <ele>348.8</ele>
        <time>2024-11-10T13:39:27Z</time>
      </trkpt>
      <trkpt lat="45.89831" lon="1.26877">
        <ele>348.7</ele>
        <time>2024-11-10T13:39:28Z</time>
      </trkpt>
      <trkpt lat="45.89836" lon="1.26883">
        <ele>348.7</ele>
        <time>2024-11-10T13:39:29Z</time>
      </trkpt>
      <trkpt lat="45.89841" lon="1.26887">
        <ele>348.7</ele>
        <time>2024-11-10T13:39:30Z</time>
      </trkpt>
      <trkpt lat="45.89845" lon="1.26892">
        <ele>348.7</ele>
        <time>2024-11-10T13:39:31Z</time>
      </trkpt>
      <trkpt lat="45.8985" lon="1.26896">
        <ele>348.7</ele>
        <time>2024-11-10T13:39:32Z</time>
      </trkpt>
      <trkpt lat="45.89855" lon="1.269">
        <ele>348.7</ele>
        <time>2024-11-10T13:39:33Z</time>
      </trkpt>
      <trkpt lat="45.89859" lon="1.26903">
        <ele>348.7</ele>
        <time>2024-11-10T13:39:34Z</time>
      </trkpt>
      <trkpt lat="45.89864" lon="1.26907">
        <ele>348.8</ele>
        <time>2024-11-10T13:39:35Z</time>
      </trkpt>
      <trkpt lat="45.89869" lon="1.26911">
        <ele>348.8</ele>
        <time>2024-11-10T13:39:36Z</time>
      </trkpt>
      <trkpt lat="45.89873" lon="1.26915">
        <ele>348.8</ele>
        <time>2024-11-10T13:39:37Z</time>
      </trkpt>
      <trkpt lat="45.89878" lon="1.26918">
        <ele>348.8</ele>
        <time>2024-11-10T13:39:38Z</time>
      </trkpt>
      <trkpt lat="45.89883" lon="1.26921">
        <ele>348.8</ele>
        <time>2024-11-10T13:39:39Z</time>
      </trkpt>
      <trkpt lat="45.89886" lon="1.26925">
        <ele>348.8</ele>
        <time>2024-11-10T13:39:40Z</time>
      </trkpt>
      <trkpt lat="45.89889" lon="1.2693">
        <ele>348.8</ele>
        <time>2024-11-10T13:39:41Z</time>
      </trkpt>
      <trkpt lat="45.89892" lon="1.26935">
        <ele>348.7</ele>
        <time>2024-11-10T13:39:42Z</time>
      </trkpt>
      <trkpt lat="45.89896" lon="1.26939">
        <ele>348.6</ele>
        <time>2024-11-10T13:39:43Z</time>
      </trkpt>
      <trkpt lat="45.899" lon="1.26944">
        <ele>348.4</ele>
        <time>2024-11-10T13:39:44Z</time>
      </trkpt>
      <trkpt lat="45.89904" lon="1.26948">
        <ele>348.3</ele>
        <time>2024-11-10T13:39:45Z</time>
      </trkpt>
      <trkpt lat="45.89908" lon="1.26952">
        <ele>348</ele>
        <time>2024-11-10T13:39:46Z</time>
      </trkpt>
      <trkpt lat="45.89911" lon="1.26956">
        <ele>347.8</ele>
        <time>2024-11-10T13:39:47Z</time>
      </trkpt>
      <trkpt lat="45.89915" lon="1.2696">
        <ele>347.6</ele>
        <time>2024-11-10T13:39:48Z</time>
      </trkpt>
      <trkpt lat="45.89919" lon="1.26964">
        <ele>347.3</ele>
        <time>2024-11-10T13:39:49Z</time>
      </trkpt>
      <trkpt lat="45.89923" lon="1.26969">
        <ele>347.1</ele>
        <time>2024-11-10T13:39:50Z</time>
      </trkpt>
      <trkpt lat="45.89928" lon="1.26973">
        <ele>346.8</ele>
        <time>2024-11-10T13:39:51Z</time>
      </trkpt>
      <trkpt lat="45.89932" lon="1.26977">
        <ele>346.6</ele>
        <time>2024-11-10T13:39:52Z</time>
      </trkpt>
      <trkpt lat="45.89937" lon="1.26981">
        <ele>346.3</ele>
        <time>2024-11-10T13:39:53Z</time>
      </trkpt>
      <trkpt lat="45.89942" lon="1.26984">
        <ele>346</ele>
        <time>2024-11-10T13:39:54Z</time>
      </trkpt>
      <trkpt lat="45.89948" lon="1.26989">
        <ele>345.5</ele>
        <time>2024-11-10T13:39:55Z</time>
      </trkpt>
      <trkpt lat="45.89953" lon="1.26994">
        <ele>345.1</ele>
        <time>2024-11-10T13:39:56Z</time>
      </trkpt>
      <trkpt lat="45.89957" lon="1.26998">
        <ele>344.7</ele>
        <time>2024-11-10T13:39:57Z</time>
      </trkpt>
      <trkpt lat="45.89962" lon="1.27005">
        <ele>344.2</ele>
        <time>2024-11-10T13:39:58Z</time>
      </trkpt>
      <trkpt lat="45.89966" lon="1.27012">
        <ele>343.8</ele>
        <time>2024-11-10T13:39:59Z</time>
      </trkpt>
      <trkpt lat="45.89969" lon="1.2702">
        <ele>343.4</ele>
        <time>2024-11-10T13:40:00Z</time>
      </trkpt>
      <trkpt lat="45.89972" lon="1.27028">
        <ele>342.9</ele>
        <time>2024-11-10T13:40:01Z</time>
      </trkpt>
      <trkpt lat="45.89975" lon="1.27036">
        <ele>342.5</ele>
        <time>2024-11-10T13:40:02Z</time>
      </trkpt>
      <trkpt lat="45.89978" lon="1.27045">
        <ele>342</ele>
        <time>2024-11-10T13:40:03Z</time>
      </trkpt>
      <trkpt lat="45.89981" lon="1.27053">
        <ele>341.5</ele>
        <time>2024-11-10T13:40:04Z</time>
      </trkpt>
      <trkpt lat="45.89985" lon="1.27062">
        <ele>341</ele>
        <time>2024-11-10T13:40:05Z</time>
      </trkpt>
      <trkpt lat="45.89989" lon="1.27071">
        <ele>340.5</ele>
        <time>2024-11-10T13:40:06Z</time>
      </trkpt>
      <trkpt lat="45.89988" lon="1.27078">
        <ele>340.2</ele>
        <time>2024-11-10T13:40:07Z</time>
      </trkpt>
      <trkpt lat="45.89989" lon="1.27086">
        <ele>339.7</ele>
        <time>2024-11-10T13:40:08Z</time>
      </trkpt>
      <trkpt lat="45.8999" lon="1.27092">
        <ele>339.4</ele>
        <time>2024-11-10T13:40:09Z</time>
      </trkpt>
      <trkpt lat="45.89993" lon="1.271">
        <ele>338.8</ele>
        <time>2024-11-10T13:40:10Z</time>
      </trkpt>
      <trkpt lat="45.89997" lon="1.27107">
        <ele>338.2</ele>
        <time>2024-11-10T13:40:11Z</time>
      </trkpt>
      <trkpt lat="45.89999" lon="1.27114">
        <ele>337.6</ele>
        <time>2024-11-10T13:40:12Z</time>
      </trkpt>
      <trkpt lat="45.90001" lon="1.27121">
        <ele>336.9</ele>
        <time>2024-11-10T13:40:13Z</time>
      </trkpt>
      <trkpt lat="45.90003" lon="1.27129">
        <ele>336.3</ele>
        <time>2024-11-10T13:40:14Z</time>
      </trkpt>
      <trkpt lat="45.90004" lon="1.27137">
        <ele>335.6</ele>
        <time>2024-11-10T13:40:15Z</time>
      </trkpt>
      <trkpt lat="45.90006" lon="1.27145">
        <ele>335</ele>
        <time>2024-11-10T13:40:16Z</time>
      </trkpt>
      <trkpt lat="45.9001" lon="1.27153">
        <ele>334.2</ele>
        <time>2024-11-10T13:40:17Z</time>
      </trkpt>
      <trkpt lat="45.90013" lon="1.2716">
        <ele>333.6</ele>
        <time>2024-11-10T13:40:18Z</time>
      </trkpt>
      <trkpt lat="45.90015" lon="1.27168">
        <ele>333</ele>
        <time>2024-11-10T13:40:19Z</time>
      </trkpt>
      <trkpt lat="45.90018" lon="1.27175">
        <ele>332.3</ele>
        <time>2024-11-10T13:40:20Z</time>
      </trkpt>
      <trkpt lat="45.90021" lon="1.27181">
        <ele>331.8</ele>
        <time>2024-11-10T13:40:21Z</time>
      </trkpt>
      <trkpt lat="45.90023" lon="1.27187">
        <ele>331.3</ele>
        <time>2024-11-10T13:40:22Z</time>
      </trkpt>
      <trkpt lat="45.90026" lon="1.27195">
        <ele>330.7</ele>
        <time>2024-11-10T13:40:23Z</time>
      </trkpt>
      <trkpt lat="45.90028" lon="1.27203">
        <ele>330.3</ele>
        <time>2024-11-10T13:40:24Z</time>
      </trkpt>
      <trkpt lat="45.90029" lon="1.2721">
        <ele>330</ele>
        <time>2024-11-10T13:40:25Z</time>
      </trkpt>
      <trkpt lat="45.90031" lon="1.27216">
        <ele>329.8</ele>
        <time>2024-11-10T13:40:26Z</time>
      </trkpt>
      <trkpt lat="45.90032" lon="1.27222">
        <ele>329.6</ele>
        <time>2024-11-10T13:40:27Z</time>
      </trkpt>
      <trkpt lat="45.90032" lon="1.27229">
        <ele>329.3</ele>
        <time>2024-11-10T13:40:28Z</time>
      </trkpt>
      <trkpt lat="45.90033" lon="1.27235">
        <ele>329.1</ele>
        <time>2024-11-10T13:40:29Z</time>
      </trkpt>
      <trkpt lat="45.90034" lon="1.27241">
        <ele>328.9</ele>
        <time>2024-11-10T13:40:30Z</time>
      </trkpt>
      <trkpt lat="45.90036" lon="1.27245">
        <ele>328.8</ele>
        <time>2024-11-10T13:40:31Z</time>
      </trkpt>
      <trkpt lat="45.90038" lon="1.27249">
        <ele>328.7</ele>
        <time>2024-11-10T13:40:32Z</time>
      </trkpt>
      <trkpt lat="45.9004" lon="1.27254">
        <ele>328.6</ele>
        <time>2024-11-10T13:40:33Z</time>
      </trkpt>
      <trkpt lat="45.90043" lon="1.27258">
        <ele>328.5</ele>
        <time>2024-11-10T13:40:34Z</time>
      </trkpt>
      <trkpt lat="45.90046" lon="1.27261">
        <ele>328.4</ele>
        <time>2024-11-10T13:40:35Z</time>
      </trkpt>
      <trkpt lat="45.9005" lon="1.27265">
        <ele>328.3</ele>
        <time>2024-11-10T13:40:36Z</time>
      </trkpt>
      <trkpt lat="45.90054" lon="1.27268">
        <ele>328.2</ele>
        <time>2024-11-10T13:40:37Z</time>
      </trkpt>
      <trkpt lat="45.90059" lon="1.27271">
        <ele>328.1</ele>
        <time>2024-11-10T13:40:38Z</time>
      </trkpt>
      <trkpt lat="45.90064" lon="1.27275">
        <ele>328.1</ele>
        <time>2024-11-10T13:40:39Z</time>
      </trkpt>
      <trkpt lat="45.9007" lon="1.27276">
        <ele>328</ele>
        <time>2024-11-10T13:40:40Z</time>
      </trkpt>
      <trkpt lat="45.90076" lon="1.27277">
        <ele>328</ele>
        <time>2024-11-10T13:40:41Z</time>
      </trkpt>
      <trkpt lat="45.90082" lon="1.27279">
        <ele>327.8</ele>
        <time>2024-11-10T13:40:42Z</time>
      </trkpt>
      <trkpt lat="45.90088" lon="1.27279">
        <ele>327.5</ele>
        <time>2024-11-10T13:40:43Z</time>
      </trkpt>
      <trkpt lat="45.90094" lon="1.27279">
        <ele>327.3</ele>
        <time>2024-11-10T13:40:44Z</time>
      </trkpt>
      <trkpt lat="45.90099" lon="1.27281">
        <ele>327.1</ele>
        <time>2024-11-10T13:40:45Z</time>
      </trkpt>
      <trkpt lat="45.90105" lon="1.27281">
        <ele>326.9</ele>
        <time>2024-11-10T13:40:46Z</time>
      </trkpt>
      <trkpt lat="45.90112" lon="1.2728">
        <ele>326.6</ele>
        <time>2024-11-10T13:40:47Z</time>
      </trkpt>
      <trkpt lat="45.90118" lon="1.2728">
        <ele>326.5</ele>
        <time>2024-11-10T13:40:48Z</time>
      </trkpt>
      <trkpt lat="45.90123" lon="1.2728">
        <ele>326.4</ele>
        <time>2024-11-10T13:40:49Z</time>
      </trkpt>
      <trkpt lat="45.90128" lon="1.27279">
        <ele>326.3</ele>
        <time>2024-11-10T13:40:50Z</time>
      </trkpt>
      <trkpt lat="45.90134" lon="1.27279">
        <ele>326.3</ele>
        <time>2024-11-10T13:40:51Z</time>
      </trkpt>
      <trkpt lat="45.90139" lon="1.27278">
        <ele>326.3</ele>
        <time>2024-11-10T13:40:52Z</time>
      </trkpt>
      <trkpt lat="45.90145" lon="1.27278">
        <ele>326.4</ele>
        <time>2024-11-10T13:40:53Z</time>
      </trkpt>
      <trkpt lat="45.90151" lon="1.27278">
        <ele>326.6</ele>
        <time>2024-11-10T13:40:54Z</time>
      </trkpt>
      <trkpt lat="45.90157" lon="1.27278">
        <ele>326.9</ele>
        <time>2024-11-10T13:40:55Z</time>
      </trkpt>
      <trkpt lat="45.90163" lon="1.27278">
        <ele>327.2</ele>
        <time>2024-11-10T13:40:56Z</time>
      </trkpt>
      <trkpt lat="45.90169" lon="1.27277">
        <ele>327.6</ele>
        <time>2024-11-10T13:40:57Z</time>
      </trkpt>
      <trkpt lat="45.90174" lon="1.27277">
        <ele>328</ele>
        <time>2024-11-10T13:40:58Z</time>
      </trkpt>
      <trkpt lat="45.90179" lon="1.27276">
        <ele>328.5</ele>
        <time>2024-11-10T13:40:59Z</time>
      </trkpt>
      <trkpt lat="45.90183" lon="1.27275">
        <ele>328.9</ele>
        <time>2024-11-10T13:41:00Z</time>
      </trkpt>
      <trkpt lat="45.90188" lon="1.27275">
        <ele>329.4</ele>
        <time>2024-11-10T13:41:01Z</time>
      </trkpt>
      <trkpt lat="45.90192" lon="1.27275">
        <ele>329.8</ele>
        <time>2024-11-10T13:41:02Z</time>
      </trkpt>
      <trkpt lat="45.90197" lon="1.27275">
        <ele>330.2</ele>
        <time>2024-11-10T13:41:03Z</time>
      </trkpt>
      <trkpt lat="45.90201" lon="1.27275">
        <ele>330.6</ele>
        <time>2024-11-10T13:41:04Z</time>
      </trkpt>
      <trkpt lat="45.90205" lon="1.27275">
        <ele>331</ele>
        <time>2024-11-10T13:41:05Z</time>
      </trkpt>
      <trkpt lat="45.90209" lon="1.27274">
        <ele>331.4</ele>
        <time>2024-11-10T13:41:06Z</time>
      </trkpt>
      <trkpt lat="45.90213" lon="1.27274">
        <ele>331.7</ele>
        <time>2024-11-10T13:41:07Z</time>
      </trkpt>
      <trkpt lat="45.90217" lon="1.27274">
        <ele>332.1</ele>
        <time>2024-11-10T13:41:08Z</time>
      </trkpt>
      <trkpt lat="45.90221" lon="1.27274">
        <ele>332.4</ele>
        <time>2024-11-10T13:41:09Z</time>
      </trkpt>
      <trkpt lat="45.90225" lon="1.27275">
        <ele>332.7</ele>
        <time>2024-11-10T13:41:10Z</time>
      </trkpt>
      <trkpt lat="45.90229" lon="1.27275">
        <ele>333</ele>
        <time>2024-11-10T13:41:11Z</time>
      </trkpt>
      <trkpt lat="45.90234" lon="1.27276">
        <ele>333.3</ele>
        <time>2024-11-10T13:41:12Z</time>
      </trkpt>
      <trkpt lat="45.90238" lon="1.27277">
        <ele>333.6</ele>
        <time>2024-11-10T13:41:13Z</time>
      </trkpt>
      <trkpt lat="45.90242" lon="1.27278">
        <ele>333.9</ele>
        <time>2024-11-10T13:41:14Z</time>
      </trkpt>
      <trkpt lat="45.90246" lon="1.27279">
        <ele>334.1</ele>
        <time>2024-11-10T13:41:15Z</time>
      </trkpt>
      <trkpt lat="45.90251" lon="1.2728">
        <ele>334.4</ele>
        <time>2024-11-10T13:41:16Z</time>
      </trkpt>
      <trkpt lat="45.90255" lon="1.27282">
        <ele>334.7</ele>
        <time>2024-11-10T13:41:17Z</time>
      </trkpt>
      <trkpt lat="45.90259" lon="1.27287">
        <ele>335</ele>
        <time>2024-11-10T13:41:18Z</time>
      </trkpt>
      <trkpt lat="45.90263" lon="1.2729">
        <ele>335.2</ele>
        <time>2024-11-10T13:41:19Z</time>
      </trkpt>
      <trkpt lat="45.90267" lon="1.27292">
        <ele>335.4</ele>
        <time>2024-11-10T13:41:20Z</time>
      </trkpt>
      <trkpt lat="45.90271" lon="1.27294">
        <ele>335.7</ele>
        <time>2024-11-10T13:41:21Z</time>
      </trkpt>
      <trkpt lat="45.90274" lon="1.27297">
        <ele>335.9</ele>
        <time>2024-11-10T13:41:22Z</time>
      </trkpt>
      <trkpt lat="45.90278" lon="1.27298">
        <ele>336.1</ele>
        <time>2024-11-10T13:41:23Z</time>
      </trkpt>
      <trkpt lat="45.90282" lon="1.27299">
        <ele>336.3</ele>
        <time>2024-11-10T13:41:24Z</time>
      </trkpt>
      <trkpt lat="45.90285" lon="1.273">
        <ele>336.5</ele>
        <time>2024-11-10T13:41:25Z</time>
      </trkpt>
      <trkpt lat="45.90289" lon="1.27301">
        <ele>336.7</ele>
        <time>2024-11-10T13:41:26Z</time>
      </trkpt>
      <trkpt lat="45.90292" lon="1.27303">
        <ele>336.9</ele>
        <time>2024-11-10T13:41:27Z</time>
      </trkpt>
      <trkpt lat="45.90296" lon="1.27304">
        <ele>337.1</ele>
        <time>2024-11-10T13:41:28Z</time>
      </trkpt>
      <trkpt lat="45.90299" lon="1.27306">
        <ele>337.3</ele>
        <time>2024-11-10T13:41:29Z</time>
      </trkpt>
      <trkpt lat="45.90302" lon="1.27307">
        <ele>337.4</ele>
        <time>2024-11-10T13:41:30Z</time>
      </trkpt>
      <trkpt lat="45.90305" lon="1.27308">
        <ele>337.6</ele>
        <time>2024-11-10T13:41:31Z</time>
      </trkpt>
      <trkpt lat="45.90309" lon="1.27308">
        <ele>337.8</ele>
        <time>2024-11-10T13:41:32Z</time>
      </trkpt>
      <trkpt lat="45.90312" lon="1.27309">
        <ele>337.9</ele>
        <time>2024-11-10T13:41:33Z</time>
      </trkpt>
      <trkpt lat="45.90315" lon="1.2731">
        <ele>338.1</ele>
        <time>2024-11-10T13:41:34Z</time>
      </trkpt>
      <trkpt lat="45.90318" lon="1.2731">
        <ele>338.3</ele>
        <time>2024-11-10T13:41:35Z</time>
      </trkpt>
      <trkpt lat="45.90321" lon="1.2731">
        <ele>338.4</ele>
        <time>2024-11-10T13:41:36Z</time>
      </trkpt>
      <trkpt lat="45.90325" lon="1.27309">
        <ele>338.7</ele>
        <time>2024-11-10T13:41:38Z</time>
      </trkpt>
      <trkpt lat="45.90329" lon="1.27308">
        <ele>338.9</ele>
        <time>2024-11-10T13:41:39Z</time>
      </trkpt>
      <trkpt lat="45.90332" lon="1.27308">
        <ele>339.1</ele>
        <time>2024-11-10T13:41:40Z</time>
      </trkpt>
      <trkpt lat="45.90335" lon="1.27307">
        <ele>339.3</ele>
        <time>2024-11-10T13:41:41Z</time>
      </trkpt>
      <trkpt lat="45.90338" lon="1.27306">
        <ele>339.4</ele>
        <time>2024-11-10T13:41:42Z</time>
      </trkpt>
      <trkpt lat="45.90341" lon="1.27305">
        <ele>339.6</ele>
        <time>2024-11-10T13:41:43Z</time>
      </trkpt>
      <trkpt lat="45.90343" lon="1.27304">
        <ele>339.7</ele>
        <time>2024-11-10T13:41:44Z</time>
      </trkpt>
      <trkpt lat="45.90346" lon="1.27304">
        <ele>339.9</ele>
        <time>2024-11-10T13:41:45Z</time>
      </trkpt>
      <trkpt lat="45.90349" lon="1.27303">
        <ele>340.1</ele>
        <time>2024-11-10T13:41:46Z</time>
      </trkpt>
      <trkpt lat="45.90352" lon="1.27302">
        <ele>340.3</ele>
        <time>2024-11-10T13:41:47Z</time>
      </trkpt>
      <trkpt lat="45.90356" lon="1.27301">
        <ele>340.5</ele>
        <time>2024-11-10T13:41:49Z</time>
      </trkpt>
      <trkpt lat="45.90361" lon="1.27299">
        <ele>340.8</ele>
        <time>2024-11-10T13:41:51Z</time>
      </trkpt>
      <trkpt lat="45.90364" lon="1.27298">
        <ele>341</ele>
        <time>2024-11-10T13:41:52Z</time>
      </trkpt>
      <trkpt lat="45.90368" lon="1.27296">
        <ele>341.2</ele>
        <time>2024-11-10T13:41:54Z</time>
      </trkpt>
      <trkpt lat="45.90371" lon="1.27294">
        <ele>341.4</ele>
        <time>2024-11-10T13:41:55Z</time>
      </trkpt>
      <trkpt lat="45.90376" lon="1.27292">
        <ele>341.7</ele>
        <time>2024-11-10T13:41:57Z</time>
      </trkpt>
      <trkpt lat="45.90379" lon="1.27291">
        <ele>341.9</ele>
        <time>2024-11-10T13:41:58Z</time>
      </trkpt>
      <trkpt lat="45.90384" lon="1.27289">
        <ele>342.1</ele>
        <time>2024-11-10T13:42:00Z</time>
      </trkpt>
      <trkpt lat="45.90387" lon="1.27288">
        <ele>342.3</ele>
        <time>2024-11-10T13:42:01Z</time>
      </trkpt>
      <trkpt lat="45.90391" lon="1.27288">
        <ele>342.5</ele>
        <time>2024-11-10T13:42:02Z</time>
      </trkpt>
      <trkpt lat="45.90394" lon="1.27287">
        <ele>342.6</ele>
        <time>2024-11-10T13:42:03Z</time>
      </trkpt>
      <trkpt lat="45.90397" lon="1.27287">
        <ele>342.8</ele>
        <time>2024-11-10T13:42:04Z</time>
      </trkpt>
      <trkpt lat="45.904" lon="1.27287">
        <ele>342.9</ele>
        <time>2024-11-10T13:42:05Z</time>
      </trkpt>
      <trkpt lat="45.90403" lon="1.27287">
        <ele>343.1</ele>
        <time>2024-11-10T13:42:06Z</time>
      </trkpt>
      <trkpt lat="45.90407" lon="1.27287">
        <ele>343.2</ele>
        <time>2024-11-10T13:42:08Z</time>
      </trkpt>
      <trkpt lat="45.90411" lon="1.27287">
        <ele>343.4</ele>
        <time>2024-11-10T13:42:09Z</time>
      </trkpt>
      <trkpt lat="45.90414" lon="1.27287">
        <ele>343.5</ele>
        <time>2024-11-10T13:42:10Z</time>
      </trkpt>
      <trkpt lat="45.90417" lon="1.27287">
        <ele>343.6</ele>
        <time>2024-11-10T13:42:11Z</time>
      </trkpt>
      <trkpt lat="45.9042" lon="1.27287">
        <ele>343.8</ele>
        <time>2024-11-10T13:42:12Z</time>
      </trkpt>
      <trkpt lat="45.90423" lon="1.27287">
        <ele>343.9</ele>
        <time>2024-11-10T13:42:13Z</time>
      </trkpt>
      <trkpt lat="45.90426" lon="1.27287">
        <ele>344</ele>
        <time>2024-11-10T13:42:14Z</time>
      </trkpt>
      <trkpt lat="45.9043" lon="1.27288">
        <ele>344.1</ele>
        <time>2024-11-10T13:42:16Z</time>
      </trkpt>
      <trkpt lat="45.90435" lon="1.27289">
        <ele>344.3</ele>
        <time>2024-11-10T13:42:18Z</time>
      </trkpt>
      <trkpt lat="45.9044" lon="1.2729">
        <ele>344.5</ele>
        <time>2024-11-10T13:42:20Z</time>
      </trkpt>
      <trkpt lat="45.90445" lon="1.2729">
        <ele>344.7</ele>
        <time>2024-11-10T13:42:22Z</time>
      </trkpt>
      <trkpt lat="45.9045" lon="1.2729">
        <ele>344.8</ele>
        <time>2024-11-10T13:42:24Z</time>
      </trkpt>
      <trkpt lat="45.90454" lon="1.27291">
        <ele>345</ele>
        <time>2024-11-10T13:42:25Z</time>
      </trkpt>
      <trkpt lat="45.90457" lon="1.27291">
        <ele>345</ele>
        <time>2024-11-10T13:42:26Z</time>
      </trkpt>
      <trkpt lat="45.9046" lon="1.27292">
        <ele>345.1</ele>
        <time>2024-11-10T13:42:27Z</time>
      </trkpt>
      <trkpt lat="45.90463" lon="1.27292">
        <ele>345.2</ele>
        <time>2024-11-10T13:42:28Z</time>
      </trkpt>
      <trkpt lat="45.90467" lon="1.27292">
        <ele>345.3</ele>
        <time>2024-11-10T13:42:29Z</time>
      </trkpt>
      <trkpt lat="45.9047" lon="1.27292">
        <ele>345.3</ele>
        <time>2024-11-10T13:42:30Z</time>
      </trkpt>
      <trkpt lat="45.90473" lon="1.27292">
        <ele>345.4</ele>
        <time>2024-11-10T13:42:31Z</time>
      </trkpt>
      <trkpt lat="45.90476" lon="1.27293">
        <ele>345.5</ele>
        <time>2024-11-10T13:42:32Z</time>
      </trkpt>
      <trkpt lat="45.90479" lon="1.27293">
        <ele>345.6</ele>
        <time>2024-11-10T13:42:33Z</time>
      </trkpt>
      <trkpt lat="45.90481" lon="1.27294">
        <ele>345.6</ele>
        <time>2024-11-10T13:42:34Z</time>
      </trkpt>
      <trkpt lat="45.90486" lon="1.27294">
        <ele>345.7</ele>
        <time>2024-11-10T13:42:36Z</time>
      </trkpt>
      <trkpt lat="45.90491" lon="1.27294">
        <ele>345.9</ele>
        <time>2024-11-10T13:42:38Z</time>
      </trkpt>
      <trkpt lat="45.90494" lon="1.27294">
        <ele>345.9</ele>
        <time>2024-11-10T13:42:39Z</time>
      </trkpt>
      <trkpt lat="45.90497" lon="1.27293">
        <ele>346</ele>
        <time>2024-11-10T13:42:40Z</time>
      </trkpt>
      <trkpt lat="45.905" lon="1.27293">
        <ele>346.1</ele>
        <time>2024-11-10T13:42:41Z</time>
      </trkpt>
      <trkpt lat="45.90503" lon="1.27293">
        <ele>346.2</ele>
        <time>2024-11-10T13:42:42Z</time>
      </trkpt>
      <trkpt lat="45.90506" lon="1.27293">
        <ele>346.2</ele>
        <time>2024-11-10T13:42:43Z</time>
      </trkpt>
      <trkpt lat="45.90509" lon="1.27293">
        <ele>346.3</ele>
        <time>2024-11-10T13:42:44Z</time>
      </trkpt>
      <trkpt lat="45.90512" lon="1.27294">
        <ele>346.4</ele>
        <time>2024-11-10T13:42:45Z</time>
      </trkpt>
      <trkpt lat="45.90516" lon="1.27293">
        <ele>346.5</ele>
        <time>2024-11-10T13:42:47Z</time>
      </trkpt>
      <trkpt lat="45.9052" lon="1.27292">
        <ele>346.6</ele>
        <time>2024-11-10T13:42:48Z</time>
      </trkpt>
      <trkpt lat="45.90523" lon="1.27292">
        <ele>346.7</ele>
        <time>2024-11-10T13:42:49Z</time>
      </trkpt>
      <trkpt lat="45.90526" lon="1.27292">
        <ele>346.8</ele>
        <time>2024-11-10T13:42:50Z</time>
      </trkpt>
      <trkpt lat="45.90529" lon="1.27292">
        <ele>346.9</ele>
        <time>2024-11-10T13:42:51Z</time>
      </trkpt>
      <trkpt lat="45.90532" lon="1.27292">
        <ele>346.9</ele>
        <time>2024-11-10T13:42:52Z</time>
      </trkpt>
      <trkpt lat="45.90535" lon="1.27292">
        <ele>347</ele>
        <time>2024-11-10T13:42:53Z</time>
      </trkpt>
      <trkpt lat="45.90538" lon="1.27291">
        <ele>347.1</ele>
        <time>2024-11-10T13:42:54Z</time>
      </trkpt>
      <trkpt lat="45.90541" lon="1.27291">
        <ele>347.2</ele>
        <time>2024-11-10T13:42:55Z</time>
      </trkpt>
      <trkpt lat="45.90544" lon="1.27291">
        <ele>347.3</ele>
        <time>2024-11-10T13:42:56Z</time>
      </trkpt>
      <trkpt lat="45.90548" lon="1.2729">
        <ele>347.4</ele>
        <time>2024-11-10T13:42:57Z</time>
      </trkpt>
      <trkpt lat="45.90551" lon="1.27289">
        <ele>347.5</ele>
        <time>2024-11-10T13:42:58Z</time>
      </trkpt>
      <trkpt lat="45.90554" lon="1.27288">
        <ele>347.6</ele>
        <time>2024-11-10T13:42:59Z</time>
      </trkpt>
      <trkpt lat="45.90557" lon="1.27288">
        <ele>347.7</ele>
        <time>2024-11-10T13:43:00Z</time>
      </trkpt>
      <trkpt lat="45.9056" lon="1.27287">
        <ele>347.8</ele>
        <time>2024-11-10T13:43:01Z</time>
      </trkpt>
      <trkpt lat="45.90563" lon="1.27286">
        <ele>347.8</ele>
        <time>2024-11-10T13:43:02Z</time>
      </trkpt>
      <trkpt lat="45.90566" lon="1.27285">
        <ele>347.9</ele>
        <time>2024-11-10T13:43:03Z</time>
      </trkpt>
      <trkpt lat="45.9057" lon="1.27285">
        <ele>348</ele>
        <time>2024-11-10T13:43:04Z</time>
      </trkpt>
      <trkpt lat="45.90573" lon="1.27284">
        <ele>348.1</ele>
        <time>2024-11-10T13:43:05Z</time>
      </trkpt>
      <trkpt lat="45.90576" lon="1.27283">
        <ele>348.1</ele>
        <time>2024-11-10T13:43:06Z</time>
      </trkpt>
      <trkpt lat="45.90579" lon="1.27282">
        <ele>348.2</ele>
        <time>2024-11-10T13:43:07Z</time>
      </trkpt>
      <trkpt lat="45.90582" lon="1.27281">
        <ele>348.2</ele>
        <time>2024-11-10T13:43:08Z</time>
      </trkpt>
      <trkpt lat="45.90585" lon="1.2728">
        <ele>348.3</ele>
        <time>2024-11-10T13:43:09Z</time>
      </trkpt>
      <trkpt lat="45.90588" lon="1.27279">
        <ele>348.3</ele>
        <time>2024-11-10T13:43:10Z</time>
      </trkpt>
      <trkpt lat="45.90591" lon="1.27278">
        <ele>348.4</ele>
        <time>2024-11-10T13:43:11Z</time>
      </trkpt>
      <trkpt lat="45.90594" lon="1.27277">
        <ele>348.4</ele>
        <time>2024-11-10T13:43:12Z</time>
      </trkpt>
      <trkpt lat="45.90597" lon="1.27276">
        <ele>348.4</ele>
        <time>2024-11-10T13:43:13Z</time>
      </trkpt>
      <trkpt lat="45.906" lon="1.27275">
        <ele>348.4</ele>
        <time>2024-11-10T13:43:14Z</time>
      </trkpt>
      <trkpt lat="45.90603" lon="1.27274">
        <ele>348.5</ele>
        <time>2024-11-10T13:43:15Z</time>
      </trkpt>
      <trkpt lat="45.90607" lon="1.27273">
        <ele>348.5</ele>
        <time>2024-11-10T13:43:16Z</time>
      </trkpt>
      <trkpt lat="45.9061" lon="1.27272">
        <ele>348.5</ele>
        <time>2024-11-10T13:43:17Z</time>
      </trkpt>
      <trkpt lat="45.90613" lon="1.27271">
        <ele>348.5</ele>
        <time>2024-11-10T13:43:18Z</time>
      </trkpt>
      <trkpt lat="45.90617" lon="1.2727">
        <ele>348.4</ele>
        <time>2024-11-10T13:43:19Z</time>
      </trkpt>
      <trkpt lat="45.90621" lon="1.27269">
        <ele>348.4</ele>
        <time>2024-11-10T13:43:20Z</time>
      </trkpt>
      <trkpt lat="45.90624" lon="1.27268">
        <ele>348.4</ele>
        <time>2024-11-10T13:43:21Z</time>
      </trkpt>
      <trkpt lat="45.90628" lon="1.27267">
        <ele>348.4</ele>
        <time>2024-11-10T13:43:22Z</time>
      </trkpt>
      <trkpt lat="45.90632" lon="1.27266">
        <ele>348.4</ele>
        <time>2024-11-10T13:43:23Z</time>
      </trkpt>
      <trkpt lat="45.90635" lon="1.27265">
        <ele>348.4</ele>
        <time>2024-11-10T13:43:24Z</time>
      </trkpt>
      <trkpt lat="45.90638" lon="1.27265">
        <ele>348.4</ele>
        <time>2024-11-10T13:43:25Z</time>
      </trkpt>
      <trkpt lat="45.90642" lon="1.27264">
        <ele>348.4</ele>
        <time>2024-11-10T13:43:26Z</time>
      </trkpt>
      <trkpt lat="45.90646" lon="1.27263">
        <ele>348.4</ele>
        <time>2024-11-10T13:43:27Z</time>
      </trkpt>
      <trkpt lat="45.90649" lon="1.27262">
        <ele>348.4</ele>
        <time>2024-11-10T13:43:28Z</time>
      </trkpt>
      <trkpt lat="45.90653" lon="1.27261">
        <ele>348.4</ele>
        <time>2024-11-10T13:43:29Z</time>
      </trkpt>
      <trkpt lat="45.90657" lon="1.2726">
        <ele>348.4</ele>
        <time>2024-11-10T13:43:30Z</time>
      </trkpt>
      <trkpt lat="45.9066" lon="1.27259">
        <ele>348.3</ele>
        <time>2024-11-10T13:43:31Z</time>
      </trkpt>
      <trkpt lat="45.90664" lon="1.27258">
        <ele>348.3</ele>
        <time>2024-11-10T13:43:32Z</time>
      </trkpt>
      <trkpt lat="45.90668" lon="1.27257">
        <ele>348.3</ele>
        <time>2024-11-10T13:43:33Z</time>
      </trkpt>
      <trkpt lat="45.90672" lon="1.27257">
        <ele>348.3</ele>
        <time>2024-11-10T13:43:34Z</time>
      </trkpt>
      <trkpt lat="45.90676" lon="1.27256">
        <ele>348.3</ele>
        <time>2024-11-10T13:43:35Z</time>
      </trkpt>
      <trkpt lat="45.90679" lon="1.27256">
        <ele>348.3</ele>
        <time>2024-11-10T13:43:36Z</time>
      </trkpt>
      <trkpt lat="45.90683" lon="1.27255">
        <ele>348.3</ele>
        <time>2024-11-10T13:43:37Z</time>
      </trkpt>
      <trkpt lat="45.90687" lon="1.27255">
        <ele>348.3</ele>
        <time>2024-11-10T13:43:38Z</time>
      </trkpt>
      <trkpt lat="45.90691" lon="1.27254">
        <ele>348.3</ele>
        <time>2024-11-10T13:43:39Z</time>
      </trkpt>
      <trkpt lat="45.90695" lon="1.27253">
        <ele>348.3</ele>
        <time>2024-11-10T13:43:40Z</time>
      </trkpt>
      <trkpt lat="45.90699" lon="1.27252">
        <ele>348.2</ele>
        <time>2024-11-10T13:43:41Z</time>
      </trkpt>
      <trkpt lat="45.90703" lon="1.27251">
        <ele>348.2</ele>
        <time>2024-11-10T13:43:42Z</time>
      </trkpt>
      <trkpt lat="45.90707" lon="1.2725">
        <ele>348.2</ele>
        <time>2024-11-10T13:43:43Z</time>
      </trkpt>
      <trkpt lat="45.90711" lon="1.27249">
        <ele>348.2</ele>
        <time>2024-11-10T13:43:44Z</time>
      </trkpt>
      <trkpt lat="45.90715" lon="1.27248">
        <ele>348.2</ele>
        <time>2024-11-10T13:43:45Z</time>
      </trkpt>
      <trkpt lat="45.90719" lon="1.27248">
        <ele>348.2</ele>
        <time>2024-11-10T13:43:46Z</time>
      </trkpt>
      <trkpt lat="45.90723" lon="1.27246">
        <ele>348.2</ele>
        <time>2024-11-10T13:43:47Z</time>
      </trkpt>
      <trkpt lat="45.90727" lon="1.27245">
        <ele>348.2</ele>
        <time>2024-11-10T13:43:48Z</time>
      </trkpt>
      <trkpt lat="45.9073" lon="1.27244">
        <ele>348.2</ele>
        <time>2024-11-10T13:43:49Z</time>
      </trkpt>
      <trkpt lat="45.90733" lon="1.27242">
        <ele>348.3</ele>
        <time>2024-11-10T13:43:50Z</time>
      </trkpt>
      <trkpt lat="45.90737" lon="1.27241">
        <ele>348.4</ele>
        <time>2024-11-10T13:43:52Z</time>
      </trkpt>
      <trkpt lat="45.90742" lon="1.27238">
        <ele>348.4</ele>
        <time>2024-11-10T13:43:54Z</time>
      </trkpt>
      <trkpt lat="45.90746" lon="1.27235">
        <ele>348.6</ele>
        <time>2024-11-10T13:43:55Z</time>
      </trkpt>
      <trkpt lat="45.90749" lon="1.27233">
        <ele>348.7</ele>
        <time>2024-11-10T13:43:56Z</time>
      </trkpt>
      <trkpt lat="45.90752" lon="1.2723">
        <ele>348.8</ele>
        <time>2024-11-10T13:43:57Z</time>
      </trkpt>
      <trkpt lat="45.90757" lon="1.27228">
        <ele>349.1</ele>
        <time>2024-11-10T13:43:59Z</time>
      </trkpt>
      <trkpt lat="45.9076" lon="1.27227">
        <ele>349.3</ele>
        <time>2024-11-10T13:44:00Z</time>
      </trkpt>
      <trkpt lat="45.90764" lon="1.27226">
        <ele>349.5</ele>
        <time>2024-11-10T13:44:02Z</time>
      </trkpt>
      <trkpt lat="45.90769" lon="1.27225">
        <ele>349.8</ele>
        <time>2024-11-10T13:44:04Z</time>
      </trkpt>
      <trkpt lat="45.90773" lon="1.27223">
        <ele>350.1</ele>
        <time>2024-11-10T13:44:05Z</time>
      </trkpt>
      <trkpt lat="45.90776" lon="1.27221">
        <ele>350.3</ele>
        <time>2024-11-10T13:44:06Z</time>
      </trkpt>
      <trkpt lat="45.90779" lon="1.27219">
        <ele>350.4</ele>
        <time>2024-11-10T13:44:07Z</time>
      </trkpt>
      <trkpt lat="45.90782" lon="1.27218">
        <ele>350.6</ele>
        <time>2024-11-10T13:44:08Z</time>
      </trkpt>
      <trkpt lat="45.90785" lon="1.27216">
        <ele>350.8</ele>
        <time>2024-11-10T13:44:09Z</time>
      </trkpt>
      <trkpt lat="45.90788" lon="1.27215">
        <ele>350.9</ele>
        <time>2024-11-10T13:44:10Z</time>
      </trkpt>
      <trkpt lat="45.90791" lon="1.27213">
        <ele>351</ele>
        <time>2024-11-10T13:44:11Z</time>
      </trkpt>
      <trkpt lat="45.90794" lon="1.27212">
        <ele>351.1</ele>
        <time>2024-11-10T13:44:12Z</time>
      </trkpt>
      <trkpt lat="45.90798" lon="1.2721">
        <ele>351.2</ele>
        <time>2024-11-10T13:44:13Z</time>
      </trkpt>
      <trkpt lat="45.90801" lon="1.27208">
        <ele>351.3</ele>
        <time>2024-11-10T13:44:14Z</time>
      </trkpt>
      <trkpt lat="45.90804" lon="1.27207">
        <ele>351.4</ele>
        <time>2024-11-10T13:44:15Z</time>
      </trkpt>
      <trkpt lat="45.90807" lon="1.27205">
        <ele>351.5</ele>
        <time>2024-11-10T13:44:16Z</time>
      </trkpt>
      <trkpt lat="45.9081" lon="1.27203">
        <ele>351.6</ele>
        <time>2024-11-10T13:44:17Z</time>
      </trkpt>
      <trkpt lat="45.90813" lon="1.27201">
        <ele>351.7</ele>
        <time>2024-11-10T13:44:18Z</time>
      </trkpt>
      <trkpt lat="45.90817" lon="1.27199">
        <ele>351.8</ele>
        <time>2024-11-10T13:44:19Z</time>
      </trkpt>
      <trkpt lat="45.90821" lon="1.27197">
        <ele>351.9</ele>
        <time>2024-11-10T13:44:20Z</time>
      </trkpt>
      <trkpt lat="45.90824" lon="1.27195">
        <ele>352</ele>
        <time>2024-11-10T13:44:21Z</time>
      </trkpt>
      <trkpt lat="45.90828" lon="1.27194">
        <ele>352.1</ele>
        <time>2024-11-10T13:44:22Z</time>
      </trkpt>
      <trkpt lat="45.90831" lon="1.27192">
        <ele>352.2</ele>
        <time>2024-11-10T13:44:23Z</time>
      </trkpt>
      <trkpt lat="45.90835" lon="1.27191">
        <ele>352.4</ele>
        <time>2024-11-10T13:44:24Z</time>
      </trkpt>
      <trkpt lat="45.90838" lon="1.2719">
        <ele>352.5</ele>
        <time>2024-11-10T13:44:25Z</time>
      </trkpt>
      <trkpt lat="45.90841" lon="1.27189">
        <ele>352.6</ele>
        <time>2024-11-10T13:44:26Z</time>
      </trkpt>
      <trkpt lat="45.90844" lon="1.27188">
        <ele>352.7</ele>
        <time>2024-11-10T13:44:27Z</time>
      </trkpt>
      <trkpt lat="45.90847" lon="1.27187">
        <ele>352.8</ele>
        <time>2024-11-10T13:44:28Z</time>
      </trkpt>
      <trkpt lat="45.9085" lon="1.27183">
        <ele>353</ele>
        <time>2024-11-10T13:44:30Z</time>
      </trkpt>
      <trkpt lat="45.90853" lon="1.2718">
        <ele>353.1</ele>
        <time>2024-11-10T13:44:31Z</time>
      </trkpt>
      <trkpt lat="45.90856" lon="1.27177">
        <ele>353.3</ele>
        <time>2024-11-10T13:44:32Z</time>
      </trkpt>
      <trkpt lat="45.90858" lon="1.27174">
        <ele>353.4</ele>
        <time>2024-11-10T13:44:33Z</time>
      </trkpt>
      <trkpt lat="45.90861" lon="1.27172">
        <ele>353.5</ele>
        <time>2024-11-10T13:44:34Z</time>
      </trkpt>
      <trkpt lat="45.90864" lon="1.27169">
        <ele>353.7</ele>
        <time>2024-11-10T13:44:35Z</time>
      </trkpt>
      <trkpt lat="45.90868" lon="1.27168">
        <ele>353.9</ele>
        <time>2024-11-10T13:44:36Z</time>
      </trkpt>
      <trkpt lat="45.90871" lon="1.27166">
        <ele>354</ele>
        <time>2024-11-10T13:44:37Z</time>
      </trkpt>
      <trkpt lat="45.90874" lon="1.27164">
        <ele>354.2</ele>
        <time>2024-11-10T13:44:38Z</time>
      </trkpt>
      <trkpt lat="45.90877" lon="1.27162">
        <ele>354.4</ele>
        <time>2024-11-10T13:44:39Z</time>
      </trkpt>
      <trkpt lat="45.9088" lon="1.2716">
        <ele>354.6</ele>
        <time>2024-11-10T13:44:40Z</time>
      </trkpt>
      <trkpt lat="45.90883" lon="1.27157">
        <ele>354.8</ele>
        <time>2024-11-10T13:44:41Z</time>
      </trkpt>
      <trkpt lat="45.90886" lon="1.27154">
        <ele>355</ele>
        <time>2024-11-10T13:44:43Z</time>
      </trkpt>
      <trkpt lat="45.9089" lon="1.2715">
        <ele>355.2</ele>
        <time>2024-11-10T13:44:45Z</time>
      </trkpt>
      <trkpt lat="45.90893" lon="1.27147">
        <ele>355.4</ele>
        <time>2024-11-10T13:44:46Z</time>
      </trkpt>
      <trkpt lat="45.90896" lon="1.27144">
        <ele>355.6</ele>
        <time>2024-11-10T13:44:47Z</time>
      </trkpt>
      <trkpt lat="45.909" lon="1.27141">
        <ele>355.9</ele>
        <time>2024-11-10T13:44:49Z</time>
      </trkpt>
      <trkpt lat="45.90904" lon="1.27138">
        <ele>356.1</ele>
        <time>2024-11-10T13:44:50Z</time>
      </trkpt>
      <trkpt lat="45.90906" lon="1.27135">
        <ele>356.2</ele>
        <time>2024-11-10T13:44:51Z</time>
      </trkpt>
      <trkpt lat="45.90909" lon="1.27132">
        <ele>356.4</ele>
        <time>2024-11-10T13:44:52Z</time>
      </trkpt>
      <trkpt lat="45.90912" lon="1.27128">
        <ele>356.6</ele>
        <time>2024-11-10T13:44:53Z</time>
      </trkpt>
      <trkpt lat="45.90915" lon="1.27124">
        <ele>356.8</ele>
        <time>2024-11-10T13:44:54Z</time>
      </trkpt>
      <trkpt lat="45.90918" lon="1.27121">
        <ele>357</ele>
        <time>2024-11-10T13:44:55Z</time>
      </trkpt>
      <trkpt lat="45.9092" lon="1.27118">
        <ele>357.2</ele>
        <time>2024-11-10T13:44:56Z</time>
      </trkpt>
      <trkpt lat="45.90922" lon="1.27114">
        <ele>357.4</ele>
        <time>2024-11-10T13:44:57Z</time>
      </trkpt>
      <trkpt lat="45.90924" lon="1.27111">
        <ele>357.5</ele>
        <time>2024-11-10T13:44:58Z</time>
      </trkpt>
      <trkpt lat="45.90928" lon="1.27106">
        <ele>357.8</ele>
        <time>2024-11-10T13:45:00Z</time>
      </trkpt>
      <trkpt lat="45.9093" lon="1.27103">
        <ele>357.9</ele>
        <time>2024-11-10T13:45:01Z</time>
      </trkpt>
      <trkpt lat="45.90933" lon="1.27101">
        <ele>358.1</ele>
        <time>2024-11-10T13:45:02Z</time>
      </trkpt>
      <trkpt lat="45.90937" lon="1.27097">
        <ele>358.3</ele>
        <time>2024-11-10T13:45:04Z</time>
      </trkpt>
      <trkpt lat="45.9094" lon="1.27095">
        <ele>358.5</ele>
        <time>2024-11-10T13:45:05Z</time>
      </trkpt>
      <trkpt lat="45.90943" lon="1.27093">
        <ele>358.6</ele>
        <time>2024-11-10T13:45:06Z</time>
      </trkpt>
      <trkpt lat="45.90946" lon="1.27091">
        <ele>358.8</ele>
        <time>2024-11-10T13:45:07Z</time>
      </trkpt>
      <trkpt lat="45.9095" lon="1.27088">
        <ele>358.9</ele>
        <time>2024-11-10T13:45:09Z</time>
      </trkpt>
      <trkpt lat="45.90953" lon="1.27086">
        <ele>359</ele>
        <time>2024-11-10T13:45:10Z</time>
      </trkpt>
      <trkpt lat="45.90956" lon="1.27084">
        <ele>359.1</ele>
        <time>2024-11-10T13:45:11Z</time>
      </trkpt>
      <trkpt lat="45.90959" lon="1.27081">
        <ele>359.2</ele>
        <time>2024-11-10T13:45:12Z</time>
      </trkpt>
      <trkpt lat="45.90962" lon="1.27079">
        <ele>359.3</ele>
        <time>2024-11-10T13:45:13Z</time>
      </trkpt>
      <trkpt lat="45.90965" lon="1.27076">
        <ele>359.3</ele>
        <time>2024-11-10T13:45:14Z</time>
      </trkpt>
      <trkpt lat="45.90969" lon="1.27073">
        <ele>359.3</ele>
        <time>2024-11-10T13:45:15Z</time>
      </trkpt>
      <trkpt lat="45.90973" lon="1.27071">
        <ele>359.3</ele>
        <time>2024-11-10T13:45:16Z</time>
      </trkpt>
      <trkpt lat="45.90976" lon="1.27069">
        <ele>359.3</ele>
        <time>2024-11-10T13:45:17Z</time>
      </trkpt>
      <trkpt lat="45.90979" lon="1.27066">
        <ele>359.3</ele>
        <time>2024-11-10T13:45:18Z</time>
      </trkpt>
      <trkpt lat="45.90982" lon="1.27063">
        <ele>359.3</ele>
        <time>2024-11-10T13:45:19Z</time>
      </trkpt>
      <trkpt lat="45.90985" lon="1.27059">
        <ele>359.3</ele>
        <time>2024-11-10T13:45:20Z</time>
      </trkpt>
      <trkpt lat="45.90989" lon="1.27056">
        <ele>359.3</ele>
        <time>2024-11-10T13:45:21Z</time>
      </trkpt>
      <trkpt lat="45.90992" lon="1.27051">
        <ele>359.2</ele>
        <time>2024-11-10T13:45:22Z</time>
      </trkpt>
      <trkpt lat="45.90995" lon="1.27047">
        <ele>359.2</ele>
        <time>2024-11-10T13:45:23Z</time>
      </trkpt>
      <trkpt lat="45.90998" lon="1.27044">
        <ele>359.2</ele>
        <time>2024-11-10T13:45:24Z</time>
      </trkpt>
      <trkpt lat="45.91" lon="1.27042">
        <ele>359.2</ele>
        <time>2024-11-10T13:45:25Z</time>
      </trkpt>
      <trkpt lat="45.91003" lon="1.2704">
        <ele>359.2</ele>
        <time>2024-11-10T13:45:26Z</time>
      </trkpt>
      <trkpt lat="45.91006" lon="1.27038">
        <ele>359.2</ele>
        <time>2024-11-10T13:45:27Z</time>
      </trkpt>
      <trkpt lat="45.9101" lon="1.27036">
        <ele>359.2</ele>
        <time>2024-11-10T13:45:28Z</time>
      </trkpt>
      <trkpt lat="45.91013" lon="1.27032">
        <ele>359.3</ele>
        <time>2024-11-10T13:45:29Z</time>
      </trkpt>
      <trkpt lat="45.91017" lon="1.27029">
        <ele>359.3</ele>
        <time>2024-11-10T13:45:30Z</time>
      </trkpt>
      <trkpt lat="45.91019" lon="1.27025">
        <ele>359.3</ele>
        <time>2024-11-10T13:45:31Z</time>
      </trkpt>
      <trkpt lat="45.91022" lon="1.27021">
        <ele>359.4</ele>
        <time>2024-11-10T13:45:32Z</time>
      </trkpt>
      <trkpt lat="45.91024" lon="1.27017">
        <ele>359.4</ele>
        <time>2024-11-10T13:45:33Z</time>
      </trkpt>
      <trkpt lat="45.91027" lon="1.27014">
        <ele>359.5</ele>
        <time>2024-11-10T13:45:34Z</time>
      </trkpt>
      <trkpt lat="45.9103" lon="1.2701">
        <ele>359.5</ele>
        <time>2024-11-10T13:45:35Z</time>
      </trkpt>
      <trkpt lat="45.91032" lon="1.27007">
        <ele>359.6</ele>
        <time>2024-11-10T13:45:36Z</time>
      </trkpt>
      <trkpt lat="45.91035" lon="1.27004">
        <ele>359.6</ele>
        <time>2024-11-10T13:45:37Z</time>
      </trkpt>
      <trkpt lat="45.91038" lon="1.26999">
        <ele>359.6</ele>
        <time>2024-11-10T13:45:39Z</time>
      </trkpt>
      <trkpt lat="45.9104" lon="1.26996">
        <ele>359.7</ele>
        <time>2024-11-10T13:45:40Z</time>
      </trkpt>
      <trkpt lat="45.91043" lon="1.26992">
        <ele>359.7</ele>
        <time>2024-11-10T13:45:41Z</time>
      </trkpt>
      <trkpt lat="45.91046" lon="1.26989">
        <ele>359.7</ele>
        <time>2024-11-10T13:45:42Z</time>
      </trkpt>
      <trkpt lat="45.91049" lon="1.26987">
        <ele>359.7</ele>
        <time>2024-11-10T13:45:43Z</time>
      </trkpt>
      <trkpt lat="45.91054" lon="1.26983">
        <ele>359.8</ele>
        <time>2024-11-10T13:45:45Z</time>
      </trkpt>
      <trkpt lat="45.91057" lon="1.2698">
        <ele>359.8</ele>
        <time>2024-11-10T13:45:46Z</time>
      </trkpt>
      <trkpt lat="45.9106" lon="1.26976">
        <ele>359.8</ele>
        <time>2024-11-10T13:45:47Z</time>
      </trkpt>
      <trkpt lat="45.91063" lon="1.26973">
        <ele>359.7</ele>
        <time>2024-11-10T13:45:48Z</time>
      </trkpt>
      <trkpt lat="45.91066" lon="1.26969">
        <ele>359.7</ele>
        <time>2024-11-10T13:45:49Z</time>
      </trkpt>
      <trkpt lat="45.91069" lon="1.26966">
        <ele>359.6</ele>
        <time>2024-11-10T13:45:50Z</time>
      </trkpt>
      <trkpt lat="45.91071" lon="1.26962">
        <ele>359.5</ele>
        <time>2024-11-10T13:45:51Z</time>
      </trkpt>
      <trkpt lat="45.91074" lon="1.26959">
        <ele>359.5</ele>
        <time>2024-11-10T13:45:52Z</time>
      </trkpt>
      <trkpt lat="45.91077" lon="1.26955">
        <ele>359.4</ele>
        <time>2024-11-10T13:45:53Z</time>
      </trkpt>
      <trkpt lat="45.9108" lon="1.26951">
        <ele>359.3</ele>
        <time>2024-11-10T13:45:54Z</time>
      </trkpt>
      <trkpt lat="45.91083" lon="1.26947">
        <ele>359.2</ele>
        <time>2024-11-10T13:45:55Z</time>
      </trkpt>
      <trkpt lat="45.91087" lon="1.26943">
        <ele>359.1</ele>
        <time>2024-11-10T13:45:56Z</time>
      </trkpt>
      <trkpt lat="45.9109" lon="1.2694">
        <ele>359.1</ele>
        <time>2024-11-10T13:45:57Z</time>
      </trkpt>
      <trkpt lat="45.91093" lon="1.26937">
        <ele>359</ele>
        <time>2024-11-10T13:45:58Z</time>
      </trkpt>
      <trkpt lat="45.91097" lon="1.26934">
        <ele>358.9</ele>
        <time>2024-11-10T13:45:59Z</time>
      </trkpt>
      <trkpt lat="45.911" lon="1.26931">
        <ele>358.9</ele>
        <time>2024-11-10T13:46:00Z</time>
      </trkpt>
      <trkpt lat="45.91103" lon="1.26928">
        <ele>358.8</ele>
        <time>2024-11-10T13:46:01Z</time>
      </trkpt>
      <trkpt lat="45.91106" lon="1.26925">
        <ele>358.8</ele>
        <time>2024-11-10T13:46:02Z</time>
      </trkpt>
      <trkpt lat="45.91108" lon="1.26922">
        <ele>358.7</ele>
        <time>2024-11-10T13:46:03Z</time>
      </trkpt>
      <trkpt lat="45.91111" lon="1.26918">
        <ele>358.7</ele>
        <time>2024-11-10T13:46:04Z</time>
      </trkpt>
      <trkpt lat="45.91113" lon="1.26915">
        <ele>358.7</ele>
        <time>2024-11-10T13:46:05Z</time>
      </trkpt>
      <trkpt lat="45.91116" lon="1.26911">
        <ele>358.7</ele>
        <time>2024-11-10T13:46:06Z</time>
      </trkpt>
      <trkpt lat="45.9112" lon="1.26908">
        <ele>358.7</ele>
        <time>2024-11-10T13:46:07Z</time>
      </trkpt>
      <trkpt lat="45.91123" lon="1.26904">
        <ele>358.7</ele>
        <time>2024-11-10T13:46:08Z</time>
      </trkpt>
      <trkpt lat="45.91127" lon="1.26901">
        <ele>358.7</ele>
        <time>2024-11-10T13:46:09Z</time>
      </trkpt>
      <trkpt lat="45.9113" lon="1.26897">
        <ele>358.8</ele>
        <time>2024-11-10T13:46:10Z</time>
      </trkpt>
      <trkpt lat="45.91134" lon="1.26894">
        <ele>358.9</ele>
        <time>2024-11-10T13:46:11Z</time>
      </trkpt>
      <trkpt lat="45.91137" lon="1.26892">
        <ele>359</ele>
        <time>2024-11-10T13:46:12Z</time>
      </trkpt>
      <trkpt lat="45.9114" lon="1.26889">
        <ele>359.1</ele>
        <time>2024-11-10T13:46:13Z</time>
      </trkpt>
      <trkpt lat="45.91143" lon="1.26886">
        <ele>359.2</ele>
        <time>2024-11-10T13:46:14Z</time>
      </trkpt>
      <trkpt lat="45.91147" lon="1.26884">
        <ele>359.3</ele>
        <time>2024-11-10T13:46:15Z</time>
      </trkpt>
      <trkpt lat="45.9115" lon="1.26882">
        <ele>359.3</ele>
        <time>2024-11-10T13:46:16Z</time>
      </trkpt>
      <trkpt lat="45.91153" lon="1.26878">
        <ele>359.5</ele>
        <time>2024-11-10T13:46:17Z</time>
      </trkpt>
      <trkpt lat="45.91155" lon="1.26875">
        <ele>359.5</ele>
        <time>2024-11-10T13:46:18Z</time>
      </trkpt>
      <trkpt lat="45.91157" lon="1.26872">
        <ele>359.6</ele>
        <time>2024-11-10T13:46:19Z</time>
      </trkpt>
      <trkpt lat="45.91159" lon="1.26869">
        <ele>359.7</ele>
        <time>2024-11-10T13:46:20Z</time>
      </trkpt>
      <trkpt lat="45.91161" lon="1.26865">
        <ele>359.8</ele>
        <time>2024-11-10T13:46:21Z</time>
      </trkpt>
      <trkpt lat="45.91164" lon="1.26862">
        <ele>359.8</ele>
        <time>2024-11-10T13:46:22Z</time>
      </trkpt>
      <trkpt lat="45.91167" lon="1.26859">
        <ele>359.9</ele>
        <time>2024-11-10T13:46:23Z</time>
      </trkpt>
      <trkpt lat="45.91171" lon="1.26855">
        <ele>360</ele>
        <time>2024-11-10T13:46:24Z</time>
      </trkpt>
      <trkpt lat="45.91175" lon="1.26853">
        <ele>360.1</ele>
        <time>2024-11-10T13:46:25Z</time>
      </trkpt>
      <trkpt lat="45.91179" lon="1.2685">
        <ele>360.1</ele>
        <time>2024-11-10T13:46:26Z</time>
      </trkpt>
      <trkpt lat="45.91183" lon="1.26848">
        <ele>360.1</ele>
        <time>2024-11-10T13:46:27Z</time>
      </trkpt>
      <trkpt lat="45.91187" lon="1.26845">
        <ele>360.1</ele>
        <time>2024-11-10T13:46:28Z</time>
      </trkpt>
      <trkpt lat="45.91191" lon="1.26843">
        <ele>360.1</ele>
        <time>2024-11-10T13:46:29Z</time>
      </trkpt>
      <trkpt lat="45.91196" lon="1.2684">
        <ele>360</ele>
        <time>2024-11-10T13:46:30Z</time>
      </trkpt>
      <trkpt lat="45.91202" lon="1.26839">
        <ele>360</ele>
        <time>2024-11-10T13:46:31Z</time>
      </trkpt>
      <trkpt lat="45.91207" lon="1.26838">
        <ele>359.9</ele>
        <time>2024-11-10T13:46:32Z</time>
      </trkpt>
      <trkpt lat="45.91211" lon="1.26835">
        <ele>359.8</ele>
        <time>2024-11-10T13:46:33Z</time>
      </trkpt>
      <trkpt lat="45.91216" lon="1.26832">
        <ele>359.7</ele>
        <time>2024-11-10T13:46:34Z</time>
      </trkpt>
      <trkpt lat="45.91221" lon="1.26829">
        <ele>359.6</ele>
        <time>2024-11-10T13:46:35Z</time>
      </trkpt>
      <trkpt lat="45.91226" lon="1.26826">
        <ele>359.4</ele>
        <time>2024-11-10T13:46:36Z</time>
      </trkpt>
      <trkpt lat="45.91231" lon="1.26822">
        <ele>359.3</ele>
        <time>2024-11-10T13:46:37Z</time>
      </trkpt>
      <trkpt lat="45.91236" lon="1.26819">
        <ele>359.1</ele>
        <time>2024-11-10T13:46:38Z</time>
      </trkpt>
      <trkpt lat="45.9124" lon="1.26816">
        <ele>359</ele>
        <time>2024-11-10T13:46:39Z</time>
      </trkpt>
      <trkpt lat="45.91245" lon="1.26813">
        <ele>358.9</ele>
        <time>2024-11-10T13:46:40Z</time>
      </trkpt>
      <trkpt lat="45.9125" lon="1.2681">
        <ele>358.8</ele>
        <time>2024-11-10T13:46:41Z</time>
      </trkpt>
      <trkpt lat="45.91254" lon="1.26808">
        <ele>358.7</ele>
        <time>2024-11-10T13:46:42Z</time>
      </trkpt>
      <trkpt lat="45.91259" lon="1.26805">
        <ele>358.6</ele>
        <time>2024-11-10T13:46:43Z</time>
      </trkpt>
      <trkpt lat="45.91264" lon="1.26803">
        <ele>358.6</ele>
        <time>2024-11-10T13:46:44Z</time>
      </trkpt>
      <trkpt lat="45.91268" lon="1.268">
        <ele>358.6</ele>
        <time>2024-11-10T13:46:45Z</time>
      </trkpt>
      <trkpt lat="45.91272" lon="1.26797">
        <ele>358.6</ele>
        <time>2024-11-10T13:46:46Z</time>
      </trkpt>
      <trkpt lat="45.91276" lon="1.26795">
        <ele>358.6</ele>
        <time>2024-11-10T13:46:47Z</time>
      </trkpt>
      <trkpt lat="45.91279" lon="1.26793">
        <ele>358.6</ele>
        <time>2024-11-10T13:46:48Z</time>
      </trkpt>
      <trkpt lat="45.91283" lon="1.26791">
        <ele>358.6</ele>
        <time>2024-11-10T13:46:49Z</time>
      </trkpt>
      <trkpt lat="45.91286" lon="1.26789">
        <ele>358.6</ele>
        <time>2024-11-10T13:46:50Z</time>
      </trkpt>
      <trkpt lat="45.91289" lon="1.26787">
        <ele>358.6</ele>
        <time>2024-11-10T13:46:51Z</time>
      </trkpt>
      <trkpt lat="45.91292" lon="1.26784">
        <ele>358.7</ele>
        <time>2024-11-10T13:46:52Z</time>
      </trkpt>
      <trkpt lat="45.91296" lon="1.26782">
        <ele>358.8</ele>
        <time>2024-11-10T13:46:53Z</time>
      </trkpt>
      <trkpt lat="45.913" lon="1.2678">
        <ele>358.8</ele>
        <time>2024-11-10T13:46:54Z</time>
      </trkpt>
      <trkpt lat="45.91304" lon="1.26777">
        <ele>358.9</ele>
        <time>2024-11-10T13:46:55Z</time>
      </trkpt>
      <trkpt lat="45.91308" lon="1.26775">
        <ele>359.1</ele>
        <time>2024-11-10T13:46:56Z</time>
      </trkpt>
      <trkpt lat="45.91313" lon="1.26772">
        <ele>359.2</ele>
        <time>2024-11-10T13:46:57Z</time>
      </trkpt>
      <trkpt lat="45.91317" lon="1.26769">
        <ele>359.3</ele>
        <time>2024-11-10T13:46:58Z</time>
      </trkpt>
      <trkpt lat="45.91321" lon="1.26767">
        <ele>359.4</ele>
        <time>2024-11-10T13:46:59Z</time>
      </trkpt>
      <trkpt lat="45.91325" lon="1.26764">
        <ele>359.6</ele>
        <time>2024-11-10T13:47:00Z</time>
      </trkpt>
      <trkpt lat="45.91329" lon="1.26762">
        <ele>359.7</ele>
        <time>2024-11-10T13:47:01Z</time>
      </trkpt>
      <trkpt lat="45.91333" lon="1.2676">
        <ele>359.8</ele>
        <time>2024-11-10T13:47:02Z</time>
      </trkpt>
      <trkpt lat="45.91338" lon="1.26757">
        <ele>360</ele>
        <time>2024-11-10T13:47:03Z</time>
      </trkpt>
      <trkpt lat="45.91342" lon="1.26755">
        <ele>360.1</ele>
        <time>2024-11-10T13:47:04Z</time>
      </trkpt>
      <trkpt lat="45.91346" lon="1.26753">
        <ele>360.2</ele>
        <time>2024-11-10T13:47:05Z</time>
      </trkpt>
      <trkpt lat="45.9135" lon="1.26751">
        <ele>360.4</ele>
        <time>2024-11-10T13:47:06Z</time>
      </trkpt>
      <trkpt lat="45.91354" lon="1.26748">
        <ele>360.5</ele>
        <time>2024-11-10T13:47:07Z</time>
      </trkpt>
      <trkpt lat="45.91358" lon="1.26746">
        <ele>360.6</ele>
        <time>2024-11-10T13:47:08Z</time>
      </trkpt>
      <trkpt lat="45.91361" lon="1.26744">
        <ele>360.7</ele>
        <time>2024-11-10T13:47:09Z</time>
      </trkpt>
      <trkpt lat="45.91365" lon="1.26742">
        <ele>360.9</ele>
        <time>2024-11-10T13:47:10Z</time>
      </trkpt>
      <trkpt lat="45.91368" lon="1.2674">
        <ele>361</ele>
        <time>2024-11-10T13:47:11Z</time>
      </trkpt>
      <trkpt lat="45.91372" lon="1.26737">
        <ele>361.1</ele>
        <time>2024-11-10T13:47:12Z</time>
      </trkpt>
      <trkpt lat="45.91375" lon="1.26735">
        <ele>361.2</ele>
        <time>2024-11-10T13:47:13Z</time>
      </trkpt>
      <trkpt lat="45.91379" lon="1.26733">
        <ele>361.4</ele>
        <time>2024-11-10T13:47:14Z</time>
      </trkpt>
      <trkpt lat="45.91383" lon="1.26731">
        <ele>361.5</ele>
        <time>2024-11-10T13:47:15Z</time>
      </trkpt>
      <trkpt lat="45.91386" lon="1.26729">
        <ele>361.6</ele>
        <time>2024-11-10T13:47:16Z</time>
      </trkpt>
      <trkpt lat="45.9139" lon="1.26728">
        <ele>361.8</ele>
        <time>2024-11-10T13:47:17Z</time>
      </trkpt>
      <trkpt lat="45.91393" lon="1.26725">
        <ele>361.9</ele>
        <time>2024-11-10T13:47:18Z</time>
      </trkpt>
      <trkpt lat="45.91397" lon="1.26723">
        <ele>362.1</ele>
        <time>2024-11-10T13:47:19Z</time>
      </trkpt>
      <trkpt lat="45.914" lon="1.26721">
        <ele>362.2</ele>
        <time>2024-11-10T13:47:20Z</time>
      </trkpt>
      <trkpt lat="45.91404" lon="1.26718">
        <ele>362.4</ele>
        <time>2024-11-10T13:47:21Z</time>
      </trkpt>
      <trkpt lat="45.91407" lon="1.26716">
        <ele>362.5</ele>
        <time>2024-11-10T13:47:22Z</time>
      </trkpt>
      <trkpt lat="45.9141" lon="1.26715">
        <ele>362.7</ele>
        <time>2024-11-10T13:47:23Z</time>
      </trkpt>
      <trkpt lat="45.91414" lon="1.26713">
        <ele>362.8</ele>
        <time>2024-11-10T13:47:24Z</time>
      </trkpt>
      <trkpt lat="45.91417" lon="1.26711">
        <ele>363</ele>
        <time>2024-11-10T13:47:25Z</time>
      </trkpt>
      <trkpt lat="45.9142" lon="1.26709">
        <ele>363.1</ele>
        <time>2024-11-10T13:47:26Z</time>
      </trkpt>
      <trkpt lat="45.91424" lon="1.26707">
        <ele>363.3</ele>
        <time>2024-11-10T13:47:27Z</time>
      </trkpt>
      <trkpt lat="45.91428" lon="1.26705">
        <ele>363.4</ele>
        <time>2024-11-10T13:47:28Z</time>
      </trkpt>
      <trkpt lat="45.91431" lon="1.26704">
        <ele>363.5</ele>
        <time>2024-11-10T13:47:29Z</time>
      </trkpt>
      <trkpt lat="45.91435" lon="1.26702">
        <ele>363.7</ele>
        <time>2024-11-10T13:47:30Z</time>
      </trkpt>
      <trkpt lat="45.91438" lon="1.26701">
        <ele>363.8</ele>
        <time>2024-11-10T13:47:31Z</time>
      </trkpt>
      <trkpt lat="45.91441" lon="1.26699">
        <ele>364</ele>
        <time>2024-11-10T13:47:32Z</time>
      </trkpt>
      <trkpt lat="45.91445" lon="1.26698">
        <ele>364.1</ele>
        <time>2024-11-10T13:47:33Z</time>
      </trkpt>
      <trkpt lat="45.91448" lon="1.26697">
        <ele>364.3</ele>
        <time>2024-11-10T13:47:34Z</time>
      </trkpt>
      <trkpt lat="45.91451" lon="1.26696">
        <ele>364.4</ele>
        <time>2024-11-10T13:47:35Z</time>
      </trkpt>
      <trkpt lat="45.91454" lon="1.26695">
        <ele>364.5</ele>
        <time>2024-11-10T13:47:36Z</time>
      </trkpt>
      <trkpt lat="45.91457" lon="1.26694">
        <ele>364.7</ele>
        <time>2024-11-10T13:47:37Z</time>
      </trkpt>
      <trkpt lat="45.91461" lon="1.26693">
        <ele>364.9</ele>
        <time>2024-11-10T13:47:38Z</time>
      </trkpt>
      <trkpt lat="45.91464" lon="1.26692">
        <ele>365</ele>
        <time>2024-11-10T13:47:39Z</time>
      </trkpt>
      <trkpt lat="45.91467" lon="1.26691">
        <ele>365.2</ele>
        <time>2024-11-10T13:47:40Z</time>
      </trkpt>
      <trkpt lat="45.9147" lon="1.26691">
        <ele>365.3</ele>
        <time>2024-11-10T13:47:41Z</time>
      </trkpt>
      <trkpt lat="45.91475" lon="1.26691">
        <ele>365.6</ele>
        <time>2024-11-10T13:47:43Z</time>
      </trkpt>
      <trkpt lat="45.91478" lon="1.2669">
        <ele>365.7</ele>
        <time>2024-11-10T13:47:44Z</time>
      </trkpt>
      <trkpt lat="45.91482" lon="1.26692">
        <ele>365.7</ele>
        <time>2024-11-10T13:47:46Z</time>
      </trkpt>
      <trkpt lat="45.91484" lon="1.26697">
        <ele>365.5</ele>
        <time>2024-11-10T13:47:48Z</time>
      </trkpt>
      <trkpt lat="45.91485" lon="1.26702">
        <ele>365.3</ele>
        <time>2024-11-10T13:47:49Z</time>
      </trkpt>
      <trkpt lat="45.91485" lon="1.26706">
        <ele>365.2</ele>
        <time>2024-11-10T13:47:50Z</time>
      </trkpt>
      <trkpt lat="45.91486" lon="1.26711">
        <ele>365.1</ele>
        <time>2024-11-10T13:47:51Z</time>
      </trkpt>
      <trkpt lat="45.91486" lon="1.26716">
        <ele>364.9</ele>
        <time>2024-11-10T13:47:52Z</time>
      </trkpt>
      <trkpt lat="45.91485" lon="1.26721">
        <ele>364.8</ele>
        <time>2024-11-10T13:47:53Z</time>
      </trkpt>
      <trkpt lat="45.91485" lon="1.26726">
        <ele>364.6</ele>
        <time>2024-11-10T13:47:54Z</time>
      </trkpt>
      <trkpt lat="45.91485" lon="1.26731">
        <ele>364.5</ele>
        <time>2024-11-10T13:47:55Z</time>
      </trkpt>
      <trkpt lat="45.91485" lon="1.26736">
        <ele>364.4</ele>
        <time>2024-11-10T13:47:56Z</time>
      </trkpt>
      <trkpt lat="45.91484" lon="1.26742">
        <ele>364.3</ele>
        <time>2024-11-10T13:47:57Z</time>
      </trkpt>
      <trkpt lat="45.91484" lon="1.26748">
        <ele>364.1</ele>
        <time>2024-11-10T13:47:58Z</time>
      </trkpt>
      <trkpt lat="45.91484" lon="1.26753">
        <ele>364</ele>
        <time>2024-11-10T13:47:59Z</time>
      </trkpt>
      <trkpt lat="45.91483" lon="1.26759">
        <ele>363.9</ele>
        <time>2024-11-10T13:48:00Z</time>
      </trkpt>
      <trkpt lat="45.91483" lon="1.26765">
        <ele>363.8</ele>
        <time>2024-11-10T13:48:01Z</time>
      </trkpt>
      <trkpt lat="45.91483" lon="1.26771">
        <ele>363.6</ele>
        <time>2024-11-10T13:48:02Z</time>
      </trkpt>
      <trkpt lat="45.91483" lon="1.26776">
        <ele>363.5</ele>
        <time>2024-11-10T13:48:03Z</time>
      </trkpt>
      <trkpt lat="45.91483" lon="1.26782">
        <ele>363.4</ele>
        <time>2024-11-10T13:48:04Z</time>
      </trkpt>
      <trkpt lat="45.91482" lon="1.26788">
        <ele>363.3</ele>
        <time>2024-11-10T13:48:05Z</time>
      </trkpt>
      <trkpt lat="45.91481" lon="1.26794">
        <ele>363.1</ele>
        <time>2024-11-10T13:48:06Z</time>
      </trkpt>
      <trkpt lat="45.91479" lon="1.268">
        <ele>362.9</ele>
        <time>2024-11-10T13:48:07Z</time>
      </trkpt>
      <trkpt lat="45.91476" lon="1.26805">
        <ele>362.7</ele>
        <time>2024-11-10T13:48:08Z</time>
      </trkpt>
      <trkpt lat="45.91474" lon="1.26811">
        <ele>362.5</ele>
        <time>2024-11-10T13:48:09Z</time>
      </trkpt>
      <trkpt lat="45.91471" lon="1.26816">
        <ele>362.3</ele>
        <time>2024-11-10T13:48:10Z</time>
      </trkpt>
      <trkpt lat="45.91468" lon="1.26821">
        <ele>362</ele>
        <time>2024-11-10T13:48:11Z</time>
      </trkpt>
      <trkpt lat="45.91464" lon="1.26826">
        <ele>361.7</ele>
        <time>2024-11-10T13:48:12Z</time>
      </trkpt>
      <trkpt lat="45.91461" lon="1.26832">
        <ele>361.4</ele>
        <time>2024-11-10T13:48:13Z</time>
      </trkpt>
      <trkpt lat="45.91458" lon="1.26839">
        <ele>361.1</ele>
        <time>2024-11-10T13:48:14Z</time>
      </trkpt>
      <trkpt lat="45.91455" lon="1.26844">
        <ele>360.9</ele>
        <time>2024-11-10T13:48:15Z</time>
      </trkpt>
      <trkpt lat="45.91451" lon="1.2685">
        <ele>360.5</ele>
        <time>2024-11-10T13:48:16Z</time>
      </trkpt>
      <trkpt lat="45.91447" lon="1.26856">
        <ele>360.2</ele>
        <time>2024-11-10T13:48:17Z</time>
      </trkpt>
      <trkpt lat="45.91443" lon="1.26863">
        <ele>359.9</ele>
        <time>2024-11-10T13:48:18Z</time>
      </trkpt>
      <trkpt lat="45.91439" lon="1.26869">
        <ele>359.6</ele>
        <time>2024-11-10T13:48:19Z</time>
      </trkpt>
      <trkpt lat="45.91436" lon="1.26876">
        <ele>359.3</ele>
        <time>2024-11-10T13:48:20Z</time>
      </trkpt>
      <trkpt lat="45.91431" lon="1.26882">
        <ele>358.9</ele>
        <time>2024-11-10T13:48:21Z</time>
      </trkpt>
      <trkpt lat="45.91428" lon="1.26889">
        <ele>358.6</ele>
        <time>2024-11-10T13:48:22Z</time>
      </trkpt>
      <trkpt lat="45.91424" lon="1.26896">
        <ele>358.3</ele>
        <time>2024-11-10T13:48:23Z</time>
      </trkpt>
      <trkpt lat="45.9142" lon="1.26903">
        <ele>358</ele>
        <time>2024-11-10T13:48:24Z</time>
      </trkpt>
      <trkpt lat="45.91416" lon="1.2691">
        <ele>357.6</ele>
        <time>2024-11-10T13:48:25Z</time>
      </trkpt>
      <trkpt lat="45.91412" lon="1.26917">
        <ele>357.3</ele>
        <time>2024-11-10T13:48:26Z</time>
      </trkpt>
      <trkpt lat="45.91408" lon="1.26925">
        <ele>356.9</ele>
        <time>2024-11-10T13:48:27Z</time>
      </trkpt>
      <trkpt lat="45.91404" lon="1.26933">
        <ele>356.5</ele>
        <time>2024-11-10T13:48:28Z</time>
      </trkpt>
      <trkpt lat="45.914" lon="1.26941">
        <ele>356.2</ele>
        <time>2024-11-10T13:48:29Z</time>
      </trkpt>
      <trkpt lat="45.91396" lon="1.26949">
        <ele>355.8</ele>
        <time>2024-11-10T13:48:30Z</time>
      </trkpt>
      <trkpt lat="45.91392" lon="1.26957">
        <ele>355.4</ele>
        <time>2024-11-10T13:48:31Z</time>
      </trkpt>
      <trkpt lat="45.91389" lon="1.26964">
        <ele>355.1</ele>
        <time>2024-11-10T13:48:32Z</time>
      </trkpt>
      <trkpt lat="45.91386" lon="1.26972">
        <ele>354.7</ele>
        <time>2024-11-10T13:48:33Z</time>
      </trkpt>
      <trkpt lat="45.91383" lon="1.2698">
        <ele>354.4</ele>
        <time>2024-11-10T13:48:34Z</time>
      </trkpt>
      <trkpt lat="45.91379" lon="1.26986">
        <ele>354</ele>
        <time>2024-11-10T13:48:35Z</time>
      </trkpt>
      <trkpt lat="45.91376" lon="1.26993">
        <ele>353.7</ele>
        <time>2024-11-10T13:48:36Z</time>
      </trkpt>
      <trkpt lat="45.91372" lon="1.27">
        <ele>353.3</ele>
        <time>2024-11-10T13:48:37Z</time>
      </trkpt>
      <trkpt lat="45.91369" lon="1.27007">
        <ele>353</ele>
        <time>2024-11-10T13:48:38Z</time>
      </trkpt>
      <trkpt lat="45.91365" lon="1.27015">
        <ele>352.6</ele>
        <time>2024-11-10T13:48:39Z</time>
      </trkpt>
      <trkpt lat="45.91361" lon="1.27023">
        <ele>352.2</ele>
        <time>2024-11-10T13:48:40Z</time>
      </trkpt>
      <trkpt lat="45.91358" lon="1.2703">
        <ele>351.9</ele>
        <time>2024-11-10T13:48:41Z</time>
      </trkpt>
      <trkpt lat="45.91354" lon="1.27037">
        <ele>351.6</ele>
        <time>2024-11-10T13:48:42Z</time>
      </trkpt>
      <trkpt lat="45.9135" lon="1.27045">
        <ele>351.3</ele>
        <time>2024-11-10T13:48:43Z</time>
      </trkpt>
      <trkpt lat="45.91347" lon="1.27052">
        <ele>351</ele>
        <time>2024-11-10T13:48:44Z</time>
      </trkpt>
      <trkpt lat="45.91345" lon="1.2706">
        <ele>350.7</ele>
        <time>2024-11-10T13:48:45Z</time>
      </trkpt>
      <trkpt lat="45.91343" lon="1.27066">
        <ele>350.4</ele>
        <time>2024-11-10T13:48:46Z</time>
      </trkpt>
      <trkpt lat="45.91339" lon="1.27073">
        <ele>350.1</ele>
        <time>2024-11-10T13:48:47Z</time>
      </trkpt>
      <trkpt lat="45.91336" lon="1.27079">
        <ele>349.8</ele>
        <time>2024-11-10T13:48:48Z</time>
      </trkpt>
      <trkpt lat="45.91333" lon="1.27085">
        <ele>349.5</ele>
        <time>2024-11-10T13:48:49Z</time>
      </trkpt>
      <trkpt lat="45.91329" lon="1.27091">
        <ele>349.3</ele>
        <time>2024-11-10T13:48:50Z</time>
      </trkpt>
      <trkpt lat="45.91326" lon="1.27097">
        <ele>349</ele>
        <time>2024-11-10T13:48:51Z</time>
      </trkpt>
      <trkpt lat="45.91322" lon="1.27102">
        <ele>348.8</ele>
        <time>2024-11-10T13:48:52Z</time>
      </trkpt>
      <trkpt lat="45.91319" lon="1.27108">
        <ele>348.6</ele>
        <time>2024-11-10T13:48:53Z</time>
      </trkpt>
      <trkpt lat="45.91316" lon="1.27115">
        <ele>348.3</ele>
        <time>2024-11-10T13:48:54Z</time>
      </trkpt>
      <trkpt lat="45.91313" lon="1.27121">
        <ele>348.1</ele>
        <time>2024-11-10T13:48:55Z</time>
      </trkpt>
      <trkpt lat="45.9131" lon="1.27129">
        <ele>348</ele>
        <time>2024-11-10T13:48:56Z</time>
      </trkpt>
      <trkpt lat="45.91306" lon="1.27136">
        <ele>347.8</ele>
        <time>2024-11-10T13:48:57Z</time>
      </trkpt>
      <trkpt lat="45.91302" lon="1.27142">
        <ele>347.6</ele>
        <time>2024-11-10T13:48:58Z</time>
      </trkpt>
      <trkpt lat="45.91298" lon="1.27149">
        <ele>347.4</ele>
        <time>2024-11-10T13:48:59Z</time>
      </trkpt>
      <trkpt lat="45.91295" lon="1.27154">
        <ele>347.3</ele>
        <time>2024-11-10T13:49:00Z</time>
      </trkpt>
      <trkpt lat="45.91292" lon="1.27159">
        <ele>347.1</ele>
        <time>2024-11-10T13:49:01Z</time>
      </trkpt>
      <trkpt lat="45.9129" lon="1.27164">
        <ele>347</ele>
        <time>2024-11-10T13:49:02Z</time>
      </trkpt>
      <trkpt lat="45.91289" lon="1.2717">
        <ele>346.9</ele>
        <time>2024-11-10T13:49:03Z</time>
      </trkpt>
      <trkpt lat="45.91288" lon="1.27176">
        <ele>346.7</ele>
        <time>2024-11-10T13:49:04Z</time>
      </trkpt>
      <trkpt lat="45.91286" lon="1.27182">
        <ele>346.5</ele>
        <time>2024-11-10T13:49:05Z</time>
      </trkpt>
      <trkpt lat="45.91285" lon="1.2719">
        <ele>346.3</ele>
        <time>2024-11-10T13:49:06Z</time>
      </trkpt>
      <trkpt lat="45.91283" lon="1.27197">
        <ele>346.1</ele>
        <time>2024-11-10T13:49:07Z</time>
      </trkpt>
      <trkpt lat="45.9128" lon="1.27205">
        <ele>345.8</ele>
        <time>2024-11-10T13:49:08Z</time>
      </trkpt>
      <trkpt lat="45.91279" lon="1.27212">
        <ele>345.6</ele>
        <time>2024-11-10T13:49:09Z</time>
      </trkpt>
      <trkpt lat="45.91277" lon="1.27219">
        <ele>345.4</ele>
        <time>2024-11-10T13:49:10Z</time>
      </trkpt>
      <trkpt lat="45.91277" lon="1.27227">
        <ele>345.2</ele>
        <time>2024-11-10T13:49:11Z</time>
      </trkpt>
      <trkpt lat="45.91275" lon="1.27235">
        <ele>345</ele>
        <time>2024-11-10T13:49:12Z</time>
      </trkpt>
      <trkpt lat="45.91273" lon="1.27242">
        <ele>344.8</ele>
        <time>2024-11-10T13:49:13Z</time>
      </trkpt>
      <trkpt lat="45.9127" lon="1.27249">
        <ele>344.6</ele>
        <time>2024-11-10T13:49:14Z</time>
      </trkpt>
      <trkpt lat="45.91268" lon="1.27255">
        <ele>344.4</ele>
        <time>2024-11-10T13:49:15Z</time>
      </trkpt>
      <trkpt lat="45.91265" lon="1.27261">
        <ele>344.3</ele>
        <time>2024-11-10T13:49:16Z</time>
      </trkpt>
      <trkpt lat="45.91263" lon="1.27267">
        <ele>344.2</ele>
        <time>2024-11-10T13:49:17Z</time>
      </trkpt>
      <trkpt lat="45.91261" lon="1.27273">
        <ele>344</ele>
        <time>2024-11-10T13:49:18Z</time>
      </trkpt>
      <trkpt lat="45.9126" lon="1.27279">
        <ele>343.9</ele>
        <time>2024-11-10T13:49:19Z</time>
      </trkpt>
      <trkpt lat="45.91259" lon="1.27286">
        <ele>343.8</ele>
        <time>2024-11-10T13:49:20Z</time>
      </trkpt>
      <trkpt lat="45.91257" lon="1.27292">
        <ele>343.7</ele>
        <time>2024-11-10T13:49:21Z</time>
      </trkpt>
      <trkpt lat="45.91256" lon="1.27299">
        <ele>343.6</ele>
        <time>2024-11-10T13:49:22Z</time>
      </trkpt>
      <trkpt lat="45.91255" lon="1.27306">
        <ele>343.5</ele>
        <time>2024-11-10T13:49:23Z</time>
      </trkpt>
      <trkpt lat="45.91255" lon="1.27312">
        <ele>343.4</ele>
        <time>2024-11-10T13:49:24Z</time>
      </trkpt>
      <trkpt lat="45.91253" lon="1.27317">
        <ele>343.4</ele>
        <time>2024-11-10T13:49:25Z</time>
      </trkpt>
      <trkpt lat="45.91252" lon="1.27322">
        <ele>343.3</ele>
        <time>2024-11-10T13:49:26Z</time>
      </trkpt>
      <trkpt lat="45.9125" lon="1.27327">
        <ele>343.2</ele>
        <time>2024-11-10T13:49:27Z</time>
      </trkpt>
      <trkpt lat="45.91246" lon="1.27335">
        <ele>343</ele>
        <time>2024-11-10T13:49:28Z</time>
      </trkpt>
      <trkpt lat="45.91243" lon="1.27341">
        <ele>342.9</ele>
        <time>2024-11-10T13:49:29Z</time>
      </trkpt>
      <trkpt lat="45.91239" lon="1.27351">
        <ele>342.7</ele>
        <time>2024-11-10T13:49:31Z</time>
      </trkpt>
      <trkpt lat="45.91237" lon="1.27359">
        <ele>342.5</ele>
        <time>2024-11-10T13:49:32Z</time>
      </trkpt>
      <trkpt lat="45.91236" lon="1.27367">
        <ele>342.3</ele>
        <time>2024-11-10T13:49:33Z</time>
      </trkpt>
      <trkpt lat="45.91236" lon="1.27373">
        <ele>342.2</ele>
        <time>2024-11-10T13:49:34Z</time>
      </trkpt>
      <trkpt lat="45.91235" lon="1.2738">
        <ele>342</ele>
        <time>2024-11-10T13:49:35Z</time>
      </trkpt>
      <trkpt lat="45.91233" lon="1.27387">
        <ele>341.9</ele>
        <time>2024-11-10T13:49:36Z</time>
      </trkpt>
      <trkpt lat="45.91231" lon="1.27393">
        <ele>341.7</ele>
        <time>2024-11-10T13:49:37Z</time>
      </trkpt>
      <trkpt lat="45.91229" lon="1.27399">
        <ele>341.6</ele>
        <time>2024-11-10T13:49:38Z</time>
      </trkpt>
      <trkpt lat="45.91227" lon="1.27405">
        <ele>341.5</ele>
        <time>2024-11-10T13:49:39Z</time>
      </trkpt>
      <trkpt lat="45.91225" lon="1.27412">
        <ele>341.4</ele>
        <time>2024-11-10T13:49:40Z</time>
      </trkpt>
      <trkpt lat="45.91223" lon="1.27417">
        <ele>341.3</ele>
        <time>2024-11-10T13:49:41Z</time>
      </trkpt>
      <trkpt lat="45.91221" lon="1.27423">
        <ele>341.2</ele>
        <time>2024-11-10T13:49:42Z</time>
      </trkpt>
      <trkpt lat="45.91219" lon="1.27428">
        <ele>341.1</ele>
        <time>2024-11-10T13:49:43Z</time>
      </trkpt>
      <trkpt lat="45.91218" lon="1.27434">
        <ele>341</ele>
        <time>2024-11-10T13:49:44Z</time>
      </trkpt>
      <trkpt lat="45.91216" lon="1.2744">
        <ele>340.9</ele>
        <time>2024-11-10T13:49:45Z</time>
      </trkpt>
      <trkpt lat="45.91213" lon="1.27447">
        <ele>340.8</ele>
        <time>2024-11-10T13:49:47Z</time>
      </trkpt>
      <trkpt lat="45.9121" lon="1.27453">
        <ele>340.7</ele>
        <time>2024-11-10T13:49:48Z</time>
      </trkpt>
      <trkpt lat="45.91207" lon="1.27459">
        <ele>340.6</ele>
        <time>2024-11-10T13:49:50Z</time>
      </trkpt>
      <trkpt lat="45.91204" lon="1.27463">
        <ele>340.6</ele>
        <time>2024-11-10T13:49:51Z</time>
      </trkpt>
      <trkpt lat="45.91202" lon="1.27468">
        <ele>340.5</ele>
        <time>2024-11-10T13:49:52Z</time>
      </trkpt>
      <trkpt lat="45.91201" lon="1.27473">
        <ele>340.4</ele>
        <time>2024-11-10T13:49:53Z</time>
      </trkpt>
      <trkpt lat="45.91198" lon="1.2748">
        <ele>340.3</ele>
        <time>2024-11-10T13:49:54Z</time>
      </trkpt>
      <trkpt lat="45.91196" lon="1.27489">
        <ele>340.1</ele>
        <time>2024-11-10T13:49:55Z</time>
      </trkpt>
      <trkpt lat="45.91194" lon="1.27495">
        <ele>340</ele>
        <time>2024-11-10T13:49:56Z</time>
      </trkpt>
      <trkpt lat="45.91192" lon="1.275">
        <ele>339.9</ele>
        <time>2024-11-10T13:49:57Z</time>
      </trkpt>
      <trkpt lat="45.9119" lon="1.27504">
        <ele>339.9</ele>
        <time>2024-11-10T13:49:58Z</time>
      </trkpt>
      <trkpt lat="45.91189" lon="1.27508">
        <ele>339.8</ele>
        <time>2024-11-10T13:50:00Z</time>
      </trkpt>
      <trkpt lat="45.91188" lon="1.27512">
        <ele>339.8</ele>
        <time>2024-11-10T13:50:03Z</time>
      </trkpt>
      <trkpt lat="45.91186" lon="1.27517">
        <ele>339.7</ele>
        <time>2024-11-10T13:50:05Z</time>
      </trkpt>
      <trkpt lat="45.91183" lon="1.27522">
        <ele>339.6</ele>
        <time>2024-11-10T13:50:07Z</time>
      </trkpt>
      <trkpt lat="45.91182" lon="1.27527">
        <ele>339.6</ele>
        <time>2024-11-10T13:50:08Z</time>
      </trkpt>
      <trkpt lat="45.91181" lon="1.27532">
        <ele>339.5</ele>
        <time>2024-11-10T13:50:09Z</time>
      </trkpt>
      <trkpt lat="45.91179" lon="1.27539">
        <ele>339.4</ele>
        <time>2024-11-10T13:50:10Z</time>
      </trkpt>
      <trkpt lat="45.91178" lon="1.27546">
        <ele>339.3</ele>
        <time>2024-11-10T13:50:11Z</time>
      </trkpt>
      <trkpt lat="45.91176" lon="1.27552">
        <ele>339.2</ele>
        <time>2024-11-10T13:50:12Z</time>
      </trkpt>
      <trkpt lat="45.91174" lon="1.27558">
        <ele>339.1</ele>
        <time>2024-11-10T13:50:13Z</time>
      </trkpt>
      <trkpt lat="45.91172" lon="1.27564">
        <ele>338.9</ele>
        <time>2024-11-10T13:50:14Z</time>
      </trkpt>
      <trkpt lat="45.91171" lon="1.2757">
        <ele>338.8</ele>
        <time>2024-11-10T13:50:15Z</time>
      </trkpt>
      <trkpt lat="45.9117" lon="1.27575">
        <ele>338.8</ele>
        <time>2024-11-10T13:50:16Z</time>
      </trkpt>
      <trkpt lat="45.9117" lon="1.27579">
        <ele>338.7</ele>
        <time>2024-11-10T13:50:17Z</time>
      </trkpt>
      <trkpt lat="45.9117" lon="1.27583">
        <ele>338.7</ele>
        <time>2024-11-10T13:50:18Z</time>
      </trkpt>
      <trkpt lat="45.91171" lon="1.27587">
        <ele>338.6</ele>
        <time>2024-11-10T13:50:19Z</time>
      </trkpt>
      <trkpt lat="45.9117" lon="1.27592">
        <ele>338.6</ele>
        <time>2024-11-10T13:50:20Z</time>
      </trkpt>
      <trkpt lat="45.91169" lon="1.27598">
        <ele>338.5</ele>
        <time>2024-11-10T13:50:21Z</time>
      </trkpt>
      <trkpt lat="45.91168" lon="1.27604">
        <ele>338.5</ele>
        <time>2024-11-10T13:50:22Z</time>
      </trkpt>
      <trkpt lat="45.91166" lon="1.27612">
        <ele>338.4</ele>
        <time>2024-11-10T13:50:23Z</time>
      </trkpt>
      <trkpt lat="45.91165" lon="1.2762">
        <ele>338.4</ele>
        <time>2024-11-10T13:50:24Z</time>
      </trkpt>
      <trkpt lat="45.91163" lon="1.27629">
        <ele>338.4</ele>
        <time>2024-11-10T13:50:25Z</time>
      </trkpt>
      <trkpt lat="45.91162" lon="1.27637">
        <ele>338.3</ele>
        <time>2024-11-10T13:50:26Z</time>
      </trkpt>
      <trkpt lat="45.91161" lon="1.27645">
        <ele>338.3</ele>
        <time>2024-11-10T13:50:27Z</time>
      </trkpt>
      <trkpt lat="45.91161" lon="1.27652">
        <ele>338.3</ele>
        <time>2024-11-10T13:50:28Z</time>
      </trkpt>
      <trkpt lat="45.91161" lon="1.27658">
        <ele>338.3</ele>
        <time>2024-11-10T13:50:29Z</time>
      </trkpt>
      <trkpt lat="45.91165" lon="1.27665">
        <ele>338.2</ele>
        <time>2024-11-10T13:50:30Z</time>
      </trkpt>
      <trkpt lat="45.91167" lon="1.27671">
        <ele>338.2</ele>
        <time>2024-11-10T13:50:31Z</time>
      </trkpt>
      <trkpt lat="45.9117" lon="1.27678">
        <ele>338.1</ele>
        <time>2024-11-10T13:50:32Z</time>
      </trkpt>
      <trkpt lat="45.91175" lon="1.27685">
        <ele>337.9</ele>
        <time>2024-11-10T13:50:33Z</time>
      </trkpt>
      <trkpt lat="45.91179" lon="1.27691">
        <ele>337.7</ele>
        <time>2024-11-10T13:50:34Z</time>
      </trkpt>
      <trkpt lat="45.91182" lon="1.27698">
        <ele>337.6</ele>
        <time>2024-11-10T13:50:35Z</time>
      </trkpt>
      <trkpt lat="45.91184" lon="1.27703">
        <ele>337.4</ele>
        <time>2024-11-10T13:50:36Z</time>
      </trkpt>
      <trkpt lat="45.91187" lon="1.27709">
        <ele>337.3</ele>
        <time>2024-11-10T13:50:37Z</time>
      </trkpt>
      <trkpt lat="45.91189" lon="1.27713">
        <ele>337.3</ele>
        <time>2024-11-10T13:50:38Z</time>
      </trkpt>
      <trkpt lat="45.9119" lon="1.27717">
        <ele>337.2</ele>
        <time>2024-11-10T13:50:39Z</time>
      </trkpt>
      <trkpt lat="45.91193" lon="1.27721">
        <ele>337.1</ele>
        <time>2024-11-10T13:50:41Z</time>
      </trkpt>
      <trkpt lat="45.91197" lon="1.27728">
        <ele>337</ele>
        <time>2024-11-10T13:50:43Z</time>
      </trkpt>
      <trkpt lat="45.91201" lon="1.27733">
        <ele>336.9</ele>
        <time>2024-11-10T13:50:44Z</time>
      </trkpt>
      <trkpt lat="45.91204" lon="1.27738">
        <ele>336.8</ele>
        <time>2024-11-10T13:50:45Z</time>
      </trkpt>
      <trkpt lat="45.91209" lon="1.27746">
        <ele>336.8</ele>
        <time>2024-11-10T13:50:46Z</time>
      </trkpt>
      <trkpt lat="45.91213" lon="1.27753">
        <ele>336.8</ele>
        <time>2024-11-10T13:50:47Z</time>
      </trkpt>
      <trkpt lat="45.91217" lon="1.27758">
        <ele>336.8</ele>
        <time>2024-11-10T13:50:48Z</time>
      </trkpt>
      <trkpt lat="45.91221" lon="1.27764">
        <ele>336.9</ele>
        <time>2024-11-10T13:50:49Z</time>
      </trkpt>
      <trkpt lat="45.91224" lon="1.27771">
        <ele>337</ele>
        <time>2024-11-10T13:50:50Z</time>
      </trkpt>
      <trkpt lat="45.91227" lon="1.27777">
        <ele>337.2</ele>
        <time>2024-11-10T13:50:51Z</time>
      </trkpt>
      <trkpt lat="45.91229" lon="1.27784">
        <ele>337.4</ele>
        <time>2024-11-10T13:50:52Z</time>
      </trkpt>
      <trkpt lat="45.9123" lon="1.2779">
        <ele>337.6</ele>
        <time>2024-11-10T13:50:53Z</time>
      </trkpt>
      <trkpt lat="45.91233" lon="1.27796">
        <ele>337.8</ele>
        <time>2024-11-10T13:50:54Z</time>
      </trkpt>
      <trkpt lat="45.91235" lon="1.27803">
        <ele>338.1</ele>
        <time>2024-11-10T13:50:55Z</time>
      </trkpt>
      <trkpt lat="45.91237" lon="1.27807">
        <ele>338.3</ele>
        <time>2024-11-10T13:50:56Z</time>
      </trkpt>
      <trkpt lat="45.9124" lon="1.27811">
        <ele>338.6</ele>
        <time>2024-11-10T13:50:57Z</time>
      </trkpt>
      <trkpt lat="45.91242" lon="1.27814">
        <ele>338.8</ele>
        <time>2024-11-10T13:50:58Z</time>
      </trkpt>
      <trkpt lat="45.91244" lon="1.27817">
        <ele>339</ele>
        <time>2024-11-10T13:50:59Z</time>
      </trkpt>
      <trkpt lat="45.91247" lon="1.27819">
        <ele>339.2</ele>
        <time>2024-11-10T13:51:00Z</time>
      </trkpt>
      <trkpt lat="45.9125" lon="1.27822">
        <ele>339.4</ele>
        <time>2024-11-10T13:51:01Z</time>
      </trkpt>
      <trkpt lat="45.91254" lon="1.27824">
        <ele>339.7</ele>
        <time>2024-11-10T13:51:02Z</time>
      </trkpt>
      <trkpt lat="45.91257" lon="1.27827">
        <ele>340</ele>
        <time>2024-11-10T13:51:03Z</time>
      </trkpt>
      <trkpt lat="45.9126" lon="1.2783">
        <ele>340.2</ele>
        <time>2024-11-10T13:51:04Z</time>
      </trkpt>
      <trkpt lat="45.91262" lon="1.27833">
        <ele>340.4</ele>
        <time>2024-11-10T13:51:05Z</time>
      </trkpt>
      <trkpt lat="45.91265" lon="1.27836">
        <ele>340.7</ele>
        <time>2024-11-10T13:51:06Z</time>
      </trkpt>
      <trkpt lat="45.91268" lon="1.27839">
        <ele>340.9</ele>
        <time>2024-11-10T13:51:07Z</time>
      </trkpt>
      <trkpt lat="45.9127" lon="1.27842">
        <ele>341.1</ele>
        <time>2024-11-10T13:51:08Z</time>
      </trkpt>
      <trkpt lat="45.91273" lon="1.27845">
        <ele>341.4</ele>
        <time>2024-11-10T13:51:09Z</time>
      </trkpt>
      <trkpt lat="45.91276" lon="1.27848">
        <ele>341.6</ele>
        <time>2024-11-10T13:51:10Z</time>
      </trkpt>
      <trkpt lat="45.91279" lon="1.2785">
        <ele>341.8</ele>
        <time>2024-11-10T13:51:11Z</time>
      </trkpt>
      <trkpt lat="45.91281" lon="1.27853">
        <ele>342</ele>
        <time>2024-11-10T13:51:12Z</time>
      </trkpt>
      <trkpt lat="45.91284" lon="1.27855">
        <ele>342.2</ele>
        <time>2024-11-10T13:51:13Z</time>
      </trkpt>
      <trkpt lat="45.91286" lon="1.27858">
        <ele>342.4</ele>
        <time>2024-11-10T13:51:14Z</time>
      </trkpt>
      <trkpt lat="45.91289" lon="1.2786">
        <ele>342.6</ele>
        <time>2024-11-10T13:51:15Z</time>
      </trkpt>
      <trkpt lat="45.91291" lon="1.27863">
        <ele>342.8</ele>
        <time>2024-11-10T13:51:16Z</time>
      </trkpt>
      <trkpt lat="45.91294" lon="1.27867">
        <ele>343</ele>
        <time>2024-11-10T13:51:18Z</time>
      </trkpt>
      <trkpt lat="45.91297" lon="1.2787">
        <ele>343.2</ele>
        <time>2024-11-10T13:51:19Z</time>
      </trkpt>
      <trkpt lat="45.91299" lon="1.27873">
        <ele>343.4</ele>
        <time>2024-11-10T13:51:20Z</time>
      </trkpt>
      <trkpt lat="45.91302" lon="1.27876">
        <ele>343.6</ele>
        <time>2024-11-10T13:51:21Z</time>
      </trkpt>
      <trkpt lat="45.91305" lon="1.2788">
        <ele>343.8</ele>
        <time>2024-11-10T13:51:22Z</time>
      </trkpt>
      <trkpt lat="45.91308" lon="1.27883">
        <ele>344</ele>
        <time>2024-11-10T13:51:23Z</time>
      </trkpt>
      <trkpt lat="45.9131" lon="1.27886">
        <ele>344.1</ele>
        <time>2024-11-10T13:51:24Z</time>
      </trkpt>
      <trkpt lat="45.91313" lon="1.27889">
        <ele>344.3</ele>
        <time>2024-11-10T13:51:25Z</time>
      </trkpt>
      <trkpt lat="45.91316" lon="1.27892">
        <ele>344.5</ele>
        <time>2024-11-10T13:51:26Z</time>
      </trkpt>
      <trkpt lat="45.91319" lon="1.27895">
        <ele>344.6</ele>
        <time>2024-11-10T13:51:27Z</time>
      </trkpt>
      <trkpt lat="45.91322" lon="1.27898">
        <ele>344.8</ele>
        <time>2024-11-10T13:51:28Z</time>
      </trkpt>
      <trkpt lat="45.91325" lon="1.27901">
        <ele>344.9</ele>
        <time>2024-11-10T13:51:29Z</time>
      </trkpt>
      <trkpt lat="45.91327" lon="1.27905">
        <ele>345.1</ele>
        <time>2024-11-10T13:51:30Z</time>
      </trkpt>
      <trkpt lat="45.9133" lon="1.27908">
        <ele>345.2</ele>
        <time>2024-11-10T13:51:31Z</time>
      </trkpt>
      <trkpt lat="45.91332" lon="1.27911">
        <ele>345.3</ele>
        <time>2024-11-10T13:51:32Z</time>
      </trkpt>
      <trkpt lat="45.91335" lon="1.27914">
        <ele>345.4</ele>
        <time>2024-11-10T13:51:33Z</time>
      </trkpt>
      <trkpt lat="45.91338" lon="1.27917">
        <ele>345.5</ele>
        <time>2024-11-10T13:51:34Z</time>
      </trkpt>
      <trkpt lat="45.9134" lon="1.27921">
        <ele>345.6</ele>
        <time>2024-11-10T13:51:35Z</time>
      </trkpt>
      <trkpt lat="45.91343" lon="1.27924">
        <ele>345.7</ele>
        <time>2024-11-10T13:51:36Z</time>
      </trkpt>
      <trkpt lat="45.91346" lon="1.27927">
        <ele>345.8</ele>
        <time>2024-11-10T13:51:37Z</time>
      </trkpt>
      <trkpt lat="45.91348" lon="1.27931">
        <ele>345.9</ele>
        <time>2024-11-10T13:51:38Z</time>
      </trkpt>
      <trkpt lat="45.9135" lon="1.27934">
        <ele>346</ele>
        <time>2024-11-10T13:51:39Z</time>
      </trkpt>
      <trkpt lat="45.91353" lon="1.27937">
        <ele>346.1</ele>
        <time>2024-11-10T13:51:40Z</time>
      </trkpt>
      <trkpt lat="45.91356" lon="1.2794">
        <ele>346.2</ele>
        <time>2024-11-10T13:51:41Z</time>
      </trkpt>
      <trkpt lat="45.91358" lon="1.27944">
        <ele>346.2</ele>
        <time>2024-11-10T13:51:42Z</time>
      </trkpt>
      <trkpt lat="45.91361" lon="1.27947">
        <ele>346.3</ele>
        <time>2024-11-10T13:51:43Z</time>
      </trkpt>
      <trkpt lat="45.91364" lon="1.2795">
        <ele>346.4</ele>
        <time>2024-11-10T13:51:44Z</time>
      </trkpt>
      <trkpt lat="45.91366" lon="1.27953">
        <ele>346.5</ele>
        <time>2024-11-10T13:51:45Z</time>
      </trkpt>
      <trkpt lat="45.91368" lon="1.27955">
        <ele>346.5</ele>
        <time>2024-11-10T13:51:46Z</time>
      </trkpt>
      <trkpt lat="45.91371" lon="1.27958">
        <ele>346.6</ele>
        <time>2024-11-10T13:51:47Z</time>
      </trkpt>
      <trkpt lat="45.91373" lon="1.27961">
        <ele>346.7</ele>
        <time>2024-11-10T13:51:48Z</time>
      </trkpt>
      <trkpt lat="45.91376" lon="1.27964">
        <ele>346.8</ele>
        <time>2024-11-10T13:51:49Z</time>
      </trkpt>
      <trkpt lat="45.91379" lon="1.27967">
        <ele>346.8</ele>
        <time>2024-11-10T13:51:50Z</time>
      </trkpt>
      <trkpt lat="45.91382" lon="1.2797">
        <ele>346.9</ele>
        <time>2024-11-10T13:51:51Z</time>
      </trkpt>
      <trkpt lat="45.91385" lon="1.27972">
        <ele>347</ele>
        <time>2024-11-10T13:51:52Z</time>
      </trkpt>
      <trkpt lat="45.91388" lon="1.27974">
        <ele>347.1</ele>
        <time>2024-11-10T13:51:53Z</time>
      </trkpt>
      <trkpt lat="45.91391" lon="1.27976">
        <ele>347.1</ele>
        <time>2024-11-10T13:51:54Z</time>
      </trkpt>
      <trkpt lat="45.91394" lon="1.27979">
        <ele>347.2</ele>
        <time>2024-11-10T13:51:55Z</time>
      </trkpt>
      <trkpt lat="45.91397" lon="1.27982">
        <ele>347.3</ele>
        <time>2024-11-10T13:51:56Z</time>
      </trkpt>
      <trkpt lat="45.91399" lon="1.27985">
        <ele>347.4</ele>
        <time>2024-11-10T13:51:57Z</time>
      </trkpt>
      <trkpt lat="45.91402" lon="1.27988">
        <ele>347.5</ele>
        <time>2024-11-10T13:51:58Z</time>
      </trkpt>
      <trkpt lat="45.91405" lon="1.2799">
        <ele>347.6</ele>
        <time>2024-11-10T13:51:59Z</time>
      </trkpt>
      <trkpt lat="45.91408" lon="1.27993">
        <ele>347.7</ele>
        <time>2024-11-10T13:52:00Z</time>
      </trkpt>
      <trkpt lat="45.91411" lon="1.27995">
        <ele>347.8</ele>
        <time>2024-11-10T13:52:01Z</time>
      </trkpt>
      <trkpt lat="45.91414" lon="1.27997">
        <ele>347.9</ele>
        <time>2024-11-10T13:52:02Z</time>
      </trkpt>
      <trkpt lat="45.91417" lon="1.27999">
        <ele>348</ele>
        <time>2024-11-10T13:52:03Z</time>
      </trkpt>
      <trkpt lat="45.91419" lon="1.28002">
        <ele>348.1</ele>
        <time>2024-11-10T13:52:04Z</time>
      </trkpt>
      <trkpt lat="45.91422" lon="1.28004">
        <ele>348.2</ele>
        <time>2024-11-10T13:52:05Z</time>
      </trkpt>
      <trkpt lat="45.91425" lon="1.28006">
        <ele>348.3</ele>
        <time>2024-11-10T13:52:06Z</time>
      </trkpt>
      <trkpt lat="45.91427" lon="1.28009">
        <ele>348.5</ele>
        <time>2024-11-10T13:52:07Z</time>
      </trkpt>
      <trkpt lat="45.9143" lon="1.28011">
        <ele>348.6</ele>
        <time>2024-11-10T13:52:08Z</time>
      </trkpt>
      <trkpt lat="45.91432" lon="1.28012">
        <ele>348.7</ele>
        <time>2024-11-10T13:52:09Z</time>
      </trkpt>
      <trkpt lat="45.91435" lon="1.28014">
        <ele>348.8</ele>
        <time>2024-11-10T13:52:10Z</time>
      </trkpt>
      <trkpt lat="45.91438" lon="1.28015">
        <ele>349</ele>
        <time>2024-11-10T13:52:11Z</time>
      </trkpt>
      <trkpt lat="45.9144" lon="1.28017">
        <ele>349.1</ele>
        <time>2024-11-10T13:52:12Z</time>
      </trkpt>
      <trkpt lat="45.91443" lon="1.28018">
        <ele>349.2</ele>
        <time>2024-11-10T13:52:13Z</time>
      </trkpt>
      <trkpt lat="45.91446" lon="1.28019">
        <ele>349.3</ele>
        <time>2024-11-10T13:52:14Z</time>
      </trkpt>
      <trkpt lat="45.9145" lon="1.2802">
        <ele>349.5</ele>
        <time>2024-11-10T13:52:15Z</time>
      </trkpt>
      <trkpt lat="45.91454" lon="1.28021">
        <ele>349.7</ele>
        <time>2024-11-10T13:52:17Z</time>
      </trkpt>
      <trkpt lat="45.91458" lon="1.28022">
        <ele>349.9</ele>
        <time>2024-11-10T13:52:18Z</time>
      </trkpt>
      <trkpt lat="45.91461" lon="1.28022">
        <ele>350</ele>
        <time>2024-11-10T13:52:19Z</time>
      </trkpt>
      <trkpt lat="45.91464" lon="1.28023">
        <ele>350.2</ele>
        <time>2024-11-10T13:52:20Z</time>
      </trkpt>
      <trkpt lat="45.91467" lon="1.28023">
        <ele>350.3</ele>
        <time>2024-11-10T13:52:21Z</time>
      </trkpt>
      <trkpt lat="45.9147" lon="1.28023">
        <ele>350.4</ele>
        <time>2024-11-10T13:52:22Z</time>
      </trkpt>
      <trkpt lat="45.91473" lon="1.28023">
        <ele>350.6</ele>
        <time>2024-11-10T13:52:23Z</time>
      </trkpt>
      <trkpt lat="45.91477" lon="1.28024">
        <ele>350.7</ele>
        <time>2024-11-10T13:52:24Z</time>
      </trkpt>
      <trkpt lat="45.91479" lon="1.28024">
        <ele>350.8</ele>
        <time>2024-11-10T13:52:25Z</time>
      </trkpt>
      <trkpt lat="45.91482" lon="1.28025">
        <ele>350.9</ele>
        <time>2024-11-10T13:52:26Z</time>
      </trkpt>
      <trkpt lat="45.91487" lon="1.28026">
        <ele>351.2</ele>
        <time>2024-11-10T13:52:28Z</time>
      </trkpt>
      <trkpt lat="45.9149" lon="1.28027">
        <ele>351.3</ele>
        <time>2024-11-10T13:52:29Z</time>
      </trkpt>
      <trkpt lat="45.91493" lon="1.28028">
        <ele>351.4</ele>
        <time>2024-11-10T13:52:30Z</time>
      </trkpt>
      <trkpt lat="45.91497" lon="1.28029">
        <ele>351.6</ele>
        <time>2024-11-10T13:52:31Z</time>
      </trkpt>
      <trkpt lat="45.915" lon="1.2803">
        <ele>351.7</ele>
        <time>2024-11-10T13:52:32Z</time>
      </trkpt>
      <trkpt lat="45.91503" lon="1.28032">
        <ele>351.8</ele>
        <time>2024-11-10T13:52:33Z</time>
      </trkpt>
      <trkpt lat="45.91506" lon="1.28033">
        <ele>351.9</ele>
        <time>2024-11-10T13:52:34Z</time>
      </trkpt>
      <trkpt lat="45.91509" lon="1.28035">
        <ele>352</ele>
        <time>2024-11-10T13:52:35Z</time>
      </trkpt>
      <trkpt lat="45.91512" lon="1.28036">
        <ele>352.1</ele>
        <time>2024-11-10T13:52:36Z</time>
      </trkpt>
      <trkpt lat="45.91516" lon="1.28036">
        <ele>352.2</ele>
        <time>2024-11-10T13:52:37Z</time>
      </trkpt>
      <trkpt lat="45.91519" lon="1.28037">
        <ele>352.3</ele>
        <time>2024-11-10T13:52:38Z</time>
      </trkpt>
      <trkpt lat="45.91522" lon="1.28037">
        <ele>352.4</ele>
        <time>2024-11-10T13:52:39Z</time>
      </trkpt>
      <trkpt lat="45.91526" lon="1.28038">
        <ele>352.5</ele>
        <time>2024-11-10T13:52:40Z</time>
      </trkpt>
      <trkpt lat="45.91529" lon="1.28038">
        <ele>352.5</ele>
        <time>2024-11-10T13:52:41Z</time>
      </trkpt>
      <trkpt lat="45.91532" lon="1.28038">
        <ele>352.6</ele>
        <time>2024-11-10T13:52:42Z</time>
      </trkpt>
      <trkpt lat="45.91536" lon="1.28038">
        <ele>352.7</ele>
        <time>2024-11-10T13:52:43Z</time>
      </trkpt>
      <trkpt lat="45.91539" lon="1.28037">
        <ele>352.7</ele>
        <time>2024-11-10T13:52:44Z</time>
      </trkpt>
      <trkpt lat="45.91542" lon="1.28036">
        <ele>352.7</ele>
        <time>2024-11-10T13:52:45Z</time>
      </trkpt>
      <trkpt lat="45.91545" lon="1.28036">
        <ele>352.8</ele>
        <time>2024-11-10T13:52:46Z</time>
      </trkpt>
      <trkpt lat="45.91548" lon="1.28035">
        <ele>352.8</ele>
        <time>2024-11-10T13:52:47Z</time>
      </trkpt>
      <trkpt lat="45.91552" lon="1.28035">
        <ele>352.9</ele>
        <time>2024-11-10T13:52:48Z</time>
      </trkpt>
      <trkpt lat="45.91555" lon="1.28035">
        <ele>352.9</ele>
        <time>2024-11-10T13:52:50Z</time>
      </trkpt>
      <trkpt lat="45.9156" lon="1.28036">
        <ele>353</ele>
        <time>2024-11-10T13:52:52Z</time>
      </trkpt>
      <trkpt lat="45.91564" lon="1.28036">
        <ele>353</ele>
        <time>2024-11-10T13:52:53Z</time>
      </trkpt>
      <trkpt lat="45.91568" lon="1.28037">
        <ele>353.1</ele>
        <time>2024-11-10T13:52:55Z</time>
      </trkpt>
      <trkpt lat="45.91572" lon="1.28038">
        <ele>353.2</ele>
        <time>2024-11-10T13:52:58Z</time>
      </trkpt>
      <trkpt lat="45.91571" lon="1.28038">
        <ele>353.2</ele>
        <time>2024-11-10T13:53:18Z</time>
      </trkpt>
      <trkpt lat="45.91573" lon="1.28039">
        <ele>353.2</ele>
        <time>2024-11-10T13:53:35Z</time>
      </trkpt>
      <trkpt lat="45.91575" lon="1.28041">
        <ele>353.2</ele>
        <time>2024-11-10T13:53:46Z</time>
      </trkpt>
      <trkpt lat="45.91577" lon="1.28045">
        <ele>353.3</ele>
        <time>2024-11-10T13:53:50Z</time>
      </trkpt>
      <trkpt lat="45.9158" lon="1.28049">
        <ele>353.3</ele>
        <time>2024-11-10T13:53:51Z</time>
      </trkpt>
      <trkpt lat="45.91582" lon="1.28052">
        <ele>353.4</ele>
        <time>2024-11-10T13:53:52Z</time>
      </trkpt>
      <trkpt lat="45.91585" lon="1.28055">
        <ele>353.4</ele>
        <time>2024-11-10T13:53:53Z</time>
      </trkpt>
      <trkpt lat="45.91588" lon="1.28057">
        <ele>353.5</ele>
        <time>2024-11-10T13:53:54Z</time>
      </trkpt>
      <trkpt lat="45.91591" lon="1.2806">
        <ele>353.5</ele>
        <time>2024-11-10T13:53:55Z</time>
      </trkpt>
      <trkpt lat="45.91595" lon="1.28063">
        <ele>353.6</ele>
        <time>2024-11-10T13:53:56Z</time>
      </trkpt>
      <trkpt lat="45.91599" lon="1.28067">
        <ele>353.7</ele>
        <time>2024-11-10T13:53:57Z</time>
      </trkpt>
      <trkpt lat="45.91603" lon="1.2807">
        <ele>353.8</ele>
        <time>2024-11-10T13:53:58Z</time>
      </trkpt>
      <trkpt lat="45.91607" lon="1.28073">
        <ele>353.8</ele>
        <time>2024-11-10T13:53:59Z</time>
      </trkpt>
      <trkpt lat="45.91612" lon="1.28076">
        <ele>353.9</ele>
        <time>2024-11-10T13:54:00Z</time>
      </trkpt>
      <trkpt lat="45.91616" lon="1.28078">
        <ele>354</ele>
        <time>2024-11-10T13:54:01Z</time>
      </trkpt>
      <trkpt lat="45.9162" lon="1.28081">
        <ele>354.1</ele>
        <time>2024-11-10T13:54:02Z</time>
      </trkpt>
      <trkpt lat="45.91624" lon="1.28084">
        <ele>354.2</ele>
        <time>2024-11-10T13:54:03Z</time>
      </trkpt>
      <trkpt lat="45.91627" lon="1.28088">
        <ele>354.3</ele>
        <time>2024-11-10T13:54:04Z</time>
      </trkpt>
      <trkpt lat="45.91629" lon="1.28093">
        <ele>354.3</ele>
        <time>2024-11-10T13:54:05Z</time>
      </trkpt>
      <trkpt lat="45.91631" lon="1.28099">
        <ele>354.3</ele>
        <time>2024-11-10T13:54:06Z</time>
      </trkpt>
      <trkpt lat="45.91632" lon="1.28104">
        <ele>354.4</ele>
        <time>2024-11-10T13:54:07Z</time>
      </trkpt>
      <trkpt lat="45.91633" lon="1.2811">
        <ele>354.4</ele>
        <time>2024-11-10T13:54:08Z</time>
      </trkpt>
      <trkpt lat="45.91633" lon="1.28115">
        <ele>354.5</ele>
        <time>2024-11-10T13:54:09Z</time>
      </trkpt>
      <trkpt lat="45.91634" lon="1.28119">
        <ele>354.5</ele>
        <time>2024-11-10T13:54:10Z</time>
      </trkpt>
      <trkpt lat="45.91634" lon="1.28124">
        <ele>354.6</ele>
        <time>2024-11-10T13:54:11Z</time>
      </trkpt>
      <trkpt lat="45.91635" lon="1.2813">
        <ele>354.7</ele>
        <time>2024-11-10T13:54:12Z</time>
      </trkpt>
      <trkpt lat="45.91635" lon="1.28136">
        <ele>354.8</ele>
        <time>2024-11-10T13:54:13Z</time>
      </trkpt>
      <trkpt lat="45.91635" lon="1.28142">
        <ele>354.9</ele>
        <time>2024-11-10T13:54:14Z</time>
      </trkpt>
      <trkpt lat="45.91635" lon="1.28147">
        <ele>355</ele>
        <time>2024-11-10T13:54:15Z</time>
      </trkpt>
      <trkpt lat="45.91636" lon="1.28152">
        <ele>355.1</ele>
        <time>2024-11-10T13:54:16Z</time>
      </trkpt>
      <trkpt lat="45.91637" lon="1.28157">
        <ele>355.1</ele>
        <time>2024-11-10T13:54:17Z</time>
      </trkpt>
      <trkpt lat="45.91639" lon="1.28161">
        <ele>355.2</ele>
        <time>2024-11-10T13:54:18Z</time>
      </trkpt>
      <trkpt lat="45.91642" lon="1.28164">
        <ele>355.3</ele>
        <time>2024-11-10T13:54:19Z</time>
      </trkpt>
      <trkpt lat="45.91645" lon="1.28166">
        <ele>355.4</ele>
        <time>2024-11-10T13:54:20Z</time>
      </trkpt>
      <trkpt lat="45.91649" lon="1.28167">
        <ele>355.5</ele>
        <time>2024-11-10T13:54:21Z</time>
      </trkpt>
      <trkpt lat="45.91652" lon="1.28168">
        <ele>355.5</ele>
        <time>2024-11-10T13:54:22Z</time>
      </trkpt>
      <trkpt lat="45.91656" lon="1.2817">
        <ele>355.6</ele>
        <time>2024-11-10T13:54:23Z</time>
      </trkpt>
      <trkpt lat="45.9166" lon="1.28171">
        <ele>355.7</ele>
        <time>2024-11-10T13:54:24Z</time>
      </trkpt>
      <trkpt lat="45.91663" lon="1.28172">
        <ele>355.8</ele>
        <time>2024-11-10T13:54:25Z</time>
      </trkpt>
      <trkpt lat="45.91667" lon="1.28174">
        <ele>355.8</ele>
        <time>2024-11-10T13:54:26Z</time>
      </trkpt>
      <trkpt lat="45.9167" lon="1.28176">
        <ele>355.9</ele>
        <time>2024-11-10T13:54:27Z</time>
      </trkpt>
      <trkpt lat="45.91674" lon="1.28178">
        <ele>356</ele>
        <time>2024-11-10T13:54:28Z</time>
      </trkpt>
      <trkpt lat="45.91677" lon="1.2818">
        <ele>356.1</ele>
        <time>2024-11-10T13:54:29Z</time>
      </trkpt>
      <trkpt lat="45.91679" lon="1.28182">
        <ele>356.1</ele>
        <time>2024-11-10T13:54:30Z</time>
      </trkpt>
      <trkpt lat="45.91682" lon="1.28184">
        <ele>356.2</ele>
        <time>2024-11-10T13:54:31Z</time>
      </trkpt>
      <trkpt lat="45.91686" lon="1.28186">
        <ele>356.2</ele>
        <time>2024-11-10T13:54:32Z</time>
      </trkpt>
      <trkpt lat="45.91689" lon="1.28188">
        <ele>356.3</ele>
        <time>2024-11-10T13:54:33Z</time>
      </trkpt>
      <trkpt lat="45.91692" lon="1.28191">
        <ele>356.4</ele>
        <time>2024-11-10T13:54:34Z</time>
      </trkpt>
      <trkpt lat="45.91696" lon="1.28193">
        <ele>356.5</ele>
        <time>2024-11-10T13:54:35Z</time>
      </trkpt>
      <trkpt lat="45.91699" lon="1.28196">
        <ele>356.6</ele>
        <time>2024-11-10T13:54:36Z</time>
      </trkpt>
      <trkpt lat="45.91703" lon="1.28198">
        <ele>356.7</ele>
        <time>2024-11-10T13:54:37Z</time>
      </trkpt>
      <trkpt lat="45.91706" lon="1.282">
        <ele>356.8</ele>
        <time>2024-11-10T13:54:38Z</time>
      </trkpt>
      <trkpt lat="45.9171" lon="1.28202">
        <ele>356.9</ele>
        <time>2024-11-10T13:54:39Z</time>
      </trkpt>
      <trkpt lat="45.91713" lon="1.28204">
        <ele>357</ele>
        <time>2024-11-10T13:54:40Z</time>
      </trkpt>
      <trkpt lat="45.91717" lon="1.28205">
        <ele>357.1</ele>
        <time>2024-11-10T13:54:41Z</time>
      </trkpt>
      <trkpt lat="45.91721" lon="1.28206">
        <ele>357.3</ele>
        <time>2024-11-10T13:54:42Z</time>
      </trkpt>
      <trkpt lat="45.91724" lon="1.28207">
        <ele>357.4</ele>
        <time>2024-11-10T13:54:43Z</time>
      </trkpt>
      <trkpt lat="45.91728" lon="1.28208">
        <ele>357.6</ele>
        <time>2024-11-10T13:54:44Z</time>
      </trkpt>
      <trkpt lat="45.91731" lon="1.28209">
        <ele>357.7</ele>
        <time>2024-11-10T13:54:45Z</time>
      </trkpt>
      <trkpt lat="45.91735" lon="1.2821">
        <ele>357.8</ele>
        <time>2024-11-10T13:54:46Z</time>
      </trkpt>
      <trkpt lat="45.91738" lon="1.28211">
        <ele>357.9</ele>
        <time>2024-11-10T13:54:47Z</time>
      </trkpt>
      <trkpt lat="45.91741" lon="1.28212">
        <ele>358</ele>
        <time>2024-11-10T13:54:48Z</time>
      </trkpt>
      <trkpt lat="45.91744" lon="1.28213">
        <ele>358.2</ele>
        <time>2024-11-10T13:54:49Z</time>
      </trkpt>
      <trkpt lat="45.91746" lon="1.28213">
        <ele>358.2</ele>
        <time>2024-11-10T13:54:50Z</time>
      </trkpt>
      <trkpt lat="45.91751" lon="1.28214">
        <ele>358.4</ele>
        <time>2024-11-10T13:54:52Z</time>
      </trkpt>
      <trkpt lat="45.91754" lon="1.28215">
        <ele>358.5</ele>
        <time>2024-11-10T13:54:53Z</time>
      </trkpt>
      <trkpt lat="45.91757" lon="1.28216">
        <ele>358.6</ele>
        <time>2024-11-10T13:54:54Z</time>
      </trkpt>
      <trkpt lat="45.91761" lon="1.28216">
        <ele>358.8</ele>
        <time>2024-11-10T13:54:55Z</time>
      </trkpt>
      <trkpt lat="45.91764" lon="1.28217">
        <ele>358.9</ele>
        <time>2024-11-10T13:54:56Z</time>
      </trkpt>
      <trkpt lat="45.91767" lon="1.28217">
        <ele>359</ele>
        <time>2024-11-10T13:54:57Z</time>
      </trkpt>
      <trkpt lat="45.9177" lon="1.28219">
        <ele>359.1</ele>
        <time>2024-11-10T13:54:58Z</time>
      </trkpt>
      <trkpt lat="45.91773" lon="1.2822">
        <ele>359.2</ele>
        <time>2024-11-10T13:54:59Z</time>
      </trkpt>
      <trkpt lat="45.91776" lon="1.28222">
        <ele>359.3</ele>
        <time>2024-11-10T13:55:00Z</time>
      </trkpt>
      <trkpt lat="45.91778" lon="1.28223">
        <ele>359.4</ele>
        <time>2024-11-10T13:55:01Z</time>
      </trkpt>
      <trkpt lat="45.91781" lon="1.28224">
        <ele>359.5</ele>
        <time>2024-11-10T13:55:02Z</time>
      </trkpt>
      <trkpt lat="45.91784" lon="1.28225">
        <ele>359.6</ele>
        <time>2024-11-10T13:55:03Z</time>
      </trkpt>
      <trkpt lat="45.91787" lon="1.28226">
        <ele>359.7</ele>
        <time>2024-11-10T13:55:04Z</time>
      </trkpt>
      <trkpt lat="45.9179" lon="1.28227">
        <ele>359.8</ele>
        <time>2024-11-10T13:55:05Z</time>
      </trkpt>
      <trkpt lat="45.91793" lon="1.28228">
        <ele>359.9</ele>
        <time>2024-11-10T13:55:06Z</time>
      </trkpt>
      <trkpt lat="45.91796" lon="1.28228">
        <ele>360.1</ele>
        <time>2024-11-10T13:55:07Z</time>
      </trkpt>
      <trkpt lat="45.91799" lon="1.28229">
        <ele>360.2</ele>
        <time>2024-11-10T13:55:08Z</time>
      </trkpt>
      <trkpt lat="45.91804" lon="1.2823">
        <ele>360.5</ele>
        <time>2024-11-10T13:55:10Z</time>
      </trkpt>
      <trkpt lat="45.91807" lon="1.28231">
        <ele>360.6</ele>
        <time>2024-11-10T13:55:11Z</time>
      </trkpt>
      <trkpt lat="45.9181" lon="1.28232">
        <ele>360.8</ele>
        <time>2024-11-10T13:55:12Z</time>
      </trkpt>
      <trkpt lat="45.91815" lon="1.28233">
        <ele>361</ele>
        <time>2024-11-10T13:55:14Z</time>
      </trkpt>
      <trkpt lat="45.91818" lon="1.28235">
        <ele>361.2</ele>
        <time>2024-11-10T13:55:15Z</time>
      </trkpt>
      <trkpt lat="45.91821" lon="1.28236">
        <ele>361.4</ele>
        <time>2024-11-10T13:55:16Z</time>
      </trkpt>
      <trkpt lat="45.91824" lon="1.28236">
        <ele>361.5</ele>
        <time>2024-11-10T13:55:17Z</time>
      </trkpt>
      <trkpt lat="45.91829" lon="1.28237">
        <ele>361.8</ele>
        <time>2024-11-10T13:55:19Z</time>
      </trkpt>
      <trkpt lat="45.91832" lon="1.28237">
        <ele>361.9</ele>
        <time>2024-11-10T13:55:20Z</time>
      </trkpt>
      <trkpt lat="45.91835" lon="1.28238">
        <ele>362.1</ele>
        <time>2024-11-10T13:55:21Z</time>
      </trkpt>
      <trkpt lat="45.91839" lon="1.28238">
        <ele>362.3</ele>
        <time>2024-11-10T13:55:23Z</time>
      </trkpt>
      <trkpt lat="45.91844" lon="1.28239">
        <ele>362.6</ele>
        <time>2024-11-10T13:55:25Z</time>
      </trkpt>
      <trkpt lat="45.91847" lon="1.28239">
        <ele>362.8</ele>
        <time>2024-11-10T13:55:26Z</time>
      </trkpt>
      <trkpt lat="45.91852" lon="1.28239">
        <ele>363</ele>
        <time>2024-11-10T13:55:28Z</time>
      </trkpt>
      <trkpt lat="45.91856" lon="1.28238">
        <ele>363.3</ele>
        <time>2024-11-10T13:55:30Z</time>
      </trkpt>
      <trkpt lat="45.91861" lon="1.28239">
        <ele>363.5</ele>
        <time>2024-11-10T13:55:32Z</time>
      </trkpt>
      <trkpt lat="45.91865" lon="1.28239">
        <ele>363.8</ele>
        <time>2024-11-10T13:55:34Z</time>
      </trkpt>
      <trkpt lat="45.91868" lon="1.28239">
        <ele>364</ele>
        <time>2024-11-10T13:55:36Z</time>
      </trkpt>
      <trkpt lat="45.91871" lon="1.28239">
        <ele>364.1</ele>
        <time>2024-11-10T13:55:38Z</time>
      </trkpt>
      <trkpt lat="45.91875" lon="1.2824">
        <ele>364.4</ele>
        <time>2024-11-10T13:55:40Z</time>
      </trkpt>
      <trkpt lat="45.91878" lon="1.2824">
        <ele>364.6</ele>
        <time>2024-11-10T13:55:42Z</time>
      </trkpt>
      <trkpt lat="45.91882" lon="1.2824">
        <ele>364.8</ele>
        <time>2024-11-10T13:55:44Z</time>
      </trkpt>
      <trkpt lat="45.91887" lon="1.2824">
        <ele>365.2</ele>
        <time>2024-11-10T13:55:46Z</time>
      </trkpt>
      <trkpt lat="45.91891" lon="1.28241">
        <ele>365.4</ele>
        <time>2024-11-10T13:55:48Z</time>
      </trkpt>
      <trkpt lat="45.91895" lon="1.28242">
        <ele>365.7</ele>
        <time>2024-11-10T13:55:50Z</time>
      </trkpt>
      <trkpt lat="45.91898" lon="1.28243">
        <ele>365.9</ele>
        <time>2024-11-10T13:55:52Z</time>
      </trkpt>
      <trkpt lat="45.91902" lon="1.28245">
        <ele>366.2</ele>
        <time>2024-11-10T13:55:54Z</time>
      </trkpt>
      <trkpt lat="45.91906" lon="1.28246">
        <ele>366.5</ele>
        <time>2024-11-10T13:55:56Z</time>
      </trkpt>
      <trkpt lat="45.9191" lon="1.28247">
        <ele>366.8</ele>
        <time>2024-11-10T13:55:58Z</time>
      </trkpt>
      <trkpt lat="45.91915" lon="1.28248">
        <ele>367.2</ele>
        <time>2024-11-10T13:56:00Z</time>
      </trkpt>
      <trkpt lat="45.91919" lon="1.2825">
        <ele>367.6</ele>
        <time>2024-11-10T13:56:02Z</time>
      </trkpt>
      <trkpt lat="45.91923" lon="1.28252">
        <ele>367.9</ele>
        <time>2024-11-10T13:56:04Z</time>
      </trkpt>
      <trkpt lat="45.91927" lon="1.28253">
        <ele>368.2</ele>
        <time>2024-11-10T13:56:06Z</time>
      </trkpt>
      <trkpt lat="45.91931" lon="1.28255">
        <ele>368.5</ele>
        <time>2024-11-10T13:56:08Z</time>
      </trkpt>
      <trkpt lat="45.91935" lon="1.28256">
        <ele>368.8</ele>
        <time>2024-11-10T13:56:10Z</time>
      </trkpt>
      <trkpt lat="45.91939" lon="1.28258">
        <ele>369.1</ele>
        <time>2024-11-10T13:56:12Z</time>
      </trkpt>
      <trkpt lat="45.91943" lon="1.28261">
        <ele>369.5</ele>
        <time>2024-11-10T13:56:14Z</time>
      </trkpt>
      <trkpt lat="45.91947" lon="1.28262">
        <ele>369.8</ele>
        <time>2024-11-10T13:56:16Z</time>
      </trkpt>
      <trkpt lat="45.91951" lon="1.28265">
        <ele>370.1</ele>
        <time>2024-11-10T13:56:18Z</time>
      </trkpt>
      <trkpt lat="45.91955" lon="1.28267">
        <ele>370.4</ele>
        <time>2024-11-10T13:56:20Z</time>
      </trkpt>
      <trkpt lat="45.91959" lon="1.2827">
        <ele>370.7</ele>
        <time>2024-11-10T13:56:22Z</time>
      </trkpt>
      <trkpt lat="45.91963" lon="1.28273">
        <ele>371</ele>
        <time>2024-11-10T13:56:24Z</time>
      </trkpt>
      <trkpt lat="45.91967" lon="1.28275">
        <ele>371.3</ele>
        <time>2024-11-10T13:56:26Z</time>
      </trkpt>
      <trkpt lat="45.91971" lon="1.28277">
        <ele>371.6</ele>
        <time>2024-11-10T13:56:28Z</time>
      </trkpt>
      <trkpt lat="45.91975" lon="1.2828">
        <ele>371.9</ele>
        <time>2024-11-10T13:56:30Z</time>
      </trkpt>
      <trkpt lat="45.91979" lon="1.28283">
        <ele>372.2</ele>
        <time>2024-11-10T13:56:32Z</time>
      </trkpt>
      <trkpt lat="45.91983" lon="1.28286">
        <ele>372.5</ele>
        <time>2024-11-10T13:56:34Z</time>
      </trkpt>
      <trkpt lat="45.91987" lon="1.28289">
        <ele>372.8</ele>
        <time>2024-11-10T13:56:36Z</time>
      </trkpt>
      <trkpt lat="45.91991" lon="1.28291">
        <ele>373.1</ele>
        <time>2024-11-10T13:56:38Z</time>
      </trkpt>
      <trkpt lat="45.91995" lon="1.28294">
        <ele>373.4</ele>
        <time>2024-11-10T13:56:40Z</time>
      </trkpt>
      <trkpt lat="45.91998" lon="1.28298">
        <ele>373.7</ele>
        <time>2024-11-10T13:56:42Z</time>
      </trkpt>
      <trkpt lat="45.92002" lon="1.28302">
        <ele>374</ele>
        <time>2024-11-10T13:56:44Z</time>
      </trkpt>
      <trkpt lat="45.92006" lon="1.28305">
        <ele>374.4</ele>
        <time>2024-11-10T13:56:46Z</time>
      </trkpt>
      <trkpt lat="45.9201" lon="1.28309">
        <ele>374.7</ele>
        <time>2024-11-10T13:56:48Z</time>
      </trkpt>
      <trkpt lat="45.92014" lon="1.28313">
        <ele>375.1</ele>
        <time>2024-11-10T13:56:50Z</time>
      </trkpt>
      <trkpt lat="45.92017" lon="1.28317">
        <ele>375.4</ele>
        <time>2024-11-10T13:56:52Z</time>
      </trkpt>
      <trkpt lat="45.92021" lon="1.28321">
        <ele>375.8</ele>
        <time>2024-11-10T13:56:54Z</time>
      </trkpt>
      <trkpt lat="45.92024" lon="1.28325">
        <ele>376.1</ele>
        <time>2024-11-10T13:56:56Z</time>
      </trkpt>
      <trkpt lat="45.92027" lon="1.28329">
        <ele>376.5</ele>
        <time>2024-11-10T13:56:58Z</time>
      </trkpt>
      <trkpt lat="45.9203" lon="1.28332">
        <ele>376.7</ele>
        <time>2024-11-10T13:57:00Z</time>
      </trkpt>
      <trkpt lat="45.92033" lon="1.28335">
        <ele>376.7</ele>
        <time>2024-11-10T13:57:02Z</time>
      </trkpt>
      <trkpt lat="45.92038" lon="1.28337">
        <ele>376.8</ele>
        <time>2024-11-10T13:57:04Z</time>
      </trkpt>
      <trkpt lat="45.92042" lon="1.28339">
        <ele>376.9</ele>
        <time>2024-11-10T13:57:05Z</time>
      </trkpt>
      <trkpt lat="45.92044" lon="1.28341">
        <ele>376.9</ele>
        <time>2024-11-10T13:57:06Z</time>
      </trkpt>
      <trkpt lat="45.92048" lon="1.28344">
        <ele>376.9</ele>
        <time>2024-11-10T13:57:08Z</time>
      </trkpt>
      <trkpt lat="45.92051" lon="1.28348">
        <ele>376.9</ele>
        <time>2024-11-10T13:57:10Z</time>
      </trkpt>
      <trkpt lat="45.92054" lon="1.28351">
        <ele>376.9</ele>
        <time>2024-11-10T13:57:12Z</time>
      </trkpt>
      <trkpt lat="45.92057" lon="1.28354">
        <ele>376.8</ele>
        <time>2024-11-10T13:57:14Z</time>
      </trkpt>
      <trkpt lat="45.92062" lon="1.28355">
        <ele>376.7</ele>
        <time>2024-11-10T13:57:16Z</time>
      </trkpt>
      <trkpt lat="45.92065" lon="1.28357">
        <ele>376.7</ele>
        <time>2024-11-10T13:57:17Z</time>
      </trkpt>
      <trkpt lat="45.92068" lon="1.28358">
        <ele>376.6</ele>
        <time>2024-11-10T13:57:18Z</time>
      </trkpt>
      <trkpt lat="45.92072" lon="1.2836">
        <ele>376.5</ele>
        <time>2024-11-10T13:57:19Z</time>
      </trkpt>
      <trkpt lat="45.92076" lon="1.28361">
        <ele>376.3</ele>
        <time>2024-11-10T13:57:20Z</time>
      </trkpt>
      <trkpt lat="45.9208" lon="1.28362">
        <ele>376.2</ele>
        <time>2024-11-10T13:57:21Z</time>
      </trkpt>
      <trkpt lat="45.92084" lon="1.28365">
        <ele>376.1</ele>
        <time>2024-11-10T13:57:22Z</time>
      </trkpt>
      <trkpt lat="45.92088" lon="1.28368">
        <ele>376</ele>
        <time>2024-11-10T13:57:23Z</time>
      </trkpt>
      <trkpt lat="45.92092" lon="1.28371">
        <ele>375.9</ele>
        <time>2024-11-10T13:57:24Z</time>
      </trkpt>
      <trkpt lat="45.92095" lon="1.28373">
        <ele>375.8</ele>
        <time>2024-11-10T13:57:25Z</time>
      </trkpt>
      <trkpt lat="45.92099" lon="1.28376">
        <ele>375.7</ele>
        <time>2024-11-10T13:57:26Z</time>
      </trkpt>
      <trkpt lat="45.92103" lon="1.28378">
        <ele>375.7</ele>
        <time>2024-11-10T13:57:27Z</time>
      </trkpt>
      <trkpt lat="45.92106" lon="1.28381">
        <ele>375.6</ele>
        <time>2024-11-10T13:57:28Z</time>
      </trkpt>
      <trkpt lat="45.92109" lon="1.28385">
        <ele>375.5</ele>
        <time>2024-11-10T13:57:29Z</time>
      </trkpt>
      <trkpt lat="45.92111" lon="1.2839">
        <ele>375.4</ele>
        <time>2024-11-10T13:57:30Z</time>
      </trkpt>
      <trkpt lat="45.92113" lon="1.28395">
        <ele>375.3</ele>
        <time>2024-11-10T13:57:31Z</time>
      </trkpt>
      <trkpt lat="45.92115" lon="1.28401">
        <ele>375.1</ele>
        <time>2024-11-10T13:57:32Z</time>
      </trkpt>
      <trkpt lat="45.92116" lon="1.28407">
        <ele>375</ele>
        <time>2024-11-10T13:57:33Z</time>
      </trkpt>
      <trkpt lat="45.92117" lon="1.28414">
        <ele>374.8</ele>
        <time>2024-11-10T13:57:34Z</time>
      </trkpt>
      <trkpt lat="45.92118" lon="1.28421">
        <ele>374.6</ele>
        <time>2024-11-10T13:57:35Z</time>
      </trkpt>
      <trkpt lat="45.9212" lon="1.28428">
        <ele>374.5</ele>
        <time>2024-11-10T13:57:36Z</time>
      </trkpt>
      <trkpt lat="45.92121" lon="1.28436">
        <ele>374.3</ele>
        <time>2024-11-10T13:57:37Z</time>
      </trkpt>
      <trkpt lat="45.92123" lon="1.28443">
        <ele>374.2</ele>
        <time>2024-11-10T13:57:38Z</time>
      </trkpt>
      <trkpt lat="45.92124" lon="1.28451">
        <ele>374</ele>
        <time>2024-11-10T13:57:39Z</time>
      </trkpt>
      <trkpt lat="45.92125" lon="1.28458">
        <ele>373.9</ele>
        <time>2024-11-10T13:57:40Z</time>
      </trkpt>
      <trkpt lat="45.92126" lon="1.28466">
        <ele>373.8</ele>
        <time>2024-11-10T13:57:41Z</time>
      </trkpt>
      <trkpt lat="45.92127" lon="1.28472">
        <ele>373.7</ele>
        <time>2024-11-10T13:57:42Z</time>
      </trkpt>
      <trkpt lat="45.92128" lon="1.28478">
        <ele>373.6</ele>
        <time>2024-11-10T13:57:43Z</time>
      </trkpt>
      <trkpt lat="45.9213" lon="1.28484">
        <ele>373.5</ele>
        <time>2024-11-10T13:57:44Z</time>
      </trkpt>
      <trkpt lat="45.92132" lon="1.28491">
        <ele>373.4</ele>
        <time>2024-11-10T13:57:45Z</time>
      </trkpt>
      <trkpt lat="45.92134" lon="1.28497">
        <ele>373.2</ele>
        <time>2024-11-10T13:57:46Z</time>
      </trkpt>
      <trkpt lat="45.92137" lon="1.28503">
        <ele>373.1</ele>
        <time>2024-11-10T13:57:47Z</time>
      </trkpt>
      <trkpt lat="45.92139" lon="1.2851">
        <ele>372.9</ele>
        <time>2024-11-10T13:57:48Z</time>
      </trkpt>
      <trkpt lat="45.92141" lon="1.28518">
        <ele>372.8</ele>
        <time>2024-11-10T13:57:49Z</time>
      </trkpt>
      <trkpt lat="45.92142" lon="1.28526">
        <ele>372.6</ele>
        <time>2024-11-10T13:57:50Z</time>
      </trkpt>
      <trkpt lat="45.92143" lon="1.28533">
        <ele>372.5</ele>
        <time>2024-11-10T13:57:51Z</time>
      </trkpt>
      <trkpt lat="45.92146" lon="1.28541">
        <ele>372.4</ele>
        <time>2024-11-10T13:57:52Z</time>
      </trkpt>
      <trkpt lat="45.92148" lon="1.28548">
        <ele>372.3</ele>
        <time>2024-11-10T13:57:53Z</time>
      </trkpt>
      <trkpt lat="45.92149" lon="1.28555">
        <ele>372.3</ele>
        <time>2024-11-10T13:57:54Z</time>
      </trkpt>
      <trkpt lat="45.92151" lon="1.28562">
        <ele>372.2</ele>
        <time>2024-11-10T13:57:55Z</time>
      </trkpt>
      <trkpt lat="45.92153" lon="1.28567">
        <ele>372.2</ele>
        <time>2024-11-10T13:57:56Z</time>
      </trkpt>
      <trkpt lat="45.92155" lon="1.28571">
        <ele>372.2</ele>
        <time>2024-11-10T13:57:57Z</time>
      </trkpt>
      <trkpt lat="45.92158" lon="1.28573">
        <ele>372.2</ele>
        <time>2024-11-10T13:57:58Z</time>
      </trkpt>
      <trkpt lat="45.92162" lon="1.28573">
        <ele>372.2</ele>
        <time>2024-11-10T13:57:59Z</time>
      </trkpt>
      <trkpt lat="45.92166" lon="1.28571">
        <ele>372.3</ele>
        <time>2024-11-10T13:58:00Z</time>
      </trkpt>
      <trkpt lat="45.9217" lon="1.28569">
        <ele>372.3</ele>
        <time>2024-11-10T13:58:01Z</time>
      </trkpt>
      <trkpt lat="45.92175" lon="1.28568">
        <ele>372.3</ele>
        <time>2024-11-10T13:58:02Z</time>
      </trkpt>
      <trkpt lat="45.92179" lon="1.28566">
        <ele>372.4</ele>
        <time>2024-11-10T13:58:03Z</time>
      </trkpt>
      <trkpt lat="45.92183" lon="1.28565">
        <ele>372.4</ele>
        <time>2024-11-10T13:58:04Z</time>
      </trkpt>
      <trkpt lat="45.92187" lon="1.28563">
        <ele>372.5</ele>
        <time>2024-11-10T13:58:05Z</time>
      </trkpt>
      <trkpt lat="45.92191" lon="1.28561">
        <ele>372.5</ele>
        <time>2024-11-10T13:58:06Z</time>
      </trkpt>
      <trkpt lat="45.92196" lon="1.28559">
        <ele>372.6</ele>
        <time>2024-11-10T13:58:07Z</time>
      </trkpt>
      <trkpt lat="45.92201" lon="1.28557">
        <ele>372.7</ele>
        <time>2024-11-10T13:58:08Z</time>
      </trkpt>
      <trkpt lat="45.92205" lon="1.28555">
        <ele>372.8</ele>
        <time>2024-11-10T13:58:09Z</time>
      </trkpt>
      <trkpt lat="45.9221" lon="1.28553">
        <ele>372.9</ele>
        <time>2024-11-10T13:58:10Z</time>
      </trkpt>
      <trkpt lat="45.92214" lon="1.2855">
        <ele>373.1</ele>
        <time>2024-11-10T13:58:11Z</time>
      </trkpt>
      <trkpt lat="45.92219" lon="1.28548">
        <ele>373.2</ele>
        <time>2024-11-10T13:58:12Z</time>
      </trkpt>
      <trkpt lat="45.92223" lon="1.28546">
        <ele>373.4</ele>
        <time>2024-11-10T13:58:13Z</time>
      </trkpt>
      <trkpt lat="45.92227" lon="1.28544">
        <ele>373.5</ele>
        <time>2024-11-10T13:58:14Z</time>
      </trkpt>
      <trkpt lat="45.92231" lon="1.28542">
        <ele>373.7</ele>
        <time>2024-11-10T13:58:15Z</time>
      </trkpt>
      <trkpt lat="45.92234" lon="1.2854">
        <ele>373.8</ele>
        <time>2024-11-10T13:58:16Z</time>
      </trkpt>
      <trkpt lat="45.92238" lon="1.28538">
        <ele>374</ele>
        <time>2024-11-10T13:58:17Z</time>
      </trkpt>
      <trkpt lat="45.92242" lon="1.28536">
        <ele>374.2</ele>
        <time>2024-11-10T13:58:18Z</time>
      </trkpt>
      <trkpt lat="45.92245" lon="1.28534">
        <ele>374.2</ele>
        <time>2024-11-10T13:58:19Z</time>
      </trkpt>
      <trkpt lat="45.92248" lon="1.28532">
        <ele>374.3</ele>
        <time>2024-11-10T13:58:20Z</time>
      </trkpt>
      <trkpt lat="45.92251" lon="1.28531">
        <ele>374.3</ele>
        <time>2024-11-10T13:58:21Z</time>
      </trkpt>
      <trkpt lat="45.92254" lon="1.2853">
        <ele>374.4</ele>
        <time>2024-11-10T13:58:22Z</time>
      </trkpt>
      <trkpt lat="45.92257" lon="1.28528">
        <ele>374.4</ele>
        <time>2024-11-10T13:58:23Z</time>
      </trkpt>
      <trkpt lat="45.9226" lon="1.28527">
        <ele>374.5</ele>
        <time>2024-11-10T13:58:24Z</time>
      </trkpt>
      <trkpt lat="45.92263" lon="1.28527">
        <ele>374.5</ele>
        <time>2024-11-10T13:58:25Z</time>
      </trkpt>
      <trkpt lat="45.92267" lon="1.28528">
        <ele>374.7</ele>
        <time>2024-11-10T13:58:27Z</time>
      </trkpt>
      <trkpt lat="45.9227" lon="1.2853">
        <ele>374.8</ele>
        <time>2024-11-10T13:58:29Z</time>
      </trkpt>
      <trkpt lat="45.92274" lon="1.28532">
        <ele>374.8</ele>
        <time>2024-11-10T13:58:31Z</time>
      </trkpt>
      <trkpt lat="45.92277" lon="1.28534">
        <ele>374.9</ele>
        <time>2024-11-10T13:58:33Z</time>
      </trkpt>
      <trkpt lat="45.92282" lon="1.28535">
        <ele>374.9</ele>
        <time>2024-11-10T13:58:35Z</time>
      </trkpt>
      <trkpt lat="45.92286" lon="1.28536">
        <ele>374.9</ele>
        <time>2024-11-10T13:58:36Z</time>
      </trkpt>
      <trkpt lat="45.92289" lon="1.28537">
        <ele>374.9</ele>
        <time>2024-11-10T13:58:37Z</time>
      </trkpt>
      <trkpt lat="45.92292" lon="1.28538">
        <ele>374.9</ele>
        <time>2024-11-10T13:58:38Z</time>
      </trkpt>
      <trkpt lat="45.92296" lon="1.28539">
        <ele>374.8</ele>
        <time>2024-11-10T13:58:39Z</time>
      </trkpt>
      <trkpt lat="45.92299" lon="1.28539">
        <ele>374.8</ele>
        <time>2024-11-10T13:58:40Z</time>
      </trkpt>
      <trkpt lat="45.92303" lon="1.2854">
        <ele>374.7</ele>
        <time>2024-11-10T13:58:41Z</time>
      </trkpt>
      <trkpt lat="45.92307" lon="1.28541">
        <ele>374.7</ele>
        <time>2024-11-10T13:58:42Z</time>
      </trkpt>
      <trkpt lat="45.9231" lon="1.28542">
        <ele>374.6</ele>
        <time>2024-11-10T13:58:43Z</time>
      </trkpt>
      <trkpt lat="45.92314" lon="1.28543">
        <ele>374.6</ele>
        <time>2024-11-10T13:58:44Z</time>
      </trkpt>
      <trkpt lat="45.92318" lon="1.28545">
        <ele>374.5</ele>
        <time>2024-11-10T13:58:45Z</time>
      </trkpt>
      <trkpt lat="45.92322" lon="1.28546">
        <ele>374.5</ele>
        <time>2024-11-10T13:58:46Z</time>
      </trkpt>
      <trkpt lat="45.92325" lon="1.28548">
        <ele>374.4</ele>
        <time>2024-11-10T13:58:47Z</time>
      </trkpt>
      <trkpt lat="45.92329" lon="1.28549">
        <ele>374.3</ele>
        <time>2024-11-10T13:58:48Z</time>
      </trkpt>
      <trkpt lat="45.92333" lon="1.28551">
        <ele>374.3</ele>
        <time>2024-11-10T13:58:49Z</time>
      </trkpt>
      <trkpt lat="45.92337" lon="1.28554">
        <ele>374.2</ele>
        <time>2024-11-10T13:58:50Z</time>
      </trkpt>
      <trkpt lat="45.92341" lon="1.28558">
        <ele>374.1</ele>
        <time>2024-11-10T13:58:51Z</time>
      </trkpt>
      <trkpt lat="45.92346" lon="1.2856">
        <ele>374</ele>
        <time>2024-11-10T13:58:52Z</time>
      </trkpt>
      <trkpt lat="45.9235" lon="1.28562">
        <ele>373.8</ele>
        <time>2024-11-10T13:58:53Z</time>
      </trkpt>
      <trkpt lat="45.92354" lon="1.28564">
        <ele>373.7</ele>
        <time>2024-11-10T13:58:54Z</time>
      </trkpt>
      <trkpt lat="45.92358" lon="1.28566">
        <ele>373.7</ele>
        <time>2024-11-10T13:58:55Z</time>
      </trkpt>
      <trkpt lat="45.92362" lon="1.28568">
        <ele>373.6</ele>
        <time>2024-11-10T13:58:56Z</time>
      </trkpt>
      <trkpt lat="45.92366" lon="1.28569">
        <ele>373.5</ele>
        <time>2024-11-10T13:58:57Z</time>
      </trkpt>
      <trkpt lat="45.92371" lon="1.28571">
        <ele>373.4</ele>
        <time>2024-11-10T13:58:58Z</time>
      </trkpt>
      <trkpt lat="45.92375" lon="1.28572">
        <ele>373.3</ele>
        <time>2024-11-10T13:58:59Z</time>
      </trkpt>
      <trkpt lat="45.92379" lon="1.28574">
        <ele>373.3</ele>
        <time>2024-11-10T13:59:00Z</time>
      </trkpt>
      <trkpt lat="45.92383" lon="1.28577">
        <ele>373.2</ele>
        <time>2024-11-10T13:59:01Z</time>
      </trkpt>
      <trkpt lat="45.92388" lon="1.28578">
        <ele>373.2</ele>
        <time>2024-11-10T13:59:02Z</time>
      </trkpt>
      <trkpt lat="45.92392" lon="1.2858">
        <ele>373.3</ele>
        <time>2024-11-10T13:59:03Z</time>
      </trkpt>
      <trkpt lat="45.92397" lon="1.28582">
        <ele>373.3</ele>
        <time>2024-11-10T13:59:04Z</time>
      </trkpt>
      <trkpt lat="45.92401" lon="1.28584">
        <ele>373.4</ele>
        <time>2024-11-10T13:59:05Z</time>
      </trkpt>
      <trkpt lat="45.92406" lon="1.28586">
        <ele>373.5</ele>
        <time>2024-11-10T13:59:06Z</time>
      </trkpt>
      <trkpt lat="45.9241" lon="1.28589">
        <ele>373.7</ele>
        <time>2024-11-10T13:59:07Z</time>
      </trkpt>
      <trkpt lat="45.92415" lon="1.28591">
        <ele>373.8</ele>
        <time>2024-11-10T13:59:08Z</time>
      </trkpt>
      <trkpt lat="45.92419" lon="1.28593">
        <ele>373.9</ele>
        <time>2024-11-10T13:59:09Z</time>
      </trkpt>
      <trkpt lat="45.92422" lon="1.28595">
        <ele>374</ele>
        <time>2024-11-10T13:59:10Z</time>
      </trkpt>
      <trkpt lat="45.92427" lon="1.28597">
        <ele>374.2</ele>
        <time>2024-11-10T13:59:11Z</time>
      </trkpt>
      <trkpt lat="45.9243" lon="1.28599">
        <ele>374.3</ele>
        <time>2024-11-10T13:59:12Z</time>
      </trkpt>
      <trkpt lat="45.92433" lon="1.28602">
        <ele>374.4</ele>
        <time>2024-11-10T13:59:13Z</time>
      </trkpt>
      <trkpt lat="45.92436" lon="1.28605">
        <ele>374.4</ele>
        <time>2024-11-10T13:59:14Z</time>
      </trkpt>
      <trkpt lat="45.92438" lon="1.28608">
        <ele>374.5</ele>
        <time>2024-11-10T13:59:15Z</time>
      </trkpt>
      <trkpt lat="45.92439" lon="1.28612">
        <ele>374.6</ele>
        <time>2024-11-10T13:59:16Z</time>
      </trkpt>
      <trkpt lat="45.92441" lon="1.28616">
        <ele>374.6</ele>
        <time>2024-11-10T13:59:17Z</time>
      </trkpt>
      <trkpt lat="45.92442" lon="1.2862">
        <ele>374.7</ele>
        <time>2024-11-10T13:59:18Z</time>
      </trkpt>
      <trkpt lat="45.92442" lon="1.28625">
        <ele>374.7</ele>
        <time>2024-11-10T13:59:19Z</time>
      </trkpt>
      <trkpt lat="45.92442" lon="1.2863">
        <ele>374.7</ele>
        <time>2024-11-10T13:59:20Z</time>
      </trkpt>
      <trkpt lat="45.92442" lon="1.28636">
        <ele>374.7</ele>
        <time>2024-11-10T13:59:21Z</time>
      </trkpt>
      <trkpt lat="45.92441" lon="1.28642">
        <ele>374.7</ele>
        <time>2024-11-10T13:59:22Z</time>
      </trkpt>
      <trkpt lat="45.92441" lon="1.28648">
        <ele>374.7</ele>
        <time>2024-11-10T13:59:23Z</time>
      </trkpt>
      <trkpt lat="45.92441" lon="1.28655">
        <ele>374.6</ele>
        <time>2024-11-10T13:59:24Z</time>
      </trkpt>
      <trkpt lat="45.9244" lon="1.28661">
        <ele>374.6</ele>
        <time>2024-11-10T13:59:25Z</time>
      </trkpt>
      <trkpt lat="45.92439" lon="1.28667">
        <ele>374.5</ele>
        <time>2024-11-10T13:59:26Z</time>
      </trkpt>
      <trkpt lat="45.92435" lon="1.28673">
        <ele>374.5</ele>
        <time>2024-11-10T13:59:27Z</time>
      </trkpt>
      <trkpt lat="45.92433" lon="1.28679">
        <ele>374.6</ele>
        <time>2024-11-10T13:59:28Z</time>
      </trkpt>
      <trkpt lat="45.92431" lon="1.28685">
        <ele>374.6</ele>
        <time>2024-11-10T13:59:29Z</time>
      </trkpt>
      <trkpt lat="45.92429" lon="1.28691">
        <ele>374.6</ele>
        <time>2024-11-10T13:59:30Z</time>
      </trkpt>
      <trkpt lat="45.92426" lon="1.28698">
        <ele>374.7</ele>
        <time>2024-11-10T13:59:31Z</time>
      </trkpt>
      <trkpt lat="45.92423" lon="1.28703">
        <ele>374.8</ele>
        <time>2024-11-10T13:59:32Z</time>
      </trkpt>
      <trkpt lat="45.92421" lon="1.28708">
        <ele>374.9</ele>
        <time>2024-11-10T13:59:33Z</time>
      </trkpt>
      <trkpt lat="45.92418" lon="1.28713">
        <ele>375</ele>
        <time>2024-11-10T13:59:34Z</time>
      </trkpt>
      <trkpt lat="45.92414" lon="1.28719">
        <ele>375.2</ele>
        <time>2024-11-10T13:59:35Z</time>
      </trkpt>
      <trkpt lat="45.9241" lon="1.28723">
        <ele>375.4</ele>
        <time>2024-11-10T13:59:36Z</time>
      </trkpt>
      <trkpt lat="45.92407" lon="1.28727">
        <ele>375.6</ele>
        <time>2024-11-10T13:59:37Z</time>
      </trkpt>
      <trkpt lat="45.92404" lon="1.2873">
        <ele>375.8</ele>
        <time>2024-11-10T13:59:38Z</time>
      </trkpt>
      <trkpt lat="45.92401" lon="1.28733">
        <ele>376</ele>
        <time>2024-11-10T13:59:39Z</time>
      </trkpt>
      <trkpt lat="45.92398" lon="1.28735">
        <ele>376.1</ele>
        <time>2024-11-10T13:59:40Z</time>
      </trkpt>
      <trkpt lat="45.92395" lon="1.28737">
        <ele>376.3</ele>
        <time>2024-11-10T13:59:41Z</time>
      </trkpt>
      <trkpt lat="45.92391" lon="1.28739">
        <ele>376.6</ele>
        <time>2024-11-10T13:59:43Z</time>
      </trkpt>
      <trkpt lat="45.92388" lon="1.28743">
        <ele>376.9</ele>
        <time>2024-11-10T13:59:44Z</time>
      </trkpt>
      <trkpt lat="45.92386" lon="1.28748">
        <ele>377.2</ele>
        <time>2024-11-10T13:59:46Z</time>
      </trkpt>
      <trkpt lat="45.92385" lon="1.28752">
        <ele>377.4</ele>
        <time>2024-11-10T13:59:47Z</time>
      </trkpt>
      <trkpt lat="45.92383" lon="1.28756">
        <ele>377.6</ele>
        <time>2024-11-10T13:59:48Z</time>
      </trkpt>
      <trkpt lat="45.92381" lon="1.28762">
        <ele>377.9</ele>
        <time>2024-11-10T13:59:50Z</time>
      </trkpt>
      <trkpt lat="45.9238" lon="1.28768">
        <ele>378.2</ele>
        <time>2024-11-10T13:59:51Z</time>
      </trkpt>
      <trkpt lat="45.92379" lon="1.28772">
        <ele>378.4</ele>
        <time>2024-11-10T13:59:52Z</time>
      </trkpt>
      <trkpt lat="45.92379" lon="1.28777">
        <ele>378.6</ele>
        <time>2024-11-10T13:59:53Z</time>
      </trkpt>
      <trkpt lat="45.92379" lon="1.28782">
        <ele>378.9</ele>
        <time>2024-11-10T13:59:55Z</time>
      </trkpt>
      <trkpt lat="45.9238" lon="1.28788">
        <ele>379.2</ele>
        <time>2024-11-10T13:59:56Z</time>
      </trkpt>
      <trkpt lat="45.9238" lon="1.28792">
        <ele>379.3</ele>
        <time>2024-11-10T13:59:57Z</time>
      </trkpt>
      <trkpt lat="45.92379" lon="1.28796">
        <ele>379.5</ele>
        <time>2024-11-10T13:59:58Z</time>
      </trkpt>
      <trkpt lat="45.92378" lon="1.288">
        <ele>379.7</ele>
        <time>2024-11-10T13:59:59Z</time>
      </trkpt>
      <trkpt lat="45.92376" lon="1.28804">
        <ele>379.9</ele>
        <time>2024-11-10T14:00:00Z</time>
      </trkpt>
      <trkpt lat="45.92374" lon="1.28809">
        <ele>380.1</ele>
        <time>2024-11-10T14:00:02Z</time>
      </trkpt>
      <trkpt lat="45.92373" lon="1.28815">
        <ele>380.2</ele>
        <time>2024-11-10T14:00:03Z</time>
      </trkpt>
      <trkpt lat="45.92372" lon="1.2882">
        <ele>380.3</ele>
        <time>2024-11-10T14:00:04Z</time>
      </trkpt>
      <trkpt lat="45.92371" lon="1.28826">
        <ele>380.4</ele>
        <time>2024-11-10T14:00:06Z</time>
      </trkpt>
      <trkpt lat="45.9237" lon="1.28831">
        <ele>380.4</ele>
        <time>2024-11-10T14:00:07Z</time>
      </trkpt>
      <trkpt lat="45.92369" lon="1.28836">
        <ele>380.5</ele>
        <time>2024-11-10T14:00:08Z</time>
      </trkpt>
      <trkpt lat="45.92368" lon="1.28842">
        <ele>380.5</ele>
        <time>2024-11-10T14:00:09Z</time>
      </trkpt>
      <trkpt lat="45.92367" lon="1.28846">
        <ele>380.5</ele>
        <time>2024-11-10T14:00:10Z</time>
      </trkpt>
      <trkpt lat="45.92366" lon="1.2885">
        <ele>380.5</ele>
        <time>2024-11-10T14:00:11Z</time>
      </trkpt>
      <trkpt lat="45.92364" lon="1.28855">
        <ele>380.5</ele>
        <time>2024-11-10T14:00:12Z</time>
      </trkpt>
      <trkpt lat="45.92364" lon="1.28859">
        <ele>380.5</ele>
        <time>2024-11-10T14:00:13Z</time>
      </trkpt>
      <trkpt lat="45.92363" lon="1.28863">
        <ele>380.5</ele>
        <time>2024-11-10T14:00:15Z</time>
      </trkpt>
      <trkpt lat="45.92364" lon="1.28867">
        <ele>380.5</ele>
        <time>2024-11-10T14:00:17Z</time>
      </trkpt>
      <trkpt lat="45.92365" lon="1.28873">
        <ele>380.5</ele>
        <time>2024-11-10T14:00:20Z</time>
      </trkpt>
      <trkpt lat="45.92365" lon="1.28878">
        <ele>380.5</ele>
        <time>2024-11-10T14:00:21Z</time>
      </trkpt>
      <trkpt lat="45.92364" lon="1.28884">
        <ele>380.5</ele>
        <time>2024-11-10T14:00:23Z</time>
      </trkpt>
      <trkpt lat="45.92363" lon="1.28891">
        <ele>380.5</ele>
        <time>2024-11-10T14:00:25Z</time>
      </trkpt>
      <trkpt lat="45.92362" lon="1.28896">
        <ele>380.5</ele>
        <time>2024-11-10T14:00:26Z</time>
      </trkpt>
      <trkpt lat="45.92361" lon="1.28902">
        <ele>380.6</ele>
        <time>2024-11-10T14:00:28Z</time>
      </trkpt>
      <trkpt lat="45.9236" lon="1.28908">
        <ele>380.6</ele>
        <time>2024-11-10T14:00:30Z</time>
      </trkpt>
      <trkpt lat="45.92359" lon="1.28914">
        <ele>380.6</ele>
        <time>2024-11-10T14:00:32Z</time>
      </trkpt>
      <trkpt lat="45.92358" lon="1.28922">
        <ele>380.6</ele>
        <time>2024-11-10T14:00:34Z</time>
      </trkpt>
      <trkpt lat="45.92358" lon="1.28928">
        <ele>380.7</ele>
        <time>2024-11-10T14:00:35Z</time>
      </trkpt>
      <trkpt lat="45.92357" lon="1.28933">
        <ele>380.7</ele>
        <time>2024-11-10T14:00:36Z</time>
      </trkpt>
      <trkpt lat="45.92356" lon="1.28938">
        <ele>380.8</ele>
        <time>2024-11-10T14:00:37Z</time>
      </trkpt>
      <trkpt lat="45.92356" lon="1.28943">
        <ele>380.8</ele>
        <time>2024-11-10T14:00:39Z</time>
      </trkpt>
      <trkpt lat="45.92354" lon="1.28947">
        <ele>380.9</ele>
        <time>2024-11-10T14:00:41Z</time>
      </trkpt>
      <trkpt lat="45.92352" lon="1.28951">
        <ele>380.9</ele>
        <time>2024-11-10T14:00:44Z</time>
      </trkpt>
      <trkpt lat="45.9235" lon="1.28957">
        <ele>381</ele>
        <time>2024-11-10T14:00:46Z</time>
      </trkpt>
      <trkpt lat="45.92348" lon="1.28965">
        <ele>381.1</ele>
        <time>2024-11-10T14:00:48Z</time>
      </trkpt>
      <trkpt lat="45.92346" lon="1.28971">
        <ele>381.1</ele>
        <time>2024-11-10T14:00:49Z</time>
      </trkpt>
      <trkpt lat="45.92344" lon="1.28975">
        <ele>381.1</ele>
        <time>2024-11-10T14:00:50Z</time>
      </trkpt>
      <trkpt lat="45.92344" lon="1.2898">
        <ele>381.2</ele>
        <time>2024-11-10T14:00:51Z</time>
      </trkpt>
      <trkpt lat="45.92343" lon="1.28985">
        <ele>381.2</ele>
        <time>2024-11-10T14:00:52Z</time>
      </trkpt>
      <trkpt lat="45.92343" lon="1.2899">
        <ele>381.2</ele>
        <time>2024-11-10T14:00:53Z</time>
      </trkpt>
      <trkpt lat="45.92342" lon="1.28995">
        <ele>381.2</ele>
        <time>2024-11-10T14:00:54Z</time>
      </trkpt>
      <trkpt lat="45.92341" lon="1.29001">
        <ele>381.2</ele>
        <time>2024-11-10T14:00:55Z</time>
      </trkpt>
      <trkpt lat="45.92341" lon="1.29007">
        <ele>381.2</ele>
        <time>2024-11-10T14:00:56Z</time>
      </trkpt>
      <trkpt lat="45.92341" lon="1.29012">
        <ele>381.2</ele>
        <time>2024-11-10T14:00:57Z</time>
      </trkpt>
      <trkpt lat="45.92341" lon="1.29018">
        <ele>381.2</ele>
        <time>2024-11-10T14:00:58Z</time>
      </trkpt>
      <trkpt lat="45.92341" lon="1.29024">
        <ele>381.2</ele>
        <time>2024-11-10T14:00:59Z</time>
      </trkpt>
      <trkpt lat="45.92341" lon="1.29031">
        <ele>381.2</ele>
        <time>2024-11-10T14:01:00Z</time>
      </trkpt>
      <trkpt lat="45.92342" lon="1.29036">
        <ele>381.2</ele>
        <time>2024-11-10T14:01:01Z</time>
      </trkpt>
      <trkpt lat="45.92343" lon="1.29042">
        <ele>381.2</ele>
        <time>2024-11-10T14:01:02Z</time>
      </trkpt>
      <trkpt lat="45.92344" lon="1.29048">
        <ele>381.2</ele>
        <time>2024-11-10T14:01:03Z</time>
      </trkpt>
      <trkpt lat="45.92345" lon="1.29053">
        <ele>381.2</ele>
        <time>2024-11-10T14:01:04Z</time>
      </trkpt>
      <trkpt lat="45.92345" lon="1.29059">
        <ele>381.2</ele>
        <time>2024-11-10T14:01:05Z</time>
      </trkpt>
      <trkpt lat="45.92345" lon="1.29065">
        <ele>381.3</ele>
        <time>2024-11-10T14:01:06Z</time>
      </trkpt>
      <trkpt lat="45.92346" lon="1.2907">
        <ele>381.3</ele>
        <time>2024-11-10T14:01:07Z</time>
      </trkpt>
      <trkpt lat="45.92346" lon="1.29075">
        <ele>381.4</ele>
        <time>2024-11-10T14:01:08Z</time>
      </trkpt>
      <trkpt lat="45.92346" lon="1.2908">
        <ele>381.4</ele>
        <time>2024-11-10T14:01:09Z</time>
      </trkpt>
      <trkpt lat="45.92345" lon="1.29084">
        <ele>381.5</ele>
        <time>2024-11-10T14:01:10Z</time>
      </trkpt>
      <trkpt lat="45.92345" lon="1.29089">
        <ele>381.5</ele>
        <time>2024-11-10T14:01:11Z</time>
      </trkpt>
      <trkpt lat="45.92344" lon="1.29093">
        <ele>381.6</ele>
        <time>2024-11-10T14:01:12Z</time>
      </trkpt>
      <trkpt lat="45.92342" lon="1.29097">
        <ele>381.6</ele>
        <time>2024-11-10T14:01:13Z</time>
      </trkpt>
      <trkpt lat="45.92341" lon="1.29101">
        <ele>381.6</ele>
        <time>2024-11-10T14:01:14Z</time>
      </trkpt>
      <trkpt lat="45.9234" lon="1.29106">
        <ele>381.6</ele>
        <time>2024-11-10T14:01:16Z</time>
      </trkpt>
      <trkpt lat="45.92339" lon="1.29111">
        <ele>381.6</ele>
        <time>2024-11-10T14:01:17Z</time>
      </trkpt>
      <trkpt lat="45.92339" lon="1.29117">
        <ele>381.5</ele>
        <time>2024-11-10T14:01:19Z</time>
      </trkpt>
      <trkpt lat="45.92339" lon="1.29123">
        <ele>381.5</ele>
        <time>2024-11-10T14:01:21Z</time>
      </trkpt>
      <trkpt lat="45.92338" lon="1.29128">
        <ele>381.5</ele>
        <time>2024-11-10T14:01:22Z</time>
      </trkpt>
      <trkpt lat="45.92337" lon="1.29133">
        <ele>381.5</ele>
        <time>2024-11-10T14:01:23Z</time>
      </trkpt>
      <trkpt lat="45.92337" lon="1.29138">
        <ele>381.6</ele>
        <time>2024-11-10T14:01:24Z</time>
      </trkpt>
      <trkpt lat="45.92336" lon="1.29143">
        <ele>381.6</ele>
        <time>2024-11-10T14:01:25Z</time>
      </trkpt>
      <trkpt lat="45.92336" lon="1.29149">
        <ele>381.7</ele>
        <time>2024-11-10T14:01:27Z</time>
      </trkpt>
      <trkpt lat="45.92335" lon="1.29156">
        <ele>381.8</ele>
        <time>2024-11-10T14:01:29Z</time>
      </trkpt>
      <trkpt lat="45.92337" lon="1.29159">
        <ele>381.8</ele>
        <time>2024-11-10T14:01:31Z</time>
      </trkpt>
      <trkpt lat="45.92339" lon="1.29161">
        <ele>381.9</ele>
        <time>2024-11-10T14:01:34Z</time>
      </trkpt>
      <trkpt lat="45.92343" lon="1.29164">
        <ele>382</ele>
        <time>2024-11-10T14:01:42Z</time>
      </trkpt>
      <trkpt lat="45.92347" lon="1.29167">
        <ele>382.1</ele>
        <time>2024-11-10T14:01:44Z</time>
      </trkpt>
      <trkpt lat="45.92351" lon="1.29169">
        <ele>382.2</ele>
        <time>2024-11-10T14:01:45Z</time>
      </trkpt>
      <trkpt lat="45.92354" lon="1.2917">
        <ele>382.3</ele>
        <time>2024-11-10T14:01:46Z</time>
      </trkpt>
      <trkpt lat="45.92357" lon="1.29171">
        <ele>382.3</ele>
        <time>2024-11-10T14:01:47Z</time>
      </trkpt>
      <trkpt lat="45.9236" lon="1.29172">
        <ele>382.4</ele>
        <time>2024-11-10T14:01:48Z</time>
      </trkpt>
      <trkpt lat="45.92363" lon="1.29173">
        <ele>382.5</ele>
        <time>2024-11-10T14:01:49Z</time>
      </trkpt>
      <trkpt lat="45.92367" lon="1.29174">
        <ele>382.6</ele>
        <time>2024-11-10T14:01:51Z</time>
      </trkpt>
      <trkpt lat="45.92372" lon="1.29175">
        <ele>382.7</ele>
        <time>2024-11-10T14:01:53Z</time>
      </trkpt>
      <trkpt lat="45.92376" lon="1.29176">
        <ele>382.8</ele>
        <time>2024-11-10T14:01:54Z</time>
      </trkpt>
      <trkpt lat="45.92379" lon="1.29177">
        <ele>382.8</ele>
        <time>2024-11-10T14:01:55Z</time>
      </trkpt>
      <trkpt lat="45.92382" lon="1.29178">
        <ele>382.9</ele>
        <time>2024-11-10T14:01:56Z</time>
      </trkpt>
      <trkpt lat="45.92386" lon="1.29179">
        <ele>382.9</ele>
        <time>2024-11-10T14:01:57Z</time>
      </trkpt>
      <trkpt lat="45.92389" lon="1.2918">
        <ele>383</ele>
        <time>2024-11-10T14:01:58Z</time>
      </trkpt>
      <trkpt lat="45.92393" lon="1.2918">
        <ele>383</ele>
        <time>2024-11-10T14:01:59Z</time>
      </trkpt>
      <trkpt lat="45.92397" lon="1.29181">
        <ele>383.1</ele>
        <time>2024-11-10T14:02:00Z</time>
      </trkpt>
      <trkpt lat="45.924" lon="1.29182">
        <ele>383.1</ele>
        <time>2024-11-10T14:02:01Z</time>
      </trkpt>
      <trkpt lat="45.92404" lon="1.29182">
        <ele>383.1</ele>
        <time>2024-11-10T14:02:02Z</time>
      </trkpt>
      <trkpt lat="45.92407" lon="1.29182">
        <ele>383.1</ele>
        <time>2024-11-10T14:02:03Z</time>
      </trkpt>
      <trkpt lat="45.92411" lon="1.29182">
        <ele>383.1</ele>
        <time>2024-11-10T14:02:04Z</time>
      </trkpt>
      <trkpt lat="45.92415" lon="1.29182">
        <ele>383.1</ele>
        <time>2024-11-10T14:02:05Z</time>
      </trkpt>
      <trkpt lat="45.92419" lon="1.29182">
        <ele>383</ele>
        <time>2024-11-10T14:02:06Z</time>
      </trkpt>
      <trkpt lat="45.92424" lon="1.29183">
        <ele>383</ele>
        <time>2024-11-10T14:02:07Z</time>
      </trkpt>
      <trkpt lat="45.92429" lon="1.29184">
        <ele>383</ele>
        <time>2024-11-10T14:02:08Z</time>
      </trkpt>
      <trkpt lat="45.92433" lon="1.29184">
        <ele>382.9</ele>
        <time>2024-11-10T14:02:09Z</time>
      </trkpt>
      <trkpt lat="45.92437" lon="1.29184">
        <ele>382.9</ele>
        <time>2024-11-10T14:02:10Z</time>
      </trkpt>
      <trkpt lat="45.92441" lon="1.29184">
        <ele>382.8</ele>
        <time>2024-11-10T14:02:11Z</time>
      </trkpt>
      <trkpt lat="45.92445" lon="1.29184">
        <ele>382.8</ele>
        <time>2024-11-10T14:02:12Z</time>
      </trkpt>
      <trkpt lat="45.92449" lon="1.29183">
        <ele>382.8</ele>
        <time>2024-11-10T14:02:13Z</time>
      </trkpt>
      <trkpt lat="45.92453" lon="1.29183">
        <ele>382.7</ele>
        <time>2024-11-10T14:02:14Z</time>
      </trkpt>
      <trkpt lat="45.92456" lon="1.29181">
        <ele>382.6</ele>
        <time>2024-11-10T14:02:15Z</time>
      </trkpt>
      <trkpt lat="45.9246" lon="1.2918">
        <ele>382.6</ele>
        <time>2024-11-10T14:02:16Z</time>
      </trkpt>
      <trkpt lat="45.92463" lon="1.29179">
        <ele>382.5</ele>
        <time>2024-11-10T14:02:17Z</time>
      </trkpt>
      <trkpt lat="45.92466" lon="1.29179">
        <ele>382.5</ele>
        <time>2024-11-10T14:02:18Z</time>
      </trkpt>
      <trkpt lat="45.92469" lon="1.29177">
        <ele>382.5</ele>
        <time>2024-11-10T14:02:19Z</time>
      </trkpt>
      <trkpt lat="45.92472" lon="1.29176">
        <ele>382.5</ele>
        <time>2024-11-10T14:02:20Z</time>
      </trkpt>
      <trkpt lat="45.92476" lon="1.29175">
        <ele>382.5</ele>
        <time>2024-11-10T14:02:21Z</time>
      </trkpt>
      <trkpt lat="45.92479" lon="1.29175">
        <ele>382.4</ele>
        <time>2024-11-10T14:02:22Z</time>
      </trkpt>
      <trkpt lat="45.92482" lon="1.29174">
        <ele>382.4</ele>
        <time>2024-11-10T14:02:23Z</time>
      </trkpt>
      <trkpt lat="45.92486" lon="1.29172">
        <ele>382.4</ele>
        <time>2024-11-10T14:02:24Z</time>
      </trkpt>
      <trkpt lat="45.92489" lon="1.29171">
        <ele>382.3</ele>
        <time>2024-11-10T14:02:25Z</time>
      </trkpt>
      <trkpt lat="45.92493" lon="1.29171">
        <ele>382.3</ele>
        <time>2024-11-10T14:02:26Z</time>
      </trkpt>
      <trkpt lat="45.92496" lon="1.2917">
        <ele>382.2</ele>
        <time>2024-11-10T14:02:27Z</time>
      </trkpt>
      <trkpt lat="45.925" lon="1.2917">
        <ele>382.2</ele>
        <time>2024-11-10T14:02:28Z</time>
      </trkpt>
      <trkpt lat="45.92503" lon="1.29169">
        <ele>382.1</ele>
        <time>2024-11-10T14:02:29Z</time>
      </trkpt>
      <trkpt lat="45.92507" lon="1.29169">
        <ele>382.1</ele>
        <time>2024-11-10T14:02:30Z</time>
      </trkpt>
      <trkpt lat="45.92511" lon="1.29167">
        <ele>382</ele>
        <time>2024-11-10T14:02:31Z</time>
      </trkpt>
      <trkpt lat="45.92514" lon="1.29166">
        <ele>382</ele>
        <time>2024-11-10T14:02:32Z</time>
      </trkpt>
      <trkpt lat="45.92518" lon="1.29165">
        <ele>381.9</ele>
        <time>2024-11-10T14:02:33Z</time>
      </trkpt>
      <trkpt lat="45.92522" lon="1.29164">
        <ele>381.9</ele>
        <time>2024-11-10T14:02:34Z</time>
      </trkpt>
      <trkpt lat="45.92526" lon="1.29163">
        <ele>381.8</ele>
        <time>2024-11-10T14:02:35Z</time>
      </trkpt>
      <trkpt lat="45.9253" lon="1.29162">
        <ele>381.8</ele>
        <time>2024-11-10T14:02:36Z</time>
      </trkpt>
      <trkpt lat="45.92534" lon="1.29161">
        <ele>381.7</ele>
        <time>2024-11-10T14:02:37Z</time>
      </trkpt>
      <trkpt lat="45.92539" lon="1.2916">
        <ele>381.7</ele>
        <time>2024-11-10T14:02:38Z</time>
      </trkpt>
      <trkpt lat="45.92543" lon="1.29159">
        <ele>381.6</ele>
        <time>2024-11-10T14:02:39Z</time>
      </trkpt>
      <trkpt lat="45.92549" lon="1.29162">
        <ele>381.6</ele>
        <time>2024-11-10T14:02:40Z</time>
      </trkpt>
      <trkpt lat="45.92554" lon="1.29162">
        <ele>381.6</ele>
        <time>2024-11-10T14:02:41Z</time>
      </trkpt>
      <trkpt lat="45.92558" lon="1.29162">
        <ele>381.5</ele>
        <time>2024-11-10T14:02:42Z</time>
      </trkpt>
      <trkpt lat="45.92562" lon="1.29161">
        <ele>381.5</ele>
        <time>2024-11-10T14:02:43Z</time>
      </trkpt>
      <trkpt lat="45.92566" lon="1.2916">
        <ele>381.5</ele>
        <time>2024-11-10T14:02:44Z</time>
      </trkpt>
      <trkpt lat="45.9257" lon="1.2916">
        <ele>381.5</ele>
        <time>2024-11-10T14:02:45Z</time>
      </trkpt>
      <trkpt lat="45.92574" lon="1.29159">
        <ele>381.5</ele>
        <time>2024-11-10T14:02:46Z</time>
      </trkpt>
      <trkpt lat="45.92577" lon="1.29157">
        <ele>381.5</ele>
        <time>2024-11-10T14:02:47Z</time>
      </trkpt>
      <trkpt lat="45.92582" lon="1.29155">
        <ele>381.5</ele>
        <time>2024-11-10T14:02:48Z</time>
      </trkpt>
      <trkpt lat="45.92586" lon="1.29153">
        <ele>381.5</ele>
        <time>2024-11-10T14:02:49Z</time>
      </trkpt>
      <trkpt lat="45.9259" lon="1.29152">
        <ele>381.5</ele>
        <time>2024-11-10T14:02:50Z</time>
      </trkpt>
      <trkpt lat="45.92595" lon="1.2915">
        <ele>381.6</ele>
        <time>2024-11-10T14:02:51Z</time>
      </trkpt>
      <trkpt lat="45.92599" lon="1.29149">
        <ele>381.6</ele>
        <time>2024-11-10T14:02:52Z</time>
      </trkpt>
      <trkpt lat="45.92603" lon="1.29148">
        <ele>381.7</ele>
        <time>2024-11-10T14:02:53Z</time>
      </trkpt>
      <trkpt lat="45.92608" lon="1.29147">
        <ele>381.8</ele>
        <time>2024-11-10T14:02:54Z</time>
      </trkpt>
      <trkpt lat="45.92612" lon="1.29147">
        <ele>381.8</ele>
        <time>2024-11-10T14:02:55Z</time>
      </trkpt>
      <trkpt lat="45.92616" lon="1.29146">
        <ele>381.9</ele>
        <time>2024-11-10T14:02:56Z</time>
      </trkpt>
      <trkpt lat="45.9262" lon="1.29146">
        <ele>382</ele>
        <time>2024-11-10T14:02:57Z</time>
      </trkpt>
      <trkpt lat="45.92624" lon="1.29145">
        <ele>382.1</ele>
        <time>2024-11-10T14:02:58Z</time>
      </trkpt>
      <trkpt lat="45.92628" lon="1.29144">
        <ele>382.1</ele>
        <time>2024-11-10T14:02:59Z</time>
      </trkpt>
      <trkpt lat="45.92632" lon="1.29144">
        <ele>382.2</ele>
        <time>2024-11-10T14:03:00Z</time>
      </trkpt>
      <trkpt lat="45.92635" lon="1.29143">
        <ele>382.3</ele>
        <time>2024-11-10T14:03:01Z</time>
      </trkpt>
      <trkpt lat="45.92639" lon="1.29142">
        <ele>382.4</ele>
        <time>2024-11-10T14:03:02Z</time>
      </trkpt>
      <trkpt lat="45.92643" lon="1.29142">
        <ele>382.4</ele>
        <time>2024-11-10T14:03:03Z</time>
      </trkpt>
      <trkpt lat="45.92647" lon="1.29141">
        <ele>382.5</ele>
        <time>2024-11-10T14:03:04Z</time>
      </trkpt>
      <trkpt lat="45.92651" lon="1.29139">
        <ele>382.5</ele>
        <time>2024-11-10T14:03:05Z</time>
      </trkpt>
      <trkpt lat="45.92655" lon="1.29138">
        <ele>382.5</ele>
        <time>2024-11-10T14:03:06Z</time>
      </trkpt>
      <trkpt lat="45.92659" lon="1.29136">
        <ele>382.6</ele>
        <time>2024-11-10T14:03:07Z</time>
      </trkpt>
      <trkpt lat="45.92663" lon="1.29135">
        <ele>382.6</ele>
        <time>2024-11-10T14:03:08Z</time>
      </trkpt>
      <trkpt lat="45.92667" lon="1.29133">
        <ele>382.6</ele>
        <time>2024-11-10T14:03:09Z</time>
      </trkpt>
      <trkpt lat="45.92671" lon="1.29132">
        <ele>382.6</ele>
        <time>2024-11-10T14:03:10Z</time>
      </trkpt>
      <trkpt lat="45.92676" lon="1.2913">
        <ele>382.5</ele>
        <time>2024-11-10T14:03:11Z</time>
      </trkpt>
      <trkpt lat="45.9268" lon="1.29129">
        <ele>382.5</ele>
        <time>2024-11-10T14:03:12Z</time>
      </trkpt>
      <trkpt lat="45.92684" lon="1.29127">
        <ele>382.5</ele>
        <time>2024-11-10T14:03:13Z</time>
      </trkpt>
      <trkpt lat="45.92689" lon="1.29126">
        <ele>382.5</ele>
        <time>2024-11-10T14:03:14Z</time>
      </trkpt>
      <trkpt lat="45.92693" lon="1.29124">
        <ele>382.5</ele>
        <time>2024-11-10T14:03:15Z</time>
      </trkpt>
      <trkpt lat="45.92697" lon="1.29123">
        <ele>382.4</ele>
        <time>2024-11-10T14:03:16Z</time>
      </trkpt>
      <trkpt lat="45.92702" lon="1.29121">
        <ele>382.4</ele>
        <time>2024-11-10T14:03:17Z</time>
      </trkpt>
      <trkpt lat="45.92707" lon="1.29122">
        <ele>382.4</ele>
        <time>2024-11-10T14:03:18Z</time>
      </trkpt>
      <trkpt lat="45.92711" lon="1.29121">
        <ele>382.4</ele>
        <time>2024-11-10T14:03:19Z</time>
      </trkpt>
      <trkpt lat="45.92716" lon="1.2912">
        <ele>382.4</ele>
        <time>2024-11-10T14:03:20Z</time>
      </trkpt>
      <trkpt lat="45.9272" lon="1.29118">
        <ele>382.5</ele>
        <time>2024-11-10T14:03:21Z</time>
      </trkpt>
      <trkpt lat="45.92724" lon="1.29117">
        <ele>382.5</ele>
        <time>2024-11-10T14:03:22Z</time>
      </trkpt>
      <trkpt lat="45.92728" lon="1.29116">
        <ele>382.5</ele>
        <time>2024-11-10T14:03:23Z</time>
      </trkpt>
      <trkpt lat="45.92732" lon="1.29115">
        <ele>382.4</ele>
        <time>2024-11-10T14:03:24Z</time>
      </trkpt>
      <trkpt lat="45.92735" lon="1.29113">
        <ele>382.4</ele>
        <time>2024-11-10T14:03:25Z</time>
      </trkpt>
      <trkpt lat="45.92739" lon="1.29111">
        <ele>382.4</ele>
        <time>2024-11-10T14:03:26Z</time>
      </trkpt>
      <trkpt lat="45.92743" lon="1.29109">
        <ele>382.3</ele>
        <time>2024-11-10T14:03:27Z</time>
      </trkpt>
      <trkpt lat="45.92746" lon="1.29107">
        <ele>382.3</ele>
        <time>2024-11-10T14:03:28Z</time>
      </trkpt>
      <trkpt lat="45.9275" lon="1.29105">
        <ele>382.2</ele>
        <time>2024-11-10T14:03:29Z</time>
      </trkpt>
      <trkpt lat="45.92754" lon="1.29104">
        <ele>382.2</ele>
        <time>2024-11-10T14:03:30Z</time>
      </trkpt>
      <trkpt lat="45.92758" lon="1.29102">
        <ele>382.1</ele>
        <time>2024-11-10T14:03:31Z</time>
      </trkpt>
      <trkpt lat="45.92762" lon="1.291">
        <ele>381.9</ele>
        <time>2024-11-10T14:03:32Z</time>
      </trkpt>
      <trkpt lat="45.92767" lon="1.291">
        <ele>381.7</ele>
        <time>2024-11-10T14:03:33Z</time>
      </trkpt>
      <trkpt lat="45.92772" lon="1.29099">
        <ele>381.5</ele>
        <time>2024-11-10T14:03:34Z</time>
      </trkpt>
      <trkpt lat="45.92777" lon="1.29098">
        <ele>381.3</ele>
        <time>2024-11-10T14:03:35Z</time>
      </trkpt>
      <trkpt lat="45.92782" lon="1.29096">
        <ele>381.1</ele>
        <time>2024-11-10T14:03:36Z</time>
      </trkpt>
      <trkpt lat="45.92787" lon="1.29094">
        <ele>380.8</ele>
        <time>2024-11-10T14:03:37Z</time>
      </trkpt>
      <trkpt lat="45.92792" lon="1.29092">
        <ele>380.5</ele>
        <time>2024-11-10T14:03:38Z</time>
      </trkpt>
      <trkpt lat="45.92798" lon="1.2909">
        <ele>380.2</ele>
        <time>2024-11-10T14:03:39Z</time>
      </trkpt>
      <trkpt lat="45.92804" lon="1.29088">
        <ele>379.8</ele>
        <time>2024-11-10T14:03:40Z</time>
      </trkpt>
      <trkpt lat="45.9281" lon="1.29086">
        <ele>379.4</ele>
        <time>2024-11-10T14:03:41Z</time>
      </trkpt>
      <trkpt lat="45.92816" lon="1.29083">
        <ele>379</ele>
        <time>2024-11-10T14:03:42Z</time>
      </trkpt>
      <trkpt lat="45.92822" lon="1.29081">
        <ele>378.7</ele>
        <time>2024-11-10T14:03:43Z</time>
      </trkpt>
      <trkpt lat="45.92829" lon="1.29079">
        <ele>378.2</ele>
        <time>2024-11-10T14:03:44Z</time>
      </trkpt>
      <trkpt lat="45.92835" lon="1.29076">
        <ele>377.8</ele>
        <time>2024-11-10T14:03:45Z</time>
      </trkpt>
      <trkpt lat="45.92842" lon="1.29073">
        <ele>377.4</ele>
        <time>2024-11-10T14:03:46Z</time>
      </trkpt>
      <trkpt lat="45.92849" lon="1.2907">
        <ele>376.9</ele>
        <time>2024-11-10T14:03:47Z</time>
      </trkpt>
      <trkpt lat="45.92857" lon="1.29067">
        <ele>376.3</ele>
        <time>2024-11-10T14:03:48Z</time>
      </trkpt>
      <trkpt lat="45.92864" lon="1.29063">
        <ele>375.8</ele>
        <time>2024-11-10T14:03:49Z</time>
      </trkpt>
      <trkpt lat="45.92871" lon="1.29059">
        <ele>375.3</ele>
        <time>2024-11-10T14:03:50Z</time>
      </trkpt>
      <trkpt lat="45.92879" lon="1.29056">
        <ele>374.8</ele>
        <time>2024-11-10T14:03:51Z</time>
      </trkpt>
      <trkpt lat="45.92887" lon="1.29052">
        <ele>374.3</ele>
        <time>2024-11-10T14:03:52Z</time>
      </trkpt>
      <trkpt lat="45.92895" lon="1.29049">
        <ele>373.8</ele>
        <time>2024-11-10T14:03:53Z</time>
      </trkpt>
      <trkpt lat="45.92904" lon="1.29045">
        <ele>373.2</ele>
        <time>2024-11-10T14:03:54Z</time>
      </trkpt>
      <trkpt lat="45.92913" lon="1.2904">
        <ele>372.8</ele>
        <time>2024-11-10T14:03:55Z</time>
      </trkpt>
      <trkpt lat="45.92922" lon="1.29037">
        <ele>372.4</ele>
        <time>2024-11-10T14:03:56Z</time>
      </trkpt>
      <trkpt lat="45.92931" lon="1.29034">
        <ele>372.3</ele>
        <time>2024-11-10T14:03:57Z</time>
      </trkpt>
      <trkpt lat="45.92939" lon="1.29031">
        <ele>372.2</ele>
        <time>2024-11-10T14:03:58Z</time>
      </trkpt>
      <trkpt lat="45.92947" lon="1.29031">
        <ele>372.2</ele>
        <time>2024-11-10T14:03:59Z</time>
      </trkpt>
      <trkpt lat="45.92952" lon="1.29032">
        <ele>372.3</ele>
        <time>2024-11-10T14:04:00Z</time>
      </trkpt>
      <trkpt lat="45.9296" lon="1.29033">
        <ele>372.2</ele>
        <time>2024-11-10T14:04:01Z</time>
      </trkpt>
      <trkpt lat="45.92967" lon="1.29036">
        <ele>372.1</ele>
        <time>2024-11-10T14:04:02Z</time>
      </trkpt>
      <trkpt lat="45.92973" lon="1.29039">
        <ele>371.8</ele>
        <time>2024-11-10T14:04:03Z</time>
      </trkpt>
      <trkpt lat="45.92979" lon="1.29042">
        <ele>371.6</ele>
        <time>2024-11-10T14:04:04Z</time>
      </trkpt>
      <trkpt lat="45.92985" lon="1.29045">
        <ele>371.4</ele>
        <time>2024-11-10T14:04:05Z</time>
      </trkpt>
      <trkpt lat="45.92991" lon="1.29051">
        <ele>371.2</ele>
        <time>2024-11-10T14:04:06Z</time>
      </trkpt>
      <trkpt lat="45.92996" lon="1.29057">
        <ele>371.1</ele>
        <time>2024-11-10T14:04:07Z</time>
      </trkpt>
      <trkpt lat="45.92999" lon="1.29065">
        <ele>371.1</ele>
        <time>2024-11-10T14:04:08Z</time>
      </trkpt>
      <trkpt lat="45.93002" lon="1.29073">
        <ele>371.1</ele>
        <time>2024-11-10T14:04:09Z</time>
      </trkpt>
      <trkpt lat="45.93003" lon="1.29082">
        <ele>371.2</ele>
        <time>2024-11-10T14:04:10Z</time>
      </trkpt>
      <trkpt lat="45.93003" lon="1.29089">
        <ele>371.3</ele>
        <time>2024-11-10T14:04:11Z</time>
      </trkpt>
      <trkpt lat="45.93003" lon="1.29096">
        <ele>371.3</ele>
        <time>2024-11-10T14:04:12Z</time>
      </trkpt>
      <trkpt lat="45.93004" lon="1.29102">
        <ele>371.4</ele>
        <time>2024-11-10T14:04:13Z</time>
      </trkpt>
      <trkpt lat="45.93004" lon="1.29109">
        <ele>371.5</ele>
        <time>2024-11-10T14:04:14Z</time>
      </trkpt>
      <trkpt lat="45.93004" lon="1.29116">
        <ele>371.5</ele>
        <time>2024-11-10T14:04:15Z</time>
      </trkpt>
      <trkpt lat="45.93004" lon="1.29122">
        <ele>371.4</ele>
        <time>2024-11-10T14:04:16Z</time>
      </trkpt>
      <trkpt lat="45.93004" lon="1.29129">
        <ele>371.3</ele>
        <time>2024-11-10T14:04:17Z</time>
      </trkpt>
      <trkpt lat="45.93005" lon="1.29137">
        <ele>371.1</ele>
        <time>2024-11-10T14:04:18Z</time>
      </trkpt>
      <trkpt lat="45.93006" lon="1.29144">
        <ele>370.7</ele>
        <time>2024-11-10T14:04:19Z</time>
      </trkpt>
      <trkpt lat="45.93009" lon="1.29152">
        <ele>370.1</ele>
        <time>2024-11-10T14:04:20Z</time>
      </trkpt>
      <trkpt lat="45.93013" lon="1.29161">
        <ele>369.4</ele>
        <time>2024-11-10T14:04:21Z</time>
      </trkpt>
      <trkpt lat="45.93016" lon="1.2917">
        <ele>368.8</ele>
        <time>2024-11-10T14:04:22Z</time>
      </trkpt>
      <trkpt lat="45.93021" lon="1.29179">
        <ele>368.2</ele>
        <time>2024-11-10T14:04:23Z</time>
      </trkpt>
      <trkpt lat="45.93025" lon="1.29189">
        <ele>367.7</ele>
        <time>2024-11-10T14:04:24Z</time>
      </trkpt>
      <trkpt lat="45.93029" lon="1.29199">
        <ele>367.4</ele>
        <time>2024-11-10T14:04:25Z</time>
      </trkpt>
      <trkpt lat="45.93034" lon="1.29209">
        <ele>367.2</ele>
        <time>2024-11-10T14:04:26Z</time>
      </trkpt>
      <trkpt lat="45.93039" lon="1.29218">
        <ele>367</ele>
        <time>2024-11-10T14:04:27Z</time>
      </trkpt>
      <trkpt lat="45.93043" lon="1.29227">
        <ele>367</ele>
        <time>2024-11-10T14:04:28Z</time>
      </trkpt>
      <trkpt lat="45.93047" lon="1.29236">
        <ele>367</ele>
        <time>2024-11-10T14:04:29Z</time>
      </trkpt>
      <trkpt lat="45.93051" lon="1.29245">
        <ele>367.1</ele>
        <time>2024-11-10T14:04:30Z</time>
      </trkpt>
      <trkpt lat="45.93056" lon="1.29252">
        <ele>367.4</ele>
        <time>2024-11-10T14:04:31Z</time>
      </trkpt>
      <trkpt lat="45.93061" lon="1.29257">
        <ele>367.8</ele>
        <time>2024-11-10T14:04:32Z</time>
      </trkpt>
      <trkpt lat="45.93066" lon="1.29261">
        <ele>368.2</ele>
        <time>2024-11-10T14:04:33Z</time>
      </trkpt>
      <trkpt lat="45.93072" lon="1.29264">
        <ele>368.7</ele>
        <time>2024-11-10T14:04:34Z</time>
      </trkpt>
      <trkpt lat="45.93076" lon="1.29265">
        <ele>369.1</ele>
        <time>2024-11-10T14:04:35Z</time>
      </trkpt>
      <trkpt lat="45.93081" lon="1.29267">
        <ele>369.5</ele>
        <time>2024-11-10T14:04:36Z</time>
      </trkpt>
      <trkpt lat="45.93085" lon="1.29268">
        <ele>369.8</ele>
        <time>2024-11-10T14:04:37Z</time>
      </trkpt>
      <trkpt lat="45.93089" lon="1.29269">
        <ele>370.1</ele>
        <time>2024-11-10T14:04:38Z</time>
      </trkpt>
      <trkpt lat="45.93093" lon="1.29269">
        <ele>370.3</ele>
        <time>2024-11-10T14:04:39Z</time>
      </trkpt>
      <trkpt lat="45.93097" lon="1.29271">
        <ele>370.5</ele>
        <time>2024-11-10T14:04:40Z</time>
      </trkpt>
      <trkpt lat="45.93101" lon="1.29273">
        <ele>370.5</ele>
        <time>2024-11-10T14:04:41Z</time>
      </trkpt>
      <trkpt lat="45.93105" lon="1.29275">
        <ele>370.5</ele>
        <time>2024-11-10T14:04:42Z</time>
      </trkpt>
      <trkpt lat="45.93109" lon="1.29277">
        <ele>370.3</ele>
        <time>2024-11-10T14:04:43Z</time>
      </trkpt>
      <trkpt lat="45.93114" lon="1.2928">
        <ele>370</ele>
        <time>2024-11-10T14:04:44Z</time>
      </trkpt>
      <trkpt lat="45.93118" lon="1.29284">
        <ele>369.7</ele>
        <time>2024-11-10T14:04:45Z</time>
      </trkpt>
      <trkpt lat="45.93123" lon="1.29288">
        <ele>369.2</ele>
        <time>2024-11-10T14:04:46Z</time>
      </trkpt>
      <trkpt lat="45.93126" lon="1.29292">
        <ele>368.8</ele>
        <time>2024-11-10T14:04:47Z</time>
      </trkpt>
      <trkpt lat="45.9313" lon="1.29296">
        <ele>368.2</ele>
        <time>2024-11-10T14:04:48Z</time>
      </trkpt>
      <trkpt lat="45.93132" lon="1.293">
        <ele>367.8</ele>
        <time>2024-11-10T14:04:49Z</time>
      </trkpt>
      <trkpt lat="45.93136" lon="1.29303">
        <ele>367.2</ele>
        <time>2024-11-10T14:04:50Z</time>
      </trkpt>
      <trkpt lat="45.93139" lon="1.29305">
        <ele>366.8</ele>
        <time>2024-11-10T14:04:51Z</time>
      </trkpt>
      <trkpt lat="45.93143" lon="1.29306">
        <ele>366.2</ele>
        <time>2024-11-10T14:04:52Z</time>
      </trkpt>
      <trkpt lat="45.93146" lon="1.29306">
        <ele>365.7</ele>
        <time>2024-11-10T14:04:53Z</time>
      </trkpt>
      <trkpt lat="45.93149" lon="1.29305">
        <ele>365.2</ele>
        <time>2024-11-10T14:04:54Z</time>
      </trkpt>
      <trkpt lat="45.93152" lon="1.29303">
        <ele>364.7</ele>
        <time>2024-11-10T14:04:55Z</time>
      </trkpt>
      <trkpt lat="45.93155" lon="1.29301">
        <ele>364.2</ele>
        <time>2024-11-10T14:04:56Z</time>
      </trkpt>
      <trkpt lat="45.9316" lon="1.29296">
        <ele>363.2</ele>
        <time>2024-11-10T14:04:57Z</time>
      </trkpt>
      <trkpt lat="45.93165" lon="1.29292">
        <ele>362.3</ele>
        <time>2024-11-10T14:04:58Z</time>
      </trkpt>
      <trkpt lat="45.9317" lon="1.29288">
        <ele>361.3</ele>
        <time>2024-11-10T14:04:59Z</time>
      </trkpt>
      <trkpt lat="45.93175" lon="1.29285">
        <ele>360.5</ele>
        <time>2024-11-10T14:05:00Z</time>
      </trkpt>
      <trkpt lat="45.93181" lon="1.29282">
        <ele>359.4</ele>
        <time>2024-11-10T14:05:01Z</time>
      </trkpt>
      <trkpt lat="45.93185" lon="1.29284">
        <ele>358.7</ele>
        <time>2024-11-10T14:05:02Z</time>
      </trkpt>
      <trkpt lat="45.93189" lon="1.29285">
        <ele>358.1</ele>
        <time>2024-11-10T14:05:03Z</time>
      </trkpt>
      <trkpt lat="45.93194" lon="1.29285">
        <ele>357.3</ele>
        <time>2024-11-10T14:05:04Z</time>
      </trkpt>
      <trkpt lat="45.932" lon="1.29286">
        <ele>356.4</ele>
        <time>2024-11-10T14:05:05Z</time>
      </trkpt>
      <trkpt lat="45.93206" lon="1.29286">
        <ele>355.6</ele>
        <time>2024-11-10T14:05:06Z</time>
      </trkpt>
      <trkpt lat="45.93213" lon="1.29287">
        <ele>354.7</ele>
        <time>2024-11-10T14:05:07Z</time>
      </trkpt>
      <trkpt lat="45.93219" lon="1.29288">
        <ele>354</ele>
        <time>2024-11-10T14:05:08Z</time>
      </trkpt>
      <trkpt lat="45.93226" lon="1.29289">
        <ele>353.4</ele>
        <time>2024-11-10T14:05:09Z</time>
      </trkpt>
      <trkpt lat="45.93231" lon="1.29293">
        <ele>353</ele>
        <time>2024-11-10T14:05:10Z</time>
      </trkpt>
      <trkpt lat="45.93236" lon="1.29297">
        <ele>352.6</ele>
        <time>2024-11-10T14:05:11Z</time>
      </trkpt>
      <trkpt lat="45.93238" lon="1.29303">
        <ele>352.4</ele>
        <time>2024-11-10T14:05:12Z</time>
      </trkpt>
      <trkpt lat="45.93238" lon="1.29309">
        <ele>352.3</ele>
        <time>2024-11-10T14:05:13Z</time>
      </trkpt>
      <trkpt lat="45.93238" lon="1.29315">
        <ele>352.2</ele>
        <time>2024-11-10T14:05:14Z</time>
      </trkpt>
      <trkpt lat="45.93236" lon="1.29319">
        <ele>352.2</ele>
        <time>2024-11-10T14:05:16Z</time>
      </trkpt>
      <trkpt lat="45.93233" lon="1.29325">
        <ele>352.1</ele>
        <time>2024-11-10T14:05:18Z</time>
      </trkpt>
      <trkpt lat="45.93231" lon="1.29329">
        <ele>352.1</ele>
        <time>2024-11-10T14:05:19Z</time>
      </trkpt>
      <trkpt lat="45.93228" lon="1.29332">
        <ele>352.1</ele>
        <time>2024-11-10T14:05:20Z</time>
      </trkpt>
      <trkpt lat="45.93225" lon="1.29336">
        <ele>352.1</ele>
        <time>2024-11-10T14:05:22Z</time>
      </trkpt>
      <trkpt lat="45.93223" lon="1.2934">
        <ele>352.1</ele>
        <time>2024-11-10T14:05:24Z</time>
      </trkpt>
      <trkpt lat="45.93221" lon="1.29344">
        <ele>352.2</ele>
        <time>2024-11-10T14:05:25Z</time>
      </trkpt>
      <trkpt lat="45.9322" lon="1.29348">
        <ele>352.2</ele>
        <time>2024-11-10T14:05:26Z</time>
      </trkpt>
      <trkpt lat="45.93218" lon="1.29352">
        <ele>352.2</ele>
        <time>2024-11-10T14:05:27Z</time>
      </trkpt>
      <trkpt lat="45.93216" lon="1.29359">
        <ele>352.2</ele>
        <time>2024-11-10T14:05:28Z</time>
      </trkpt>
      <trkpt lat="45.93214" lon="1.29363">
        <ele>352.3</ele>
        <time>2024-11-10T14:05:29Z</time>
      </trkpt>
      <trkpt lat="45.93211" lon="1.29367">
        <ele>352.3</ele>
        <time>2024-11-10T14:05:30Z</time>
      </trkpt>
      <trkpt lat="45.93209" lon="1.29374">
        <ele>352.4</ele>
        <time>2024-11-10T14:05:32Z</time>
      </trkpt>
      <trkpt lat="45.93208" lon="1.29379">
        <ele>352.4</ele>
        <time>2024-11-10T14:05:33Z</time>
      </trkpt>
      <trkpt lat="45.93207" lon="1.29385">
        <ele>352.5</ele>
        <time>2024-11-10T14:05:35Z</time>
      </trkpt>
      <trkpt lat="45.93207" lon="1.29392">
        <ele>352.6</ele>
        <time>2024-11-10T14:05:37Z</time>
      </trkpt>
      <trkpt lat="45.93206" lon="1.29399">
        <ele>352.7</ele>
        <time>2024-11-10T14:05:39Z</time>
      </trkpt>
      <trkpt lat="45.93206" lon="1.29405">
        <ele>352.9</ele>
        <time>2024-11-10T14:05:41Z</time>
      </trkpt>
      <trkpt lat="45.93206" lon="1.29412">
        <ele>353.2</ele>
        <time>2024-11-10T14:05:43Z</time>
      </trkpt>
      <trkpt lat="45.93207" lon="1.29416">
        <ele>353.3</ele>
        <time>2024-11-10T14:05:44Z</time>
      </trkpt>
      <trkpt lat="45.93207" lon="1.29422">
        <ele>353.7</ele>
        <time>2024-11-10T14:05:46Z</time>
      </trkpt>
      <trkpt lat="45.93207" lon="1.29428">
        <ele>354</ele>
        <time>2024-11-10T14:05:47Z</time>
      </trkpt>
      <trkpt lat="45.93207" lon="1.29433">
        <ele>354.3</ele>
        <time>2024-11-10T14:05:48Z</time>
      </trkpt>
      <trkpt lat="45.93207" lon="1.29438">
        <ele>354.7</ele>
        <time>2024-11-10T14:05:49Z</time>
      </trkpt>
      <trkpt lat="45.93207" lon="1.29443">
        <ele>355.1</ele>
        <time>2024-11-10T14:05:50Z</time>
      </trkpt>
      <trkpt lat="45.93206" lon="1.29447">
        <ele>355.4</ele>
        <time>2024-11-10T14:05:51Z</time>
      </trkpt>
      <trkpt lat="45.93206" lon="1.29452">
        <ele>355.7</ele>
        <time>2024-11-10T14:05:53Z</time>
      </trkpt>
      <trkpt lat="45.93206" lon="1.29458">
        <ele>356.2</ele>
        <time>2024-11-10T14:05:55Z</time>
      </trkpt>
      <trkpt lat="45.93206" lon="1.29463">
        <ele>356.6</ele>
        <time>2024-11-10T14:05:56Z</time>
      </trkpt>
      <trkpt lat="45.93207" lon="1.29468">
        <ele>358.6</ele>
        <time>2024-11-10T14:05:58Z</time>
      </trkpt>
      <trkpt lat="45.93209" lon="1.29468">
        <ele>358.6</ele>
        <time>2024-11-10T14:06:01Z</time>
      </trkpt>
      <trkpt lat="45.9321" lon="1.29466">
        <ele>358.6</ele>
        <time>2024-11-10T14:06:03Z</time>
      </trkpt>
      <trkpt lat="45.93212" lon="1.29466">
        <ele>358.6</ele>
        <time>2024-11-10T14:06:07Z</time>
      </trkpt>
      <trkpt lat="45.93214" lon="1.29463">
        <ele>359.1</ele>
        <time>2024-11-10T14:06:19Z</time>
      </trkpt>
      <trkpt lat="45.93216" lon="1.2946">
        <ele>359.6</ele>
        <time>2024-11-10T14:06:22Z</time>
      </trkpt>
      <trkpt lat="45.93219" lon="1.29456">
        <ele>360.3</ele>
        <time>2024-11-10T14:06:24Z</time>
      </trkpt>
      <trkpt lat="45.93222" lon="1.29452">
        <ele>361</ele>
        <time>2024-11-10T14:06:26Z</time>
      </trkpt>
      <trkpt lat="45.93226" lon="1.29448">
        <ele>361.8</ele>
        <time>2024-11-10T14:06:28Z</time>
      </trkpt>
      <trkpt lat="45.93229" lon="1.29443">
        <ele>362.5</ele>
        <time>2024-11-10T14:06:30Z</time>
      </trkpt>
      <trkpt lat="45.93231" lon="1.2944">
        <ele>363</ele>
        <time>2024-11-10T14:06:33Z</time>
      </trkpt>
      <trkpt lat="45.93234" lon="1.29437">
        <ele>363.7</ele>
        <time>2024-11-10T14:06:36Z</time>
      </trkpt>
      <trkpt lat="45.93236" lon="1.29439">
        <ele>363.9</ele>
        <time>2024-11-10T14:06:42Z</time>
      </trkpt>
      <trkpt lat="45.93238" lon="1.29441">
        <ele>364.1</ele>
        <time>2024-11-10T14:06:44Z</time>
      </trkpt>
      <trkpt lat="45.93241" lon="1.29445">
        <ele>364.5</ele>
        <time>2024-11-10T14:06:47Z</time>
      </trkpt>
      <trkpt lat="45.93243" lon="1.29449">
        <ele>364.9</ele>
        <time>2024-11-10T14:06:52Z</time>
      </trkpt>
      <trkpt lat="45.93244" lon="1.29453">
        <ele>365.1</ele>
        <time>2024-11-10T14:06:54Z</time>
      </trkpt>
      <trkpt lat="45.93245" lon="1.29457">
        <ele>365.4</ele>
        <time>2024-11-10T14:06:56Z</time>
      </trkpt>
      <trkpt lat="45.93247" lon="1.29463">
        <ele>365.8</ele>
        <time>2024-11-10T14:06:58Z</time>
      </trkpt>
      <trkpt lat="45.93249" lon="1.29468">
        <ele>366.2</ele>
        <time>2024-11-10T14:07:00Z</time>
      </trkpt>
      <trkpt lat="45.93251" lon="1.29474">
        <ele>366.7</ele>
        <time>2024-11-10T14:07:02Z</time>
      </trkpt>
      <trkpt lat="45.93254" lon="1.29479">
        <ele>367.2</ele>
        <time>2024-11-10T14:07:04Z</time>
      </trkpt>
      <trkpt lat="45.93256" lon="1.29483">
        <ele>367.6</ele>
        <time>2024-11-10T14:07:06Z</time>
      </trkpt>
      <trkpt lat="45.93259" lon="1.29488">
        <ele>368.1</ele>
        <time>2024-11-10T14:07:08Z</time>
      </trkpt>
      <trkpt lat="45.93261" lon="1.29492">
        <ele>368.5</ele>
        <time>2024-11-10T14:07:10Z</time>
      </trkpt>
      <trkpt lat="45.93263" lon="1.29497">
        <ele>369</ele>
        <time>2024-11-10T14:07:12Z</time>
      </trkpt>
      <trkpt lat="45.93265" lon="1.29501">
        <ele>369.5</ele>
        <time>2024-11-10T14:07:14Z</time>
      </trkpt>
      <trkpt lat="45.93267" lon="1.29505">
        <ele>369.9</ele>
        <time>2024-11-10T14:07:16Z</time>
      </trkpt>
      <trkpt lat="45.93269" lon="1.29509">
        <ele>370.4</ele>
        <time>2024-11-10T14:07:18Z</time>
      </trkpt>
      <trkpt lat="45.93271" lon="1.29512">
        <ele>370.8</ele>
        <time>2024-11-10T14:07:20Z</time>
      </trkpt>
      <trkpt lat="45.93273" lon="1.29516">
        <ele>371.3</ele>
        <time>2024-11-10T14:07:22Z</time>
      </trkpt>
      <trkpt lat="45.93275" lon="1.2952">
        <ele>371.7</ele>
        <time>2024-11-10T14:07:27Z</time>
      </trkpt>
      <trkpt lat="45.93277" lon="1.29524">
        <ele>372.2</ele>
        <time>2024-11-10T14:07:29Z</time>
      </trkpt>
      <trkpt lat="45.9328" lon="1.29529">
        <ele>372.8</ele>
        <time>2024-11-10T14:07:31Z</time>
      </trkpt>
      <trkpt lat="45.93282" lon="1.29534">
        <ele>373.4</ele>
        <time>2024-11-10T14:07:33Z</time>
      </trkpt>
      <trkpt lat="45.93283" lon="1.29539">
        <ele>373.9</ele>
        <time>2024-11-10T14:07:35Z</time>
      </trkpt>
      <trkpt lat="45.93285" lon="1.29544">
        <ele>374.4</ele>
        <time>2024-11-10T14:07:37Z</time>
      </trkpt>
      <trkpt lat="45.93287" lon="1.2955">
        <ele>375</ele>
        <time>2024-11-10T14:07:39Z</time>
      </trkpt>
      <trkpt lat="45.93289" lon="1.29554">
        <ele>375.5</ele>
        <time>2024-11-10T14:07:42Z</time>
      </trkpt>
      <trkpt lat="45.93291" lon="1.29558">
        <ele>375.9</ele>
        <time>2024-11-10T14:07:44Z</time>
      </trkpt>
      <trkpt lat="45.93293" lon="1.29562">
        <ele>376.3</ele>
        <time>2024-11-10T14:07:46Z</time>
      </trkpt>
      <trkpt lat="45.93295" lon="1.29567">
        <ele>376.8</ele>
        <time>2024-11-10T14:07:49Z</time>
      </trkpt>
      <trkpt lat="45.93297" lon="1.29573">
        <ele>377.4</ele>
        <time>2024-11-10T14:07:51Z</time>
      </trkpt>
      <trkpt lat="45.93299" lon="1.29578">
        <ele>377.9</ele>
        <time>2024-11-10T14:07:53Z</time>
      </trkpt>
      <trkpt lat="45.93301" lon="1.29584">
        <ele>378.4</ele>
        <time>2024-11-10T14:07:55Z</time>
      </trkpt>
      <trkpt lat="45.93302" lon="1.29588">
        <ele>378.7</ele>
        <time>2024-11-10T14:07:56Z</time>
      </trkpt>
      <trkpt lat="45.93303" lon="1.29592">
        <ele>379</ele>
        <time>2024-11-10T14:07:57Z</time>
      </trkpt>
      <trkpt lat="45.93305" lon="1.29598">
        <ele>379.5</ele>
        <time>2024-11-10T14:07:59Z</time>
      </trkpt>
      <trkpt lat="45.93306" lon="1.29603">
        <ele>379.9</ele>
        <time>2024-11-10T14:08:01Z</time>
      </trkpt>
      <trkpt lat="45.93307" lon="1.29607">
        <ele>380.1</ele>
        <time>2024-11-10T14:08:03Z</time>
      </trkpt>
      <trkpt lat="45.93308" lon="1.29612">
        <ele>380.4</ele>
        <time>2024-11-10T14:08:05Z</time>
      </trkpt>
      <trkpt lat="45.93311" lon="1.29617">
        <ele>380.8</ele>
        <time>2024-11-10T14:08:07Z</time>
      </trkpt>
      <trkpt lat="45.93313" lon="1.29623">
        <ele>381.2</ele>
        <time>2024-11-10T14:08:09Z</time>
      </trkpt>
      <trkpt lat="45.93314" lon="1.29628">
        <ele>381.5</ele>
        <time>2024-11-10T14:08:11Z</time>
      </trkpt>
      <trkpt lat="45.93315" lon="1.29632">
        <ele>381.8</ele>
        <time>2024-11-10T14:08:13Z</time>
      </trkpt>
      <trkpt lat="45.93316" lon="1.29637">
        <ele>382.1</ele>
        <time>2024-11-10T14:08:18Z</time>
      </trkpt>
      <trkpt lat="45.93318" lon="1.29641">
        <ele>382.4</ele>
        <time>2024-11-10T14:08:20Z</time>
      </trkpt>
      <trkpt lat="45.9332" lon="1.29645">
        <ele>382.7</ele>
        <time>2024-11-10T14:08:22Z</time>
      </trkpt>
      <trkpt lat="45.93322" lon="1.2965">
        <ele>383</ele>
        <time>2024-11-10T14:08:24Z</time>
      </trkpt>
      <trkpt lat="45.93324" lon="1.29656">
        <ele>383.4</ele>
        <time>2024-11-10T14:08:26Z</time>
      </trkpt>
      <trkpt lat="45.93325" lon="1.2966">
        <ele>383.7</ele>
        <time>2024-11-10T14:08:28Z</time>
      </trkpt>
      <trkpt lat="45.93327" lon="1.29665">
        <ele>384</ele>
        <time>2024-11-10T14:08:30Z</time>
      </trkpt>
      <trkpt lat="45.9333" lon="1.2967">
        <ele>384.4</ele>
        <time>2024-11-10T14:08:32Z</time>
      </trkpt>
      <trkpt lat="45.93331" lon="1.29676">
        <ele>384.8</ele>
        <time>2024-11-10T14:08:34Z</time>
      </trkpt>
      <trkpt lat="45.93333" lon="1.29681">
        <ele>385.1</ele>
        <time>2024-11-10T14:08:36Z</time>
      </trkpt>
      <trkpt lat="45.93335" lon="1.29686">
        <ele>385.4</ele>
        <time>2024-11-10T14:08:38Z</time>
      </trkpt>
      <trkpt lat="45.93337" lon="1.29691">
        <ele>385.8</ele>
        <time>2024-11-10T14:08:40Z</time>
      </trkpt>
      <trkpt lat="45.93339" lon="1.29696">
        <ele>386.2</ele>
        <time>2024-11-10T14:09:10Z</time>
      </trkpt>
      <trkpt lat="45.9334" lon="1.297">
        <ele>386.4</ele>
        <time>2024-11-10T14:09:12Z</time>
      </trkpt>
      <trkpt lat="45.93342" lon="1.29704">
        <ele>386.8</ele>
        <time>2024-11-10T14:09:13Z</time>
      </trkpt>
      <trkpt lat="45.93344" lon="1.29708">
        <ele>387.2</ele>
        <time>2024-11-10T14:09:15Z</time>
      </trkpt>
      <trkpt lat="45.93346" lon="1.29712">
        <ele>387.6</ele>
        <time>2024-11-10T14:09:17Z</time>
      </trkpt>
      <trkpt lat="45.93348" lon="1.29716">
        <ele>387.9</ele>
        <time>2024-11-10T14:09:20Z</time>
      </trkpt>
      <trkpt lat="45.9335" lon="1.2972">
        <ele>388.3</ele>
        <time>2024-11-10T14:09:22Z</time>
      </trkpt>
      <trkpt lat="45.93351" lon="1.29724">
        <ele>388.7</ele>
        <time>2024-11-10T14:09:24Z</time>
      </trkpt>
      <trkpt lat="45.93353" lon="1.29728">
        <ele>389.1</ele>
        <time>2024-11-10T14:09:26Z</time>
      </trkpt>
      <trkpt lat="45.93355" lon="1.29732">
        <ele>389.6</ele>
        <time>2024-11-10T14:09:28Z</time>
      </trkpt>
      <trkpt lat="45.93357" lon="1.29736">
        <ele>390.1</ele>
        <time>2024-11-10T14:09:30Z</time>
      </trkpt>
      <trkpt lat="45.93358" lon="1.2974">
        <ele>390.5</ele>
        <time>2024-11-10T14:09:32Z</time>
      </trkpt>
      <trkpt lat="45.9336" lon="1.29744">
        <ele>390.9</ele>
        <time>2024-11-10T14:09:34Z</time>
      </trkpt>
      <trkpt lat="45.93361" lon="1.29748">
        <ele>391.3</ele>
        <time>2024-11-10T14:09:36Z</time>
      </trkpt>
      <trkpt lat="45.93363" lon="1.29751">
        <ele>391.7</ele>
        <time>2024-11-10T14:09:38Z</time>
      </trkpt>
      <trkpt lat="45.93365" lon="1.29755">
        <ele>392.2</ele>
        <time>2024-11-10T14:09:40Z</time>
      </trkpt>
      <trkpt lat="45.93367" lon="1.29759">
        <ele>392.7</ele>
        <time>2024-11-10T14:09:42Z</time>
      </trkpt>
      <trkpt lat="45.93369" lon="1.29762">
        <ele>393</ele>
        <time>2024-11-10T14:09:44Z</time>
      </trkpt>
      <trkpt lat="45.93371" lon="1.29766">
        <ele>393.5</ele>
        <time>2024-11-10T14:09:46Z</time>
      </trkpt>
      <trkpt lat="45.93373" lon="1.2977">
        <ele>393.9</ele>
        <time>2024-11-10T14:09:49Z</time>
      </trkpt>
      <trkpt lat="45.93375" lon="1.29774">
        <ele>394.4</ele>
        <time>2024-11-10T14:09:51Z</time>
      </trkpt>
      <trkpt lat="45.93376" lon="1.29778">
        <ele>394.7</ele>
        <time>2024-11-10T14:09:53Z</time>
      </trkpt>
      <trkpt lat="45.93378" lon="1.29782">
        <ele>395.1</ele>
        <time>2024-11-10T14:09:56Z</time>
      </trkpt>
      <trkpt lat="45.9338" lon="1.29786">
        <ele>395.5</ele>
        <time>2024-11-10T14:09:58Z</time>
      </trkpt>
      <trkpt lat="45.93381" lon="1.2979">
        <ele>395.9</ele>
        <time>2024-11-10T14:10:00Z</time>
      </trkpt>
      <trkpt lat="45.93382" lon="1.29793">
        <ele>396.1</ele>
        <time>2024-11-10T14:10:02Z</time>
      </trkpt>
      <trkpt lat="45.93384" lon="1.29797">
        <ele>396.5</ele>
        <time>2024-11-10T14:10:04Z</time>
      </trkpt>
      <trkpt lat="45.93386" lon="1.29801">
        <ele>396.8</ele>
        <time>2024-11-10T14:10:06Z</time>
      </trkpt>
      <trkpt lat="45.93388" lon="1.29805">
        <ele>397.1</ele>
        <time>2024-11-10T14:10:08Z</time>
      </trkpt>
      <trkpt lat="45.9339" lon="1.29809">
        <ele>397.5</ele>
        <time>2024-11-10T14:10:11Z</time>
      </trkpt>
      <trkpt lat="45.93393" lon="1.29812">
        <ele>397.8</ele>
        <time>2024-11-10T14:10:13Z</time>
      </trkpt>
      <trkpt lat="45.93395" lon="1.29816">
        <ele>398</ele>
        <time>2024-11-10T14:10:16Z</time>
      </trkpt>
      <trkpt lat="45.93397" lon="1.2982">
        <ele>398.3</ele>
        <time>2024-11-10T14:10:18Z</time>
      </trkpt>
      <trkpt lat="45.93399" lon="1.29823">
        <ele>398.5</ele>
        <time>2024-11-10T14:10:20Z</time>
      </trkpt>
      <trkpt lat="45.93401" lon="1.29826">
        <ele>398.6</ele>
        <time>2024-11-10T14:10:23Z</time>
      </trkpt>
      <trkpt lat="45.93403" lon="1.2983">
        <ele>398.8</ele>
        <time>2024-11-10T14:10:30Z</time>
      </trkpt>
      <trkpt lat="45.93405" lon="1.29834">
        <ele>399</ele>
        <time>2024-11-10T14:10:32Z</time>
      </trkpt>
      <trkpt lat="45.93407" lon="1.29837">
        <ele>399.2</ele>
        <time>2024-11-10T14:10:34Z</time>
      </trkpt>
      <trkpt lat="45.93409" lon="1.29839">
        <ele>399.3</ele>
        <time>2024-11-10T14:10:36Z</time>
      </trkpt>
      <trkpt lat="45.93412" lon="1.29842">
        <ele>399.5</ele>
        <time>2024-11-10T14:10:38Z</time>
      </trkpt>
      <trkpt lat="45.93414" lon="1.29845">
        <ele>399.6</ele>
        <time>2024-11-10T14:10:41Z</time>
      </trkpt>
      <trkpt lat="45.93417" lon="1.29848">
        <ele>399.7</ele>
        <time>2024-11-10T14:10:43Z</time>
      </trkpt>
      <trkpt lat="45.93419" lon="1.2985">
        <ele>399.8</ele>
        <time>2024-11-10T14:10:45Z</time>
      </trkpt>
      <trkpt lat="45.93422" lon="1.29852">
        <ele>400</ele>
        <time>2024-11-10T14:10:47Z</time>
      </trkpt>
      <trkpt lat="45.93425" lon="1.29853">
        <ele>400.1</ele>
        <time>2024-11-10T14:10:49Z</time>
      </trkpt>
      <trkpt lat="45.93428" lon="1.29854">
        <ele>400.2</ele>
        <time>2024-11-10T14:10:52Z</time>
      </trkpt>
      <trkpt lat="45.93431" lon="1.29855">
        <ele>400.2</ele>
        <time>2024-11-10T14:10:54Z</time>
      </trkpt>
      <trkpt lat="45.93434" lon="1.29857">
        <ele>400.3</ele>
        <time>2024-11-10T14:10:57Z</time>
      </trkpt>
      <trkpt lat="45.93438" lon="1.29857">
        <ele>400.4</ele>
        <time>2024-11-10T14:10:59Z</time>
      </trkpt>
      <trkpt lat="45.93441" lon="1.29858">
        <ele>400.5</ele>
        <time>2024-11-10T14:11:01Z</time>
      </trkpt>
      <trkpt lat="45.93444" lon="1.29858">
        <ele>400.5</ele>
        <time>2024-11-10T14:11:03Z</time>
      </trkpt>
      <trkpt lat="45.93448" lon="1.29859">
        <ele>400.6</ele>
        <time>2024-11-10T14:11:05Z</time>
      </trkpt>
      <trkpt lat="45.93452" lon="1.2986">
        <ele>400.7</ele>
        <time>2024-11-10T14:11:07Z</time>
      </trkpt>
      <trkpt lat="45.93457" lon="1.29861">
        <ele>400.7</ele>
        <time>2024-11-10T14:11:09Z</time>
      </trkpt>
      <trkpt lat="45.93461" lon="1.29861">
        <ele>400.8</ele>
        <time>2024-11-10T14:11:11Z</time>
      </trkpt>
      <trkpt lat="45.93465" lon="1.29861">
        <ele>400.8</ele>
        <time>2024-11-10T14:11:13Z</time>
      </trkpt>
      <trkpt lat="45.93469" lon="1.29862">
        <ele>400.9</ele>
        <time>2024-11-10T14:11:15Z</time>
      </trkpt>
      <trkpt lat="45.93473" lon="1.29861">
        <ele>400.9</ele>
        <time>2024-11-10T14:11:18Z</time>
      </trkpt>
      <trkpt lat="45.93478" lon="1.29862">
        <ele>400.9</ele>
        <time>2024-11-10T14:11:20Z</time>
      </trkpt>
      <trkpt lat="45.93482" lon="1.29862">
        <ele>400.9</ele>
        <time>2024-11-10T14:11:21Z</time>
      </trkpt>
      <trkpt lat="45.93485" lon="1.29862">
        <ele>400.9</ele>
        <time>2024-11-10T14:11:22Z</time>
      </trkpt>
      <trkpt lat="45.93489" lon="1.29863">
        <ele>400.9</ele>
        <time>2024-11-10T14:11:23Z</time>
      </trkpt>
      <trkpt lat="45.93493" lon="1.29864">
        <ele>401</ele>
        <time>2024-11-10T14:11:24Z</time>
      </trkpt>
      <trkpt lat="45.93497" lon="1.29865">
        <ele>401</ele>
        <time>2024-11-10T14:11:25Z</time>
      </trkpt>
      <trkpt lat="45.93501" lon="1.29867">
        <ele>401</ele>
        <time>2024-11-10T14:11:26Z</time>
      </trkpt>
      <trkpt lat="45.93504" lon="1.29868">
        <ele>401</ele>
        <time>2024-11-10T14:11:27Z</time>
      </trkpt>
      <trkpt lat="45.93508" lon="1.2987">
        <ele>401</ele>
        <time>2024-11-10T14:11:28Z</time>
      </trkpt>
      <trkpt lat="45.93512" lon="1.29872">
        <ele>401</ele>
        <time>2024-11-10T14:11:29Z</time>
      </trkpt>
      <trkpt lat="45.93516" lon="1.29873">
        <ele>401.1</ele>
        <time>2024-11-10T14:11:30Z</time>
      </trkpt>
      <trkpt lat="45.9352" lon="1.29875">
        <ele>401.1</ele>
        <time>2024-11-10T14:11:31Z</time>
      </trkpt>
      <trkpt lat="45.93524" lon="1.29877">
        <ele>401.1</ele>
        <time>2024-11-10T14:11:32Z</time>
      </trkpt>
      <trkpt lat="45.93528" lon="1.2988">
        <ele>401.2</ele>
        <time>2024-11-10T14:11:33Z</time>
      </trkpt>
      <trkpt lat="45.93532" lon="1.29881">
        <ele>401.2</ele>
        <time>2024-11-10T14:11:34Z</time>
      </trkpt>
      <trkpt lat="45.93536" lon="1.29882">
        <ele>401.3</ele>
        <time>2024-11-10T14:11:35Z</time>
      </trkpt>
      <trkpt lat="45.93539" lon="1.29884">
        <ele>401.3</ele>
        <time>2024-11-10T14:11:36Z</time>
      </trkpt>
      <trkpt lat="45.93543" lon="1.29885">
        <ele>401.3</ele>
        <time>2024-11-10T14:11:37Z</time>
      </trkpt>
      <trkpt lat="45.93546" lon="1.29886">
        <ele>401.4</ele>
        <time>2024-11-10T14:11:38Z</time>
      </trkpt>
      <trkpt lat="45.9355" lon="1.29886">
        <ele>401.4</ele>
        <time>2024-11-10T14:11:39Z</time>
      </trkpt>
      <trkpt lat="45.93552" lon="1.29886">
        <ele>401.4</ele>
        <time>2024-11-10T14:11:40Z</time>
      </trkpt>
      <trkpt lat="45.93556" lon="1.29885">
        <ele>401.5</ele>
        <time>2024-11-10T14:11:42Z</time>
      </trkpt>
      <trkpt lat="45.93559" lon="1.29887">
        <ele>401.5</ele>
        <time>2024-11-10T14:11:43Z</time>
      </trkpt>
      <trkpt lat="45.93563" lon="1.2989">
        <ele>401.5</ele>
        <time>2024-11-10T14:11:44Z</time>
      </trkpt>
      <trkpt lat="45.93566" lon="1.29893">
        <ele>401.6</ele>
        <time>2024-11-10T14:11:45Z</time>
      </trkpt>
      <trkpt lat="45.93568" lon="1.29894">
        <ele>401.6</ele>
        <time>2024-11-10T14:11:46Z</time>
      </trkpt>
      <trkpt lat="45.93572" lon="1.29895">
        <ele>401.6</ele>
        <time>2024-11-10T14:11:48Z</time>
      </trkpt>
      <trkpt lat="45.93577" lon="1.29895">
        <ele>401.7</ele>
        <time>2024-11-10T14:11:50Z</time>
      </trkpt>
      <trkpt lat="45.93581" lon="1.29894">
        <ele>401.7</ele>
        <time>2024-11-10T14:11:52Z</time>
      </trkpt>
      <trkpt lat="45.93583" lon="1.29896">
        <ele>401.7</ele>
        <time>2024-11-10T14:11:56Z</time>
      </trkpt>
      <trkpt lat="45.93586" lon="1.29899">
        <ele>401.8</ele>
        <time>2024-11-10T14:12:01Z</time>
      </trkpt>
      <trkpt lat="45.93589" lon="1.299">
        <ele>401.8</ele>
        <time>2024-11-10T14:12:03Z</time>
      </trkpt>
      <trkpt lat="45.93592" lon="1.299">
        <ele>401.8</ele>
        <time>2024-11-10T14:12:05Z</time>
      </trkpt>
      <trkpt lat="45.93597" lon="1.29901">
        <ele>401.8</ele>
        <time>2024-11-10T14:12:07Z</time>
      </trkpt>
      <trkpt lat="45.93601" lon="1.29904">
        <ele>401.7</ele>
        <time>2024-11-10T14:12:09Z</time>
      </trkpt>
      <trkpt lat="45.93604" lon="1.29906">
        <ele>401.6</ele>
        <time>2024-11-10T14:12:10Z</time>
      </trkpt>
      <trkpt lat="45.93607" lon="1.29908">
        <ele>401.6</ele>
        <time>2024-11-10T14:12:11Z</time>
      </trkpt>
      <trkpt lat="45.9361" lon="1.2991">
        <ele>401.5</ele>
        <time>2024-11-10T14:12:12Z</time>
      </trkpt>
      <trkpt lat="45.93613" lon="1.29911">
        <ele>401.4</ele>
        <time>2024-11-10T14:12:13Z</time>
      </trkpt>
      <trkpt lat="45.93618" lon="1.29913">
        <ele>401.3</ele>
        <time>2024-11-10T14:12:15Z</time>
      </trkpt>
      <trkpt lat="45.93622" lon="1.29914">
        <ele>401.1</ele>
        <time>2024-11-10T14:12:16Z</time>
      </trkpt>
      <trkpt lat="45.93626" lon="1.29915">
        <ele>400.9</ele>
        <time>2024-11-10T14:12:17Z</time>
      </trkpt>
      <trkpt lat="45.9363" lon="1.29915">
        <ele>400.7</ele>
        <time>2024-11-10T14:12:18Z</time>
      </trkpt>
      <trkpt lat="45.93633" lon="1.29916">
        <ele>400.6</ele>
        <time>2024-11-10T14:12:19Z</time>
      </trkpt>
      <trkpt lat="45.93636" lon="1.29917">
        <ele>400.4</ele>
        <time>2024-11-10T14:12:20Z</time>
      </trkpt>
      <trkpt lat="45.9364" lon="1.29918">
        <ele>400</ele>
        <time>2024-11-10T14:12:21Z</time>
      </trkpt>
      <trkpt lat="45.93643" lon="1.29919">
        <ele>399.8</ele>
        <time>2024-11-10T14:12:22Z</time>
      </trkpt>
      <trkpt lat="45.93647" lon="1.29921">
        <ele>399.4</ele>
        <time>2024-11-10T14:12:23Z</time>
      </trkpt>
      <trkpt lat="45.93654" lon="1.29929">
        <ele>398.6</ele>
        <time>2024-11-10T14:12:24Z</time>
      </trkpt>
      <trkpt lat="45.93659" lon="1.29933">
        <ele>398</ele>
        <time>2024-11-10T14:12:25Z</time>
      </trkpt>
      <trkpt lat="45.93664" lon="1.29938">
        <ele>397.4</ele>
        <time>2024-11-10T14:12:26Z</time>
      </trkpt>
      <trkpt lat="45.93667" lon="1.29944">
        <ele>397</ele>
        <time>2024-11-10T14:12:27Z</time>
      </trkpt>
      <trkpt lat="45.93669" lon="1.29949">
        <ele>396.6</ele>
        <time>2024-11-10T14:12:28Z</time>
      </trkpt>
      <trkpt lat="45.9367" lon="1.29956">
        <ele>396.3</ele>
        <time>2024-11-10T14:12:29Z</time>
      </trkpt>
      <trkpt lat="45.9367" lon="1.29964">
        <ele>395.9</ele>
        <time>2024-11-10T14:12:30Z</time>
      </trkpt>
      <trkpt lat="45.9367" lon="1.29971">
        <ele>395.6</ele>
        <time>2024-11-10T14:12:31Z</time>
      </trkpt>
      <trkpt lat="45.9367" lon="1.29978">
        <ele>395.3</ele>
        <time>2024-11-10T14:12:32Z</time>
      </trkpt>
      <trkpt lat="45.9367" lon="1.29987">
        <ele>394.9</ele>
        <time>2024-11-10T14:12:33Z</time>
      </trkpt>
      <trkpt lat="45.9367" lon="1.29994">
        <ele>394.7</ele>
        <time>2024-11-10T14:12:34Z</time>
      </trkpt>
      <trkpt lat="45.93672" lon="1.30001">
        <ele>394.5</ele>
        <time>2024-11-10T14:12:35Z</time>
      </trkpt>
      <trkpt lat="45.93674" lon="1.30008">
        <ele>394.4</ele>
        <time>2024-11-10T14:12:36Z</time>
      </trkpt>
      <trkpt lat="45.93676" lon="1.30014">
        <ele>394.3</ele>
        <time>2024-11-10T14:12:37Z</time>
      </trkpt>
      <trkpt lat="45.93678" lon="1.30019">
        <ele>394.2</ele>
        <time>2024-11-10T14:12:38Z</time>
      </trkpt>
      <trkpt lat="45.93681" lon="1.30024">
        <ele>394.1</ele>
        <time>2024-11-10T14:12:39Z</time>
      </trkpt>
      <trkpt lat="45.93683" lon="1.30029">
        <ele>394</ele>
        <time>2024-11-10T14:12:40Z</time>
      </trkpt>
      <trkpt lat="45.93685" lon="1.30034">
        <ele>394</ele>
        <time>2024-11-10T14:12:41Z</time>
      </trkpt>
      <trkpt lat="45.93687" lon="1.30039">
        <ele>394</ele>
        <time>2024-11-10T14:12:42Z</time>
      </trkpt>
      <trkpt lat="45.93691" lon="1.30044">
        <ele>393.9</ele>
        <time>2024-11-10T14:12:44Z</time>
      </trkpt>
      <trkpt lat="45.93695" lon="1.30049">
        <ele>393.9</ele>
        <time>2024-11-10T14:12:45Z</time>
      </trkpt>
      <trkpt lat="45.93698" lon="1.30054">
        <ele>393.9</ele>
        <time>2024-11-10T14:12:46Z</time>
      </trkpt>
      <trkpt lat="45.93702" lon="1.30059">
        <ele>393.8</ele>
        <time>2024-11-10T14:12:47Z</time>
      </trkpt>
      <trkpt lat="45.93705" lon="1.30063">
        <ele>393.8</ele>
        <time>2024-11-10T14:12:48Z</time>
      </trkpt>
      <trkpt lat="45.93709" lon="1.30067">
        <ele>393.8</ele>
        <time>2024-11-10T14:12:49Z</time>
      </trkpt>
      <trkpt lat="45.93712" lon="1.30072">
        <ele>393.9</ele>
        <time>2024-11-10T14:12:50Z</time>
      </trkpt>
      <trkpt lat="45.93715" lon="1.30077">
        <ele>393.9</ele>
        <time>2024-11-10T14:12:51Z</time>
      </trkpt>
      <trkpt lat="45.93718" lon="1.30082">
        <ele>393.9</ele>
        <time>2024-11-10T14:12:52Z</time>
      </trkpt>
      <trkpt lat="45.93721" lon="1.30088">
        <ele>394</ele>
        <time>2024-11-10T14:12:53Z</time>
      </trkpt>
      <trkpt lat="45.93723" lon="1.30093">
        <ele>394</ele>
        <time>2024-11-10T14:12:54Z</time>
      </trkpt>
      <trkpt lat="45.93726" lon="1.30096">
        <ele>394.1</ele>
        <time>2024-11-10T14:12:55Z</time>
      </trkpt>
      <trkpt lat="45.9373" lon="1.30097">
        <ele>394</ele>
        <time>2024-11-10T14:12:57Z</time>
      </trkpt>
      <trkpt lat="45.93734" lon="1.30096">
        <ele>393.8</ele>
        <time>2024-11-10T14:12:59Z</time>
      </trkpt>
      <trkpt lat="45.93738" lon="1.30094">
        <ele>393.6</ele>
        <time>2024-11-10T14:13:00Z</time>
      </trkpt>
      <trkpt lat="45.9374" lon="1.30092">
        <ele>393.5</ele>
        <time>2024-11-10T14:13:01Z</time>
      </trkpt>
      <trkpt lat="45.93743" lon="1.30091">
        <ele>393.4</ele>
        <time>2024-11-10T14:13:02Z</time>
      </trkpt>
      <trkpt lat="45.93746" lon="1.30089">
        <ele>393.3</ele>
        <time>2024-11-10T14:13:03Z</time>
      </trkpt>
      <trkpt lat="45.93749" lon="1.30088">
        <ele>393.2</ele>
        <time>2024-11-10T14:13:04Z</time>
      </trkpt>
      <trkpt lat="45.93752" lon="1.30087">
        <ele>393.1</ele>
        <time>2024-11-10T14:13:05Z</time>
      </trkpt>
      <trkpt lat="45.93755" lon="1.30086">
        <ele>393</ele>
        <time>2024-11-10T14:13:06Z</time>
      </trkpt>
      <trkpt lat="45.93758" lon="1.30084">
        <ele>392.9</ele>
        <time>2024-11-10T14:13:07Z</time>
      </trkpt>
      <trkpt lat="45.93762" lon="1.30082">
        <ele>392.9</ele>
        <time>2024-11-10T14:13:09Z</time>
      </trkpt>
      <trkpt lat="45.93765" lon="1.3008">
        <ele>392.9</ele>
        <time>2024-11-10T14:13:10Z</time>
      </trkpt>
      <trkpt lat="45.93769" lon="1.30078">
        <ele>392.9</ele>
        <time>2024-11-10T14:13:12Z</time>
      </trkpt>
      <trkpt lat="45.93773" lon="1.30077">
        <ele>392.8</ele>
        <time>2024-11-10T14:13:14Z</time>
      </trkpt>
      <trkpt lat="45.93778" lon="1.30074">
        <ele>392.9</ele>
        <time>2024-11-10T14:13:16Z</time>
      </trkpt>
      <trkpt lat="45.93781" lon="1.30073">
        <ele>392.9</ele>
        <time>2024-11-10T14:13:17Z</time>
      </trkpt>
      <trkpt lat="45.93785" lon="1.30072">
        <ele>393</ele>
        <time>2024-11-10T14:13:18Z</time>
      </trkpt>
      <trkpt lat="45.93788" lon="1.3007">
        <ele>393</ele>
        <time>2024-11-10T14:13:19Z</time>
      </trkpt>
      <trkpt lat="45.93791" lon="1.30069">
        <ele>393.1</ele>
        <time>2024-11-10T14:13:20Z</time>
      </trkpt>
      <trkpt lat="45.93794" lon="1.30067">
        <ele>393.1</ele>
        <time>2024-11-10T14:13:21Z</time>
      </trkpt>
      <trkpt lat="45.93797" lon="1.30066">
        <ele>393.2</ele>
        <time>2024-11-10T14:13:22Z</time>
      </trkpt>
      <trkpt lat="45.938" lon="1.30065">
        <ele>393.3</ele>
        <time>2024-11-10T14:13:23Z</time>
      </trkpt>
      <trkpt lat="45.93803" lon="1.30064">
        <ele>393.4</ele>
        <time>2024-11-10T14:13:24Z</time>
      </trkpt>
      <trkpt lat="45.93806" lon="1.30063">
        <ele>393.5</ele>
        <time>2024-11-10T14:13:25Z</time>
      </trkpt>
      <trkpt lat="45.93809" lon="1.30061">
        <ele>393.6</ele>
        <time>2024-11-10T14:13:26Z</time>
      </trkpt>
      <trkpt lat="45.93812" lon="1.3006">
        <ele>393.7</ele>
        <time>2024-11-10T14:13:27Z</time>
      </trkpt>
      <trkpt lat="45.93816" lon="1.30058">
        <ele>393.9</ele>
        <time>2024-11-10T14:13:29Z</time>
      </trkpt>
      <trkpt lat="45.9382" lon="1.30056">
        <ele>394.1</ele>
        <time>2024-11-10T14:13:31Z</time>
      </trkpt>
      <trkpt lat="45.93825" lon="1.30054">
        <ele>394.4</ele>
        <time>2024-11-10T14:13:33Z</time>
      </trkpt>
      <trkpt lat="45.93829" lon="1.30052">
        <ele>394.6</ele>
        <time>2024-11-10T14:13:34Z</time>
      </trkpt>
      <trkpt lat="45.93832" lon="1.30051">
        <ele>394.8</ele>
        <time>2024-11-10T14:13:35Z</time>
      </trkpt>
      <trkpt lat="45.93836" lon="1.30049">
        <ele>395</ele>
        <time>2024-11-10T14:13:37Z</time>
      </trkpt>
      <trkpt lat="45.9384" lon="1.30048">
        <ele>395.2</ele>
        <time>2024-11-10T14:13:39Z</time>
      </trkpt>
      <trkpt lat="45.93843" lon="1.30047">
        <ele>395.4</ele>
        <time>2024-11-10T14:13:41Z</time>
      </trkpt>
      <trkpt lat="45.93847" lon="1.30048">
        <ele>395.7</ele>
        <time>2024-11-10T14:13:44Z</time>
      </trkpt>
      <trkpt lat="45.93847" lon="1.3005">
        <ele>395.8</ele>
        <time>2024-11-10T14:14:35Z</time>
      </trkpt>
      <trkpt lat="45.93849" lon="1.30051">
        <ele>395.9</ele>
        <time>2024-11-10T14:15:02Z</time>
      </trkpt>
      <trkpt lat="45.93852" lon="1.3005">
        <ele>396</ele>
        <time>2024-11-10T14:17:23Z</time>
      </trkpt>
      <trkpt lat="45.93855" lon="1.30049">
        <ele>396.2</ele>
        <time>2024-11-10T14:17:25Z</time>
      </trkpt>
      <trkpt lat="45.93859" lon="1.30047">
        <ele>396.4</ele>
        <time>2024-11-10T14:17:27Z</time>
      </trkpt>
      <trkpt lat="45.93863" lon="1.30045">
        <ele>396.6</ele>
        <time>2024-11-10T14:17:29Z</time>
      </trkpt>
      <trkpt lat="45.93868" lon="1.30043">
        <ele>396.8</ele>
        <time>2024-11-10T14:17:31Z</time>
      </trkpt>
      <trkpt lat="45.93873" lon="1.30041">
        <ele>397.1</ele>
        <time>2024-11-10T14:17:33Z</time>
      </trkpt>
      <trkpt lat="45.93877" lon="1.30038">
        <ele>397.4</ele>
        <time>2024-11-10T14:17:35Z</time>
      </trkpt>
      <trkpt lat="45.93882" lon="1.30037">
        <ele>397.7</ele>
        <time>2024-11-10T14:17:37Z</time>
      </trkpt>
      <trkpt lat="45.93886" lon="1.30035">
        <ele>398</ele>
        <time>2024-11-10T14:17:39Z</time>
      </trkpt>
      <trkpt lat="45.9389" lon="1.30034">
        <ele>398.3</ele>
        <time>2024-11-10T14:17:41Z</time>
      </trkpt>
      <trkpt lat="45.93894" lon="1.30032">
        <ele>398.6</ele>
        <time>2024-11-10T14:17:43Z</time>
      </trkpt>
      <trkpt lat="45.93898" lon="1.3003">
        <ele>399</ele>
        <time>2024-11-10T14:17:45Z</time>
      </trkpt>
      <trkpt lat="45.93902" lon="1.30028">
        <ele>399.3</ele>
        <time>2024-11-10T14:17:47Z</time>
      </trkpt>
      <trkpt lat="45.93906" lon="1.30026">
        <ele>399.9</ele>
        <time>2024-11-10T14:17:49Z</time>
      </trkpt>
      <trkpt lat="45.9391" lon="1.30024">
        <ele>400.4</ele>
        <time>2024-11-10T14:17:51Z</time>
      </trkpt>
      <trkpt lat="45.93913" lon="1.30023">
        <ele>400.8</ele>
        <time>2024-11-10T14:17:53Z</time>
      </trkpt>
      <trkpt lat="45.93917" lon="1.30021">
        <ele>401.4</ele>
        <time>2024-11-10T14:17:55Z</time>
      </trkpt>
      <trkpt lat="45.9392" lon="1.30019">
        <ele>401.9</ele>
        <time>2024-11-10T14:17:57Z</time>
      </trkpt>
      <trkpt lat="45.93924" lon="1.30018">
        <ele>402.5</ele>
        <time>2024-11-10T14:17:59Z</time>
      </trkpt>
      <trkpt lat="45.93927" lon="1.30016">
        <ele>403.1</ele>
        <time>2024-11-10T14:18:01Z</time>
      </trkpt>
      <trkpt lat="45.9393" lon="1.30015">
        <ele>403.6</ele>
        <time>2024-11-10T14:18:03Z</time>
      </trkpt>
      <trkpt lat="45.93933" lon="1.30013">
        <ele>404.2</ele>
        <time>2024-11-10T14:18:05Z</time>
      </trkpt>
      <trkpt lat="45.93936" lon="1.30011">
        <ele>404.8</ele>
        <time>2024-11-10T14:18:07Z</time>
      </trkpt>
      <trkpt lat="45.93939" lon="1.30009">
        <ele>405.4</ele>
        <time>2024-11-10T14:18:09Z</time>
      </trkpt>
      <trkpt lat="45.93942" lon="1.30006">
        <ele>405.8</ele>
        <time>2024-11-10T14:18:11Z</time>
      </trkpt>
      <trkpt lat="45.93944" lon="1.30003">
        <ele>406</ele>
        <time>2024-11-10T14:18:13Z</time>
      </trkpt>
      <trkpt lat="45.93945" lon="1.29998">
        <ele>406.2</ele>
        <time>2024-11-10T14:18:15Z</time>
      </trkpt>
      <trkpt lat="45.93946" lon="1.29993">
        <ele>406.4</ele>
        <time>2024-11-10T14:18:17Z</time>
      </trkpt>
      <trkpt lat="45.93947" lon="1.29988">
        <ele>406.6</ele>
        <time>2024-11-10T14:18:19Z</time>
      </trkpt>
      <trkpt lat="45.93948" lon="1.29982">
        <ele>406.8</ele>
        <time>2024-11-10T14:18:21Z</time>
      </trkpt>
      <trkpt lat="45.93949" lon="1.29976">
        <ele>407</ele>
        <time>2024-11-10T14:18:23Z</time>
      </trkpt>
      <trkpt lat="45.9395" lon="1.2997">
        <ele>407.3</ele>
        <time>2024-11-10T14:18:25Z</time>
      </trkpt>
      <trkpt lat="45.93951" lon="1.29964">
        <ele>407.5</ele>
        <time>2024-11-10T14:18:27Z</time>
      </trkpt>
      <trkpt lat="45.93952" lon="1.2996">
        <ele>407.7</ele>
        <time>2024-11-10T14:18:29Z</time>
      </trkpt>
      <trkpt lat="45.93953" lon="1.29955">
        <ele>407.9</ele>
        <time>2024-11-10T14:18:31Z</time>
      </trkpt>
      <trkpt lat="45.93954" lon="1.29951">
        <ele>408.1</ele>
        <time>2024-11-10T14:18:33Z</time>
      </trkpt>
      <trkpt lat="45.93955" lon="1.29947">
        <ele>408.2</ele>
        <time>2024-11-10T14:18:35Z</time>
      </trkpt>
      <trkpt lat="45.93957" lon="1.29942">
        <ele>408.5</ele>
        <time>2024-11-10T14:18:37Z</time>
      </trkpt>
      <trkpt lat="45.93958" lon="1.29936">
        <ele>408.8</ele>
        <time>2024-11-10T14:18:39Z</time>
      </trkpt>
      <trkpt lat="45.9396" lon="1.29931">
        <ele>409</ele>
        <time>2024-11-10T14:18:41Z</time>
      </trkpt>
      <trkpt lat="45.93962" lon="1.29925">
        <ele>409.2</ele>
        <time>2024-11-10T14:18:43Z</time>
      </trkpt>
      <trkpt lat="45.93964" lon="1.29919">
        <ele>409.4</ele>
        <time>2024-11-10T14:18:45Z</time>
      </trkpt>
      <trkpt lat="45.93967" lon="1.29913">
        <ele>409.6</ele>
        <time>2024-11-10T14:18:47Z</time>
      </trkpt>
      <trkpt lat="45.93969" lon="1.29907">
        <ele>409.7</ele>
        <time>2024-11-10T14:18:49Z</time>
      </trkpt>
      <trkpt lat="45.93972" lon="1.29901">
        <ele>409.7</ele>
        <time>2024-11-10T14:18:51Z</time>
      </trkpt>
      <trkpt lat="45.93974" lon="1.29896">
        <ele>409.6</ele>
        <time>2024-11-10T14:18:53Z</time>
      </trkpt>
      <trkpt lat="45.93977" lon="1.29891">
        <ele>409.5</ele>
        <time>2024-11-10T14:18:55Z</time>
      </trkpt>
      <trkpt lat="45.93978" lon="1.29887">
        <ele>409.4</ele>
        <time>2024-11-10T14:18:57Z</time>
      </trkpt>
      <trkpt lat="45.93979" lon="1.29882">
        <ele>409.3</ele>
        <time>2024-11-10T14:18:59Z</time>
      </trkpt>
      <trkpt lat="45.93981" lon="1.29877">
        <ele>409.1</ele>
        <time>2024-11-10T14:19:01Z</time>
      </trkpt>
      <trkpt lat="45.93983" lon="1.29874">
        <ele>409</ele>
        <time>2024-11-10T14:19:02Z</time>
      </trkpt>
      <trkpt lat="45.93984" lon="1.2987">
        <ele>408.9</ele>
        <time>2024-11-10T14:19:03Z</time>
      </trkpt>
      <trkpt lat="45.93986" lon="1.29867">
        <ele>408.8</ele>
        <time>2024-11-10T14:19:04Z</time>
      </trkpt>
      <trkpt lat="45.93988" lon="1.29863">
        <ele>408.7</ele>
        <time>2024-11-10T14:19:05Z</time>
      </trkpt>
      <trkpt lat="45.93991" lon="1.29858">
        <ele>408.6</ele>
        <time>2024-11-10T14:19:07Z</time>
      </trkpt>
      <trkpt lat="45.93993" lon="1.29854">
        <ele>408.5</ele>
        <time>2024-11-10T14:19:09Z</time>
      </trkpt>
      <trkpt lat="45.93996" lon="1.2985">
        <ele>408.3</ele>
        <time>2024-11-10T14:19:12Z</time>
      </trkpt>
      <trkpt lat="45.93998" lon="1.29845">
        <ele>408.2</ele>
        <time>2024-11-10T14:19:14Z</time>
      </trkpt>
      <trkpt lat="45.94" lon="1.29839">
        <ele>408.1</ele>
        <time>2024-11-10T14:19:16Z</time>
      </trkpt>
      <trkpt lat="45.94002" lon="1.29834">
        <ele>407.9</ele>
        <time>2024-11-10T14:19:17Z</time>
      </trkpt>
      <trkpt lat="45.94004" lon="1.2983">
        <ele>407.8</ele>
        <time>2024-11-10T14:19:18Z</time>
      </trkpt>
      <trkpt lat="45.94005" lon="1.29825">
        <ele>407.6</ele>
        <time>2024-11-10T14:19:19Z</time>
      </trkpt>
      <trkpt lat="45.94007" lon="1.29821">
        <ele>407.4</ele>
        <time>2024-11-10T14:19:20Z</time>
      </trkpt>
      <trkpt lat="45.94009" lon="1.29818">
        <ele>407.2</ele>
        <time>2024-11-10T14:19:21Z</time>
      </trkpt>
      <trkpt lat="45.94012" lon="1.29816">
        <ele>407</ele>
        <time>2024-11-10T14:19:22Z</time>
      </trkpt>
      <trkpt lat="45.94014" lon="1.29812">
        <ele>406.8</ele>
        <time>2024-11-10T14:19:23Z</time>
      </trkpt>
      <trkpt lat="45.94016" lon="1.29809">
        <ele>406.5</ele>
        <time>2024-11-10T14:19:24Z</time>
      </trkpt>
      <trkpt lat="45.94018" lon="1.29805">
        <ele>406.2</ele>
        <time>2024-11-10T14:19:25Z</time>
      </trkpt>
      <trkpt lat="45.94023" lon="1.29798">
        <ele>405.5</ele>
        <time>2024-11-10T14:19:26Z</time>
      </trkpt>
      <trkpt lat="45.94028" lon="1.29793">
        <ele>404.8</ele>
        <time>2024-11-10T14:19:27Z</time>
      </trkpt>
      <trkpt lat="45.94034" lon="1.29788">
        <ele>404.1</ele>
        <time>2024-11-10T14:19:28Z</time>
      </trkpt>
      <trkpt lat="45.9404" lon="1.29782">
        <ele>403.4</ele>
        <time>2024-11-10T14:19:29Z</time>
      </trkpt>
      <trkpt lat="45.94045" lon="1.29776">
        <ele>402.8</ele>
        <time>2024-11-10T14:19:31Z</time>
      </trkpt>
      <trkpt lat="45.94049" lon="1.29772">
        <ele>402.3</ele>
        <time>2024-11-10T14:19:32Z</time>
      </trkpt>
      <trkpt lat="45.94052" lon="1.29768">
        <ele>401.9</ele>
        <time>2024-11-10T14:19:33Z</time>
      </trkpt>
      <trkpt lat="45.94055" lon="1.29764">
        <ele>401.5</ele>
        <time>2024-11-10T14:19:34Z</time>
      </trkpt>
      <trkpt lat="45.94057" lon="1.29761">
        <ele>401.2</ele>
        <time>2024-11-10T14:19:35Z</time>
      </trkpt>
      <trkpt lat="45.9406" lon="1.29759">
        <ele>400.8</ele>
        <time>2024-11-10T14:19:36Z</time>
      </trkpt>
      <trkpt lat="45.94063" lon="1.29756">
        <ele>400.4</ele>
        <time>2024-11-10T14:19:37Z</time>
      </trkpt>
      <trkpt lat="45.94065" lon="1.29753">
        <ele>400</ele>
        <time>2024-11-10T14:19:38Z</time>
      </trkpt>
      <trkpt lat="45.94067" lon="1.29747">
        <ele>399.4</ele>
        <time>2024-11-10T14:19:40Z</time>
      </trkpt>
      <trkpt lat="45.94069" lon="1.29742">
        <ele>398.9</ele>
        <time>2024-11-10T14:19:41Z</time>
      </trkpt>
      <trkpt lat="45.94071" lon="1.29737">
        <ele>398.3</ele>
        <time>2024-11-10T14:19:42Z</time>
      </trkpt>
      <trkpt lat="45.94073" lon="1.29733">
        <ele>397.8</ele>
        <time>2024-11-10T14:19:43Z</time>
      </trkpt>
      <trkpt lat="45.94074" lon="1.29729">
        <ele>397.4</ele>
        <time>2024-11-10T14:19:44Z</time>
      </trkpt>
      <trkpt lat="45.94076" lon="1.29722">
        <ele>396.6</ele>
        <time>2024-11-10T14:19:46Z</time>
      </trkpt>
      <trkpt lat="45.94077" lon="1.29718">
        <ele>396.1</ele>
        <time>2024-11-10T14:19:47Z</time>
      </trkpt>
      <trkpt lat="45.94079" lon="1.29714">
        <ele>395.6</ele>
        <time>2024-11-10T14:19:48Z</time>
      </trkpt>
      <trkpt lat="45.94082" lon="1.29711">
        <ele>395</ele>
        <time>2024-11-10T14:19:49Z</time>
      </trkpt>
      <trkpt lat="45.94085" lon="1.29709">
        <ele>394.4</ele>
        <time>2024-11-10T14:19:50Z</time>
      </trkpt>
      <trkpt lat="45.94088" lon="1.29707">
        <ele>393.9</ele>
        <time>2024-11-10T14:19:51Z</time>
      </trkpt>
      <trkpt lat="45.94091" lon="1.29705">
        <ele>393.3</ele>
        <time>2024-11-10T14:19:52Z</time>
      </trkpt>
      <trkpt lat="45.94094" lon="1.29703">
        <ele>392.8</ele>
        <time>2024-11-10T14:19:53Z</time>
      </trkpt>
      <trkpt lat="45.94097" lon="1.29701">
        <ele>392.2</ele>
        <time>2024-11-10T14:19:55Z</time>
      </trkpt>
      <trkpt lat="45.941" lon="1.29698">
        <ele>391.5</ele>
        <time>2024-11-10T14:19:57Z</time>
      </trkpt>
      <trkpt lat="45.94103" lon="1.29696">
        <ele>390.8</ele>
        <time>2024-11-10T14:19:59Z</time>
      </trkpt>
      <trkpt lat="45.94106" lon="1.29693">
        <ele>390</ele>
        <time>2024-11-10T14:20:01Z</time>
      </trkpt>
      <trkpt lat="45.94108" lon="1.29691">
        <ele>389.5</ele>
        <time>2024-11-10T14:20:03Z</time>
      </trkpt>
      <trkpt lat="45.94112" lon="1.29689">
        <ele>388.5</ele>
        <time>2024-11-10T14:20:05Z</time>
      </trkpt>
      <trkpt lat="45.94116" lon="1.2969">
        <ele>387.6</ele>
        <time>2024-11-10T14:20:07Z</time>
      </trkpt>
      <trkpt lat="45.9412" lon="1.2969">
        <ele>386.7</ele>
        <time>2024-11-10T14:20:08Z</time>
      </trkpt>
      <trkpt lat="45.94123" lon="1.29692">
        <ele>385.9</ele>
        <time>2024-11-10T14:20:09Z</time>
      </trkpt>
      <trkpt lat="45.94126" lon="1.29694">
        <ele>385.5</ele>
        <time>2024-11-10T14:20:10Z</time>
      </trkpt>
      <trkpt lat="45.9413" lon="1.29697">
        <ele>385</ele>
        <time>2024-11-10T14:20:11Z</time>
      </trkpt>
      <trkpt lat="45.94132" lon="1.29701">
        <ele>384.7</ele>
        <time>2024-11-10T14:20:12Z</time>
      </trkpt>
      <trkpt lat="45.94135" lon="1.29705">
        <ele>384.4</ele>
        <time>2024-11-10T14:20:13Z</time>
      </trkpt>
      <trkpt lat="45.94135" lon="1.2971">
        <ele>384.2</ele>
        <time>2024-11-10T14:20:14Z</time>
      </trkpt>
      <trkpt lat="45.94135" lon="1.29716">
        <ele>384</ele>
        <time>2024-11-10T14:20:15Z</time>
      </trkpt>
      <trkpt lat="45.94135" lon="1.29722">
        <ele>383.9</ele>
        <time>2024-11-10T14:20:16Z</time>
      </trkpt>
      <trkpt lat="45.94135" lon="1.29728">
        <ele>383.7</ele>
        <time>2024-11-10T14:20:17Z</time>
      </trkpt>
      <trkpt lat="45.94134" lon="1.29734">
        <ele>383.6</ele>
        <time>2024-11-10T14:20:18Z</time>
      </trkpt>
      <trkpt lat="45.94134" lon="1.29741">
        <ele>383.4</ele>
        <time>2024-11-10T14:20:19Z</time>
      </trkpt>
      <trkpt lat="45.94134" lon="1.29748">
        <ele>383.3</ele>
        <time>2024-11-10T14:20:20Z</time>
      </trkpt>
      <trkpt lat="45.94133" lon="1.29754">
        <ele>383.3</ele>
        <time>2024-11-10T14:20:21Z</time>
      </trkpt>
      <trkpt lat="45.94132" lon="1.29761">
        <ele>383.2</ele>
        <time>2024-11-10T14:20:23Z</time>
      </trkpt>
      <trkpt lat="45.94131" lon="1.29768">
        <ele>383.2</ele>
        <time>2024-11-10T14:20:24Z</time>
      </trkpt>
      <trkpt lat="45.94132" lon="1.29774">
        <ele>383.2</ele>
        <time>2024-11-10T14:20:25Z</time>
      </trkpt>
      <trkpt lat="45.94132" lon="1.2978">
        <ele>383.3</ele>
        <time>2024-11-10T14:20:26Z</time>
      </trkpt>
      <trkpt lat="45.94133" lon="1.29786">
        <ele>383.4</ele>
        <time>2024-11-10T14:20:27Z</time>
      </trkpt>
      <trkpt lat="45.94133" lon="1.29792">
        <ele>383.5</ele>
        <time>2024-11-10T14:20:29Z</time>
      </trkpt>
      <trkpt lat="45.94133" lon="1.29798">
        <ele>383.7</ele>
        <time>2024-11-10T14:20:30Z</time>
      </trkpt>
      <trkpt lat="45.94134" lon="1.29803">
        <ele>383.9</ele>
        <time>2024-11-10T14:20:31Z</time>
      </trkpt>
      <trkpt lat="45.94135" lon="1.29809">
        <ele>384.2</ele>
        <time>2024-11-10T14:20:32Z</time>
      </trkpt>
      <trkpt lat="45.94136" lon="1.29815">
        <ele>384.5</ele>
        <time>2024-11-10T14:20:33Z</time>
      </trkpt>
      <trkpt lat="45.94138" lon="1.29821">
        <ele>384.8</ele>
        <time>2024-11-10T14:20:34Z</time>
      </trkpt>
      <trkpt lat="45.94139" lon="1.29826">
        <ele>385.1</ele>
        <time>2024-11-10T14:20:35Z</time>
      </trkpt>
      <trkpt lat="45.9414" lon="1.29831">
        <ele>385.4</ele>
        <time>2024-11-10T14:20:36Z</time>
      </trkpt>
      <trkpt lat="45.94141" lon="1.29836">
        <ele>385.7</ele>
        <time>2024-11-10T14:20:37Z</time>
      </trkpt>
      <trkpt lat="45.94142" lon="1.2984">
        <ele>386</ele>
        <time>2024-11-10T14:20:38Z</time>
      </trkpt>
      <trkpt lat="45.94142" lon="1.29845">
        <ele>386.3</ele>
        <time>2024-11-10T14:20:40Z</time>
      </trkpt>
      <trkpt lat="45.94143" lon="1.29849">
        <ele>386.6</ele>
        <time>2024-11-10T14:20:41Z</time>
      </trkpt>
      <trkpt lat="45.94143" lon="1.29855">
        <ele>387</ele>
        <time>2024-11-10T14:20:43Z</time>
      </trkpt>
      <trkpt lat="45.94144" lon="1.29862">
        <ele>387.4</ele>
        <time>2024-11-10T14:20:44Z</time>
      </trkpt>
      <trkpt lat="45.94145" lon="1.29868">
        <ele>387.8</ele>
        <time>2024-11-10T14:20:45Z</time>
      </trkpt>
      <trkpt lat="45.94146" lon="1.29873">
        <ele>388.1</ele>
        <time>2024-11-10T14:20:46Z</time>
      </trkpt>
      <trkpt lat="45.94146" lon="1.29879">
        <ele>388.5</ele>
        <time>2024-11-10T14:20:47Z</time>
      </trkpt>
      <trkpt lat="45.94147" lon="1.29885">
        <ele>388.8</ele>
        <time>2024-11-10T14:20:48Z</time>
      </trkpt>
      <trkpt lat="45.94147" lon="1.2989">
        <ele>389</ele>
        <time>2024-11-10T14:20:49Z</time>
      </trkpt>
      <trkpt lat="45.94147" lon="1.29896">
        <ele>389.3</ele>
        <time>2024-11-10T14:20:51Z</time>
      </trkpt>
      <trkpt lat="45.94147" lon="1.29902">
        <ele>389.6</ele>
        <time>2024-11-10T14:20:53Z</time>
      </trkpt>
      <trkpt lat="45.94147" lon="1.29909">
        <ele>389.8</ele>
        <time>2024-11-10T14:20:55Z</time>
      </trkpt>
      <trkpt lat="45.94146" lon="1.29916">
        <ele>390</ele>
        <time>2024-11-10T14:20:57Z</time>
      </trkpt>
      <trkpt lat="45.94146" lon="1.29923">
        <ele>390.1</ele>
        <time>2024-11-10T14:20:59Z</time>
      </trkpt>
      <trkpt lat="45.94146" lon="1.29929">
        <ele>390.1</ele>
        <time>2024-11-10T14:21:00Z</time>
      </trkpt>
      <trkpt lat="45.94146" lon="1.29935">
        <ele>390</ele>
        <time>2024-11-10T14:21:01Z</time>
      </trkpt>
      <trkpt lat="45.94146" lon="1.29942">
        <ele>389.8</ele>
        <time>2024-11-10T14:21:02Z</time>
      </trkpt>
      <trkpt lat="45.94146" lon="1.2995">
        <ele>389.6</ele>
        <time>2024-11-10T14:21:03Z</time>
      </trkpt>
      <trkpt lat="45.94145" lon="1.29957">
        <ele>389.3</ele>
        <time>2024-11-10T14:21:04Z</time>
      </trkpt>
      <trkpt lat="45.94144" lon="1.29963">
        <ele>389</ele>
        <time>2024-11-10T14:21:05Z</time>
      </trkpt>
      <trkpt lat="45.94143" lon="1.29973">
        <ele>388.6</ele>
        <time>2024-11-10T14:21:06Z</time>
      </trkpt>
      <trkpt lat="45.94142" lon="1.2998">
        <ele>388.4</ele>
        <time>2024-11-10T14:21:07Z</time>
      </trkpt>
      <trkpt lat="45.94141" lon="1.29986">
        <ele>388.1</ele>
        <time>2024-11-10T14:21:08Z</time>
      </trkpt>
      <trkpt lat="45.94139" lon="1.29993">
        <ele>387.9</ele>
        <time>2024-11-10T14:21:09Z</time>
      </trkpt>
      <trkpt lat="45.94138" lon="1.30001">
        <ele>387.6</ele>
        <time>2024-11-10T14:21:10Z</time>
      </trkpt>
      <trkpt lat="45.94137" lon="1.30009">
        <ele>387.4</ele>
        <time>2024-11-10T14:21:11Z</time>
      </trkpt>
      <trkpt lat="45.94137" lon="1.30016">
        <ele>387.2</ele>
        <time>2024-11-10T14:21:12Z</time>
      </trkpt>
      <trkpt lat="45.94136" lon="1.30023">
        <ele>387</ele>
        <time>2024-11-10T14:21:13Z</time>
      </trkpt>
      <trkpt lat="45.94138" lon="1.3003">
        <ele>386.8</ele>
        <time>2024-11-10T14:21:14Z</time>
      </trkpt>
      <trkpt lat="45.94138" lon="1.30035">
        <ele>386.6</ele>
        <time>2024-11-10T14:21:15Z</time>
      </trkpt>
      <trkpt lat="45.94139" lon="1.30039">
        <ele>386.5</ele>
        <time>2024-11-10T14:21:16Z</time>
      </trkpt>
      <trkpt lat="45.94141" lon="1.30045">
        <ele>386.4</ele>
        <time>2024-11-10T14:21:18Z</time>
      </trkpt>
      <trkpt lat="45.94143" lon="1.3005">
        <ele>386.2</ele>
        <time>2024-11-10T14:21:19Z</time>
      </trkpt>
      <trkpt lat="45.94145" lon="1.30054">
        <ele>386.1</ele>
        <time>2024-11-10T14:21:20Z</time>
      </trkpt>
      <trkpt lat="45.94146" lon="1.30059">
        <ele>386</ele>
        <time>2024-11-10T14:21:21Z</time>
      </trkpt>
      <trkpt lat="45.94146" lon="1.30063">
        <ele>385.9</ele>
        <time>2024-11-10T14:21:22Z</time>
      </trkpt>
      <trkpt lat="45.94148" lon="1.30069">
        <ele>385.8</ele>
        <time>2024-11-10T14:21:24Z</time>
      </trkpt>
      <trkpt lat="45.94149" lon="1.30074">
        <ele>385.7</ele>
        <time>2024-11-10T14:21:25Z</time>
      </trkpt>
      <trkpt lat="45.94151" lon="1.30079">
        <ele>385.5</ele>
        <time>2024-11-10T14:21:26Z</time>
      </trkpt>
      <trkpt lat="45.94152" lon="1.30083">
        <ele>385.4</ele>
        <time>2024-11-10T14:21:27Z</time>
      </trkpt>
      <trkpt lat="45.94153" lon="1.30088">
        <ele>385.3</ele>
        <time>2024-11-10T14:21:28Z</time>
      </trkpt>
      <trkpt lat="45.94154" lon="1.30093">
        <ele>385.2</ele>
        <time>2024-11-10T14:21:29Z</time>
      </trkpt>
      <trkpt lat="45.94155" lon="1.30098">
        <ele>385.1</ele>
        <time>2024-11-10T14:21:30Z</time>
      </trkpt>
      <trkpt lat="45.94156" lon="1.30104">
        <ele>384.9</ele>
        <time>2024-11-10T14:21:31Z</time>
      </trkpt>
      <trkpt lat="45.94157" lon="1.30109">
        <ele>384.8</ele>
        <time>2024-11-10T14:21:32Z</time>
      </trkpt>
      <trkpt lat="45.94158" lon="1.30113">
        <ele>384.8</ele>
        <time>2024-11-10T14:21:33Z</time>
      </trkpt>
      <trkpt lat="45.9416" lon="1.30119">
        <ele>384.7</ele>
        <time>2024-11-10T14:21:35Z</time>
      </trkpt>
      <trkpt lat="45.9416" lon="1.30124">
        <ele>384.6</ele>
        <time>2024-11-10T14:21:36Z</time>
      </trkpt>
      <trkpt lat="45.94161" lon="1.30129">
        <ele>384.5</ele>
        <time>2024-11-10T14:21:37Z</time>
      </trkpt>
      <trkpt lat="45.94162" lon="1.30134">
        <ele>384.4</ele>
        <time>2024-11-10T14:21:38Z</time>
      </trkpt>
      <trkpt lat="45.94162" lon="1.30139">
        <ele>384.3</ele>
        <time>2024-11-10T14:21:39Z</time>
      </trkpt>
      <trkpt lat="45.94163" lon="1.30145">
        <ele>384.3</ele>
        <time>2024-11-10T14:21:41Z</time>
      </trkpt>
      <trkpt lat="45.94163" lon="1.30151">
        <ele>384.2</ele>
        <time>2024-11-10T14:21:42Z</time>
      </trkpt>
      <trkpt lat="45.94164" lon="1.30158">
        <ele>384.1</ele>
        <time>2024-11-10T14:21:43Z</time>
      </trkpt>
      <trkpt lat="45.94164" lon="1.30166">
        <ele>383.9</ele>
        <time>2024-11-10T14:21:44Z</time>
      </trkpt>
      <trkpt lat="45.94164" lon="1.30173">
        <ele>383.8</ele>
        <time>2024-11-10T14:21:45Z</time>
      </trkpt>
      <trkpt lat="45.94164" lon="1.3018">
        <ele>383.7</ele>
        <time>2024-11-10T14:21:46Z</time>
      </trkpt>
      <trkpt lat="45.94163" lon="1.30187">
        <ele>383.6</ele>
        <time>2024-11-10T14:21:47Z</time>
      </trkpt>
      <trkpt lat="45.94162" lon="1.30193">
        <ele>383.5</ele>
        <time>2024-11-10T14:21:48Z</time>
      </trkpt>
      <trkpt lat="45.94162" lon="1.30198">
        <ele>383.5</ele>
        <time>2024-11-10T14:21:49Z</time>
      </trkpt>
      <trkpt lat="45.94162" lon="1.30204">
        <ele>383.4</ele>
        <time>2024-11-10T14:21:50Z</time>
      </trkpt>
      <trkpt lat="45.94162" lon="1.30209">
        <ele>383.4</ele>
        <time>2024-11-10T14:21:51Z</time>
      </trkpt>
      <trkpt lat="45.94162" lon="1.30214">
        <ele>383.3</ele>
        <time>2024-11-10T14:21:52Z</time>
      </trkpt>
      <trkpt lat="45.94162" lon="1.3022">
        <ele>383.3</ele>
        <time>2024-11-10T14:21:53Z</time>
      </trkpt>
      <trkpt lat="45.94163" lon="1.30226">
        <ele>383.2</ele>
        <time>2024-11-10T14:21:54Z</time>
      </trkpt>
      <trkpt lat="45.94163" lon="1.30232">
        <ele>383.2</ele>
        <time>2024-11-10T14:21:55Z</time>
      </trkpt>
      <trkpt lat="45.94164" lon="1.30238">
        <ele>383.2</ele>
        <time>2024-11-10T14:21:56Z</time>
      </trkpt>
      <trkpt lat="45.94165" lon="1.30244">
        <ele>383.2</ele>
        <time>2024-11-10T14:21:57Z</time>
      </trkpt>
      <trkpt lat="45.94166" lon="1.30253">
        <ele>383.2</ele>
        <time>2024-11-10T14:21:58Z</time>
      </trkpt>
      <trkpt lat="45.94167" lon="1.30259">
        <ele>383.2</ele>
        <time>2024-11-10T14:21:59Z</time>
      </trkpt>
      <trkpt lat="45.94168" lon="1.30266">
        <ele>383.3</ele>
        <time>2024-11-10T14:22:00Z</time>
      </trkpt>
      <trkpt lat="45.94169" lon="1.30272">
        <ele>383.3</ele>
        <time>2024-11-10T14:22:01Z</time>
      </trkpt>
      <trkpt lat="45.9417" lon="1.3028">
        <ele>383.3</ele>
        <time>2024-11-10T14:22:03Z</time>
      </trkpt>
      <trkpt lat="45.94171" lon="1.30286">
        <ele>383.3</ele>
        <time>2024-11-10T14:22:04Z</time>
      </trkpt>
      <trkpt lat="45.94172" lon="1.30292">
        <ele>383.3</ele>
        <time>2024-11-10T14:22:05Z</time>
      </trkpt>
      <trkpt lat="45.94173" lon="1.30298">
        <ele>383.2</ele>
        <time>2024-11-10T14:22:06Z</time>
      </trkpt>
      <trkpt lat="45.94174" lon="1.30304">
        <ele>383.2</ele>
        <time>2024-11-10T14:22:07Z</time>
      </trkpt>
      <trkpt lat="45.94175" lon="1.3031">
        <ele>383.2</ele>
        <time>2024-11-10T14:22:08Z</time>
      </trkpt>
      <trkpt lat="45.94176" lon="1.30316">
        <ele>383.2</ele>
        <time>2024-11-10T14:22:09Z</time>
      </trkpt>
      <trkpt lat="45.94177" lon="1.30322">
        <ele>383.2</ele>
        <time>2024-11-10T14:22:10Z</time>
      </trkpt>
      <trkpt lat="45.94179" lon="1.30328">
        <ele>383.2</ele>
        <time>2024-11-10T14:22:11Z</time>
      </trkpt>
      <trkpt lat="45.94181" lon="1.30332">
        <ele>383.4</ele>
        <time>2024-11-10T14:22:13Z</time>
      </trkpt>
      <trkpt lat="45.94184" lon="1.30334">
        <ele>383.4</ele>
        <time>2024-11-10T14:22:14Z</time>
      </trkpt>
      <trkpt lat="45.94187" lon="1.30334">
        <ele>383.4</ele>
        <time>2024-11-10T14:22:15Z</time>
      </trkpt>
      <trkpt lat="45.9419" lon="1.30333">
        <ele>383.4</ele>
        <time>2024-11-10T14:22:16Z</time>
      </trkpt>
      <trkpt lat="45.94193" lon="1.3033">
        <ele>383.1</ele>
        <time>2024-11-10T14:22:17Z</time>
      </trkpt>
      <trkpt lat="45.94196" lon="1.30326">
        <ele>383</ele>
        <time>2024-11-10T14:22:18Z</time>
      </trkpt>
      <trkpt lat="45.94198" lon="1.30322">
        <ele>383</ele>
        <time>2024-11-10T14:22:19Z</time>
      </trkpt>
      <trkpt lat="45.94201" lon="1.30317">
        <ele>383.1</ele>
        <time>2024-11-10T14:22:20Z</time>
      </trkpt>
      <trkpt lat="45.94203" lon="1.30313">
        <ele>383.2</ele>
        <time>2024-11-10T14:22:21Z</time>
      </trkpt>
      <trkpt lat="45.94205" lon="1.30308">
        <ele>383.3</ele>
        <time>2024-11-10T14:22:22Z</time>
      </trkpt>
      <trkpt lat="45.94206" lon="1.30303">
        <ele>383.4</ele>
        <time>2024-11-10T14:22:23Z</time>
      </trkpt>
      <trkpt lat="45.94208" lon="1.30297">
        <ele>383.6</ele>
        <time>2024-11-10T14:22:24Z</time>
      </trkpt>
      <trkpt lat="45.9421" lon="1.30293">
        <ele>383.8</ele>
        <time>2024-11-10T14:22:25Z</time>
      </trkpt>
      <trkpt lat="45.94211" lon="1.30288">
        <ele>383.9</ele>
        <time>2024-11-10T14:22:26Z</time>
      </trkpt>
      <trkpt lat="45.94212" lon="1.30283">
        <ele>384.1</ele>
        <time>2024-11-10T14:22:27Z</time>
      </trkpt>
      <trkpt lat="45.94214" lon="1.30278">
        <ele>384.2</ele>
        <time>2024-11-10T14:22:28Z</time>
      </trkpt>
      <trkpt lat="45.94215" lon="1.30274">
        <ele>384.4</ele>
        <time>2024-11-10T14:22:29Z</time>
      </trkpt>
      <trkpt lat="45.94216" lon="1.30269">
        <ele>384.5</ele>
        <time>2024-11-10T14:22:30Z</time>
      </trkpt>
      <trkpt lat="45.94217" lon="1.30264">
        <ele>384.6</ele>
        <time>2024-11-10T14:22:31Z</time>
      </trkpt>
      <trkpt lat="45.94218" lon="1.30259">
        <ele>384.7</ele>
        <time>2024-11-10T14:22:32Z</time>
      </trkpt>
      <trkpt lat="45.94219" lon="1.30255">
        <ele>384.8</ele>
        <time>2024-11-10T14:22:33Z</time>
      </trkpt>
      <trkpt lat="45.9422" lon="1.3025">
        <ele>384.9</ele>
        <time>2024-11-10T14:22:34Z</time>
      </trkpt>
      <trkpt lat="45.94221" lon="1.30246">
        <ele>385</ele>
        <time>2024-11-10T14:22:35Z</time>
      </trkpt>
      <trkpt lat="45.94222" lon="1.30242">
        <ele>385.1</ele>
        <time>2024-11-10T14:22:36Z</time>
      </trkpt>
      <trkpt lat="45.94222" lon="1.30237">
        <ele>385.1</ele>
        <time>2024-11-10T14:22:37Z</time>
      </trkpt>
      <trkpt lat="45.94223" lon="1.30233">
        <ele>385.2</ele>
        <time>2024-11-10T14:22:38Z</time>
      </trkpt>
      <trkpt lat="45.94224" lon="1.30227">
        <ele>385.2</ele>
        <time>2024-11-10T14:22:40Z</time>
      </trkpt>
      <trkpt lat="45.94224" lon="1.30222">
        <ele>385.3</ele>
        <time>2024-11-10T14:22:41Z</time>
      </trkpt>
      <trkpt lat="45.94225" lon="1.30218">
        <ele>385.3</ele>
        <time>2024-11-10T14:22:42Z</time>
      </trkpt>
      <trkpt lat="45.94226" lon="1.30213">
        <ele>385.3</ele>
        <time>2024-11-10T14:22:43Z</time>
      </trkpt>
      <trkpt lat="45.94226" lon="1.30209">
        <ele>385.3</ele>
        <time>2024-11-10T14:22:44Z</time>
      </trkpt>
      <trkpt lat="45.94227" lon="1.30203">
        <ele>385.3</ele>
        <time>2024-11-10T14:22:45Z</time>
      </trkpt>
      <trkpt lat="45.94228" lon="1.30198">
        <ele>385.3</ele>
        <time>2024-11-10T14:22:46Z</time>
      </trkpt>
      <trkpt lat="45.94229" lon="1.30193">
        <ele>385.3</ele>
        <time>2024-11-10T14:22:47Z</time>
      </trkpt>
      <trkpt lat="45.9423" lon="1.30187">
        <ele>385.2</ele>
        <time>2024-11-10T14:22:48Z</time>
      </trkpt>
      <trkpt lat="45.94231" lon="1.30181">
        <ele>385.2</ele>
        <time>2024-11-10T14:22:49Z</time>
      </trkpt>
      <trkpt lat="45.94232" lon="1.30176">
        <ele>385.2</ele>
        <time>2024-11-10T14:22:50Z</time>
      </trkpt>
      <trkpt lat="45.94233" lon="1.3017">
        <ele>385.1</ele>
        <time>2024-11-10T14:22:51Z</time>
      </trkpt>
      <trkpt lat="45.94234" lon="1.30165">
        <ele>385.1</ele>
        <time>2024-11-10T14:22:52Z</time>
      </trkpt>
      <trkpt lat="45.94235" lon="1.30159">
        <ele>385</ele>
        <time>2024-11-10T14:22:53Z</time>
      </trkpt>
      <trkpt lat="45.94239" lon="1.30153">
        <ele>384.8</ele>
        <time>2024-11-10T14:22:54Z</time>
      </trkpt>
      <trkpt lat="45.94242" lon="1.30147">
        <ele>384.7</ele>
        <time>2024-11-10T14:22:55Z</time>
      </trkpt>
      <trkpt lat="45.94244" lon="1.30141">
        <ele>384.5</ele>
        <time>2024-11-10T14:22:56Z</time>
      </trkpt>
      <trkpt lat="45.94245" lon="1.30135">
        <ele>384.4</ele>
        <time>2024-11-10T14:22:57Z</time>
      </trkpt>
      <trkpt lat="45.94247" lon="1.30129">
        <ele>384.2</ele>
        <time>2024-11-10T14:22:58Z</time>
      </trkpt>
      <trkpt lat="45.94249" lon="1.30123">
        <ele>384.1</ele>
        <time>2024-11-10T14:22:59Z</time>
      </trkpt>
      <trkpt lat="45.94251" lon="1.30116">
        <ele>384</ele>
        <time>2024-11-10T14:23:00Z</time>
      </trkpt>
      <trkpt lat="45.94254" lon="1.3011">
        <ele>383.8</ele>
        <time>2024-11-10T14:23:01Z</time>
      </trkpt>
      <trkpt lat="45.94257" lon="1.30104">
        <ele>383.7</ele>
        <time>2024-11-10T14:23:02Z</time>
      </trkpt>
      <trkpt lat="45.9426" lon="1.30097">
        <ele>383.5</ele>
        <time>2024-11-10T14:23:03Z</time>
      </trkpt>
      <trkpt lat="45.94263" lon="1.30091">
        <ele>383.4</ele>
        <time>2024-11-10T14:23:04Z</time>
      </trkpt>
      <trkpt lat="45.94266" lon="1.30085">
        <ele>383.3</ele>
        <time>2024-11-10T14:23:05Z</time>
      </trkpt>
      <trkpt lat="45.94269" lon="1.30079">
        <ele>383.2</ele>
        <time>2024-11-10T14:23:06Z</time>
      </trkpt>
      <trkpt lat="45.94273" lon="1.30073">
        <ele>383.1</ele>
        <time>2024-11-10T14:23:07Z</time>
      </trkpt>
      <trkpt lat="45.94276" lon="1.30068">
        <ele>383</ele>
        <time>2024-11-10T14:23:08Z</time>
      </trkpt>
      <trkpt lat="45.9428" lon="1.30063">
        <ele>383</ele>
        <time>2024-11-10T14:23:09Z</time>
      </trkpt>
      <trkpt lat="45.94284" lon="1.30058">
        <ele>382.9</ele>
        <time>2024-11-10T14:23:10Z</time>
      </trkpt>
      <trkpt lat="45.94287" lon="1.30053">
        <ele>382.8</ele>
        <time>2024-11-10T14:23:11Z</time>
      </trkpt>
      <trkpt lat="45.94291" lon="1.30049">
        <ele>382.7</ele>
        <time>2024-11-10T14:23:12Z</time>
      </trkpt>
      <trkpt lat="45.94295" lon="1.30044">
        <ele>382.6</ele>
        <time>2024-11-10T14:23:13Z</time>
      </trkpt>
      <trkpt lat="45.94298" lon="1.30039">
        <ele>382.6</ele>
        <time>2024-11-10T14:23:14Z</time>
      </trkpt>
      <trkpt lat="45.94303" lon="1.30035">
        <ele>382.4</ele>
        <time>2024-11-10T14:23:15Z</time>
      </trkpt>
      <trkpt lat="45.94307" lon="1.3003">
        <ele>382.3</ele>
        <time>2024-11-10T14:23:16Z</time>
      </trkpt>
      <trkpt lat="45.94311" lon="1.30026">
        <ele>382.1</ele>
        <time>2024-11-10T14:23:17Z</time>
      </trkpt>
      <trkpt lat="45.94316" lon="1.30021">
        <ele>381.9</ele>
        <time>2024-11-10T14:23:18Z</time>
      </trkpt>
      <trkpt lat="45.9432" lon="1.30017">
        <ele>381.7</ele>
        <time>2024-11-10T14:23:19Z</time>
      </trkpt>
      <trkpt lat="45.94324" lon="1.30013">
        <ele>381.4</ele>
        <time>2024-11-10T14:23:20Z</time>
      </trkpt>
      <trkpt lat="45.94329" lon="1.30008">
        <ele>381.1</ele>
        <time>2024-11-10T14:23:21Z</time>
      </trkpt>
      <trkpt lat="45.94334" lon="1.30004">
        <ele>380.7</ele>
        <time>2024-11-10T14:23:22Z</time>
      </trkpt>
      <trkpt lat="45.94339" lon="1.3">
        <ele>380.2</ele>
        <time>2024-11-10T14:23:23Z</time>
      </trkpt>
      <trkpt lat="45.94344" lon="1.29996">
        <ele>379.8</ele>
        <time>2024-11-10T14:23:24Z</time>
      </trkpt>
      <trkpt lat="45.9435" lon="1.29992">
        <ele>379.2</ele>
        <time>2024-11-10T14:23:25Z</time>
      </trkpt>
      <trkpt lat="45.94356" lon="1.29987">
        <ele>378.7</ele>
        <time>2024-11-10T14:23:26Z</time>
      </trkpt>
      <trkpt lat="45.94362" lon="1.29982">
        <ele>378.1</ele>
        <time>2024-11-10T14:23:27Z</time>
      </trkpt>
      <trkpt lat="45.94368" lon="1.29978">
        <ele>377.5</ele>
        <time>2024-11-10T14:23:28Z</time>
      </trkpt>
      <trkpt lat="45.94375" lon="1.29973">
        <ele>376.9</ele>
        <time>2024-11-10T14:23:29Z</time>
      </trkpt>
      <trkpt lat="45.94383" lon="1.29967">
        <ele>376.2</ele>
        <time>2024-11-10T14:23:30Z</time>
      </trkpt>
      <trkpt lat="45.9439" lon="1.29962">
        <ele>375.7</ele>
        <time>2024-11-10T14:23:31Z</time>
      </trkpt>
      <trkpt lat="45.94398" lon="1.29956">
        <ele>375.2</ele>
        <time>2024-11-10T14:23:32Z</time>
      </trkpt>
      <trkpt lat="45.94404" lon="1.29949">
        <ele>375</ele>
        <time>2024-11-10T14:23:33Z</time>
      </trkpt>
      <trkpt lat="45.9441" lon="1.29942">
        <ele>374.8</ele>
        <time>2024-11-10T14:23:34Z</time>
      </trkpt>
      <trkpt lat="45.94416" lon="1.29934">
        <ele>374.6</ele>
        <time>2024-11-10T14:23:35Z</time>
      </trkpt>
      <trkpt lat="45.9442" lon="1.29925">
        <ele>374.4</ele>
        <time>2024-11-10T14:23:36Z</time>
      </trkpt>
      <trkpt lat="45.94425" lon="1.29917">
        <ele>374.1</ele>
        <time>2024-11-10T14:23:37Z</time>
      </trkpt>
      <trkpt lat="45.9443" lon="1.29909">
        <ele>373.8</ele>
        <time>2024-11-10T14:23:38Z</time>
      </trkpt>
      <trkpt lat="45.94436" lon="1.29901">
        <ele>373.5</ele>
        <time>2024-11-10T14:23:39Z</time>
      </trkpt>
      <trkpt lat="45.94443" lon="1.29895">
        <ele>373.1</ele>
        <time>2024-11-10T14:23:40Z</time>
      </trkpt>
      <trkpt lat="45.9445" lon="1.29891">
        <ele>372.8</ele>
        <time>2024-11-10T14:23:41Z</time>
      </trkpt>
      <trkpt lat="45.94457" lon="1.29888">
        <ele>372.6</ele>
        <time>2024-11-10T14:23:42Z</time>
      </trkpt>
      <trkpt lat="45.94465" lon="1.29885">
        <ele>372.3</ele>
        <time>2024-11-10T14:23:43Z</time>
      </trkpt>
      <trkpt lat="45.94473" lon="1.29883">
        <ele>372</ele>
        <time>2024-11-10T14:23:44Z</time>
      </trkpt>
      <trkpt lat="45.9448" lon="1.29881">
        <ele>371.9</ele>
        <time>2024-11-10T14:23:45Z</time>
      </trkpt>
      <trkpt lat="45.94488" lon="1.2988">
        <ele>371.7</ele>
        <time>2024-11-10T14:23:46Z</time>
      </trkpt>
      <trkpt lat="45.94495" lon="1.29879">
        <ele>371.6</ele>
        <time>2024-11-10T14:23:47Z</time>
      </trkpt>
      <trkpt lat="45.94502" lon="1.29876">
        <ele>371.5</ele>
        <time>2024-11-10T14:23:48Z</time>
      </trkpt>
      <trkpt lat="45.94509" lon="1.29874">
        <ele>371.3</ele>
        <time>2024-11-10T14:23:49Z</time>
      </trkpt>
      <trkpt lat="45.94516" lon="1.29871">
        <ele>371.2</ele>
        <time>2024-11-10T14:23:50Z</time>
      </trkpt>
      <trkpt lat="45.94523" lon="1.29866">
        <ele>371.1</ele>
        <time>2024-11-10T14:23:51Z</time>
      </trkpt>
      <trkpt lat="45.94529" lon="1.29862">
        <ele>371</ele>
        <time>2024-11-10T14:23:52Z</time>
      </trkpt>
      <trkpt lat="45.94535" lon="1.29857">
        <ele>371</ele>
        <time>2024-11-10T14:23:53Z</time>
      </trkpt>
      <trkpt lat="45.94541" lon="1.29853">
        <ele>371</ele>
        <time>2024-11-10T14:23:54Z</time>
      </trkpt>
      <trkpt lat="45.94547" lon="1.29848">
        <ele>371</ele>
        <time>2024-11-10T14:23:55Z</time>
      </trkpt>
      <trkpt lat="45.94552" lon="1.29843">
        <ele>371</ele>
        <time>2024-11-10T14:23:56Z</time>
      </trkpt>
      <trkpt lat="45.94557" lon="1.29839">
        <ele>371.1</ele>
        <time>2024-11-10T14:23:57Z</time>
      </trkpt>
      <trkpt lat="45.94562" lon="1.29834">
        <ele>371.3</ele>
        <time>2024-11-10T14:23:58Z</time>
      </trkpt>
      <trkpt lat="45.94567" lon="1.2983">
        <ele>371.5</ele>
        <time>2024-11-10T14:23:59Z</time>
      </trkpt>
      <trkpt lat="45.94572" lon="1.29825">
        <ele>371.8</ele>
        <time>2024-11-10T14:24:00Z</time>
      </trkpt>
      <trkpt lat="45.94575" lon="1.29819">
        <ele>372.1</ele>
        <time>2024-11-10T14:24:01Z</time>
      </trkpt>
      <trkpt lat="45.94578" lon="1.29813">
        <ele>372.4</ele>
        <time>2024-11-10T14:24:02Z</time>
      </trkpt>
      <trkpt lat="45.94581" lon="1.29807">
        <ele>372.8</ele>
        <time>2024-11-10T14:24:03Z</time>
      </trkpt>
      <trkpt lat="45.94583" lon="1.29801">
        <ele>373.2</ele>
        <time>2024-11-10T14:24:04Z</time>
      </trkpt>
      <trkpt lat="45.94585" lon="1.29795">
        <ele>373.6</ele>
        <time>2024-11-10T14:24:05Z</time>
      </trkpt>
      <trkpt lat="45.94586" lon="1.2979">
        <ele>374</ele>
        <time>2024-11-10T14:24:06Z</time>
      </trkpt>
      <trkpt lat="45.94588" lon="1.29784">
        <ele>374.4</ele>
        <time>2024-11-10T14:24:07Z</time>
      </trkpt>
      <trkpt lat="45.94589" lon="1.29779">
        <ele>374.7</ele>
        <time>2024-11-10T14:24:08Z</time>
      </trkpt>
      <trkpt lat="45.9459" lon="1.29774">
        <ele>375.1</ele>
        <time>2024-11-10T14:24:09Z</time>
      </trkpt>
      <trkpt lat="45.94591" lon="1.29769">
        <ele>375.4</ele>
        <time>2024-11-10T14:24:10Z</time>
      </trkpt>
      <trkpt lat="45.94592" lon="1.29764">
        <ele>375.8</ele>
        <time>2024-11-10T14:24:11Z</time>
      </trkpt>
      <trkpt lat="45.94593" lon="1.29759">
        <ele>376.1</ele>
        <time>2024-11-10T14:24:12Z</time>
      </trkpt>
      <trkpt lat="45.94594" lon="1.29755">
        <ele>376.3</ele>
        <time>2024-11-10T14:24:13Z</time>
      </trkpt>
      <trkpt lat="45.94595" lon="1.2975">
        <ele>376.7</ele>
        <time>2024-11-10T14:24:14Z</time>
      </trkpt>
      <trkpt lat="45.94597" lon="1.29745">
        <ele>377</ele>
        <time>2024-11-10T14:24:15Z</time>
      </trkpt>
      <trkpt lat="45.94598" lon="1.29741">
        <ele>377.3</ele>
        <time>2024-11-10T14:24:16Z</time>
      </trkpt>
      <trkpt lat="45.94599" lon="1.29737">
        <ele>377.5</ele>
        <time>2024-11-10T14:24:17Z</time>
      </trkpt>
      <trkpt lat="45.946" lon="1.29733">
        <ele>377.8</ele>
        <time>2024-11-10T14:24:18Z</time>
      </trkpt>
      <trkpt lat="45.94601" lon="1.29729">
        <ele>378</ele>
        <time>2024-11-10T14:24:19Z</time>
      </trkpt>
      <trkpt lat="45.94602" lon="1.29723">
        <ele>378.4</ele>
        <time>2024-11-10T14:24:21Z</time>
      </trkpt>
      <trkpt lat="45.94604" lon="1.29718">
        <ele>378.7</ele>
        <time>2024-11-10T14:24:22Z</time>
      </trkpt>
      <trkpt lat="45.94605" lon="1.29714">
        <ele>378.9</ele>
        <time>2024-11-10T14:24:23Z</time>
      </trkpt>
      <trkpt lat="45.94606" lon="1.29711">
        <ele>379.1</ele>
        <time>2024-11-10T14:24:24Z</time>
      </trkpt>
      <trkpt lat="45.94607" lon="1.29707">
        <ele>379.3</ele>
        <time>2024-11-10T14:24:25Z</time>
      </trkpt>
      <trkpt lat="45.94608" lon="1.29703">
        <ele>379.6</ele>
        <time>2024-11-10T14:24:26Z</time>
      </trkpt>
      <trkpt lat="45.94609" lon="1.29697">
        <ele>379.9</ele>
        <time>2024-11-10T14:24:28Z</time>
      </trkpt>
      <trkpt lat="45.9461" lon="1.2969">
        <ele>380.2</ele>
        <time>2024-11-10T14:24:30Z</time>
      </trkpt>
      <trkpt lat="45.94611" lon="1.29686">
        <ele>380.4</ele>
        <time>2024-11-10T14:24:31Z</time>
      </trkpt>
      <trkpt lat="45.94612" lon="1.29679">
        <ele>380.7</ele>
        <time>2024-11-10T14:24:33Z</time>
      </trkpt>
      <trkpt lat="45.94614" lon="1.29673">
        <ele>381</ele>
        <time>2024-11-10T14:24:35Z</time>
      </trkpt>
      <trkpt lat="45.94616" lon="1.29666">
        <ele>381.3</ele>
        <time>2024-11-10T14:24:37Z</time>
      </trkpt>
      <trkpt lat="45.94619" lon="1.2966">
        <ele>381.5</ele>
        <time>2024-11-10T14:24:39Z</time>
      </trkpt>
      <trkpt lat="45.94621" lon="1.29655">
        <ele>381.6</ele>
        <time>2024-11-10T14:24:41Z</time>
      </trkpt>
      <trkpt lat="45.94624" lon="1.29651">
        <ele>381.8</ele>
        <time>2024-11-10T14:24:43Z</time>
      </trkpt>
      <trkpt lat="45.94628" lon="1.29648">
        <ele>382</ele>
        <time>2024-11-10T14:24:45Z</time>
      </trkpt>
      <trkpt lat="45.94632" lon="1.29645">
        <ele>382.4</ele>
        <time>2024-11-10T14:24:47Z</time>
      </trkpt>
      <trkpt lat="45.94636" lon="1.29643">
        <ele>382.8</ele>
        <time>2024-11-10T14:24:49Z</time>
      </trkpt>
      <trkpt lat="45.94639" lon="1.29641">
        <ele>383.2</ele>
        <time>2024-11-10T14:24:51Z</time>
      </trkpt>
      <trkpt lat="45.94642" lon="1.29638">
        <ele>383.7</ele>
        <time>2024-11-10T14:24:54Z</time>
      </trkpt>
      <trkpt lat="45.94645" lon="1.29636">
        <ele>384.2</ele>
        <time>2024-11-10T14:24:56Z</time>
      </trkpt>
      <trkpt lat="45.94648" lon="1.29634">
        <ele>384.6</ele>
        <time>2024-11-10T14:24:59Z</time>
      </trkpt>
      <trkpt lat="45.94651" lon="1.29632">
        <ele>385.1</ele>
        <time>2024-11-10T14:25:01Z</time>
      </trkpt>
      <trkpt lat="45.94655" lon="1.29631">
        <ele>385.7</ele>
        <time>2024-11-10T14:25:03Z</time>
      </trkpt>
      <trkpt lat="45.94658" lon="1.2963">
        <ele>386.2</ele>
        <time>2024-11-10T14:25:05Z</time>
      </trkpt>
      <trkpt lat="45.94661" lon="1.2963">
        <ele>386.6</ele>
        <time>2024-11-10T14:25:07Z</time>
      </trkpt>
      <trkpt lat="45.94664" lon="1.2963">
        <ele>387</ele>
        <time>2024-11-10T14:25:10Z</time>
      </trkpt>
      <trkpt lat="45.94668" lon="1.2963">
        <ele>387.6</ele>
        <time>2024-11-10T14:25:13Z</time>
      </trkpt>
      <trkpt lat="45.94671" lon="1.29631">
        <ele>388.1</ele>
        <time>2024-11-10T14:25:15Z</time>
      </trkpt>
      <trkpt lat="45.94674" lon="1.29632">
        <ele>388.5</ele>
        <time>2024-11-10T14:25:17Z</time>
      </trkpt>
      <trkpt lat="45.94676" lon="1.29634">
        <ele>388.9</ele>
        <time>2024-11-10T14:25:19Z</time>
      </trkpt>
      <trkpt lat="45.94679" lon="1.29635">
        <ele>389.3</ele>
        <time>2024-11-10T14:25:22Z</time>
      </trkpt>
      <trkpt lat="45.94683" lon="1.29636">
        <ele>389.8</ele>
        <time>2024-11-10T14:25:24Z</time>
      </trkpt>
      <trkpt lat="45.94686" lon="1.29638">
        <ele>390.3</ele>
        <time>2024-11-10T14:25:26Z</time>
      </trkpt>
      <trkpt lat="45.94689" lon="1.2964">
        <ele>390.7</ele>
        <time>2024-11-10T14:25:29Z</time>
      </trkpt>
      <trkpt lat="45.94692" lon="1.29641">
        <ele>391.1</ele>
        <time>2024-11-10T14:25:31Z</time>
      </trkpt>
      <trkpt lat="45.94695" lon="1.29642">
        <ele>391.4</ele>
        <time>2024-11-10T14:25:33Z</time>
      </trkpt>
      <trkpt lat="45.94698" lon="1.29643">
        <ele>391.8</ele>
        <time>2024-11-10T14:25:35Z</time>
      </trkpt>
      <trkpt lat="45.94701" lon="1.29645">
        <ele>392.2</ele>
        <time>2024-11-10T14:25:38Z</time>
      </trkpt>
      <trkpt lat="45.94704" lon="1.29645">
        <ele>392.6</ele>
        <time>2024-11-10T14:25:42Z</time>
      </trkpt>
      <trkpt lat="45.94707" lon="1.29645">
        <ele>392.9</ele>
        <time>2024-11-10T14:25:45Z</time>
      </trkpt>
      <trkpt lat="45.9471" lon="1.29645">
        <ele>393.3</ele>
        <time>2024-11-10T14:25:48Z</time>
      </trkpt>
      <trkpt lat="45.94713" lon="1.29645">
        <ele>393.7</ele>
        <time>2024-11-10T14:25:50Z</time>
      </trkpt>
      <trkpt lat="45.94717" lon="1.29644">
        <ele>394.2</ele>
        <time>2024-11-10T14:25:53Z</time>
      </trkpt>
      <trkpt lat="45.9472" lon="1.29644">
        <ele>394.5</ele>
        <time>2024-11-10T14:25:56Z</time>
      </trkpt>
      <trkpt lat="45.94724" lon="1.29644">
        <ele>395.1</ele>
        <time>2024-11-10T14:25:58Z</time>
      </trkpt>
      <trkpt lat="45.94727" lon="1.29644">
        <ele>395.5</ele>
        <time>2024-11-10T14:26:00Z</time>
      </trkpt>
      <trkpt lat="45.9473" lon="1.29643">
        <ele>395.9</ele>
        <time>2024-11-10T14:26:02Z</time>
      </trkpt>
      <trkpt lat="45.94733" lon="1.29643">
        <ele>396.3</ele>
        <time>2024-11-10T14:26:04Z</time>
      </trkpt>
      <trkpt lat="45.94736" lon="1.29643">
        <ele>396.6</ele>
        <time>2024-11-10T14:26:07Z</time>
      </trkpt>
      <trkpt lat="45.9474" lon="1.29642">
        <ele>397.2</ele>
        <time>2024-11-10T14:26:10Z</time>
      </trkpt>
      <trkpt lat="45.94743" lon="1.29641">
        <ele>397.6</ele>
        <time>2024-11-10T14:26:12Z</time>
      </trkpt>
      <trkpt lat="45.94747" lon="1.2964">
        <ele>398.1</ele>
        <time>2024-11-10T14:26:15Z</time>
      </trkpt>
      <trkpt lat="45.9475" lon="1.2964">
        <ele>398.5</ele>
        <time>2024-11-10T14:26:17Z</time>
      </trkpt>
      <trkpt lat="45.94753" lon="1.2964">
        <ele>398.8</ele>
        <time>2024-11-10T14:26:20Z</time>
      </trkpt>
      <trkpt lat="45.94757" lon="1.2964">
        <ele>399.3</ele>
        <time>2024-11-10T14:26:22Z</time>
      </trkpt>
      <trkpt lat="45.9476" lon="1.29639">
        <ele>399.7</ele>
        <time>2024-11-10T14:26:24Z</time>
      </trkpt>
      <trkpt lat="45.94763" lon="1.29638">
        <ele>400.1</ele>
        <time>2024-11-10T14:26:26Z</time>
      </trkpt>
      <trkpt lat="45.94766" lon="1.29638">
        <ele>400.5</ele>
        <time>2024-11-10T14:26:28Z</time>
      </trkpt>
      <trkpt lat="45.9477" lon="1.29637">
        <ele>401</ele>
        <time>2024-11-10T14:26:30Z</time>
      </trkpt>
      <trkpt lat="45.94773" lon="1.29637">
        <ele>401.4</ele>
        <time>2024-11-10T14:26:32Z</time>
      </trkpt>
      <trkpt lat="45.94777" lon="1.29637">
        <ele>402</ele>
        <time>2024-11-10T14:26:34Z</time>
      </trkpt>
      <trkpt lat="45.94781" lon="1.29636">
        <ele>402.5</ele>
        <time>2024-11-10T14:26:36Z</time>
      </trkpt>
      <trkpt lat="45.94785" lon="1.29637">
        <ele>403.1</ele>
        <time>2024-11-10T14:26:38Z</time>
      </trkpt>
      <trkpt lat="45.94788" lon="1.29637">
        <ele>403.5</ele>
        <time>2024-11-10T14:26:40Z</time>
      </trkpt>
      <trkpt lat="45.94792" lon="1.29638">
        <ele>404</ele>
        <time>2024-11-10T14:26:42Z</time>
      </trkpt>
      <trkpt lat="45.94796" lon="1.29638">
        <ele>404.5</ele>
        <time>2024-11-10T14:26:44Z</time>
      </trkpt>
      <trkpt lat="45.94799" lon="1.29639">
        <ele>404.9</ele>
        <time>2024-11-10T14:26:46Z</time>
      </trkpt>
      <trkpt lat="45.94802" lon="1.2964">
        <ele>405.3</ele>
        <time>2024-11-10T14:26:48Z</time>
      </trkpt>
      <trkpt lat="45.94805" lon="1.29641">
        <ele>405.7</ele>
        <time>2024-11-10T14:26:50Z</time>
      </trkpt>
      <trkpt lat="45.94809" lon="1.29642">
        <ele>406.2</ele>
        <time>2024-11-10T14:26:52Z</time>
      </trkpt>
      <trkpt lat="45.94813" lon="1.29643">
        <ele>406.7</ele>
        <time>2024-11-10T14:26:54Z</time>
      </trkpt>
      <trkpt lat="45.94816" lon="1.29644">
        <ele>407.1</ele>
        <time>2024-11-10T14:26:55Z</time>
      </trkpt>
      <trkpt lat="45.9482" lon="1.29645">
        <ele>407.6</ele>
        <time>2024-11-10T14:26:56Z</time>
      </trkpt>
      <trkpt lat="45.94824" lon="1.29647">
        <ele>408.2</ele>
        <time>2024-11-10T14:26:57Z</time>
      </trkpt>
      <trkpt lat="45.94828" lon="1.29648">
        <ele>408.7</ele>
        <time>2024-11-10T14:26:58Z</time>
      </trkpt>
      <trkpt lat="45.94831" lon="1.2965">
        <ele>409.1</ele>
        <time>2024-11-10T14:27:00Z</time>
      </trkpt>
      <trkpt lat="45.94832" lon="1.29646">
        <ele>409.1</ele>
        <time>2024-11-10T14:27:03Z</time>
      </trkpt>
      <trkpt lat="45.9483" lon="1.29643">
        <ele>409.2</ele>
        <time>2024-11-10T14:27:06Z</time>
      </trkpt>
      <trkpt lat="45.94828" lon="1.29641">
        <ele>409.3</ele>
        <time>2024-11-10T14:27:08Z</time>
      </trkpt>
      <trkpt lat="45.94825" lon="1.2964">
        <ele>409.3</ele>
        <time>2024-11-10T14:27:10Z</time>
      </trkpt>
      <trkpt lat="45.94822" lon="1.29638">
        <ele>409.4</ele>
        <time>2024-11-10T14:27:12Z</time>
      </trkpt>
      <trkpt lat="45.94818" lon="1.29635">
        <ele>409.6</ele>
        <time>2024-11-10T14:27:14Z</time>
      </trkpt>
      <trkpt lat="45.94815" lon="1.29633">
        <ele>409.7</ele>
        <time>2024-11-10T14:27:16Z</time>
      </trkpt>
      <trkpt lat="45.94811" lon="1.29631">
        <ele>409.8</ele>
        <time>2024-11-10T14:27:18Z</time>
      </trkpt>
      <trkpt lat="45.94809" lon="1.29629">
        <ele>409.9</ele>
        <time>2024-11-10T14:27:21Z</time>
      </trkpt>
      <trkpt lat="45.94806" lon="1.29626">
        <ele>410</ele>
        <time>2024-11-10T14:27:24Z</time>
      </trkpt>
      <trkpt lat="45.94803" lon="1.29623">
        <ele>410.2</ele>
        <time>2024-11-10T14:27:27Z</time>
      </trkpt>
      <trkpt lat="45.94801" lon="1.29619">
        <ele>410.3</ele>
        <time>2024-11-10T14:27:29Z</time>
      </trkpt>
      <trkpt lat="45.94798" lon="1.29616">
        <ele>410.4</ele>
        <time>2024-11-10T14:27:31Z</time>
      </trkpt>
      <trkpt lat="45.94795" lon="1.29613">
        <ele>410.5</ele>
        <time>2024-11-10T14:27:34Z</time>
      </trkpt>
      <trkpt lat="45.94792" lon="1.2961">
        <ele>410.7</ele>
        <time>2024-11-10T14:27:36Z</time>
      </trkpt>
      <trkpt lat="45.94789" lon="1.29607">
        <ele>410.8</ele>
        <time>2024-11-10T14:27:38Z</time>
      </trkpt>
      <trkpt lat="45.94786" lon="1.29603">
        <ele>411</ele>
        <time>2024-11-10T14:27:40Z</time>
      </trkpt>
      <trkpt lat="45.94783" lon="1.296">
        <ele>411.2</ele>
        <time>2024-11-10T14:27:42Z</time>
      </trkpt>
      <trkpt lat="45.9478" lon="1.29597">
        <ele>411.4</ele>
        <time>2024-11-10T14:27:44Z</time>
      </trkpt>
      <trkpt lat="45.94778" lon="1.29594">
        <ele>411.6</ele>
        <time>2024-11-10T14:27:46Z</time>
      </trkpt>
      <trkpt lat="45.94775" lon="1.29591">
        <ele>411.8</ele>
        <time>2024-11-10T14:27:49Z</time>
      </trkpt>
      <trkpt lat="45.94772" lon="1.29588">
        <ele>412</ele>
        <time>2024-11-10T14:27:51Z</time>
      </trkpt>
      <trkpt lat="45.94769" lon="1.29585">
        <ele>412.2</ele>
        <time>2024-11-10T14:27:53Z</time>
      </trkpt>
      <trkpt lat="45.94766" lon="1.29581">
        <ele>412.5</ele>
        <time>2024-11-10T14:27:55Z</time>
      </trkpt>
      <trkpt lat="45.94764" lon="1.29577">
        <ele>412.8</ele>
        <time>2024-11-10T14:27:59Z</time>
      </trkpt>
      <trkpt lat="45.94762" lon="1.29574">
        <ele>413</ele>
        <time>2024-11-10T14:28:01Z</time>
      </trkpt>
      <trkpt lat="45.9476" lon="1.2957">
        <ele>413.3</ele>
        <time>2024-11-10T14:28:03Z</time>
      </trkpt>
      <trkpt lat="45.94758" lon="1.29566">
        <ele>413.6</ele>
        <time>2024-11-10T14:28:05Z</time>
      </trkpt>
      <trkpt lat="45.94757" lon="1.29562">
        <ele>413.8</ele>
        <time>2024-11-10T14:28:08Z</time>
      </trkpt>
      <trkpt lat="45.94756" lon="1.29558">
        <ele>414.1</ele>
        <time>2024-11-10T14:28:10Z</time>
      </trkpt>
      <trkpt lat="45.94755" lon="1.29553">
        <ele>414.4</ele>
        <time>2024-11-10T14:28:12Z</time>
      </trkpt>
      <trkpt lat="45.94754" lon="1.29548">
        <ele>414.8</ele>
        <time>2024-11-10T14:28:14Z</time>
      </trkpt>
      <trkpt lat="45.94754" lon="1.29542">
        <ele>415.2</ele>
        <time>2024-11-10T14:28:16Z</time>
      </trkpt>
      <trkpt lat="45.94754" lon="1.29537">
        <ele>415.5</ele>
        <time>2024-11-10T14:28:18Z</time>
      </trkpt>
      <trkpt lat="45.94755" lon="1.29533">
        <ele>415.8</ele>
        <time>2024-11-10T14:28:20Z</time>
      </trkpt>
      <trkpt lat="45.94754" lon="1.29527">
        <ele>416.2</ele>
        <time>2024-11-10T14:28:22Z</time>
      </trkpt>
      <trkpt lat="45.94753" lon="1.29522">
        <ele>416.5</ele>
        <time>2024-11-10T14:28:24Z</time>
      </trkpt>
      <trkpt lat="45.94753" lon="1.29517">
        <ele>416.8</ele>
        <time>2024-11-10T14:28:27Z</time>
      </trkpt>
      <trkpt lat="45.94752" lon="1.29511">
        <ele>417.1</ele>
        <time>2024-11-10T14:28:29Z</time>
      </trkpt>
      <trkpt lat="45.94751" lon="1.29505">
        <ele>417.4</ele>
        <time>2024-11-10T14:28:31Z</time>
      </trkpt>
      <trkpt lat="45.94751" lon="1.29501">
        <ele>417.5</ele>
        <time>2024-11-10T14:28:33Z</time>
      </trkpt>
      <trkpt lat="45.94751" lon="1.29495">
        <ele>417.6</ele>
        <time>2024-11-10T14:28:36Z</time>
      </trkpt>
      <trkpt lat="45.94751" lon="1.29488">
        <ele>417.7</ele>
        <time>2024-11-10T14:28:38Z</time>
      </trkpt>
      <trkpt lat="45.94751" lon="1.29483">
        <ele>417.6</ele>
        <time>2024-11-10T14:28:39Z</time>
      </trkpt>
      <trkpt lat="45.94751" lon="1.29478">
        <ele>417.6</ele>
        <time>2024-11-10T14:28:40Z</time>
      </trkpt>
      <trkpt lat="45.94752" lon="1.29473">
        <ele>417.4</ele>
        <time>2024-11-10T14:28:41Z</time>
      </trkpt>
      <trkpt lat="45.94752" lon="1.29468">
        <ele>417.2</ele>
        <time>2024-11-10T14:28:42Z</time>
      </trkpt>
      <trkpt lat="45.94752" lon="1.29462">
        <ele>417</ele>
        <time>2024-11-10T14:28:43Z</time>
      </trkpt>
      <trkpt lat="45.94753" lon="1.29456">
        <ele>416.8</ele>
        <time>2024-11-10T14:28:44Z</time>
      </trkpt>
      <trkpt lat="45.94756" lon="1.29451">
        <ele>416.6</ele>
        <time>2024-11-10T14:28:45Z</time>
      </trkpt>
      <trkpt lat="45.94759" lon="1.29445">
        <ele>416.3</ele>
        <time>2024-11-10T14:28:46Z</time>
      </trkpt>
      <trkpt lat="45.94763" lon="1.2944">
        <ele>416.1</ele>
        <time>2024-11-10T14:28:47Z</time>
      </trkpt>
      <trkpt lat="45.94766" lon="1.29435">
        <ele>415.9</ele>
        <time>2024-11-10T14:28:48Z</time>
      </trkpt>
      <trkpt lat="45.94769" lon="1.2943">
        <ele>415.8</ele>
        <time>2024-11-10T14:28:49Z</time>
      </trkpt>
      <trkpt lat="45.94772" lon="1.29425">
        <ele>415.6</ele>
        <time>2024-11-10T14:28:50Z</time>
      </trkpt>
      <trkpt lat="45.94774" lon="1.29421">
        <ele>415.6</ele>
        <time>2024-11-10T14:28:51Z</time>
      </trkpt>
      <trkpt lat="45.94776" lon="1.29416">
        <ele>415.5</ele>
        <time>2024-11-10T14:28:52Z</time>
      </trkpt>
      <trkpt lat="45.94779" lon="1.29411">
        <ele>415.3</ele>
        <time>2024-11-10T14:28:53Z</time>
      </trkpt>
      <trkpt lat="45.94781" lon="1.29406">
        <ele>415.2</ele>
        <time>2024-11-10T14:28:54Z</time>
      </trkpt>
      <trkpt lat="45.94783" lon="1.29401">
        <ele>415.2</ele>
        <time>2024-11-10T14:28:55Z</time>
      </trkpt>
      <trkpt lat="45.94785" lon="1.29397">
        <ele>415.1</ele>
        <time>2024-11-10T14:28:56Z</time>
      </trkpt>
      <trkpt lat="45.94787" lon="1.29393">
        <ele>415</ele>
        <time>2024-11-10T14:28:57Z</time>
      </trkpt>
      <trkpt lat="45.9479" lon="1.29389">
        <ele>415</ele>
        <time>2024-11-10T14:28:58Z</time>
      </trkpt>
      <trkpt lat="45.94793" lon="1.29385">
        <ele>414.9</ele>
        <time>2024-11-10T14:28:59Z</time>
      </trkpt>
      <trkpt lat="45.94798" lon="1.2938">
        <ele>414.8</ele>
        <time>2024-11-10T14:29:00Z</time>
      </trkpt>
      <trkpt lat="45.94801" lon="1.29375">
        <ele>414.8</ele>
        <time>2024-11-10T14:29:01Z</time>
      </trkpt>
      <trkpt lat="45.94804" lon="1.2937">
        <ele>414.8</ele>
        <time>2024-11-10T14:29:02Z</time>
      </trkpt>
      <trkpt lat="45.94808" lon="1.29366">
        <ele>414.7</ele>
        <time>2024-11-10T14:29:03Z</time>
      </trkpt>
      <trkpt lat="45.94813" lon="1.2936">
        <ele>414.7</ele>
        <time>2024-11-10T14:29:04Z</time>
      </trkpt>
      <trkpt lat="45.94816" lon="1.29356">
        <ele>414.6</ele>
        <time>2024-11-10T14:29:05Z</time>
      </trkpt>
      <trkpt lat="45.9482" lon="1.29351">
        <ele>414.6</ele>
        <time>2024-11-10T14:29:06Z</time>
      </trkpt>
      <trkpt lat="45.94823" lon="1.29347">
        <ele>414.6</ele>
        <time>2024-11-10T14:29:07Z</time>
      </trkpt>
      <trkpt lat="45.94827" lon="1.29344">
        <ele>414.5</ele>
        <time>2024-11-10T14:29:08Z</time>
      </trkpt>
      <trkpt lat="45.94832" lon="1.29339">
        <ele>414.5</ele>
        <time>2024-11-10T14:29:09Z</time>
      </trkpt>
      <trkpt lat="45.94836" lon="1.29334">
        <ele>414.5</ele>
        <time>2024-11-10T14:29:11Z</time>
      </trkpt>
      <trkpt lat="45.94839" lon="1.2933">
        <ele>414.4</ele>
        <time>2024-11-10T14:29:12Z</time>
      </trkpt>
      <trkpt lat="45.94841" lon="1.29327">
        <ele>414.4</ele>
        <time>2024-11-10T14:29:13Z</time>
      </trkpt>
      <trkpt lat="45.94844" lon="1.29322">
        <ele>414.4</ele>
        <time>2024-11-10T14:29:15Z</time>
      </trkpt>
      <trkpt lat="45.94846" lon="1.29318">
        <ele>414.4</ele>
        <time>2024-11-10T14:29:16Z</time>
      </trkpt>
      <trkpt lat="45.94849" lon="1.29314">
        <ele>414.4</ele>
        <time>2024-11-10T14:29:17Z</time>
      </trkpt>
      <trkpt lat="45.94852" lon="1.29311">
        <ele>414.4</ele>
        <time>2024-11-10T14:29:18Z</time>
      </trkpt>
      <trkpt lat="45.94855" lon="1.29307">
        <ele>414.4</ele>
        <time>2024-11-10T14:29:19Z</time>
      </trkpt>
      <trkpt lat="45.94858" lon="1.29304">
        <ele>414.4</ele>
        <time>2024-11-10T14:29:20Z</time>
      </trkpt>
      <trkpt lat="45.9486" lon="1.29301">
        <ele>414.3</ele>
        <time>2024-11-10T14:29:21Z</time>
      </trkpt>
      <trkpt lat="45.94863" lon="1.29298">
        <ele>414.3</ele>
        <time>2024-11-10T14:29:22Z</time>
      </trkpt>
      <trkpt lat="45.94865" lon="1.29296">
        <ele>414.2</ele>
        <time>2024-11-10T14:29:23Z</time>
      </trkpt>
      <trkpt lat="45.9487" lon="1.29294">
        <ele>414</ele>
        <time>2024-11-10T14:29:25Z</time>
      </trkpt>
      <trkpt lat="45.94873" lon="1.29292">
        <ele>413.8</ele>
        <time>2024-11-10T14:29:26Z</time>
      </trkpt>
      <trkpt lat="45.94879" lon="1.29289">
        <ele>413.4</ele>
        <time>2024-11-10T14:29:28Z</time>
      </trkpt>
      <trkpt lat="45.94888" lon="1.29284">
        <ele>412.7</ele>
        <time>2024-11-10T14:29:29Z</time>
      </trkpt>
      <trkpt lat="45.94895" lon="1.29279">
        <ele>411.9</ele>
        <time>2024-11-10T14:29:30Z</time>
      </trkpt>
      <trkpt lat="45.94902" lon="1.29274">
        <ele>411.2</ele>
        <time>2024-11-10T14:29:31Z</time>
      </trkpt>
      <trkpt lat="45.94908" lon="1.2927">
        <ele>410.7</ele>
        <time>2024-11-10T14:29:32Z</time>
      </trkpt>
      <trkpt lat="45.94915" lon="1.29268">
        <ele>410.2</ele>
        <time>2024-11-10T14:29:33Z</time>
      </trkpt>
      <trkpt lat="45.94921" lon="1.29264">
        <ele>409.8</ele>
        <time>2024-11-10T14:29:34Z</time>
      </trkpt>
      <trkpt lat="45.94928" lon="1.29261">
        <ele>409.4</ele>
        <time>2024-11-10T14:29:35Z</time>
      </trkpt>
      <trkpt lat="45.94934" lon="1.29258">
        <ele>409</ele>
        <time>2024-11-10T14:29:36Z</time>
      </trkpt>
      <trkpt lat="45.9494" lon="1.29255">
        <ele>408.6</ele>
        <time>2024-11-10T14:29:37Z</time>
      </trkpt>
      <trkpt lat="45.94946" lon="1.29253">
        <ele>408.2</ele>
        <time>2024-11-10T14:29:39Z</time>
      </trkpt>
      <trkpt lat="45.9495" lon="1.29248">
        <ele>407.8</ele>
        <time>2024-11-10T14:29:40Z</time>
      </trkpt>
      <trkpt lat="45.94952" lon="1.29243">
        <ele>407.5</ele>
        <time>2024-11-10T14:29:41Z</time>
      </trkpt>
      <trkpt lat="45.94953" lon="1.29235">
        <ele>407.1</ele>
        <time>2024-11-10T14:29:42Z</time>
      </trkpt>
      <trkpt lat="45.94955" lon="1.29228">
        <ele>406.8</ele>
        <time>2024-11-10T14:29:43Z</time>
      </trkpt>
      <trkpt lat="45.94958" lon="1.29223">
        <ele>406.6</ele>
        <time>2024-11-10T14:29:44Z</time>
      </trkpt>
      <trkpt lat="45.94961" lon="1.29218">
        <ele>406.4</ele>
        <time>2024-11-10T14:29:45Z</time>
      </trkpt>
      <trkpt lat="45.94964" lon="1.29213">
        <ele>406.2</ele>
        <time>2024-11-10T14:29:46Z</time>
      </trkpt>
      <trkpt lat="45.94967" lon="1.29208">
        <ele>406.1</ele>
        <time>2024-11-10T14:29:47Z</time>
      </trkpt>
      <trkpt lat="45.9497" lon="1.29202">
        <ele>405.9</ele>
        <time>2024-11-10T14:29:48Z</time>
      </trkpt>
      <trkpt lat="45.94974" lon="1.29193">
        <ele>405.8</ele>
        <time>2024-11-10T14:29:49Z</time>
      </trkpt>
      <trkpt lat="45.94977" lon="1.29186">
        <ele>405.7</ele>
        <time>2024-11-10T14:29:50Z</time>
      </trkpt>
      <trkpt lat="45.94981" lon="1.29179">
        <ele>405.7</ele>
        <time>2024-11-10T14:29:51Z</time>
      </trkpt>
      <trkpt lat="45.94986" lon="1.29174">
        <ele>405.8</ele>
        <time>2024-11-10T14:29:52Z</time>
      </trkpt>
      <trkpt lat="45.9499" lon="1.2917">
        <ele>405.8</ele>
        <time>2024-11-10T14:29:53Z</time>
      </trkpt>
      <trkpt lat="45.94993" lon="1.29168">
        <ele>405.9</ele>
        <time>2024-11-10T14:29:54Z</time>
      </trkpt>
      <trkpt lat="45.94997" lon="1.29165">
        <ele>406.1</ele>
        <time>2024-11-10T14:29:55Z</time>
      </trkpt>
      <trkpt lat="45.95" lon="1.29163">
        <ele>406.2</ele>
        <time>2024-11-10T14:29:56Z</time>
      </trkpt>
      <trkpt lat="45.95004" lon="1.29161">
        <ele>406.3</ele>
        <time>2024-11-10T14:29:57Z</time>
      </trkpt>
      <trkpt lat="45.95008" lon="1.29159">
        <ele>406.4</ele>
        <time>2024-11-10T14:29:58Z</time>
      </trkpt>
      <trkpt lat="45.95011" lon="1.29158">
        <ele>406.5</ele>
        <time>2024-11-10T14:29:59Z</time>
      </trkpt>
      <trkpt lat="45.95015" lon="1.29158">
        <ele>406.5</ele>
        <time>2024-11-10T14:30:00Z</time>
      </trkpt>
      <trkpt lat="45.95019" lon="1.29158">
        <ele>406.5</ele>
        <time>2024-11-10T14:30:01Z</time>
      </trkpt>
      <trkpt lat="45.95023" lon="1.29158">
        <ele>406.4</ele>
        <time>2024-11-10T14:30:02Z</time>
      </trkpt>
      <trkpt lat="45.95027" lon="1.29159">
        <ele>406.3</ele>
        <time>2024-11-10T14:30:03Z</time>
      </trkpt>
      <trkpt lat="45.95031" lon="1.2916">
        <ele>406</ele>
        <time>2024-11-10T14:30:04Z</time>
      </trkpt>
      <trkpt lat="45.95038" lon="1.29159">
        <ele>405.5</ele>
        <time>2024-11-10T14:30:05Z</time>
      </trkpt>
      <trkpt lat="45.95044" lon="1.29157">
        <ele>404.9</ele>
        <time>2024-11-10T14:30:06Z</time>
      </trkpt>
      <trkpt lat="45.9505" lon="1.29154">
        <ele>404.3</ele>
        <time>2024-11-10T14:30:07Z</time>
      </trkpt>
      <trkpt lat="45.95055" lon="1.29151">
        <ele>403.8</ele>
        <time>2024-11-10T14:30:08Z</time>
      </trkpt>
      <trkpt lat="45.9506" lon="1.29149">
        <ele>403.4</ele>
        <time>2024-11-10T14:30:09Z</time>
      </trkpt>
      <trkpt lat="45.95066" lon="1.29149">
        <ele>402.9</ele>
        <time>2024-11-10T14:30:10Z</time>
      </trkpt>
      <trkpt lat="45.95071" lon="1.29148">
        <ele>402.1</ele>
        <time>2024-11-10T14:30:11Z</time>
      </trkpt>
      <trkpt lat="45.95074" lon="1.29144">
        <ele>402.1</ele>
        <time>2024-11-10T14:30:13Z</time>
      </trkpt>
      <trkpt lat="45.95074" lon="1.2914">
        <ele>402</ele>
        <time>2024-11-10T14:30:14Z</time>
      </trkpt>
      <trkpt lat="45.95072" lon="1.29138">
        <ele>401.9</ele>
        <time>2024-11-10T14:30:16Z</time>
      </trkpt>
      <trkpt lat="45.9507" lon="1.29135">
        <ele>401.9</ele>
        <time>2024-11-10T14:30:17Z</time>
      </trkpt>
      <trkpt lat="45.95067" lon="1.29133">
        <ele>401.8</ele>
        <time>2024-11-10T14:30:18Z</time>
      </trkpt>
      <trkpt lat="45.95064" lon="1.29132">
        <ele>401.8</ele>
        <time>2024-11-10T14:30:19Z</time>
      </trkpt>
      <trkpt lat="45.95061" lon="1.29131">
        <ele>401.7</ele>
        <time>2024-11-10T14:30:20Z</time>
      </trkpt>
      <trkpt lat="45.95058" lon="1.29129">
        <ele>401.6</ele>
        <time>2024-11-10T14:30:21Z</time>
      </trkpt>
      <trkpt lat="45.95056" lon="1.29127">
        <ele>401.5</ele>
        <time>2024-11-10T14:30:22Z</time>
      </trkpt>
      <trkpt lat="45.95053" lon="1.29125">
        <ele>401.5</ele>
        <time>2024-11-10T14:30:23Z</time>
      </trkpt>
      <trkpt lat="45.95049" lon="1.29122">
        <ele>401.4</ele>
        <time>2024-11-10T14:30:24Z</time>
      </trkpt>
      <trkpt lat="45.95045" lon="1.29119">
        <ele>401.3</ele>
        <time>2024-11-10T14:30:25Z</time>
      </trkpt>
      <trkpt lat="45.95039" lon="1.29116">
        <ele>401.2</ele>
        <time>2024-11-10T14:30:26Z</time>
      </trkpt>
      <trkpt lat="45.95033" lon="1.29114">
        <ele>401.1</ele>
        <time>2024-11-10T14:30:27Z</time>
      </trkpt>
      <trkpt lat="45.95028" lon="1.29112">
        <ele>401.1</ele>
        <time>2024-11-10T14:30:28Z</time>
      </trkpt>
      <trkpt lat="45.95024" lon="1.29111">
        <ele>401</ele>
        <time>2024-11-10T14:30:29Z</time>
      </trkpt>
      <trkpt lat="45.9502" lon="1.2911">
        <ele>401</ele>
        <time>2024-11-10T14:30:30Z</time>
      </trkpt>
      <trkpt lat="45.95016" lon="1.29109">
        <ele>401</ele>
        <time>2024-11-10T14:30:31Z</time>
      </trkpt>
      <trkpt lat="45.95012" lon="1.29108">
        <ele>400.9</ele>
        <time>2024-11-10T14:30:32Z</time>
      </trkpt>
      <trkpt lat="45.95007" lon="1.29107">
        <ele>400.7</ele>
        <time>2024-11-10T14:30:33Z</time>
      </trkpt>
      <trkpt lat="45.95003" lon="1.29106">
        <ele>400.5</ele>
        <time>2024-11-10T14:30:34Z</time>
      </trkpt>
      <trkpt lat="45.94998" lon="1.29105">
        <ele>400.2</ele>
        <time>2024-11-10T14:30:35Z</time>
      </trkpt>
      <trkpt lat="45.94992" lon="1.29104">
        <ele>399.8</ele>
        <time>2024-11-10T14:30:36Z</time>
      </trkpt>
      <trkpt lat="45.94987" lon="1.29104">
        <ele>399.4</ele>
        <time>2024-11-10T14:30:37Z</time>
      </trkpt>
      <trkpt lat="45.94981" lon="1.29104">
        <ele>399</ele>
        <time>2024-11-10T14:30:38Z</time>
      </trkpt>
      <trkpt lat="45.94977" lon="1.29104">
        <ele>398.8</ele>
        <time>2024-11-10T14:30:39Z</time>
      </trkpt>
      <trkpt lat="45.94972" lon="1.29104">
        <ele>398.5</ele>
        <time>2024-11-10T14:30:40Z</time>
      </trkpt>
      <trkpt lat="45.94968" lon="1.29103">
        <ele>398.4</ele>
        <time>2024-11-10T14:30:41Z</time>
      </trkpt>
      <trkpt lat="45.94964" lon="1.29103">
        <ele>398.3</ele>
        <time>2024-11-10T14:30:42Z</time>
      </trkpt>
      <trkpt lat="45.9496" lon="1.29102">
        <ele>398.2</ele>
        <time>2024-11-10T14:30:43Z</time>
      </trkpt>
      <trkpt lat="45.94957" lon="1.29102">
        <ele>398.1</ele>
        <time>2024-11-10T14:30:45Z</time>
      </trkpt>
      <trkpt lat="45.94953" lon="1.29101">
        <ele>398.1</ele>
        <time>2024-11-10T14:30:47Z</time>
      </trkpt>
      <trkpt lat="45.9495" lon="1.29096">
        <ele>398</ele>
        <time>2024-11-10T14:30:49Z</time>
      </trkpt>
      <trkpt lat="45.94948" lon="1.29092">
        <ele>397.9</ele>
        <time>2024-11-10T14:30:50Z</time>
      </trkpt>
      <trkpt lat="45.94946" lon="1.29087">
        <ele>398</ele>
        <time>2024-11-10T14:30:51Z</time>
      </trkpt>
      <trkpt lat="45.94942" lon="1.29082">
        <ele>398</ele>
        <time>2024-11-10T14:30:52Z</time>
      </trkpt>
      <trkpt lat="45.9494" lon="1.29077">
        <ele>398</ele>
        <time>2024-11-10T14:30:53Z</time>
      </trkpt>
      <trkpt lat="45.94937" lon="1.2907">
        <ele>398.1</ele>
        <time>2024-11-10T14:30:55Z</time>
      </trkpt>
      <trkpt lat="45.94935" lon="1.29065">
        <ele>398.2</ele>
        <time>2024-11-10T14:30:56Z</time>
      </trkpt>
      <trkpt lat="45.94933" lon="1.29059">
        <ele>398.3</ele>
        <time>2024-11-10T14:30:58Z</time>
      </trkpt>
      <trkpt lat="45.9493" lon="1.29057">
        <ele>398.3</ele>
        <time>2024-11-10T14:31:01Z</time>
      </trkpt>
      <trkpt lat="45.94927" lon="1.29057">
        <ele>398.4</ele>
        <time>2024-11-10T14:31:03Z</time>
      </trkpt>
      <trkpt lat="45.94924" lon="1.29058">
        <ele>398.5</ele>
        <time>2024-11-10T14:31:04Z</time>
      </trkpt>
      <trkpt lat="45.94921" lon="1.29059">
        <ele>398.5</ele>
        <time>2024-11-10T14:31:05Z</time>
      </trkpt>
      <trkpt lat="45.94917" lon="1.29062">
        <ele>398.7</ele>
        <time>2024-11-10T14:31:07Z</time>
      </trkpt>
      <trkpt lat="45.94914" lon="1.29062">
        <ele>399.1</ele>
        <time>2024-11-10T14:31:09Z</time>
      </trkpt>
      <trkpt lat="45.94914" lon="1.29058">
        <ele>399.4</ele>
        <time>2024-11-10T14:31:12Z</time>
      </trkpt>
      <trkpt lat="45.94915" lon="1.29054">
        <ele>399.7</ele>
        <time>2024-11-10T14:31:14Z</time>
      </trkpt>
      <trkpt lat="45.94917" lon="1.29049">
        <ele>400.2</ele>
        <time>2024-11-10T14:31:16Z</time>
      </trkpt>
      <trkpt lat="45.94919" lon="1.29043">
        <ele>400.7</ele>
        <time>2024-11-10T14:31:19Z</time>
      </trkpt>
      <trkpt lat="45.94921" lon="1.29038">
        <ele>401.1</ele>
        <time>2024-11-10T14:31:21Z</time>
      </trkpt>
      <trkpt lat="45.94922" lon="1.29032">
        <ele>401.6</ele>
        <time>2024-11-10T14:31:23Z</time>
      </trkpt>
      <trkpt lat="45.94924" lon="1.29026">
        <ele>402.2</ele>
        <time>2024-11-10T14:31:25Z</time>
      </trkpt>
      <trkpt lat="45.94925" lon="1.29022">
        <ele>402.6</ele>
        <time>2024-11-10T14:31:27Z</time>
      </trkpt>
      <trkpt lat="45.94925" lon="1.29017">
        <ele>403</ele>
        <time>2024-11-10T14:31:29Z</time>
      </trkpt>
      <trkpt lat="45.94927" lon="1.29012">
        <ele>403.6</ele>
        <time>2024-11-10T14:31:31Z</time>
      </trkpt>
      <trkpt lat="45.94928" lon="1.29007">
        <ele>404.1</ele>
        <time>2024-11-10T14:31:33Z</time>
      </trkpt>
      <trkpt lat="45.9493" lon="1.29003">
        <ele>404.7</ele>
        <time>2024-11-10T14:31:35Z</time>
      </trkpt>
      <trkpt lat="45.94933" lon="1.28998">
        <ele>405.3</ele>
        <time>2024-11-10T14:31:37Z</time>
      </trkpt>
      <trkpt lat="45.94935" lon="1.28994">
        <ele>405.8</ele>
        <time>2024-11-10T14:31:39Z</time>
      </trkpt>
      <trkpt lat="45.94938" lon="1.28989">
        <ele>406.5</ele>
        <time>2024-11-10T14:31:41Z</time>
      </trkpt>
      <trkpt lat="45.9494" lon="1.28983">
        <ele>407</ele>
        <time>2024-11-10T14:31:43Z</time>
      </trkpt>
      <trkpt lat="45.94942" lon="1.28979">
        <ele>407.4</ele>
        <time>2024-11-10T14:31:45Z</time>
      </trkpt>
      <trkpt lat="45.94944" lon="1.28973">
        <ele>407.7</ele>
        <time>2024-11-10T14:31:47Z</time>
      </trkpt>
      <trkpt lat="45.94946" lon="1.28969">
        <ele>408</ele>
        <time>2024-11-10T14:31:48Z</time>
      </trkpt>
      <trkpt lat="45.94948" lon="1.28963">
        <ele>408.2</ele>
        <time>2024-11-10T14:31:50Z</time>
      </trkpt>
      <trkpt lat="45.94949" lon="1.28957">
        <ele>408.4</ele>
        <time>2024-11-10T14:31:52Z</time>
      </trkpt>
      <trkpt lat="45.94951" lon="1.28952">
        <ele>408.5</ele>
        <time>2024-11-10T14:31:54Z</time>
      </trkpt>
      <trkpt lat="45.94953" lon="1.28947">
        <ele>408.6</ele>
        <time>2024-11-10T14:31:55Z</time>
      </trkpt>
      <trkpt lat="45.94954" lon="1.28943">
        <ele>408.7</ele>
        <time>2024-11-10T14:31:57Z</time>
      </trkpt>
      <trkpt lat="45.94956" lon="1.28937">
        <ele>408.8</ele>
        <time>2024-11-10T14:31:59Z</time>
      </trkpt>
      <trkpt lat="45.94957" lon="1.28931">
        <ele>408.8</ele>
        <time>2024-11-10T14:32:01Z</time>
      </trkpt>
      <trkpt lat="45.94959" lon="1.28925">
        <ele>408.9</ele>
        <time>2024-11-10T14:32:03Z</time>
      </trkpt>
      <trkpt lat="45.94961" lon="1.2892">
        <ele>409</ele>
        <time>2024-11-10T14:32:04Z</time>
      </trkpt>
      <trkpt lat="45.94962" lon="1.28916">
        <ele>409</ele>
        <time>2024-11-10T14:32:05Z</time>
      </trkpt>
      <trkpt lat="45.94963" lon="1.28911">
        <ele>409</ele>
        <time>2024-11-10T14:32:07Z</time>
      </trkpt>
      <trkpt lat="45.94964" lon="1.28906">
        <ele>409.1</ele>
        <time>2024-11-10T14:32:08Z</time>
      </trkpt>
      <trkpt lat="45.94966" lon="1.289">
        <ele>409.1</ele>
        <time>2024-11-10T14:32:10Z</time>
      </trkpt>
      <trkpt lat="45.94967" lon="1.28895">
        <ele>409.1</ele>
        <time>2024-11-10T14:32:11Z</time>
      </trkpt>
      <trkpt lat="45.94968" lon="1.2889">
        <ele>409.2</ele>
        <time>2024-11-10T14:32:13Z</time>
      </trkpt>
      <trkpt lat="45.94969" lon="1.28885">
        <ele>409.2</ele>
        <time>2024-11-10T14:32:14Z</time>
      </trkpt>
      <trkpt lat="45.94969" lon="1.28879">
        <ele>409.2</ele>
        <time>2024-11-10T14:32:16Z</time>
      </trkpt>
      <trkpt lat="45.9497" lon="1.28874">
        <ele>409.2</ele>
        <time>2024-11-10T14:32:17Z</time>
      </trkpt>
      <trkpt lat="45.94972" lon="1.28867">
        <ele>409.3</ele>
        <time>2024-11-10T14:32:19Z</time>
      </trkpt>
      <trkpt lat="45.94972" lon="1.28861">
        <ele>409.3</ele>
        <time>2024-11-10T14:32:21Z</time>
      </trkpt>
      <trkpt lat="45.94973" lon="1.28854">
        <ele>409.4</ele>
        <time>2024-11-10T14:32:23Z</time>
      </trkpt>
      <trkpt lat="45.94973" lon="1.28849">
        <ele>409.4</ele>
        <time>2024-11-10T14:32:25Z</time>
      </trkpt>
      <trkpt lat="45.94973" lon="1.28843">
        <ele>409.5</ele>
        <time>2024-11-10T14:32:28Z</time>
      </trkpt>
      <trkpt lat="45.94971" lon="1.2884">
        <ele>409.5</ele>
        <time>2024-11-10T14:32:31Z</time>
      </trkpt>
      <trkpt lat="45.94968" lon="1.2884">
        <ele>409.5</ele>
        <time>2024-11-10T14:32:34Z</time>
      </trkpt>
      <trkpt lat="45.94966" lon="1.28839">
        <ele>409.6</ele>
        <time>2024-11-10T14:32:37Z</time>
      </trkpt>
      <trkpt lat="45.94963" lon="1.2884">
        <ele>409.6</ele>
        <time>2024-11-10T14:32:43Z</time>
      </trkpt>
      <trkpt lat="45.94964" lon="1.28841">
        <ele>409.6</ele>
        <time>2024-11-10T14:32:47Z</time>
      </trkpt>
      <trkpt lat="45.94965" lon="1.2884">
        <ele>409.6</ele>
        <time>2024-11-10T14:32:48Z</time>
      </trkpt>
      <trkpt lat="45.94968" lon="1.28838">
        <ele>409.6</ele>
        <time>2024-11-10T14:32:49Z</time>
      </trkpt>
      <trkpt lat="45.94972" lon="1.28836">
        <ele>409.5</ele>
        <time>2024-11-10T14:32:50Z</time>
      </trkpt>
      <trkpt lat="45.94976" lon="1.28834">
        <ele>409.5</ele>
        <time>2024-11-10T14:32:53Z</time>
      </trkpt>
      <trkpt lat="45.9498" lon="1.28832">
        <ele>409.3</ele>
        <time>2024-11-10T14:32:55Z</time>
      </trkpt>
      <trkpt lat="45.94983" lon="1.2883">
        <ele>409.1</ele>
        <time>2024-11-10T14:32:56Z</time>
      </trkpt>
      <trkpt lat="45.94987" lon="1.28828">
        <ele>408.9</ele>
        <time>2024-11-10T14:32:57Z</time>
      </trkpt>
      <trkpt lat="45.94989" lon="1.28825">
        <ele>408.7</ele>
        <time>2024-11-10T14:32:58Z</time>
      </trkpt>
      <trkpt lat="45.94992" lon="1.28822">
        <ele>408.3</ele>
        <time>2024-11-10T14:32:59Z</time>
      </trkpt>
      <trkpt lat="45.94994" lon="1.28819">
        <ele>408.1</ele>
        <time>2024-11-10T14:33:00Z</time>
      </trkpt>
      <trkpt lat="45.94996" lon="1.28814">
        <ele>407.6</ele>
        <time>2024-11-10T14:33:01Z</time>
      </trkpt>
      <trkpt lat="45.94997" lon="1.2881">
        <ele>407.4</ele>
        <time>2024-11-10T14:33:02Z</time>
      </trkpt>
      <trkpt lat="45.94999" lon="1.28806">
        <ele>407</ele>
        <time>2024-11-10T14:33:03Z</time>
      </trkpt>
      <trkpt lat="45.94999" lon="1.28801">
        <ele>406.7</ele>
        <time>2024-11-10T14:33:04Z</time>
      </trkpt>
      <trkpt lat="45.95" lon="1.28793">
        <ele>406.2</ele>
        <time>2024-11-10T14:33:06Z</time>
      </trkpt>
      <trkpt lat="45.95001" lon="1.28788">
        <ele>405.9</ele>
        <time>2024-11-10T14:33:07Z</time>
      </trkpt>
      <trkpt lat="45.95002" lon="1.28782">
        <ele>405.6</ele>
        <time>2024-11-10T14:33:08Z</time>
      </trkpt>
      <trkpt lat="45.95003" lon="1.28776">
        <ele>405.4</ele>
        <time>2024-11-10T14:33:09Z</time>
      </trkpt>
      <trkpt lat="45.95004" lon="1.28771">
        <ele>405.2</ele>
        <time>2024-11-10T14:33:10Z</time>
      </trkpt>
      <trkpt lat="45.95008" lon="1.28767">
        <ele>405.1</ele>
        <time>2024-11-10T14:33:11Z</time>
      </trkpt>
      <trkpt lat="45.95011" lon="1.28764">
        <ele>405.1</ele>
        <time>2024-11-10T14:33:12Z</time>
      </trkpt>
      <trkpt lat="45.95014" lon="1.28761">
        <ele>405.1</ele>
        <time>2024-11-10T14:33:13Z</time>
      </trkpt>
      <trkpt lat="45.95017" lon="1.28759">
        <ele>405.1</ele>
        <time>2024-11-10T14:33:14Z</time>
      </trkpt>
      <trkpt lat="45.95021" lon="1.28758">
        <ele>405.3</ele>
        <time>2024-11-10T14:33:15Z</time>
      </trkpt>
      <trkpt lat="45.95024" lon="1.28757">
        <ele>405.4</ele>
        <time>2024-11-10T14:33:16Z</time>
      </trkpt>
      <trkpt lat="45.95029" lon="1.28756">
        <ele>405.7</ele>
        <time>2024-11-10T14:33:18Z</time>
      </trkpt>
      <trkpt lat="45.95032" lon="1.28755">
        <ele>406</ele>
        <time>2024-11-10T14:33:19Z</time>
      </trkpt>
      <trkpt lat="45.95035" lon="1.28752">
        <ele>406.2</ele>
        <time>2024-11-10T14:33:20Z</time>
      </trkpt>
      <trkpt lat="45.95036" lon="1.28748">
        <ele>406.7</ele>
        <time>2024-11-10T14:33:21Z</time>
      </trkpt>
      <trkpt lat="45.95036" lon="1.28743">
        <ele>407.2</ele>
        <time>2024-11-10T14:33:23Z</time>
      </trkpt>
      <trkpt lat="45.95037" lon="1.28737">
        <ele>407.9</ele>
        <time>2024-11-10T14:33:25Z</time>
      </trkpt>
      <trkpt lat="45.9504" lon="1.28731">
        <ele>408.7</ele>
        <time>2024-11-10T14:33:27Z</time>
      </trkpt>
      <trkpt lat="45.95043" lon="1.28727">
        <ele>409.4</ele>
        <time>2024-11-10T14:33:29Z</time>
      </trkpt>
      <trkpt lat="45.95046" lon="1.28724">
        <ele>410</ele>
        <time>2024-11-10T14:33:31Z</time>
      </trkpt>
      <trkpt lat="45.95049" lon="1.28721">
        <ele>410.6</ele>
        <time>2024-11-10T14:33:33Z</time>
      </trkpt>
      <trkpt lat="45.95052" lon="1.28718">
        <ele>411.2</ele>
        <time>2024-11-10T14:33:35Z</time>
      </trkpt>
      <trkpt lat="45.95056" lon="1.28716">
        <ele>412</ele>
        <time>2024-11-10T14:33:37Z</time>
      </trkpt>
      <trkpt lat="45.95059" lon="1.28713">
        <ele>412.6</ele>
        <time>2024-11-10T14:33:39Z</time>
      </trkpt>
      <trkpt lat="45.95062" lon="1.28711">
        <ele>413.2</ele>
        <time>2024-11-10T14:33:40Z</time>
      </trkpt>
      <trkpt lat="45.95065" lon="1.28707">
        <ele>414</ele>
        <time>2024-11-10T14:33:42Z</time>
      </trkpt>
      <trkpt lat="45.95067" lon="1.28703">
        <ele>414.6</ele>
        <time>2024-11-10T14:33:44Z</time>
      </trkpt>
      <trkpt lat="45.9507" lon="1.28698">
        <ele>415.4</ele>
        <time>2024-11-10T14:33:46Z</time>
      </trkpt>
      <trkpt lat="45.95072" lon="1.28694">
        <ele>416.1</ele>
        <time>2024-11-10T14:33:48Z</time>
      </trkpt>
      <trkpt lat="45.95074" lon="1.28689">
        <ele>416.8</ele>
        <time>2024-11-10T14:33:50Z</time>
      </trkpt>
      <trkpt lat="45.95075" lon="1.28684">
        <ele>417.4</ele>
        <time>2024-11-10T14:33:52Z</time>
      </trkpt>
      <trkpt lat="45.95075" lon="1.28678">
        <ele>418</ele>
        <time>2024-11-10T14:33:54Z</time>
      </trkpt>
      <trkpt lat="45.95076" lon="1.28671">
        <ele>418.6</ele>
        <time>2024-11-10T14:33:56Z</time>
      </trkpt>
      <trkpt lat="45.95077" lon="1.28666">
        <ele>419</ele>
        <time>2024-11-10T14:33:57Z</time>
      </trkpt>
      <trkpt lat="45.95077" lon="1.28661">
        <ele>419.3</ele>
        <time>2024-11-10T14:33:58Z</time>
      </trkpt>
      <trkpt lat="45.95076" lon="1.28657">
        <ele>419.5</ele>
        <time>2024-11-10T14:33:59Z</time>
      </trkpt>
      <trkpt lat="45.95075" lon="1.28653">
        <ele>419.6</ele>
        <time>2024-11-10T14:34:00Z</time>
      </trkpt>
      <trkpt lat="45.95074" lon="1.28647">
        <ele>419.8</ele>
        <time>2024-11-10T14:34:02Z</time>
      </trkpt>
      <trkpt lat="45.95074" lon="1.28642">
        <ele>419.9</ele>
        <time>2024-11-10T14:34:06Z</time>
      </trkpt>
      <trkpt lat="45.95071" lon="1.28638">
        <ele>420</ele>
        <time>2024-11-10T14:34:23Z</time>
      </trkpt>
      <trkpt lat="45.95069" lon="1.28635">
        <ele>420</ele>
        <time>2024-11-10T14:34:30Z</time>
      </trkpt>
      <trkpt lat="45.95068" lon="1.2863">
        <ele>419.9</ele>
        <time>2024-11-10T14:34:32Z</time>
      </trkpt>
      <trkpt lat="45.95066" lon="1.28625">
        <ele>419.8</ele>
        <time>2024-11-10T14:34:34Z</time>
      </trkpt>
      <trkpt lat="45.95066" lon="1.28619">
        <ele>419.6</ele>
        <time>2024-11-10T14:34:36Z</time>
      </trkpt>
      <trkpt lat="45.95066" lon="1.28614">
        <ele>419.3</ele>
        <time>2024-11-10T14:34:37Z</time>
      </trkpt>
      <trkpt lat="45.95065" lon="1.28608">
        <ele>419</ele>
        <time>2024-11-10T14:34:38Z</time>
      </trkpt>
      <trkpt lat="45.95065" lon="1.28601">
        <ele>418.5</ele>
        <time>2024-11-10T14:34:39Z</time>
      </trkpt>
      <trkpt lat="45.95065" lon="1.28593">
        <ele>418.1</ele>
        <time>2024-11-10T14:34:40Z</time>
      </trkpt>
      <trkpt lat="45.95064" lon="1.28585">
        <ele>417.7</ele>
        <time>2024-11-10T14:34:41Z</time>
      </trkpt>
      <trkpt lat="45.95063" lon="1.28577">
        <ele>417.4</ele>
        <time>2024-11-10T14:34:42Z</time>
      </trkpt>
      <trkpt lat="45.95061" lon="1.28569">
        <ele>417.2</ele>
        <time>2024-11-10T14:34:43Z</time>
      </trkpt>
      <trkpt lat="45.9506" lon="1.28562">
        <ele>417.2</ele>
        <time>2024-11-10T14:34:44Z</time>
      </trkpt>
      <trkpt lat="45.95058" lon="1.28555">
        <ele>417.2</ele>
        <time>2024-11-10T14:34:45Z</time>
      </trkpt>
      <trkpt lat="45.95057" lon="1.28549">
        <ele>417.3</ele>
        <time>2024-11-10T14:34:46Z</time>
      </trkpt>
      <trkpt lat="45.95055" lon="1.28543">
        <ele>417.5</ele>
        <time>2024-11-10T14:34:47Z</time>
      </trkpt>
      <trkpt lat="45.95053" lon="1.28538">
        <ele>417.7</ele>
        <time>2024-11-10T14:34:48Z</time>
      </trkpt>
      <trkpt lat="45.95052" lon="1.28533">
        <ele>417.9</ele>
        <time>2024-11-10T14:34:49Z</time>
      </trkpt>
      <trkpt lat="45.9505" lon="1.28528">
        <ele>418.3</ele>
        <time>2024-11-10T14:34:50Z</time>
      </trkpt>
      <trkpt lat="45.95048" lon="1.28523">
        <ele>418.6</ele>
        <time>2024-11-10T14:34:51Z</time>
      </trkpt>
      <trkpt lat="45.95047" lon="1.28519">
        <ele>418.9</ele>
        <time>2024-11-10T14:34:52Z</time>
      </trkpt>
      <trkpt lat="45.95046" lon="1.28515">
        <ele>419.3</ele>
        <time>2024-11-10T14:34:53Z</time>
      </trkpt>
      <trkpt lat="45.95046" lon="1.2851">
        <ele>419.7</ele>
        <time>2024-11-10T14:34:54Z</time>
      </trkpt>
      <trkpt lat="45.95046" lon="1.28506">
        <ele>420</ele>
        <time>2024-11-10T14:34:55Z</time>
      </trkpt>
      <trkpt lat="45.95044" lon="1.28501">
        <ele>420.5</ele>
        <time>2024-11-10T14:34:57Z</time>
      </trkpt>
      <trkpt lat="45.95043" lon="1.28496">
        <ele>421</ele>
        <time>2024-11-10T14:34:59Z</time>
      </trkpt>
      <trkpt lat="45.95041" lon="1.2849">
        <ele>421.7</ele>
        <time>2024-11-10T14:35:01Z</time>
      </trkpt>
      <trkpt lat="45.95041" lon="1.28484">
        <ele>422.3</ele>
        <time>2024-11-10T14:35:03Z</time>
      </trkpt>
      <trkpt lat="45.95041" lon="1.28479">
        <ele>422.8</ele>
        <time>2024-11-10T14:35:04Z</time>
      </trkpt>
      <trkpt lat="45.95041" lon="1.28475">
        <ele>423.2</ele>
        <time>2024-11-10T14:35:05Z</time>
      </trkpt>
      <trkpt lat="45.95042" lon="1.2847">
        <ele>423.7</ele>
        <time>2024-11-10T14:35:07Z</time>
      </trkpt>
      <trkpt lat="45.95041" lon="1.28465">
        <ele>424.1</ele>
        <time>2024-11-10T14:35:10Z</time>
      </trkpt>
      <trkpt lat="45.95039" lon="1.28459">
        <ele>424.6</ele>
        <time>2024-11-10T14:35:12Z</time>
      </trkpt>
      <trkpt lat="45.95036" lon="1.28455">
        <ele>424.9</ele>
        <time>2024-11-10T14:35:14Z</time>
      </trkpt>
      <trkpt lat="45.95033" lon="1.28451">
        <ele>425.1</ele>
        <time>2024-11-10T14:35:16Z</time>
      </trkpt>
      <trkpt lat="45.9503" lon="1.28447">
        <ele>425.1</ele>
        <time>2024-11-10T14:35:17Z</time>
      </trkpt>
      <trkpt lat="45.95028" lon="1.28444">
        <ele>425.1</ele>
        <time>2024-11-10T14:35:18Z</time>
      </trkpt>
      <trkpt lat="45.95024" lon="1.2844">
        <ele>424.9</ele>
        <time>2024-11-10T14:35:19Z</time>
      </trkpt>
      <trkpt lat="45.9502" lon="1.28437">
        <ele>424.7</ele>
        <time>2024-11-10T14:35:20Z</time>
      </trkpt>
      <trkpt lat="45.95016" lon="1.28435">
        <ele>424.5</ele>
        <time>2024-11-10T14:35:21Z</time>
      </trkpt>
      <trkpt lat="45.95012" lon="1.28434">
        <ele>424.4</ele>
        <time>2024-11-10T14:35:22Z</time>
      </trkpt>
      <trkpt lat="45.95007" lon="1.28432">
        <ele>424.2</ele>
        <time>2024-11-10T14:35:23Z</time>
      </trkpt>
      <trkpt lat="45.95003" lon="1.2843">
        <ele>424</ele>
        <time>2024-11-10T14:35:24Z</time>
      </trkpt>
      <trkpt lat="45.94999" lon="1.28427">
        <ele>423.9</ele>
        <time>2024-11-10T14:35:25Z</time>
      </trkpt>
      <trkpt lat="45.94995" lon="1.28425">
        <ele>423.8</ele>
        <time>2024-11-10T14:35:26Z</time>
      </trkpt>
      <trkpt lat="45.94992" lon="1.28422">
        <ele>423.7</ele>
        <time>2024-11-10T14:35:27Z</time>
      </trkpt>
      <trkpt lat="45.94988" lon="1.28419">
        <ele>423.6</ele>
        <time>2024-11-10T14:35:28Z</time>
      </trkpt>
      <trkpt lat="45.94985" lon="1.28416">
        <ele>423.5</ele>
        <time>2024-11-10T14:35:29Z</time>
      </trkpt>
      <trkpt lat="45.94982" lon="1.28413">
        <ele>423.5</ele>
        <time>2024-11-10T14:35:30Z</time>
      </trkpt>
      <trkpt lat="45.94978" lon="1.2841">
        <ele>423.4</ele>
        <time>2024-11-10T14:35:31Z</time>
      </trkpt>
      <trkpt lat="45.94975" lon="1.28407">
        <ele>423.3</ele>
        <time>2024-11-10T14:35:32Z</time>
      </trkpt>
      <trkpt lat="45.94972" lon="1.28404">
        <ele>423.3</ele>
        <time>2024-11-10T14:35:33Z</time>
      </trkpt>
      <trkpt lat="45.94969" lon="1.28401">
        <ele>423.2</ele>
        <time>2024-11-10T14:35:34Z</time>
      </trkpt>
      <trkpt lat="45.94967" lon="1.28397">
        <ele>423.2</ele>
        <time>2024-11-10T14:35:35Z</time>
      </trkpt>
      <trkpt lat="45.94964" lon="1.28394">
        <ele>423.1</ele>
        <time>2024-11-10T14:35:36Z</time>
      </trkpt>
      <trkpt lat="45.94962" lon="1.28391">
        <ele>423.1</ele>
        <time>2024-11-10T14:35:37Z</time>
      </trkpt>
      <trkpt lat="45.94959" lon="1.28388">
        <ele>423.1</ele>
        <time>2024-11-10T14:35:39Z</time>
      </trkpt>
      <trkpt lat="45.94957" lon="1.28387">
        <ele>423</ele>
        <time>2024-11-10T14:36:01Z</time>
      </trkpt>
      <trkpt lat="45.94953" lon="1.28387">
        <ele>423</ele>
        <time>2024-11-10T14:36:03Z</time>
      </trkpt>
      <trkpt lat="45.94949" lon="1.28388">
        <ele>423</ele>
        <time>2024-11-10T14:36:04Z</time>
      </trkpt>
      <trkpt lat="45.94946" lon="1.28388">
        <ele>423</ele>
        <time>2024-11-10T14:36:05Z</time>
      </trkpt>
      <trkpt lat="45.94943" lon="1.28389">
        <ele>423</ele>
        <time>2024-11-10T14:36:06Z</time>
      </trkpt>
      <trkpt lat="45.9494" lon="1.28389">
        <ele>423.1</ele>
        <time>2024-11-10T14:36:08Z</time>
      </trkpt>
      <trkpt lat="45.94936" lon="1.2839">
        <ele>423</ele>
        <time>2024-11-10T14:36:10Z</time>
      </trkpt>
      <trkpt lat="45.94932" lon="1.2839">
        <ele>423</ele>
        <time>2024-11-10T14:36:12Z</time>
      </trkpt>
      <trkpt lat="45.94929" lon="1.28391">
        <ele>422.9</ele>
        <time>2024-11-10T14:36:14Z</time>
      </trkpt>
      <trkpt lat="45.94926" lon="1.28393">
        <ele>422.9</ele>
        <time>2024-11-10T14:36:15Z</time>
      </trkpt>
      <trkpt lat="45.94923" lon="1.28395">
        <ele>422.8</ele>
        <time>2024-11-10T14:36:16Z</time>
      </trkpt>
      <trkpt lat="45.9492" lon="1.28397">
        <ele>422.7</ele>
        <time>2024-11-10T14:36:17Z</time>
      </trkpt>
      <trkpt lat="45.94917" lon="1.28399">
        <ele>422.6</ele>
        <time>2024-11-10T14:36:18Z</time>
      </trkpt>
      <trkpt lat="45.94913" lon="1.28402">
        <ele>422.5</ele>
        <time>2024-11-10T14:36:19Z</time>
      </trkpt>
      <trkpt lat="45.9491" lon="1.28404">
        <ele>422.5</ele>
        <time>2024-11-10T14:36:20Z</time>
      </trkpt>
      <trkpt lat="45.94907" lon="1.28407">
        <ele>422.4</ele>
        <time>2024-11-10T14:36:21Z</time>
      </trkpt>
      <trkpt lat="45.94904" lon="1.2841">
        <ele>422.3</ele>
        <time>2024-11-10T14:36:22Z</time>
      </trkpt>
      <trkpt lat="45.94902" lon="1.28412">
        <ele>422.3</ele>
        <time>2024-11-10T14:36:23Z</time>
      </trkpt>
      <trkpt lat="45.94899" lon="1.28415">
        <ele>422.3</ele>
        <time>2024-11-10T14:36:24Z</time>
      </trkpt>
      <trkpt lat="45.94896" lon="1.28417">
        <ele>422.3</ele>
        <time>2024-11-10T14:36:25Z</time>
      </trkpt>
      <trkpt lat="45.94894" lon="1.2842">
        <ele>422.2</ele>
        <time>2024-11-10T14:36:26Z</time>
      </trkpt>
      <trkpt lat="45.94891" lon="1.28422">
        <ele>422.2</ele>
        <time>2024-11-10T14:36:27Z</time>
      </trkpt>
      <trkpt lat="45.94888" lon="1.28425">
        <ele>422.2</ele>
        <time>2024-11-10T14:36:28Z</time>
      </trkpt>
      <trkpt lat="45.94886" lon="1.28427">
        <ele>422.2</ele>
        <time>2024-11-10T14:36:29Z</time>
      </trkpt>
      <trkpt lat="45.94883" lon="1.28428">
        <ele>422.2</ele>
        <time>2024-11-10T14:36:30Z</time>
      </trkpt>
      <trkpt lat="45.9488" lon="1.28429">
        <ele>422.2</ele>
        <time>2024-11-10T14:36:31Z</time>
      </trkpt>
      <trkpt lat="45.94877" lon="1.28431">
        <ele>422.2</ele>
        <time>2024-11-10T14:36:32Z</time>
      </trkpt>
      <trkpt lat="45.94874" lon="1.28432">
        <ele>422.2</ele>
        <time>2024-11-10T14:36:33Z</time>
      </trkpt>
      <trkpt lat="45.94872" lon="1.28434">
        <ele>422.2</ele>
        <time>2024-11-10T14:36:34Z</time>
      </trkpt>
      <trkpt lat="45.94869" lon="1.28435">
        <ele>422.2</ele>
        <time>2024-11-10T14:36:35Z</time>
      </trkpt>
      <trkpt lat="45.94866" lon="1.28436">
        <ele>422.2</ele>
        <time>2024-11-10T14:36:36Z</time>
      </trkpt>
      <trkpt lat="45.94863" lon="1.28437">
        <ele>422.1</ele>
        <time>2024-11-10T14:36:37Z</time>
      </trkpt>
      <trkpt lat="45.9486" lon="1.28438">
        <ele>422.1</ele>
        <time>2024-11-10T14:36:38Z</time>
      </trkpt>
      <trkpt lat="45.94857" lon="1.28439">
        <ele>422.1</ele>
        <time>2024-11-10T14:36:39Z</time>
      </trkpt>
      <trkpt lat="45.94854" lon="1.2844">
        <ele>422.1</ele>
        <time>2024-11-10T14:36:40Z</time>
      </trkpt>
      <trkpt lat="45.94851" lon="1.28442">
        <ele>422.1</ele>
        <time>2024-11-10T14:36:41Z</time>
      </trkpt>
      <trkpt lat="45.94848" lon="1.28442">
        <ele>422.1</ele>
        <time>2024-11-10T14:36:42Z</time>
      </trkpt>
      <trkpt lat="45.94844" lon="1.28443">
        <ele>422</ele>
        <time>2024-11-10T14:36:43Z</time>
      </trkpt>
      <trkpt lat="45.94841" lon="1.28443">
        <ele>422</ele>
        <time>2024-11-10T14:36:44Z</time>
      </trkpt>
      <trkpt lat="45.94837" lon="1.28444">
        <ele>422</ele>
        <time>2024-11-10T14:36:45Z</time>
      </trkpt>
      <trkpt lat="45.94834" lon="1.28444">
        <ele>422</ele>
        <time>2024-11-10T14:36:46Z</time>
      </trkpt>
      <trkpt lat="45.9483" lon="1.28444">
        <ele>422</ele>
        <time>2024-11-10T14:36:47Z</time>
      </trkpt>
      <trkpt lat="45.94826" lon="1.28443">
        <ele>422</ele>
        <time>2024-11-10T14:36:48Z</time>
      </trkpt>
      <trkpt lat="45.94823" lon="1.28442">
        <ele>422</ele>
        <time>2024-11-10T14:36:49Z</time>
      </trkpt>
      <trkpt lat="45.94819" lon="1.28441">
        <ele>422</ele>
        <time>2024-11-10T14:36:50Z</time>
      </trkpt>
      <trkpt lat="45.94815" lon="1.2844">
        <ele>422</ele>
        <time>2024-11-10T14:36:51Z</time>
      </trkpt>
      <trkpt lat="45.94812" lon="1.28439">
        <ele>422</ele>
        <time>2024-11-10T14:36:52Z</time>
      </trkpt>
      <trkpt lat="45.94809" lon="1.28438">
        <ele>422</ele>
        <time>2024-11-10T14:36:53Z</time>
      </trkpt>
      <trkpt lat="45.94806" lon="1.28438">
        <ele>422</ele>
        <time>2024-11-10T14:36:54Z</time>
      </trkpt>
      <trkpt lat="45.94803" lon="1.28437">
        <ele>422</ele>
        <time>2024-11-10T14:36:55Z</time>
      </trkpt>
      <trkpt lat="45.94799" lon="1.28436">
        <ele>422</ele>
        <time>2024-11-10T14:36:56Z</time>
      </trkpt>
      <trkpt lat="45.94796" lon="1.28436">
        <ele>421.9</ele>
        <time>2024-11-10T14:36:57Z</time>
      </trkpt>
      <trkpt lat="45.94793" lon="1.28436">
        <ele>421.9</ele>
        <time>2024-11-10T14:36:58Z</time>
      </trkpt>
      <trkpt lat="45.94789" lon="1.28435">
        <ele>421.9</ele>
        <time>2024-11-10T14:36:59Z</time>
      </trkpt>
      <trkpt lat="45.94785" lon="1.28434">
        <ele>421.9</ele>
        <time>2024-11-10T14:37:00Z</time>
      </trkpt>
      <trkpt lat="45.94782" lon="1.28434">
        <ele>421.9</ele>
        <time>2024-11-10T14:37:01Z</time>
      </trkpt>
      <trkpt lat="45.94778" lon="1.28434">
        <ele>421.8</ele>
        <time>2024-11-10T14:37:02Z</time>
      </trkpt>
      <trkpt lat="45.94775" lon="1.28434">
        <ele>421.8</ele>
        <time>2024-11-10T14:37:03Z</time>
      </trkpt>
      <trkpt lat="45.94771" lon="1.28433">
        <ele>421.8</ele>
        <time>2024-11-10T14:37:04Z</time>
      </trkpt>
      <trkpt lat="45.94768" lon="1.28432">
        <ele>421.8</ele>
        <time>2024-11-10T14:37:05Z</time>
      </trkpt>
      <trkpt lat="45.94764" lon="1.28431">
        <ele>421.8</ele>
        <time>2024-11-10T14:37:06Z</time>
      </trkpt>
      <trkpt lat="45.94761" lon="1.2843">
        <ele>421.7</ele>
        <time>2024-11-10T14:37:07Z</time>
      </trkpt>
      <trkpt lat="45.94758" lon="1.28429">
        <ele>421.7</ele>
        <time>2024-11-10T14:37:08Z</time>
      </trkpt>
      <trkpt lat="45.94754" lon="1.28428">
        <ele>421.7</ele>
        <time>2024-11-10T14:37:09Z</time>
      </trkpt>
      <trkpt lat="45.94751" lon="1.28427">
        <ele>421.7</ele>
        <time>2024-11-10T14:37:10Z</time>
      </trkpt>
      <trkpt lat="45.94747" lon="1.28425">
        <ele>421.7</ele>
        <time>2024-11-10T14:37:11Z</time>
      </trkpt>
      <trkpt lat="45.94743" lon="1.28424">
        <ele>421.7</ele>
        <time>2024-11-10T14:37:12Z</time>
      </trkpt>
      <trkpt lat="45.94739" lon="1.28423">
        <ele>421.8</ele>
        <time>2024-11-10T14:37:13Z</time>
      </trkpt>
      <trkpt lat="45.94735" lon="1.28422">
        <ele>421.8</ele>
        <time>2024-11-10T14:37:14Z</time>
      </trkpt>
      <trkpt lat="45.94731" lon="1.28421">
        <ele>421.8</ele>
        <time>2024-11-10T14:37:15Z</time>
      </trkpt>
      <trkpt lat="45.94728" lon="1.28421">
        <ele>421.8</ele>
        <time>2024-11-10T14:37:16Z</time>
      </trkpt>
      <trkpt lat="45.94725" lon="1.2842">
        <ele>421.8</ele>
        <time>2024-11-10T14:37:17Z</time>
      </trkpt>
      <trkpt lat="45.94721" lon="1.28419">
        <ele>421.8</ele>
        <time>2024-11-10T14:37:18Z</time>
      </trkpt>
      <trkpt lat="45.94717" lon="1.28417">
        <ele>421.8</ele>
        <time>2024-11-10T14:37:19Z</time>
      </trkpt>
      <trkpt lat="45.94714" lon="1.28414">
        <ele>421.8</ele>
        <time>2024-11-10T14:37:20Z</time>
      </trkpt>
      <trkpt lat="45.94711" lon="1.28411">
        <ele>421.7</ele>
        <time>2024-11-10T14:37:21Z</time>
      </trkpt>
      <trkpt lat="45.94708" lon="1.28406">
        <ele>421.7</ele>
        <time>2024-11-10T14:37:22Z</time>
      </trkpt>
      <trkpt lat="45.94706" lon="1.28401">
        <ele>421.6</ele>
        <time>2024-11-10T14:37:23Z</time>
      </trkpt>
      <trkpt lat="45.94704" lon="1.28396">
        <ele>421.6</ele>
        <time>2024-11-10T14:37:24Z</time>
      </trkpt>
      <trkpt lat="45.94702" lon="1.28389">
        <ele>421.6</ele>
        <time>2024-11-10T14:37:25Z</time>
      </trkpt>
      <trkpt lat="45.947" lon="1.28382">
        <ele>421.7</ele>
        <time>2024-11-10T14:37:26Z</time>
      </trkpt>
      <trkpt lat="45.94698" lon="1.28377">
        <ele>421.7</ele>
        <time>2024-11-10T14:37:27Z</time>
      </trkpt>
      <trkpt lat="45.94696" lon="1.28371">
        <ele>421.8</ele>
        <time>2024-11-10T14:37:28Z</time>
      </trkpt>
      <trkpt lat="45.94694" lon="1.28366">
        <ele>421.8</ele>
        <time>2024-11-10T14:37:29Z</time>
      </trkpt>
      <trkpt lat="45.94693" lon="1.28361">
        <ele>421.8</ele>
        <time>2024-11-10T14:37:30Z</time>
      </trkpt>
      <trkpt lat="45.94691" lon="1.28356">
        <ele>421.9</ele>
        <time>2024-11-10T14:37:31Z</time>
      </trkpt>
      <trkpt lat="45.94689" lon="1.28351">
        <ele>421.9</ele>
        <time>2024-11-10T14:37:32Z</time>
      </trkpt>
      <trkpt lat="45.94688" lon="1.28346">
        <ele>421.9</ele>
        <time>2024-11-10T14:37:33Z</time>
      </trkpt>
      <trkpt lat="45.94687" lon="1.28341">
        <ele>422</ele>
        <time>2024-11-10T14:37:34Z</time>
      </trkpt>
      <trkpt lat="45.94686" lon="1.28336">
        <ele>422</ele>
        <time>2024-11-10T14:37:35Z</time>
      </trkpt>
      <trkpt lat="45.94686" lon="1.28331">
        <ele>422</ele>
        <time>2024-11-10T14:37:36Z</time>
      </trkpt>
      <trkpt lat="45.94687" lon="1.28326">
        <ele>422.1</ele>
        <time>2024-11-10T14:37:37Z</time>
      </trkpt>
      <trkpt lat="45.94688" lon="1.28321">
        <ele>422.1</ele>
        <time>2024-11-10T14:37:38Z</time>
      </trkpt>
      <trkpt lat="45.94689" lon="1.28315">
        <ele>422.1</ele>
        <time>2024-11-10T14:37:39Z</time>
      </trkpt>
      <trkpt lat="45.9469" lon="1.2831">
        <ele>422.2</ele>
        <time>2024-11-10T14:37:40Z</time>
      </trkpt>
      <trkpt lat="45.94689" lon="1.28305">
        <ele>422.3</ele>
        <time>2024-11-10T14:37:41Z</time>
      </trkpt>
      <trkpt lat="45.94687" lon="1.28301">
        <ele>422.5</ele>
        <time>2024-11-10T14:37:42Z</time>
      </trkpt>
      <trkpt lat="45.94684" lon="1.28298">
        <ele>422.8</ele>
        <time>2024-11-10T14:37:43Z</time>
      </trkpt>
      <trkpt lat="45.94681" lon="1.28297">
        <ele>423</ele>
        <time>2024-11-10T14:37:44Z</time>
      </trkpt>
      <trkpt lat="45.94678" lon="1.28297">
        <ele>423.2</ele>
        <time>2024-11-10T14:37:45Z</time>
      </trkpt>
      <trkpt lat="45.94674" lon="1.28297">
        <ele>423.6</ele>
        <time>2024-11-10T14:37:46Z</time>
      </trkpt>
      <trkpt lat="45.9467" lon="1.28298">
        <ele>423.9</ele>
        <time>2024-11-10T14:37:48Z</time>
      </trkpt>
      <trkpt lat="45.94666" lon="1.283">
        <ele>424.3</ele>
        <time>2024-11-10T14:37:49Z</time>
      </trkpt>
      <trkpt lat="45.94663" lon="1.28302">
        <ele>424.6</ele>
        <time>2024-11-10T14:37:50Z</time>
      </trkpt>
      <trkpt lat="45.9466" lon="1.28303">
        <ele>424.9</ele>
        <time>2024-11-10T14:37:51Z</time>
      </trkpt>
      <trkpt lat="45.94656" lon="1.28304">
        <ele>425.2</ele>
        <time>2024-11-10T14:37:52Z</time>
      </trkpt>
      <trkpt lat="45.94653" lon="1.28305">
        <ele>425.5</ele>
        <time>2024-11-10T14:37:53Z</time>
      </trkpt>
      <trkpt lat="45.9465" lon="1.28307">
        <ele>425.8</ele>
        <time>2024-11-10T14:37:54Z</time>
      </trkpt>
      <trkpt lat="45.94647" lon="1.28308">
        <ele>426.1</ele>
        <time>2024-11-10T14:37:55Z</time>
      </trkpt>
      <trkpt lat="45.94644" lon="1.28309">
        <ele>426.4</ele>
        <time>2024-11-10T14:37:56Z</time>
      </trkpt>
      <trkpt lat="45.94639" lon="1.2831">
        <ele>426.9</ele>
        <time>2024-11-10T14:37:58Z</time>
      </trkpt>
      <trkpt lat="45.94634" lon="1.2831">
        <ele>427.4</ele>
        <time>2024-11-10T14:38:00Z</time>
      </trkpt>
      <trkpt lat="45.94631" lon="1.2831">
        <ele>427.8</ele>
        <time>2024-11-10T14:38:01Z</time>
      </trkpt>
      <trkpt lat="45.94628" lon="1.28309">
        <ele>428</ele>
        <time>2024-11-10T14:38:02Z</time>
      </trkpt>
      <trkpt lat="45.94624" lon="1.28307">
        <ele>428.4</ele>
        <time>2024-11-10T14:38:04Z</time>
      </trkpt>
      <trkpt lat="45.9462" lon="1.28306">
        <ele>428.8</ele>
        <time>2024-11-10T14:38:05Z</time>
      </trkpt>
      <trkpt lat="45.94617" lon="1.28304">
        <ele>429</ele>
        <time>2024-11-10T14:38:07Z</time>
      </trkpt>
      <trkpt lat="45.94612" lon="1.28302">
        <ele>429.4</ele>
        <time>2024-11-10T14:38:09Z</time>
      </trkpt>
      <trkpt lat="45.94608" lon="1.28299">
        <ele>429.7</ele>
        <time>2024-11-10T14:38:11Z</time>
      </trkpt>
      <trkpt lat="45.94603" lon="1.28297">
        <ele>430</ele>
        <time>2024-11-10T14:38:13Z</time>
      </trkpt>
      <trkpt lat="45.94599" lon="1.28294">
        <ele>430.3</ele>
        <time>2024-11-10T14:38:15Z</time>
      </trkpt>
      <trkpt lat="45.94594" lon="1.28291">
        <ele>430.6</ele>
        <time>2024-11-10T14:38:17Z</time>
      </trkpt>
      <trkpt lat="45.9459" lon="1.28287">
        <ele>430.8</ele>
        <time>2024-11-10T14:38:19Z</time>
      </trkpt>
      <trkpt lat="45.94586" lon="1.28284">
        <ele>431</ele>
        <time>2024-11-10T14:38:21Z</time>
      </trkpt>
      <trkpt lat="45.94582" lon="1.2828">
        <ele>431.1</ele>
        <time>2024-11-10T14:38:23Z</time>
      </trkpt>
      <trkpt lat="45.94578" lon="1.28276">
        <ele>431.3</ele>
        <time>2024-11-10T14:38:25Z</time>
      </trkpt>
      <trkpt lat="45.94574" lon="1.28272">
        <ele>431.4</ele>
        <time>2024-11-10T14:38:27Z</time>
      </trkpt>
      <trkpt lat="45.94571" lon="1.28267">
        <ele>431.5</ele>
        <time>2024-11-10T14:38:29Z</time>
      </trkpt>
      <trkpt lat="45.94568" lon="1.28263">
        <ele>431.5</ele>
        <time>2024-11-10T14:38:31Z</time>
      </trkpt>
      <trkpt lat="45.94564" lon="1.28262">
        <ele>431.5</ele>
        <time>2024-11-10T14:38:33Z</time>
      </trkpt>
      <trkpt lat="45.94561" lon="1.28261">
        <ele>431.5</ele>
        <time>2024-11-10T14:38:34Z</time>
      </trkpt>
      <trkpt lat="45.94559" lon="1.28258">
        <ele>431.5</ele>
        <time>2024-11-10T14:38:35Z</time>
      </trkpt>
      <trkpt lat="45.94558" lon="1.28253">
        <ele>431.5</ele>
        <time>2024-11-10T14:38:36Z</time>
      </trkpt>
      <trkpt lat="45.94558" lon="1.28249">
        <ele>431.5</ele>
        <time>2024-11-10T14:38:37Z</time>
      </trkpt>
      <trkpt lat="45.94558" lon="1.28244">
        <ele>431.5</ele>
        <time>2024-11-10T14:38:38Z</time>
      </trkpt>
      <trkpt lat="45.94555" lon="1.28243">
        <ele>431.5</ele>
        <time>2024-11-10T14:38:40Z</time>
      </trkpt>
      <trkpt lat="45.94554" lon="1.28247">
        <ele>431.5</ele>
        <time>2024-11-10T14:38:42Z</time>
      </trkpt>
      <trkpt lat="45.94555" lon="1.2825">
        <ele>431.5</ele>
        <time>2024-11-10T14:38:43Z</time>
      </trkpt>
      <trkpt lat="45.94558" lon="1.28253">
        <ele>431.5</ele>
        <time>2024-11-10T14:38:45Z</time>
      </trkpt>
      <trkpt lat="45.94561" lon="1.2825">
        <ele>431.5</ele>
        <time>2024-11-10T14:38:47Z</time>
      </trkpt>
      <trkpt lat="45.94561" lon="1.28247">
        <ele>431.5</ele>
        <time>2024-11-10T14:38:48Z</time>
      </trkpt>
      <trkpt lat="45.94559" lon="1.28244">
        <ele>431.5</ele>
        <time>2024-11-10T14:38:49Z</time>
      </trkpt>
      <trkpt lat="45.94556" lon="1.28242">
        <ele>431.5</ele>
        <time>2024-11-10T14:38:50Z</time>
      </trkpt>
      <trkpt lat="45.94552" lon="1.2824">
        <ele>431.5</ele>
        <time>2024-11-10T14:38:51Z</time>
      </trkpt>
      <trkpt lat="45.94549" lon="1.28238">
        <ele>431.5</ele>
        <time>2024-11-10T14:38:52Z</time>
      </trkpt>
      <trkpt lat="45.94546" lon="1.28236">
        <ele>431.5</ele>
        <time>2024-11-10T14:38:53Z</time>
      </trkpt>
      <trkpt lat="45.94543" lon="1.28233">
        <ele>431.4</ele>
        <time>2024-11-10T14:38:54Z</time>
      </trkpt>
      <trkpt lat="45.94541" lon="1.2823">
        <ele>431.4</ele>
        <time>2024-11-10T14:38:55Z</time>
      </trkpt>
      <trkpt lat="45.94539" lon="1.28227">
        <ele>431.4</ele>
        <time>2024-11-10T14:38:56Z</time>
      </trkpt>
      <trkpt lat="45.94537" lon="1.28224">
        <ele>431.5</ele>
        <time>2024-11-10T14:38:57Z</time>
      </trkpt>
      <trkpt lat="45.94535" lon="1.28221">
        <ele>431.5</ele>
        <time>2024-11-10T14:38:58Z</time>
      </trkpt>
      <trkpt lat="45.94532" lon="1.28218">
        <ele>431.5</ele>
        <time>2024-11-10T14:38:59Z</time>
      </trkpt>
      <trkpt lat="45.9453" lon="1.28216">
        <ele>431.5</ele>
        <time>2024-11-10T14:39:00Z</time>
      </trkpt>
      <trkpt lat="45.94528" lon="1.28212">
        <ele>431.5</ele>
        <time>2024-11-10T14:39:01Z</time>
      </trkpt>
      <trkpt lat="45.94526" lon="1.28209">
        <ele>431.5</ele>
        <time>2024-11-10T14:39:02Z</time>
      </trkpt>
      <trkpt lat="45.94524" lon="1.28204">
        <ele>431.5</ele>
        <time>2024-11-10T14:39:04Z</time>
      </trkpt>
      <trkpt lat="45.9452" lon="1.28199">
        <ele>431.4</ele>
        <time>2024-11-10T14:39:06Z</time>
      </trkpt>
      <trkpt lat="45.94518" lon="1.28194">
        <ele>431.3</ele>
        <time>2024-11-10T14:39:07Z</time>
      </trkpt>
      <trkpt lat="45.94517" lon="1.2819">
        <ele>431.3</ele>
        <time>2024-11-10T14:39:08Z</time>
      </trkpt>
      <trkpt lat="45.94515" lon="1.28186">
        <ele>431.2</ele>
        <time>2024-11-10T14:39:09Z</time>
      </trkpt>
      <trkpt lat="45.94514" lon="1.28183">
        <ele>431.1</ele>
        <time>2024-11-10T14:39:10Z</time>
      </trkpt>
      <trkpt lat="45.94512" lon="1.28179">
        <ele>430.9</ele>
        <time>2024-11-10T14:39:11Z</time>
      </trkpt>
      <trkpt lat="45.9451" lon="1.28176">
        <ele>430.8</ele>
        <time>2024-11-10T14:39:12Z</time>
      </trkpt>
      <trkpt lat="45.94508" lon="1.28172">
        <ele>430.6</ele>
        <time>2024-11-10T14:39:13Z</time>
      </trkpt>
      <trkpt lat="45.94506" lon="1.28169">
        <ele>430.4</ele>
        <time>2024-11-10T14:39:14Z</time>
      </trkpt>
      <trkpt lat="45.94505" lon="1.28166">
        <ele>430.2</ele>
        <time>2024-11-10T14:39:15Z</time>
      </trkpt>
      <trkpt lat="45.94503" lon="1.28163">
        <ele>430</ele>
        <time>2024-11-10T14:39:16Z</time>
      </trkpt>
      <trkpt lat="45.94501" lon="1.28159">
        <ele>429.7</ele>
        <time>2024-11-10T14:39:17Z</time>
      </trkpt>
      <trkpt lat="45.94498" lon="1.28154">
        <ele>429.2</ele>
        <time>2024-11-10T14:39:19Z</time>
      </trkpt>
      <trkpt lat="45.94495" lon="1.28148">
        <ele>428.7</ele>
        <time>2024-11-10T14:39:21Z</time>
      </trkpt>
      <trkpt lat="45.94493" lon="1.28142">
        <ele>428.2</ele>
        <time>2024-11-10T14:39:23Z</time>
      </trkpt>
      <trkpt lat="45.94493" lon="1.28137">
        <ele>427.8</ele>
        <time>2024-11-10T14:39:24Z</time>
      </trkpt>
      <trkpt lat="45.94495" lon="1.28133">
        <ele>427.7</ele>
        <time>2024-11-10T14:39:25Z</time>
      </trkpt>
      <trkpt lat="45.94497" lon="1.28129">
        <ele>427.5</ele>
        <time>2024-11-10T14:39:26Z</time>
      </trkpt>
      <trkpt lat="45.94499" lon="1.28126">
        <ele>427.5</ele>
        <time>2024-11-10T14:39:27Z</time>
      </trkpt>
      <trkpt lat="45.94502" lon="1.28123">
        <ele>427.4</ele>
        <time>2024-11-10T14:39:28Z</time>
      </trkpt>
      <trkpt lat="45.94505" lon="1.28119">
        <ele>427.3</ele>
        <time>2024-11-10T14:39:29Z</time>
      </trkpt>
      <trkpt lat="45.94508" lon="1.28115">
        <ele>427.2</ele>
        <time>2024-11-10T14:39:30Z</time>
      </trkpt>
      <trkpt lat="45.94511" lon="1.28111">
        <ele>427.2</ele>
        <time>2024-11-10T14:39:31Z</time>
      </trkpt>
      <trkpt lat="45.94513" lon="1.28107">
        <ele>427.2</ele>
        <time>2024-11-10T14:39:32Z</time>
      </trkpt>
      <trkpt lat="45.94516" lon="1.28104">
        <ele>427.1</ele>
        <time>2024-11-10T14:39:33Z</time>
      </trkpt>
      <trkpt lat="45.94518" lon="1.281">
        <ele>427.1</ele>
        <time>2024-11-10T14:39:34Z</time>
      </trkpt>
      <trkpt lat="45.94521" lon="1.28097">
        <ele>427.1</ele>
        <time>2024-11-10T14:39:35Z</time>
      </trkpt>
      <trkpt lat="45.94523" lon="1.28094">
        <ele>427.1</ele>
        <time>2024-11-10T14:39:36Z</time>
      </trkpt>
      <trkpt lat="45.94526" lon="1.28091">
        <ele>427.1</ele>
        <time>2024-11-10T14:39:37Z</time>
      </trkpt>
      <trkpt lat="45.94528" lon="1.28089">
        <ele>427.1</ele>
        <time>2024-11-10T14:39:38Z</time>
      </trkpt>
      <trkpt lat="45.94531" lon="1.28086">
        <ele>427.1</ele>
        <time>2024-11-10T14:39:39Z</time>
      </trkpt>
      <trkpt lat="45.94533" lon="1.28084">
        <ele>427</ele>
        <time>2024-11-10T14:39:40Z</time>
      </trkpt>
      <trkpt lat="45.94535" lon="1.28081">
        <ele>426.9</ele>
        <time>2024-11-10T14:39:41Z</time>
      </trkpt>
      <trkpt lat="45.94536" lon="1.28077">
        <ele>426.9</ele>
        <time>2024-11-10T14:39:42Z</time>
      </trkpt>
      <trkpt lat="45.94538" lon="1.28073">
        <ele>426.7</ele>
        <time>2024-11-10T14:39:43Z</time>
      </trkpt>
      <trkpt lat="45.9454" lon="1.28069">
        <ele>426.6</ele>
        <time>2024-11-10T14:39:44Z</time>
      </trkpt>
      <trkpt lat="45.94541" lon="1.28065">
        <ele>426.5</ele>
        <time>2024-11-10T14:39:45Z</time>
      </trkpt>
      <trkpt lat="45.9454" lon="1.28061">
        <ele>426.3</ele>
        <time>2024-11-10T14:39:46Z</time>
      </trkpt>
      <trkpt lat="45.94539" lon="1.28058">
        <ele>426.2</ele>
        <time>2024-11-10T14:39:47Z</time>
      </trkpt>
      <trkpt lat="45.94537" lon="1.28054">
        <ele>426</ele>
        <time>2024-11-10T14:39:48Z</time>
      </trkpt>
      <trkpt lat="45.94534" lon="1.28049">
        <ele>425.7</ele>
        <time>2024-11-10T14:39:49Z</time>
      </trkpt>
      <trkpt lat="45.94534" lon="1.28042">
        <ele>425.3</ele>
        <time>2024-11-10T14:39:50Z</time>
      </trkpt>
      <trkpt lat="45.94532" lon="1.28036">
        <ele>425</ele>
        <time>2024-11-10T14:39:51Z</time>
      </trkpt>
      <trkpt lat="45.94529" lon="1.28031">
        <ele>424.7</ele>
        <time>2024-11-10T14:39:52Z</time>
      </trkpt>
      <trkpt lat="45.94525" lon="1.28026">
        <ele>424.3</ele>
        <time>2024-11-10T14:39:53Z</time>
      </trkpt>
      <trkpt lat="45.9452" lon="1.28022">
        <ele>423.9</ele>
        <time>2024-11-10T14:39:54Z</time>
      </trkpt>
      <trkpt lat="45.94515" lon="1.2802">
        <ele>423.6</ele>
        <time>2024-11-10T14:39:55Z</time>
      </trkpt>
      <trkpt lat="45.94509" lon="1.2802">
        <ele>423.2</ele>
        <time>2024-11-10T14:39:56Z</time>
      </trkpt>
      <trkpt lat="45.94504" lon="1.2802">
        <ele>422.9</ele>
        <time>2024-11-10T14:39:57Z</time>
      </trkpt>
      <trkpt lat="45.94498" lon="1.2802">
        <ele>422.6</ele>
        <time>2024-11-10T14:39:58Z</time>
      </trkpt>
      <trkpt lat="45.94493" lon="1.2802">
        <ele>422.3</ele>
        <time>2024-11-10T14:39:59Z</time>
      </trkpt>
      <trkpt lat="45.94487" lon="1.2802">
        <ele>421.9</ele>
        <time>2024-11-10T14:40:00Z</time>
      </trkpt>
      <trkpt lat="45.94482" lon="1.28021">
        <ele>421.7</ele>
        <time>2024-11-10T14:40:01Z</time>
      </trkpt>
      <trkpt lat="45.94478" lon="1.28022">
        <ele>421.6</ele>
        <time>2024-11-10T14:40:02Z</time>
      </trkpt>
      <trkpt lat="45.94473" lon="1.28023">
        <ele>421.4</ele>
        <time>2024-11-10T14:40:03Z</time>
      </trkpt>
      <trkpt lat="45.94469" lon="1.28023">
        <ele>421.3</ele>
        <time>2024-11-10T14:40:04Z</time>
      </trkpt>
      <trkpt lat="45.94465" lon="1.28024">
        <ele>421.1</ele>
        <time>2024-11-10T14:40:05Z</time>
      </trkpt>
      <trkpt lat="45.9446" lon="1.28024">
        <ele>420.8</ele>
        <time>2024-11-10T14:40:06Z</time>
      </trkpt>
      <trkpt lat="45.94456" lon="1.28025">
        <ele>420.6</ele>
        <time>2024-11-10T14:40:07Z</time>
      </trkpt>
      <trkpt lat="45.94452" lon="1.28026">
        <ele>420.4</ele>
        <time>2024-11-10T14:40:08Z</time>
      </trkpt>
      <trkpt lat="45.94449" lon="1.28026">
        <ele>420.3</ele>
        <time>2024-11-10T14:40:10Z</time>
      </trkpt>
      <trkpt lat="45.94446" lon="1.28025">
        <ele>420.2</ele>
        <time>2024-11-10T14:40:13Z</time>
      </trkpt>
      <trkpt lat="45.94443" lon="1.28025">
        <ele>420</ele>
        <time>2024-11-10T14:40:24Z</time>
      </trkpt>
      <trkpt lat="45.9444" lon="1.28026">
        <ele>419.9</ele>
        <time>2024-11-10T14:40:36Z</time>
      </trkpt>
      <trkpt lat="45.94436" lon="1.28025">
        <ele>419.8</ele>
        <time>2024-11-10T14:40:38Z</time>
      </trkpt>
      <trkpt lat="45.94433" lon="1.2802">
        <ele>419.7</ele>
        <time>2024-11-10T14:40:40Z</time>
      </trkpt>
      <trkpt lat="45.9443" lon="1.28015">
        <ele>419.6</ele>
        <time>2024-11-10T14:40:42Z</time>
      </trkpt>
      <trkpt lat="45.94427" lon="1.28009">
        <ele>419.4</ele>
        <time>2024-11-10T14:40:44Z</time>
      </trkpt>
      <trkpt lat="45.94424" lon="1.28004">
        <ele>419.3</ele>
        <time>2024-11-10T14:40:46Z</time>
      </trkpt>
      <trkpt lat="45.9442" lon="1.27999">
        <ele>419.2</ele>
        <time>2024-11-10T14:40:48Z</time>
      </trkpt>
      <trkpt lat="45.94417" lon="1.27993">
        <ele>419.2</ele>
        <time>2024-11-10T14:40:50Z</time>
      </trkpt>
      <trkpt lat="45.94416" lon="1.27988">
        <ele>419.1</ele>
        <time>2024-11-10T14:40:51Z</time>
      </trkpt>
      <trkpt lat="45.94416" lon="1.27983">
        <ele>419.1</ele>
        <time>2024-11-10T14:40:52Z</time>
      </trkpt>
      <trkpt lat="45.94417" lon="1.27979">
        <ele>419.1</ele>
        <time>2024-11-10T14:40:53Z</time>
      </trkpt>
      <trkpt lat="45.9442" lon="1.27975">
        <ele>419.2</ele>
        <time>2024-11-10T14:40:54Z</time>
      </trkpt>
      <trkpt lat="45.94422" lon="1.27972">
        <ele>419.2</ele>
        <time>2024-11-10T14:40:55Z</time>
      </trkpt>
      <trkpt lat="45.94424" lon="1.27969">
        <ele>419.3</ele>
        <time>2024-11-10T14:40:56Z</time>
      </trkpt>
      <trkpt lat="45.94427" lon="1.27966">
        <ele>419.3</ele>
        <time>2024-11-10T14:40:57Z</time>
      </trkpt>
      <trkpt lat="45.94429" lon="1.27962">
        <ele>419.4</ele>
        <time>2024-11-10T14:40:58Z</time>
      </trkpt>
      <trkpt lat="45.94431" lon="1.27959">
        <ele>419.5</ele>
        <time>2024-11-10T14:40:59Z</time>
      </trkpt>
      <trkpt lat="45.94434" lon="1.27956">
        <ele>419.6</ele>
        <time>2024-11-10T14:41:00Z</time>
      </trkpt>
      <trkpt lat="45.94437" lon="1.27951">
        <ele>419.7</ele>
        <time>2024-11-10T14:41:02Z</time>
      </trkpt>
      <trkpt lat="45.9444" lon="1.27946">
        <ele>419.8</ele>
        <time>2024-11-10T14:41:04Z</time>
      </trkpt>
      <trkpt lat="45.94443" lon="1.27942">
        <ele>419.9</ele>
        <time>2024-11-10T14:41:05Z</time>
      </trkpt>
      <trkpt lat="45.94445" lon="1.27939">
        <ele>420</ele>
        <time>2024-11-10T14:41:06Z</time>
      </trkpt>
      <trkpt lat="45.94447" lon="1.27936">
        <ele>420.1</ele>
        <time>2024-11-10T14:41:07Z</time>
      </trkpt>
      <trkpt lat="45.9445" lon="1.27933">
        <ele>420.2</ele>
        <time>2024-11-10T14:41:08Z</time>
      </trkpt>
      <trkpt lat="45.94453" lon="1.27928">
        <ele>420.4</ele>
        <time>2024-11-10T14:41:10Z</time>
      </trkpt>
      <trkpt lat="45.94456" lon="1.27926">
        <ele>420.5</ele>
        <time>2024-11-10T14:41:11Z</time>
      </trkpt>
      <trkpt lat="45.9446" lon="1.27923">
        <ele>420.7</ele>
        <time>2024-11-10T14:41:13Z</time>
      </trkpt>
      <trkpt lat="45.94464" lon="1.27919">
        <ele>421</ele>
        <time>2024-11-10T14:41:15Z</time>
      </trkpt>
      <trkpt lat="45.94468" lon="1.27916">
        <ele>421.3</ele>
        <time>2024-11-10T14:41:17Z</time>
      </trkpt>
      <trkpt lat="45.94472" lon="1.27913">
        <ele>421.5</ele>
        <time>2024-11-10T14:41:19Z</time>
      </trkpt>
      <trkpt lat="45.94476" lon="1.2791">
        <ele>421.9</ele>
        <time>2024-11-10T14:41:21Z</time>
      </trkpt>
      <trkpt lat="45.9448" lon="1.27907">
        <ele>422.2</ele>
        <time>2024-11-10T14:41:23Z</time>
      </trkpt>
      <trkpt lat="45.94484" lon="1.27903">
        <ele>422.6</ele>
        <time>2024-11-10T14:41:25Z</time>
      </trkpt>
      <trkpt lat="45.94488" lon="1.27899">
        <ele>423</ele>
        <time>2024-11-10T14:41:27Z</time>
      </trkpt>
      <trkpt lat="45.94492" lon="1.27896">
        <ele>423.5</ele>
        <time>2024-11-10T14:41:29Z</time>
      </trkpt>
      <trkpt lat="45.94496" lon="1.27892">
        <ele>424</ele>
        <time>2024-11-10T14:41:31Z</time>
      </trkpt>
      <trkpt lat="45.94499" lon="1.27889">
        <ele>424.4</ele>
        <time>2024-11-10T14:41:33Z</time>
      </trkpt>
      <trkpt lat="45.94503" lon="1.27886">
        <ele>424.9</ele>
        <time>2024-11-10T14:41:35Z</time>
      </trkpt>
      <trkpt lat="45.94506" lon="1.27883">
        <ele>425.3</ele>
        <time>2024-11-10T14:41:36Z</time>
      </trkpt>
      <trkpt lat="45.9451" lon="1.27879">
        <ele>425.9</ele>
        <time>2024-11-10T14:41:38Z</time>
      </trkpt>
      <trkpt lat="45.94514" lon="1.27875">
        <ele>426.4</ele>
        <time>2024-11-10T14:41:40Z</time>
      </trkpt>
      <trkpt lat="45.94519" lon="1.27872">
        <ele>427</ele>
        <time>2024-11-10T14:41:42Z</time>
      </trkpt>
      <trkpt lat="45.94523" lon="1.27868">
        <ele>427.4</ele>
        <time>2024-11-10T14:41:44Z</time>
      </trkpt>
      <trkpt lat="45.94528" lon="1.27866">
        <ele>427.8</ele>
        <time>2024-11-10T14:41:46Z</time>
      </trkpt>
      <trkpt lat="45.94532" lon="1.27863">
        <ele>428.1</ele>
        <time>2024-11-10T14:41:48Z</time>
      </trkpt>
      <trkpt lat="45.94537" lon="1.2786">
        <ele>428.4</ele>
        <time>2024-11-10T14:41:50Z</time>
      </trkpt>
      <trkpt lat="45.94541" lon="1.27856">
        <ele>428.6</ele>
        <time>2024-11-10T14:41:52Z</time>
      </trkpt>
      <trkpt lat="45.94546" lon="1.27853">
        <ele>428.6</ele>
        <time>2024-11-10T14:41:54Z</time>
      </trkpt>
      <trkpt lat="45.94549" lon="1.27851">
        <ele>428.7</ele>
        <time>2024-11-10T14:41:55Z</time>
      </trkpt>
      <trkpt lat="45.94553" lon="1.2785">
        <ele>428.7</ele>
        <time>2024-11-10T14:41:56Z</time>
      </trkpt>
      <trkpt lat="45.94556" lon="1.27848">
        <ele>428.7</ele>
        <time>2024-11-10T14:41:57Z</time>
      </trkpt>
      <trkpt lat="45.94558" lon="1.27847">
        <ele>428.7</ele>
        <time>2024-11-10T14:41:58Z</time>
      </trkpt>
      <trkpt lat="45.94561" lon="1.27846">
        <ele>428.7</ele>
        <time>2024-11-10T14:41:59Z</time>
      </trkpt>
      <trkpt lat="45.94565" lon="1.27844">
        <ele>428.8</ele>
        <time>2024-11-10T14:42:01Z</time>
      </trkpt>
      <trkpt lat="45.94569" lon="1.27842">
        <ele>428.8</ele>
        <time>2024-11-10T14:42:03Z</time>
      </trkpt>
      <trkpt lat="45.94572" lon="1.27841">
        <ele>428.7</ele>
        <time>2024-11-10T14:42:05Z</time>
      </trkpt>
      <trkpt lat="45.94575" lon="1.27838">
        <ele>428.7</ele>
        <time>2024-11-10T14:42:16Z</time>
      </trkpt>
      <trkpt lat="45.94578" lon="1.27836">
        <ele>428.7</ele>
        <time>2024-11-10T14:42:18Z</time>
      </trkpt>
      <trkpt lat="45.94581" lon="1.27833">
        <ele>428.7</ele>
        <time>2024-11-10T14:42:20Z</time>
      </trkpt>
      <trkpt lat="45.94585" lon="1.2783">
        <ele>428.7</ele>
        <time>2024-11-10T14:42:22Z</time>
      </trkpt>
      <trkpt lat="45.9459" lon="1.27829">
        <ele>428.7</ele>
        <time>2024-11-10T14:42:24Z</time>
      </trkpt>
      <trkpt lat="45.94593" lon="1.27828">
        <ele>428.7</ele>
        <time>2024-11-10T14:42:26Z</time>
      </trkpt>
      <trkpt lat="45.94598" lon="1.27827">
        <ele>428.7</ele>
        <time>2024-11-10T14:42:28Z</time>
      </trkpt>
      <trkpt lat="45.94602" lon="1.27825">
        <ele>428.7</ele>
        <time>2024-11-10T14:42:30Z</time>
      </trkpt>
      <trkpt lat="45.94607" lon="1.27824">
        <ele>428.7</ele>
        <time>2024-11-10T14:42:32Z</time>
      </trkpt>
      <trkpt lat="45.94612" lon="1.27822">
        <ele>428.6</ele>
        <time>2024-11-10T14:42:34Z</time>
      </trkpt>
      <trkpt lat="45.94616" lon="1.27821">
        <ele>428.6</ele>
        <time>2024-11-10T14:42:35Z</time>
      </trkpt>
      <trkpt lat="45.94619" lon="1.2782">
        <ele>428.6</ele>
        <time>2024-11-10T14:42:36Z</time>
      </trkpt>
      <trkpt lat="45.94623" lon="1.27819">
        <ele>428.6</ele>
        <time>2024-11-10T14:42:37Z</time>
      </trkpt>
      <trkpt lat="45.94626" lon="1.27818">
        <ele>428.6</ele>
        <time>2024-11-10T14:42:38Z</time>
      </trkpt>
      <trkpt lat="45.94629" lon="1.27818">
        <ele>428.5</ele>
        <time>2024-11-10T14:42:39Z</time>
      </trkpt>
      <trkpt lat="45.94632" lon="1.27817">
        <ele>428.5</ele>
        <time>2024-11-10T14:42:40Z</time>
      </trkpt>
      <trkpt lat="45.94636" lon="1.27816">
        <ele>428.5</ele>
        <time>2024-11-10T14:42:41Z</time>
      </trkpt>
      <trkpt lat="45.94639" lon="1.27815">
        <ele>428.5</ele>
        <time>2024-11-10T14:42:42Z</time>
      </trkpt>
      <trkpt lat="45.94642" lon="1.27814">
        <ele>428.6</ele>
        <time>2024-11-10T14:42:43Z</time>
      </trkpt>
      <trkpt lat="45.94645" lon="1.27813">
        <ele>428.6</ele>
        <time>2024-11-10T14:42:44Z</time>
      </trkpt>
      <trkpt lat="45.94649" lon="1.27812">
        <ele>428.6</ele>
        <time>2024-11-10T14:42:45Z</time>
      </trkpt>
      <trkpt lat="45.94652" lon="1.27811">
        <ele>428.7</ele>
        <time>2024-11-10T14:42:46Z</time>
      </trkpt>
      <trkpt lat="45.94655" lon="1.2781">
        <ele>428.7</ele>
        <time>2024-11-10T14:42:47Z</time>
      </trkpt>
      <trkpt lat="45.94658" lon="1.2781">
        <ele>428.8</ele>
        <time>2024-11-10T14:42:48Z</time>
      </trkpt>
      <trkpt lat="45.94661" lon="1.27809">
        <ele>428.8</ele>
        <time>2024-11-10T14:42:49Z</time>
      </trkpt>
      <trkpt lat="45.94665" lon="1.27808">
        <ele>428.9</ele>
        <time>2024-11-10T14:42:51Z</time>
      </trkpt>
      <trkpt lat="45.9467" lon="1.27806">
        <ele>429</ele>
        <time>2024-11-10T14:42:53Z</time>
      </trkpt>
      <trkpt lat="45.94674" lon="1.27804">
        <ele>429.1</ele>
        <time>2024-11-10T14:42:54Z</time>
      </trkpt>
      <trkpt lat="45.94677" lon="1.27803">
        <ele>429.3</ele>
        <time>2024-11-10T14:42:55Z</time>
      </trkpt>
      <trkpt lat="45.94679" lon="1.27801">
        <ele>429.5</ele>
        <time>2024-11-10T14:42:56Z</time>
      </trkpt>
      <trkpt lat="45.94683" lon="1.27799">
        <ele>429.7</ele>
        <time>2024-11-10T14:42:58Z</time>
      </trkpt>
      <trkpt lat="45.94687" lon="1.27797">
        <ele>430.1</ele>
        <time>2024-11-10T14:43:00Z</time>
      </trkpt>
      <trkpt lat="45.9469" lon="1.27795">
        <ele>430.4</ele>
        <time>2024-11-10T14:43:02Z</time>
      </trkpt>
      <trkpt lat="45.94694" lon="1.27794">
        <ele>430.9</ele>
        <time>2024-11-10T14:43:04Z</time>
      </trkpt>
      <trkpt lat="45.94697" lon="1.27792">
        <ele>431.3</ele>
        <time>2024-11-10T14:43:06Z</time>
      </trkpt>
      <trkpt lat="45.94701" lon="1.2779">
        <ele>431.8</ele>
        <time>2024-11-10T14:43:08Z</time>
      </trkpt>
      <trkpt lat="45.94704" lon="1.27789">
        <ele>432.3</ele>
        <time>2024-11-10T14:43:10Z</time>
      </trkpt>
      <trkpt lat="45.94706" lon="1.27788">
        <ele>432.6</ele>
        <time>2024-11-10T14:43:12Z</time>
      </trkpt>
      <trkpt lat="45.94709" lon="1.27786">
        <ele>433.1</ele>
        <time>2024-11-10T14:43:14Z</time>
      </trkpt>
      <trkpt lat="45.94713" lon="1.27785">
        <ele>433.8</ele>
        <time>2024-11-10T14:43:16Z</time>
      </trkpt>
      <trkpt lat="45.94716" lon="1.27783">
        <ele>434.3</ele>
        <time>2024-11-10T14:43:19Z</time>
      </trkpt>
      <trkpt lat="45.94718" lon="1.27781">
        <ele>434.8</ele>
        <time>2024-11-10T14:43:21Z</time>
      </trkpt>
      <trkpt lat="45.94721" lon="1.27779">
        <ele>435.3</ele>
        <time>2024-11-10T14:43:23Z</time>
      </trkpt>
      <trkpt lat="45.94724" lon="1.27777">
        <ele>435.9</ele>
        <time>2024-11-10T14:43:25Z</time>
      </trkpt>
      <trkpt lat="45.94727" lon="1.27776">
        <ele>436.5</ele>
        <time>2024-11-10T14:43:27Z</time>
      </trkpt>
      <trkpt lat="45.9473" lon="1.27774">
        <ele>437.1</ele>
        <time>2024-11-10T14:43:29Z</time>
      </trkpt>
      <trkpt lat="45.94733" lon="1.27773">
        <ele>437.6</ele>
        <time>2024-11-10T14:43:31Z</time>
      </trkpt>
      <trkpt lat="45.94735" lon="1.27771">
        <ele>438.1</ele>
        <time>2024-11-10T14:43:33Z</time>
      </trkpt>
      <trkpt lat="45.94739" lon="1.2777">
        <ele>438.9</ele>
        <time>2024-11-10T14:43:35Z</time>
      </trkpt>
      <trkpt lat="45.94742" lon="1.27769">
        <ele>439.5</ele>
        <time>2024-11-10T14:43:37Z</time>
      </trkpt>
      <trkpt lat="45.94745" lon="1.27768">
        <ele>440.1</ele>
        <time>2024-11-10T14:43:39Z</time>
      </trkpt>
      <trkpt lat="45.94748" lon="1.27766">
        <ele>440.8</ele>
        <time>2024-11-10T14:43:41Z</time>
      </trkpt>
      <trkpt lat="45.94751" lon="1.27765">
        <ele>441.4</ele>
        <time>2024-11-10T14:43:43Z</time>
      </trkpt>
      <trkpt lat="45.94753" lon="1.27763">
        <ele>441.8</ele>
        <time>2024-11-10T14:43:45Z</time>
      </trkpt>
      <trkpt lat="45.94756" lon="1.27762">
        <ele>442.4</ele>
        <time>2024-11-10T14:43:47Z</time>
      </trkpt>
      <trkpt lat="45.94758" lon="1.27759">
        <ele>442.9</ele>
        <time>2024-11-10T14:43:49Z</time>
      </trkpt>
      <trkpt lat="45.9476" lon="1.27755">
        <ele>443.5</ele>
        <time>2024-11-10T14:43:51Z</time>
      </trkpt>
      <trkpt lat="45.94762" lon="1.27752">
        <ele>444</ele>
        <time>2024-11-10T14:43:53Z</time>
      </trkpt>
      <trkpt lat="45.94763" lon="1.27747">
        <ele>444.5</ele>
        <time>2024-11-10T14:43:55Z</time>
      </trkpt>
      <trkpt lat="45.94765" lon="1.27743">
        <ele>445</ele>
        <time>2024-11-10T14:43:57Z</time>
      </trkpt>
      <trkpt lat="45.94766" lon="1.27738">
        <ele>445.5</ele>
        <time>2024-11-10T14:43:59Z</time>
      </trkpt>
      <trkpt lat="45.94768" lon="1.27735">
        <ele>445.9</ele>
        <time>2024-11-10T14:44:02Z</time>
      </trkpt>
      <trkpt lat="45.94769" lon="1.27729">
        <ele>446.3</ele>
        <time>2024-11-10T14:44:15Z</time>
      </trkpt>
      <trkpt lat="45.94772" lon="1.27724">
        <ele>446.8</ele>
        <time>2024-11-10T14:44:17Z</time>
      </trkpt>
      <trkpt lat="45.94775" lon="1.2772">
        <ele>447.2</ele>
        <time>2024-11-10T14:44:19Z</time>
      </trkpt>
      <trkpt lat="45.94779" lon="1.27716">
        <ele>447.7</ele>
        <time>2024-11-10T14:44:21Z</time>
      </trkpt>
      <trkpt lat="45.94782" lon="1.27712">
        <ele>448</ele>
        <time>2024-11-10T14:44:23Z</time>
      </trkpt>
      <trkpt lat="45.94785" lon="1.27709">
        <ele>448.4</ele>
        <time>2024-11-10T14:44:25Z</time>
      </trkpt>
      <trkpt lat="45.94788" lon="1.27705">
        <ele>448.8</ele>
        <time>2024-11-10T14:44:27Z</time>
      </trkpt>
      <trkpt lat="45.94791" lon="1.27702">
        <ele>449.2</ele>
        <time>2024-11-10T14:44:29Z</time>
      </trkpt>
      <trkpt lat="45.94794" lon="1.277">
        <ele>449.5</ele>
        <time>2024-11-10T14:44:31Z</time>
      </trkpt>
      <trkpt lat="45.94796" lon="1.27697">
        <ele>449.8</ele>
        <time>2024-11-10T14:44:33Z</time>
      </trkpt>
      <trkpt lat="45.94799" lon="1.27694">
        <ele>450.2</ele>
        <time>2024-11-10T14:44:35Z</time>
      </trkpt>
      <trkpt lat="45.94802" lon="1.27691">
        <ele>450.6</ele>
        <time>2024-11-10T14:44:37Z</time>
      </trkpt>
      <trkpt lat="45.94806" lon="1.27688">
        <ele>451.3</ele>
        <time>2024-11-10T14:44:39Z</time>
      </trkpt>
      <trkpt lat="45.94809" lon="1.27687">
        <ele>451.7</ele>
        <time>2024-11-10T14:44:41Z</time>
      </trkpt>
      <trkpt lat="45.94813" lon="1.27685">
        <ele>452.3</ele>
        <time>2024-11-10T14:44:43Z</time>
      </trkpt>
      <trkpt lat="45.94816" lon="1.27684">
        <ele>452.7</ele>
        <time>2024-11-10T14:44:45Z</time>
      </trkpt>
      <trkpt lat="45.94819" lon="1.27682">
        <ele>453.2</ele>
        <time>2024-11-10T14:44:47Z</time>
      </trkpt>
      <trkpt lat="45.94823" lon="1.2768">
        <ele>453.7</ele>
        <time>2024-11-10T14:44:49Z</time>
      </trkpt>
      <trkpt lat="45.94827" lon="1.27678">
        <ele>454.2</ele>
        <time>2024-11-10T14:44:51Z</time>
      </trkpt>
      <trkpt lat="45.9483" lon="1.27675">
        <ele>454.6</ele>
        <time>2024-11-10T14:44:53Z</time>
      </trkpt>
      <trkpt lat="45.94833" lon="1.27672">
        <ele>455</ele>
        <time>2024-11-10T14:44:55Z</time>
      </trkpt>
      <trkpt lat="45.94835" lon="1.27669">
        <ele>455.2</ele>
        <time>2024-11-10T14:44:57Z</time>
      </trkpt>
      <trkpt lat="45.94838" lon="1.27667">
        <ele>455.5</ele>
        <time>2024-11-10T14:44:59Z</time>
      </trkpt>
      <trkpt lat="45.94842" lon="1.27665">
        <ele>455.8</ele>
        <time>2024-11-10T14:45:01Z</time>
      </trkpt>
      <trkpt lat="45.94846" lon="1.27662">
        <ele>456</ele>
        <time>2024-11-10T14:45:03Z</time>
      </trkpt>
      <trkpt lat="45.94849" lon="1.27658">
        <ele>456.1</ele>
        <time>2024-11-10T14:45:05Z</time>
      </trkpt>
      <trkpt lat="45.94853" lon="1.27654">
        <ele>456.2</ele>
        <time>2024-11-10T14:45:07Z</time>
      </trkpt>
      <trkpt lat="45.94856" lon="1.27649">
        <ele>456.3</ele>
        <time>2024-11-10T14:45:09Z</time>
      </trkpt>
      <trkpt lat="45.94859" lon="1.27645">
        <ele>456.3</ele>
        <time>2024-11-10T14:45:10Z</time>
      </trkpt>
      <trkpt lat="45.94861" lon="1.27641">
        <ele>456.3</ele>
        <time>2024-11-10T14:45:11Z</time>
      </trkpt>
      <trkpt lat="45.94864" lon="1.27638">
        <ele>456.3</ele>
        <time>2024-11-10T14:45:12Z</time>
      </trkpt>
      <trkpt lat="45.94866" lon="1.27635">
        <ele>456.3</ele>
        <time>2024-11-10T14:45:13Z</time>
      </trkpt>
      <trkpt lat="45.94869" lon="1.2763">
        <ele>456.3</ele>
        <time>2024-11-10T14:45:15Z</time>
      </trkpt>
      <trkpt lat="45.94871" lon="1.27627">
        <ele>456.4</ele>
        <time>2024-11-10T14:45:16Z</time>
      </trkpt>
      <trkpt lat="45.94873" lon="1.27624">
        <ele>456.4</ele>
        <time>2024-11-10T14:45:17Z</time>
      </trkpt>
      <trkpt lat="45.94877" lon="1.2762">
        <ele>456.4</ele>
        <time>2024-11-10T14:45:19Z</time>
      </trkpt>
      <trkpt lat="45.9488" lon="1.27616">
        <ele>456.5</ele>
        <time>2024-11-10T14:45:21Z</time>
      </trkpt>
      <trkpt lat="45.94884" lon="1.27612">
        <ele>456.6</ele>
        <time>2024-11-10T14:45:23Z</time>
      </trkpt>
      <trkpt lat="45.94888" lon="1.27608">
        <ele>456.7</ele>
        <time>2024-11-10T14:45:25Z</time>
      </trkpt>
      <trkpt lat="45.94892" lon="1.27604">
        <ele>456.9</ele>
        <time>2024-11-10T14:45:27Z</time>
      </trkpt>
      <trkpt lat="45.94895" lon="1.27599">
        <ele>457</ele>
        <time>2024-11-10T14:45:29Z</time>
      </trkpt>
      <trkpt lat="45.94897" lon="1.27594">
        <ele>457.2</ele>
        <time>2024-11-10T14:45:31Z</time>
      </trkpt>
      <trkpt lat="45.949" lon="1.27588">
        <ele>457.4</ele>
        <time>2024-11-10T14:45:33Z</time>
      </trkpt>
      <trkpt lat="45.94903" lon="1.27583">
        <ele>457.6</ele>
        <time>2024-11-10T14:45:35Z</time>
      </trkpt>
      <trkpt lat="45.94905" lon="1.27578">
        <ele>457.8</ele>
        <time>2024-11-10T14:45:37Z</time>
      </trkpt>
      <trkpt lat="45.94908" lon="1.27574">
        <ele>458</ele>
        <time>2024-11-10T14:45:47Z</time>
      </trkpt>
      <trkpt lat="45.94911" lon="1.27571">
        <ele>458.2</ele>
        <time>2024-11-10T14:45:49Z</time>
      </trkpt>
      <trkpt lat="45.94913" lon="1.27566">
        <ele>458.4</ele>
        <time>2024-11-10T14:45:51Z</time>
      </trkpt>
      <trkpt lat="45.94916" lon="1.27561">
        <ele>458.6</ele>
        <time>2024-11-10T14:45:53Z</time>
      </trkpt>
      <trkpt lat="45.94918" lon="1.27556">
        <ele>458.8</ele>
        <time>2024-11-10T14:45:54Z</time>
      </trkpt>
      <trkpt lat="45.9492" lon="1.27552">
        <ele>459</ele>
        <time>2024-11-10T14:45:55Z</time>
      </trkpt>
      <trkpt lat="45.94921" lon="1.27548">
        <ele>459.2</ele>
        <time>2024-11-10T14:45:56Z</time>
      </trkpt>
      <trkpt lat="45.94923" lon="1.27545">
        <ele>459.3</ele>
        <time>2024-11-10T14:45:57Z</time>
      </trkpt>
      <trkpt lat="45.94925" lon="1.27541">
        <ele>459.5</ele>
        <time>2024-11-10T14:45:58Z</time>
      </trkpt>
      <trkpt lat="45.94927" lon="1.27537">
        <ele>459.6</ele>
        <time>2024-11-10T14:45:59Z</time>
      </trkpt>
      <trkpt lat="45.94929" lon="1.27532">
        <ele>459.8</ele>
        <time>2024-11-10T14:46:01Z</time>
      </trkpt>
      <trkpt lat="45.94932" lon="1.27528">
        <ele>460.1</ele>
        <time>2024-11-10T14:46:02Z</time>
      </trkpt>
      <trkpt lat="45.94934" lon="1.27523">
        <ele>460.3</ele>
        <time>2024-11-10T14:46:04Z</time>
      </trkpt>
      <trkpt lat="45.94936" lon="1.27518">
        <ele>460.5</ele>
        <time>2024-11-10T14:46:06Z</time>
      </trkpt>
      <trkpt lat="45.94939" lon="1.27513">
        <ele>460.7</ele>
        <time>2024-11-10T14:46:08Z</time>
      </trkpt>
      <trkpt lat="45.94941" lon="1.27507">
        <ele>460.9</ele>
        <time>2024-11-10T14:46:10Z</time>
      </trkpt>
      <trkpt lat="45.94942" lon="1.27501">
        <ele>461.1</ele>
        <time>2024-11-10T14:46:12Z</time>
      </trkpt>
      <trkpt lat="45.94942" lon="1.27495">
        <ele>461.2</ele>
        <time>2024-11-10T14:46:14Z</time>
      </trkpt>
      <trkpt lat="45.94942" lon="1.27489">
        <ele>461.3</ele>
        <time>2024-11-10T14:46:16Z</time>
      </trkpt>
      <trkpt lat="45.94941" lon="1.27483">
        <ele>461.4</ele>
        <time>2024-11-10T14:46:18Z</time>
      </trkpt>
      <trkpt lat="45.94939" lon="1.27477">
        <ele>461.5</ele>
        <time>2024-11-10T14:46:20Z</time>
      </trkpt>
      <trkpt lat="45.94938" lon="1.27473">
        <ele>461.5</ele>
        <time>2024-11-10T14:46:22Z</time>
      </trkpt>
      <trkpt lat="45.94936" lon="1.27468">
        <ele>461.6</ele>
        <time>2024-11-10T14:46:24Z</time>
      </trkpt>
      <trkpt lat="45.94935" lon="1.27463">
        <ele>461.6</ele>
        <time>2024-11-10T14:46:26Z</time>
      </trkpt>
      <trkpt lat="45.94935" lon="1.27459">
        <ele>461.7</ele>
        <time>2024-11-10T14:46:36Z</time>
      </trkpt>
      <trkpt lat="45.94934" lon="1.27454">
        <ele>461.8</ele>
        <time>2024-11-10T14:46:38Z</time>
      </trkpt>
      <trkpt lat="45.94933" lon="1.27449">
        <ele>461.9</ele>
        <time>2024-11-10T14:46:40Z</time>
      </trkpt>
      <trkpt lat="45.94932" lon="1.27444">
        <ele>462</ele>
        <time>2024-11-10T14:46:42Z</time>
      </trkpt>
      <trkpt lat="45.9493" lon="1.27438">
        <ele>462.1</ele>
        <time>2024-11-10T14:46:44Z</time>
      </trkpt>
      <trkpt lat="45.94928" lon="1.27432">
        <ele>462.3</ele>
        <time>2024-11-10T14:46:46Z</time>
      </trkpt>
      <trkpt lat="45.94927" lon="1.27425">
        <ele>462.4</ele>
        <time>2024-11-10T14:46:48Z</time>
      </trkpt>
      <trkpt lat="45.94925" lon="1.27419">
        <ele>462.6</ele>
        <time>2024-11-10T14:46:50Z</time>
      </trkpt>
      <trkpt lat="45.94923" lon="1.27413">
        <ele>462.7</ele>
        <time>2024-11-10T14:46:52Z</time>
      </trkpt>
      <trkpt lat="45.94921" lon="1.27407">
        <ele>462.7</ele>
        <time>2024-11-10T14:46:54Z</time>
      </trkpt>
      <trkpt lat="45.9492" lon="1.27403">
        <ele>462.7</ele>
        <time>2024-11-10T14:46:56Z</time>
      </trkpt>
      <trkpt lat="45.94918" lon="1.27399">
        <ele>462.7</ele>
        <time>2024-11-10T14:46:58Z</time>
      </trkpt>
      <trkpt lat="45.94915" lon="1.27395">
        <ele>462.6</ele>
        <time>2024-11-10T14:47:00Z</time>
      </trkpt>
      <trkpt lat="45.94913" lon="1.27392">
        <ele>462.6</ele>
        <time>2024-11-10T14:47:01Z</time>
      </trkpt>
      <trkpt lat="45.9491" lon="1.27389">
        <ele>462.5</ele>
        <time>2024-11-10T14:47:02Z</time>
      </trkpt>
      <trkpt lat="45.94908" lon="1.27386">
        <ele>462.4</ele>
        <time>2024-11-10T14:47:03Z</time>
      </trkpt>
      <trkpt lat="45.94905" lon="1.27382">
        <ele>462.2</ele>
        <time>2024-11-10T14:47:04Z</time>
      </trkpt>
      <trkpt lat="45.94903" lon="1.27378">
        <ele>462.1</ele>
        <time>2024-11-10T14:47:05Z</time>
      </trkpt>
      <trkpt lat="45.949" lon="1.27375">
        <ele>462</ele>
        <time>2024-11-10T14:47:06Z</time>
      </trkpt>
      <trkpt lat="45.94897" lon="1.27371">
        <ele>461.9</ele>
        <time>2024-11-10T14:47:07Z</time>
      </trkpt>
      <trkpt lat="45.94895" lon="1.27367">
        <ele>461.7</ele>
        <time>2024-11-10T14:47:08Z</time>
      </trkpt>
      <trkpt lat="45.94892" lon="1.27364">
        <ele>461.6</ele>
        <time>2024-11-10T14:47:09Z</time>
      </trkpt>
      <trkpt lat="45.94889" lon="1.2736">
        <ele>461.4</ele>
        <time>2024-11-10T14:47:10Z</time>
      </trkpt>
      <trkpt lat="45.94887" lon="1.27356">
        <ele>461.2</ele>
        <time>2024-11-10T14:47:11Z</time>
      </trkpt>
      <trkpt lat="45.94884" lon="1.27352">
        <ele>461</ele>
        <time>2024-11-10T14:47:12Z</time>
      </trkpt>
      <trkpt lat="45.94881" lon="1.27348">
        <ele>460.8</ele>
        <time>2024-11-10T14:47:13Z</time>
      </trkpt>
      <trkpt lat="45.94878" lon="1.27344">
        <ele>460.6</ele>
        <time>2024-11-10T14:47:14Z</time>
      </trkpt>
      <trkpt lat="45.94876" lon="1.27337">
        <ele>460.4</ele>
        <time>2024-11-10T14:47:15Z</time>
      </trkpt>
      <trkpt lat="45.94873" lon="1.27332">
        <ele>460.2</ele>
        <time>2024-11-10T14:47:16Z</time>
      </trkpt>
      <trkpt lat="45.9487" lon="1.27327">
        <ele>460</ele>
        <time>2024-11-10T14:47:17Z</time>
      </trkpt>
      <trkpt lat="45.94866" lon="1.27323">
        <ele>459.9</ele>
        <time>2024-11-10T14:47:18Z</time>
      </trkpt>
      <trkpt lat="45.94862" lon="1.27319">
        <ele>459.8</ele>
        <time>2024-11-10T14:47:19Z</time>
      </trkpt>
      <trkpt lat="45.94859" lon="1.27314">
        <ele>459.7</ele>
        <time>2024-11-10T14:47:20Z</time>
      </trkpt>
      <trkpt lat="45.94855" lon="1.2731">
        <ele>459.7</ele>
        <time>2024-11-10T14:47:21Z</time>
      </trkpt>
      <trkpt lat="45.94852" lon="1.27306">
        <ele>459.7</ele>
        <time>2024-11-10T14:47:22Z</time>
      </trkpt>
      <trkpt lat="45.94849" lon="1.27303">
        <ele>459.7</ele>
        <time>2024-11-10T14:47:23Z</time>
      </trkpt>
      <trkpt lat="45.94847" lon="1.273">
        <ele>459.7</ele>
        <time>2024-11-10T14:47:24Z</time>
      </trkpt>
      <trkpt lat="45.94843" lon="1.27296">
        <ele>459.7</ele>
        <time>2024-11-10T14:47:26Z</time>
      </trkpt>
      <trkpt lat="45.9484" lon="1.27292">
        <ele>459.7</ele>
        <time>2024-11-10T14:47:27Z</time>
      </trkpt>
      <trkpt lat="45.94837" lon="1.27288">
        <ele>459.7</ele>
        <time>2024-11-10T14:47:29Z</time>
      </trkpt>
      <trkpt lat="45.94834" lon="1.27283">
        <ele>459.7</ele>
        <time>2024-11-10T14:47:31Z</time>
      </trkpt>
      <trkpt lat="45.94832" lon="1.27278">
        <ele>459.8</ele>
        <time>2024-11-10T14:47:32Z</time>
      </trkpt>
      <trkpt lat="45.9483" lon="1.27273">
        <ele>459.8</ele>
        <time>2024-11-10T14:47:33Z</time>
      </trkpt>
      <trkpt lat="45.94828" lon="1.27268">
        <ele>459.9</ele>
        <time>2024-11-10T14:47:34Z</time>
      </trkpt>
      <trkpt lat="45.94827" lon="1.27263">
        <ele>459.9</ele>
        <time>2024-11-10T14:47:35Z</time>
      </trkpt>
      <trkpt lat="45.94826" lon="1.27259">
        <ele>460</ele>
        <time>2024-11-10T14:47:36Z</time>
      </trkpt>
      <trkpt lat="45.94825" lon="1.27255">
        <ele>460</ele>
        <time>2024-11-10T14:47:37Z</time>
      </trkpt>
      <trkpt lat="45.94823" lon="1.2725">
        <ele>460.1</ele>
        <time>2024-11-10T14:47:39Z</time>
      </trkpt>
      <trkpt lat="45.9482" lon="1.27244">
        <ele>460.2</ele>
        <time>2024-11-10T14:47:41Z</time>
      </trkpt>
      <trkpt lat="45.94818" lon="1.2724">
        <ele>460.3</ele>
        <time>2024-11-10T14:47:42Z</time>
      </trkpt>
      <trkpt lat="45.94816" lon="1.27235">
        <ele>460.3</ele>
        <time>2024-11-10T14:47:44Z</time>
      </trkpt>
      <trkpt lat="45.94813" lon="1.2723">
        <ele>460.4</ele>
        <time>2024-11-10T14:47:46Z</time>
      </trkpt>
      <trkpt lat="45.94811" lon="1.27224">
        <ele>460.3</ele>
        <time>2024-11-10T14:47:48Z</time>
      </trkpt>
      <trkpt lat="45.94809" lon="1.27219">
        <ele>460.3</ele>
        <time>2024-11-10T14:47:49Z</time>
      </trkpt>
      <trkpt lat="45.94807" lon="1.27215">
        <ele>460.2</ele>
        <time>2024-11-10T14:47:50Z</time>
      </trkpt>
      <trkpt lat="45.94806" lon="1.27211">
        <ele>460.1</ele>
        <time>2024-11-10T14:47:51Z</time>
      </trkpt>
      <trkpt lat="45.94804" lon="1.27206">
        <ele>459.9</ele>
        <time>2024-11-10T14:47:52Z</time>
      </trkpt>
      <trkpt lat="45.94802" lon="1.272">
        <ele>459.7</ele>
        <time>2024-11-10T14:47:53Z</time>
      </trkpt>
      <trkpt lat="45.94801" lon="1.27191">
        <ele>459.3</ele>
        <time>2024-11-10T14:47:54Z</time>
      </trkpt>
      <trkpt lat="45.94799" lon="1.27184">
        <ele>459</ele>
        <time>2024-11-10T14:47:55Z</time>
      </trkpt>
      <trkpt lat="45.94796" lon="1.27177">
        <ele>458.6</ele>
        <time>2024-11-10T14:47:56Z</time>
      </trkpt>
      <trkpt lat="45.94793" lon="1.2717">
        <ele>458.3</ele>
        <time>2024-11-10T14:47:57Z</time>
      </trkpt>
      <trkpt lat="45.9479" lon="1.27165">
        <ele>458</ele>
        <time>2024-11-10T14:47:58Z</time>
      </trkpt>
      <trkpt lat="45.94784" lon="1.27162">
        <ele>457.5</ele>
        <time>2024-11-10T14:47:59Z</time>
      </trkpt>
      <trkpt lat="45.94779" lon="1.2716">
        <ele>457.1</ele>
        <time>2024-11-10T14:48:00Z</time>
      </trkpt>
      <trkpt lat="45.94773" lon="1.27158">
        <ele>456.7</ele>
        <time>2024-11-10T14:48:01Z</time>
      </trkpt>
      <trkpt lat="45.94768" lon="1.27155">
        <ele>456.3</ele>
        <time>2024-11-10T14:48:02Z</time>
      </trkpt>
      <trkpt lat="45.94762" lon="1.27153">
        <ele>455.8</ele>
        <time>2024-11-10T14:48:03Z</time>
      </trkpt>
      <trkpt lat="45.94756" lon="1.2715">
        <ele>455.3</ele>
        <time>2024-11-10T14:48:04Z</time>
      </trkpt>
      <trkpt lat="45.94751" lon="1.27146">
        <ele>454.9</ele>
        <time>2024-11-10T14:48:05Z</time>
      </trkpt>
      <trkpt lat="45.94747" lon="1.27142">
        <ele>454.5</ele>
        <time>2024-11-10T14:48:06Z</time>
      </trkpt>
      <trkpt lat="45.94741" lon="1.27138">
        <ele>454.1</ele>
        <time>2024-11-10T14:48:07Z</time>
      </trkpt>
      <trkpt lat="45.94735" lon="1.27133">
        <ele>453.7</ele>
        <time>2024-11-10T14:48:08Z</time>
      </trkpt>
      <trkpt lat="45.94729" lon="1.27129">
        <ele>453.4</ele>
        <time>2024-11-10T14:48:09Z</time>
      </trkpt>
      <trkpt lat="45.94723" lon="1.27125">
        <ele>453.2</ele>
        <time>2024-11-10T14:48:10Z</time>
      </trkpt>
      <trkpt lat="45.94717" lon="1.27122">
        <ele>453.1</ele>
        <time>2024-11-10T14:48:11Z</time>
      </trkpt>
      <trkpt lat="45.94711" lon="1.27118">
        <ele>453</ele>
        <time>2024-11-10T14:48:12Z</time>
      </trkpt>
      <trkpt lat="45.94706" lon="1.27115">
        <ele>453</ele>
        <time>2024-11-10T14:48:13Z</time>
      </trkpt>
      <trkpt lat="45.94702" lon="1.27112">
        <ele>452.9</ele>
        <time>2024-11-10T14:48:14Z</time>
      </trkpt>
      <trkpt lat="45.94698" lon="1.27109">
        <ele>452.9</ele>
        <time>2024-11-10T14:48:15Z</time>
      </trkpt>
      <trkpt lat="45.94694" lon="1.27107">
        <ele>452.9</ele>
        <time>2024-11-10T14:48:16Z</time>
      </trkpt>
      <trkpt lat="45.94689" lon="1.27105">
        <ele>452.8</ele>
        <time>2024-11-10T14:48:17Z</time>
      </trkpt>
      <trkpt lat="45.94684" lon="1.27103">
        <ele>452.8</ele>
        <time>2024-11-10T14:48:18Z</time>
      </trkpt>
      <trkpt lat="45.9468" lon="1.27101">
        <ele>452.8</ele>
        <time>2024-11-10T14:48:19Z</time>
      </trkpt>
      <trkpt lat="45.94675" lon="1.27099">
        <ele>452.9</ele>
        <time>2024-11-10T14:48:20Z</time>
      </trkpt>
      <trkpt lat="45.94671" lon="1.27096">
        <ele>453</ele>
        <time>2024-11-10T14:48:21Z</time>
      </trkpt>
      <trkpt lat="45.94667" lon="1.27093">
        <ele>453.1</ele>
        <time>2024-11-10T14:48:22Z</time>
      </trkpt>
      <trkpt lat="45.94664" lon="1.2709">
        <ele>453.3</ele>
        <time>2024-11-10T14:48:23Z</time>
      </trkpt>
      <trkpt lat="45.9466" lon="1.27086">
        <ele>453.5</ele>
        <time>2024-11-10T14:48:24Z</time>
      </trkpt>
      <trkpt lat="45.94658" lon="1.27082">
        <ele>453.7</ele>
        <time>2024-11-10T14:48:25Z</time>
      </trkpt>
      <trkpt lat="45.94657" lon="1.27077">
        <ele>453.9</ele>
        <time>2024-11-10T14:48:26Z</time>
      </trkpt>
      <trkpt lat="45.94657" lon="1.27073">
        <ele>454.1</ele>
        <time>2024-11-10T14:48:27Z</time>
      </trkpt>
      <trkpt lat="45.94657" lon="1.27069">
        <ele>454.4</ele>
        <time>2024-11-10T14:48:28Z</time>
      </trkpt>
      <trkpt lat="45.94658" lon="1.27064">
        <ele>454.7</ele>
        <time>2024-11-10T14:48:29Z</time>
      </trkpt>
      <trkpt lat="45.94659" lon="1.2706">
        <ele>454.9</ele>
        <time>2024-11-10T14:48:30Z</time>
      </trkpt>
      <trkpt lat="45.94661" lon="1.27055">
        <ele>455.2</ele>
        <time>2024-11-10T14:48:32Z</time>
      </trkpt>
      <trkpt lat="45.94664" lon="1.27049">
        <ele>455.5</ele>
        <time>2024-11-10T14:48:34Z</time>
      </trkpt>
      <trkpt lat="45.94666" lon="1.27045">
        <ele>455.6</ele>
        <time>2024-11-10T14:48:35Z</time>
      </trkpt>
      <trkpt lat="45.94667" lon="1.27041">
        <ele>455.8</ele>
        <time>2024-11-10T14:48:36Z</time>
      </trkpt>
      <trkpt lat="45.94666" lon="1.27035">
        <ele>456</ele>
        <time>2024-11-10T14:48:38Z</time>
      </trkpt>
      <trkpt lat="45.94663" lon="1.27031">
        <ele>456.2</ele>
        <time>2024-11-10T14:48:40Z</time>
      </trkpt>
      <trkpt lat="45.9466" lon="1.27029">
        <ele>456.4</ele>
        <time>2024-11-10T14:48:41Z</time>
      </trkpt>
      <trkpt lat="45.94657" lon="1.27026">
        <ele>456.6</ele>
        <time>2024-11-10T14:48:43Z</time>
      </trkpt>
      <trkpt lat="45.94654" lon="1.27023">
        <ele>456.7</ele>
        <time>2024-11-10T14:48:44Z</time>
      </trkpt>
      <trkpt lat="45.94652" lon="1.27021">
        <ele>456.8</ele>
        <time>2024-11-10T14:48:45Z</time>
      </trkpt>
      <trkpt lat="45.94648" lon="1.27017">
        <ele>457</ele>
        <time>2024-11-10T14:48:47Z</time>
      </trkpt>
      <trkpt lat="45.94646" lon="1.27013">
        <ele>457.1</ele>
        <time>2024-11-10T14:48:48Z</time>
      </trkpt>
      <trkpt lat="45.94643" lon="1.27009">
        <ele>457.1</ele>
        <time>2024-11-10T14:48:49Z</time>
      </trkpt>
      <trkpt lat="45.94641" lon="1.27005">
        <ele>457.2</ele>
        <time>2024-11-10T14:48:50Z</time>
      </trkpt>
      <trkpt lat="45.9464" lon="1.27002">
        <ele>457.2</ele>
        <time>2024-11-10T14:48:51Z</time>
      </trkpt>
      <trkpt lat="45.94638" lon="1.26997">
        <ele>457.2</ele>
        <time>2024-11-10T14:48:53Z</time>
      </trkpt>
      <trkpt lat="45.94636" lon="1.26991">
        <ele>457.2</ele>
        <time>2024-11-10T14:48:55Z</time>
      </trkpt>
      <trkpt lat="45.94633" lon="1.26985">
        <ele>457</ele>
        <time>2024-11-10T14:48:57Z</time>
      </trkpt>
      <trkpt lat="45.94631" lon="1.26981">
        <ele>456.9</ele>
        <time>2024-11-10T14:48:58Z</time>
      </trkpt>
      <trkpt lat="45.94629" lon="1.26976">
        <ele>456.8</ele>
        <time>2024-11-10T14:48:59Z</time>
      </trkpt>
      <trkpt lat="45.94627" lon="1.2697">
        <ele>456.5</ele>
        <time>2024-11-10T14:49:00Z</time>
      </trkpt>
      <trkpt lat="45.94624" lon="1.26963">
        <ele>456.3</ele>
        <time>2024-11-10T14:49:01Z</time>
      </trkpt>
      <trkpt lat="45.94621" lon="1.26957">
        <ele>456</ele>
        <time>2024-11-10T14:49:02Z</time>
      </trkpt>
      <trkpt lat="45.94618" lon="1.26951">
        <ele>455.6</ele>
        <time>2024-11-10T14:49:03Z</time>
      </trkpt>
      <trkpt lat="45.94616" lon="1.26946">
        <ele>455.3</ele>
        <time>2024-11-10T14:49:04Z</time>
      </trkpt>
      <trkpt lat="45.94613" lon="1.26943">
        <ele>455.1</ele>
        <time>2024-11-10T14:49:05Z</time>
      </trkpt>
      <trkpt lat="45.94611" lon="1.26939">
        <ele>454.8</ele>
        <time>2024-11-10T14:49:06Z</time>
      </trkpt>
      <trkpt lat="45.94609" lon="1.26936">
        <ele>454.5</ele>
        <time>2024-11-10T14:49:07Z</time>
      </trkpt>
      <trkpt lat="45.94604" lon="1.26928">
        <ele>453.8</ele>
        <time>2024-11-10T14:49:08Z</time>
      </trkpt>
      <trkpt lat="45.94601" lon="1.26922">
        <ele>453.4</ele>
        <time>2024-11-10T14:49:09Z</time>
      </trkpt>
      <trkpt lat="45.94598" lon="1.26917">
        <ele>452.9</ele>
        <time>2024-11-10T14:49:10Z</time>
      </trkpt>
      <trkpt lat="45.94594" lon="1.26912">
        <ele>452.5</ele>
        <time>2024-11-10T14:49:11Z</time>
      </trkpt>
      <trkpt lat="45.9459" lon="1.26907">
        <ele>452</ele>
        <time>2024-11-10T14:49:12Z</time>
      </trkpt>
      <trkpt lat="45.94586" lon="1.26902">
        <ele>451.6</ele>
        <time>2024-11-10T14:49:13Z</time>
      </trkpt>
      <trkpt lat="45.94582" lon="1.26897">
        <ele>451.3</ele>
        <time>2024-11-10T14:49:14Z</time>
      </trkpt>
      <trkpt lat="45.94576" lon="1.26893">
        <ele>450.9</ele>
        <time>2024-11-10T14:49:15Z</time>
      </trkpt>
      <trkpt lat="45.94571" lon="1.26886">
        <ele>450.5</ele>
        <time>2024-11-10T14:49:16Z</time>
      </trkpt>
      <trkpt lat="45.94566" lon="1.26879">
        <ele>450.1</ele>
        <time>2024-11-10T14:49:17Z</time>
      </trkpt>
      <trkpt lat="45.94562" lon="1.26873">
        <ele>449.7</ele>
        <time>2024-11-10T14:49:18Z</time>
      </trkpt>
      <trkpt lat="45.94558" lon="1.26866">
        <ele>449.2</ele>
        <time>2024-11-10T14:49:19Z</time>
      </trkpt>
      <trkpt lat="45.94554" lon="1.26859">
        <ele>448.6</ele>
        <time>2024-11-10T14:49:20Z</time>
      </trkpt>
      <trkpt lat="45.94552" lon="1.2685">
        <ele>448</ele>
        <time>2024-11-10T14:49:21Z</time>
      </trkpt>
      <trkpt lat="45.9455" lon="1.26842">
        <ele>447.5</ele>
        <time>2024-11-10T14:49:22Z</time>
      </trkpt>
      <trkpt lat="45.94549" lon="1.26834">
        <ele>447.1</ele>
        <time>2024-11-10T14:49:23Z</time>
      </trkpt>
      <trkpt lat="45.94547" lon="1.26827">
        <ele>446.8</ele>
        <time>2024-11-10T14:49:24Z</time>
      </trkpt>
      <trkpt lat="45.94545" lon="1.26818">
        <ele>446.4</ele>
        <time>2024-11-10T14:49:25Z</time>
      </trkpt>
      <trkpt lat="45.94544" lon="1.26812">
        <ele>446.2</ele>
        <time>2024-11-10T14:49:26Z</time>
      </trkpt>
      <trkpt lat="45.94543" lon="1.26804">
        <ele>445.9</ele>
        <time>2024-11-10T14:49:27Z</time>
      </trkpt>
      <trkpt lat="45.94541" lon="1.26797">
        <ele>445.7</ele>
        <time>2024-11-10T14:49:28Z</time>
      </trkpt>
      <trkpt lat="45.94539" lon="1.26789">
        <ele>445.5</ele>
        <time>2024-11-10T14:49:29Z</time>
      </trkpt>
      <trkpt lat="45.94537" lon="1.26781">
        <ele>445.4</ele>
        <time>2024-11-10T14:49:30Z</time>
      </trkpt>
      <trkpt lat="45.94535" lon="1.26774">
        <ele>445.3</ele>
        <time>2024-11-10T14:49:31Z</time>
      </trkpt>
      <trkpt lat="45.94534" lon="1.26767">
        <ele>445.2</ele>
        <time>2024-11-10T14:49:32Z</time>
      </trkpt>
      <trkpt lat="45.94532" lon="1.26761">
        <ele>445.1</ele>
        <time>2024-11-10T14:49:33Z</time>
      </trkpt>
      <trkpt lat="45.94531" lon="1.26756">
        <ele>445.1</ele>
        <time>2024-11-10T14:49:34Z</time>
      </trkpt>
      <trkpt lat="45.94529" lon="1.26749">
        <ele>445.1</ele>
        <time>2024-11-10T14:49:35Z</time>
      </trkpt>
      <trkpt lat="45.94527" lon="1.26743">
        <ele>445.1</ele>
        <time>2024-11-10T14:49:36Z</time>
      </trkpt>
      <trkpt lat="45.94525" lon="1.26736">
        <ele>445.1</ele>
        <time>2024-11-10T14:49:37Z</time>
      </trkpt>
      <trkpt lat="45.94524" lon="1.26731">
        <ele>445.1</ele>
        <time>2024-11-10T14:49:38Z</time>
      </trkpt>
      <trkpt lat="45.94522" lon="1.26725">
        <ele>445.2</ele>
        <time>2024-11-10T14:49:39Z</time>
      </trkpt>
      <trkpt lat="45.94521" lon="1.2672">
        <ele>445.3</ele>
        <time>2024-11-10T14:49:40Z</time>
      </trkpt>
      <trkpt lat="45.94519" lon="1.26714">
        <ele>445.4</ele>
        <time>2024-11-10T14:49:41Z</time>
      </trkpt>
      <trkpt lat="45.94518" lon="1.26709">
        <ele>445.5</ele>
        <time>2024-11-10T14:49:42Z</time>
      </trkpt>
      <trkpt lat="45.94517" lon="1.26703">
        <ele>445.7</ele>
        <time>2024-11-10T14:49:43Z</time>
      </trkpt>
      <trkpt lat="45.94516" lon="1.26698">
        <ele>445.9</ele>
        <time>2024-11-10T14:49:44Z</time>
      </trkpt>
      <trkpt lat="45.94514" lon="1.26692">
        <ele>446.2</ele>
        <time>2024-11-10T14:49:46Z</time>
      </trkpt>
      <trkpt lat="45.94513" lon="1.26687">
        <ele>446.4</ele>
        <time>2024-11-10T14:49:47Z</time>
      </trkpt>
      <trkpt lat="45.94511" lon="1.26682">
        <ele>446.8</ele>
        <time>2024-11-10T14:49:48Z</time>
      </trkpt>
      <trkpt lat="45.9451" lon="1.26678">
        <ele>447</ele>
        <time>2024-11-10T14:49:49Z</time>
      </trkpt>
      <trkpt lat="45.94509" lon="1.26674">
        <ele>447.3</ele>
        <time>2024-11-10T14:49:50Z</time>
      </trkpt>
      <trkpt lat="45.94508" lon="1.2667">
        <ele>447.5</ele>
        <time>2024-11-10T14:49:51Z</time>
      </trkpt>
      <trkpt lat="45.94506" lon="1.26666">
        <ele>447.8</ele>
        <time>2024-11-10T14:49:52Z</time>
      </trkpt>
      <trkpt lat="45.94505" lon="1.26663">
        <ele>448</ele>
        <time>2024-11-10T14:49:53Z</time>
      </trkpt>
      <trkpt lat="45.94503" lon="1.26657">
        <ele>448.4</ele>
        <time>2024-11-10T14:49:55Z</time>
      </trkpt>
      <trkpt lat="45.94501" lon="1.26653">
        <ele>448.7</ele>
        <time>2024-11-10T14:49:56Z</time>
      </trkpt>
      <trkpt lat="45.945" lon="1.26648">
        <ele>449.1</ele>
        <time>2024-11-10T14:49:58Z</time>
      </trkpt>
      <trkpt lat="45.94499" lon="1.26642">
        <ele>449.4</ele>
        <time>2024-11-10T14:50:00Z</time>
      </trkpt>
      <trkpt lat="45.94497" lon="1.26636">
        <ele>449.9</ele>
        <time>2024-11-10T14:50:02Z</time>
      </trkpt>
      <trkpt lat="45.94496" lon="1.2663">
        <ele>450.4</ele>
        <time>2024-11-10T14:50:04Z</time>
      </trkpt>
      <trkpt lat="45.94495" lon="1.26624">
        <ele>450.9</ele>
        <time>2024-11-10T14:50:06Z</time>
      </trkpt>
      <trkpt lat="45.94494" lon="1.26618">
        <ele>451.3</ele>
        <time>2024-11-10T14:50:08Z</time>
      </trkpt>
      <trkpt lat="45.94493" lon="1.26613">
        <ele>451.7</ele>
        <time>2024-11-10T14:50:09Z</time>
      </trkpt>
      <trkpt lat="45.94493" lon="1.26608">
        <ele>452.1</ele>
        <time>2024-11-10T14:50:10Z</time>
      </trkpt>
      <trkpt lat="45.94492" lon="1.26602">
        <ele>452.5</ele>
        <time>2024-11-10T14:50:12Z</time>
      </trkpt>
      <trkpt lat="45.94491" lon="1.26595">
        <ele>452.9</ele>
        <time>2024-11-10T14:50:14Z</time>
      </trkpt>
      <trkpt lat="45.9449" lon="1.2659">
        <ele>453.1</ele>
        <time>2024-11-10T14:50:15Z</time>
      </trkpt>
      <trkpt lat="45.94489" lon="1.26586">
        <ele>453.3</ele>
        <time>2024-11-10T14:50:16Z</time>
      </trkpt>
      <trkpt lat="45.94489" lon="1.26582">
        <ele>453.4</ele>
        <time>2024-11-10T14:50:17Z</time>
      </trkpt>
      <trkpt lat="45.94488" lon="1.26576">
        <ele>453.6</ele>
        <time>2024-11-10T14:50:18Z</time>
      </trkpt>
      <trkpt lat="45.94487" lon="1.26571">
        <ele>453.7</ele>
        <time>2024-11-10T14:50:19Z</time>
      </trkpt>
      <trkpt lat="45.94486" lon="1.26566">
        <ele>453.8</ele>
        <time>2024-11-10T14:50:20Z</time>
      </trkpt>
      <trkpt lat="45.94485" lon="1.26562">
        <ele>453.9</ele>
        <time>2024-11-10T14:50:21Z</time>
      </trkpt>
      <trkpt lat="45.94485" lon="1.26558">
        <ele>453.9</ele>
        <time>2024-11-10T14:50:22Z</time>
      </trkpt>
      <trkpt lat="45.94484" lon="1.26553">
        <ele>453.9</ele>
        <time>2024-11-10T14:50:23Z</time>
      </trkpt>
      <trkpt lat="45.94482" lon="1.26549">
        <ele>453.9</ele>
        <time>2024-11-10T14:50:24Z</time>
      </trkpt>
      <trkpt lat="45.94481" lon="1.26545">
        <ele>453.9</ele>
        <time>2024-11-10T14:50:25Z</time>
      </trkpt>
      <trkpt lat="45.94479" lon="1.26542">
        <ele>453.8</ele>
        <time>2024-11-10T14:50:26Z</time>
      </trkpt>
      <trkpt lat="45.94477" lon="1.26538">
        <ele>453.8</ele>
        <time>2024-11-10T14:50:27Z</time>
      </trkpt>
      <trkpt lat="45.94475" lon="1.26534">
        <ele>453.7</ele>
        <time>2024-11-10T14:50:28Z</time>
      </trkpt>
      <trkpt lat="45.94473" lon="1.26531">
        <ele>453.7</ele>
        <time>2024-11-10T14:50:29Z</time>
      </trkpt>
      <trkpt lat="45.94471" lon="1.26527">
        <ele>453.6</ele>
        <time>2024-11-10T14:50:30Z</time>
      </trkpt>
      <trkpt lat="45.9447" lon="1.26523">
        <ele>453.5</ele>
        <time>2024-11-10T14:50:31Z</time>
      </trkpt>
      <trkpt lat="45.94468" lon="1.26519">
        <ele>453.5</ele>
        <time>2024-11-10T14:50:32Z</time>
      </trkpt>
      <trkpt lat="45.94467" lon="1.26515">
        <ele>453.4</ele>
        <time>2024-11-10T14:50:33Z</time>
      </trkpt>
      <trkpt lat="45.94466" lon="1.26508">
        <ele>453.3</ele>
        <time>2024-11-10T14:50:35Z</time>
      </trkpt>
      <trkpt lat="45.94465" lon="1.26503">
        <ele>453.3</ele>
        <time>2024-11-10T14:50:36Z</time>
      </trkpt>
      <trkpt lat="45.94464" lon="1.26498">
        <ele>453.2</ele>
        <time>2024-11-10T14:50:37Z</time>
      </trkpt>
      <trkpt lat="45.94462" lon="1.26492">
        <ele>453.2</ele>
        <time>2024-11-10T14:50:39Z</time>
      </trkpt>
      <trkpt lat="45.94461" lon="1.26486">
        <ele>453.1</ele>
        <time>2024-11-10T14:50:41Z</time>
      </trkpt>
      <trkpt lat="45.9446" lon="1.26482">
        <ele>453.1</ele>
        <time>2024-11-10T14:50:46Z</time>
      </trkpt>
      <trkpt lat="45.94459" lon="1.26477">
        <ele>453.1</ele>
        <time>2024-11-10T14:50:51Z</time>
      </trkpt>
      <trkpt lat="45.94458" lon="1.26473">
        <ele>453.1</ele>
        <time>2024-11-10T14:50:52Z</time>
      </trkpt>
      <trkpt lat="45.94457" lon="1.26469">
        <ele>453.1</ele>
        <time>2024-11-10T14:50:53Z</time>
      </trkpt>
      <trkpt lat="45.94456" lon="1.26465">
        <ele>453.1</ele>
        <time>2024-11-10T14:50:54Z</time>
      </trkpt>
      <trkpt lat="45.94455" lon="1.26459">
        <ele>453.2</ele>
        <time>2024-11-10T14:50:56Z</time>
      </trkpt>
      <trkpt lat="45.94454" lon="1.26454">
        <ele>453.2</ele>
        <time>2024-11-10T14:50:58Z</time>
      </trkpt>
      <trkpt lat="45.94451" lon="1.26451">
        <ele>453.3</ele>
        <time>2024-11-10T14:51:02Z</time>
      </trkpt>
      <trkpt lat="45.9445" lon="1.26448">
        <ele>453.5</ele>
        <time>2024-11-10T14:51:24Z</time>
      </trkpt>
      <trkpt lat="45.94448" lon="1.26445">
        <ele>453.7</ele>
        <time>2024-11-10T14:51:33Z</time>
      </trkpt>
      <trkpt lat="45.94449" lon="1.26444">
        <ele>453.7</ele>
        <time>2024-11-10T14:51:48Z</time>
      </trkpt>
      <trkpt lat="45.94452" lon="1.26443">
        <ele>454</ele>
        <time>2024-11-10T14:51:53Z</time>
      </trkpt>
      <trkpt lat="45.94453" lon="1.2644">
        <ele>454.2</ele>
        <time>2024-11-10T14:51:59Z</time>
      </trkpt>
      <trkpt lat="45.94454" lon="1.26434">
        <ele>454.5</ele>
        <time>2024-11-10T14:52:01Z</time>
      </trkpt>
      <trkpt lat="45.94454" lon="1.2643">
        <ele>454.7</ele>
        <time>2024-11-10T14:52:02Z</time>
      </trkpt>
      <trkpt lat="45.94454" lon="1.26424">
        <ele>455.1</ele>
        <time>2024-11-10T14:52:04Z</time>
      </trkpt>
      <trkpt lat="45.94453" lon="1.26419">
        <ele>455.3</ele>
        <time>2024-11-10T14:52:06Z</time>
      </trkpt>
      <trkpt lat="45.94452" lon="1.26414">
        <ele>455.6</ele>
        <time>2024-11-10T14:52:08Z</time>
      </trkpt>
      <trkpt lat="45.94451" lon="1.26409">
        <ele>455.8</ele>
        <time>2024-11-10T14:52:10Z</time>
      </trkpt>
      <trkpt lat="45.9445" lon="1.26405">
        <ele>456</ele>
        <time>2024-11-10T14:52:11Z</time>
      </trkpt>
      <trkpt lat="45.9445" lon="1.26401">
        <ele>456.1</ele>
        <time>2024-11-10T14:52:12Z</time>
      </trkpt>
      <trkpt lat="45.94449" lon="1.26395">
        <ele>456.2</ele>
        <time>2024-11-10T14:52:14Z</time>
      </trkpt>
      <trkpt lat="45.94449" lon="1.2639">
        <ele>456.3</ele>
        <time>2024-11-10T14:52:15Z</time>
      </trkpt>
      <trkpt lat="45.94449" lon="1.26385">
        <ele>456.4</ele>
        <time>2024-11-10T14:52:17Z</time>
      </trkpt>
      <trkpt lat="45.94448" lon="1.26378">
        <ele>456.4</ele>
        <time>2024-11-10T14:52:19Z</time>
      </trkpt>
      <trkpt lat="45.94448" lon="1.26373">
        <ele>456.3</ele>
        <time>2024-11-10T14:52:20Z</time>
      </trkpt>
      <trkpt lat="45.94447" lon="1.26366">
        <ele>456.2</ele>
        <time>2024-11-10T14:52:22Z</time>
      </trkpt>
      <trkpt lat="45.94447" lon="1.2636">
        <ele>456</ele>
        <time>2024-11-10T14:52:23Z</time>
      </trkpt>
      <trkpt lat="45.94447" lon="1.26354">
        <ele>455.7</ele>
        <time>2024-11-10T14:52:24Z</time>
      </trkpt>
      <trkpt lat="45.94447" lon="1.26348">
        <ele>455.5</ele>
        <time>2024-11-10T14:52:25Z</time>
      </trkpt>
      <trkpt lat="45.94447" lon="1.26343">
        <ele>455.2</ele>
        <time>2024-11-10T14:52:26Z</time>
      </trkpt>
      <trkpt lat="45.94447" lon="1.26336">
        <ele>454.8</ele>
        <time>2024-11-10T14:52:28Z</time>
      </trkpt>
      <trkpt lat="45.94446" lon="1.26329">
        <ele>454.3</ele>
        <time>2024-11-10T14:52:30Z</time>
      </trkpt>
      <trkpt lat="45.94445" lon="1.26324">
        <ele>453.9</ele>
        <time>2024-11-10T14:52:31Z</time>
      </trkpt>
      <trkpt lat="45.94443" lon="1.26317">
        <ele>453.3</ele>
        <time>2024-11-10T14:52:33Z</time>
      </trkpt>
      <trkpt lat="45.94442" lon="1.26313">
        <ele>453</ele>
        <time>2024-11-10T14:52:34Z</time>
      </trkpt>
      <trkpt lat="45.94439" lon="1.26309">
        <ele>452.5</ele>
        <time>2024-11-10T14:52:35Z</time>
      </trkpt>
      <trkpt lat="45.94436" lon="1.26305">
        <ele>452.1</ele>
        <time>2024-11-10T14:52:36Z</time>
      </trkpt>
      <trkpt lat="45.94433" lon="1.26302">
        <ele>451.7</ele>
        <time>2024-11-10T14:52:37Z</time>
      </trkpt>
      <trkpt lat="45.94428" lon="1.26299">
        <ele>451.3</ele>
        <time>2024-11-10T14:52:38Z</time>
      </trkpt>
      <trkpt lat="45.94423" lon="1.26295">
        <ele>450.8</ele>
        <time>2024-11-10T14:52:39Z</time>
      </trkpt>
      <trkpt lat="45.9442" lon="1.26292">
        <ele>450.6</ele>
        <time>2024-11-10T14:52:40Z</time>
      </trkpt>
      <trkpt lat="45.94416" lon="1.26288">
        <ele>450.4</ele>
        <time>2024-11-10T14:52:41Z</time>
      </trkpt>
      <trkpt lat="45.94412" lon="1.26286">
        <ele>450.2</ele>
        <time>2024-11-10T14:52:42Z</time>
      </trkpt>
      <trkpt lat="45.94408" lon="1.2628">
        <ele>450</ele>
        <time>2024-11-10T14:52:43Z</time>
      </trkpt>
      <trkpt lat="45.94404" lon="1.26276">
        <ele>449.9</ele>
        <time>2024-11-10T14:52:44Z</time>
      </trkpt>
      <trkpt lat="45.94401" lon="1.26274">
        <ele>449.9</ele>
        <time>2024-11-10T14:52:45Z</time>
      </trkpt>
      <trkpt lat="45.94398" lon="1.26268">
        <ele>449.9</ele>
        <time>2024-11-10T14:52:46Z</time>
      </trkpt>
      <trkpt lat="45.94395" lon="1.26261">
        <ele>449.9</ele>
        <time>2024-11-10T14:52:47Z</time>
      </trkpt>
      <trkpt lat="45.94391" lon="1.26256">
        <ele>450</ele>
        <time>2024-11-10T14:52:49Z</time>
      </trkpt>
      <trkpt lat="45.94388" lon="1.26252">
        <ele>450.1</ele>
        <time>2024-11-10T14:52:50Z</time>
      </trkpt>
      <trkpt lat="45.94386" lon="1.26249">
        <ele>450.1</ele>
        <time>2024-11-10T14:52:51Z</time>
      </trkpt>
      <trkpt lat="45.94384" lon="1.26246">
        <ele>450.1</ele>
        <time>2024-11-10T14:52:52Z</time>
      </trkpt>
      <trkpt lat="45.94382" lon="1.26242">
        <ele>450.2</ele>
        <time>2024-11-10T14:52:53Z</time>
      </trkpt>
      <trkpt lat="45.9438" lon="1.26238">
        <ele>450.2</ele>
        <time>2024-11-10T14:52:54Z</time>
      </trkpt>
      <trkpt lat="45.94379" lon="1.26232">
        <ele>450.3</ele>
        <time>2024-11-10T14:52:55Z</time>
      </trkpt>
      <trkpt lat="45.94378" lon="1.26226">
        <ele>450.3</ele>
        <time>2024-11-10T14:52:56Z</time>
      </trkpt>
      <trkpt lat="45.94377" lon="1.26217">
        <ele>450.3</ele>
        <time>2024-11-10T14:52:57Z</time>
      </trkpt>
      <trkpt lat="45.94375" lon="1.26209">
        <ele>450.2</ele>
        <time>2024-11-10T14:52:58Z</time>
      </trkpt>
      <trkpt lat="45.94374" lon="1.26201">
        <ele>450</ele>
        <time>2024-11-10T14:52:59Z</time>
      </trkpt>
      <trkpt lat="45.94372" lon="1.26193">
        <ele>449.7</ele>
        <time>2024-11-10T14:53:00Z</time>
      </trkpt>
      <trkpt lat="45.9437" lon="1.26187">
        <ele>449.5</ele>
        <time>2024-11-10T14:53:01Z</time>
      </trkpt>
      <trkpt lat="45.94369" lon="1.26182">
        <ele>449.3</ele>
        <time>2024-11-10T14:53:02Z</time>
      </trkpt>
      <trkpt lat="45.94369" lon="1.26177">
        <ele>449.1</ele>
        <time>2024-11-10T14:53:03Z</time>
      </trkpt>
      <trkpt lat="45.94368" lon="1.26169">
        <ele>448.7</ele>
        <time>2024-11-10T14:53:04Z</time>
      </trkpt>
      <trkpt lat="45.94367" lon="1.26161">
        <ele>448.4</ele>
        <time>2024-11-10T14:53:05Z</time>
      </trkpt>
      <trkpt lat="45.94367" lon="1.26152">
        <ele>448</ele>
        <time>2024-11-10T14:53:06Z</time>
      </trkpt>
      <trkpt lat="45.94365" lon="1.26145">
        <ele>447.7</ele>
        <time>2024-11-10T14:53:07Z</time>
      </trkpt>
      <trkpt lat="45.94363" lon="1.26137">
        <ele>447.5</ele>
        <time>2024-11-10T14:53:08Z</time>
      </trkpt>
      <trkpt lat="45.94362" lon="1.2613">
        <ele>447.2</ele>
        <time>2024-11-10T14:53:09Z</time>
      </trkpt>
      <trkpt lat="45.94361" lon="1.26123">
        <ele>447</ele>
        <time>2024-11-10T14:53:10Z</time>
      </trkpt>
      <trkpt lat="45.94359" lon="1.26117">
        <ele>446.9</ele>
        <time>2024-11-10T14:53:11Z</time>
      </trkpt>
      <trkpt lat="45.94356" lon="1.26111">
        <ele>446.7</ele>
        <time>2024-11-10T14:53:12Z</time>
      </trkpt>
      <trkpt lat="45.94355" lon="1.26103">
        <ele>446.6</ele>
        <time>2024-11-10T14:53:13Z</time>
      </trkpt>
      <trkpt lat="45.94353" lon="1.26096">
        <ele>446.5</ele>
        <time>2024-11-10T14:53:14Z</time>
      </trkpt>
      <trkpt lat="45.94351" lon="1.26089">
        <ele>446.4</ele>
        <time>2024-11-10T14:53:15Z</time>
      </trkpt>
      <trkpt lat="45.94349" lon="1.26081">
        <ele>446.3</ele>
        <time>2024-11-10T14:53:16Z</time>
      </trkpt>
      <trkpt lat="45.94347" lon="1.26074">
        <ele>446.2</ele>
        <time>2024-11-10T14:53:17Z</time>
      </trkpt>
      <trkpt lat="45.94346" lon="1.26067">
        <ele>446.1</ele>
        <time>2024-11-10T14:53:18Z</time>
      </trkpt>
      <trkpt lat="45.94345" lon="1.26061">
        <ele>446</ele>
        <time>2024-11-10T14:53:19Z</time>
      </trkpt>
      <trkpt lat="45.94342" lon="1.26054">
        <ele>445.9</ele>
        <time>2024-11-10T14:53:20Z</time>
      </trkpt>
      <trkpt lat="45.94341" lon="1.26048">
        <ele>445.8</ele>
        <time>2024-11-10T14:53:21Z</time>
      </trkpt>
      <trkpt lat="45.94342" lon="1.26042">
        <ele>445.7</ele>
        <time>2024-11-10T14:53:22Z</time>
      </trkpt>
      <trkpt lat="45.94342" lon="1.26036">
        <ele>445.7</ele>
        <time>2024-11-10T14:53:23Z</time>
      </trkpt>
      <trkpt lat="45.94342" lon="1.26031">
        <ele>445.7</ele>
        <time>2024-11-10T14:53:24Z</time>
      </trkpt>
      <trkpt lat="45.94343" lon="1.26026">
        <ele>445.7</ele>
        <time>2024-11-10T14:53:25Z</time>
      </trkpt>
      <trkpt lat="45.94344" lon="1.26022">
        <ele>445.7</ele>
        <time>2024-11-10T14:53:27Z</time>
      </trkpt>
      <trkpt lat="45.94347" lon="1.26017">
        <ele>445.7</ele>
        <time>2024-11-10T14:53:29Z</time>
      </trkpt>
      <trkpt lat="45.94349" lon="1.26011">
        <ele>445.7</ele>
        <time>2024-11-10T14:53:31Z</time>
      </trkpt>
      <trkpt lat="45.94351" lon="1.26006">
        <ele>445.7</ele>
        <time>2024-11-10T14:53:32Z</time>
      </trkpt>
      <trkpt lat="45.94353" lon="1.26002">
        <ele>445.7</ele>
        <time>2024-11-10T14:53:33Z</time>
      </trkpt>
      <trkpt lat="45.94355" lon="1.25998">
        <ele>445.7</ele>
        <time>2024-11-10T14:53:34Z</time>
      </trkpt>
      <trkpt lat="45.94357" lon="1.25994">
        <ele>445.8</ele>
        <time>2024-11-10T14:53:35Z</time>
      </trkpt>
      <trkpt lat="45.94358" lon="1.25989">
        <ele>445.8</ele>
        <time>2024-11-10T14:53:37Z</time>
      </trkpt>
      <trkpt lat="45.94359" lon="1.25985">
        <ele>445.8</ele>
        <time>2024-11-10T14:53:44Z</time>
      </trkpt>
      <trkpt lat="45.94362" lon="1.25981">
        <ele>445.8</ele>
        <time>2024-11-10T14:53:46Z</time>
      </trkpt>
      <trkpt lat="45.94365" lon="1.25976">
        <ele>445.7</ele>
        <time>2024-11-10T14:53:48Z</time>
      </trkpt>
      <trkpt lat="45.94368" lon="1.25971">
        <ele>445.7</ele>
        <time>2024-11-10T14:53:50Z</time>
      </trkpt>
      <trkpt lat="45.9437" lon="1.25966">
        <ele>445.6</ele>
        <time>2024-11-10T14:53:51Z</time>
      </trkpt>
      <trkpt lat="45.94372" lon="1.25962">
        <ele>445.5</ele>
        <time>2024-11-10T14:53:52Z</time>
      </trkpt>
      <trkpt lat="45.94374" lon="1.25958">
        <ele>445.4</ele>
        <time>2024-11-10T14:53:53Z</time>
      </trkpt>
      <trkpt lat="45.94376" lon="1.25954">
        <ele>445.4</ele>
        <time>2024-11-10T14:53:54Z</time>
      </trkpt>
      <trkpt lat="45.94378" lon="1.2595">
        <ele>445.3</ele>
        <time>2024-11-10T14:53:55Z</time>
      </trkpt>
      <trkpt lat="45.9438" lon="1.25947">
        <ele>445.3</ele>
        <time>2024-11-10T14:53:56Z</time>
      </trkpt>
      <trkpt lat="45.94382" lon="1.25943">
        <ele>445.2</ele>
        <time>2024-11-10T14:53:57Z</time>
      </trkpt>
      <trkpt lat="45.94385" lon="1.25939">
        <ele>445.1</ele>
        <time>2024-11-10T14:53:59Z</time>
      </trkpt>
      <trkpt lat="45.94387" lon="1.25934">
        <ele>445.1</ele>
        <time>2024-11-10T14:54:01Z</time>
      </trkpt>
      <trkpt lat="45.94389" lon="1.25929">
        <ele>445.1</ele>
        <time>2024-11-10T14:54:02Z</time>
      </trkpt>
      <trkpt lat="45.9439" lon="1.25925">
        <ele>445.1</ele>
        <time>2024-11-10T14:54:03Z</time>
      </trkpt>
      <trkpt lat="45.94392" lon="1.25921">
        <ele>445.1</ele>
        <time>2024-11-10T14:54:04Z</time>
      </trkpt>
      <trkpt lat="45.94394" lon="1.25915">
        <ele>445.1</ele>
        <time>2024-11-10T14:54:06Z</time>
      </trkpt>
      <trkpt lat="45.94395" lon="1.25911">
        <ele>445.1</ele>
        <time>2024-11-10T14:54:07Z</time>
      </trkpt>
      <trkpt lat="45.94397" lon="1.25907">
        <ele>445.2</ele>
        <time>2024-11-10T14:54:08Z</time>
      </trkpt>
      <trkpt lat="45.94398" lon="1.25903">
        <ele>445.3</ele>
        <time>2024-11-10T14:54:09Z</time>
      </trkpt>
      <trkpt lat="45.94399" lon="1.25899">
        <ele>445.3</ele>
        <time>2024-11-10T14:54:10Z</time>
      </trkpt>
      <trkpt lat="45.944" lon="1.25892">
        <ele>445.4</ele>
        <time>2024-11-10T14:54:12Z</time>
      </trkpt>
      <trkpt lat="45.944" lon="1.25887">
        <ele>445.5</ele>
        <time>2024-11-10T14:54:13Z</time>
      </trkpt>
      <trkpt lat="45.94399" lon="1.25882">
        <ele>445.5</ele>
        <time>2024-11-10T14:54:14Z</time>
      </trkpt>
      <trkpt lat="45.94399" lon="1.25877">
        <ele>445.6</ele>
        <time>2024-11-10T14:54:15Z</time>
      </trkpt>
      <trkpt lat="45.94398" lon="1.25872">
        <ele>445.6</ele>
        <time>2024-11-10T14:54:16Z</time>
      </trkpt>
      <trkpt lat="45.94398" lon="1.25866">
        <ele>445.6</ele>
        <time>2024-11-10T14:54:17Z</time>
      </trkpt>
      <trkpt lat="45.94398" lon="1.25861">
        <ele>445.7</ele>
        <time>2024-11-10T14:54:18Z</time>
      </trkpt>
      <trkpt lat="45.94398" lon="1.25856">
        <ele>445.7</ele>
        <time>2024-11-10T14:54:19Z</time>
      </trkpt>
      <trkpt lat="45.94397" lon="1.25851">
        <ele>445.7</ele>
        <time>2024-11-10T14:54:20Z</time>
      </trkpt>
      <trkpt lat="45.94396" lon="1.25846">
        <ele>445.8</ele>
        <time>2024-11-10T14:54:21Z</time>
      </trkpt>
      <trkpt lat="45.94395" lon="1.25841">
        <ele>445.8</ele>
        <time>2024-11-10T14:54:22Z</time>
      </trkpt>
      <trkpt lat="45.94394" lon="1.25836">
        <ele>445.8</ele>
        <time>2024-11-10T14:54:23Z</time>
      </trkpt>
      <trkpt lat="45.94393" lon="1.25832">
        <ele>445.9</ele>
        <time>2024-11-10T14:54:24Z</time>
      </trkpt>
      <trkpt lat="45.94392" lon="1.25828">
        <ele>445.9</ele>
        <time>2024-11-10T14:54:25Z</time>
      </trkpt>
      <trkpt lat="45.94391" lon="1.25823">
        <ele>446</ele>
        <time>2024-11-10T14:54:27Z</time>
      </trkpt>
      <trkpt lat="45.94392" lon="1.2582">
        <ele>446</ele>
        <time>2024-11-10T14:54:30Z</time>
      </trkpt>
      <trkpt lat="45.9439" lon="1.25819">
        <ele>446</ele>
        <time>2024-11-10T14:54:48Z</time>
      </trkpt>
      <trkpt lat="45.94389" lon="1.25817">
        <ele>446</ele>
        <time>2024-11-10T14:54:55Z</time>
      </trkpt>
      <trkpt lat="45.94387" lon="1.25814">
        <ele>446</ele>
        <time>2024-11-10T14:54:58Z</time>
      </trkpt>
      <trkpt lat="45.94384" lon="1.25811">
        <ele>446</ele>
        <time>2024-11-10T14:55:02Z</time>
      </trkpt>
      <trkpt lat="45.94382" lon="1.25809">
        <ele>445.9</ele>
        <time>2024-11-10T14:55:18Z</time>
      </trkpt>
      <trkpt lat="45.9438" lon="1.25805">
        <ele>445.8</ele>
        <time>2024-11-10T14:55:31Z</time>
      </trkpt>
      <trkpt lat="45.94379" lon="1.258">
        <ele>445.7</ele>
        <time>2024-11-10T14:55:32Z</time>
      </trkpt>
      <trkpt lat="45.94378" lon="1.25795">
        <ele>445.4</ele>
        <time>2024-11-10T14:55:33Z</time>
      </trkpt>
      <trkpt lat="45.94379" lon="1.25789">
        <ele>445.1</ele>
        <time>2024-11-10T14:55:34Z</time>
      </trkpt>
      <trkpt lat="45.94381" lon="1.25781">
        <ele>444.6</ele>
        <time>2024-11-10T14:55:35Z</time>
      </trkpt>
      <trkpt lat="45.94384" lon="1.25773">
        <ele>444</ele>
        <time>2024-11-10T14:55:36Z</time>
      </trkpt>
      <trkpt lat="45.94387" lon="1.25766">
        <ele>443.5</ele>
        <time>2024-11-10T14:55:37Z</time>
      </trkpt>
      <trkpt lat="45.9439" lon="1.25759">
        <ele>443.1</ele>
        <time>2024-11-10T14:55:38Z</time>
      </trkpt>
      <trkpt lat="45.94393" lon="1.25753">
        <ele>442.9</ele>
        <time>2024-11-10T14:55:39Z</time>
      </trkpt>
      <trkpt lat="45.94396" lon="1.25747">
        <ele>442.7</ele>
        <time>2024-11-10T14:55:40Z</time>
      </trkpt>
      <trkpt lat="45.94398" lon="1.25742">
        <ele>442.6</ele>
        <time>2024-11-10T14:55:41Z</time>
      </trkpt>
      <trkpt lat="45.94402" lon="1.25736">
        <ele>442.6</ele>
        <time>2024-11-10T14:55:42Z</time>
      </trkpt>
      <trkpt lat="45.94406" lon="1.25731">
        <ele>442.7</ele>
        <time>2024-11-10T14:55:43Z</time>
      </trkpt>
      <trkpt lat="45.94409" lon="1.25726">
        <ele>442.8</ele>
        <time>2024-11-10T14:55:44Z</time>
      </trkpt>
      <trkpt lat="45.94413" lon="1.25721">
        <ele>443</ele>
        <time>2024-11-10T14:55:45Z</time>
      </trkpt>
      <trkpt lat="45.94417" lon="1.25716">
        <ele>443.2</ele>
        <time>2024-11-10T14:55:46Z</time>
      </trkpt>
      <trkpt lat="45.94419" lon="1.25711">
        <ele>443.3</ele>
        <time>2024-11-10T14:55:47Z</time>
      </trkpt>
      <trkpt lat="45.94422" lon="1.25708">
        <ele>443.5</ele>
        <time>2024-11-10T14:55:48Z</time>
      </trkpt>
      <trkpt lat="45.94425" lon="1.25704">
        <ele>443.6</ele>
        <time>2024-11-10T14:55:49Z</time>
      </trkpt>
      <trkpt lat="45.94428" lon="1.25699">
        <ele>443.7</ele>
        <time>2024-11-10T14:55:50Z</time>
      </trkpt>
      <trkpt lat="45.94432" lon="1.25696">
        <ele>443.7</ele>
        <time>2024-11-10T14:55:51Z</time>
      </trkpt>
      <trkpt lat="45.94435" lon="1.25691">
        <ele>443.7</ele>
        <time>2024-11-10T14:55:52Z</time>
      </trkpt>
      <trkpt lat="45.94438" lon="1.25686">
        <ele>443.6</ele>
        <time>2024-11-10T14:55:53Z</time>
      </trkpt>
      <trkpt lat="45.94442" lon="1.25681">
        <ele>443.5</ele>
        <time>2024-11-10T14:55:54Z</time>
      </trkpt>
      <trkpt lat="45.94446" lon="1.25676">
        <ele>443.3</ele>
        <time>2024-11-10T14:55:55Z</time>
      </trkpt>
      <trkpt lat="45.94449" lon="1.2567">
        <ele>443</ele>
        <time>2024-11-10T14:55:56Z</time>
      </trkpt>
      <trkpt lat="45.94453" lon="1.25664">
        <ele>442.5</ele>
        <time>2024-11-10T14:55:57Z</time>
      </trkpt>
      <trkpt lat="45.94457" lon="1.25659">
        <ele>442.1</ele>
        <time>2024-11-10T14:55:58Z</time>
      </trkpt>
      <trkpt lat="45.9446" lon="1.25655">
        <ele>441.6</ele>
        <time>2024-11-10T14:55:59Z</time>
      </trkpt>
      <trkpt lat="45.94463" lon="1.25649">
        <ele>441</ele>
        <time>2024-11-10T14:56:00Z</time>
      </trkpt>
      <trkpt lat="45.94467" lon="1.25643">
        <ele>440.3</ele>
        <time>2024-11-10T14:56:01Z</time>
      </trkpt>
      <trkpt lat="45.9447" lon="1.25637">
        <ele>439.6</ele>
        <time>2024-11-10T14:56:02Z</time>
      </trkpt>
      <trkpt lat="45.94474" lon="1.25632">
        <ele>438.7</ele>
        <time>2024-11-10T14:56:03Z</time>
      </trkpt>
      <trkpt lat="45.94478" lon="1.25626">
        <ele>437.8</ele>
        <time>2024-11-10T14:56:04Z</time>
      </trkpt>
      <trkpt lat="45.94483" lon="1.25622">
        <ele>436.7</ele>
        <time>2024-11-10T14:56:05Z</time>
      </trkpt>
      <trkpt lat="45.94486" lon="1.25616">
        <ele>435.7</ele>
        <time>2024-11-10T14:56:06Z</time>
      </trkpt>
      <trkpt lat="45.9449" lon="1.2561">
        <ele>434.5</ele>
        <time>2024-11-10T14:56:07Z</time>
      </trkpt>
      <trkpt lat="45.94494" lon="1.25604">
        <ele>433.3</ele>
        <time>2024-11-10T14:56:08Z</time>
      </trkpt>
      <trkpt lat="45.94498" lon="1.25597">
        <ele>431.9</ele>
        <time>2024-11-10T14:56:09Z</time>
      </trkpt>
      <trkpt lat="45.94502" lon="1.25591">
        <ele>430.7</ele>
        <time>2024-11-10T14:56:10Z</time>
      </trkpt>
      <trkpt lat="45.94506" lon="1.25584">
        <ele>429.4</ele>
        <time>2024-11-10T14:56:11Z</time>
      </trkpt>
      <trkpt lat="45.94509" lon="1.25578">
        <ele>428.4</ele>
        <time>2024-11-10T14:56:12Z</time>
      </trkpt>
      <trkpt lat="45.94513" lon="1.25571">
        <ele>427.3</ele>
        <time>2024-11-10T14:56:13Z</time>
      </trkpt>
      <trkpt lat="45.94517" lon="1.25563">
        <ele>426.2</ele>
        <time>2024-11-10T14:56:14Z</time>
      </trkpt>
      <trkpt lat="45.94521" lon="1.25556">
        <ele>425.3</ele>
        <time>2024-11-10T14:56:15Z</time>
      </trkpt>
      <trkpt lat="45.94525" lon="1.25551">
        <ele>424.6</ele>
        <time>2024-11-10T14:56:16Z</time>
      </trkpt>
      <trkpt lat="45.94529" lon="1.25546">
        <ele>424.1</ele>
        <time>2024-11-10T14:56:17Z</time>
      </trkpt>
      <trkpt lat="45.94532" lon="1.25541">
        <ele>423.6</ele>
        <time>2024-11-10T14:56:18Z</time>
      </trkpt>
      <trkpt lat="45.94535" lon="1.25536">
        <ele>423.2</ele>
        <time>2024-11-10T14:56:19Z</time>
      </trkpt>
      <trkpt lat="45.94538" lon="1.25533">
        <ele>422.9</ele>
        <time>2024-11-10T14:56:21Z</time>
      </trkpt>
      <trkpt lat="45.9454" lon="1.2553">
        <ele>422.6</ele>
        <time>2024-11-10T14:56:22Z</time>
      </trkpt>
      <trkpt lat="45.9454" lon="1.25525">
        <ele>422.4</ele>
        <time>2024-11-10T14:56:24Z</time>
      </trkpt>
      <trkpt lat="45.94539" lon="1.2552">
        <ele>422.1</ele>
        <time>2024-11-10T14:56:25Z</time>
      </trkpt>
      <trkpt lat="45.94538" lon="1.25516">
        <ele>421.9</ele>
        <time>2024-11-10T14:56:26Z</time>
      </trkpt>
      <trkpt lat="45.94536" lon="1.25511">
        <ele>421.7</ele>
        <time>2024-11-10T14:56:27Z</time>
      </trkpt>
      <trkpt lat="45.94534" lon="1.25507">
        <ele>421.4</ele>
        <time>2024-11-10T14:56:28Z</time>
      </trkpt>
      <trkpt lat="45.94532" lon="1.25503">
        <ele>421.1</ele>
        <time>2024-11-10T14:56:29Z</time>
      </trkpt>
      <trkpt lat="45.9453" lon="1.25499">
        <ele>420.9</ele>
        <time>2024-11-10T14:56:30Z</time>
      </trkpt>
      <trkpt lat="45.94527" lon="1.25495">
        <ele>420.5</ele>
        <time>2024-11-10T14:56:31Z</time>
      </trkpt>
      <trkpt lat="45.94525" lon="1.25491">
        <ele>420.3</ele>
        <time>2024-11-10T14:56:32Z</time>
      </trkpt>
      <trkpt lat="45.94521" lon="1.25485">
        <ele>419.8</ele>
        <time>2024-11-10T14:56:33Z</time>
      </trkpt>
      <trkpt lat="45.94519" lon="1.2548">
        <ele>419.4</ele>
        <time>2024-11-10T14:56:34Z</time>
      </trkpt>
      <trkpt lat="45.94516" lon="1.25476">
        <ele>419.1</ele>
        <time>2024-11-10T14:56:35Z</time>
      </trkpt>
      <trkpt lat="45.94513" lon="1.25471">
        <ele>418.7</ele>
        <time>2024-11-10T14:56:36Z</time>
      </trkpt>
      <trkpt lat="45.94511" lon="1.25466">
        <ele>418.3</ele>
        <time>2024-11-10T14:56:37Z</time>
      </trkpt>
      <trkpt lat="45.94509" lon="1.25462">
        <ele>418.1</ele>
        <time>2024-11-10T14:56:39Z</time>
      </trkpt>
      <trkpt lat="45.94507" lon="1.25458">
        <ele>417.8</ele>
        <time>2024-11-10T14:56:52Z</time>
      </trkpt>
      <trkpt lat="45.94505" lon="1.25454">
        <ele>417.5</ele>
        <time>2024-11-10T14:56:56Z</time>
      </trkpt>
      <trkpt lat="45.94503" lon="1.2545">
        <ele>417.2</ele>
        <time>2024-11-10T14:56:57Z</time>
      </trkpt>
      <trkpt lat="45.94501" lon="1.25446">
        <ele>416.9</ele>
        <time>2024-11-10T14:56:58Z</time>
      </trkpt>
      <trkpt lat="45.94498" lon="1.25441">
        <ele>416.6</ele>
        <time>2024-11-10T14:56:59Z</time>
      </trkpt>
      <trkpt lat="45.94495" lon="1.25436">
        <ele>416.2</ele>
        <time>2024-11-10T14:57:00Z</time>
      </trkpt>
      <trkpt lat="45.94492" lon="1.2543">
        <ele>415.7</ele>
        <time>2024-11-10T14:57:01Z</time>
      </trkpt>
      <trkpt lat="45.94488" lon="1.25423">
        <ele>415.2</ele>
        <time>2024-11-10T14:57:02Z</time>
      </trkpt>
      <trkpt lat="45.94484" lon="1.25417">
        <ele>414.8</ele>
        <time>2024-11-10T14:57:03Z</time>
      </trkpt>
      <trkpt lat="45.9448" lon="1.25411">
        <ele>414.3</ele>
        <time>2024-11-10T14:57:04Z</time>
      </trkpt>
      <trkpt lat="45.94476" lon="1.25405">
        <ele>413.9</ele>
        <time>2024-11-10T14:57:05Z</time>
      </trkpt>
      <trkpt lat="45.94472" lon="1.25397">
        <ele>413.4</ele>
        <time>2024-11-10T14:57:06Z</time>
      </trkpt>
      <trkpt lat="45.94468" lon="1.25389">
        <ele>413</ele>
        <time>2024-11-10T14:57:07Z</time>
      </trkpt>
      <trkpt lat="45.94464" lon="1.2538">
        <ele>412.6</ele>
        <time>2024-11-10T14:57:08Z</time>
      </trkpt>
      <trkpt lat="45.94461" lon="1.2537">
        <ele>412.2</ele>
        <time>2024-11-10T14:57:09Z</time>
      </trkpt>
      <trkpt lat="45.94458" lon="1.25361">
        <ele>411.9</ele>
        <time>2024-11-10T14:57:10Z</time>
      </trkpt>
      <trkpt lat="45.94456" lon="1.25351">
        <ele>411.6</ele>
        <time>2024-11-10T14:57:11Z</time>
      </trkpt>
      <trkpt lat="45.94456" lon="1.25341">
        <ele>411.4</ele>
        <time>2024-11-10T14:57:12Z</time>
      </trkpt>
      <trkpt lat="45.94456" lon="1.2533">
        <ele>411.2</ele>
        <time>2024-11-10T14:57:13Z</time>
      </trkpt>
      <trkpt lat="45.94458" lon="1.2532">
        <ele>411.1</ele>
        <time>2024-11-10T14:57:14Z</time>
      </trkpt>
      <trkpt lat="45.9446" lon="1.2531">
        <ele>411</ele>
        <time>2024-11-10T14:57:15Z</time>
      </trkpt>
      <trkpt lat="45.94463" lon="1.25303">
        <ele>411</ele>
        <time>2024-11-10T14:57:16Z</time>
      </trkpt>
      <trkpt lat="45.94465" lon="1.25297">
        <ele>411</ele>
        <time>2024-11-10T14:57:17Z</time>
      </trkpt>
      <trkpt lat="45.94468" lon="1.2529">
        <ele>411</ele>
        <time>2024-11-10T14:57:18Z</time>
      </trkpt>
      <trkpt lat="45.94469" lon="1.25283">
        <ele>411.1</ele>
        <time>2024-11-10T14:57:19Z</time>
      </trkpt>
      <trkpt lat="45.94471" lon="1.25276">
        <ele>411.1</ele>
        <time>2024-11-10T14:57:20Z</time>
      </trkpt>
      <trkpt lat="45.94473" lon="1.2527">
        <ele>411</ele>
        <time>2024-11-10T14:57:21Z</time>
      </trkpt>
      <trkpt lat="45.94476" lon="1.25264">
        <ele>411</ele>
        <time>2024-11-10T14:57:22Z</time>
      </trkpt>
      <trkpt lat="45.94478" lon="1.25257">
        <ele>411</ele>
        <time>2024-11-10T14:57:23Z</time>
      </trkpt>
      <trkpt lat="45.94481" lon="1.2525">
        <ele>410.9</ele>
        <time>2024-11-10T14:57:24Z</time>
      </trkpt>
      <trkpt lat="45.94483" lon="1.25243">
        <ele>410.8</ele>
        <time>2024-11-10T14:57:25Z</time>
      </trkpt>
      <trkpt lat="45.94485" lon="1.25236">
        <ele>410.8</ele>
        <time>2024-11-10T14:57:26Z</time>
      </trkpt>
      <trkpt lat="45.94488" lon="1.25229">
        <ele>410.7</ele>
        <time>2024-11-10T14:57:27Z</time>
      </trkpt>
      <trkpt lat="45.94491" lon="1.25221">
        <ele>410.6</ele>
        <time>2024-11-10T14:57:28Z</time>
      </trkpt>
      <trkpt lat="45.94493" lon="1.25214">
        <ele>410.5</ele>
        <time>2024-11-10T14:57:29Z</time>
      </trkpt>
      <trkpt lat="45.94496" lon="1.25206">
        <ele>410.4</ele>
        <time>2024-11-10T14:57:30Z</time>
      </trkpt>
      <trkpt lat="45.94498" lon="1.25199">
        <ele>410.4</ele>
        <time>2024-11-10T14:57:31Z</time>
      </trkpt>
      <trkpt lat="45.94501" lon="1.25192">
        <ele>410.3</ele>
        <time>2024-11-10T14:57:32Z</time>
      </trkpt>
      <trkpt lat="45.94504" lon="1.25186">
        <ele>410.3</ele>
        <time>2024-11-10T14:57:33Z</time>
      </trkpt>
      <trkpt lat="45.94506" lon="1.25179">
        <ele>410.3</ele>
        <time>2024-11-10T14:57:34Z</time>
      </trkpt>
      <trkpt lat="45.94509" lon="1.25172">
        <ele>410.2</ele>
        <time>2024-11-10T14:57:35Z</time>
      </trkpt>
      <trkpt lat="45.94511" lon="1.25166">
        <ele>410.2</ele>
        <time>2024-11-10T14:57:36Z</time>
      </trkpt>
      <trkpt lat="45.94513" lon="1.25159">
        <ele>410.2</ele>
        <time>2024-11-10T14:57:37Z</time>
      </trkpt>
      <trkpt lat="45.94514" lon="1.25151">
        <ele>410.1</ele>
        <time>2024-11-10T14:57:38Z</time>
      </trkpt>
      <trkpt lat="45.94515" lon="1.25144">
        <ele>410.1</ele>
        <time>2024-11-10T14:57:39Z</time>
      </trkpt>
      <trkpt lat="45.94515" lon="1.25137">
        <ele>410</ele>
        <time>2024-11-10T14:57:40Z</time>
      </trkpt>
      <trkpt lat="45.94515" lon="1.25129">
        <ele>409.9</ele>
        <time>2024-11-10T14:57:41Z</time>
      </trkpt>
      <trkpt lat="45.94514" lon="1.2512">
        <ele>409.7</ele>
        <time>2024-11-10T14:57:42Z</time>
      </trkpt>
      <trkpt lat="45.94512" lon="1.25111">
        <ele>409.4</ele>
        <time>2024-11-10T14:57:43Z</time>
      </trkpt>
      <trkpt lat="45.9451" lon="1.25103">
        <ele>409.2</ele>
        <time>2024-11-10T14:57:44Z</time>
      </trkpt>
      <trkpt lat="45.94507" lon="1.25094">
        <ele>408.9</ele>
        <time>2024-11-10T14:57:45Z</time>
      </trkpt>
      <trkpt lat="45.94504" lon="1.25086">
        <ele>408.6</ele>
        <time>2024-11-10T14:57:46Z</time>
      </trkpt>
      <trkpt lat="45.945" lon="1.25078">
        <ele>408.3</ele>
        <time>2024-11-10T14:57:47Z</time>
      </trkpt>
      <trkpt lat="45.94498" lon="1.25071">
        <ele>408.1</ele>
        <time>2024-11-10T14:57:48Z</time>
      </trkpt>
      <trkpt lat="45.94495" lon="1.25063">
        <ele>407.9</ele>
        <time>2024-11-10T14:57:49Z</time>
      </trkpt>
      <trkpt lat="45.94491" lon="1.25056">
        <ele>407.7</ele>
        <time>2024-11-10T14:57:50Z</time>
      </trkpt>
      <trkpt lat="45.94487" lon="1.25048">
        <ele>407.6</ele>
        <time>2024-11-10T14:57:51Z</time>
      </trkpt>
      <trkpt lat="45.94483" lon="1.25041">
        <ele>407.5</ele>
        <time>2024-11-10T14:57:52Z</time>
      </trkpt>
      <trkpt lat="45.9448" lon="1.25035">
        <ele>407.4</ele>
        <time>2024-11-10T14:57:53Z</time>
      </trkpt>
      <trkpt lat="45.94477" lon="1.25027">
        <ele>407.4</ele>
        <time>2024-11-10T14:57:54Z</time>
      </trkpt>
      <trkpt lat="45.94473" lon="1.2502">
        <ele>407.5</ele>
        <time>2024-11-10T14:57:55Z</time>
      </trkpt>
      <trkpt lat="45.9447" lon="1.25013">
        <ele>407.6</ele>
        <time>2024-11-10T14:57:56Z</time>
      </trkpt>
      <trkpt lat="45.94467" lon="1.25007">
        <ele>407.7</ele>
        <time>2024-11-10T14:57:57Z</time>
      </trkpt>
      <trkpt lat="45.94464" lon="1.25001">
        <ele>407.9</ele>
        <time>2024-11-10T14:57:58Z</time>
      </trkpt>
      <trkpt lat="45.94461" lon="1.24994">
        <ele>408.1</ele>
        <time>2024-11-10T14:57:59Z</time>
      </trkpt>
      <trkpt lat="45.94458" lon="1.24988">
        <ele>408.4</ele>
        <time>2024-11-10T14:58:00Z</time>
      </trkpt>
      <trkpt lat="45.94455" lon="1.24983">
        <ele>408.7</ele>
        <time>2024-11-10T14:58:01Z</time>
      </trkpt>
      <trkpt lat="45.94453" lon="1.24977">
        <ele>409</ele>
        <time>2024-11-10T14:58:02Z</time>
      </trkpt>
      <trkpt lat="45.9445" lon="1.24973">
        <ele>409.2</ele>
        <time>2024-11-10T14:58:03Z</time>
      </trkpt>
      <trkpt lat="45.94448" lon="1.24968">
        <ele>409.5</ele>
        <time>2024-11-10T14:58:04Z</time>
      </trkpt>
      <trkpt lat="45.94446" lon="1.24964">
        <ele>409.8</ele>
        <time>2024-11-10T14:58:05Z</time>
      </trkpt>
      <trkpt lat="45.94444" lon="1.24959">
        <ele>410.1</ele>
        <time>2024-11-10T14:58:06Z</time>
      </trkpt>
      <trkpt lat="45.94441" lon="1.24955">
        <ele>410.4</ele>
        <time>2024-11-10T14:58:07Z</time>
      </trkpt>
      <trkpt lat="45.94439" lon="1.2495">
        <ele>410.7</ele>
        <time>2024-11-10T14:58:08Z</time>
      </trkpt>
      <trkpt lat="45.94436" lon="1.24945">
        <ele>411</ele>
        <time>2024-11-10T14:58:09Z</time>
      </trkpt>
      <trkpt lat="45.94433" lon="1.2494">
        <ele>411.3</ele>
        <time>2024-11-10T14:58:10Z</time>
      </trkpt>
      <trkpt lat="45.9443" lon="1.24934">
        <ele>411.7</ele>
        <time>2024-11-10T14:58:11Z</time>
      </trkpt>
      <trkpt lat="45.94428" lon="1.24928">
        <ele>412</ele>
        <time>2024-11-10T14:58:12Z</time>
      </trkpt>
      <trkpt lat="45.94425" lon="1.24922">
        <ele>412.3</ele>
        <time>2024-11-10T14:58:13Z</time>
      </trkpt>
      <trkpt lat="45.94422" lon="1.24916">
        <ele>412.7</ele>
        <time>2024-11-10T14:58:14Z</time>
      </trkpt>
      <trkpt lat="45.94419" lon="1.24911">
        <ele>413</ele>
        <time>2024-11-10T14:58:15Z</time>
      </trkpt>
      <trkpt lat="45.94417" lon="1.24906">
        <ele>413.2</ele>
        <time>2024-11-10T14:58:16Z</time>
      </trkpt>
      <trkpt lat="45.94414" lon="1.24902">
        <ele>413.5</ele>
        <time>2024-11-10T14:58:17Z</time>
      </trkpt>
      <trkpt lat="45.94412" lon="1.24897">
        <ele>413.7</ele>
        <time>2024-11-10T14:58:18Z</time>
      </trkpt>
      <trkpt lat="45.9441" lon="1.24892">
        <ele>414</ele>
        <time>2024-11-10T14:58:19Z</time>
      </trkpt>
      <trkpt lat="45.94407" lon="1.24888">
        <ele>414.2</ele>
        <time>2024-11-10T14:58:20Z</time>
      </trkpt>
      <trkpt lat="45.94405" lon="1.24885">
        <ele>414.3</ele>
        <time>2024-11-10T14:58:21Z</time>
      </trkpt>
      <trkpt lat="45.94403" lon="1.24881">
        <ele>414.4</ele>
        <time>2024-11-10T14:58:22Z</time>
      </trkpt>
      <trkpt lat="45.94401" lon="1.24878">
        <ele>414.4</ele>
        <time>2024-11-10T14:58:23Z</time>
      </trkpt>
      <trkpt lat="45.94399" lon="1.24875">
        <ele>414.4</ele>
        <time>2024-11-10T14:58:24Z</time>
      </trkpt>
      <trkpt lat="45.94397" lon="1.24872">
        <ele>414.4</ele>
        <time>2024-11-10T14:58:25Z</time>
      </trkpt>
      <trkpt lat="45.94395" lon="1.24868">
        <ele>414.4</ele>
        <time>2024-11-10T14:58:26Z</time>
      </trkpt>
      <trkpt lat="45.94393" lon="1.24865">
        <ele>414.4</ele>
        <time>2024-11-10T14:58:27Z</time>
      </trkpt>
      <trkpt lat="45.94391" lon="1.24861">
        <ele>414.3</ele>
        <time>2024-11-10T14:58:28Z</time>
      </trkpt>
      <trkpt lat="45.94389" lon="1.24857">
        <ele>414.2</ele>
        <time>2024-11-10T14:58:29Z</time>
      </trkpt>
      <trkpt lat="45.94387" lon="1.24853">
        <ele>414.1</ele>
        <time>2024-11-10T14:58:30Z</time>
      </trkpt>
      <trkpt lat="45.94385" lon="1.24849">
        <ele>413.9</ele>
        <time>2024-11-10T14:58:31Z</time>
      </trkpt>
      <trkpt lat="45.94383" lon="1.24845">
        <ele>413.8</ele>
        <time>2024-11-10T14:58:32Z</time>
      </trkpt>
      <trkpt lat="45.94381" lon="1.2484">
        <ele>413.6</ele>
        <time>2024-11-10T14:58:33Z</time>
      </trkpt>
      <trkpt lat="45.9438" lon="1.24836">
        <ele>413.5</ele>
        <time>2024-11-10T14:58:34Z</time>
      </trkpt>
      <trkpt lat="45.94379" lon="1.2483">
        <ele>413.3</ele>
        <time>2024-11-10T14:58:35Z</time>
      </trkpt>
      <trkpt lat="45.94378" lon="1.24824">
        <ele>413.2</ele>
        <time>2024-11-10T14:58:36Z</time>
      </trkpt>
      <trkpt lat="45.94379" lon="1.24818">
        <ele>413</ele>
        <time>2024-11-10T14:58:37Z</time>
      </trkpt>
      <trkpt lat="45.94379" lon="1.24811">
        <ele>412.9</ele>
        <time>2024-11-10T14:58:38Z</time>
      </trkpt>
      <trkpt lat="45.94381" lon="1.24805">
        <ele>412.8</ele>
        <time>2024-11-10T14:58:39Z</time>
      </trkpt>
      <trkpt lat="45.94384" lon="1.24799">
        <ele>412.7</ele>
        <time>2024-11-10T14:58:40Z</time>
      </trkpt>
      <trkpt lat="45.94386" lon="1.24794">
        <ele>412.6</ele>
        <time>2024-11-10T14:58:41Z</time>
      </trkpt>
      <trkpt lat="45.94389" lon="1.24789">
        <ele>412.6</ele>
        <time>2024-11-10T14:58:42Z</time>
      </trkpt>
      <trkpt lat="45.94392" lon="1.24784">
        <ele>412.6</ele>
        <time>2024-11-10T14:58:43Z</time>
      </trkpt>
      <trkpt lat="45.94394" lon="1.24779">
        <ele>412.6</ele>
        <time>2024-11-10T14:58:44Z</time>
      </trkpt>
      <trkpt lat="45.94397" lon="1.24775">
        <ele>412.7</ele>
        <time>2024-11-10T14:58:45Z</time>
      </trkpt>
      <trkpt lat="45.94402" lon="1.24772">
        <ele>412.9</ele>
        <time>2024-11-10T14:58:46Z</time>
      </trkpt>
      <trkpt lat="45.94406" lon="1.24768">
        <ele>413.1</ele>
        <time>2024-11-10T14:58:47Z</time>
      </trkpt>
      <trkpt lat="45.9441" lon="1.24764">
        <ele>413.4</ele>
        <time>2024-11-10T14:58:48Z</time>
      </trkpt>
      <trkpt lat="45.94412" lon="1.2476">
        <ele>413.6</ele>
        <time>2024-11-10T14:58:49Z</time>
      </trkpt>
      <trkpt lat="45.94415" lon="1.24756">
        <ele>414</ele>
        <time>2024-11-10T14:58:50Z</time>
      </trkpt>
      <trkpt lat="45.94418" lon="1.24751">
        <ele>414.4</ele>
        <time>2024-11-10T14:58:51Z</time>
      </trkpt>
      <trkpt lat="45.9442" lon="1.24747">
        <ele>414.7</ele>
        <time>2024-11-10T14:58:52Z</time>
      </trkpt>
      <trkpt lat="45.94422" lon="1.24743">
        <ele>415</ele>
        <time>2024-11-10T14:58:53Z</time>
      </trkpt>
      <trkpt lat="45.94423" lon="1.24739">
        <ele>415.3</ele>
        <time>2024-11-10T14:58:54Z</time>
      </trkpt>
      <trkpt lat="45.94425" lon="1.24735">
        <ele>415.7</ele>
        <time>2024-11-10T14:58:55Z</time>
      </trkpt>
      <trkpt lat="45.94427" lon="1.24732">
        <ele>415.9</ele>
        <time>2024-11-10T14:58:56Z</time>
      </trkpt>
      <trkpt lat="45.9443" lon="1.24728">
        <ele>416.4</ele>
        <time>2024-11-10T14:58:57Z</time>
      </trkpt>
      <trkpt lat="45.94432" lon="1.24725">
        <ele>416.6</ele>
        <time>2024-11-10T14:58:58Z</time>
      </trkpt>
      <trkpt lat="45.94434" lon="1.24722">
        <ele>416.9</ele>
        <time>2024-11-10T14:58:59Z</time>
      </trkpt>
      <trkpt lat="45.94436" lon="1.24719">
        <ele>417.2</ele>
        <time>2024-11-10T14:59:00Z</time>
      </trkpt>
      <trkpt lat="45.94439" lon="1.24716">
        <ele>417.6</ele>
        <time>2024-11-10T14:59:01Z</time>
      </trkpt>
      <trkpt lat="45.94441" lon="1.24713">
        <ele>417.8</ele>
        <time>2024-11-10T14:59:02Z</time>
      </trkpt>
      <trkpt lat="45.94444" lon="1.24711">
        <ele>418.1</ele>
        <time>2024-11-10T14:59:03Z</time>
      </trkpt>
      <trkpt lat="45.94446" lon="1.24709">
        <ele>418.3</ele>
        <time>2024-11-10T14:59:04Z</time>
      </trkpt>
      <trkpt lat="45.94449" lon="1.24707">
        <ele>418.6</ele>
        <time>2024-11-10T14:59:05Z</time>
      </trkpt>
      <trkpt lat="45.94451" lon="1.24704">
        <ele>418.8</ele>
        <time>2024-11-10T14:59:06Z</time>
      </trkpt>
      <trkpt lat="45.94454" lon="1.24701">
        <ele>419</ele>
        <time>2024-11-10T14:59:07Z</time>
      </trkpt>
      <trkpt lat="45.94456" lon="1.24699">
        <ele>419.2</ele>
        <time>2024-11-10T14:59:08Z</time>
      </trkpt>
      <trkpt lat="45.94459" lon="1.24696">
        <ele>419.4</ele>
        <time>2024-11-10T14:59:09Z</time>
      </trkpt>
      <trkpt lat="45.94461" lon="1.24694">
        <ele>419.5</ele>
        <time>2024-11-10T14:59:10Z</time>
      </trkpt>
      <trkpt lat="45.94464" lon="1.24691">
        <ele>419.7</ele>
        <time>2024-11-10T14:59:11Z</time>
      </trkpt>
      <trkpt lat="45.94466" lon="1.24686">
        <ele>419.9</ele>
        <time>2024-11-10T14:59:13Z</time>
      </trkpt>
      <trkpt lat="45.94467" lon="1.2468">
        <ele>420.1</ele>
        <time>2024-11-10T14:59:15Z</time>
      </trkpt>
      <trkpt lat="45.94467" lon="1.24675">
        <ele>420.1</ele>
        <time>2024-11-10T14:59:16Z</time>
      </trkpt>
      <trkpt lat="45.94466" lon="1.24669">
        <ele>420.2</ele>
        <time>2024-11-10T14:59:18Z</time>
      </trkpt>
      <trkpt lat="45.94465" lon="1.24662">
        <ele>420.2</ele>
        <time>2024-11-10T14:59:20Z</time>
      </trkpt>
      <trkpt lat="45.94464" lon="1.24657">
        <ele>420.3</ele>
        <time>2024-11-10T14:59:21Z</time>
      </trkpt>
      <trkpt lat="45.94463" lon="1.24653">
        <ele>420.3</ele>
        <time>2024-11-10T14:59:22Z</time>
      </trkpt>
      <trkpt lat="45.94462" lon="1.24648">
        <ele>420.4</ele>
        <time>2024-11-10T14:59:23Z</time>
      </trkpt>
      <trkpt lat="45.94461" lon="1.24644">
        <ele>420.5</ele>
        <time>2024-11-10T14:59:24Z</time>
      </trkpt>
      <trkpt lat="45.9446" lon="1.2464">
        <ele>420.5</ele>
        <time>2024-11-10T14:59:25Z</time>
      </trkpt>
      <trkpt lat="45.94459" lon="1.24636">
        <ele>420.6</ele>
        <time>2024-11-10T14:59:26Z</time>
      </trkpt>
      <trkpt lat="45.94459" lon="1.24632">
        <ele>420.6</ele>
        <time>2024-11-10T14:59:27Z</time>
      </trkpt>
      <trkpt lat="45.94458" lon="1.24628">
        <ele>420.7</ele>
        <time>2024-11-10T14:59:28Z</time>
      </trkpt>
      <trkpt lat="45.94457" lon="1.24623">
        <ele>420.7</ele>
        <time>2024-11-10T14:59:29Z</time>
      </trkpt>
      <trkpt lat="45.94457" lon="1.24619">
        <ele>420.8</ele>
        <time>2024-11-10T14:59:30Z</time>
      </trkpt>
      <trkpt lat="45.94456" lon="1.24614">
        <ele>420.9</ele>
        <time>2024-11-10T14:59:31Z</time>
      </trkpt>
      <trkpt lat="45.94455" lon="1.24609">
        <ele>420.9</ele>
        <time>2024-11-10T14:59:32Z</time>
      </trkpt>
      <trkpt lat="45.94455" lon="1.24604">
        <ele>421</ele>
        <time>2024-11-10T14:59:33Z</time>
      </trkpt>
      <trkpt lat="45.94455" lon="1.24599">
        <ele>421.1</ele>
        <time>2024-11-10T14:59:34Z</time>
      </trkpt>
      <trkpt lat="45.94455" lon="1.24594">
        <ele>421.2</ele>
        <time>2024-11-10T14:59:35Z</time>
      </trkpt>
      <trkpt lat="45.94455" lon="1.24589">
        <ele>421.4</ele>
        <time>2024-11-10T14:59:36Z</time>
      </trkpt>
      <trkpt lat="45.94456" lon="1.24584">
        <ele>421.5</ele>
        <time>2024-11-10T14:59:37Z</time>
      </trkpt>
      <trkpt lat="45.94457" lon="1.24578">
        <ele>421.7</ele>
        <time>2024-11-10T14:59:39Z</time>
      </trkpt>
      <trkpt lat="45.94458" lon="1.24571">
        <ele>421.9</ele>
        <time>2024-11-10T14:59:41Z</time>
      </trkpt>
      <trkpt lat="45.94459" lon="1.24566">
        <ele>422.1</ele>
        <time>2024-11-10T14:59:42Z</time>
      </trkpt>
      <trkpt lat="45.9446" lon="1.24561">
        <ele>422.3</ele>
        <time>2024-11-10T14:59:43Z</time>
      </trkpt>
      <trkpt lat="45.9446" lon="1.24555">
        <ele>422.5</ele>
        <time>2024-11-10T14:59:45Z</time>
      </trkpt>
      <trkpt lat="45.94459" lon="1.24548">
        <ele>422.7</ele>
        <time>2024-11-10T14:59:47Z</time>
      </trkpt>
      <trkpt lat="45.94458" lon="1.24541">
        <ele>423</ele>
        <time>2024-11-10T14:59:49Z</time>
      </trkpt>
      <trkpt lat="45.94457" lon="1.24534">
        <ele>423.2</ele>
        <time>2024-11-10T14:59:51Z</time>
      </trkpt>
      <trkpt lat="45.94457" lon="1.24528">
        <ele>423.5</ele>
        <time>2024-11-10T14:59:53Z</time>
      </trkpt>
      <trkpt lat="45.94457" lon="1.24523">
        <ele>423.7</ele>
        <time>2024-11-10T14:59:55Z</time>
      </trkpt>
      <trkpt lat="45.94457" lon="1.24516">
        <ele>423.9</ele>
        <time>2024-11-10T14:59:57Z</time>
      </trkpt>
      <trkpt lat="45.94456" lon="1.2451">
        <ele>424.2</ele>
        <time>2024-11-10T14:59:59Z</time>
      </trkpt>
      <trkpt lat="45.94456" lon="1.24503">
        <ele>424.5</ele>
        <time>2024-11-10T15:00:01Z</time>
      </trkpt>
      <trkpt lat="45.94454" lon="1.24497">
        <ele>424.7</ele>
        <time>2024-11-10T15:00:03Z</time>
      </trkpt>
      <trkpt lat="45.94451" lon="1.24495">
        <ele>424.9</ele>
        <time>2024-11-10T15:00:05Z</time>
      </trkpt>
      <trkpt lat="45.94447" lon="1.24495">
        <ele>425.2</ele>
        <time>2024-11-10T15:00:07Z</time>
      </trkpt>
      <trkpt lat="45.94444" lon="1.24495">
        <ele>425.3</ele>
        <time>2024-11-10T15:00:08Z</time>
      </trkpt>
      <trkpt lat="45.94441" lon="1.24495">
        <ele>425.5</ele>
        <time>2024-11-10T15:00:09Z</time>
      </trkpt>
      <trkpt lat="45.94438" lon="1.24496">
        <ele>425.6</ele>
        <time>2024-11-10T15:00:10Z</time>
      </trkpt>
      <trkpt lat="45.94435" lon="1.24497">
        <ele>425.8</ele>
        <time>2024-11-10T15:00:11Z</time>
      </trkpt>
      <trkpt lat="45.94432" lon="1.24498">
        <ele>426</ele>
        <time>2024-11-10T15:00:12Z</time>
      </trkpt>
      <trkpt lat="45.94429" lon="1.24499">
        <ele>426.2</ele>
        <time>2024-11-10T15:00:13Z</time>
      </trkpt>
      <trkpt lat="45.94426" lon="1.24502">
        <ele>426.4</ele>
        <time>2024-11-10T15:00:15Z</time>
      </trkpt>
      <trkpt lat="45.94422" lon="1.24505">
        <ele>426.8</ele>
        <time>2024-11-10T15:00:17Z</time>
      </trkpt>
      <trkpt lat="45.94418" lon="1.24509">
        <ele>427.2</ele>
        <time>2024-11-10T15:00:19Z</time>
      </trkpt>
      <trkpt lat="45.94414" lon="1.24512">
        <ele>427.5</ele>
        <time>2024-11-10T15:00:21Z</time>
      </trkpt>
      <trkpt lat="45.94411" lon="1.24515">
        <ele>427.9</ele>
        <time>2024-11-10T15:00:22Z</time>
      </trkpt>
      <trkpt lat="45.94408" lon="1.24517">
        <ele>428.1</ele>
        <time>2024-11-10T15:00:23Z</time>
      </trkpt>
      <trkpt lat="45.94405" lon="1.24521">
        <ele>428.4</ele>
        <time>2024-11-10T15:00:25Z</time>
      </trkpt>
      <trkpt lat="45.94401" lon="1.24523">
        <ele>428.6</ele>
        <time>2024-11-10T15:00:27Z</time>
      </trkpt>
      <trkpt lat="45.94398" lon="1.24527">
        <ele>428.8</ele>
        <time>2024-11-10T15:00:29Z</time>
      </trkpt>
      <trkpt lat="45.94394" lon="1.2453">
        <ele>429</ele>
        <time>2024-11-10T15:00:31Z</time>
      </trkpt>
      <trkpt lat="45.94389" lon="1.24533">
        <ele>429.3</ele>
        <time>2024-11-10T15:00:33Z</time>
      </trkpt>
      <trkpt lat="45.94386" lon="1.24536">
        <ele>429.4</ele>
        <time>2024-11-10T15:00:34Z</time>
      </trkpt>
      <trkpt lat="45.94383" lon="1.24538">
        <ele>429.5</ele>
        <time>2024-11-10T15:00:35Z</time>
      </trkpt>
      <trkpt lat="45.9438" lon="1.2454">
        <ele>429.6</ele>
        <time>2024-11-10T15:00:36Z</time>
      </trkpt>
      <trkpt lat="45.94378" lon="1.24542">
        <ele>429.7</ele>
        <time>2024-11-10T15:00:37Z</time>
      </trkpt>
      <trkpt lat="45.94375" lon="1.24544">
        <ele>429.8</ele>
        <time>2024-11-10T15:00:38Z</time>
      </trkpt>
      <trkpt lat="45.94373" lon="1.24546">
        <ele>429.9</ele>
        <time>2024-11-10T15:00:39Z</time>
      </trkpt>
      <trkpt lat="45.94369" lon="1.24548">
        <ele>430</ele>
        <time>2024-11-10T15:00:41Z</time>
      </trkpt>
      <trkpt lat="45.94364" lon="1.24551">
        <ele>430.1</ele>
        <time>2024-11-10T15:00:43Z</time>
      </trkpt>
      <trkpt lat="45.9436" lon="1.24554">
        <ele>430.2</ele>
        <time>2024-11-10T15:00:45Z</time>
      </trkpt>
      <trkpt lat="45.94355" lon="1.24557">
        <ele>430.3</ele>
        <time>2024-11-10T15:00:47Z</time>
      </trkpt>
      <trkpt lat="45.9435" lon="1.24559">
        <ele>430.3</ele>
        <time>2024-11-10T15:00:49Z</time>
      </trkpt>
      <trkpt lat="45.94346" lon="1.24562">
        <ele>430.3</ele>
        <time>2024-11-10T15:00:51Z</time>
      </trkpt>
      <trkpt lat="45.94342" lon="1.24564">
        <ele>430.3</ele>
        <time>2024-11-10T15:00:53Z</time>
      </trkpt>
      <trkpt lat="45.94338" lon="1.24565">
        <ele>430.3</ele>
        <time>2024-11-10T15:00:55Z</time>
      </trkpt>
      <trkpt lat="45.94335" lon="1.24567">
        <ele>430.4</ele>
        <time>2024-11-10T15:00:57Z</time>
      </trkpt>
      <trkpt lat="45.94332" lon="1.2457">
        <ele>430.4</ele>
        <time>2024-11-10T15:00:59Z</time>
      </trkpt>
      <trkpt lat="45.94327" lon="1.24573">
        <ele>430.4</ele>
        <time>2024-11-10T15:01:01Z</time>
      </trkpt>
      <trkpt lat="45.94324" lon="1.24575">
        <ele>430.4</ele>
        <time>2024-11-10T15:01:02Z</time>
      </trkpt>
      <trkpt lat="45.94321" lon="1.24577">
        <ele>430.4</ele>
        <time>2024-11-10T15:01:03Z</time>
      </trkpt>
      <trkpt lat="45.94317" lon="1.24579">
        <ele>430.4</ele>
        <time>2024-11-10T15:01:04Z</time>
      </trkpt>
      <trkpt lat="45.94314" lon="1.24581">
        <ele>430.4</ele>
        <time>2024-11-10T15:01:05Z</time>
      </trkpt>
      <trkpt lat="45.94311" lon="1.24584">
        <ele>430.5</ele>
        <time>2024-11-10T15:01:06Z</time>
      </trkpt>
      <trkpt lat="45.94308" lon="1.24586">
        <ele>430.5</ele>
        <time>2024-11-10T15:01:07Z</time>
      </trkpt>
      <trkpt lat="45.94304" lon="1.24588">
        <ele>430.5</ele>
        <time>2024-11-10T15:01:08Z</time>
      </trkpt>
      <trkpt lat="45.94301" lon="1.2459">
        <ele>430.5</ele>
        <time>2024-11-10T15:01:09Z</time>
      </trkpt>
      <trkpt lat="45.94297" lon="1.24591">
        <ele>430.5</ele>
        <time>2024-11-10T15:01:10Z</time>
      </trkpt>
      <trkpt lat="45.94294" lon="1.24593">
        <ele>430.5</ele>
        <time>2024-11-10T15:01:11Z</time>
      </trkpt>
      <trkpt lat="45.94291" lon="1.24594">
        <ele>430.5</ele>
        <time>2024-11-10T15:01:12Z</time>
      </trkpt>
      <trkpt lat="45.94287" lon="1.24596">
        <ele>430.5</ele>
        <time>2024-11-10T15:01:13Z</time>
      </trkpt>
      <trkpt lat="45.94283" lon="1.24597">
        <ele>430.5</ele>
        <time>2024-11-10T15:01:14Z</time>
      </trkpt>
      <trkpt lat="45.94279" lon="1.24598">
        <ele>430.4</ele>
        <time>2024-11-10T15:01:15Z</time>
      </trkpt>
      <trkpt lat="45.94276" lon="1.24599">
        <ele>430.4</ele>
        <time>2024-11-10T15:01:16Z</time>
      </trkpt>
      <trkpt lat="45.94272" lon="1.246">
        <ele>430.3</ele>
        <time>2024-11-10T15:01:17Z</time>
      </trkpt>
      <trkpt lat="45.94268" lon="1.24601">
        <ele>430.2</ele>
        <time>2024-11-10T15:01:18Z</time>
      </trkpt>
      <trkpt lat="45.94265" lon="1.24602">
        <ele>430.1</ele>
        <time>2024-11-10T15:01:19Z</time>
      </trkpt>
      <trkpt lat="45.94261" lon="1.24603">
        <ele>429.9</ele>
        <time>2024-11-10T15:01:20Z</time>
      </trkpt>
      <trkpt lat="45.94256" lon="1.24601">
        <ele>429.5</ele>
        <time>2024-11-10T15:01:21Z</time>
      </trkpt>
      <trkpt lat="45.94251" lon="1.24601">
        <ele>429.1</ele>
        <time>2024-11-10T15:01:22Z</time>
      </trkpt>
      <trkpt lat="45.94246" lon="1.24602">
        <ele>428.7</ele>
        <time>2024-11-10T15:01:23Z</time>
      </trkpt>
      <trkpt lat="45.9424" lon="1.24603">
        <ele>428.2</ele>
        <time>2024-11-10T15:01:24Z</time>
      </trkpt>
      <trkpt lat="45.94234" lon="1.24604">
        <ele>427.7</ele>
        <time>2024-11-10T15:01:25Z</time>
      </trkpt>
      <trkpt lat="45.94229" lon="1.24605">
        <ele>427.3</ele>
        <time>2024-11-10T15:01:26Z</time>
      </trkpt>
      <trkpt lat="45.94225" lon="1.24606">
        <ele>426.9</ele>
        <time>2024-11-10T15:01:28Z</time>
      </trkpt>
      <trkpt lat="45.94223" lon="1.24609">
        <ele>426.8</ele>
        <time>2024-11-10T15:01:31Z</time>
      </trkpt>
      <trkpt lat="45.94222" lon="1.24614">
        <ele>426.6</ele>
        <time>2024-11-10T15:01:34Z</time>
      </trkpt>
      <trkpt lat="45.94222" lon="1.24619">
        <ele>426.4</ele>
        <time>2024-11-10T15:01:36Z</time>
      </trkpt>
      <trkpt lat="45.94223" lon="1.24623">
        <ele>426.3</ele>
        <time>2024-11-10T15:01:37Z</time>
      </trkpt>
      <trkpt lat="45.94223" lon="1.24628">
        <ele>426.1</ele>
        <time>2024-11-10T15:01:38Z</time>
      </trkpt>
      <trkpt lat="45.94223" lon="1.24632">
        <ele>426</ele>
        <time>2024-11-10T15:01:39Z</time>
      </trkpt>
      <trkpt lat="45.94223" lon="1.24637">
        <ele>425.9</ele>
        <time>2024-11-10T15:01:40Z</time>
      </trkpt>
      <trkpt lat="45.94223" lon="1.24642">
        <ele>425.8</ele>
        <time>2024-11-10T15:01:41Z</time>
      </trkpt>
      <trkpt lat="45.94222" lon="1.24647">
        <ele>425.7</ele>
        <time>2024-11-10T15:01:42Z</time>
      </trkpt>
      <trkpt lat="45.94221" lon="1.24653">
        <ele>425.6</ele>
        <time>2024-11-10T15:01:43Z</time>
      </trkpt>
      <trkpt lat="45.94219" lon="1.24658">
        <ele>425.5</ele>
        <time>2024-11-10T15:01:44Z</time>
      </trkpt>
      <trkpt lat="45.94217" lon="1.24663">
        <ele>425.4</ele>
        <time>2024-11-10T15:01:45Z</time>
      </trkpt>
      <trkpt lat="45.94214" lon="1.24668">
        <ele>425.4</ele>
        <time>2024-11-10T15:01:46Z</time>
      </trkpt>
      <trkpt lat="45.94211" lon="1.24672">
        <ele>425.4</ele>
        <time>2024-11-10T15:01:47Z</time>
      </trkpt>
      <trkpt lat="45.94209" lon="1.24677">
        <ele>425.4</ele>
        <time>2024-11-10T15:01:48Z</time>
      </trkpt>
      <trkpt lat="45.94207" lon="1.24681">
        <ele>425.4</ele>
        <time>2024-11-10T15:01:49Z</time>
      </trkpt>
      <trkpt lat="45.94205" lon="1.24684">
        <ele>425.4</ele>
        <time>2024-11-10T15:01:50Z</time>
      </trkpt>
      <trkpt lat="45.94203" lon="1.24688">
        <ele>425.4</ele>
        <time>2024-11-10T15:01:51Z</time>
      </trkpt>
      <trkpt lat="45.942" lon="1.24692">
        <ele>425.4</ele>
        <time>2024-11-10T15:01:52Z</time>
      </trkpt>
      <trkpt lat="45.94198" lon="1.24697">
        <ele>425.4</ele>
        <time>2024-11-10T15:01:53Z</time>
      </trkpt>
      <trkpt lat="45.94195" lon="1.24701">
        <ele>425.5</ele>
        <time>2024-11-10T15:01:54Z</time>
      </trkpt>
      <trkpt lat="45.94193" lon="1.24706">
        <ele>425.5</ele>
        <time>2024-11-10T15:01:55Z</time>
      </trkpt>
      <trkpt lat="45.94191" lon="1.24711">
        <ele>425.6</ele>
        <time>2024-11-10T15:01:56Z</time>
      </trkpt>
      <trkpt lat="45.94189" lon="1.24716">
        <ele>425.7</ele>
        <time>2024-11-10T15:01:57Z</time>
      </trkpt>
      <trkpt lat="45.94187" lon="1.24721">
        <ele>425.8</ele>
        <time>2024-11-10T15:01:58Z</time>
      </trkpt>
      <trkpt lat="45.94184" lon="1.24725">
        <ele>425.9</ele>
        <time>2024-11-10T15:01:59Z</time>
      </trkpt>
      <trkpt lat="45.94182" lon="1.2473">
        <ele>426</ele>
        <time>2024-11-10T15:02:00Z</time>
      </trkpt>
      <trkpt lat="45.9418" lon="1.24735">
        <ele>426.2</ele>
        <time>2024-11-10T15:02:01Z</time>
      </trkpt>
      <trkpt lat="45.94178" lon="1.2474">
        <ele>426.3</ele>
        <time>2024-11-10T15:02:02Z</time>
      </trkpt>
      <trkpt lat="45.94176" lon="1.24745">
        <ele>426.5</ele>
        <time>2024-11-10T15:02:03Z</time>
      </trkpt>
      <trkpt lat="45.94174" lon="1.24749">
        <ele>426.6</ele>
        <time>2024-11-10T15:02:04Z</time>
      </trkpt>
      <trkpt lat="45.94171" lon="1.24753">
        <ele>426.8</ele>
        <time>2024-11-10T15:02:05Z</time>
      </trkpt>
      <trkpt lat="45.94169" lon="1.24757">
        <ele>427</ele>
        <time>2024-11-10T15:02:06Z</time>
      </trkpt>
      <trkpt lat="45.94167" lon="1.24761">
        <ele>427.1</ele>
        <time>2024-11-10T15:02:07Z</time>
      </trkpt>
      <trkpt lat="45.94164" lon="1.24764">
        <ele>427.3</ele>
        <time>2024-11-10T15:02:08Z</time>
      </trkpt>
      <trkpt lat="45.94162" lon="1.24768">
        <ele>427.5</ele>
        <time>2024-11-10T15:02:09Z</time>
      </trkpt>
      <trkpt lat="45.9416" lon="1.24771">
        <ele>427.6</ele>
        <time>2024-11-10T15:02:10Z</time>
      </trkpt>
      <trkpt lat="45.94158" lon="1.24775">
        <ele>427.8</ele>
        <time>2024-11-10T15:02:11Z</time>
      </trkpt>
      <trkpt lat="45.94157" lon="1.24779">
        <ele>427.9</ele>
        <time>2024-11-10T15:02:12Z</time>
      </trkpt>
      <trkpt lat="45.94155" lon="1.24783">
        <ele>428.1</ele>
        <time>2024-11-10T15:02:13Z</time>
      </trkpt>
      <trkpt lat="45.94152" lon="1.24787">
        <ele>428.3</ele>
        <time>2024-11-10T15:02:14Z</time>
      </trkpt>
      <trkpt lat="45.94149" lon="1.2479">
        <ele>428.5</ele>
        <time>2024-11-10T15:02:15Z</time>
      </trkpt>
      <trkpt lat="45.94147" lon="1.24793">
        <ele>428.7</ele>
        <time>2024-11-10T15:02:16Z</time>
      </trkpt>
      <trkpt lat="45.94145" lon="1.24797">
        <ele>428.8</ele>
        <time>2024-11-10T15:02:17Z</time>
      </trkpt>
      <trkpt lat="45.94143" lon="1.248">
        <ele>429</ele>
        <time>2024-11-10T15:02:18Z</time>
      </trkpt>
      <trkpt lat="45.94141" lon="1.24804">
        <ele>429.1</ele>
        <time>2024-11-10T15:02:19Z</time>
      </trkpt>
      <trkpt lat="45.94139" lon="1.24807">
        <ele>429.3</ele>
        <time>2024-11-10T15:02:20Z</time>
      </trkpt>
      <trkpt lat="45.94137" lon="1.2481">
        <ele>429.4</ele>
        <time>2024-11-10T15:02:21Z</time>
      </trkpt>
      <trkpt lat="45.94134" lon="1.24814">
        <ele>429.6</ele>
        <time>2024-11-10T15:02:23Z</time>
      </trkpt>
      <trkpt lat="45.94132" lon="1.24818">
        <ele>429.7</ele>
        <time>2024-11-10T15:02:25Z</time>
      </trkpt>
      <trkpt lat="45.94129" lon="1.24824">
        <ele>430</ele>
        <time>2024-11-10T15:02:27Z</time>
      </trkpt>
      <trkpt lat="45.94126" lon="1.24828">
        <ele>430.2</ele>
        <time>2024-11-10T15:02:28Z</time>
      </trkpt>
      <trkpt lat="45.94124" lon="1.24831">
        <ele>430.3</ele>
        <time>2024-11-10T15:02:29Z</time>
      </trkpt>
      <trkpt lat="45.94122" lon="1.24835">
        <ele>430.5</ele>
        <time>2024-11-10T15:02:30Z</time>
      </trkpt>
      <trkpt lat="45.9412" lon="1.24838">
        <ele>430.7</ele>
        <time>2024-11-10T15:02:31Z</time>
      </trkpt>
      <trkpt lat="45.94118" lon="1.24843">
        <ele>430.9</ele>
        <time>2024-11-10T15:02:33Z</time>
      </trkpt>
      <trkpt lat="45.94116" lon="1.24847">
        <ele>431</ele>
        <time>2024-11-10T15:02:34Z</time>
      </trkpt>
      <trkpt lat="45.94114" lon="1.24851">
        <ele>431.2</ele>
        <time>2024-11-10T15:02:35Z</time>
      </trkpt>
      <trkpt lat="45.94112" lon="1.24854">
        <ele>431.3</ele>
        <time>2024-11-10T15:02:36Z</time>
      </trkpt>
      <trkpt lat="45.9411" lon="1.24859">
        <ele>431.4</ele>
        <time>2024-11-10T15:02:38Z</time>
      </trkpt>
      <trkpt lat="45.94107" lon="1.24865">
        <ele>431.6</ele>
        <time>2024-11-10T15:02:40Z</time>
      </trkpt>
      <trkpt lat="45.94105" lon="1.24869">
        <ele>431.7</ele>
        <time>2024-11-10T15:02:41Z</time>
      </trkpt>
      <trkpt lat="45.94103" lon="1.24873">
        <ele>431.8</ele>
        <time>2024-11-10T15:02:42Z</time>
      </trkpt>
      <trkpt lat="45.94101" lon="1.24877">
        <ele>431.9</ele>
        <time>2024-11-10T15:02:43Z</time>
      </trkpt>
      <trkpt lat="45.941" lon="1.24881">
        <ele>431.9</ele>
        <time>2024-11-10T15:02:44Z</time>
      </trkpt>
      <trkpt lat="45.94098" lon="1.24885">
        <ele>432</ele>
        <time>2024-11-10T15:02:45Z</time>
      </trkpt>
      <trkpt lat="45.94096" lon="1.24891">
        <ele>432.1</ele>
        <time>2024-11-10T15:02:47Z</time>
      </trkpt>
      <trkpt lat="45.94094" lon="1.24896">
        <ele>432.2</ele>
        <time>2024-11-10T15:02:48Z</time>
      </trkpt>
      <trkpt lat="45.94092" lon="1.249">
        <ele>432.2</ele>
        <time>2024-11-10T15:02:49Z</time>
      </trkpt>
      <trkpt lat="45.9409" lon="1.24904">
        <ele>432.3</ele>
        <time>2024-11-10T15:02:50Z</time>
      </trkpt>
      <trkpt lat="45.94088" lon="1.24908">
        <ele>432.4</ele>
        <time>2024-11-10T15:02:51Z</time>
      </trkpt>
      <trkpt lat="45.94087" lon="1.24912">
        <ele>432.4</ele>
        <time>2024-11-10T15:02:52Z</time>
      </trkpt>
      <trkpt lat="45.94085" lon="1.24916">
        <ele>432.5</ele>
        <time>2024-11-10T15:02:53Z</time>
      </trkpt>
      <trkpt lat="45.94083" lon="1.2492">
        <ele>432.6</ele>
        <time>2024-11-10T15:02:54Z</time>
      </trkpt>
      <trkpt lat="45.94081" lon="1.24924">
        <ele>432.6</ele>
        <time>2024-11-10T15:02:55Z</time>
      </trkpt>
      <trkpt lat="45.94079" lon="1.24928">
        <ele>432.7</ele>
        <time>2024-11-10T15:02:56Z</time>
      </trkpt>
      <trkpt lat="45.94077" lon="1.24931">
        <ele>432.8</ele>
        <time>2024-11-10T15:02:57Z</time>
      </trkpt>
      <trkpt lat="45.94075" lon="1.24934">
        <ele>432.8</ele>
        <time>2024-11-10T15:02:58Z</time>
      </trkpt>
      <trkpt lat="45.94073" lon="1.24938">
        <ele>432.9</ele>
        <time>2024-11-10T15:02:59Z</time>
      </trkpt>
      <trkpt lat="45.94071" lon="1.24941">
        <ele>432.9</ele>
        <time>2024-11-10T15:03:00Z</time>
      </trkpt>
      <trkpt lat="45.94068" lon="1.24944">
        <ele>433</ele>
        <time>2024-11-10T15:03:01Z</time>
      </trkpt>
      <trkpt lat="45.94065" lon="1.24947">
        <ele>433</ele>
        <time>2024-11-10T15:03:02Z</time>
      </trkpt>
      <trkpt lat="45.94062" lon="1.2495">
        <ele>433.1</ele>
        <time>2024-11-10T15:03:03Z</time>
      </trkpt>
      <trkpt lat="45.94059" lon="1.24952">
        <ele>433.1</ele>
        <time>2024-11-10T15:03:04Z</time>
      </trkpt>
      <trkpt lat="45.94056" lon="1.24954">
        <ele>433</ele>
        <time>2024-11-10T15:03:05Z</time>
      </trkpt>
      <trkpt lat="45.94052" lon="1.24956">
        <ele>433</ele>
        <time>2024-11-10T15:03:06Z</time>
      </trkpt>
      <trkpt lat="45.94049" lon="1.24958">
        <ele>433</ele>
        <time>2024-11-10T15:03:07Z</time>
      </trkpt>
      <trkpt lat="45.94045" lon="1.2496">
        <ele>432.9</ele>
        <time>2024-11-10T15:03:08Z</time>
      </trkpt>
      <trkpt lat="45.94042" lon="1.24963">
        <ele>432.8</ele>
        <time>2024-11-10T15:03:09Z</time>
      </trkpt>
      <trkpt lat="45.94038" lon="1.24964">
        <ele>432.7</ele>
        <time>2024-11-10T15:03:10Z</time>
      </trkpt>
      <trkpt lat="45.94034" lon="1.24966">
        <ele>432.6</ele>
        <time>2024-11-10T15:03:11Z</time>
      </trkpt>
      <trkpt lat="45.9403" lon="1.24968">
        <ele>432.5</ele>
        <time>2024-11-10T15:03:12Z</time>
      </trkpt>
      <trkpt lat="45.94026" lon="1.2497">
        <ele>432.4</ele>
        <time>2024-11-10T15:03:13Z</time>
      </trkpt>
      <trkpt lat="45.94021" lon="1.2497">
        <ele>432.2</ele>
        <time>2024-11-10T15:03:14Z</time>
      </trkpt>
      <trkpt lat="45.94016" lon="1.24971">
        <ele>432.1</ele>
        <time>2024-11-10T15:03:15Z</time>
      </trkpt>
      <trkpt lat="45.94012" lon="1.24973">
        <ele>432</ele>
        <time>2024-11-10T15:03:16Z</time>
      </trkpt>
      <trkpt lat="45.94007" lon="1.24976">
        <ele>431.8</ele>
        <time>2024-11-10T15:03:17Z</time>
      </trkpt>
      <trkpt lat="45.94002" lon="1.24978">
        <ele>431.6</ele>
        <time>2024-11-10T15:03:18Z</time>
      </trkpt>
      <trkpt lat="45.93998" lon="1.24981">
        <ele>431.5</ele>
        <time>2024-11-10T15:03:19Z</time>
      </trkpt>
      <trkpt lat="45.93993" lon="1.24983">
        <ele>431.3</ele>
        <time>2024-11-10T15:03:20Z</time>
      </trkpt>
      <trkpt lat="45.93987" lon="1.24986">
        <ele>431.2</ele>
        <time>2024-11-10T15:03:21Z</time>
      </trkpt>
      <trkpt lat="45.93982" lon="1.24989">
        <ele>431.1</ele>
        <time>2024-11-10T15:03:22Z</time>
      </trkpt>
      <trkpt lat="45.93976" lon="1.24992">
        <ele>431</ele>
        <time>2024-11-10T15:03:23Z</time>
      </trkpt>
      <trkpt lat="45.93971" lon="1.24995">
        <ele>430.9</ele>
        <time>2024-11-10T15:03:24Z</time>
      </trkpt>
      <trkpt lat="45.93966" lon="1.24997">
        <ele>430.9</ele>
        <time>2024-11-10T15:03:25Z</time>
      </trkpt>
      <trkpt lat="45.93961" lon="1.25">
        <ele>430.9</ele>
        <time>2024-11-10T15:03:26Z</time>
      </trkpt>
      <trkpt lat="45.93956" lon="1.25002">
        <ele>430.9</ele>
        <time>2024-11-10T15:03:27Z</time>
      </trkpt>
      <trkpt lat="45.93951" lon="1.25003">
        <ele>430.9</ele>
        <time>2024-11-10T15:03:28Z</time>
      </trkpt>
      <trkpt lat="45.93946" lon="1.25004">
        <ele>430.9</ele>
        <time>2024-11-10T15:03:29Z</time>
      </trkpt>
      <trkpt lat="45.93941" lon="1.25004">
        <ele>431</ele>
        <time>2024-11-10T15:03:30Z</time>
      </trkpt>
      <trkpt lat="45.93937" lon="1.25005">
        <ele>431.1</ele>
        <time>2024-11-10T15:03:31Z</time>
      </trkpt>
      <trkpt lat="45.93933" lon="1.25006">
        <ele>431.2</ele>
        <time>2024-11-10T15:03:32Z</time>
      </trkpt>
      <trkpt lat="45.93929" lon="1.25006">
        <ele>431.3</ele>
        <time>2024-11-10T15:03:33Z</time>
      </trkpt>
      <trkpt lat="45.93925" lon="1.25007">
        <ele>431.4</ele>
        <time>2024-11-10T15:03:34Z</time>
      </trkpt>
      <trkpt lat="45.9392" lon="1.25008">
        <ele>431.5</ele>
        <time>2024-11-10T15:03:35Z</time>
      </trkpt>
      <trkpt lat="45.93916" lon="1.25009">
        <ele>431.6</ele>
        <time>2024-11-10T15:03:36Z</time>
      </trkpt>
      <trkpt lat="45.93912" lon="1.2501">
        <ele>431.7</ele>
        <time>2024-11-10T15:03:37Z</time>
      </trkpt>
      <trkpt lat="45.93909" lon="1.25011">
        <ele>431.8</ele>
        <time>2024-11-10T15:03:38Z</time>
      </trkpt>
      <trkpt lat="45.93905" lon="1.25012">
        <ele>431.9</ele>
        <time>2024-11-10T15:03:39Z</time>
      </trkpt>
      <trkpt lat="45.93901" lon="1.25013">
        <ele>432</ele>
        <time>2024-11-10T15:03:40Z</time>
      </trkpt>
      <trkpt lat="45.93897" lon="1.25014">
        <ele>432.1</ele>
        <time>2024-11-10T15:03:41Z</time>
      </trkpt>
      <trkpt lat="45.93894" lon="1.25015">
        <ele>432.1</ele>
        <time>2024-11-10T15:03:42Z</time>
      </trkpt>
      <trkpt lat="45.9389" lon="1.25017">
        <ele>432.2</ele>
        <time>2024-11-10T15:03:43Z</time>
      </trkpt>
      <trkpt lat="45.93886" lon="1.25018">
        <ele>432.2</ele>
        <time>2024-11-10T15:03:44Z</time>
      </trkpt>
      <trkpt lat="45.93883" lon="1.2502">
        <ele>432.2</ele>
        <time>2024-11-10T15:03:45Z</time>
      </trkpt>
      <trkpt lat="45.9388" lon="1.25021">
        <ele>432.2</ele>
        <time>2024-11-10T15:03:46Z</time>
      </trkpt>
      <trkpt lat="45.93877" lon="1.25023">
        <ele>432.2</ele>
        <time>2024-11-10T15:03:47Z</time>
      </trkpt>
      <trkpt lat="45.93873" lon="1.25025">
        <ele>432.2</ele>
        <time>2024-11-10T15:03:48Z</time>
      </trkpt>
      <trkpt lat="45.9387" lon="1.25027">
        <ele>432.2</ele>
        <time>2024-11-10T15:03:49Z</time>
      </trkpt>
      <trkpt lat="45.93867" lon="1.25029">
        <ele>432.1</ele>
        <time>2024-11-10T15:03:50Z</time>
      </trkpt>
      <trkpt lat="45.93863" lon="1.25031">
        <ele>432</ele>
        <time>2024-11-10T15:03:51Z</time>
      </trkpt>
      <trkpt lat="45.9386" lon="1.25033">
        <ele>431.9</ele>
        <time>2024-11-10T15:03:52Z</time>
      </trkpt>
      <trkpt lat="45.93856" lon="1.25035">
        <ele>431.7</ele>
        <time>2024-11-10T15:03:53Z</time>
      </trkpt>
      <trkpt lat="45.93853" lon="1.25037">
        <ele>431.5</ele>
        <time>2024-11-10T15:03:54Z</time>
      </trkpt>
      <trkpt lat="45.93849" lon="1.25039">
        <ele>431.3</ele>
        <time>2024-11-10T15:03:55Z</time>
      </trkpt>
      <trkpt lat="45.93845" lon="1.2504">
        <ele>431.1</ele>
        <time>2024-11-10T15:03:56Z</time>
      </trkpt>
      <trkpt lat="45.93841" lon="1.25042">
        <ele>430.8</ele>
        <time>2024-11-10T15:03:57Z</time>
      </trkpt>
      <trkpt lat="45.93836" lon="1.25046">
        <ele>430.4</ele>
        <time>2024-11-10T15:03:58Z</time>
      </trkpt>
      <trkpt lat="45.93831" lon="1.25048">
        <ele>430</ele>
        <time>2024-11-10T15:03:59Z</time>
      </trkpt>
      <trkpt lat="45.93826" lon="1.25051">
        <ele>429.6</ele>
        <time>2024-11-10T15:04:00Z</time>
      </trkpt>
      <trkpt lat="45.9382" lon="1.25054">
        <ele>429.1</ele>
        <time>2024-11-10T15:04:01Z</time>
      </trkpt>
      <trkpt lat="45.93814" lon="1.25057">
        <ele>428.7</ele>
        <time>2024-11-10T15:04:02Z</time>
      </trkpt>
      <trkpt lat="45.93809" lon="1.25061">
        <ele>428.4</ele>
        <time>2024-11-10T15:04:03Z</time>
      </trkpt>
      <trkpt lat="45.93804" lon="1.25067">
        <ele>428.1</ele>
        <time>2024-11-10T15:04:04Z</time>
      </trkpt>
      <trkpt lat="45.93799" lon="1.25072">
        <ele>427.8</ele>
        <time>2024-11-10T15:04:05Z</time>
      </trkpt>
      <trkpt lat="45.93794" lon="1.25079">
        <ele>427.6</ele>
        <time>2024-11-10T15:04:06Z</time>
      </trkpt>
      <trkpt lat="45.93789" lon="1.25086">
        <ele>427.4</ele>
        <time>2024-11-10T15:04:07Z</time>
      </trkpt>
      <trkpt lat="45.93785" lon="1.25092">
        <ele>427.2</ele>
        <time>2024-11-10T15:04:08Z</time>
      </trkpt>
      <trkpt lat="45.9378" lon="1.25099">
        <ele>427.1</ele>
        <time>2024-11-10T15:04:09Z</time>
      </trkpt>
      <trkpt lat="45.93776" lon="1.25105">
        <ele>427.1</ele>
        <time>2024-11-10T15:04:10Z</time>
      </trkpt>
      <trkpt lat="45.93773" lon="1.25112">
        <ele>427.1</ele>
        <time>2024-11-10T15:04:11Z</time>
      </trkpt>
      <trkpt lat="45.9377" lon="1.25119">
        <ele>427.1</ele>
        <time>2024-11-10T15:04:12Z</time>
      </trkpt>
      <trkpt lat="45.93767" lon="1.25126">
        <ele>427.2</ele>
        <time>2024-11-10T15:04:13Z</time>
      </trkpt>
      <trkpt lat="45.93764" lon="1.25132">
        <ele>427.4</ele>
        <time>2024-11-10T15:04:14Z</time>
      </trkpt>
      <trkpt lat="45.93762" lon="1.25138">
        <ele>427.5</ele>
        <time>2024-11-10T15:04:15Z</time>
      </trkpt>
      <trkpt lat="45.9376" lon="1.25144">
        <ele>427.6</ele>
        <time>2024-11-10T15:04:16Z</time>
      </trkpt>
      <trkpt lat="45.93758" lon="1.25148">
        <ele>427.7</ele>
        <time>2024-11-10T15:04:17Z</time>
      </trkpt>
      <trkpt lat="45.93756" lon="1.25153">
        <ele>427.8</ele>
        <time>2024-11-10T15:04:18Z</time>
      </trkpt>
      <trkpt lat="45.93754" lon="1.25157">
        <ele>427.9</ele>
        <time>2024-11-10T15:04:19Z</time>
      </trkpt>
      <trkpt lat="45.93752" lon="1.2516">
        <ele>427.9</ele>
        <time>2024-11-10T15:04:20Z</time>
      </trkpt>
      <trkpt lat="45.9375" lon="1.25163">
        <ele>428</ele>
        <time>2024-11-10T15:04:21Z</time>
      </trkpt>
      <trkpt lat="45.93747" lon="1.25167">
        <ele>428.2</ele>
        <time>2024-11-10T15:04:22Z</time>
      </trkpt>
      <trkpt lat="45.93744" lon="1.25171">
        <ele>428.3</ele>
        <time>2024-11-10T15:04:23Z</time>
      </trkpt>
      <trkpt lat="45.93741" lon="1.25175">
        <ele>428.4</ele>
        <time>2024-11-10T15:04:24Z</time>
      </trkpt>
      <trkpt lat="45.93737" lon="1.25178">
        <ele>428.6</ele>
        <time>2024-11-10T15:04:25Z</time>
      </trkpt>
      <trkpt lat="45.93734" lon="1.2518">
        <ele>428.7</ele>
        <time>2024-11-10T15:04:26Z</time>
      </trkpt>
      <trkpt lat="45.9373" lon="1.25183">
        <ele>428.9</ele>
        <time>2024-11-10T15:04:27Z</time>
      </trkpt>
      <trkpt lat="45.93727" lon="1.25185">
        <ele>429.1</ele>
        <time>2024-11-10T15:04:28Z</time>
      </trkpt>
      <trkpt lat="45.93724" lon="1.25187">
        <ele>429.2</ele>
        <time>2024-11-10T15:04:29Z</time>
      </trkpt>
      <trkpt lat="45.93721" lon="1.2519">
        <ele>429.4</ele>
        <time>2024-11-10T15:04:30Z</time>
      </trkpt>
      <trkpt lat="45.93718" lon="1.25192">
        <ele>429.6</ele>
        <time>2024-11-10T15:04:31Z</time>
      </trkpt>
      <trkpt lat="45.93715" lon="1.25194">
        <ele>429.8</ele>
        <time>2024-11-10T15:04:32Z</time>
      </trkpt>
      <trkpt lat="45.93712" lon="1.25195">
        <ele>430</ele>
        <time>2024-11-10T15:04:33Z</time>
      </trkpt>
      <trkpt lat="45.93709" lon="1.25197">
        <ele>430.1</ele>
        <time>2024-11-10T15:04:34Z</time>
      </trkpt>
      <trkpt lat="45.93705" lon="1.252">
        <ele>430.4</ele>
        <time>2024-11-10T15:04:36Z</time>
      </trkpt>
      <trkpt lat="45.93701" lon="1.25203">
        <ele>430.7</ele>
        <time>2024-11-10T15:04:37Z</time>
      </trkpt>
      <trkpt lat="45.93698" lon="1.25206">
        <ele>430.9</ele>
        <time>2024-11-10T15:04:38Z</time>
      </trkpt>
      <trkpt lat="45.93694" lon="1.25209">
        <ele>431.2</ele>
        <time>2024-11-10T15:04:39Z</time>
      </trkpt>
      <trkpt lat="45.93691" lon="1.25211">
        <ele>431.4</ele>
        <time>2024-11-10T15:04:40Z</time>
      </trkpt>
      <trkpt lat="45.93688" lon="1.25213">
        <ele>431.5</ele>
        <time>2024-11-10T15:04:41Z</time>
      </trkpt>
      <trkpt lat="45.93684" lon="1.25215">
        <ele>431.7</ele>
        <time>2024-11-10T15:04:43Z</time>
      </trkpt>
      <trkpt lat="45.9368" lon="1.25217">
        <ele>431.8</ele>
        <time>2024-11-10T15:04:45Z</time>
      </trkpt>
      <trkpt lat="45.93676" lon="1.25219">
        <ele>431.9</ele>
        <time>2024-11-10T15:04:47Z</time>
      </trkpt>
      <trkpt lat="45.93672" lon="1.2522">
        <ele>432</ele>
        <time>2024-11-10T15:04:49Z</time>
      </trkpt>
      <trkpt lat="45.93668" lon="1.25224">
        <ele>431.9</ele>
        <time>2024-11-10T15:04:51Z</time>
      </trkpt>
      <trkpt lat="45.93666" lon="1.25229">
        <ele>431.5</ele>
        <time>2024-11-10T15:04:53Z</time>
      </trkpt>
      <trkpt lat="45.93664" lon="1.25234">
        <ele>431.1</ele>
        <time>2024-11-10T15:04:54Z</time>
      </trkpt>
      <trkpt lat="45.93664" lon="1.25238">
        <ele>430.9</ele>
        <time>2024-11-10T15:04:55Z</time>
      </trkpt>
      <trkpt lat="45.93663" lon="1.25243">
        <ele>430.7</ele>
        <time>2024-11-10T15:04:56Z</time>
      </trkpt>
      <trkpt lat="45.93662" lon="1.25247">
        <ele>430.5</ele>
        <time>2024-11-10T15:04:57Z</time>
      </trkpt>
      <trkpt lat="45.93662" lon="1.25253">
        <ele>430.2</ele>
        <time>2024-11-10T15:04:58Z</time>
      </trkpt>
      <trkpt lat="45.93661" lon="1.25258">
        <ele>429.9</ele>
        <time>2024-11-10T15:04:59Z</time>
      </trkpt>
      <trkpt lat="45.9366" lon="1.25264">
        <ele>429.6</ele>
        <time>2024-11-10T15:05:00Z</time>
      </trkpt>
      <trkpt lat="45.93658" lon="1.2527">
        <ele>429.2</ele>
        <time>2024-11-10T15:05:01Z</time>
      </trkpt>
      <trkpt lat="45.93657" lon="1.25276">
        <ele>428.9</ele>
        <time>2024-11-10T15:05:02Z</time>
      </trkpt>
      <trkpt lat="45.93655" lon="1.25283">
        <ele>428.5</ele>
        <time>2024-11-10T15:05:03Z</time>
      </trkpt>
      <trkpt lat="45.93654" lon="1.2529">
        <ele>428.1</ele>
        <time>2024-11-10T15:05:04Z</time>
      </trkpt>
      <trkpt lat="45.93652" lon="1.25298">
        <ele>427.6</ele>
        <time>2024-11-10T15:05:05Z</time>
      </trkpt>
      <trkpt lat="45.93651" lon="1.25306">
        <ele>427.2</ele>
        <time>2024-11-10T15:05:06Z</time>
      </trkpt>
      <trkpt lat="45.9365" lon="1.25314">
        <ele>426.7</ele>
        <time>2024-11-10T15:05:07Z</time>
      </trkpt>
      <trkpt lat="45.93648" lon="1.25322">
        <ele>426.2</ele>
        <time>2024-11-10T15:05:08Z</time>
      </trkpt>
      <trkpt lat="45.93646" lon="1.25331">
        <ele>425.7</ele>
        <time>2024-11-10T15:05:09Z</time>
      </trkpt>
      <trkpt lat="45.93644" lon="1.25339">
        <ele>425.2</ele>
        <time>2024-11-10T15:05:10Z</time>
      </trkpt>
      <trkpt lat="45.93643" lon="1.25349">
        <ele>424.7</ele>
        <time>2024-11-10T15:05:11Z</time>
      </trkpt>
      <trkpt lat="45.9364" lon="1.25358">
        <ele>424.2</ele>
        <time>2024-11-10T15:05:12Z</time>
      </trkpt>
      <trkpt lat="45.93639" lon="1.25367">
        <ele>423.7</ele>
        <time>2024-11-10T15:05:13Z</time>
      </trkpt>
      <trkpt lat="45.93637" lon="1.25376">
        <ele>423.2</ele>
        <time>2024-11-10T15:05:14Z</time>
      </trkpt>
      <trkpt lat="45.93636" lon="1.25384">
        <ele>422.8</ele>
        <time>2024-11-10T15:05:15Z</time>
      </trkpt>
      <trkpt lat="45.93634" lon="1.25393">
        <ele>422.3</ele>
        <time>2024-11-10T15:05:16Z</time>
      </trkpt>
      <trkpt lat="45.93632" lon="1.25402">
        <ele>421.8</ele>
        <time>2024-11-10T15:05:17Z</time>
      </trkpt>
      <trkpt lat="45.93631" lon="1.25411">
        <ele>421.4</ele>
        <time>2024-11-10T15:05:18Z</time>
      </trkpt>
      <trkpt lat="45.93629" lon="1.2542">
        <ele>420.9</ele>
        <time>2024-11-10T15:05:19Z</time>
      </trkpt>
      <trkpt lat="45.93627" lon="1.2543">
        <ele>420.3</ele>
        <time>2024-11-10T15:05:20Z</time>
      </trkpt>
      <trkpt lat="45.93626" lon="1.25439">
        <ele>419.8</ele>
        <time>2024-11-10T15:05:21Z</time>
      </trkpt>
      <trkpt lat="45.93624" lon="1.25448">
        <ele>419.4</ele>
        <time>2024-11-10T15:05:22Z</time>
      </trkpt>
      <trkpt lat="45.93623" lon="1.25458">
        <ele>419</ele>
        <time>2024-11-10T15:05:23Z</time>
      </trkpt>
      <trkpt lat="45.93621" lon="1.25468">
        <ele>418.6</ele>
        <time>2024-11-10T15:05:24Z</time>
      </trkpt>
      <trkpt lat="45.9362" lon="1.25478">
        <ele>418.2</ele>
        <time>2024-11-10T15:05:25Z</time>
      </trkpt>
      <trkpt lat="45.93619" lon="1.25488">
        <ele>418</ele>
        <time>2024-11-10T15:05:26Z</time>
      </trkpt>
      <trkpt lat="45.9362" lon="1.25498">
        <ele>417.7</ele>
        <time>2024-11-10T15:05:27Z</time>
      </trkpt>
      <trkpt lat="45.9362" lon="1.25508">
        <ele>417.5</ele>
        <time>2024-11-10T15:05:28Z</time>
      </trkpt>
      <trkpt lat="45.93622" lon="1.25517">
        <ele>417.3</ele>
        <time>2024-11-10T15:05:29Z</time>
      </trkpt>
      <trkpt lat="45.93624" lon="1.25526">
        <ele>417.2</ele>
        <time>2024-11-10T15:05:30Z</time>
      </trkpt>
      <trkpt lat="45.93625" lon="1.25534">
        <ele>417</ele>
        <time>2024-11-10T15:05:31Z</time>
      </trkpt>
      <trkpt lat="45.93627" lon="1.25542">
        <ele>416.8</ele>
        <time>2024-11-10T15:05:32Z</time>
      </trkpt>
      <trkpt lat="45.93629" lon="1.25549">
        <ele>416.7</ele>
        <time>2024-11-10T15:05:33Z</time>
      </trkpt>
      <trkpt lat="45.93631" lon="1.25554">
        <ele>416.5</ele>
        <time>2024-11-10T15:05:34Z</time>
      </trkpt>
      <trkpt lat="45.9363" lon="1.25559">
        <ele>416.4</ele>
        <time>2024-11-10T15:05:35Z</time>
      </trkpt>
      <trkpt lat="45.93628" lon="1.25561">
        <ele>415.8</ele>
        <time>2024-11-10T15:05:36Z</time>
      </trkpt>
      <trkpt lat="45.93624" lon="1.2556">
        <ele>415.4</ele>
        <time>2024-11-10T15:05:37Z</time>
      </trkpt>
      <trkpt lat="45.9362" lon="1.25557">
        <ele>415</ele>
        <time>2024-11-10T15:05:38Z</time>
      </trkpt>
      <trkpt lat="45.93616" lon="1.25553">
        <ele>414.5</ele>
        <time>2024-11-10T15:05:39Z</time>
      </trkpt>
      <trkpt lat="45.93612" lon="1.25547">
        <ele>414</ele>
        <time>2024-11-10T15:05:40Z</time>
      </trkpt>
      <trkpt lat="45.93607" lon="1.25541">
        <ele>413.6</ele>
        <time>2024-11-10T15:05:41Z</time>
      </trkpt>
      <trkpt lat="45.93601" lon="1.25536">
        <ele>413.1</ele>
        <time>2024-11-10T15:05:42Z</time>
      </trkpt>
      <trkpt lat="45.93595" lon="1.25532">
        <ele>412.7</ele>
        <time>2024-11-10T15:05:43Z</time>
      </trkpt>
      <trkpt lat="45.93588" lon="1.25528">
        <ele>412.4</ele>
        <time>2024-11-10T15:05:44Z</time>
      </trkpt>
      <trkpt lat="45.93581" lon="1.25524">
        <ele>412.1</ele>
        <time>2024-11-10T15:05:45Z</time>
      </trkpt>
      <trkpt lat="45.93574" lon="1.25519">
        <ele>411.9</ele>
        <time>2024-11-10T15:05:46Z</time>
      </trkpt>
      <trkpt lat="45.93567" lon="1.25516">
        <ele>411.7</ele>
        <time>2024-11-10T15:05:47Z</time>
      </trkpt>
      <trkpt lat="45.93559" lon="1.25514">
        <ele>411.5</ele>
        <time>2024-11-10T15:05:48Z</time>
      </trkpt>
      <trkpt lat="45.93552" lon="1.25513">
        <ele>411.4</ele>
        <time>2024-11-10T15:05:49Z</time>
      </trkpt>
      <trkpt lat="45.93545" lon="1.25512">
        <ele>411.4</ele>
        <time>2024-11-10T15:05:50Z</time>
      </trkpt>
      <trkpt lat="45.93539" lon="1.25511">
        <ele>411.4</ele>
        <time>2024-11-10T15:05:51Z</time>
      </trkpt>
      <trkpt lat="45.93533" lon="1.25508">
        <ele>411.3</ele>
        <time>2024-11-10T15:05:52Z</time>
      </trkpt>
      <trkpt lat="45.93527" lon="1.25505">
        <ele>411.1</ele>
        <time>2024-11-10T15:05:53Z</time>
      </trkpt>
      <trkpt lat="45.93522" lon="1.255">
        <ele>411</ele>
        <time>2024-11-10T15:05:54Z</time>
      </trkpt>
      <trkpt lat="45.93517" lon="1.25496">
        <ele>410.8</ele>
        <time>2024-11-10T15:05:55Z</time>
      </trkpt>
      <trkpt lat="45.93512" lon="1.25492">
        <ele>410.6</ele>
        <time>2024-11-10T15:05:56Z</time>
      </trkpt>
      <trkpt lat="45.93507" lon="1.25487">
        <ele>410.4</ele>
        <time>2024-11-10T15:05:57Z</time>
      </trkpt>
      <trkpt lat="45.93502" lon="1.25483">
        <ele>410.2</ele>
        <time>2024-11-10T15:05:58Z</time>
      </trkpt>
      <trkpt lat="45.93497" lon="1.25478">
        <ele>410</ele>
        <time>2024-11-10T15:05:59Z</time>
      </trkpt>
      <trkpt lat="45.93492" lon="1.25472">
        <ele>409.8</ele>
        <time>2024-11-10T15:06:00Z</time>
      </trkpt>
      <trkpt lat="45.93486" lon="1.25467">
        <ele>409.5</ele>
        <time>2024-11-10T15:06:01Z</time>
      </trkpt>
      <trkpt lat="45.93481" lon="1.25462">
        <ele>409.3</ele>
        <time>2024-11-10T15:06:02Z</time>
      </trkpt>
      <trkpt lat="45.93476" lon="1.25457">
        <ele>409.1</ele>
        <time>2024-11-10T15:06:03Z</time>
      </trkpt>
      <trkpt lat="45.93471" lon="1.25452">
        <ele>408.9</ele>
        <time>2024-11-10T15:06:04Z</time>
      </trkpt>
      <trkpt lat="45.93466" lon="1.25448">
        <ele>408.7</ele>
        <time>2024-11-10T15:06:05Z</time>
      </trkpt>
      <trkpt lat="45.9346" lon="1.25442">
        <ele>408.4</ele>
        <time>2024-11-10T15:06:06Z</time>
      </trkpt>
      <trkpt lat="45.93455" lon="1.25436">
        <ele>408.2</ele>
        <time>2024-11-10T15:06:07Z</time>
      </trkpt>
      <trkpt lat="45.9345" lon="1.2543">
        <ele>407.9</ele>
        <time>2024-11-10T15:06:08Z</time>
      </trkpt>
      <trkpt lat="45.93446" lon="1.25421">
        <ele>407.7</ele>
        <time>2024-11-10T15:06:09Z</time>
      </trkpt>
      <trkpt lat="45.93442" lon="1.25413">
        <ele>407.5</ele>
        <time>2024-11-10T15:06:10Z</time>
      </trkpt>
      <trkpt lat="45.93438" lon="1.25404">
        <ele>407.4</ele>
        <time>2024-11-10T15:06:11Z</time>
      </trkpt>
      <trkpt lat="45.93435" lon="1.25395">
        <ele>407.3</ele>
        <time>2024-11-10T15:06:12Z</time>
      </trkpt>
      <trkpt lat="45.93432" lon="1.25387">
        <ele>407.3</ele>
        <time>2024-11-10T15:06:13Z</time>
      </trkpt>
      <trkpt lat="45.93429" lon="1.25379">
        <ele>407.2</ele>
        <time>2024-11-10T15:06:14Z</time>
      </trkpt>
      <trkpt lat="45.93427" lon="1.25372">
        <ele>407.2</ele>
        <time>2024-11-10T15:06:15Z</time>
      </trkpt>
      <trkpt lat="45.93424" lon="1.25365">
        <ele>407.3</ele>
        <time>2024-11-10T15:06:16Z</time>
      </trkpt>
      <trkpt lat="45.93419" lon="1.2536">
        <ele>407.3</ele>
        <time>2024-11-10T15:06:17Z</time>
      </trkpt>
      <trkpt lat="45.93414" lon="1.25353">
        <ele>407.4</ele>
        <time>2024-11-10T15:06:18Z</time>
      </trkpt>
      <trkpt lat="45.9341" lon="1.25349">
        <ele>407.5</ele>
        <time>2024-11-10T15:06:19Z</time>
      </trkpt>
      <trkpt lat="45.93405" lon="1.25344">
        <ele>407.5</ele>
        <time>2024-11-10T15:06:20Z</time>
      </trkpt>
      <trkpt lat="45.93401" lon="1.25341">
        <ele>407.6</ele>
        <time>2024-11-10T15:06:21Z</time>
      </trkpt>
      <trkpt lat="45.93395" lon="1.25335">
        <ele>407.7</ele>
        <time>2024-11-10T15:06:22Z</time>
      </trkpt>
      <trkpt lat="45.93391" lon="1.2533">
        <ele>407.7</ele>
        <time>2024-11-10T15:06:23Z</time>
      </trkpt>
      <trkpt lat="45.93387" lon="1.25323">
        <ele>407.7</ele>
        <time>2024-11-10T15:06:24Z</time>
      </trkpt>
      <trkpt lat="45.93383" lon="1.25316">
        <ele>407.7</ele>
        <time>2024-11-10T15:06:25Z</time>
      </trkpt>
      <trkpt lat="45.93379" lon="1.2531">
        <ele>407.5</ele>
        <time>2024-11-10T15:06:26Z</time>
      </trkpt>
      <trkpt lat="45.93374" lon="1.25302">
        <ele>407.2</ele>
        <time>2024-11-10T15:06:27Z</time>
      </trkpt>
      <trkpt lat="45.93369" lon="1.25297">
        <ele>406.9</ele>
        <time>2024-11-10T15:06:28Z</time>
      </trkpt>
      <trkpt lat="45.93364" lon="1.25291">
        <ele>406.5</ele>
        <time>2024-11-10T15:06:29Z</time>
      </trkpt>
      <trkpt lat="45.93357" lon="1.25286">
        <ele>406</ele>
        <time>2024-11-10T15:06:30Z</time>
      </trkpt>
      <trkpt lat="45.93351" lon="1.2528">
        <ele>405.6</ele>
        <time>2024-11-10T15:06:31Z</time>
      </trkpt>
      <trkpt lat="45.93347" lon="1.25275">
        <ele>405.2</ele>
        <time>2024-11-10T15:06:32Z</time>
      </trkpt>
      <trkpt lat="45.9334" lon="1.25269">
        <ele>404.7</ele>
        <time>2024-11-10T15:06:33Z</time>
      </trkpt>
      <trkpt lat="45.93333" lon="1.25261">
        <ele>404.2</ele>
        <time>2024-11-10T15:06:34Z</time>
      </trkpt>
      <trkpt lat="45.93328" lon="1.25254">
        <ele>403.8</ele>
        <time>2024-11-10T15:06:35Z</time>
      </trkpt>
      <trkpt lat="45.93321" lon="1.25247">
        <ele>403.3</ele>
        <time>2024-11-10T15:06:36Z</time>
      </trkpt>
      <trkpt lat="45.93314" lon="1.2524">
        <ele>402.8</ele>
        <time>2024-11-10T15:06:37Z</time>
      </trkpt>
      <trkpt lat="45.93307" lon="1.25232">
        <ele>402.3</ele>
        <time>2024-11-10T15:06:38Z</time>
      </trkpt>
      <trkpt lat="45.933" lon="1.25226">
        <ele>401.8</ele>
        <time>2024-11-10T15:06:39Z</time>
      </trkpt>
      <trkpt lat="45.93293" lon="1.25218">
        <ele>401.3</ele>
        <time>2024-11-10T15:06:40Z</time>
      </trkpt>
      <trkpt lat="45.93286" lon="1.25211">
        <ele>400.8</ele>
        <time>2024-11-10T15:06:41Z</time>
      </trkpt>
      <trkpt lat="45.9328" lon="1.25203">
        <ele>400.2</ele>
        <time>2024-11-10T15:06:42Z</time>
      </trkpt>
      <trkpt lat="45.93272" lon="1.25197">
        <ele>399.6</ele>
        <time>2024-11-10T15:06:43Z</time>
      </trkpt>
      <trkpt lat="45.93267" lon="1.2519">
        <ele>399.2</ele>
        <time>2024-11-10T15:06:44Z</time>
      </trkpt>
      <trkpt lat="45.93263" lon="1.25181">
        <ele>398.8</ele>
        <time>2024-11-10T15:06:45Z</time>
      </trkpt>
      <trkpt lat="45.93258" lon="1.2517">
        <ele>398.3</ele>
        <time>2024-11-10T15:06:46Z</time>
      </trkpt>
      <trkpt lat="45.93254" lon="1.2516">
        <ele>398</ele>
        <time>2024-11-10T15:06:47Z</time>
      </trkpt>
      <trkpt lat="45.93248" lon="1.25152">
        <ele>397.8</ele>
        <time>2024-11-10T15:06:48Z</time>
      </trkpt>
      <trkpt lat="45.93243" lon="1.25145">
        <ele>397.7</ele>
        <time>2024-11-10T15:06:49Z</time>
      </trkpt>
      <trkpt lat="45.93238" lon="1.2514">
        <ele>397.8</ele>
        <time>2024-11-10T15:06:50Z</time>
      </trkpt>
      <trkpt lat="45.93232" lon="1.25135">
        <ele>397.8</ele>
        <time>2024-11-10T15:06:51Z</time>
      </trkpt>
      <trkpt lat="45.93226" lon="1.25132">
        <ele>397.9</ele>
        <time>2024-11-10T15:06:52Z</time>
      </trkpt>
      <trkpt lat="45.93222" lon="1.25133">
        <ele>397.9</ele>
        <time>2024-11-10T15:06:53Z</time>
      </trkpt>
      <trkpt lat="45.93217" lon="1.25136">
        <ele>398</ele>
        <time>2024-11-10T15:06:54Z</time>
      </trkpt>
      <trkpt lat="45.93211" lon="1.25139">
        <ele>398.1</ele>
        <time>2024-11-10T15:06:55Z</time>
      </trkpt>
      <trkpt lat="45.93206" lon="1.25143">
        <ele>398.2</ele>
        <time>2024-11-10T15:06:57Z</time>
      </trkpt>
      <trkpt lat="45.93202" lon="1.25145">
        <ele>398.3</ele>
        <time>2024-11-10T15:06:58Z</time>
      </trkpt>
      <trkpt lat="45.93197" lon="1.25148">
        <ele>398.4</ele>
        <time>2024-11-10T15:06:59Z</time>
      </trkpt>
      <trkpt lat="45.93192" lon="1.2515">
        <ele>398.5</ele>
        <time>2024-11-10T15:07:00Z</time>
      </trkpt>
      <trkpt lat="45.93187" lon="1.25152">
        <ele>398.6</ele>
        <time>2024-11-10T15:07:01Z</time>
      </trkpt>
      <trkpt lat="45.93181" lon="1.25153">
        <ele>398.8</ele>
        <time>2024-11-10T15:07:02Z</time>
      </trkpt>
      <trkpt lat="45.93176" lon="1.25153">
        <ele>399</ele>
        <time>2024-11-10T15:07:03Z</time>
      </trkpt>
      <trkpt lat="45.9317" lon="1.25155">
        <ele>399.2</ele>
        <time>2024-11-10T15:07:04Z</time>
      </trkpt>
      <trkpt lat="45.93164" lon="1.25156">
        <ele>399.4</ele>
        <time>2024-11-10T15:07:05Z</time>
      </trkpt>
      <trkpt lat="45.93159" lon="1.25157">
        <ele>399.7</ele>
        <time>2024-11-10T15:07:06Z</time>
      </trkpt>
      <trkpt lat="45.93154" lon="1.25157">
        <ele>399.9</ele>
        <time>2024-11-10T15:07:07Z</time>
      </trkpt>
      <trkpt lat="45.93148" lon="1.25156">
        <ele>400.1</ele>
        <time>2024-11-10T15:07:08Z</time>
      </trkpt>
      <trkpt lat="45.93143" lon="1.25156">
        <ele>400.3</ele>
        <time>2024-11-10T15:07:09Z</time>
      </trkpt>
      <trkpt lat="45.93137" lon="1.25154">
        <ele>400.5</ele>
        <time>2024-11-10T15:07:10Z</time>
      </trkpt>
      <trkpt lat="45.93132" lon="1.25152">
        <ele>400.7</ele>
        <time>2024-11-10T15:07:11Z</time>
      </trkpt>
      <trkpt lat="45.93127" lon="1.2515">
        <ele>400.8</ele>
        <time>2024-11-10T15:07:12Z</time>
      </trkpt>
      <trkpt lat="45.93122" lon="1.25148">
        <ele>400.9</ele>
        <time>2024-11-10T15:07:13Z</time>
      </trkpt>
      <trkpt lat="45.93117" lon="1.25145">
        <ele>401</ele>
        <time>2024-11-10T15:07:14Z</time>
      </trkpt>
      <trkpt lat="45.93112" lon="1.25142">
        <ele>401</ele>
        <time>2024-11-10T15:07:15Z</time>
      </trkpt>
      <trkpt lat="45.93108" lon="1.25138">
        <ele>401</ele>
        <time>2024-11-10T15:07:16Z</time>
      </trkpt>
      <trkpt lat="45.93104" lon="1.25133">
        <ele>400.9</ele>
        <time>2024-11-10T15:07:17Z</time>
      </trkpt>
      <trkpt lat="45.931" lon="1.25128">
        <ele>400.8</ele>
        <time>2024-11-10T15:07:18Z</time>
      </trkpt>
      <trkpt lat="45.93096" lon="1.25123">
        <ele>400.8</ele>
        <time>2024-11-10T15:07:19Z</time>
      </trkpt>
      <trkpt lat="45.93092" lon="1.25119">
        <ele>400.7</ele>
        <time>2024-11-10T15:07:20Z</time>
      </trkpt>
      <trkpt lat="45.93088" lon="1.25114">
        <ele>400.7</ele>
        <time>2024-11-10T15:07:21Z</time>
      </trkpt>
      <trkpt lat="45.93084" lon="1.2511">
        <ele>400.7</ele>
        <time>2024-11-10T15:07:22Z</time>
      </trkpt>
      <trkpt lat="45.93081" lon="1.25105">
        <ele>400.7</ele>
        <time>2024-11-10T15:07:23Z</time>
      </trkpt>
      <trkpt lat="45.93078" lon="1.25101">
        <ele>400.8</ele>
        <time>2024-11-10T15:07:24Z</time>
      </trkpt>
      <trkpt lat="45.93074" lon="1.25097">
        <ele>400.9</ele>
        <time>2024-11-10T15:07:25Z</time>
      </trkpt>
      <trkpt lat="45.93071" lon="1.25093">
        <ele>401</ele>
        <time>2024-11-10T15:07:26Z</time>
      </trkpt>
      <trkpt lat="45.93068" lon="1.25089">
        <ele>401.2</ele>
        <time>2024-11-10T15:07:27Z</time>
      </trkpt>
      <trkpt lat="45.93065" lon="1.25085">
        <ele>401.4</ele>
        <time>2024-11-10T15:07:28Z</time>
      </trkpt>
      <trkpt lat="45.93062" lon="1.25081">
        <ele>401.6</ele>
        <time>2024-11-10T15:07:29Z</time>
      </trkpt>
      <trkpt lat="45.9306" lon="1.25077">
        <ele>401.8</ele>
        <time>2024-11-10T15:07:30Z</time>
      </trkpt>
      <trkpt lat="45.93058" lon="1.25072">
        <ele>402</ele>
        <time>2024-11-10T15:07:31Z</time>
      </trkpt>
      <trkpt lat="45.93056" lon="1.25068">
        <ele>402.3</ele>
        <time>2024-11-10T15:07:32Z</time>
      </trkpt>
      <trkpt lat="45.93055" lon="1.25064">
        <ele>402.5</ele>
        <time>2024-11-10T15:07:33Z</time>
      </trkpt>
      <trkpt lat="45.93054" lon="1.2506">
        <ele>402.6</ele>
        <time>2024-11-10T15:07:34Z</time>
      </trkpt>
      <trkpt lat="45.93053" lon="1.25055">
        <ele>402.9</ele>
        <time>2024-11-10T15:07:35Z</time>
      </trkpt>
      <trkpt lat="45.93052" lon="1.25049">
        <ele>403.1</ele>
        <time>2024-11-10T15:07:37Z</time>
      </trkpt>
      <trkpt lat="45.93051" lon="1.25043">
        <ele>403.3</ele>
        <time>2024-11-10T15:07:38Z</time>
      </trkpt>
      <trkpt lat="45.93051" lon="1.25039">
        <ele>403.4</ele>
        <time>2024-11-10T15:07:39Z</time>
      </trkpt>
      <trkpt lat="45.9305" lon="1.25034">
        <ele>403.6</ele>
        <time>2024-11-10T15:07:40Z</time>
      </trkpt>
      <trkpt lat="45.93049" lon="1.25029">
        <ele>403.7</ele>
        <time>2024-11-10T15:07:41Z</time>
      </trkpt>
      <trkpt lat="45.93049" lon="1.25024">
        <ele>403.9</ele>
        <time>2024-11-10T15:07:42Z</time>
      </trkpt>
      <trkpt lat="45.93048" lon="1.25019">
        <ele>404</ele>
        <time>2024-11-10T15:07:43Z</time>
      </trkpt>
      <trkpt lat="45.93047" lon="1.25014">
        <ele>404.2</ele>
        <time>2024-11-10T15:07:44Z</time>
      </trkpt>
      <trkpt lat="45.93046" lon="1.2501">
        <ele>404.3</ele>
        <time>2024-11-10T15:07:45Z</time>
      </trkpt>
      <trkpt lat="45.93045" lon="1.25005">
        <ele>404.5</ele>
        <time>2024-11-10T15:07:46Z</time>
      </trkpt>
      <trkpt lat="45.93044" lon="1.25001">
        <ele>404.7</ele>
        <time>2024-11-10T15:07:47Z</time>
      </trkpt>
      <trkpt lat="45.93043" lon="1.24996">
        <ele>404.9</ele>
        <time>2024-11-10T15:07:48Z</time>
      </trkpt>
      <trkpt lat="45.93043" lon="1.24992">
        <ele>405.1</ele>
        <time>2024-11-10T15:07:49Z</time>
      </trkpt>
      <trkpt lat="45.93042" lon="1.24987">
        <ele>405.4</ele>
        <time>2024-11-10T15:07:50Z</time>
      </trkpt>
      <trkpt lat="45.93041" lon="1.24983">
        <ele>405.7</ele>
        <time>2024-11-10T15:07:51Z</time>
      </trkpt>
      <trkpt lat="45.9304" lon="1.24977">
        <ele>406.1</ele>
        <time>2024-11-10T15:07:53Z</time>
      </trkpt>
      <trkpt lat="45.93039" lon="1.24972">
        <ele>406.5</ele>
        <time>2024-11-10T15:07:54Z</time>
      </trkpt>
      <trkpt lat="45.93038" lon="1.24967">
        <ele>406.9</ele>
        <time>2024-11-10T15:07:55Z</time>
      </trkpt>
      <trkpt lat="45.93037" lon="1.24963">
        <ele>407.3</ele>
        <time>2024-11-10T15:07:56Z</time>
      </trkpt>
      <trkpt lat="45.93036" lon="1.24958">
        <ele>407.7</ele>
        <time>2024-11-10T15:07:58Z</time>
      </trkpt>
      <trkpt lat="45.93036" lon="1.24951">
        <ele>408.3</ele>
        <time>2024-11-10T15:08:00Z</time>
      </trkpt>
      <trkpt lat="45.93036" lon="1.24946">
        <ele>408.7</ele>
        <time>2024-11-10T15:08:02Z</time>
      </trkpt>
      <trkpt lat="45.93036" lon="1.24939">
        <ele>409.4</ele>
        <time>2024-11-10T15:08:04Z</time>
      </trkpt>
      <trkpt lat="45.93036" lon="1.24933">
        <ele>409.9</ele>
        <time>2024-11-10T15:08:06Z</time>
      </trkpt>
      <trkpt lat="45.93036" lon="1.24926">
        <ele>410.5</ele>
        <time>2024-11-10T15:08:08Z</time>
      </trkpt>
      <trkpt lat="45.93036" lon="1.24921">
        <ele>410.9</ele>
        <time>2024-11-10T15:08:09Z</time>
      </trkpt>
      <trkpt lat="45.93035" lon="1.24914">
        <ele>411.5</ele>
        <time>2024-11-10T15:08:11Z</time>
      </trkpt>
      <trkpt lat="45.93033" lon="1.24909">
        <ele>411.9</ele>
        <time>2024-11-10T15:08:13Z</time>
      </trkpt>
      <trkpt lat="45.9303" lon="1.24904">
        <ele>412.4</ele>
        <time>2024-11-10T15:08:15Z</time>
      </trkpt>
      <trkpt lat="45.93026" lon="1.24899">
        <ele>412.9</ele>
        <time>2024-11-10T15:08:17Z</time>
      </trkpt>
      <trkpt lat="45.93023" lon="1.24896">
        <ele>413.2</ele>
        <time>2024-11-10T15:08:19Z</time>
      </trkpt>
      <trkpt lat="45.93019" lon="1.24894">
        <ele>413.6</ele>
        <time>2024-11-10T15:08:22Z</time>
      </trkpt>
      <trkpt lat="45.9302" lon="1.2489">
        <ele>413.8</ele>
        <time>2024-11-10T15:08:50Z</time>
      </trkpt>
      <trkpt lat="45.93021" lon="1.24886">
        <ele>414</ele>
        <time>2024-11-10T15:08:52Z</time>
      </trkpt>
      <trkpt lat="45.93023" lon="1.24881">
        <ele>414.2</ele>
        <time>2024-11-10T15:08:54Z</time>
      </trkpt>
      <trkpt lat="45.93025" lon="1.24875">
        <ele>414.5</ele>
        <time>2024-11-10T15:08:56Z</time>
      </trkpt>
      <trkpt lat="45.93027" lon="1.2487">
        <ele>414.7</ele>
        <time>2024-11-10T15:08:57Z</time>
      </trkpt>
      <trkpt lat="45.93028" lon="1.24866">
        <ele>414.9</ele>
        <time>2024-11-10T15:08:58Z</time>
      </trkpt>
      <trkpt lat="45.93029" lon="1.24862">
        <ele>415</ele>
        <time>2024-11-10T15:08:59Z</time>
      </trkpt>
      <trkpt lat="45.9303" lon="1.24856">
        <ele>415.3</ele>
        <time>2024-11-10T15:09:01Z</time>
      </trkpt>
      <trkpt lat="45.93031" lon="1.2485">
        <ele>415.5</ele>
        <time>2024-11-10T15:09:03Z</time>
      </trkpt>
      <trkpt lat="45.93032" lon="1.24845">
        <ele>415.7</ele>
        <time>2024-11-10T15:09:04Z</time>
      </trkpt>
      <trkpt lat="45.93032" lon="1.24838">
        <ele>415.9</ele>
        <time>2024-11-10T15:09:06Z</time>
      </trkpt>
      <trkpt lat="45.93033" lon="1.24833">
        <ele>416.1</ele>
        <time>2024-11-10T15:09:07Z</time>
      </trkpt>
      <trkpt lat="45.93034" lon="1.24829">
        <ele>416.2</ele>
        <time>2024-11-10T15:09:08Z</time>
      </trkpt>
      <trkpt lat="45.93034" lon="1.24824">
        <ele>416.3</ele>
        <time>2024-11-10T15:09:09Z</time>
      </trkpt>
      <trkpt lat="45.93034" lon="1.2482">
        <ele>416.4</ele>
        <time>2024-11-10T15:09:10Z</time>
      </trkpt>
      <trkpt lat="45.93035" lon="1.24816">
        <ele>416.5</ele>
        <time>2024-11-10T15:09:11Z</time>
      </trkpt>
      <trkpt lat="45.93036" lon="1.24812">
        <ele>416.6</ele>
        <time>2024-11-10T15:09:12Z</time>
      </trkpt>
      <trkpt lat="45.93036" lon="1.24807">
        <ele>416.7</ele>
        <time>2024-11-10T15:09:13Z</time>
      </trkpt>
      <trkpt lat="45.93036" lon="1.24803">
        <ele>416.8</ele>
        <time>2024-11-10T15:09:14Z</time>
      </trkpt>
      <trkpt lat="45.93036" lon="1.24797">
        <ele>416.9</ele>
        <time>2024-11-10T15:09:16Z</time>
      </trkpt>
      <trkpt lat="45.93036" lon="1.24791">
        <ele>417.1</ele>
        <time>2024-11-10T15:09:18Z</time>
      </trkpt>
      <trkpt lat="45.93037" lon="1.24784">
        <ele>417.2</ele>
        <time>2024-11-10T15:09:20Z</time>
      </trkpt>
      <trkpt lat="45.93037" lon="1.24777">
        <ele>417.3</ele>
        <time>2024-11-10T15:09:22Z</time>
      </trkpt>
      <trkpt lat="45.93037" lon="1.2477">
        <ele>417.4</ele>
        <time>2024-11-10T15:09:24Z</time>
      </trkpt>
      <trkpt lat="45.93037" lon="1.24764">
        <ele>417.5</ele>
        <time>2024-11-10T15:09:26Z</time>
      </trkpt>
      <trkpt lat="45.93037" lon="1.24757">
        <ele>417.6</ele>
        <time>2024-11-10T15:09:28Z</time>
      </trkpt>
      <trkpt lat="45.93037" lon="1.24751">
        <ele>417.7</ele>
        <time>2024-11-10T15:09:30Z</time>
      </trkpt>
      <trkpt lat="45.93037" lon="1.24744">
        <ele>417.8</ele>
        <time>2024-11-10T15:09:32Z</time>
      </trkpt>
      <trkpt lat="45.93037" lon="1.24739">
        <ele>417.9</ele>
        <time>2024-11-10T15:09:33Z</time>
      </trkpt>
      <trkpt lat="45.93037" lon="1.24734">
        <ele>418</ele>
        <time>2024-11-10T15:09:34Z</time>
      </trkpt>
      <trkpt lat="45.93037" lon="1.2473">
        <ele>418.1</ele>
        <time>2024-11-10T15:09:35Z</time>
      </trkpt>
      <trkpt lat="45.93037" lon="1.24726">
        <ele>418.2</ele>
        <time>2024-11-10T15:09:36Z</time>
      </trkpt>
      <trkpt lat="45.93038" lon="1.2472">
        <ele>418.3</ele>
        <time>2024-11-10T15:09:38Z</time>
      </trkpt>
      <trkpt lat="45.93038" lon="1.24714">
        <ele>418.4</ele>
        <time>2024-11-10T15:09:39Z</time>
      </trkpt>
      <trkpt lat="45.93039" lon="1.24708">
        <ele>418.6</ele>
        <time>2024-11-10T15:09:41Z</time>
      </trkpt>
      <trkpt lat="45.9304" lon="1.24701">
        <ele>418.8</ele>
        <time>2024-11-10T15:09:43Z</time>
      </trkpt>
      <trkpt lat="45.93041" lon="1.24696">
        <ele>418.9</ele>
        <time>2024-11-10T15:09:44Z</time>
      </trkpt>
      <trkpt lat="45.93041" lon="1.24691">
        <ele>419.1</ele>
        <time>2024-11-10T15:09:45Z</time>
      </trkpt>
      <trkpt lat="45.93041" lon="1.24687">
        <ele>419.2</ele>
        <time>2024-11-10T15:09:46Z</time>
      </trkpt>
      <trkpt lat="45.93042" lon="1.24681">
        <ele>419.4</ele>
        <time>2024-11-10T15:09:48Z</time>
      </trkpt>
      <trkpt lat="45.93042" lon="1.24676">
        <ele>419.6</ele>
        <time>2024-11-10T15:09:49Z</time>
      </trkpt>
      <trkpt lat="45.93043" lon="1.24672">
        <ele>419.7</ele>
        <time>2024-11-10T15:09:50Z</time>
      </trkpt>
      <trkpt lat="45.93043" lon="1.24666">
        <ele>419.9</ele>
        <time>2024-11-10T15:09:52Z</time>
      </trkpt>
      <trkpt lat="45.93043" lon="1.24661">
        <ele>420.1</ele>
        <time>2024-11-10T15:09:53Z</time>
      </trkpt>
      <trkpt lat="45.93042" lon="1.24655">
        <ele>420.3</ele>
        <time>2024-11-10T15:09:55Z</time>
      </trkpt>
      <trkpt lat="45.93042" lon="1.24647">
        <ele>420.6</ele>
        <time>2024-11-10T15:09:57Z</time>
      </trkpt>
      <trkpt lat="45.93043" lon="1.2464">
        <ele>420.9</ele>
        <time>2024-11-10T15:09:59Z</time>
      </trkpt>
      <trkpt lat="45.93042" lon="1.24633">
        <ele>421.2</ele>
        <time>2024-11-10T15:10:01Z</time>
      </trkpt>
      <trkpt lat="45.93042" lon="1.24626">
        <ele>421.5</ele>
        <time>2024-11-10T15:10:03Z</time>
      </trkpt>
      <trkpt lat="45.93042" lon="1.2462">
        <ele>421.8</ele>
        <time>2024-11-10T15:10:05Z</time>
      </trkpt>
      <trkpt lat="45.93041" lon="1.24615">
        <ele>422</ele>
        <time>2024-11-10T15:10:07Z</time>
      </trkpt>
      <trkpt lat="45.93039" lon="1.24613">
        <ele>422.2</ele>
        <time>2024-11-10T15:10:09Z</time>
      </trkpt>
      <trkpt lat="45.93035" lon="1.24612">
        <ele>422.6</ele>
        <time>2024-11-10T15:10:11Z</time>
      </trkpt>
      <trkpt lat="45.93033" lon="1.24613">
        <ele>422.8</ele>
        <time>2024-11-10T15:10:13Z</time>
      </trkpt>
      <trkpt lat="45.93029" lon="1.24614">
        <ele>423.2</ele>
        <time>2024-11-10T15:10:15Z</time>
      </trkpt>
      <trkpt lat="45.93026" lon="1.24616">
        <ele>423.6</ele>
        <time>2024-11-10T15:10:17Z</time>
      </trkpt>
      <trkpt lat="45.93023" lon="1.24617">
        <ele>424</ele>
        <time>2024-11-10T15:10:19Z</time>
      </trkpt>
      <trkpt lat="45.9302" lon="1.24618">
        <ele>424.3</ele>
        <time>2024-11-10T15:10:22Z</time>
      </trkpt>
      <trkpt lat="45.93016" lon="1.24619">
        <ele>424.9</ele>
        <time>2024-11-10T15:10:24Z</time>
      </trkpt>
      <trkpt lat="45.93012" lon="1.24619">
        <ele>425.4</ele>
        <time>2024-11-10T15:10:26Z</time>
      </trkpt>
      <trkpt lat="45.93009" lon="1.24619">
        <ele>425.8</ele>
        <time>2024-11-10T15:10:28Z</time>
      </trkpt>
      <trkpt lat="45.93006" lon="1.24617">
        <ele>426.3</ele>
        <time>2024-11-10T15:10:30Z</time>
      </trkpt>
      <trkpt lat="45.93003" lon="1.24613">
        <ele>426.7</ele>
        <time>2024-11-10T15:10:33Z</time>
      </trkpt>
      <trkpt lat="45.93002" lon="1.24608">
        <ele>427.1</ele>
        <time>2024-11-10T15:10:35Z</time>
      </trkpt>
      <trkpt lat="45.93" lon="1.24603">
        <ele>427.4</ele>
        <time>2024-11-10T15:10:37Z</time>
      </trkpt>
      <trkpt lat="45.92999" lon="1.24598">
        <ele>427.5</ele>
        <time>2024-11-10T15:10:38Z</time>
      </trkpt>
      <trkpt lat="45.92998" lon="1.24594">
        <ele>427.6</ele>
        <time>2024-11-10T15:10:39Z</time>
      </trkpt>
      <trkpt lat="45.92996" lon="1.2459">
        <ele>427.6</ele>
        <time>2024-11-10T15:10:40Z</time>
      </trkpt>
      <trkpt lat="45.92995" lon="1.24585">
        <ele>427.6</ele>
        <time>2024-11-10T15:10:41Z</time>
      </trkpt>
      <trkpt lat="45.92994" lon="1.24581">
        <ele>427.5</ele>
        <time>2024-11-10T15:10:42Z</time>
      </trkpt>
      <trkpt lat="45.92992" lon="1.24576">
        <ele>427.4</ele>
        <time>2024-11-10T15:10:43Z</time>
      </trkpt>
      <trkpt lat="45.92991" lon="1.24572">
        <ele>427.2</ele>
        <time>2024-11-10T15:10:44Z</time>
      </trkpt>
      <trkpt lat="45.92989" lon="1.24567">
        <ele>427</ele>
        <time>2024-11-10T15:10:45Z</time>
      </trkpt>
      <trkpt lat="45.92987" lon="1.24562">
        <ele>426.8</ele>
        <time>2024-11-10T15:10:46Z</time>
      </trkpt>
      <trkpt lat="45.92985" lon="1.24557">
        <ele>426.6</ele>
        <time>2024-11-10T15:10:47Z</time>
      </trkpt>
      <trkpt lat="45.92984" lon="1.24552">
        <ele>426.4</ele>
        <time>2024-11-10T15:10:48Z</time>
      </trkpt>
      <trkpt lat="45.92982" lon="1.24547">
        <ele>426.1</ele>
        <time>2024-11-10T15:10:49Z</time>
      </trkpt>
      <trkpt lat="45.92979" lon="1.24542">
        <ele>425.9</ele>
        <time>2024-11-10T15:10:50Z</time>
      </trkpt>
      <trkpt lat="45.92976" lon="1.24537">
        <ele>425.6</ele>
        <time>2024-11-10T15:10:51Z</time>
      </trkpt>
      <trkpt lat="45.92973" lon="1.24533">
        <ele>425.3</ele>
        <time>2024-11-10T15:10:52Z</time>
      </trkpt>
      <trkpt lat="45.92969" lon="1.24529">
        <ele>425</ele>
        <time>2024-11-10T15:10:53Z</time>
      </trkpt>
      <trkpt lat="45.92965" lon="1.24525">
        <ele>424.7</ele>
        <time>2024-11-10T15:10:54Z</time>
      </trkpt>
      <trkpt lat="45.9296" lon="1.24522">
        <ele>424.4</ele>
        <time>2024-11-10T15:10:55Z</time>
      </trkpt>
      <trkpt lat="45.92954" lon="1.24519">
        <ele>424</ele>
        <time>2024-11-10T15:10:56Z</time>
      </trkpt>
      <trkpt lat="45.92949" lon="1.24516">
        <ele>423.7</ele>
        <time>2024-11-10T15:10:57Z</time>
      </trkpt>
      <trkpt lat="45.92944" lon="1.24515">
        <ele>423.4</ele>
        <time>2024-11-10T15:10:58Z</time>
      </trkpt>
      <trkpt lat="45.92939" lon="1.24513">
        <ele>423</ele>
        <time>2024-11-10T15:10:59Z</time>
      </trkpt>
      <trkpt lat="45.92934" lon="1.24511">
        <ele>422.6</ele>
        <time>2024-11-10T15:11:01Z</time>
      </trkpt>
      <trkpt lat="45.9293" lon="1.2451">
        <ele>422.3</ele>
        <time>2024-11-10T15:11:02Z</time>
      </trkpt>
      <trkpt lat="45.92926" lon="1.2451">
        <ele>421.9</ele>
        <time>2024-11-10T15:11:03Z</time>
      </trkpt>
      <trkpt lat="45.92921" lon="1.24511">
        <ele>421.4</ele>
        <time>2024-11-10T15:11:05Z</time>
      </trkpt>
      <trkpt lat="45.92917" lon="1.24512">
        <ele>421</ele>
        <time>2024-11-10T15:11:07Z</time>
      </trkpt>
      <trkpt lat="45.92913" lon="1.24513">
        <ele>420.5</ele>
        <time>2024-11-10T15:11:09Z</time>
      </trkpt>
      <trkpt lat="45.9291" lon="1.24513">
        <ele>420.1</ele>
        <time>2024-11-10T15:11:10Z</time>
      </trkpt>
      <trkpt lat="45.92906" lon="1.24515">
        <ele>419.6</ele>
        <time>2024-11-10T15:11:11Z</time>
      </trkpt>
      <trkpt lat="45.92902" lon="1.24516">
        <ele>419</ele>
        <time>2024-11-10T15:11:12Z</time>
      </trkpt>
      <trkpt lat="45.92898" lon="1.24517">
        <ele>418.5</ele>
        <time>2024-11-10T15:11:13Z</time>
      </trkpt>
      <trkpt lat="45.92894" lon="1.24519">
        <ele>417.9</ele>
        <time>2024-11-10T15:11:14Z</time>
      </trkpt>
      <trkpt lat="45.92889" lon="1.2452">
        <ele>417.2</ele>
        <time>2024-11-10T15:11:15Z</time>
      </trkpt>
      <trkpt lat="45.92885" lon="1.24521">
        <ele>416.6</ele>
        <time>2024-11-10T15:11:16Z</time>
      </trkpt>
      <trkpt lat="45.9288" lon="1.24523">
        <ele>415.8</ele>
        <time>2024-11-10T15:11:17Z</time>
      </trkpt>
      <trkpt lat="45.92876" lon="1.24524">
        <ele>415.1</ele>
        <time>2024-11-10T15:11:18Z</time>
      </trkpt>
      <trkpt lat="45.92871" lon="1.24525">
        <ele>414.4</ele>
        <time>2024-11-10T15:11:19Z</time>
      </trkpt>
      <trkpt lat="45.92866" lon="1.24527">
        <ele>413.5</ele>
        <time>2024-11-10T15:11:20Z</time>
      </trkpt>
      <trkpt lat="45.92859" lon="1.24529">
        <ele>412.5</ele>
        <time>2024-11-10T15:11:21Z</time>
      </trkpt>
      <trkpt lat="45.92852" lon="1.24529">
        <ele>411.5</ele>
        <time>2024-11-10T15:11:22Z</time>
      </trkpt>
      <trkpt lat="45.92844" lon="1.24532">
        <ele>410.5</ele>
        <time>2024-11-10T15:11:23Z</time>
      </trkpt>
      <trkpt lat="45.92836" lon="1.24534">
        <ele>409.6</ele>
        <time>2024-11-10T15:11:24Z</time>
      </trkpt>
      <trkpt lat="45.92828" lon="1.24537">
        <ele>408.7</ele>
        <time>2024-11-10T15:11:25Z</time>
      </trkpt>
      <trkpt lat="45.92819" lon="1.2454">
        <ele>407.8</ele>
        <time>2024-11-10T15:11:26Z</time>
      </trkpt>
      <trkpt lat="45.92812" lon="1.24543">
        <ele>407.2</ele>
        <time>2024-11-10T15:11:27Z</time>
      </trkpt>
      <trkpt lat="45.92804" lon="1.24546">
        <ele>406.5</ele>
        <time>2024-11-10T15:11:28Z</time>
      </trkpt>
      <trkpt lat="45.92796" lon="1.24549">
        <ele>406</ele>
        <time>2024-11-10T15:11:29Z</time>
      </trkpt>
      <trkpt lat="45.92789" lon="1.24553">
        <ele>405.5</ele>
        <time>2024-11-10T15:11:30Z</time>
      </trkpt>
      <trkpt lat="45.92781" lon="1.24556">
        <ele>405.1</ele>
        <time>2024-11-10T15:11:31Z</time>
      </trkpt>
      <trkpt lat="45.92774" lon="1.24559">
        <ele>404.7</ele>
        <time>2024-11-10T15:11:32Z</time>
      </trkpt>
      <trkpt lat="45.92767" lon="1.24562">
        <ele>404.3</ele>
        <time>2024-11-10T15:11:33Z</time>
      </trkpt>
      <trkpt lat="45.92758" lon="1.24566">
        <ele>403.7</ele>
        <time>2024-11-10T15:11:34Z</time>
      </trkpt>
      <trkpt lat="45.9275" lon="1.24571">
        <ele>403.2</ele>
        <time>2024-11-10T15:11:35Z</time>
      </trkpt>
      <trkpt lat="45.92745" lon="1.24576">
        <ele>402.9</ele>
        <time>2024-11-10T15:11:36Z</time>
      </trkpt>
      <trkpt lat="45.92739" lon="1.24581">
        <ele>402.6</ele>
        <time>2024-11-10T15:11:37Z</time>
      </trkpt>
      <trkpt lat="45.92735" lon="1.24586">
        <ele>402.4</ele>
        <time>2024-11-10T15:11:38Z</time>
      </trkpt>
      <trkpt lat="45.9273" lon="1.24592">
        <ele>402.2</ele>
        <time>2024-11-10T15:11:39Z</time>
      </trkpt>
      <trkpt lat="45.92726" lon="1.24599">
        <ele>402</ele>
        <time>2024-11-10T15:11:40Z</time>
      </trkpt>
      <trkpt lat="45.92722" lon="1.24607">
        <ele>401.8</ele>
        <time>2024-11-10T15:11:41Z</time>
      </trkpt>
      <trkpt lat="45.92718" lon="1.24616">
        <ele>401.4</ele>
        <time>2024-11-10T15:11:42Z</time>
      </trkpt>
      <trkpt lat="45.92715" lon="1.24627">
        <ele>400.8</ele>
        <time>2024-11-10T15:11:43Z</time>
      </trkpt>
      <trkpt lat="45.92711" lon="1.24636">
        <ele>400.3</ele>
        <time>2024-11-10T15:11:44Z</time>
      </trkpt>
      <trkpt lat="45.92707" lon="1.24648">
        <ele>399.5</ele>
        <time>2024-11-10T15:11:45Z</time>
      </trkpt>
      <trkpt lat="45.92704" lon="1.24658">
        <ele>398.9</ele>
        <time>2024-11-10T15:11:46Z</time>
      </trkpt>
      <trkpt lat="45.92702" lon="1.24668">
        <ele>398.4</ele>
        <time>2024-11-10T15:11:47Z</time>
      </trkpt>
      <trkpt lat="45.927" lon="1.24677">
        <ele>398</ele>
        <time>2024-11-10T15:11:48Z</time>
      </trkpt>
      <trkpt lat="45.92699" lon="1.24687">
        <ele>397.6</ele>
        <time>2024-11-10T15:11:49Z</time>
      </trkpt>
      <trkpt lat="45.92699" lon="1.24696">
        <ele>397.2</ele>
        <time>2024-11-10T15:11:50Z</time>
      </trkpt>
      <trkpt lat="45.92698" lon="1.24704">
        <ele>397</ele>
        <time>2024-11-10T15:11:51Z</time>
      </trkpt>
      <trkpt lat="45.92696" lon="1.24713">
        <ele>396.7</ele>
        <time>2024-11-10T15:11:52Z</time>
      </trkpt>
      <trkpt lat="45.92695" lon="1.24722">
        <ele>396.5</ele>
        <time>2024-11-10T15:11:53Z</time>
      </trkpt>
      <trkpt lat="45.92694" lon="1.24731">
        <ele>396.2</ele>
        <time>2024-11-10T15:11:54Z</time>
      </trkpt>
      <trkpt lat="45.92692" lon="1.24739">
        <ele>396</ele>
        <time>2024-11-10T15:11:55Z</time>
      </trkpt>
      <trkpt lat="45.92691" lon="1.24746">
        <ele>395.7</ele>
        <time>2024-11-10T15:11:56Z</time>
      </trkpt>
      <trkpt lat="45.92689" lon="1.24751">
        <ele>395.5</ele>
        <time>2024-11-10T15:11:57Z</time>
      </trkpt>
      <trkpt lat="45.92686" lon="1.24754">
        <ele>395.1</ele>
        <time>2024-11-10T15:11:58Z</time>
      </trkpt>
      <trkpt lat="45.92683" lon="1.24754">
        <ele>395</ele>
        <time>2024-11-10T15:11:59Z</time>
      </trkpt>
      <trkpt lat="45.92679" lon="1.24754">
        <ele>394.9</ele>
        <time>2024-11-10T15:12:00Z</time>
      </trkpt>
      <trkpt lat="45.92675" lon="1.24752">
        <ele>394.7</ele>
        <time>2024-11-10T15:12:01Z</time>
      </trkpt>
      <trkpt lat="45.92671" lon="1.24749">
        <ele>394.6</ele>
        <time>2024-11-10T15:12:02Z</time>
      </trkpt>
      <trkpt lat="45.92667" lon="1.24747">
        <ele>394.5</ele>
        <time>2024-11-10T15:12:03Z</time>
      </trkpt>
      <trkpt lat="45.92662" lon="1.24744">
        <ele>394.4</ele>
        <time>2024-11-10T15:12:04Z</time>
      </trkpt>
      <trkpt lat="45.92657" lon="1.24741">
        <ele>394.3</ele>
        <time>2024-11-10T15:12:05Z</time>
      </trkpt>
      <trkpt lat="45.92652" lon="1.24738">
        <ele>394.3</ele>
        <time>2024-11-10T15:12:06Z</time>
      </trkpt>
      <trkpt lat="45.92647" lon="1.24737">
        <ele>394.2</ele>
        <time>2024-11-10T15:12:07Z</time>
      </trkpt>
      <trkpt lat="45.92642" lon="1.24735">
        <ele>394.3</ele>
        <time>2024-11-10T15:12:08Z</time>
      </trkpt>
      <trkpt lat="45.92637" lon="1.24732">
        <ele>394.3</ele>
        <time>2024-11-10T15:12:09Z</time>
      </trkpt>
      <trkpt lat="45.92634" lon="1.24728">
        <ele>394.3</ele>
        <time>2024-11-10T15:12:10Z</time>
      </trkpt>
      <trkpt lat="45.92633" lon="1.24721">
        <ele>394.3</ele>
        <time>2024-11-10T15:12:11Z</time>
      </trkpt>
      <trkpt lat="45.92632" lon="1.24715">
        <ele>394.3</ele>
        <time>2024-11-10T15:12:12Z</time>
      </trkpt>
      <trkpt lat="45.92631" lon="1.24709">
        <ele>394.3</ele>
        <time>2024-11-10T15:12:13Z</time>
      </trkpt>
      <trkpt lat="45.9263" lon="1.24704">
        <ele>394.3</ele>
        <time>2024-11-10T15:12:14Z</time>
      </trkpt>
      <trkpt lat="45.92628" lon="1.24699">
        <ele>394.4</ele>
        <time>2024-11-10T15:12:15Z</time>
      </trkpt>
      <trkpt lat="45.92626" lon="1.24694">
        <ele>394.4</ele>
        <time>2024-11-10T15:12:16Z</time>
      </trkpt>
      <trkpt lat="45.92625" lon="1.24688">
        <ele>394.5</ele>
        <time>2024-11-10T15:12:17Z</time>
      </trkpt>
      <trkpt lat="45.92624" lon="1.24682">
        <ele>394.6</ele>
        <time>2024-11-10T15:12:18Z</time>
      </trkpt>
      <trkpt lat="45.92623" lon="1.24677">
        <ele>394.7</ele>
        <time>2024-11-10T15:12:19Z</time>
      </trkpt>
      <trkpt lat="45.92623" lon="1.24672">
        <ele>394.8</ele>
        <time>2024-11-10T15:12:20Z</time>
      </trkpt>
      <trkpt lat="45.92622" lon="1.24665">
        <ele>395.1</ele>
        <time>2024-11-10T15:12:21Z</time>
      </trkpt>
      <trkpt lat="45.9262" lon="1.24659">
        <ele>395.3</ele>
        <time>2024-11-10T15:12:22Z</time>
      </trkpt>
      <trkpt lat="45.92619" lon="1.24653">
        <ele>395.5</ele>
        <time>2024-11-10T15:12:23Z</time>
      </trkpt>
      <trkpt lat="45.92618" lon="1.24648">
        <ele>395.7</ele>
        <time>2024-11-10T15:12:24Z</time>
      </trkpt>
      <trkpt lat="45.92616" lon="1.24642">
        <ele>396</ele>
        <time>2024-11-10T15:12:26Z</time>
      </trkpt>
      <trkpt lat="45.92614" lon="1.24638">
        <ele>396.1</ele>
        <time>2024-11-10T15:12:27Z</time>
      </trkpt>
      <trkpt lat="45.92612" lon="1.24633">
        <ele>396.3</ele>
        <time>2024-11-10T15:12:28Z</time>
      </trkpt>
      <trkpt lat="45.92611" lon="1.24628">
        <ele>396.5</ele>
        <time>2024-11-10T15:12:29Z</time>
      </trkpt>
      <trkpt lat="45.92609" lon="1.24622">
        <ele>396.7</ele>
        <time>2024-11-10T15:12:30Z</time>
      </trkpt>
      <trkpt lat="45.92608" lon="1.24618">
        <ele>396.8</ele>
        <time>2024-11-10T15:12:31Z</time>
      </trkpt>
      <trkpt lat="45.92607" lon="1.24614">
        <ele>396.9</ele>
        <time>2024-11-10T15:12:32Z</time>
      </trkpt>
      <trkpt lat="45.92605" lon="1.2461">
        <ele>397.1</ele>
        <time>2024-11-10T15:12:33Z</time>
      </trkpt>
      <trkpt lat="45.92603" lon="1.24606">
        <ele>397.3</ele>
        <time>2024-11-10T15:12:34Z</time>
      </trkpt>
      <trkpt lat="45.92602" lon="1.24601">
        <ele>397.4</ele>
        <time>2024-11-10T15:12:35Z</time>
      </trkpt>
      <trkpt lat="45.926" lon="1.24597">
        <ele>397.6</ele>
        <time>2024-11-10T15:12:36Z</time>
      </trkpt>
      <trkpt lat="45.92598" lon="1.24593">
        <ele>397.7</ele>
        <time>2024-11-10T15:12:37Z</time>
      </trkpt>
      <trkpt lat="45.92596" lon="1.2459">
        <ele>397.8</ele>
        <time>2024-11-10T15:12:38Z</time>
      </trkpt>
      <trkpt lat="45.92593" lon="1.24585">
        <ele>398</ele>
        <time>2024-11-10T15:12:40Z</time>
      </trkpt>
      <trkpt lat="45.9259" lon="1.24582">
        <ele>398.1</ele>
        <time>2024-11-10T15:12:41Z</time>
      </trkpt>
      <trkpt lat="45.92587" lon="1.24578">
        <ele>398.3</ele>
        <time>2024-11-10T15:12:42Z</time>
      </trkpt>
      <trkpt lat="45.92584" lon="1.24573">
        <ele>398.5</ele>
        <time>2024-11-10T15:12:43Z</time>
      </trkpt>
      <trkpt lat="45.92582" lon="1.24567">
        <ele>398.7</ele>
        <time>2024-11-10T15:12:44Z</time>
      </trkpt>
      <trkpt lat="45.9258" lon="1.24563">
        <ele>398.8</ele>
        <time>2024-11-10T15:12:45Z</time>
      </trkpt>
      <trkpt lat="45.92578" lon="1.24558">
        <ele>399</ele>
        <time>2024-11-10T15:12:46Z</time>
      </trkpt>
      <trkpt lat="45.92576" lon="1.24553">
        <ele>399.2</ele>
        <time>2024-11-10T15:12:47Z</time>
      </trkpt>
      <trkpt lat="45.92574" lon="1.24549">
        <ele>399.4</ele>
        <time>2024-11-10T15:12:48Z</time>
      </trkpt>
      <trkpt lat="45.92573" lon="1.24543">
        <ele>399.6</ele>
        <time>2024-11-10T15:12:49Z</time>
      </trkpt>
      <trkpt lat="45.92572" lon="1.24538">
        <ele>399.8</ele>
        <time>2024-11-10T15:12:50Z</time>
      </trkpt>
      <trkpt lat="45.92571" lon="1.24533">
        <ele>400</ele>
        <time>2024-11-10T15:12:51Z</time>
      </trkpt>
      <trkpt lat="45.92571" lon="1.24528">
        <ele>400.1</ele>
        <time>2024-11-10T15:12:52Z</time>
      </trkpt>
      <trkpt lat="45.9257" lon="1.24523">
        <ele>400.4</ele>
        <time>2024-11-10T15:12:53Z</time>
      </trkpt>
      <trkpt lat="45.92569" lon="1.24519">
        <ele>400.5</ele>
        <time>2024-11-10T15:12:54Z</time>
      </trkpt>
      <trkpt lat="45.92568" lon="1.24514">
        <ele>400.8</ele>
        <time>2024-11-10T15:12:55Z</time>
      </trkpt>
      <trkpt lat="45.92567" lon="1.24508">
        <ele>401</ele>
        <time>2024-11-10T15:12:56Z</time>
      </trkpt>
      <trkpt lat="45.92565" lon="1.24503">
        <ele>401.3</ele>
        <time>2024-11-10T15:12:57Z</time>
      </trkpt>
      <trkpt lat="45.92564" lon="1.24498">
        <ele>401.5</ele>
        <time>2024-11-10T15:12:58Z</time>
      </trkpt>
      <trkpt lat="45.92563" lon="1.24493">
        <ele>401.8</ele>
        <time>2024-11-10T15:12:59Z</time>
      </trkpt>
      <trkpt lat="45.92562" lon="1.24489">
        <ele>402</ele>
        <time>2024-11-10T15:13:00Z</time>
      </trkpt>
      <trkpt lat="45.92561" lon="1.24485">
        <ele>402.2</ele>
        <time>2024-11-10T15:13:01Z</time>
      </trkpt>
      <trkpt lat="45.9256" lon="1.24481">
        <ele>402.5</ele>
        <time>2024-11-10T15:13:02Z</time>
      </trkpt>
      <trkpt lat="45.92557" lon="1.24476">
        <ele>402.8</ele>
        <time>2024-11-10T15:13:04Z</time>
      </trkpt>
      <trkpt lat="45.92555" lon="1.24469">
        <ele>403.2</ele>
        <time>2024-11-10T15:13:06Z</time>
      </trkpt>
      <trkpt lat="45.92553" lon="1.24465">
        <ele>403.5</ele>
        <time>2024-11-10T15:13:07Z</time>
      </trkpt>
      <trkpt lat="45.92552" lon="1.2446">
        <ele>403.8</ele>
        <time>2024-11-10T15:13:08Z</time>
      </trkpt>
      <trkpt lat="45.92551" lon="1.24457">
        <ele>403.9</ele>
        <time>2024-11-10T15:13:09Z</time>
      </trkpt>
      <trkpt lat="45.9255" lon="1.24453">
        <ele>404.1</ele>
        <time>2024-11-10T15:13:10Z</time>
      </trkpt>
      <trkpt lat="45.92549" lon="1.24447">
        <ele>404.4</ele>
        <time>2024-11-10T15:13:12Z</time>
      </trkpt>
      <trkpt lat="45.92548" lon="1.24442">
        <ele>404.7</ele>
        <time>2024-11-10T15:13:13Z</time>
      </trkpt>
      <trkpt lat="45.92547" lon="1.24438">
        <ele>404.8</ele>
        <time>2024-11-10T15:13:14Z</time>
      </trkpt>
      <trkpt lat="45.92547" lon="1.24433">
        <ele>405</ele>
        <time>2024-11-10T15:13:15Z</time>
      </trkpt>
      <trkpt lat="45.92546" lon="1.24429">
        <ele>405.2</ele>
        <time>2024-11-10T15:13:16Z</time>
      </trkpt>
      <trkpt lat="45.92545" lon="1.24425">
        <ele>405.4</ele>
        <time>2024-11-10T15:13:17Z</time>
      </trkpt>
      <trkpt lat="45.92544" lon="1.2442">
        <ele>405.6</ele>
        <time>2024-11-10T15:13:18Z</time>
      </trkpt>
      <trkpt lat="45.92543" lon="1.24416">
        <ele>405.7</ele>
        <time>2024-11-10T15:13:19Z</time>
      </trkpt>
      <trkpt lat="45.92542" lon="1.24412">
        <ele>405.8</ele>
        <time>2024-11-10T15:13:20Z</time>
      </trkpt>
      <trkpt lat="45.92541" lon="1.24408">
        <ele>406</ele>
        <time>2024-11-10T15:13:21Z</time>
      </trkpt>
      <trkpt lat="45.9254" lon="1.24404">
        <ele>406.1</ele>
        <time>2024-11-10T15:13:22Z</time>
      </trkpt>
      <trkpt lat="45.92539" lon="1.244">
        <ele>406.2</ele>
        <time>2024-11-10T15:13:23Z</time>
      </trkpt>
      <trkpt lat="45.92536" lon="1.24395">
        <ele>406.3</ele>
        <time>2024-11-10T15:13:25Z</time>
      </trkpt>
      <trkpt lat="45.92534" lon="1.24391">
        <ele>406.4</ele>
        <time>2024-11-10T15:13:27Z</time>
      </trkpt>
      <trkpt lat="45.9253" lon="1.24388">
        <ele>406.6</ele>
        <time>2024-11-10T15:13:29Z</time>
      </trkpt>
      <trkpt lat="45.92527" lon="1.24386">
        <ele>406.5</ele>
        <time>2024-11-10T15:13:31Z</time>
      </trkpt>
      <trkpt lat="45.92523" lon="1.24387">
        <ele>406.5</ele>
        <time>2024-11-10T15:13:34Z</time>
      </trkpt>
      <trkpt lat="45.92519" lon="1.24387">
        <ele>406.5</ele>
        <time>2024-11-10T15:13:35Z</time>
      </trkpt>
      <trkpt lat="45.92515" lon="1.24387">
        <ele>406.4</ele>
        <time>2024-11-10T15:13:36Z</time>
      </trkpt>
      <trkpt lat="45.92512" lon="1.24388">
        <ele>406.4</ele>
        <time>2024-11-10T15:13:37Z</time>
      </trkpt>
      <trkpt lat="45.92509" lon="1.24389">
        <ele>406.3</ele>
        <time>2024-11-10T15:13:39Z</time>
      </trkpt>
      <trkpt lat="45.92506" lon="1.2439">
        <ele>406.3</ele>
        <time>2024-11-10T15:13:40Z</time>
      </trkpt>
      <trkpt lat="45.92503" lon="1.24392">
        <ele>406.3</ele>
        <time>2024-11-10T15:13:41Z</time>
      </trkpt>
      <trkpt lat="45.92499" lon="1.24393">
        <ele>406.2</ele>
        <time>2024-11-10T15:13:43Z</time>
      </trkpt>
      <trkpt lat="45.92495" lon="1.24396">
        <ele>406.2</ele>
        <time>2024-11-10T15:13:44Z</time>
      </trkpt>
      <trkpt lat="45.9249" lon="1.24399">
        <ele>406.2</ele>
        <time>2024-11-10T15:13:45Z</time>
      </trkpt>
      <trkpt lat="45.92484" lon="1.24403">
        <ele>406.1</ele>
        <time>2024-11-10T15:13:46Z</time>
      </trkpt>
      <trkpt lat="45.92479" lon="1.24406">
        <ele>406.1</ele>
        <time>2024-11-10T15:13:47Z</time>
      </trkpt>
      <trkpt lat="45.92473" lon="1.24411">
        <ele>406.1</ele>
        <time>2024-11-10T15:13:48Z</time>
      </trkpt>
      <trkpt lat="45.92468" lon="1.24414">
        <ele>406.1</ele>
        <time>2024-11-10T15:13:50Z</time>
      </trkpt>
      <trkpt lat="45.92462" lon="1.24417">
        <ele>406.1</ele>
        <time>2024-11-10T15:13:52Z</time>
      </trkpt>
      <trkpt lat="45.92458" lon="1.2442">
        <ele>406.2</ele>
        <time>2024-11-10T15:13:53Z</time>
      </trkpt>
      <trkpt lat="45.92453" lon="1.24423">
        <ele>406.2</ele>
        <time>2024-11-10T15:13:54Z</time>
      </trkpt>
      <trkpt lat="45.9245" lon="1.24426">
        <ele>406.3</ele>
        <time>2024-11-10T15:13:55Z</time>
      </trkpt>
      <trkpt lat="45.92447" lon="1.24428">
        <ele>406.3</ele>
        <time>2024-11-10T15:13:56Z</time>
      </trkpt>
      <trkpt lat="45.92443" lon="1.2443">
        <ele>406.4</ele>
        <time>2024-11-10T15:13:58Z</time>
      </trkpt>
      <trkpt lat="45.92439" lon="1.24432">
        <ele>406.4</ele>
        <time>2024-11-10T15:14:00Z</time>
      </trkpt>
      <trkpt lat="45.92436" lon="1.24433">
        <ele>406.5</ele>
        <time>2024-11-10T15:14:02Z</time>
      </trkpt>
      <trkpt lat="45.92432" lon="1.24435">
        <ele>406.6</ele>
        <time>2024-11-10T15:14:03Z</time>
      </trkpt>
      <trkpt lat="45.92429" lon="1.24437">
        <ele>406.7</ele>
        <time>2024-11-10T15:14:04Z</time>
      </trkpt>
      <trkpt lat="45.92425" lon="1.24439">
        <ele>406.8</ele>
        <time>2024-11-10T15:14:05Z</time>
      </trkpt>
      <trkpt lat="45.92421" lon="1.24441">
        <ele>407</ele>
        <time>2024-11-10T15:14:06Z</time>
      </trkpt>
      <trkpt lat="45.92418" lon="1.24443">
        <ele>407.1</ele>
        <time>2024-11-10T15:14:07Z</time>
      </trkpt>
      <trkpt lat="45.92414" lon="1.24446">
        <ele>407.2</ele>
        <time>2024-11-10T15:14:09Z</time>
      </trkpt>
      <trkpt lat="45.9241" lon="1.24447">
        <ele>407.3</ele>
        <time>2024-11-10T15:14:10Z</time>
      </trkpt>
      <trkpt lat="45.92406" lon="1.24448">
        <ele>407.4</ele>
        <time>2024-11-10T15:14:11Z</time>
      </trkpt>
      <trkpt lat="45.92402" lon="1.24449">
        <ele>407.5</ele>
        <time>2024-11-10T15:14:12Z</time>
      </trkpt>
      <trkpt lat="45.92399" lon="1.2445">
        <ele>407.5</ele>
        <time>2024-11-10T15:14:13Z</time>
      </trkpt>
      <trkpt lat="45.92396" lon="1.24451">
        <ele>407.6</ele>
        <time>2024-11-10T15:14:14Z</time>
      </trkpt>
      <trkpt lat="45.92393" lon="1.24452">
        <ele>407.6</ele>
        <time>2024-11-10T15:14:15Z</time>
      </trkpt>
      <trkpt lat="45.92389" lon="1.24454">
        <ele>407.6</ele>
        <time>2024-11-10T15:14:16Z</time>
      </trkpt>
      <trkpt lat="45.92386" lon="1.24457">
        <ele>407.6</ele>
        <time>2024-11-10T15:14:17Z</time>
      </trkpt>
      <trkpt lat="45.92382" lon="1.24459">
        <ele>407.6</ele>
        <time>2024-11-10T15:14:18Z</time>
      </trkpt>
      <trkpt lat="45.92379" lon="1.24461">
        <ele>407.6</ele>
        <time>2024-11-10T15:14:19Z</time>
      </trkpt>
      <trkpt lat="45.92376" lon="1.24462">
        <ele>407.6</ele>
        <time>2024-11-10T15:14:21Z</time>
      </trkpt>
      <trkpt lat="45.92372" lon="1.24463">
        <ele>407.5</ele>
        <time>2024-11-10T15:14:23Z</time>
      </trkpt>
      <trkpt lat="45.92369" lon="1.24464">
        <ele>407.5</ele>
        <time>2024-11-10T15:14:24Z</time>
      </trkpt>
      <trkpt lat="45.92365" lon="1.24466">
        <ele>407.4</ele>
        <time>2024-11-10T15:14:25Z</time>
      </trkpt>
      <trkpt lat="45.92362" lon="1.24468">
        <ele>407.3</ele>
        <time>2024-11-10T15:14:26Z</time>
      </trkpt>
      <trkpt lat="45.92359" lon="1.24469">
        <ele>407.2</ele>
        <time>2024-11-10T15:14:27Z</time>
      </trkpt>
      <trkpt lat="45.92356" lon="1.24471">
        <ele>407.1</ele>
        <time>2024-11-10T15:14:28Z</time>
      </trkpt>
      <trkpt lat="45.92352" lon="1.24473">
        <ele>406.9</ele>
        <time>2024-11-10T15:14:29Z</time>
      </trkpt>
      <trkpt lat="45.92348" lon="1.24476">
        <ele>406.7</ele>
        <time>2024-11-10T15:14:30Z</time>
      </trkpt>
      <trkpt lat="45.92343" lon="1.24478">
        <ele>406.4</ele>
        <time>2024-11-10T15:14:31Z</time>
      </trkpt>
      <trkpt lat="45.92338" lon="1.24481">
        <ele>406.1</ele>
        <time>2024-11-10T15:14:32Z</time>
      </trkpt>
      <trkpt lat="45.92333" lon="1.24483">
        <ele>405.7</ele>
        <time>2024-11-10T15:14:33Z</time>
      </trkpt>
      <trkpt lat="45.92328" lon="1.24486">
        <ele>405.4</ele>
        <time>2024-11-10T15:14:34Z</time>
      </trkpt>
      <trkpt lat="45.92322" lon="1.24489">
        <ele>405</ele>
        <time>2024-11-10T15:14:35Z</time>
      </trkpt>
      <trkpt lat="45.92316" lon="1.24493">
        <ele>404.6</ele>
        <time>2024-11-10T15:14:36Z</time>
      </trkpt>
      <trkpt lat="45.92312" lon="1.24494">
        <ele>404.4</ele>
        <time>2024-11-10T15:14:37Z</time>
      </trkpt>
      <trkpt lat="45.92307" lon="1.24495">
        <ele>404.1</ele>
        <time>2024-11-10T15:14:38Z</time>
      </trkpt>
      <trkpt lat="45.923" lon="1.245">
        <ele>403.6</ele>
        <time>2024-11-10T15:14:39Z</time>
      </trkpt>
      <trkpt lat="45.92293" lon="1.24504">
        <ele>403.1</ele>
        <time>2024-11-10T15:14:40Z</time>
      </trkpt>
      <trkpt lat="45.92286" lon="1.24509">
        <ele>402.6</ele>
        <time>2024-11-10T15:14:41Z</time>
      </trkpt>
      <trkpt lat="45.92281" lon="1.24513">
        <ele>402.2</ele>
        <time>2024-11-10T15:14:42Z</time>
      </trkpt>
      <trkpt lat="45.92275" lon="1.24516">
        <ele>401.8</ele>
        <time>2024-11-10T15:14:43Z</time>
      </trkpt>
      <trkpt lat="45.92269" lon="1.24519">
        <ele>401.3</ele>
        <time>2024-11-10T15:14:44Z</time>
      </trkpt>
      <trkpt lat="45.92263" lon="1.24522">
        <ele>400.9</ele>
        <time>2024-11-10T15:14:45Z</time>
      </trkpt>
      <trkpt lat="45.92257" lon="1.24524">
        <ele>400.4</ele>
        <time>2024-11-10T15:14:46Z</time>
      </trkpt>
      <trkpt lat="45.92251" lon="1.24526">
        <ele>400</ele>
        <time>2024-11-10T15:14:47Z</time>
      </trkpt>
      <trkpt lat="45.92245" lon="1.24528">
        <ele>399.6</ele>
        <time>2024-11-10T15:14:48Z</time>
      </trkpt>
      <trkpt lat="45.92239" lon="1.24528">
        <ele>399.1</ele>
        <time>2024-11-10T15:14:49Z</time>
      </trkpt>
      <trkpt lat="45.92233" lon="1.24529">
        <ele>398.7</ele>
        <time>2024-11-10T15:14:50Z</time>
      </trkpt>
      <trkpt lat="45.92228" lon="1.24531">
        <ele>398.4</ele>
        <time>2024-11-10T15:14:51Z</time>
      </trkpt>
      <trkpt lat="45.92222" lon="1.24532">
        <ele>398</ele>
        <time>2024-11-10T15:14:52Z</time>
      </trkpt>
      <trkpt lat="45.92216" lon="1.24535">
        <ele>397.7</ele>
        <time>2024-11-10T15:14:53Z</time>
      </trkpt>
      <trkpt lat="45.92209" lon="1.24538">
        <ele>397.4</ele>
        <time>2024-11-10T15:14:54Z</time>
      </trkpt>
      <trkpt lat="45.92203" lon="1.2454">
        <ele>397.1</ele>
        <time>2024-11-10T15:14:55Z</time>
      </trkpt>
      <trkpt lat="45.92197" lon="1.24541">
        <ele>396.9</ele>
        <time>2024-11-10T15:14:56Z</time>
      </trkpt>
      <trkpt lat="45.92192" lon="1.24543">
        <ele>396.7</ele>
        <time>2024-11-10T15:14:57Z</time>
      </trkpt>
      <trkpt lat="45.92186" lon="1.24545">
        <ele>396.5</ele>
        <time>2024-11-10T15:14:58Z</time>
      </trkpt>
      <trkpt lat="45.9218" lon="1.24547">
        <ele>396.3</ele>
        <time>2024-11-10T15:14:59Z</time>
      </trkpt>
      <trkpt lat="45.92174" lon="1.24549">
        <ele>396.1</ele>
        <time>2024-11-10T15:15:00Z</time>
      </trkpt>
      <trkpt lat="45.92167" lon="1.24551">
        <ele>395.9</ele>
        <time>2024-11-10T15:15:01Z</time>
      </trkpt>
      <trkpt lat="45.92161" lon="1.24555">
        <ele>395.7</ele>
        <time>2024-11-10T15:15:02Z</time>
      </trkpt>
      <trkpt lat="45.92155" lon="1.24557">
        <ele>395.5</ele>
        <time>2024-11-10T15:15:03Z</time>
      </trkpt>
      <trkpt lat="45.92149" lon="1.2456">
        <ele>395.4</ele>
        <time>2024-11-10T15:15:04Z</time>
      </trkpt>
      <trkpt lat="45.92143" lon="1.24563">
        <ele>395.2</ele>
        <time>2024-11-10T15:15:05Z</time>
      </trkpt>
      <trkpt lat="45.92137" lon="1.24565">
        <ele>395</ele>
        <time>2024-11-10T15:15:06Z</time>
      </trkpt>
      <trkpt lat="45.92131" lon="1.24567">
        <ele>394.9</ele>
        <time>2024-11-10T15:15:07Z</time>
      </trkpt>
      <trkpt lat="45.92125" lon="1.2457">
        <ele>394.7</ele>
        <time>2024-11-10T15:15:08Z</time>
      </trkpt>
      <trkpt lat="45.92119" lon="1.24572">
        <ele>394.6</ele>
        <time>2024-11-10T15:15:09Z</time>
      </trkpt>
      <trkpt lat="45.92113" lon="1.24574">
        <ele>394.4</ele>
        <time>2024-11-10T15:15:10Z</time>
      </trkpt>
      <trkpt lat="45.92107" lon="1.24577">
        <ele>394.3</ele>
        <time>2024-11-10T15:15:11Z</time>
      </trkpt>
      <trkpt lat="45.92102" lon="1.24579">
        <ele>394.1</ele>
        <time>2024-11-10T15:15:12Z</time>
      </trkpt>
      <trkpt lat="45.92097" lon="1.2458">
        <ele>394</ele>
        <time>2024-11-10T15:15:13Z</time>
      </trkpt>
      <trkpt lat="45.92091" lon="1.24582">
        <ele>393.8</ele>
        <time>2024-11-10T15:15:14Z</time>
      </trkpt>
      <trkpt lat="45.92086" lon="1.24585">
        <ele>393.6</ele>
        <time>2024-11-10T15:15:15Z</time>
      </trkpt>
      <trkpt lat="45.9208" lon="1.24588">
        <ele>393.3</ele>
        <time>2024-11-10T15:15:16Z</time>
      </trkpt>
      <trkpt lat="45.92074" lon="1.24591">
        <ele>393</ele>
        <time>2024-11-10T15:15:17Z</time>
      </trkpt>
      <trkpt lat="45.92068" lon="1.24594">
        <ele>392.6</ele>
        <time>2024-11-10T15:15:18Z</time>
      </trkpt>
      <trkpt lat="45.92061" lon="1.24597">
        <ele>392.3</ele>
        <time>2024-11-10T15:15:19Z</time>
      </trkpt>
      <trkpt lat="45.92055" lon="1.246">
        <ele>391.9</ele>
        <time>2024-11-10T15:15:20Z</time>
      </trkpt>
      <trkpt lat="45.92048" lon="1.24603">
        <ele>391.5</ele>
        <time>2024-11-10T15:15:21Z</time>
      </trkpt>
      <trkpt lat="45.92041" lon="1.24607">
        <ele>391.1</ele>
        <time>2024-11-10T15:15:22Z</time>
      </trkpt>
      <trkpt lat="45.92034" lon="1.2461">
        <ele>390.7</ele>
        <time>2024-11-10T15:15:23Z</time>
      </trkpt>
      <trkpt lat="45.92027" lon="1.24614">
        <ele>390.3</ele>
        <time>2024-11-10T15:15:24Z</time>
      </trkpt>
      <trkpt lat="45.9202" lon="1.24617">
        <ele>389.9</ele>
        <time>2024-11-10T15:15:25Z</time>
      </trkpt>
      <trkpt lat="45.92012" lon="1.2462">
        <ele>389.5</ele>
        <time>2024-11-10T15:15:26Z</time>
      </trkpt>
      <trkpt lat="45.92005" lon="1.24623">
        <ele>389.2</ele>
        <time>2024-11-10T15:15:27Z</time>
      </trkpt>
      <trkpt lat="45.91998" lon="1.24626">
        <ele>388.8</ele>
        <time>2024-11-10T15:15:28Z</time>
      </trkpt>
      <trkpt lat="45.91991" lon="1.24629">
        <ele>388.5</ele>
        <time>2024-11-10T15:15:29Z</time>
      </trkpt>
      <trkpt lat="45.91984" lon="1.24631">
        <ele>388.3</ele>
        <time>2024-11-10T15:15:30Z</time>
      </trkpt>
      <trkpt lat="45.91979" lon="1.24632">
        <ele>388.1</ele>
        <time>2024-11-10T15:15:31Z</time>
      </trkpt>
      <trkpt lat="45.91975" lon="1.24633">
        <ele>387.9</ele>
        <time>2024-11-10T15:15:32Z</time>
      </trkpt>
      <trkpt lat="45.9197" lon="1.24635">
        <ele>387.7</ele>
        <time>2024-11-10T15:15:33Z</time>
      </trkpt>
      <trkpt lat="45.91965" lon="1.24636">
        <ele>387.4</ele>
        <time>2024-11-10T15:15:34Z</time>
      </trkpt>
      <trkpt lat="45.9196" lon="1.24637">
        <ele>387.1</ele>
        <time>2024-11-10T15:15:35Z</time>
      </trkpt>
      <trkpt lat="45.91954" lon="1.24638">
        <ele>386.8</ele>
        <time>2024-11-10T15:15:36Z</time>
      </trkpt>
      <trkpt lat="45.91947" lon="1.24639">
        <ele>386.4</ele>
        <time>2024-11-10T15:15:37Z</time>
      </trkpt>
      <trkpt lat="45.91941" lon="1.2464">
        <ele>386.1</ele>
        <time>2024-11-10T15:15:38Z</time>
      </trkpt>
      <trkpt lat="45.91934" lon="1.24641">
        <ele>385.6</ele>
        <time>2024-11-10T15:15:39Z</time>
      </trkpt>
      <trkpt lat="45.91927" lon="1.24641">
        <ele>385.1</ele>
        <time>2024-11-10T15:15:40Z</time>
      </trkpt>
      <trkpt lat="45.9192" lon="1.24642">
        <ele>384.6</ele>
        <time>2024-11-10T15:15:41Z</time>
      </trkpt>
      <trkpt lat="45.91912" lon="1.24642">
        <ele>383.9</ele>
        <time>2024-11-10T15:15:42Z</time>
      </trkpt>
      <trkpt lat="45.91904" lon="1.24642">
        <ele>383.3</ele>
        <time>2024-11-10T15:15:43Z</time>
      </trkpt>
      <trkpt lat="45.91896" lon="1.24642">
        <ele>382.6</ele>
        <time>2024-11-10T15:15:44Z</time>
      </trkpt>
      <trkpt lat="45.91888" lon="1.24642">
        <ele>382</ele>
        <time>2024-11-10T15:15:45Z</time>
      </trkpt>
      <trkpt lat="45.9188" lon="1.24642">
        <ele>381.3</ele>
        <time>2024-11-10T15:15:46Z</time>
      </trkpt>
      <trkpt lat="45.91871" lon="1.24642">
        <ele>380.6</ele>
        <time>2024-11-10T15:15:47Z</time>
      </trkpt>
      <trkpt lat="45.91863" lon="1.24642">
        <ele>379.8</ele>
        <time>2024-11-10T15:15:48Z</time>
      </trkpt>
      <trkpt lat="45.91854" lon="1.24642">
        <ele>378.8</ele>
        <time>2024-11-10T15:15:49Z</time>
      </trkpt>
      <trkpt lat="45.91846" lon="1.24641">
        <ele>377.7</ele>
        <time>2024-11-10T15:15:50Z</time>
      </trkpt>
      <trkpt lat="45.91838" lon="1.2464">
        <ele>376.5</ele>
        <time>2024-11-10T15:15:51Z</time>
      </trkpt>
      <trkpt lat="45.91829" lon="1.24639">
        <ele>375.2</ele>
        <time>2024-11-10T15:15:52Z</time>
      </trkpt>
      <trkpt lat="45.91819" lon="1.24639">
        <ele>373.8</ele>
        <time>2024-11-10T15:15:53Z</time>
      </trkpt>
      <trkpt lat="45.9181" lon="1.24638">
        <ele>372.6</ele>
        <time>2024-11-10T15:15:54Z</time>
      </trkpt>
      <trkpt lat="45.918" lon="1.24638">
        <ele>371.5</ele>
        <time>2024-11-10T15:15:55Z</time>
      </trkpt>
      <trkpt lat="45.9179" lon="1.24638">
        <ele>370.4</ele>
        <time>2024-11-10T15:15:56Z</time>
      </trkpt>
      <trkpt lat="45.9178" lon="1.24639">
        <ele>369.4</ele>
        <time>2024-11-10T15:15:57Z</time>
      </trkpt>
      <trkpt lat="45.91771" lon="1.24641">
        <ele>368.5</ele>
        <time>2024-11-10T15:15:58Z</time>
      </trkpt>
      <trkpt lat="45.91762" lon="1.24643">
        <ele>367.7</ele>
        <time>2024-11-10T15:15:59Z</time>
      </trkpt>
      <trkpt lat="45.91753" lon="1.24644">
        <ele>366.9</ele>
        <time>2024-11-10T15:16:00Z</time>
      </trkpt>
      <trkpt lat="45.91744" lon="1.24645">
        <ele>366</ele>
        <time>2024-11-10T15:16:01Z</time>
      </trkpt>
      <trkpt lat="45.91736" lon="1.24645">
        <ele>365.2</ele>
        <time>2024-11-10T15:16:02Z</time>
      </trkpt>
      <trkpt lat="45.91728" lon="1.24643">
        <ele>364.3</ele>
        <time>2024-11-10T15:16:03Z</time>
      </trkpt>
      <trkpt lat="45.9172" lon="1.2464">
        <ele>363.4</ele>
        <time>2024-11-10T15:16:04Z</time>
      </trkpt>
      <trkpt lat="45.91712" lon="1.24638">
        <ele>362.6</ele>
        <time>2024-11-10T15:16:05Z</time>
      </trkpt>
      <trkpt lat="45.91704" lon="1.24635">
        <ele>361.8</ele>
        <time>2024-11-10T15:16:06Z</time>
      </trkpt>
      <trkpt lat="45.91695" lon="1.24633">
        <ele>361</ele>
        <time>2024-11-10T15:16:07Z</time>
      </trkpt>
      <trkpt lat="45.91686" lon="1.24632">
        <ele>360.2</ele>
        <time>2024-11-10T15:16:08Z</time>
      </trkpt>
      <trkpt lat="45.91677" lon="1.24632">
        <ele>359.4</ele>
        <time>2024-11-10T15:16:09Z</time>
      </trkpt>
      <trkpt lat="45.91667" lon="1.24633">
        <ele>358.7</ele>
        <time>2024-11-10T15:16:10Z</time>
      </trkpt>
      <trkpt lat="45.91658" lon="1.24633">
        <ele>358.2</ele>
        <time>2024-11-10T15:16:11Z</time>
      </trkpt>
      <trkpt lat="45.91649" lon="1.24634">
        <ele>357.9</ele>
        <time>2024-11-10T15:16:12Z</time>
      </trkpt>
      <trkpt lat="45.9164" lon="1.24635">
        <ele>357.7</ele>
        <time>2024-11-10T15:16:13Z</time>
      </trkpt>
      <trkpt lat="45.91631" lon="1.24637">
        <ele>357.7</ele>
        <time>2024-11-10T15:16:14Z</time>
      </trkpt>
      <trkpt lat="45.91622" lon="1.2464">
        <ele>357.7</ele>
        <time>2024-11-10T15:16:15Z</time>
      </trkpt>
      <trkpt lat="45.91614" lon="1.24643">
        <ele>357.9</ele>
        <time>2024-11-10T15:16:16Z</time>
      </trkpt>
      <trkpt lat="45.91606" lon="1.24646">
        <ele>358.2</ele>
        <time>2024-11-10T15:16:17Z</time>
      </trkpt>
      <trkpt lat="45.91599" lon="1.24648">
        <ele>358.6</ele>
        <time>2024-11-10T15:16:18Z</time>
      </trkpt>
      <trkpt lat="45.91591" lon="1.2465">
        <ele>359.3</ele>
        <time>2024-11-10T15:16:19Z</time>
      </trkpt>
      <trkpt lat="45.91585" lon="1.24652">
        <ele>359.9</ele>
        <time>2024-11-10T15:16:20Z</time>
      </trkpt>
      <trkpt lat="45.9158" lon="1.24652">
        <ele>360.5</ele>
        <time>2024-11-10T15:16:21Z</time>
      </trkpt>
      <trkpt lat="45.91576" lon="1.24654">
        <ele>361</ele>
        <time>2024-11-10T15:16:22Z</time>
      </trkpt>
      <trkpt lat="45.91572" lon="1.24653">
        <ele>361.5</ele>
        <time>2024-11-10T15:16:23Z</time>
      </trkpt>
      <trkpt lat="45.91568" lon="1.24654">
        <ele>361.9</ele>
        <time>2024-11-10T15:16:25Z</time>
      </trkpt>
      <trkpt lat="45.91564" lon="1.24656">
        <ele>362.5</ele>
        <time>2024-11-10T15:16:26Z</time>
      </trkpt>
      <trkpt lat="45.9156" lon="1.24659">
        <ele>362.7</ele>
        <time>2024-11-10T15:16:27Z</time>
      </trkpt>
      <trkpt lat="45.91557" lon="1.24661">
        <ele>362.9</ele>
        <time>2024-11-10T15:16:28Z</time>
      </trkpt>
      <trkpt lat="45.91553" lon="1.24663">
        <ele>363.1</ele>
        <time>2024-11-10T15:16:29Z</time>
      </trkpt>
      <trkpt lat="45.91548" lon="1.24665">
        <ele>363.3</ele>
        <time>2024-11-10T15:16:30Z</time>
      </trkpt>
      <trkpt lat="45.91544" lon="1.24667">
        <ele>363.5</ele>
        <time>2024-11-10T15:16:31Z</time>
      </trkpt>
      <trkpt lat="45.91539" lon="1.24668">
        <ele>363.7</ele>
        <time>2024-11-10T15:16:32Z</time>
      </trkpt>
      <trkpt lat="45.91534" lon="1.2467">
        <ele>363.9</ele>
        <time>2024-11-10T15:16:33Z</time>
      </trkpt>
      <trkpt lat="45.91529" lon="1.24672">
        <ele>364.1</ele>
        <time>2024-11-10T15:16:34Z</time>
      </trkpt>
      <trkpt lat="45.91525" lon="1.24674">
        <ele>364.2</ele>
        <time>2024-11-10T15:16:35Z</time>
      </trkpt>
      <trkpt lat="45.9152" lon="1.24675">
        <ele>364.4</ele>
        <time>2024-11-10T15:16:36Z</time>
      </trkpt>
      <trkpt lat="45.91515" lon="1.24677">
        <ele>364.6</ele>
        <time>2024-11-10T15:16:37Z</time>
      </trkpt>
      <trkpt lat="45.91511" lon="1.24679">
        <ele>364.7</ele>
        <time>2024-11-10T15:16:38Z</time>
      </trkpt>
      <trkpt lat="45.91506" lon="1.24681">
        <ele>364.9</ele>
        <time>2024-11-10T15:16:39Z</time>
      </trkpt>
      <trkpt lat="45.91502" lon="1.24683">
        <ele>365.1</ele>
        <time>2024-11-10T15:16:40Z</time>
      </trkpt>
      <trkpt lat="45.91497" lon="1.24686">
        <ele>365.3</ele>
        <time>2024-11-10T15:16:41Z</time>
      </trkpt>
      <trkpt lat="45.91493" lon="1.24687">
        <ele>365.5</ele>
        <time>2024-11-10T15:16:42Z</time>
      </trkpt>
      <trkpt lat="45.91488" lon="1.24689">
        <ele>365.7</ele>
        <time>2024-11-10T15:16:43Z</time>
      </trkpt>
      <trkpt lat="45.91484" lon="1.24691">
        <ele>365.8</ele>
        <time>2024-11-10T15:16:44Z</time>
      </trkpt>
      <trkpt lat="45.91479" lon="1.24693">
        <ele>366</ele>
        <time>2024-11-10T15:16:45Z</time>
      </trkpt>
      <trkpt lat="45.91475" lon="1.24695">
        <ele>366.2</ele>
        <time>2024-11-10T15:16:46Z</time>
      </trkpt>
      <trkpt lat="45.9147" lon="1.24697">
        <ele>366.3</ele>
        <time>2024-11-10T15:16:47Z</time>
      </trkpt>
      <trkpt lat="45.91466" lon="1.24698">
        <ele>366.5</ele>
        <time>2024-11-10T15:16:48Z</time>
      </trkpt>
      <trkpt lat="45.91461" lon="1.247">
        <ele>366.6</ele>
        <time>2024-11-10T15:16:49Z</time>
      </trkpt>
      <trkpt lat="45.91457" lon="1.24702">
        <ele>366.7</ele>
        <time>2024-11-10T15:16:50Z</time>
      </trkpt>
      <trkpt lat="45.91452" lon="1.24704">
        <ele>366.9</ele>
        <time>2024-11-10T15:16:51Z</time>
      </trkpt>
      <trkpt lat="45.91448" lon="1.24706">
        <ele>366.9</ele>
        <time>2024-11-10T15:16:52Z</time>
      </trkpt>
      <trkpt lat="45.91443" lon="1.24708">
        <ele>367</ele>
        <time>2024-11-10T15:16:53Z</time>
      </trkpt>
      <trkpt lat="45.91437" lon="1.2471">
        <ele>367.1</ele>
        <time>2024-11-10T15:16:54Z</time>
      </trkpt>
      <trkpt lat="45.91433" lon="1.24713">
        <ele>367.2</ele>
        <time>2024-11-10T15:16:55Z</time>
      </trkpt>
      <trkpt lat="45.91428" lon="1.24714">
        <ele>367.2</ele>
        <time>2024-11-10T15:16:56Z</time>
      </trkpt>
      <trkpt lat="45.91422" lon="1.24716">
        <ele>367.2</ele>
        <time>2024-11-10T15:16:57Z</time>
      </trkpt>
      <trkpt lat="45.91417" lon="1.24717">
        <ele>367.2</ele>
        <time>2024-11-10T15:16:58Z</time>
      </trkpt>
      <trkpt lat="45.91412" lon="1.24716">
        <ele>367.1</ele>
        <time>2024-11-10T15:16:59Z</time>
      </trkpt>
      <trkpt lat="45.91406" lon="1.24716">
        <ele>367.1</ele>
        <time>2024-11-10T15:17:00Z</time>
      </trkpt>
      <trkpt lat="45.914" lon="1.24716">
        <ele>367</ele>
        <time>2024-11-10T15:17:01Z</time>
      </trkpt>
      <trkpt lat="45.91395" lon="1.24715">
        <ele>367</ele>
        <time>2024-11-10T15:17:02Z</time>
      </trkpt>
      <trkpt lat="45.91389" lon="1.24713">
        <ele>366.9</ele>
        <time>2024-11-10T15:17:03Z</time>
      </trkpt>
      <trkpt lat="45.91385" lon="1.24709">
        <ele>366.9</ele>
        <time>2024-11-10T15:17:04Z</time>
      </trkpt>
      <trkpt lat="45.9138" lon="1.24707">
        <ele>366.9</ele>
        <time>2024-11-10T15:17:05Z</time>
      </trkpt>
      <trkpt lat="45.91374" lon="1.24704">
        <ele>367</ele>
        <time>2024-11-10T15:17:06Z</time>
      </trkpt>
      <trkpt lat="45.91369" lon="1.24702">
        <ele>367</ele>
        <time>2024-11-10T15:17:07Z</time>
      </trkpt>
      <trkpt lat="45.91365" lon="1.24699">
        <ele>367</ele>
        <time>2024-11-10T15:17:08Z</time>
      </trkpt>
      <trkpt lat="45.91361" lon="1.24695">
        <ele>367.1</ele>
        <time>2024-11-10T15:17:09Z</time>
      </trkpt>
      <trkpt lat="45.91357" lon="1.24691">
        <ele>367.2</ele>
        <time>2024-11-10T15:17:10Z</time>
      </trkpt>
      <trkpt lat="45.91352" lon="1.24687">
        <ele>367.3</ele>
        <time>2024-11-10T15:17:11Z</time>
      </trkpt>
      <trkpt lat="45.91348" lon="1.24683">
        <ele>367.4</ele>
        <time>2024-11-10T15:17:12Z</time>
      </trkpt>
      <trkpt lat="45.91343" lon="1.24681">
        <ele>367.5</ele>
        <time>2024-11-10T15:17:13Z</time>
      </trkpt>
      <trkpt lat="45.91338" lon="1.24677">
        <ele>367.6</ele>
        <time>2024-11-10T15:17:14Z</time>
      </trkpt>
      <trkpt lat="45.91334" lon="1.24673">
        <ele>367.7</ele>
        <time>2024-11-10T15:17:15Z</time>
      </trkpt>
      <trkpt lat="45.9133" lon="1.24669">
        <ele>367.8</ele>
        <time>2024-11-10T15:17:16Z</time>
      </trkpt>
      <trkpt lat="45.91325" lon="1.24665">
        <ele>368</ele>
        <time>2024-11-10T15:17:17Z</time>
      </trkpt>
      <trkpt lat="45.91321" lon="1.24661">
        <ele>368.2</ele>
        <time>2024-11-10T15:17:18Z</time>
      </trkpt>
      <trkpt lat="45.91317" lon="1.24658">
        <ele>368.3</ele>
        <time>2024-11-10T15:17:19Z</time>
      </trkpt>
      <trkpt lat="45.91313" lon="1.24654">
        <ele>368.5</ele>
        <time>2024-11-10T15:17:20Z</time>
      </trkpt>
      <trkpt lat="45.91309" lon="1.24651">
        <ele>368.7</ele>
        <time>2024-11-10T15:17:21Z</time>
      </trkpt>
      <trkpt lat="45.91305" lon="1.24647">
        <ele>368.9</ele>
        <time>2024-11-10T15:17:22Z</time>
      </trkpt>
      <trkpt lat="45.91302" lon="1.24644">
        <ele>369.1</ele>
        <time>2024-11-10T15:17:23Z</time>
      </trkpt>
      <trkpt lat="45.91298" lon="1.2464">
        <ele>369.3</ele>
        <time>2024-11-10T15:17:24Z</time>
      </trkpt>
      <trkpt lat="45.91294" lon="1.24637">
        <ele>369.6</ele>
        <time>2024-11-10T15:17:25Z</time>
      </trkpt>
      <trkpt lat="45.91291" lon="1.24634">
        <ele>369.8</ele>
        <time>2024-11-10T15:17:26Z</time>
      </trkpt>
      <trkpt lat="45.91287" lon="1.2463">
        <ele>370</ele>
        <time>2024-11-10T15:17:27Z</time>
      </trkpt>
      <trkpt lat="45.91284" lon="1.24627">
        <ele>370.2</ele>
        <time>2024-11-10T15:17:28Z</time>
      </trkpt>
      <trkpt lat="45.9128" lon="1.24625">
        <ele>370.4</ele>
        <time>2024-11-10T15:17:29Z</time>
      </trkpt>
      <trkpt lat="45.91277" lon="1.24622">
        <ele>370.6</ele>
        <time>2024-11-10T15:17:30Z</time>
      </trkpt>
      <trkpt lat="45.91273" lon="1.2462">
        <ele>370.9</ele>
        <time>2024-11-10T15:17:31Z</time>
      </trkpt>
      <trkpt lat="45.9127" lon="1.24618">
        <ele>371</ele>
        <time>2024-11-10T15:17:32Z</time>
      </trkpt>
      <trkpt lat="45.91266" lon="1.24615">
        <ele>371.3</ele>
        <time>2024-11-10T15:17:33Z</time>
      </trkpt>
      <trkpt lat="45.91263" lon="1.24612">
        <ele>371.5</ele>
        <time>2024-11-10T15:17:34Z</time>
      </trkpt>
      <trkpt lat="45.91259" lon="1.24609">
        <ele>371.7</ele>
        <time>2024-11-10T15:17:35Z</time>
      </trkpt>
      <trkpt lat="45.91256" lon="1.24606">
        <ele>371.9</ele>
        <time>2024-11-10T15:17:36Z</time>
      </trkpt>
      <trkpt lat="45.91252" lon="1.24603">
        <ele>372.1</ele>
        <time>2024-11-10T15:17:37Z</time>
      </trkpt>
      <trkpt lat="45.91249" lon="1.246">
        <ele>372.3</ele>
        <time>2024-11-10T15:17:38Z</time>
      </trkpt>
      <trkpt lat="45.91246" lon="1.24597">
        <ele>372.5</ele>
        <time>2024-11-10T15:17:39Z</time>
      </trkpt>
      <trkpt lat="45.91243" lon="1.24595">
        <ele>372.6</ele>
        <time>2024-11-10T15:17:40Z</time>
      </trkpt>
      <trkpt lat="45.9124" lon="1.24593">
        <ele>372.8</ele>
        <time>2024-11-10T15:17:41Z</time>
      </trkpt>
      <trkpt lat="45.91237" lon="1.24591">
        <ele>372.9</ele>
        <time>2024-11-10T15:17:42Z</time>
      </trkpt>
      <trkpt lat="45.91234" lon="1.24588">
        <ele>373</ele>
        <time>2024-11-10T15:17:43Z</time>
      </trkpt>
      <trkpt lat="45.91231" lon="1.24586">
        <ele>373.1</ele>
        <time>2024-11-10T15:17:44Z</time>
      </trkpt>
      <trkpt lat="45.91228" lon="1.24583">
        <ele>373.2</ele>
        <time>2024-11-10T15:17:45Z</time>
      </trkpt>
      <trkpt lat="45.91225" lon="1.24581">
        <ele>373.3</ele>
        <time>2024-11-10T15:17:46Z</time>
      </trkpt>
      <trkpt lat="45.91222" lon="1.24578">
        <ele>373.3</ele>
        <time>2024-11-10T15:17:47Z</time>
      </trkpt>
      <trkpt lat="45.91218" lon="1.24576">
        <ele>373.4</ele>
        <time>2024-11-10T15:17:48Z</time>
      </trkpt>
      <trkpt lat="45.91215" lon="1.24573">
        <ele>373.5</ele>
        <time>2024-11-10T15:17:49Z</time>
      </trkpt>
      <trkpt lat="45.91212" lon="1.24571">
        <ele>373.6</ele>
        <time>2024-11-10T15:17:50Z</time>
      </trkpt>
      <trkpt lat="45.91209" lon="1.24568">
        <ele>373.6</ele>
        <time>2024-11-10T15:17:51Z</time>
      </trkpt>
      <trkpt lat="45.91206" lon="1.24565">
        <ele>373.7</ele>
        <time>2024-11-10T15:17:52Z</time>
      </trkpt>
      <trkpt lat="45.91203" lon="1.24563">
        <ele>373.8</ele>
        <time>2024-11-10T15:17:53Z</time>
      </trkpt>
      <trkpt lat="45.912" lon="1.2456">
        <ele>373.8</ele>
        <time>2024-11-10T15:17:54Z</time>
      </trkpt>
      <trkpt lat="45.91197" lon="1.24557">
        <ele>373.9</ele>
        <time>2024-11-10T15:17:55Z</time>
      </trkpt>
      <trkpt lat="45.91195" lon="1.24554">
        <ele>373.9</ele>
        <time>2024-11-10T15:17:56Z</time>
      </trkpt>
      <trkpt lat="45.91192" lon="1.24552">
        <ele>374</ele>
        <time>2024-11-10T15:17:57Z</time>
      </trkpt>
      <trkpt lat="45.91189" lon="1.2455">
        <ele>374.1</ele>
        <time>2024-11-10T15:17:58Z</time>
      </trkpt>
      <trkpt lat="45.91186" lon="1.24547">
        <ele>374.1</ele>
        <time>2024-11-10T15:17:59Z</time>
      </trkpt>
      <trkpt lat="45.91183" lon="1.24545">
        <ele>374.2</ele>
        <time>2024-11-10T15:18:00Z</time>
      </trkpt>
      <trkpt lat="45.91181" lon="1.24542">
        <ele>374.2</ele>
        <time>2024-11-10T15:18:01Z</time>
      </trkpt>
      <trkpt lat="45.91178" lon="1.2454">
        <ele>374.3</ele>
        <time>2024-11-10T15:18:02Z</time>
      </trkpt>
      <trkpt lat="45.91175" lon="1.24537">
        <ele>374.4</ele>
        <time>2024-11-10T15:18:03Z</time>
      </trkpt>
      <trkpt lat="45.91172" lon="1.24535">
        <ele>374.4</ele>
        <time>2024-11-10T15:18:04Z</time>
      </trkpt>
      <trkpt lat="45.91169" lon="1.24532">
        <ele>374.5</ele>
        <time>2024-11-10T15:18:05Z</time>
      </trkpt>
      <trkpt lat="45.91166" lon="1.2453">
        <ele>374.6</ele>
        <time>2024-11-10T15:18:06Z</time>
      </trkpt>
      <trkpt lat="45.91163" lon="1.24528">
        <ele>374.7</ele>
        <time>2024-11-10T15:18:07Z</time>
      </trkpt>
      <trkpt lat="45.9116" lon="1.24526">
        <ele>374.8</ele>
        <time>2024-11-10T15:18:08Z</time>
      </trkpt>
      <trkpt lat="45.91157" lon="1.24524">
        <ele>374.9</ele>
        <time>2024-11-10T15:18:09Z</time>
      </trkpt>
      <trkpt lat="45.91154" lon="1.24522">
        <ele>375</ele>
        <time>2024-11-10T15:18:10Z</time>
      </trkpt>
      <trkpt lat="45.91151" lon="1.2452">
        <ele>375.2</ele>
        <time>2024-11-10T15:18:11Z</time>
      </trkpt>
      <trkpt lat="45.91148" lon="1.24518">
        <ele>375.3</ele>
        <time>2024-11-10T15:18:12Z</time>
      </trkpt>
      <trkpt lat="45.91146" lon="1.24517">
        <ele>375.4</ele>
        <time>2024-11-10T15:18:13Z</time>
      </trkpt>
      <trkpt lat="45.91143" lon="1.24515">
        <ele>375.5</ele>
        <time>2024-11-10T15:18:14Z</time>
      </trkpt>
      <trkpt lat="45.9114" lon="1.24513">
        <ele>375.7</ele>
        <time>2024-11-10T15:18:15Z</time>
      </trkpt>
      <trkpt lat="45.91137" lon="1.24512">
        <ele>375.8</ele>
        <time>2024-11-10T15:18:16Z</time>
      </trkpt>
      <trkpt lat="45.91134" lon="1.2451">
        <ele>376</ele>
        <time>2024-11-10T15:18:17Z</time>
      </trkpt>
      <trkpt lat="45.91131" lon="1.24508">
        <ele>376.2</ele>
        <time>2024-11-10T15:18:18Z</time>
      </trkpt>
      <trkpt lat="45.91128" lon="1.24507">
        <ele>376.4</ele>
        <time>2024-11-10T15:18:19Z</time>
      </trkpt>
      <trkpt lat="45.91125" lon="1.24505">
        <ele>376.6</ele>
        <time>2024-11-10T15:18:20Z</time>
      </trkpt>
      <trkpt lat="45.91121" lon="1.24503">
        <ele>376.8</ele>
        <time>2024-11-10T15:18:22Z</time>
      </trkpt>
      <trkpt lat="45.91117" lon="1.245">
        <ele>377.2</ele>
        <time>2024-11-10T15:18:24Z</time>
      </trkpt>
      <trkpt lat="45.91113" lon="1.24498">
        <ele>377.5</ele>
        <time>2024-11-10T15:18:26Z</time>
      </trkpt>
      <trkpt lat="45.91109" lon="1.24495">
        <ele>377.8</ele>
        <time>2024-11-10T15:18:28Z</time>
      </trkpt>
      <trkpt lat="45.91105" lon="1.24493">
        <ele>378.1</ele>
        <time>2024-11-10T15:18:30Z</time>
      </trkpt>
      <trkpt lat="45.911" lon="1.24491">
        <ele>378.5</ele>
        <time>2024-11-10T15:18:32Z</time>
      </trkpt>
      <trkpt lat="45.91096" lon="1.24488">
        <ele>378.8</ele>
        <time>2024-11-10T15:18:34Z</time>
      </trkpt>
      <trkpt lat="45.91091" lon="1.24486">
        <ele>379.2</ele>
        <time>2024-11-10T15:18:36Z</time>
      </trkpt>
      <trkpt lat="45.91086" lon="1.24483">
        <ele>379.6</ele>
        <time>2024-11-10T15:18:38Z</time>
      </trkpt>
      <trkpt lat="45.91081" lon="1.24481">
        <ele>380</ele>
        <time>2024-11-10T15:18:40Z</time>
      </trkpt>
      <trkpt lat="45.91078" lon="1.24479">
        <ele>380.2</ele>
        <time>2024-11-10T15:18:41Z</time>
      </trkpt>
      <trkpt lat="45.91075" lon="1.24477">
        <ele>380.4</ele>
        <time>2024-11-10T15:18:42Z</time>
      </trkpt>
      <trkpt lat="45.91072" lon="1.24476">
        <ele>380.6</ele>
        <time>2024-11-10T15:18:43Z</time>
      </trkpt>
      <trkpt lat="45.91069" lon="1.24474">
        <ele>380.8</ele>
        <time>2024-11-10T15:18:44Z</time>
      </trkpt>
      <trkpt lat="45.91066" lon="1.24473">
        <ele>380.9</ele>
        <time>2024-11-10T15:18:45Z</time>
      </trkpt>
      <trkpt lat="45.91063" lon="1.24471">
        <ele>381.1</ele>
        <time>2024-11-10T15:18:46Z</time>
      </trkpt>
      <trkpt lat="45.91061" lon="1.24469">
        <ele>381.2</ele>
        <time>2024-11-10T15:18:47Z</time>
      </trkpt>
      <trkpt lat="45.91058" lon="1.24468">
        <ele>381.4</ele>
        <time>2024-11-10T15:18:48Z</time>
      </trkpt>
      <trkpt lat="45.91055" lon="1.24467">
        <ele>381.5</ele>
        <time>2024-11-10T15:18:49Z</time>
      </trkpt>
      <trkpt lat="45.91053" lon="1.24466">
        <ele>381.6</ele>
        <time>2024-11-10T15:18:50Z</time>
      </trkpt>
      <trkpt lat="45.9105" lon="1.24464">
        <ele>381.8</ele>
        <time>2024-11-10T15:18:51Z</time>
      </trkpt>
      <trkpt lat="45.91047" lon="1.24463">
        <ele>382</ele>
        <time>2024-11-10T15:18:52Z</time>
      </trkpt>
      <trkpt lat="45.91044" lon="1.24461">
        <ele>382.2</ele>
        <time>2024-11-10T15:18:53Z</time>
      </trkpt>
      <trkpt lat="45.91042" lon="1.2446">
        <ele>382.3</ele>
        <time>2024-11-10T15:18:54Z</time>
      </trkpt>
      <trkpt lat="45.91039" lon="1.24459">
        <ele>382.5</ele>
        <time>2024-11-10T15:18:55Z</time>
      </trkpt>
      <trkpt lat="45.91036" lon="1.24458">
        <ele>382.7</ele>
        <time>2024-11-10T15:18:56Z</time>
      </trkpt>
      <trkpt lat="45.91034" lon="1.24456">
        <ele>382.9</ele>
        <time>2024-11-10T15:18:57Z</time>
      </trkpt>
      <trkpt lat="45.9103" lon="1.24454">
        <ele>383.2</ele>
        <time>2024-11-10T15:18:59Z</time>
      </trkpt>
      <trkpt lat="45.91026" lon="1.24452">
        <ele>383.5</ele>
        <time>2024-11-10T15:19:01Z</time>
      </trkpt>
      <trkpt lat="45.91022" lon="1.2445">
        <ele>383.8</ele>
        <time>2024-11-10T15:19:03Z</time>
      </trkpt>
      <trkpt lat="45.91019" lon="1.24448">
        <ele>384</ele>
        <time>2024-11-10T15:19:05Z</time>
      </trkpt>
      <trkpt lat="45.91016" lon="1.24446">
        <ele>384.3</ele>
        <time>2024-11-10T15:19:07Z</time>
      </trkpt>
      <trkpt lat="45.91012" lon="1.24445">
        <ele>384.2</ele>
        <time>2024-11-10T15:19:09Z</time>
      </trkpt>
      <trkpt lat="45.91008" lon="1.24445">
        <ele>384.2</ele>
        <time>2024-11-10T15:19:10Z</time>
      </trkpt>
      <trkpt lat="45.91005" lon="1.24444">
        <ele>384.1</ele>
        <time>2024-11-10T15:19:11Z</time>
      </trkpt>
      <trkpt lat="45.91001" lon="1.24442">
        <ele>384.1</ele>
        <time>2024-11-10T15:19:12Z</time>
      </trkpt>
      <trkpt lat="45.90998" lon="1.24441">
        <ele>384.1</ele>
        <time>2024-11-10T15:19:13Z</time>
      </trkpt>
      <trkpt lat="45.90995" lon="1.24439">
        <ele>384.1</ele>
        <time>2024-11-10T15:19:14Z</time>
      </trkpt>
      <trkpt lat="45.90992" lon="1.24437">
        <ele>384.1</ele>
        <time>2024-11-10T15:19:15Z</time>
      </trkpt>
      <trkpt lat="45.90989" lon="1.24434">
        <ele>384.1</ele>
        <time>2024-11-10T15:19:16Z</time>
      </trkpt>
      <trkpt lat="45.90986" lon="1.2443">
        <ele>384.1</ele>
        <time>2024-11-10T15:19:17Z</time>
      </trkpt>
      <trkpt lat="45.90984" lon="1.24427">
        <ele>384.1</ele>
        <time>2024-11-10T15:19:18Z</time>
      </trkpt>
      <trkpt lat="45.90981" lon="1.24423">
        <ele>384.2</ele>
        <time>2024-11-10T15:19:19Z</time>
      </trkpt>
      <trkpt lat="45.90978" lon="1.2442">
        <ele>384.2</ele>
        <time>2024-11-10T15:19:20Z</time>
      </trkpt>
      <trkpt lat="45.90975" lon="1.24417">
        <ele>384.3</ele>
        <time>2024-11-10T15:19:21Z</time>
      </trkpt>
      <trkpt lat="45.90972" lon="1.24414">
        <ele>384.4</ele>
        <time>2024-11-10T15:19:22Z</time>
      </trkpt>
      <trkpt lat="45.90969" lon="1.2441">
        <ele>384.5</ele>
        <time>2024-11-10T15:19:23Z</time>
      </trkpt>
      <trkpt lat="45.90967" lon="1.24407">
        <ele>384.5</ele>
        <time>2024-11-10T15:19:24Z</time>
      </trkpt>
      <trkpt lat="45.90964" lon="1.24404">
        <ele>384.6</ele>
        <time>2024-11-10T15:19:25Z</time>
      </trkpt>
      <trkpt lat="45.90962" lon="1.24402">
        <ele>384.7</ele>
        <time>2024-11-10T15:19:26Z</time>
      </trkpt>
      <trkpt lat="45.90959" lon="1.24399">
        <ele>384.9</ele>
        <time>2024-11-10T15:19:27Z</time>
      </trkpt>
      <trkpt lat="45.90957" lon="1.24396">
        <ele>385</ele>
        <time>2024-11-10T15:19:28Z</time>
      </trkpt>
      <trkpt lat="45.90954" lon="1.24393">
        <ele>385.1</ele>
        <time>2024-11-10T15:19:29Z</time>
      </trkpt>
      <trkpt lat="45.90952" lon="1.2439">
        <ele>385.2</ele>
        <time>2024-11-10T15:19:30Z</time>
      </trkpt>
      <trkpt lat="45.9095" lon="1.24387">
        <ele>385.4</ele>
        <time>2024-11-10T15:19:31Z</time>
      </trkpt>
      <trkpt lat="45.90947" lon="1.24383">
        <ele>385.6</ele>
        <time>2024-11-10T15:19:32Z</time>
      </trkpt>
      <trkpt lat="45.90945" lon="1.2438">
        <ele>385.7</ele>
        <time>2024-11-10T15:19:33Z</time>
      </trkpt>
      <trkpt lat="45.90943" lon="1.24377">
        <ele>385.9</ele>
        <time>2024-11-10T15:19:34Z</time>
      </trkpt>
      <trkpt lat="45.9094" lon="1.24374">
        <ele>386.1</ele>
        <time>2024-11-10T15:19:35Z</time>
      </trkpt>
      <trkpt lat="45.90938" lon="1.24371">
        <ele>386.3</ele>
        <time>2024-11-10T15:19:36Z</time>
      </trkpt>
      <trkpt lat="45.90936" lon="1.24368">
        <ele>386.4</ele>
        <time>2024-11-10T15:19:37Z</time>
      </trkpt>
      <trkpt lat="45.90934" lon="1.24365">
        <ele>386.6</ele>
        <time>2024-11-10T15:19:38Z</time>
      </trkpt>
      <trkpt lat="45.90932" lon="1.24362">
        <ele>386.8</ele>
        <time>2024-11-10T15:19:39Z</time>
      </trkpt>
      <trkpt lat="45.90929" lon="1.24359">
        <ele>387</ele>
        <time>2024-11-10T15:19:40Z</time>
      </trkpt>
      <trkpt lat="45.90927" lon="1.24357">
        <ele>387.1</ele>
        <time>2024-11-10T15:19:41Z</time>
      </trkpt>
      <trkpt lat="45.90925" lon="1.24354">
        <ele>387.2</ele>
        <time>2024-11-10T15:19:42Z</time>
      </trkpt>
      <trkpt lat="45.90923" lon="1.24351">
        <ele>387.4</ele>
        <time>2024-11-10T15:19:43Z</time>
      </trkpt>
      <trkpt lat="45.90921" lon="1.24349">
        <ele>387.5</ele>
        <time>2024-11-10T15:19:44Z</time>
      </trkpt>
      <trkpt lat="45.90919" lon="1.24346">
        <ele>387.6</ele>
        <time>2024-11-10T15:19:45Z</time>
      </trkpt>
      <trkpt lat="45.90916" lon="1.24343">
        <ele>387.8</ele>
        <time>2024-11-10T15:19:46Z</time>
      </trkpt>
      <trkpt lat="45.90914" lon="1.2434">
        <ele>387.9</ele>
        <time>2024-11-10T15:19:47Z</time>
      </trkpt>
      <trkpt lat="45.90912" lon="1.24337">
        <ele>388</ele>
        <time>2024-11-10T15:19:48Z</time>
      </trkpt>
      <trkpt lat="45.9091" lon="1.24334">
        <ele>388.1</ele>
        <time>2024-11-10T15:19:49Z</time>
      </trkpt>
      <trkpt lat="45.90907" lon="1.24331">
        <ele>388.2</ele>
        <time>2024-11-10T15:19:50Z</time>
      </trkpt>
      <trkpt lat="45.90904" lon="1.24328">
        <ele>388.3</ele>
        <time>2024-11-10T15:19:51Z</time>
      </trkpt>
      <trkpt lat="45.90902" lon="1.24325">
        <ele>388.4</ele>
        <time>2024-11-10T15:19:52Z</time>
      </trkpt>
      <trkpt lat="45.90899" lon="1.24322">
        <ele>388.6</ele>
        <time>2024-11-10T15:19:53Z</time>
      </trkpt>
      <trkpt lat="45.90897" lon="1.24319">
        <ele>388.7</ele>
        <time>2024-11-10T15:19:54Z</time>
      </trkpt>
      <trkpt lat="45.90894" lon="1.24316">
        <ele>388.8</ele>
        <time>2024-11-10T15:19:55Z</time>
      </trkpt>
      <trkpt lat="45.90891" lon="1.24314">
        <ele>388.9</ele>
        <time>2024-11-10T15:19:56Z</time>
      </trkpt>
      <trkpt lat="45.90888" lon="1.24311">
        <ele>389</ele>
        <time>2024-11-10T15:19:57Z</time>
      </trkpt>
      <trkpt lat="45.90885" lon="1.24309">
        <ele>389.1</ele>
        <time>2024-11-10T15:19:58Z</time>
      </trkpt>
      <trkpt lat="45.90882" lon="1.24307">
        <ele>389.2</ele>
        <time>2024-11-10T15:19:59Z</time>
      </trkpt>
      <trkpt lat="45.90879" lon="1.24305">
        <ele>389.3</ele>
        <time>2024-11-10T15:20:00Z</time>
      </trkpt>
      <trkpt lat="45.90876" lon="1.24303">
        <ele>389.4</ele>
        <time>2024-11-10T15:20:01Z</time>
      </trkpt>
      <trkpt lat="45.90873" lon="1.24301">
        <ele>389.5</ele>
        <time>2024-11-10T15:20:02Z</time>
      </trkpt>
      <trkpt lat="45.9087" lon="1.24299">
        <ele>389.6</ele>
        <time>2024-11-10T15:20:03Z</time>
      </trkpt>
      <trkpt lat="45.90868" lon="1.24296">
        <ele>389.7</ele>
        <time>2024-11-10T15:20:04Z</time>
      </trkpt>
      <trkpt lat="45.90865" lon="1.24294">
        <ele>389.8</ele>
        <time>2024-11-10T15:20:05Z</time>
      </trkpt>
      <trkpt lat="45.90862" lon="1.24291">
        <ele>390</ele>
        <time>2024-11-10T15:20:06Z</time>
      </trkpt>
      <trkpt lat="45.90859" lon="1.24288">
        <ele>390.1</ele>
        <time>2024-11-10T15:20:07Z</time>
      </trkpt>
      <trkpt lat="45.90857" lon="1.24285">
        <ele>390.2</ele>
        <time>2024-11-10T15:20:08Z</time>
      </trkpt>
      <trkpt lat="45.90854" lon="1.24282">
        <ele>390.3</ele>
        <time>2024-11-10T15:20:09Z</time>
      </trkpt>
      <trkpt lat="45.90852" lon="1.24279">
        <ele>390.4</ele>
        <time>2024-11-10T15:20:10Z</time>
      </trkpt>
      <trkpt lat="45.90849" lon="1.24276">
        <ele>390.6</ele>
        <time>2024-11-10T15:20:11Z</time>
      </trkpt>
      <trkpt lat="45.90847" lon="1.24273">
        <ele>390.7</ele>
        <time>2024-11-10T15:20:12Z</time>
      </trkpt>
      <trkpt lat="45.90845" lon="1.2427">
        <ele>390.8</ele>
        <time>2024-11-10T15:20:13Z</time>
      </trkpt>
      <trkpt lat="45.90843" lon="1.24266">
        <ele>390.9</ele>
        <time>2024-11-10T15:20:14Z</time>
      </trkpt>
      <trkpt lat="45.90841" lon="1.24262">
        <ele>391</ele>
        <time>2024-11-10T15:20:15Z</time>
      </trkpt>
      <trkpt lat="45.90839" lon="1.24259">
        <ele>391.2</ele>
        <time>2024-11-10T15:20:16Z</time>
      </trkpt>
      <trkpt lat="45.90837" lon="1.24255">
        <ele>391.3</ele>
        <time>2024-11-10T15:20:17Z</time>
      </trkpt>
      <trkpt lat="45.90835" lon="1.24252">
        <ele>391.4</ele>
        <time>2024-11-10T15:20:18Z</time>
      </trkpt>
      <trkpt lat="45.90833" lon="1.24248">
        <ele>391.5</ele>
        <time>2024-11-10T15:20:19Z</time>
      </trkpt>
      <trkpt lat="45.90831" lon="1.24244">
        <ele>391.7</ele>
        <time>2024-11-10T15:20:20Z</time>
      </trkpt>
      <trkpt lat="45.90829" lon="1.24241">
        <ele>391.8</ele>
        <time>2024-11-10T15:20:21Z</time>
      </trkpt>
      <trkpt lat="45.90827" lon="1.24237">
        <ele>391.9</ele>
        <time>2024-11-10T15:20:22Z</time>
      </trkpt>
      <trkpt lat="45.90825" lon="1.24233">
        <ele>392</ele>
        <time>2024-11-10T15:20:23Z</time>
      </trkpt>
      <trkpt lat="45.90823" lon="1.2423">
        <ele>392.1</ele>
        <time>2024-11-10T15:20:24Z</time>
      </trkpt>
      <trkpt lat="45.90822" lon="1.24226">
        <ele>392.2</ele>
        <time>2024-11-10T15:20:25Z</time>
      </trkpt>
      <trkpt lat="45.9082" lon="1.24223">
        <ele>392.3</ele>
        <time>2024-11-10T15:20:26Z</time>
      </trkpt>
      <trkpt lat="45.90818" lon="1.24219">
        <ele>392.4</ele>
        <time>2024-11-10T15:20:27Z</time>
      </trkpt>
      <trkpt lat="45.90816" lon="1.24215">
        <ele>392.5</ele>
        <time>2024-11-10T15:20:28Z</time>
      </trkpt>
      <trkpt lat="45.90814" lon="1.24212">
        <ele>392.6</ele>
        <time>2024-11-10T15:20:29Z</time>
      </trkpt>
      <trkpt lat="45.90812" lon="1.24208">
        <ele>392.7</ele>
        <time>2024-11-10T15:20:30Z</time>
      </trkpt>
      <trkpt lat="45.9081" lon="1.24204">
        <ele>392.8</ele>
        <time>2024-11-10T15:20:31Z</time>
      </trkpt>
      <trkpt lat="45.90809" lon="1.242">
        <ele>392.9</ele>
        <time>2024-11-10T15:20:32Z</time>
      </trkpt>
      <trkpt lat="45.90807" lon="1.24196">
        <ele>393</ele>
        <time>2024-11-10T15:20:33Z</time>
      </trkpt>
      <trkpt lat="45.90805" lon="1.24192">
        <ele>393.1</ele>
        <time>2024-11-10T15:20:34Z</time>
      </trkpt>
      <trkpt lat="45.90803" lon="1.24188">
        <ele>393.2</ele>
        <time>2024-11-10T15:20:35Z</time>
      </trkpt>
      <trkpt lat="45.90801" lon="1.24185">
        <ele>393.3</ele>
        <time>2024-11-10T15:20:36Z</time>
      </trkpt>
      <trkpt lat="45.90799" lon="1.24181">
        <ele>393.4</ele>
        <time>2024-11-10T15:20:37Z</time>
      </trkpt>
      <trkpt lat="45.90797" lon="1.24177">
        <ele>393.5</ele>
        <time>2024-11-10T15:20:38Z</time>
      </trkpt>
      <trkpt lat="45.90795" lon="1.24173">
        <ele>393.5</ele>
        <time>2024-11-10T15:20:39Z</time>
      </trkpt>
      <trkpt lat="45.90793" lon="1.24169">
        <ele>393.6</ele>
        <time>2024-11-10T15:20:40Z</time>
      </trkpt>
      <trkpt lat="45.90791" lon="1.24166">
        <ele>393.7</ele>
        <time>2024-11-10T15:20:41Z</time>
      </trkpt>
      <trkpt lat="45.90789" lon="1.24162">
        <ele>393.9</ele>
        <time>2024-11-10T15:20:42Z</time>
      </trkpt>
      <trkpt lat="45.90787" lon="1.24158">
        <ele>394</ele>
        <time>2024-11-10T15:20:43Z</time>
      </trkpt>
      <trkpt lat="45.90786" lon="1.24153">
        <ele>394.1</ele>
        <time>2024-11-10T15:20:44Z</time>
      </trkpt>
      <trkpt lat="45.90784" lon="1.2415">
        <ele>394.2</ele>
        <time>2024-11-10T15:20:45Z</time>
      </trkpt>
      <trkpt lat="45.90782" lon="1.24146">
        <ele>394.3</ele>
        <time>2024-11-10T15:20:46Z</time>
      </trkpt>
      <trkpt lat="45.9078" lon="1.24141">
        <ele>394.4</ele>
        <time>2024-11-10T15:20:47Z</time>
      </trkpt>
      <trkpt lat="45.90779" lon="1.24137">
        <ele>394.5</ele>
        <time>2024-11-10T15:20:48Z</time>
      </trkpt>
      <trkpt lat="45.90779" lon="1.24131">
        <ele>394.6</ele>
        <time>2024-11-10T15:20:50Z</time>
      </trkpt>
      <trkpt lat="45.90779" lon="1.24124">
        <ele>394.7</ele>
        <time>2024-11-10T15:20:52Z</time>
      </trkpt>
      <trkpt lat="45.90778" lon="1.24117">
        <ele>394.6</ele>
        <time>2024-11-10T15:20:54Z</time>
      </trkpt>
      <trkpt lat="45.90776" lon="1.24111">
        <ele>394.5</ele>
        <time>2024-11-10T15:20:56Z</time>
      </trkpt>
      <trkpt lat="45.90774" lon="1.24105">
        <ele>394.3</ele>
        <time>2024-11-10T15:20:58Z</time>
      </trkpt>
      <trkpt lat="45.90772" lon="1.241">
        <ele>394.2</ele>
        <time>2024-11-10T15:20:59Z</time>
      </trkpt>
      <trkpt lat="45.9077" lon="1.24096">
        <ele>394</ele>
        <time>2024-11-10T15:21:00Z</time>
      </trkpt>
      <trkpt lat="45.90768" lon="1.24091">
        <ele>393.9</ele>
        <time>2024-11-10T15:21:01Z</time>
      </trkpt>
      <trkpt lat="45.90766" lon="1.24087">
        <ele>393.7</ele>
        <time>2024-11-10T15:21:02Z</time>
      </trkpt>
      <trkpt lat="45.90764" lon="1.24084">
        <ele>393.6</ele>
        <time>2024-11-10T15:21:03Z</time>
      </trkpt>
      <trkpt lat="45.90762" lon="1.24081">
        <ele>393.4</ele>
        <time>2024-11-10T15:21:04Z</time>
      </trkpt>
      <trkpt lat="45.9076" lon="1.24077">
        <ele>393.3</ele>
        <time>2024-11-10T15:21:05Z</time>
      </trkpt>
      <trkpt lat="45.90758" lon="1.24072">
        <ele>393.1</ele>
        <time>2024-11-10T15:21:06Z</time>
      </trkpt>
      <trkpt lat="45.90756" lon="1.24066">
        <ele>392.9</ele>
        <time>2024-11-10T15:21:07Z</time>
      </trkpt>
      <trkpt lat="45.90753" lon="1.24061">
        <ele>392.6</ele>
        <time>2024-11-10T15:21:08Z</time>
      </trkpt>
      <trkpt lat="45.9075" lon="1.24056">
        <ele>392.4</ele>
        <time>2024-11-10T15:21:09Z</time>
      </trkpt>
      <trkpt lat="45.90747" lon="1.24051">
        <ele>392.2</ele>
        <time>2024-11-10T15:21:10Z</time>
      </trkpt>
      <trkpt lat="45.90745" lon="1.24046">
        <ele>392</ele>
        <time>2024-11-10T15:21:11Z</time>
      </trkpt>
      <trkpt lat="45.90743" lon="1.24043">
        <ele>391.8</ele>
        <time>2024-11-10T15:21:12Z</time>
      </trkpt>
      <trkpt lat="45.9074" lon="1.24038">
        <ele>391.6</ele>
        <time>2024-11-10T15:21:13Z</time>
      </trkpt>
      <trkpt lat="45.90738" lon="1.24034">
        <ele>391.5</ele>
        <time>2024-11-10T15:21:14Z</time>
      </trkpt>
      <trkpt lat="45.90736" lon="1.24029">
        <ele>391.4</ele>
        <time>2024-11-10T15:21:15Z</time>
      </trkpt>
      <trkpt lat="45.90733" lon="1.24025">
        <ele>391.2</ele>
        <time>2024-11-10T15:21:16Z</time>
      </trkpt>
      <trkpt lat="45.9073" lon="1.2402">
        <ele>391.1</ele>
        <time>2024-11-10T15:21:17Z</time>
      </trkpt>
      <trkpt lat="45.90728" lon="1.24016">
        <ele>391</ele>
        <time>2024-11-10T15:21:18Z</time>
      </trkpt>
      <trkpt lat="45.90726" lon="1.24012">
        <ele>390.9</ele>
        <time>2024-11-10T15:21:19Z</time>
      </trkpt>
      <trkpt lat="45.90722" lon="1.24008">
        <ele>390.8</ele>
        <time>2024-11-10T15:21:20Z</time>
      </trkpt>
      <trkpt lat="45.9072" lon="1.24003">
        <ele>390.7</ele>
        <time>2024-11-10T15:21:21Z</time>
      </trkpt>
      <trkpt lat="45.90717" lon="1.23998">
        <ele>390.6</ele>
        <time>2024-11-10T15:21:22Z</time>
      </trkpt>
      <trkpt lat="45.90715" lon="1.23993">
        <ele>390.6</ele>
        <time>2024-11-10T15:21:23Z</time>
      </trkpt>
      <trkpt lat="45.90712" lon="1.2399">
        <ele>390.5</ele>
        <time>2024-11-10T15:21:24Z</time>
      </trkpt>
      <trkpt lat="45.9071" lon="1.23986">
        <ele>390.5</ele>
        <time>2024-11-10T15:21:25Z</time>
      </trkpt>
      <trkpt lat="45.90707" lon="1.23983">
        <ele>390.4</ele>
        <time>2024-11-10T15:21:26Z</time>
      </trkpt>
      <trkpt lat="45.90704" lon="1.2398">
        <ele>390.4</ele>
        <time>2024-11-10T15:21:27Z</time>
      </trkpt>
      <trkpt lat="45.907" lon="1.23977">
        <ele>390.3</ele>
        <time>2024-11-10T15:21:29Z</time>
      </trkpt>
      <trkpt lat="45.90696" lon="1.23973">
        <ele>390.3</ele>
        <time>2024-11-10T15:21:31Z</time>
      </trkpt>
      <trkpt lat="45.90692" lon="1.23969">
        <ele>390.3</ele>
        <time>2024-11-10T15:21:33Z</time>
      </trkpt>
      <trkpt lat="45.90688" lon="1.23966">
        <ele>390.2</ele>
        <time>2024-11-10T15:21:34Z</time>
      </trkpt>
      <trkpt lat="45.90686" lon="1.23963">
        <ele>390.2</ele>
        <time>2024-11-10T15:21:35Z</time>
      </trkpt>
      <trkpt lat="45.90683" lon="1.2396">
        <ele>390.2</ele>
        <time>2024-11-10T15:21:36Z</time>
      </trkpt>
      <trkpt lat="45.9068" lon="1.23957">
        <ele>390.2</ele>
        <time>2024-11-10T15:21:37Z</time>
      </trkpt>
      <trkpt lat="45.90677" lon="1.23954">
        <ele>390.2</ele>
        <time>2024-11-10T15:21:38Z</time>
      </trkpt>
      <trkpt lat="45.90674" lon="1.23951">
        <ele>390.2</ele>
        <time>2024-11-10T15:21:39Z</time>
      </trkpt>
      <trkpt lat="45.90671" lon="1.23948">
        <ele>390.2</ele>
        <time>2024-11-10T15:21:40Z</time>
      </trkpt>
      <trkpt lat="45.90669" lon="1.23945">
        <ele>390.2</ele>
        <time>2024-11-10T15:21:41Z</time>
      </trkpt>
      <trkpt lat="45.90666" lon="1.23942">
        <ele>390.2</ele>
        <time>2024-11-10T15:21:42Z</time>
      </trkpt>
      <trkpt lat="45.90664" lon="1.23939">
        <ele>390.1</ele>
        <time>2024-11-10T15:21:43Z</time>
      </trkpt>
      <trkpt lat="45.90661" lon="1.23935">
        <ele>390.1</ele>
        <time>2024-11-10T15:21:44Z</time>
      </trkpt>
      <trkpt lat="45.90659" lon="1.23931">
        <ele>390.1</ele>
        <time>2024-11-10T15:21:45Z</time>
      </trkpt>
      <trkpt lat="45.90658" lon="1.23927">
        <ele>390.1</ele>
        <time>2024-11-10T15:21:46Z</time>
      </trkpt>
      <trkpt lat="45.90656" lon="1.23923">
        <ele>390</ele>
        <time>2024-11-10T15:21:47Z</time>
      </trkpt>
      <trkpt lat="45.90653" lon="1.23919">
        <ele>390</ele>
        <time>2024-11-10T15:21:48Z</time>
      </trkpt>
      <trkpt lat="45.90651" lon="1.23915">
        <ele>389.9</ele>
        <time>2024-11-10T15:21:49Z</time>
      </trkpt>
      <trkpt lat="45.90649" lon="1.23911">
        <ele>389.9</ele>
        <time>2024-11-10T15:21:50Z</time>
      </trkpt>
      <trkpt lat="45.90647" lon="1.23907">
        <ele>389.9</ele>
        <time>2024-11-10T15:21:51Z</time>
      </trkpt>
      <trkpt lat="45.90644" lon="1.23902">
        <ele>389.8</ele>
        <time>2024-11-10T15:21:52Z</time>
      </trkpt>
      <trkpt lat="45.90642" lon="1.23898">
        <ele>389.8</ele>
        <time>2024-11-10T15:21:53Z</time>
      </trkpt>
      <trkpt lat="45.9064" lon="1.23894">
        <ele>389.8</ele>
        <time>2024-11-10T15:21:54Z</time>
      </trkpt>
      <trkpt lat="45.90638" lon="1.23891">
        <ele>389.8</ele>
        <time>2024-11-10T15:21:55Z</time>
      </trkpt>
      <trkpt lat="45.90636" lon="1.23886">
        <ele>389.7</ele>
        <time>2024-11-10T15:21:56Z</time>
      </trkpt>
      <trkpt lat="45.90634" lon="1.23882">
        <ele>389.7</ele>
        <time>2024-11-10T15:21:57Z</time>
      </trkpt>
      <trkpt lat="45.90632" lon="1.23878">
        <ele>389.7</ele>
        <time>2024-11-10T15:21:58Z</time>
      </trkpt>
      <trkpt lat="45.9063" lon="1.23874">
        <ele>389.6</ele>
        <time>2024-11-10T15:21:59Z</time>
      </trkpt>
      <trkpt lat="45.90628" lon="1.2387">
        <ele>389.6</ele>
        <time>2024-11-10T15:22:00Z</time>
      </trkpt>
      <trkpt lat="45.90626" lon="1.23866">
        <ele>389.6</ele>
        <time>2024-11-10T15:22:01Z</time>
      </trkpt>
      <trkpt lat="45.90624" lon="1.23861">
        <ele>389.5</ele>
        <time>2024-11-10T15:22:02Z</time>
      </trkpt>
      <trkpt lat="45.90622" lon="1.23857">
        <ele>389.5</ele>
        <time>2024-11-10T15:22:03Z</time>
      </trkpt>
      <trkpt lat="45.90621" lon="1.23853">
        <ele>389.5</ele>
        <time>2024-11-10T15:22:04Z</time>
      </trkpt>
      <trkpt lat="45.90619" lon="1.23849">
        <ele>389.4</ele>
        <time>2024-11-10T15:22:05Z</time>
      </trkpt>
      <trkpt lat="45.90617" lon="1.23845">
        <ele>389.4</ele>
        <time>2024-11-10T15:22:06Z</time>
      </trkpt>
      <trkpt lat="45.90616" lon="1.23841">
        <ele>389.3</ele>
        <time>2024-11-10T15:22:07Z</time>
      </trkpt>
      <trkpt lat="45.90614" lon="1.23836">
        <ele>389.3</ele>
        <time>2024-11-10T15:22:08Z</time>
      </trkpt>
      <trkpt lat="45.90613" lon="1.23832">
        <ele>389.3</ele>
        <time>2024-11-10T15:22:09Z</time>
      </trkpt>
      <trkpt lat="45.90612" lon="1.23827">
        <ele>389.2</ele>
        <time>2024-11-10T15:22:10Z</time>
      </trkpt>
      <trkpt lat="45.9061" lon="1.23821">
        <ele>389.2</ele>
        <time>2024-11-10T15:22:11Z</time>
      </trkpt>
      <trkpt lat="45.90608" lon="1.23816">
        <ele>389.2</ele>
        <time>2024-11-10T15:22:12Z</time>
      </trkpt>
      <trkpt lat="45.90607" lon="1.23811">
        <ele>389.1</ele>
        <time>2024-11-10T15:22:13Z</time>
      </trkpt>
      <trkpt lat="45.90605" lon="1.23806">
        <ele>389.1</ele>
        <time>2024-11-10T15:22:14Z</time>
      </trkpt>
      <trkpt lat="45.90603" lon="1.23802">
        <ele>389.1</ele>
        <time>2024-11-10T15:22:15Z</time>
      </trkpt>
      <trkpt lat="45.906" lon="1.23798">
        <ele>389.2</ele>
        <time>2024-11-10T15:22:16Z</time>
      </trkpt>
      <trkpt lat="45.90598" lon="1.23794">
        <ele>389.2</ele>
        <time>2024-11-10T15:22:17Z</time>
      </trkpt>
      <trkpt lat="45.90595" lon="1.2379">
        <ele>389.2</ele>
        <time>2024-11-10T15:22:18Z</time>
      </trkpt>
      <trkpt lat="45.90593" lon="1.23786">
        <ele>389.3</ele>
        <time>2024-11-10T15:22:19Z</time>
      </trkpt>
      <trkpt lat="45.90591" lon="1.23782">
        <ele>389.3</ele>
        <time>2024-11-10T15:22:20Z</time>
      </trkpt>
      <trkpt lat="45.90589" lon="1.23778">
        <ele>389.4</ele>
        <time>2024-11-10T15:22:21Z</time>
      </trkpt>
      <trkpt lat="45.90587" lon="1.23775">
        <ele>389.5</ele>
        <time>2024-11-10T15:22:22Z</time>
      </trkpt>
      <trkpt lat="45.90585" lon="1.23771">
        <ele>389.5</ele>
        <time>2024-11-10T15:22:23Z</time>
      </trkpt>
      <trkpt lat="45.90583" lon="1.23767">
        <ele>389.6</ele>
        <time>2024-11-10T15:22:24Z</time>
      </trkpt>
      <trkpt lat="45.90581" lon="1.23763">
        <ele>389.7</ele>
        <time>2024-11-10T15:22:25Z</time>
      </trkpt>
      <trkpt lat="45.90578" lon="1.23759">
        <ele>389.8</ele>
        <time>2024-11-10T15:22:26Z</time>
      </trkpt>
      <trkpt lat="45.90576" lon="1.23755">
        <ele>389.9</ele>
        <time>2024-11-10T15:22:27Z</time>
      </trkpt>
      <trkpt lat="45.90574" lon="1.23751">
        <ele>390</ele>
        <time>2024-11-10T15:22:28Z</time>
      </trkpt>
      <trkpt lat="45.90572" lon="1.23747">
        <ele>390.1</ele>
        <time>2024-11-10T15:22:29Z</time>
      </trkpt>
      <trkpt lat="45.9057" lon="1.23743">
        <ele>390.2</ele>
        <time>2024-11-10T15:22:30Z</time>
      </trkpt>
      <trkpt lat="45.90569" lon="1.23739">
        <ele>390.3</ele>
        <time>2024-11-10T15:22:31Z</time>
      </trkpt>
      <trkpt lat="45.90567" lon="1.23735">
        <ele>390.4</ele>
        <time>2024-11-10T15:22:32Z</time>
      </trkpt>
      <trkpt lat="45.90566" lon="1.2373">
        <ele>390.5</ele>
        <time>2024-11-10T15:22:33Z</time>
      </trkpt>
      <trkpt lat="45.90565" lon="1.23726">
        <ele>390.5</ele>
        <time>2024-11-10T15:22:34Z</time>
      </trkpt>
      <trkpt lat="45.90564" lon="1.23722">
        <ele>390.6</ele>
        <time>2024-11-10T15:22:35Z</time>
      </trkpt>
      <trkpt lat="45.90562" lon="1.23717">
        <ele>390.6</ele>
        <time>2024-11-10T15:22:36Z</time>
      </trkpt>
      <trkpt lat="45.90561" lon="1.23713">
        <ele>390.6</ele>
        <time>2024-11-10T15:22:37Z</time>
      </trkpt>
      <trkpt lat="45.90559" lon="1.23709">
        <ele>390.5</ele>
        <time>2024-11-10T15:22:38Z</time>
      </trkpt>
      <trkpt lat="45.90557" lon="1.23704">
        <ele>390.5</ele>
        <time>2024-11-10T15:22:39Z</time>
      </trkpt>
      <trkpt lat="45.90555" lon="1.237">
        <ele>390.4</ele>
        <time>2024-11-10T15:22:40Z</time>
      </trkpt>
      <trkpt lat="45.90553" lon="1.23695">
        <ele>390.3</ele>
        <time>2024-11-10T15:22:41Z</time>
      </trkpt>
      <trkpt lat="45.90551" lon="1.23691">
        <ele>390.2</ele>
        <time>2024-11-10T15:22:42Z</time>
      </trkpt>
      <trkpt lat="45.90549" lon="1.23686">
        <ele>390.1</ele>
        <time>2024-11-10T15:22:43Z</time>
      </trkpt>
      <trkpt lat="45.90547" lon="1.23681">
        <ele>389.9</ele>
        <time>2024-11-10T15:22:44Z</time>
      </trkpt>
      <trkpt lat="45.90546" lon="1.23676">
        <ele>389.8</ele>
        <time>2024-11-10T15:22:45Z</time>
      </trkpt>
      <trkpt lat="45.90544" lon="1.23671">
        <ele>389.6</ele>
        <time>2024-11-10T15:22:46Z</time>
      </trkpt>
      <trkpt lat="45.90543" lon="1.23666">
        <ele>389.4</ele>
        <time>2024-11-10T15:22:47Z</time>
      </trkpt>
      <trkpt lat="45.90541" lon="1.23661">
        <ele>389.2</ele>
        <time>2024-11-10T15:22:48Z</time>
      </trkpt>
      <trkpt lat="45.90541" lon="1.23657">
        <ele>389.1</ele>
        <time>2024-11-10T15:22:49Z</time>
      </trkpt>
      <trkpt lat="45.9054" lon="1.23653">
        <ele>389</ele>
        <time>2024-11-10T15:22:51Z</time>
      </trkpt>
      <trkpt lat="45.90539" lon="1.23648">
        <ele>388.8</ele>
        <time>2024-11-10T15:22:53Z</time>
      </trkpt>
      <trkpt lat="45.90537" lon="1.23645">
        <ele>388.6</ele>
        <time>2024-11-10T15:22:55Z</time>
      </trkpt>
      <trkpt lat="45.90534" lon="1.23641">
        <ele>388.5</ele>
        <time>2024-11-10T15:22:57Z</time>
      </trkpt>
      <trkpt lat="45.90531" lon="1.2364">
        <ele>388.5</ele>
        <time>2024-11-10T15:22:58Z</time>
      </trkpt>
      <trkpt lat="45.90528" lon="1.23638">
        <ele>388.4</ele>
        <time>2024-11-10T15:22:59Z</time>
      </trkpt>
      <trkpt lat="45.90525" lon="1.23637">
        <ele>388.3</ele>
        <time>2024-11-10T15:23:00Z</time>
      </trkpt>
      <trkpt lat="45.90521" lon="1.23636">
        <ele>388.2</ele>
        <time>2024-11-10T15:23:01Z</time>
      </trkpt>
      <trkpt lat="45.90518" lon="1.23635">
        <ele>388.1</ele>
        <time>2024-11-10T15:23:02Z</time>
      </trkpt>
      <trkpt lat="45.90514" lon="1.23634">
        <ele>388</ele>
        <time>2024-11-10T15:23:03Z</time>
      </trkpt>
      <trkpt lat="45.9051" lon="1.23632">
        <ele>387.7</ele>
        <time>2024-11-10T15:23:04Z</time>
      </trkpt>
      <trkpt lat="45.90506" lon="1.2363">
        <ele>387.5</ele>
        <time>2024-11-10T15:23:05Z</time>
      </trkpt>
      <trkpt lat="45.90502" lon="1.23626">
        <ele>387.2</ele>
        <time>2024-11-10T15:23:06Z</time>
      </trkpt>
      <trkpt lat="45.90498" lon="1.23623">
        <ele>387</ele>
        <time>2024-11-10T15:23:07Z</time>
      </trkpt>
      <trkpt lat="45.90494" lon="1.2362">
        <ele>386.7</ele>
        <time>2024-11-10T15:23:08Z</time>
      </trkpt>
      <trkpt lat="45.9049" lon="1.23617">
        <ele>386.4</ele>
        <time>2024-11-10T15:23:09Z</time>
      </trkpt>
      <trkpt lat="45.90485" lon="1.23614">
        <ele>386.1</ele>
        <time>2024-11-10T15:23:10Z</time>
      </trkpt>
      <trkpt lat="45.9048" lon="1.23611">
        <ele>385.8</ele>
        <time>2024-11-10T15:23:11Z</time>
      </trkpt>
      <trkpt lat="45.90475" lon="1.23607">
        <ele>385.4</ele>
        <time>2024-11-10T15:23:12Z</time>
      </trkpt>
      <trkpt lat="45.9047" lon="1.23602">
        <ele>385</ele>
        <time>2024-11-10T15:23:13Z</time>
      </trkpt>
      <trkpt lat="45.90464" lon="1.23598">
        <ele>384.5</ele>
        <time>2024-11-10T15:23:14Z</time>
      </trkpt>
      <trkpt lat="45.90458" lon="1.23594">
        <ele>384.1</ele>
        <time>2024-11-10T15:23:15Z</time>
      </trkpt>
      <trkpt lat="45.90451" lon="1.2359">
        <ele>383.5</ele>
        <time>2024-11-10T15:23:16Z</time>
      </trkpt>
      <trkpt lat="45.90444" lon="1.23585">
        <ele>383</ele>
        <time>2024-11-10T15:23:17Z</time>
      </trkpt>
      <trkpt lat="45.90437" lon="1.2358">
        <ele>382.5</ele>
        <time>2024-11-10T15:23:18Z</time>
      </trkpt>
      <trkpt lat="45.9043" lon="1.23575">
        <ele>382.1</ele>
        <time>2024-11-10T15:23:19Z</time>
      </trkpt>
      <trkpt lat="45.90423" lon="1.2357">
        <ele>381.6</ele>
        <time>2024-11-10T15:23:20Z</time>
      </trkpt>
      <trkpt lat="45.90417" lon="1.23565">
        <ele>381.3</ele>
        <time>2024-11-10T15:23:21Z</time>
      </trkpt>
      <trkpt lat="45.90409" lon="1.2356">
        <ele>380.8</ele>
        <time>2024-11-10T15:23:22Z</time>
      </trkpt>
      <trkpt lat="45.90402" lon="1.23555">
        <ele>380.4</ele>
        <time>2024-11-10T15:23:23Z</time>
      </trkpt>
      <trkpt lat="45.90394" lon="1.23549">
        <ele>380</ele>
        <time>2024-11-10T15:23:24Z</time>
      </trkpt>
      <trkpt lat="45.90387" lon="1.23545">
        <ele>379.6</ele>
        <time>2024-11-10T15:23:25Z</time>
      </trkpt>
      <trkpt lat="45.90379" lon="1.2354">
        <ele>379.4</ele>
        <time>2024-11-10T15:23:26Z</time>
      </trkpt>
      <trkpt lat="45.90372" lon="1.23534">
        <ele>379.2</ele>
        <time>2024-11-10T15:23:27Z</time>
      </trkpt>
      <trkpt lat="45.90365" lon="1.23528">
        <ele>378.9</ele>
        <time>2024-11-10T15:23:28Z</time>
      </trkpt>
      <trkpt lat="45.90358" lon="1.23523">
        <ele>378.7</ele>
        <time>2024-11-10T15:23:29Z</time>
      </trkpt>
      <trkpt lat="45.90351" lon="1.23518">
        <ele>378.5</ele>
        <time>2024-11-10T15:23:30Z</time>
      </trkpt>
      <trkpt lat="45.90344" lon="1.23513">
        <ele>378.3</ele>
        <time>2024-11-10T15:23:31Z</time>
      </trkpt>
      <trkpt lat="45.90337" lon="1.23507">
        <ele>378.1</ele>
        <time>2024-11-10T15:23:32Z</time>
      </trkpt>
      <trkpt lat="45.90331" lon="1.23501">
        <ele>378</ele>
        <time>2024-11-10T15:23:33Z</time>
      </trkpt>
      <trkpt lat="45.90325" lon="1.23496">
        <ele>377.9</ele>
        <time>2024-11-10T15:23:34Z</time>
      </trkpt>
      <trkpt lat="45.9032" lon="1.2349">
        <ele>377.8</ele>
        <time>2024-11-10T15:23:35Z</time>
      </trkpt>
      <trkpt lat="45.90314" lon="1.23485">
        <ele>377.8</ele>
        <time>2024-11-10T15:23:36Z</time>
      </trkpt>
      <trkpt lat="45.90308" lon="1.23479">
        <ele>377.8</ele>
        <time>2024-11-10T15:23:37Z</time>
      </trkpt>
      <trkpt lat="45.90303" lon="1.23474">
        <ele>377.8</ele>
        <time>2024-11-10T15:23:38Z</time>
      </trkpt>
      <trkpt lat="45.90297" lon="1.23469">
        <ele>377.8</ele>
        <time>2024-11-10T15:23:39Z</time>
      </trkpt>
      <trkpt lat="45.90292" lon="1.23464">
        <ele>377.9</ele>
        <time>2024-11-10T15:23:40Z</time>
      </trkpt>
      <trkpt lat="45.90286" lon="1.23458">
        <ele>378</ele>
        <time>2024-11-10T15:23:41Z</time>
      </trkpt>
      <trkpt lat="45.90281" lon="1.23453">
        <ele>378.2</ele>
        <time>2024-11-10T15:23:42Z</time>
      </trkpt>
      <trkpt lat="45.90276" lon="1.23448">
        <ele>378.3</ele>
        <time>2024-11-10T15:23:43Z</time>
      </trkpt>
      <trkpt lat="45.90271" lon="1.23442">
        <ele>378.4</ele>
        <time>2024-11-10T15:23:44Z</time>
      </trkpt>
      <trkpt lat="45.90267" lon="1.23436">
        <ele>378.4</ele>
        <time>2024-11-10T15:23:45Z</time>
      </trkpt>
      <trkpt lat="45.90263" lon="1.23429">
        <ele>378.5</ele>
        <time>2024-11-10T15:23:46Z</time>
      </trkpt>
      <trkpt lat="45.90259" lon="1.23423">
        <ele>378.6</ele>
        <time>2024-11-10T15:23:47Z</time>
      </trkpt>
      <trkpt lat="45.90256" lon="1.23416">
        <ele>378.7</ele>
        <time>2024-11-10T15:23:48Z</time>
      </trkpt>
      <trkpt lat="45.90253" lon="1.23409">
        <ele>378.7</ele>
        <time>2024-11-10T15:23:49Z</time>
      </trkpt>
      <trkpt lat="45.9025" lon="1.23402">
        <ele>378.8</ele>
        <time>2024-11-10T15:23:50Z</time>
      </trkpt>
      <trkpt lat="45.90247" lon="1.23396">
        <ele>378.9</ele>
        <time>2024-11-10T15:23:51Z</time>
      </trkpt>
      <trkpt lat="45.90243" lon="1.23389">
        <ele>379.1</ele>
        <time>2024-11-10T15:23:52Z</time>
      </trkpt>
      <trkpt lat="45.90241" lon="1.23383">
        <ele>379.2</ele>
        <time>2024-11-10T15:23:53Z</time>
      </trkpt>
      <trkpt lat="45.90239" lon="1.23377">
        <ele>379.3</ele>
        <time>2024-11-10T15:23:54Z</time>
      </trkpt>
      <trkpt lat="45.90237" lon="1.23372">
        <ele>379.4</ele>
        <time>2024-11-10T15:23:55Z</time>
      </trkpt>
      <trkpt lat="45.90236" lon="1.23366">
        <ele>379.6</ele>
        <time>2024-11-10T15:23:56Z</time>
      </trkpt>
      <trkpt lat="45.90234" lon="1.23361">
        <ele>379.7</ele>
        <time>2024-11-10T15:23:57Z</time>
      </trkpt>
      <trkpt lat="45.90232" lon="1.23354">
        <ele>379.9</ele>
        <time>2024-11-10T15:23:58Z</time>
      </trkpt>
      <trkpt lat="45.90229" lon="1.23348">
        <ele>380.1</ele>
        <time>2024-11-10T15:23:59Z</time>
      </trkpt>
      <trkpt lat="45.90227" lon="1.23342">
        <ele>380.2</ele>
        <time>2024-11-10T15:24:00Z</time>
      </trkpt>
      <trkpt lat="45.90225" lon="1.23336">
        <ele>380.4</ele>
        <time>2024-11-10T15:24:01Z</time>
      </trkpt>
      <trkpt lat="45.90223" lon="1.2333">
        <ele>380.5</ele>
        <time>2024-11-10T15:24:02Z</time>
      </trkpt>
      <trkpt lat="45.90221" lon="1.23324">
        <ele>380.6</ele>
        <time>2024-11-10T15:24:03Z</time>
      </trkpt>
      <trkpt lat="45.90218" lon="1.23318">
        <ele>380.8</ele>
        <time>2024-11-10T15:24:04Z</time>
      </trkpt>
      <trkpt lat="45.90216" lon="1.23313">
        <ele>380.9</ele>
        <time>2024-11-10T15:24:05Z</time>
      </trkpt>
      <trkpt lat="45.90214" lon="1.23307">
        <ele>381</ele>
        <time>2024-11-10T15:24:06Z</time>
      </trkpt>
      <trkpt lat="45.90212" lon="1.23301">
        <ele>381.1</ele>
        <time>2024-11-10T15:24:07Z</time>
      </trkpt>
      <trkpt lat="45.90209" lon="1.23296">
        <ele>381.1</ele>
        <time>2024-11-10T15:24:08Z</time>
      </trkpt>
      <trkpt lat="45.90207" lon="1.23291">
        <ele>381.2</ele>
        <time>2024-11-10T15:24:09Z</time>
      </trkpt>
      <trkpt lat="45.90204" lon="1.23284">
        <ele>381.2</ele>
        <time>2024-11-10T15:24:10Z</time>
      </trkpt>
      <trkpt lat="45.90202" lon="1.23279">
        <ele>381.3</ele>
        <time>2024-11-10T15:24:11Z</time>
      </trkpt>
      <trkpt lat="45.90199" lon="1.23273">
        <ele>381.3</ele>
        <time>2024-11-10T15:24:12Z</time>
      </trkpt>
      <trkpt lat="45.90196" lon="1.23268">
        <ele>381.3</ele>
        <time>2024-11-10T15:24:13Z</time>
      </trkpt>
      <trkpt lat="45.90192" lon="1.23262">
        <ele>381.3</ele>
        <time>2024-11-10T15:24:14Z</time>
      </trkpt>
      <trkpt lat="45.9019" lon="1.23256">
        <ele>381.3</ele>
        <time>2024-11-10T15:24:15Z</time>
      </trkpt>
      <trkpt lat="45.90186" lon="1.2325">
        <ele>381.3</ele>
        <time>2024-11-10T15:24:16Z</time>
      </trkpt>
      <trkpt lat="45.90182" lon="1.23245">
        <ele>381.3</ele>
        <time>2024-11-10T15:24:17Z</time>
      </trkpt>
      <trkpt lat="45.90179" lon="1.23239">
        <ele>381.3</ele>
        <time>2024-11-10T15:24:18Z</time>
      </trkpt>
      <trkpt lat="45.90175" lon="1.23235">
        <ele>381.3</ele>
        <time>2024-11-10T15:24:19Z</time>
      </trkpt>
      <trkpt lat="45.90171" lon="1.2323">
        <ele>381.3</ele>
        <time>2024-11-10T15:24:20Z</time>
      </trkpt>
      <trkpt lat="45.90167" lon="1.23224">
        <ele>381.3</ele>
        <time>2024-11-10T15:24:21Z</time>
      </trkpt>
      <trkpt lat="45.90163" lon="1.23218">
        <ele>381.3</ele>
        <time>2024-11-10T15:24:22Z</time>
      </trkpt>
      <trkpt lat="45.9016" lon="1.23211">
        <ele>381.3</ele>
        <time>2024-11-10T15:24:23Z</time>
      </trkpt>
      <trkpt lat="45.90156" lon="1.23204">
        <ele>381.4</ele>
        <time>2024-11-10T15:24:24Z</time>
      </trkpt>
      <trkpt lat="45.90152" lon="1.23197">
        <ele>381.5</ele>
        <time>2024-11-10T15:24:25Z</time>
      </trkpt>
      <trkpt lat="45.90148" lon="1.23191">
        <ele>381.7</ele>
        <time>2024-11-10T15:24:26Z</time>
      </trkpt>
      <trkpt lat="45.90144" lon="1.23184">
        <ele>381.8</ele>
        <time>2024-11-10T15:24:27Z</time>
      </trkpt>
      <trkpt lat="45.90141" lon="1.23177">
        <ele>382</ele>
        <time>2024-11-10T15:24:28Z</time>
      </trkpt>
      <trkpt lat="45.90139" lon="1.2317">
        <ele>382.2</ele>
        <time>2024-11-10T15:24:29Z</time>
      </trkpt>
      <trkpt lat="45.90137" lon="1.23163">
        <ele>382.4</ele>
        <time>2024-11-10T15:24:30Z</time>
      </trkpt>
      <trkpt lat="45.90136" lon="1.23156">
        <ele>382.5</ele>
        <time>2024-11-10T15:24:31Z</time>
      </trkpt>
      <trkpt lat="45.90136" lon="1.23148">
        <ele>382.7</ele>
        <time>2024-11-10T15:24:32Z</time>
      </trkpt>
      <trkpt lat="45.90135" lon="1.23141">
        <ele>382.9</ele>
        <time>2024-11-10T15:24:33Z</time>
      </trkpt>
      <trkpt lat="45.90135" lon="1.23134">
        <ele>383.2</ele>
        <time>2024-11-10T15:24:34Z</time>
      </trkpt>
      <trkpt lat="45.90135" lon="1.23128">
        <ele>383.4</ele>
        <time>2024-11-10T15:24:35Z</time>
      </trkpt>
      <trkpt lat="45.90135" lon="1.23121">
        <ele>383.7</ele>
        <time>2024-11-10T15:24:36Z</time>
      </trkpt>
      <trkpt lat="45.90135" lon="1.23115">
        <ele>384</ele>
        <time>2024-11-10T15:24:37Z</time>
      </trkpt>
      <trkpt lat="45.90136" lon="1.23108">
        <ele>384.3</ele>
        <time>2024-11-10T15:24:38Z</time>
      </trkpt>
      <trkpt lat="45.90137" lon="1.23102">
        <ele>384.5</ele>
        <time>2024-11-10T15:24:39Z</time>
      </trkpt>
      <trkpt lat="45.90138" lon="1.23095">
        <ele>384.8</ele>
        <time>2024-11-10T15:24:40Z</time>
      </trkpt>
      <trkpt lat="45.90139" lon="1.23089">
        <ele>385.1</ele>
        <time>2024-11-10T15:24:41Z</time>
      </trkpt>
      <trkpt lat="45.90141" lon="1.23083">
        <ele>385.3</ele>
        <time>2024-11-10T15:24:42Z</time>
      </trkpt>
      <trkpt lat="45.90142" lon="1.23076">
        <ele>385.6</ele>
        <time>2024-11-10T15:24:43Z</time>
      </trkpt>
      <trkpt lat="45.90142" lon="1.2307">
        <ele>385.8</ele>
        <time>2024-11-10T15:24:44Z</time>
      </trkpt>
      <trkpt lat="45.90143" lon="1.23063">
        <ele>386.1</ele>
        <time>2024-11-10T15:24:45Z</time>
      </trkpt>
      <trkpt lat="45.90143" lon="1.23055">
        <ele>386.3</ele>
        <time>2024-11-10T15:24:46Z</time>
      </trkpt>
      <trkpt lat="45.90142" lon="1.23048">
        <ele>386.6</ele>
        <time>2024-11-10T15:24:47Z</time>
      </trkpt>
      <trkpt lat="45.90142" lon="1.23041">
        <ele>386.8</ele>
        <time>2024-11-10T15:24:48Z</time>
      </trkpt>
      <trkpt lat="45.9014" lon="1.23034">
        <ele>387</ele>
        <time>2024-11-10T15:24:49Z</time>
      </trkpt>
      <trkpt lat="45.90138" lon="1.23027">
        <ele>387.3</ele>
        <time>2024-11-10T15:24:50Z</time>
      </trkpt>
      <trkpt lat="45.90136" lon="1.2302">
        <ele>387.5</ele>
        <time>2024-11-10T15:24:51Z</time>
      </trkpt>
      <trkpt lat="45.90134" lon="1.23013">
        <ele>387.8</ele>
        <time>2024-11-10T15:24:52Z</time>
      </trkpt>
      <trkpt lat="45.90131" lon="1.23006">
        <ele>388</ele>
        <time>2024-11-10T15:24:53Z</time>
      </trkpt>
      <trkpt lat="45.90129" lon="1.22999">
        <ele>388.3</ele>
        <time>2024-11-10T15:24:54Z</time>
      </trkpt>
      <trkpt lat="45.90126" lon="1.22993">
        <ele>388.5</ele>
        <time>2024-11-10T15:24:55Z</time>
      </trkpt>
      <trkpt lat="45.90124" lon="1.22986">
        <ele>388.7</ele>
        <time>2024-11-10T15:24:56Z</time>
      </trkpt>
      <trkpt lat="45.90122" lon="1.22979">
        <ele>388.9</ele>
        <time>2024-11-10T15:24:57Z</time>
      </trkpt>
      <trkpt lat="45.90119" lon="1.22973">
        <ele>389.1</ele>
        <time>2024-11-10T15:24:58Z</time>
      </trkpt>
      <trkpt lat="45.90117" lon="1.22967">
        <ele>389.3</ele>
        <time>2024-11-10T15:24:59Z</time>
      </trkpt>
      <trkpt lat="45.90115" lon="1.22961">
        <ele>389.5</ele>
        <time>2024-11-10T15:25:00Z</time>
      </trkpt>
      <trkpt lat="45.90113" lon="1.22955">
        <ele>389.7</ele>
        <time>2024-11-10T15:25:01Z</time>
      </trkpt>
      <trkpt lat="45.90112" lon="1.22948">
        <ele>389.9</ele>
        <time>2024-11-10T15:25:02Z</time>
      </trkpt>
      <trkpt lat="45.90111" lon="1.22942">
        <ele>390</ele>
        <time>2024-11-10T15:25:03Z</time>
      </trkpt>
      <trkpt lat="45.90109" lon="1.22935">
        <ele>390.2</ele>
        <time>2024-11-10T15:25:04Z</time>
      </trkpt>
      <trkpt lat="45.90108" lon="1.22928">
        <ele>390.4</ele>
        <time>2024-11-10T15:25:05Z</time>
      </trkpt>
      <trkpt lat="45.90107" lon="1.22922">
        <ele>390.6</ele>
        <time>2024-11-10T15:25:06Z</time>
      </trkpt>
      <trkpt lat="45.90105" lon="1.22916">
        <ele>390.8</ele>
        <time>2024-11-10T15:25:07Z</time>
      </trkpt>
      <trkpt lat="45.90104" lon="1.22911">
        <ele>390.9</ele>
        <time>2024-11-10T15:25:08Z</time>
      </trkpt>
      <trkpt lat="45.90103" lon="1.22905">
        <ele>391.1</ele>
        <time>2024-11-10T15:25:09Z</time>
      </trkpt>
      <trkpt lat="45.90101" lon="1.22899">
        <ele>391.3</ele>
        <time>2024-11-10T15:25:10Z</time>
      </trkpt>
      <trkpt lat="45.90099" lon="1.22894">
        <ele>391.5</ele>
        <time>2024-11-10T15:25:11Z</time>
      </trkpt>
      <trkpt lat="45.90098" lon="1.22889">
        <ele>391.6</ele>
        <time>2024-11-10T15:25:12Z</time>
      </trkpt>
      <trkpt lat="45.90096" lon="1.22885">
        <ele>391.8</ele>
        <time>2024-11-10T15:25:13Z</time>
      </trkpt>
      <trkpt lat="45.90095" lon="1.2288">
        <ele>391.9</ele>
        <time>2024-11-10T15:25:14Z</time>
      </trkpt>
      <trkpt lat="45.90094" lon="1.22875">
        <ele>392.1</ele>
        <time>2024-11-10T15:25:15Z</time>
      </trkpt>
      <trkpt lat="45.90094" lon="1.2287">
        <ele>392.2</ele>
        <time>2024-11-10T15:25:16Z</time>
      </trkpt>
      <trkpt lat="45.90093" lon="1.22865">
        <ele>392.4</ele>
        <time>2024-11-10T15:25:17Z</time>
      </trkpt>
      <trkpt lat="45.90092" lon="1.2286">
        <ele>392.6</ele>
        <time>2024-11-10T15:25:18Z</time>
      </trkpt>
      <trkpt lat="45.90091" lon="1.22855">
        <ele>392.7</ele>
        <time>2024-11-10T15:25:19Z</time>
      </trkpt>
      <trkpt lat="45.90091" lon="1.2285">
        <ele>392.8</ele>
        <time>2024-11-10T15:25:20Z</time>
      </trkpt>
      <trkpt lat="45.9009" lon="1.22845">
        <ele>393</ele>
        <time>2024-11-10T15:25:21Z</time>
      </trkpt>
      <trkpt lat="45.90089" lon="1.22839">
        <ele>393.1</ele>
        <time>2024-11-10T15:25:22Z</time>
      </trkpt>
      <trkpt lat="45.90088" lon="1.22834">
        <ele>393.3</ele>
        <time>2024-11-10T15:25:23Z</time>
      </trkpt>
      <trkpt lat="45.90088" lon="1.22829">
        <ele>393.4</ele>
        <time>2024-11-10T15:25:24Z</time>
      </trkpt>
      <trkpt lat="45.90087" lon="1.22824">
        <ele>393.5</ele>
        <time>2024-11-10T15:25:25Z</time>
      </trkpt>
      <trkpt lat="45.90086" lon="1.22819">
        <ele>393.7</ele>
        <time>2024-11-10T15:25:26Z</time>
      </trkpt>
      <trkpt lat="45.90085" lon="1.22814">
        <ele>393.8</ele>
        <time>2024-11-10T15:25:27Z</time>
      </trkpt>
      <trkpt lat="45.90084" lon="1.22809">
        <ele>393.9</ele>
        <time>2024-11-10T15:25:28Z</time>
      </trkpt>
      <trkpt lat="45.90082" lon="1.22804">
        <ele>394</ele>
        <time>2024-11-10T15:25:29Z</time>
      </trkpt>
      <trkpt lat="45.9008" lon="1.22798">
        <ele>394.2</ele>
        <time>2024-11-10T15:25:30Z</time>
      </trkpt>
      <trkpt lat="45.90078" lon="1.22793">
        <ele>394.3</ele>
        <time>2024-11-10T15:25:31Z</time>
      </trkpt>
      <trkpt lat="45.90076" lon="1.22788">
        <ele>394.4</ele>
        <time>2024-11-10T15:25:32Z</time>
      </trkpt>
      <trkpt lat="45.90073" lon="1.22783">
        <ele>394.5</ele>
        <time>2024-11-10T15:25:33Z</time>
      </trkpt>
      <trkpt lat="45.90071" lon="1.22779">
        <ele>394.6</ele>
        <time>2024-11-10T15:25:34Z</time>
      </trkpt>
      <trkpt lat="45.90068" lon="1.22775">
        <ele>394.7</ele>
        <time>2024-11-10T15:25:35Z</time>
      </trkpt>
      <trkpt lat="45.90065" lon="1.22772">
        <ele>394.8</ele>
        <time>2024-11-10T15:25:36Z</time>
      </trkpt>
      <trkpt lat="45.90061" lon="1.22769">
        <ele>394.9</ele>
        <time>2024-11-10T15:25:37Z</time>
      </trkpt>
      <trkpt lat="45.90058" lon="1.22766">
        <ele>395</ele>
        <time>2024-11-10T15:25:38Z</time>
      </trkpt>
      <trkpt lat="45.90054" lon="1.22763">
        <ele>395</ele>
        <time>2024-11-10T15:25:39Z</time>
      </trkpt>
      <trkpt lat="45.9005" lon="1.2276">
        <ele>395.1</ele>
        <time>2024-11-10T15:25:40Z</time>
      </trkpt>
      <trkpt lat="45.90047" lon="1.22756">
        <ele>395.1</ele>
        <time>2024-11-10T15:25:41Z</time>
      </trkpt>
      <trkpt lat="45.90044" lon="1.22753">
        <ele>395.2</ele>
        <time>2024-11-10T15:25:42Z</time>
      </trkpt>
      <trkpt lat="45.90041" lon="1.22749">
        <ele>395.2</ele>
        <time>2024-11-10T15:25:43Z</time>
      </trkpt>
      <trkpt lat="45.90038" lon="1.22744">
        <ele>395.3</ele>
        <time>2024-11-10T15:25:44Z</time>
      </trkpt>
      <trkpt lat="45.90036" lon="1.22739">
        <ele>395.3</ele>
        <time>2024-11-10T15:25:45Z</time>
      </trkpt>
      <trkpt lat="45.90035" lon="1.22733">
        <ele>395.4</ele>
        <time>2024-11-10T15:25:46Z</time>
      </trkpt>
      <trkpt lat="45.90035" lon="1.22728">
        <ele>395.4</ele>
        <time>2024-11-10T15:25:47Z</time>
      </trkpt>
      <trkpt lat="45.90036" lon="1.22723">
        <ele>395.5</ele>
        <time>2024-11-10T15:25:48Z</time>
      </trkpt>
      <trkpt lat="45.90037" lon="1.22719">
        <ele>395.5</ele>
        <time>2024-11-10T15:25:49Z</time>
      </trkpt>
      <trkpt lat="45.90038" lon="1.22715">
        <ele>395.5</ele>
        <time>2024-11-10T15:25:50Z</time>
      </trkpt>
      <trkpt lat="45.90041" lon="1.22712">
        <ele>395.5</ele>
        <time>2024-11-10T15:25:51Z</time>
      </trkpt>
      <trkpt lat="45.90043" lon="1.22709">
        <ele>395.6</ele>
        <time>2024-11-10T15:25:52Z</time>
      </trkpt>
      <trkpt lat="45.90046" lon="1.22706">
        <ele>395.6</ele>
        <time>2024-11-10T15:25:54Z</time>
      </trkpt>
      <trkpt lat="45.9005" lon="1.22701">
        <ele>395.7</ele>
        <time>2024-11-10T15:25:56Z</time>
      </trkpt>
      <trkpt lat="45.90052" lon="1.22697">
        <ele>395.8</ele>
        <time>2024-11-10T15:25:57Z</time>
      </trkpt>
      <trkpt lat="45.90054" lon="1.22693">
        <ele>395.8</ele>
        <time>2024-11-10T15:25:58Z</time>
      </trkpt>
      <trkpt lat="45.90057" lon="1.22688">
        <ele>395.9</ele>
        <time>2024-11-10T15:26:00Z</time>
      </trkpt>
      <trkpt lat="45.90059" lon="1.22682">
        <ele>396</ele>
        <time>2024-11-10T15:26:02Z</time>
      </trkpt>
      <trkpt lat="45.9006" lon="1.22677">
        <ele>396.1</ele>
        <time>2024-11-10T15:26:03Z</time>
      </trkpt>
      <trkpt lat="45.90061" lon="1.22672">
        <ele>396.1</ele>
        <time>2024-11-10T15:26:04Z</time>
      </trkpt>
      <trkpt lat="45.90062" lon="1.22668">
        <ele>396.2</ele>
        <time>2024-11-10T15:26:05Z</time>
      </trkpt>
      <trkpt lat="45.90063" lon="1.22663">
        <ele>396.2</ele>
        <time>2024-11-10T15:26:06Z</time>
      </trkpt>
      <trkpt lat="45.90064" lon="1.22658">
        <ele>396.2</ele>
        <time>2024-11-10T15:26:07Z</time>
      </trkpt>
      <trkpt lat="45.90066" lon="1.22653">
        <ele>396.2</ele>
        <time>2024-11-10T15:26:08Z</time>
      </trkpt>
      <trkpt lat="45.90069" lon="1.22648">
        <ele>396.2</ele>
        <time>2024-11-10T15:26:09Z</time>
      </trkpt>
      <trkpt lat="45.90072" lon="1.22644">
        <ele>396.3</ele>
        <time>2024-11-10T15:26:10Z</time>
      </trkpt>
      <trkpt lat="45.90075" lon="1.2264">
        <ele>396.3</ele>
        <time>2024-11-10T15:26:11Z</time>
      </trkpt>
      <trkpt lat="45.90078" lon="1.22636">
        <ele>396.4</ele>
        <time>2024-11-10T15:26:12Z</time>
      </trkpt>
      <trkpt lat="45.90082" lon="1.22633">
        <ele>396.4</ele>
        <time>2024-11-10T15:26:13Z</time>
      </trkpt>
      <trkpt lat="45.90085" lon="1.2263">
        <ele>396.5</ele>
        <time>2024-11-10T15:26:14Z</time>
      </trkpt>
      <trkpt lat="45.90089" lon="1.22628">
        <ele>396.5</ele>
        <time>2024-11-10T15:26:15Z</time>
      </trkpt>
      <trkpt lat="45.90092" lon="1.22625">
        <ele>396.6</ele>
        <time>2024-11-10T15:26:16Z</time>
      </trkpt>
      <trkpt lat="45.90096" lon="1.22623">
        <ele>396.6</ele>
        <time>2024-11-10T15:26:17Z</time>
      </trkpt>
      <trkpt lat="45.90099" lon="1.2262">
        <ele>396.6</ele>
        <time>2024-11-10T15:26:18Z</time>
      </trkpt>
      <trkpt lat="45.90103" lon="1.22617">
        <ele>396.6</ele>
        <time>2024-11-10T15:26:19Z</time>
      </trkpt>
      <trkpt lat="45.90106" lon="1.22614">
        <ele>396.7</ele>
        <time>2024-11-10T15:26:20Z</time>
      </trkpt>
      <trkpt lat="45.9011" lon="1.22611">
        <ele>396.7</ele>
        <time>2024-11-10T15:26:21Z</time>
      </trkpt>
      <trkpt lat="45.90113" lon="1.22608">
        <ele>396.7</ele>
        <time>2024-11-10T15:26:22Z</time>
      </trkpt>
      <trkpt lat="45.90117" lon="1.22606">
        <ele>396.8</ele>
        <time>2024-11-10T15:26:23Z</time>
      </trkpt>
      <trkpt lat="45.90121" lon="1.22603">
        <ele>396.8</ele>
        <time>2024-11-10T15:26:24Z</time>
      </trkpt>
      <trkpt lat="45.90124" lon="1.226">
        <ele>396.8</ele>
        <time>2024-11-10T15:26:25Z</time>
      </trkpt>
      <trkpt lat="45.90128" lon="1.22598">
        <ele>396.8</ele>
        <time>2024-11-10T15:26:26Z</time>
      </trkpt>
      <trkpt lat="45.90133" lon="1.22597">
        <ele>396.9</ele>
        <time>2024-11-10T15:26:27Z</time>
      </trkpt>
      <trkpt lat="45.90137" lon="1.22596">
        <ele>396.9</ele>
        <time>2024-11-10T15:26:28Z</time>
      </trkpt>
      <trkpt lat="45.90141" lon="1.22595">
        <ele>396.9</ele>
        <time>2024-11-10T15:26:29Z</time>
      </trkpt>
      <trkpt lat="45.90146" lon="1.22596">
        <ele>397</ele>
        <time>2024-11-10T15:26:30Z</time>
      </trkpt>
      <trkpt lat="45.9015" lon="1.22599">
        <ele>397</ele>
        <time>2024-11-10T15:26:31Z</time>
      </trkpt>
      <trkpt lat="45.90154" lon="1.22602">
        <ele>397</ele>
        <time>2024-11-10T15:26:32Z</time>
      </trkpt>
      <trkpt lat="45.90158" lon="1.22604">
        <ele>397</ele>
        <time>2024-11-10T15:26:33Z</time>
      </trkpt>
      <trkpt lat="45.90162" lon="1.22606">
        <ele>397</ele>
        <time>2024-11-10T15:26:34Z</time>
      </trkpt>
      <trkpt lat="45.90167" lon="1.22608">
        <ele>397.1</ele>
        <time>2024-11-10T15:26:35Z</time>
      </trkpt>
      <trkpt lat="45.90171" lon="1.22608">
        <ele>397.1</ele>
        <time>2024-11-10T15:26:36Z</time>
      </trkpt>
      <trkpt lat="45.90175" lon="1.2261">
        <ele>397.1</ele>
        <time>2024-11-10T15:26:37Z</time>
      </trkpt>
      <trkpt lat="45.9018" lon="1.22609">
        <ele>397.1</ele>
        <time>2024-11-10T15:26:38Z</time>
      </trkpt>
      <trkpt lat="45.90184" lon="1.22607">
        <ele>397.2</ele>
        <time>2024-11-10T15:26:39Z</time>
      </trkpt>
      <trkpt lat="45.90188" lon="1.22604">
        <ele>397.2</ele>
        <time>2024-11-10T15:26:40Z</time>
      </trkpt>
      <trkpt lat="45.90191" lon="1.22601">
        <ele>397.2</ele>
        <time>2024-11-10T15:26:41Z</time>
      </trkpt>
      <trkpt lat="45.90194" lon="1.22598">
        <ele>397.2</ele>
        <time>2024-11-10T15:26:42Z</time>
      </trkpt>
      <trkpt lat="45.90197" lon="1.22594">
        <ele>397.2</ele>
        <time>2024-11-10T15:26:43Z</time>
      </trkpt>
      <trkpt lat="45.90199" lon="1.2259">
        <ele>397.3</ele>
        <time>2024-11-10T15:26:44Z</time>
      </trkpt>
      <trkpt lat="45.902" lon="1.22585">
        <ele>397.3</ele>
        <time>2024-11-10T15:26:45Z</time>
      </trkpt>
      <trkpt lat="45.90201" lon="1.22579">
        <ele>397.3</ele>
        <time>2024-11-10T15:26:46Z</time>
      </trkpt>
      <trkpt lat="45.90202" lon="1.22573">
        <ele>397.3</ele>
        <time>2024-11-10T15:26:47Z</time>
      </trkpt>
      <trkpt lat="45.90202" lon="1.22567">
        <ele>397.3</ele>
        <time>2024-11-10T15:26:48Z</time>
      </trkpt>
      <trkpt lat="45.90203" lon="1.22561">
        <ele>397.3</ele>
        <time>2024-11-10T15:26:49Z</time>
      </trkpt>
      <trkpt lat="45.90202" lon="1.22555">
        <ele>397.3</ele>
        <time>2024-11-10T15:26:50Z</time>
      </trkpt>
      <trkpt lat="45.90201" lon="1.22549">
        <ele>397.3</ele>
        <time>2024-11-10T15:26:51Z</time>
      </trkpt>
      <trkpt lat="45.902" lon="1.22543">
        <ele>397.2</ele>
        <time>2024-11-10T15:26:52Z</time>
      </trkpt>
      <trkpt lat="45.90198" lon="1.22537">
        <ele>397.2</ele>
        <time>2024-11-10T15:26:53Z</time>
      </trkpt>
      <trkpt lat="45.90195" lon="1.22532">
        <ele>397.2</ele>
        <time>2024-11-10T15:26:54Z</time>
      </trkpt>
      <trkpt lat="45.90192" lon="1.22527">
        <ele>397.2</ele>
        <time>2024-11-10T15:26:55Z</time>
      </trkpt>
      <trkpt lat="45.90189" lon="1.22523">
        <ele>397.2</ele>
        <time>2024-11-10T15:26:56Z</time>
      </trkpt>
      <trkpt lat="45.90185" lon="1.22519">
        <ele>397.2</ele>
        <time>2024-11-10T15:26:57Z</time>
      </trkpt>
      <trkpt lat="45.90183" lon="1.22514">
        <ele>397.2</ele>
        <time>2024-11-10T15:26:58Z</time>
      </trkpt>
      <trkpt lat="45.90181" lon="1.22509">
        <ele>397.3</ele>
        <time>2024-11-10T15:26:59Z</time>
      </trkpt>
      <trkpt lat="45.90181" lon="1.22503">
        <ele>397.4</ele>
        <time>2024-11-10T15:27:00Z</time>
      </trkpt>
      <trkpt lat="45.90183" lon="1.22497">
        <ele>397.4</ele>
        <time>2024-11-10T15:27:01Z</time>
      </trkpt>
      <trkpt lat="45.90185" lon="1.22493">
        <ele>397.4</ele>
        <time>2024-11-10T15:27:02Z</time>
      </trkpt>
      <trkpt lat="45.90187" lon="1.2249">
        <ele>397.5</ele>
        <time>2024-11-10T15:27:03Z</time>
      </trkpt>
      <trkpt lat="45.9019" lon="1.22487">
        <ele>397.5</ele>
        <time>2024-11-10T15:27:04Z</time>
      </trkpt>
      <trkpt lat="45.90192" lon="1.22484">
        <ele>397.6</ele>
        <time>2024-11-10T15:27:05Z</time>
      </trkpt>
      <trkpt lat="45.90195" lon="1.22481">
        <ele>397.6</ele>
        <time>2024-11-10T15:27:06Z</time>
      </trkpt>
      <trkpt lat="45.90198" lon="1.22479">
        <ele>397.7</ele>
        <time>2024-11-10T15:27:07Z</time>
      </trkpt>
      <trkpt lat="45.90201" lon="1.22476">
        <ele>397.8</ele>
        <time>2024-11-10T15:27:08Z</time>
      </trkpt>
      <trkpt lat="45.90204" lon="1.22474">
        <ele>397.9</ele>
        <time>2024-11-10T15:27:09Z</time>
      </trkpt>
      <trkpt lat="45.90206" lon="1.22472">
        <ele>397.9</ele>
        <time>2024-11-10T15:27:10Z</time>
      </trkpt>
      <trkpt lat="45.90209" lon="1.22469">
        <ele>398.1</ele>
        <time>2024-11-10T15:27:11Z</time>
      </trkpt>
      <trkpt lat="45.90211" lon="1.22467">
        <ele>398.2</ele>
        <time>2024-11-10T15:27:12Z</time>
      </trkpt>
      <trkpt lat="45.90214" lon="1.22464">
        <ele>398.3</ele>
        <time>2024-11-10T15:27:13Z</time>
      </trkpt>
      <trkpt lat="45.90217" lon="1.22462">
        <ele>398.4</ele>
        <time>2024-11-10T15:27:14Z</time>
      </trkpt>
      <trkpt lat="45.9022" lon="1.22459">
        <ele>398.6</ele>
        <time>2024-11-10T15:27:15Z</time>
      </trkpt>
      <trkpt lat="45.90223" lon="1.22457">
        <ele>398.7</ele>
        <time>2024-11-10T15:27:16Z</time>
      </trkpt>
      <trkpt lat="45.90226" lon="1.22455">
        <ele>398.9</ele>
        <time>2024-11-10T15:27:17Z</time>
      </trkpt>
      <trkpt lat="45.90229" lon="1.22453">
        <ele>399</ele>
        <time>2024-11-10T15:27:18Z</time>
      </trkpt>
      <trkpt lat="45.90232" lon="1.22451">
        <ele>399.2</ele>
        <time>2024-11-10T15:27:19Z</time>
      </trkpt>
      <trkpt lat="45.90235" lon="1.22452">
        <ele>399.4</ele>
        <time>2024-11-10T15:27:20Z</time>
      </trkpt>
      <trkpt lat="45.90239" lon="1.22452">
        <ele>399.6</ele>
        <time>2024-11-10T15:27:21Z</time>
      </trkpt>
      <trkpt lat="45.90242" lon="1.22451">
        <ele>399.7</ele>
        <time>2024-11-10T15:27:22Z</time>
      </trkpt>
      <trkpt lat="45.90244" lon="1.22449">
        <ele>399.9</ele>
        <time>2024-11-10T15:27:23Z</time>
      </trkpt>
      <trkpt lat="45.90246" lon="1.22446">
        <ele>400.1</ele>
        <time>2024-11-10T15:27:24Z</time>
      </trkpt>
      <trkpt lat="45.90246" lon="1.22442">
        <ele>400.2</ele>
        <time>2024-11-10T15:27:25Z</time>
      </trkpt>
      <trkpt lat="45.90246" lon="1.22438">
        <ele>400.4</ele>
        <time>2024-11-10T15:27:26Z</time>
      </trkpt>
      <trkpt lat="45.90246" lon="1.22433">
        <ele>400.6</ele>
        <time>2024-11-10T15:27:27Z</time>
      </trkpt>
      <trkpt lat="45.90247" lon="1.22429">
        <ele>400.7</ele>
        <time>2024-11-10T15:27:28Z</time>
      </trkpt>
      <trkpt lat="45.90249" lon="1.22425">
        <ele>400.9</ele>
        <time>2024-11-10T15:27:29Z</time>
      </trkpt>
      <trkpt lat="45.9025" lon="1.22421">
        <ele>401.1</ele>
        <time>2024-11-10T15:27:30Z</time>
      </trkpt>
      <trkpt lat="45.90251" lon="1.22416">
        <ele>401.3</ele>
        <time>2024-11-10T15:27:31Z</time>
      </trkpt>
      <trkpt lat="45.90252" lon="1.22412">
        <ele>401.4</ele>
        <time>2024-11-10T15:27:32Z</time>
      </trkpt>
      <trkpt lat="45.90252" lon="1.22408">
        <ele>401.5</ele>
        <time>2024-11-10T15:27:33Z</time>
      </trkpt>
      <trkpt lat="45.90252" lon="1.22404">
        <ele>401.7</ele>
        <time>2024-11-10T15:27:34Z</time>
      </trkpt>
      <trkpt lat="45.90253" lon="1.22399">
        <ele>401.9</ele>
        <time>2024-11-10T15:27:35Z</time>
      </trkpt>
      <trkpt lat="45.90252" lon="1.22395">
        <ele>402</ele>
        <time>2024-11-10T15:27:36Z</time>
      </trkpt>
      <trkpt lat="45.90252" lon="1.22391">
        <ele>402.2</ele>
        <time>2024-11-10T15:27:37Z</time>
      </trkpt>
      <trkpt lat="45.90251" lon="1.22387">
        <ele>402.3</ele>
        <time>2024-11-10T15:27:38Z</time>
      </trkpt>
      <trkpt lat="45.9025" lon="1.22383">
        <ele>402.4</ele>
        <time>2024-11-10T15:27:39Z</time>
      </trkpt>
      <trkpt lat="45.90249" lon="1.22379">
        <ele>402.6</ele>
        <time>2024-11-10T15:27:40Z</time>
      </trkpt>
      <trkpt lat="45.90248" lon="1.22375">
        <ele>402.7</ele>
        <time>2024-11-10T15:27:41Z</time>
      </trkpt>
      <trkpt lat="45.90247" lon="1.22371">
        <ele>402.8</ele>
        <time>2024-11-10T15:27:42Z</time>
      </trkpt>
      <trkpt lat="45.90246" lon="1.22367">
        <ele>402.9</ele>
        <time>2024-11-10T15:27:43Z</time>
      </trkpt>
      <trkpt lat="45.90245" lon="1.22362">
        <ele>403.1</ele>
        <time>2024-11-10T15:27:44Z</time>
      </trkpt>
      <trkpt lat="45.90244" lon="1.22358">
        <ele>403.2</ele>
        <time>2024-11-10T15:27:45Z</time>
      </trkpt>
      <trkpt lat="45.90243" lon="1.22354">
        <ele>403.3</ele>
        <time>2024-11-10T15:27:46Z</time>
      </trkpt>
      <trkpt lat="45.90241" lon="1.2235">
        <ele>403.3</ele>
        <time>2024-11-10T15:27:47Z</time>
      </trkpt>
      <trkpt lat="45.9024" lon="1.22347">
        <ele>403.4</ele>
        <time>2024-11-10T15:27:48Z</time>
      </trkpt>
      <trkpt lat="45.90239" lon="1.22341">
        <ele>403.6</ele>
        <time>2024-11-10T15:27:50Z</time>
      </trkpt>
      <trkpt lat="45.90238" lon="1.22336">
        <ele>403.8</ele>
        <time>2024-11-10T15:27:51Z</time>
      </trkpt>
      <trkpt lat="45.90237" lon="1.22331">
        <ele>404</ele>
        <time>2024-11-10T15:27:52Z</time>
      </trkpt>
      <trkpt lat="45.90236" lon="1.22327">
        <ele>404.1</ele>
        <time>2024-11-10T15:27:53Z</time>
      </trkpt>
      <trkpt lat="45.90235" lon="1.22323">
        <ele>404.2</ele>
        <time>2024-11-10T15:27:54Z</time>
      </trkpt>
      <trkpt lat="45.90234" lon="1.22319">
        <ele>404.4</ele>
        <time>2024-11-10T15:27:55Z</time>
      </trkpt>
      <trkpt lat="45.90233" lon="1.22315">
        <ele>404.5</ele>
        <time>2024-11-10T15:27:56Z</time>
      </trkpt>
      <trkpt lat="45.90232" lon="1.2231">
        <ele>404.6</ele>
        <time>2024-11-10T15:27:57Z</time>
      </trkpt>
      <trkpt lat="45.90231" lon="1.22306">
        <ele>404.7</ele>
        <time>2024-11-10T15:27:58Z</time>
      </trkpt>
      <trkpt lat="45.9023" lon="1.22302">
        <ele>404.8</ele>
        <time>2024-11-10T15:27:59Z</time>
      </trkpt>
      <trkpt lat="45.90229" lon="1.22298">
        <ele>404.9</ele>
        <time>2024-11-10T15:28:00Z</time>
      </trkpt>
      <trkpt lat="45.90228" lon="1.22293">
        <ele>405</ele>
        <time>2024-11-10T15:28:01Z</time>
      </trkpt>
      <trkpt lat="45.90227" lon="1.22289">
        <ele>405</ele>
        <time>2024-11-10T15:28:02Z</time>
      </trkpt>
      <trkpt lat="45.90226" lon="1.22285">
        <ele>405.1</ele>
        <time>2024-11-10T15:28:03Z</time>
      </trkpt>
      <trkpt lat="45.90225" lon="1.2228">
        <ele>405.1</ele>
        <time>2024-11-10T15:28:04Z</time>
      </trkpt>
      <trkpt lat="45.90223" lon="1.22276">
        <ele>405.2</ele>
        <time>2024-11-10T15:28:05Z</time>
      </trkpt>
      <trkpt lat="45.90222" lon="1.22272">
        <ele>405.2</ele>
        <time>2024-11-10T15:28:06Z</time>
      </trkpt>
      <trkpt lat="45.90222" lon="1.22268">
        <ele>405.3</ele>
        <time>2024-11-10T15:28:07Z</time>
      </trkpt>
      <trkpt lat="45.90221" lon="1.22264">
        <ele>405.3</ele>
        <time>2024-11-10T15:28:08Z</time>
      </trkpt>
      <trkpt lat="45.90219" lon="1.22258">
        <ele>405.3</ele>
        <time>2024-11-10T15:28:10Z</time>
      </trkpt>
      <trkpt lat="45.90218" lon="1.22252">
        <ele>405.2</ele>
        <time>2024-11-10T15:28:12Z</time>
      </trkpt>
      <trkpt lat="45.90216" lon="1.22245">
        <ele>405.2</ele>
        <time>2024-11-10T15:28:14Z</time>
      </trkpt>
      <trkpt lat="45.90215" lon="1.22239">
        <ele>405.2</ele>
        <time>2024-11-10T15:28:16Z</time>
      </trkpt>
      <trkpt lat="45.90214" lon="1.22232">
        <ele>405.2</ele>
        <time>2024-11-10T15:28:18Z</time>
      </trkpt>
      <trkpt lat="45.90213" lon="1.22226">
        <ele>405.1</ele>
        <time>2024-11-10T15:28:20Z</time>
      </trkpt>
      <trkpt lat="45.90211" lon="1.22219">
        <ele>405.1</ele>
        <time>2024-11-10T15:28:22Z</time>
      </trkpt>
      <trkpt lat="45.90209" lon="1.22213">
        <ele>405</ele>
        <time>2024-11-10T15:28:24Z</time>
      </trkpt>
      <trkpt lat="45.90208" lon="1.22207">
        <ele>405</ele>
        <time>2024-11-10T15:28:26Z</time>
      </trkpt>
      <trkpt lat="45.90207" lon="1.22201">
        <ele>404.9</ele>
        <time>2024-11-10T15:28:28Z</time>
      </trkpt>
      <trkpt lat="45.90205" lon="1.22194">
        <ele>404.8</ele>
        <time>2024-11-10T15:28:30Z</time>
      </trkpt>
      <trkpt lat="45.90203" lon="1.22188">
        <ele>404.7</ele>
        <time>2024-11-10T15:28:32Z</time>
      </trkpt>
      <trkpt lat="45.90202" lon="1.22181">
        <ele>404.6</ele>
        <time>2024-11-10T15:28:34Z</time>
      </trkpt>
      <trkpt lat="45.90201" lon="1.22175">
        <ele>404.4</ele>
        <time>2024-11-10T15:28:36Z</time>
      </trkpt>
      <trkpt lat="45.90199" lon="1.22168">
        <ele>404.3</ele>
        <time>2024-11-10T15:28:38Z</time>
      </trkpt>
      <trkpt lat="45.90198" lon="1.22161">
        <ele>404.1</ele>
        <time>2024-11-10T15:28:40Z</time>
      </trkpt>
      <trkpt lat="45.90197" lon="1.22156">
        <ele>404</ele>
        <time>2024-11-10T15:28:41Z</time>
      </trkpt>
      <trkpt lat="45.90197" lon="1.22152">
        <ele>403.9</ele>
        <time>2024-11-10T15:28:42Z</time>
      </trkpt>
      <trkpt lat="45.90196" lon="1.22148">
        <ele>403.8</ele>
        <time>2024-11-10T15:28:43Z</time>
      </trkpt>
      <trkpt lat="45.90195" lon="1.22144">
        <ele>403.7</ele>
        <time>2024-11-10T15:28:44Z</time>
      </trkpt>
      <trkpt lat="45.90194" lon="1.2214">
        <ele>403.6</ele>
        <time>2024-11-10T15:28:45Z</time>
      </trkpt>
      <trkpt lat="45.90192" lon="1.22136">
        <ele>403.4</ele>
        <time>2024-11-10T15:28:46Z</time>
      </trkpt>
      <trkpt lat="45.90191" lon="1.22132">
        <ele>403.3</ele>
        <time>2024-11-10T15:28:47Z</time>
      </trkpt>
      <trkpt lat="45.9019" lon="1.22128">
        <ele>403.2</ele>
        <time>2024-11-10T15:28:48Z</time>
      </trkpt>
      <trkpt lat="45.90189" lon="1.22123">
        <ele>403</ele>
        <time>2024-11-10T15:28:49Z</time>
      </trkpt>
      <trkpt lat="45.90188" lon="1.22118">
        <ele>402.9</ele>
        <time>2024-11-10T15:28:50Z</time>
      </trkpt>
      <trkpt lat="45.90187" lon="1.22113">
        <ele>402.7</ele>
        <time>2024-11-10T15:28:51Z</time>
      </trkpt>
      <trkpt lat="45.90186" lon="1.22108">
        <ele>402.6</ele>
        <time>2024-11-10T15:28:52Z</time>
      </trkpt>
      <trkpt lat="45.90185" lon="1.22103">
        <ele>402.4</ele>
        <time>2024-11-10T15:28:53Z</time>
      </trkpt>
      <trkpt lat="45.90183" lon="1.22098">
        <ele>402.3</ele>
        <time>2024-11-10T15:28:54Z</time>
      </trkpt>
      <trkpt lat="45.90182" lon="1.22092">
        <ele>402.1</ele>
        <time>2024-11-10T15:28:55Z</time>
      </trkpt>
      <trkpt lat="45.9018" lon="1.22086">
        <ele>401.8</ele>
        <time>2024-11-10T15:28:56Z</time>
      </trkpt>
      <trkpt lat="45.90179" lon="1.2208">
        <ele>401.6</ele>
        <time>2024-11-10T15:28:57Z</time>
      </trkpt>
      <trkpt lat="45.9018" lon="1.22073">
        <ele>401.5</ele>
        <time>2024-11-10T15:28:58Z</time>
      </trkpt>
      <trkpt lat="45.9018" lon="1.22066">
        <ele>401.3</ele>
        <time>2024-11-10T15:28:59Z</time>
      </trkpt>
      <trkpt lat="45.90179" lon="1.22059">
        <ele>401.2</ele>
        <time>2024-11-10T15:29:00Z</time>
      </trkpt>
      <trkpt lat="45.90178" lon="1.22052">
        <ele>401</ele>
        <time>2024-11-10T15:29:01Z</time>
      </trkpt>
      <trkpt lat="45.90175" lon="1.22046">
        <ele>400.8</ele>
        <time>2024-11-10T15:29:02Z</time>
      </trkpt>
      <trkpt lat="45.90172" lon="1.22041">
        <ele>400.6</ele>
        <time>2024-11-10T15:29:03Z</time>
      </trkpt>
      <trkpt lat="45.90168" lon="1.22036">
        <ele>400.4</ele>
        <time>2024-11-10T15:29:04Z</time>
      </trkpt>
      <trkpt lat="45.90165" lon="1.2203">
        <ele>400.2</ele>
        <time>2024-11-10T15:29:05Z</time>
      </trkpt>
      <trkpt lat="45.90162" lon="1.22023">
        <ele>399.9</ele>
        <time>2024-11-10T15:29:06Z</time>
      </trkpt>
      <trkpt lat="45.90159" lon="1.22017">
        <ele>399.6</ele>
        <time>2024-11-10T15:29:07Z</time>
      </trkpt>
      <trkpt lat="45.90155" lon="1.22011">
        <ele>399.2</ele>
        <time>2024-11-10T15:29:08Z</time>
      </trkpt>
      <trkpt lat="45.90152" lon="1.22004">
        <ele>399</ele>
        <time>2024-11-10T15:29:09Z</time>
      </trkpt>
      <trkpt lat="45.90148" lon="1.21997">
        <ele>398.7</ele>
        <time>2024-11-10T15:29:10Z</time>
      </trkpt>
      <trkpt lat="45.90145" lon="1.2199">
        <ele>398.4</ele>
        <time>2024-11-10T15:29:11Z</time>
      </trkpt>
      <trkpt lat="45.90141" lon="1.21983">
        <ele>398.2</ele>
        <time>2024-11-10T15:29:12Z</time>
      </trkpt>
      <trkpt lat="45.90137" lon="1.21976">
        <ele>397.9</ele>
        <time>2024-11-10T15:29:13Z</time>
      </trkpt>
      <trkpt lat="45.90132" lon="1.21968">
        <ele>397.6</ele>
        <time>2024-11-10T15:29:14Z</time>
      </trkpt>
      <trkpt lat="45.90128" lon="1.2196">
        <ele>397.3</ele>
        <time>2024-11-10T15:29:15Z</time>
      </trkpt>
      <trkpt lat="45.90123" lon="1.21952">
        <ele>397.1</ele>
        <time>2024-11-10T15:29:16Z</time>
      </trkpt>
      <trkpt lat="45.90119" lon="1.21943">
        <ele>396.7</ele>
        <time>2024-11-10T15:29:17Z</time>
      </trkpt>
      <trkpt lat="45.90116" lon="1.21934">
        <ele>396.2</ele>
        <time>2024-11-10T15:29:18Z</time>
      </trkpt>
      <trkpt lat="45.90111" lon="1.21925">
        <ele>395.8</ele>
        <time>2024-11-10T15:29:19Z</time>
      </trkpt>
      <trkpt lat="45.90106" lon="1.21917">
        <ele>395.3</ele>
        <time>2024-11-10T15:29:20Z</time>
      </trkpt>
      <trkpt lat="45.90101" lon="1.21909">
        <ele>394.9</ele>
        <time>2024-11-10T15:29:21Z</time>
      </trkpt>
      <trkpt lat="45.90095" lon="1.21902">
        <ele>394.5</ele>
        <time>2024-11-10T15:29:22Z</time>
      </trkpt>
      <trkpt lat="45.90088" lon="1.21895">
        <ele>394.1</ele>
        <time>2024-11-10T15:29:23Z</time>
      </trkpt>
      <trkpt lat="45.90082" lon="1.21888">
        <ele>393.7</ele>
        <time>2024-11-10T15:29:24Z</time>
      </trkpt>
      <trkpt lat="45.90075" lon="1.21882">
        <ele>393.3</ele>
        <time>2024-11-10T15:29:25Z</time>
      </trkpt>
      <trkpt lat="45.90068" lon="1.21876">
        <ele>392.9</ele>
        <time>2024-11-10T15:29:26Z</time>
      </trkpt>
      <trkpt lat="45.90061" lon="1.21871">
        <ele>392.5</ele>
        <time>2024-11-10T15:29:27Z</time>
      </trkpt>
      <trkpt lat="45.90053" lon="1.21868">
        <ele>392.2</ele>
        <time>2024-11-10T15:29:28Z</time>
      </trkpt>
      <trkpt lat="45.90045" lon="1.21868">
        <ele>392.1</ele>
        <time>2024-11-10T15:29:29Z</time>
      </trkpt>
      <trkpt lat="45.90038" lon="1.21869">
        <ele>391.9</ele>
        <time>2024-11-10T15:29:30Z</time>
      </trkpt>
      <trkpt lat="45.90031" lon="1.21873">
        <ele>391.8</ele>
        <time>2024-11-10T15:29:31Z</time>
      </trkpt>
      <trkpt lat="45.90027" lon="1.2188">
        <ele>391.6</ele>
        <time>2024-11-10T15:29:32Z</time>
      </trkpt>
      <trkpt lat="45.90023" lon="1.21887">
        <ele>391.2</ele>
        <time>2024-11-10T15:29:33Z</time>
      </trkpt>
      <trkpt lat="45.9002" lon="1.21895">
        <ele>390.8</ele>
        <time>2024-11-10T15:29:34Z</time>
      </trkpt>
      <trkpt lat="45.90015" lon="1.219">
        <ele>390.4</ele>
        <time>2024-11-10T15:29:35Z</time>
      </trkpt>
      <trkpt lat="45.90009" lon="1.21902">
        <ele>389.9</ele>
        <time>2024-11-10T15:29:36Z</time>
      </trkpt>
      <trkpt lat="45.90002" lon="1.21902">
        <ele>389.4</ele>
        <time>2024-11-10T15:29:37Z</time>
      </trkpt>
      <trkpt lat="45.89996" lon="1.219">
        <ele>388.9</ele>
        <time>2024-11-10T15:29:38Z</time>
      </trkpt>
      <trkpt lat="45.89989" lon="1.21897">
        <ele>388.3</ele>
        <time>2024-11-10T15:29:39Z</time>
      </trkpt>
      <trkpt lat="45.89982" lon="1.21894">
        <ele>387.7</ele>
        <time>2024-11-10T15:29:40Z</time>
      </trkpt>
      <trkpt lat="45.89975" lon="1.2189">
        <ele>387.1</ele>
        <time>2024-11-10T15:29:41Z</time>
      </trkpt>
      <trkpt lat="45.89968" lon="1.21886">
        <ele>386.5</ele>
        <time>2024-11-10T15:29:42Z</time>
      </trkpt>
      <trkpt lat="45.89961" lon="1.21882">
        <ele>386</ele>
        <time>2024-11-10T15:29:43Z</time>
      </trkpt>
      <trkpt lat="45.89954" lon="1.21879">
        <ele>385.4</ele>
        <time>2024-11-10T15:29:44Z</time>
      </trkpt>
      <trkpt lat="45.89948" lon="1.21876">
        <ele>385</ele>
        <time>2024-11-10T15:29:45Z</time>
      </trkpt>
      <trkpt lat="45.89943" lon="1.21874">
        <ele>384.6</ele>
        <time>2024-11-10T15:29:46Z</time>
      </trkpt>
      <trkpt lat="45.89939" lon="1.21873">
        <ele>384.4</ele>
        <time>2024-11-10T15:29:48Z</time>
      </trkpt>
      <trkpt lat="45.89934" lon="1.21873">
        <ele>384.1</ele>
        <time>2024-11-10T15:29:50Z</time>
      </trkpt>
      <trkpt lat="45.8993" lon="1.21876">
        <ele>384.1</ele>
        <time>2024-11-10T15:29:52Z</time>
      </trkpt>
      <trkpt lat="45.89928" lon="1.21881">
        <ele>384.1</ele>
        <time>2024-11-10T15:29:53Z</time>
      </trkpt>
      <trkpt lat="45.89927" lon="1.21886">
        <ele>384.2</ele>
        <time>2024-11-10T15:29:54Z</time>
      </trkpt>
      <trkpt lat="45.89925" lon="1.21892">
        <ele>384.3</ele>
        <time>2024-11-10T15:29:55Z</time>
      </trkpt>
      <trkpt lat="45.89925" lon="1.21899">
        <ele>384.3</ele>
        <time>2024-11-10T15:29:56Z</time>
      </trkpt>
      <trkpt lat="45.89924" lon="1.21905">
        <ele>384.4</ele>
        <time>2024-11-10T15:29:57Z</time>
      </trkpt>
      <trkpt lat="45.89922" lon="1.21913">
        <ele>384.5</ele>
        <time>2024-11-10T15:29:58Z</time>
      </trkpt>
      <trkpt lat="45.89921" lon="1.2192">
        <ele>384.6</ele>
        <time>2024-11-10T15:29:59Z</time>
      </trkpt>
      <trkpt lat="45.8992" lon="1.21927">
        <ele>384.7</ele>
        <time>2024-11-10T15:30:00Z</time>
      </trkpt>
      <trkpt lat="45.8992" lon="1.21934">
        <ele>384.8</ele>
        <time>2024-11-10T15:30:01Z</time>
      </trkpt>
      <trkpt lat="45.89918" lon="1.21941">
        <ele>385</ele>
        <time>2024-11-10T15:30:02Z</time>
      </trkpt>
      <trkpt lat="45.89917" lon="1.21948">
        <ele>385.1</ele>
        <time>2024-11-10T15:30:03Z</time>
      </trkpt>
      <trkpt lat="45.89915" lon="1.21954">
        <ele>385.2</ele>
        <time>2024-11-10T15:30:04Z</time>
      </trkpt>
      <trkpt lat="45.89914" lon="1.2196">
        <ele>385.3</ele>
        <time>2024-11-10T15:30:05Z</time>
      </trkpt>
      <trkpt lat="45.89913" lon="1.21966">
        <ele>385.4</ele>
        <time>2024-11-10T15:30:06Z</time>
      </trkpt>
      <trkpt lat="45.89912" lon="1.21972">
        <ele>385.6</ele>
        <time>2024-11-10T15:30:07Z</time>
      </trkpt>
      <trkpt lat="45.89911" lon="1.21978">
        <ele>385.7</ele>
        <time>2024-11-10T15:30:08Z</time>
      </trkpt>
      <trkpt lat="45.8991" lon="1.21984">
        <ele>385.8</ele>
        <time>2024-11-10T15:30:09Z</time>
      </trkpt>
      <trkpt lat="45.89909" lon="1.21991">
        <ele>386</ele>
        <time>2024-11-10T15:30:10Z</time>
      </trkpt>
      <trkpt lat="45.89907" lon="1.21996">
        <ele>386.1</ele>
        <time>2024-11-10T15:30:11Z</time>
      </trkpt>
      <trkpt lat="45.89906" lon="1.22002">
        <ele>386.3</ele>
        <time>2024-11-10T15:30:12Z</time>
      </trkpt>
      <trkpt lat="45.89905" lon="1.22008">
        <ele>386.4</ele>
        <time>2024-11-10T15:30:13Z</time>
      </trkpt>
      <trkpt lat="45.89904" lon="1.22014">
        <ele>386.6</ele>
        <time>2024-11-10T15:30:14Z</time>
      </trkpt>
      <trkpt lat="45.89904" lon="1.2202">
        <ele>386.7</ele>
        <time>2024-11-10T15:30:15Z</time>
      </trkpt>
      <trkpt lat="45.89903" lon="1.22026">
        <ele>386.9</ele>
        <time>2024-11-10T15:30:16Z</time>
      </trkpt>
      <trkpt lat="45.89902" lon="1.22032">
        <ele>387.1</ele>
        <time>2024-11-10T15:30:17Z</time>
      </trkpt>
      <trkpt lat="45.89901" lon="1.22037">
        <ele>387.2</ele>
        <time>2024-11-10T15:30:18Z</time>
      </trkpt>
      <trkpt lat="45.89901" lon="1.22043">
        <ele>387.4</ele>
        <time>2024-11-10T15:30:19Z</time>
      </trkpt>
      <trkpt lat="45.899" lon="1.22049">
        <ele>387.6</ele>
        <time>2024-11-10T15:30:20Z</time>
      </trkpt>
      <trkpt lat="45.89899" lon="1.22054">
        <ele>387.7</ele>
        <time>2024-11-10T15:30:21Z</time>
      </trkpt>
      <trkpt lat="45.89899" lon="1.2206">
        <ele>387.9</ele>
        <time>2024-11-10T15:30:22Z</time>
      </trkpt>
      <trkpt lat="45.89898" lon="1.22065">
        <ele>388</ele>
        <time>2024-11-10T15:30:23Z</time>
      </trkpt>
      <trkpt lat="45.89897" lon="1.22071">
        <ele>388.2</ele>
        <time>2024-11-10T15:30:24Z</time>
      </trkpt>
      <trkpt lat="45.89897" lon="1.22076">
        <ele>388.4</ele>
        <time>2024-11-10T15:30:25Z</time>
      </trkpt>
      <trkpt lat="45.89896" lon="1.22082">
        <ele>388.5</ele>
        <time>2024-11-10T15:30:26Z</time>
      </trkpt>
      <trkpt lat="45.89895" lon="1.22087">
        <ele>388.7</ele>
        <time>2024-11-10T15:30:27Z</time>
      </trkpt>
      <trkpt lat="45.89894" lon="1.22092">
        <ele>388.8</ele>
        <time>2024-11-10T15:30:28Z</time>
      </trkpt>
      <trkpt lat="45.89894" lon="1.22096">
        <ele>388.9</ele>
        <time>2024-11-10T15:30:29Z</time>
      </trkpt>
      <trkpt lat="45.89893" lon="1.22101">
        <ele>389</ele>
        <time>2024-11-10T15:30:30Z</time>
      </trkpt>
      <trkpt lat="45.89892" lon="1.22105">
        <ele>389.1</ele>
        <time>2024-11-10T15:30:31Z</time>
      </trkpt>
      <trkpt lat="45.89892" lon="1.22109">
        <ele>389.2</ele>
        <time>2024-11-10T15:30:32Z</time>
      </trkpt>
      <trkpt lat="45.89892" lon="1.22115">
        <ele>389.4</ele>
        <time>2024-11-10T15:30:34Z</time>
      </trkpt>
      <trkpt lat="45.89891" lon="1.2212">
        <ele>389.5</ele>
        <time>2024-11-10T15:30:35Z</time>
      </trkpt>
      <trkpt lat="45.89891" lon="1.22124">
        <ele>389.6</ele>
        <time>2024-11-10T15:30:36Z</time>
      </trkpt>
      <trkpt lat="45.8989" lon="1.22129">
        <ele>389.7</ele>
        <time>2024-11-10T15:30:37Z</time>
      </trkpt>
      <trkpt lat="45.89889" lon="1.22133">
        <ele>389.7</ele>
        <time>2024-11-10T15:30:38Z</time>
      </trkpt>
      <trkpt lat="45.89888" lon="1.22138">
        <ele>389.8</ele>
        <time>2024-11-10T15:30:39Z</time>
      </trkpt>
      <trkpt lat="45.89887" lon="1.22143">
        <ele>389.9</ele>
        <time>2024-11-10T15:30:40Z</time>
      </trkpt>
      <trkpt lat="45.89886" lon="1.22148">
        <ele>390</ele>
        <time>2024-11-10T15:30:41Z</time>
      </trkpt>
      <trkpt lat="45.89885" lon="1.22153">
        <ele>390.1</ele>
        <time>2024-11-10T15:30:42Z</time>
      </trkpt>
      <trkpt lat="45.89884" lon="1.22159">
        <ele>390.2</ele>
        <time>2024-11-10T15:30:43Z</time>
      </trkpt>
      <trkpt lat="45.89883" lon="1.22164">
        <ele>390.3</ele>
        <time>2024-11-10T15:30:44Z</time>
      </trkpt>
      <trkpt lat="45.89883" lon="1.22169">
        <ele>390.4</ele>
        <time>2024-11-10T15:30:45Z</time>
      </trkpt>
      <trkpt lat="45.89882" lon="1.22175">
        <ele>390.6</ele>
        <time>2024-11-10T15:30:46Z</time>
      </trkpt>
      <trkpt lat="45.89882" lon="1.2218">
        <ele>390.7</ele>
        <time>2024-11-10T15:30:47Z</time>
      </trkpt>
      <trkpt lat="45.89881" lon="1.22186">
        <ele>390.8</ele>
        <time>2024-11-10T15:30:48Z</time>
      </trkpt>
      <trkpt lat="45.8988" lon="1.22191">
        <ele>390.9</ele>
        <time>2024-11-10T15:30:49Z</time>
      </trkpt>
      <trkpt lat="45.89879" lon="1.22196">
        <ele>391.1</ele>
        <time>2024-11-10T15:30:50Z</time>
      </trkpt>
      <trkpt lat="45.89878" lon="1.222">
        <ele>391.2</ele>
        <time>2024-11-10T15:30:51Z</time>
      </trkpt>
      <trkpt lat="45.89877" lon="1.22205">
        <ele>391.3</ele>
        <time>2024-11-10T15:30:52Z</time>
      </trkpt>
      <trkpt lat="45.89877" lon="1.22209">
        <ele>391.4</ele>
        <time>2024-11-10T15:30:53Z</time>
      </trkpt>
      <trkpt lat="45.89876" lon="1.22214">
        <ele>391.5</ele>
        <time>2024-11-10T15:30:54Z</time>
      </trkpt>
      <trkpt lat="45.89875" lon="1.22219">
        <ele>391.6</ele>
        <time>2024-11-10T15:30:55Z</time>
      </trkpt>
      <trkpt lat="45.89874" lon="1.22224">
        <ele>391.7</ele>
        <time>2024-11-10T15:30:56Z</time>
      </trkpt>
      <trkpt lat="45.89873" lon="1.22229">
        <ele>391.8</ele>
        <time>2024-11-10T15:30:57Z</time>
      </trkpt>
      <trkpt lat="45.89873" lon="1.22234">
        <ele>391.9</ele>
        <time>2024-11-10T15:30:58Z</time>
      </trkpt>
      <trkpt lat="45.89872" lon="1.22239">
        <ele>392</ele>
        <time>2024-11-10T15:30:59Z</time>
      </trkpt>
      <trkpt lat="45.89871" lon="1.22244">
        <ele>392.1</ele>
        <time>2024-11-10T15:31:00Z</time>
      </trkpt>
      <trkpt lat="45.8987" lon="1.22249">
        <ele>392.2</ele>
        <time>2024-11-10T15:31:01Z</time>
      </trkpt>
      <trkpt lat="45.89869" lon="1.22255">
        <ele>392.3</ele>
        <time>2024-11-10T15:31:02Z</time>
      </trkpt>
      <trkpt lat="45.89868" lon="1.2226">
        <ele>392.4</ele>
        <time>2024-11-10T15:31:03Z</time>
      </trkpt>
      <trkpt lat="45.89866" lon="1.22265">
        <ele>392.5</ele>
        <time>2024-11-10T15:31:04Z</time>
      </trkpt>
      <trkpt lat="45.89865" lon="1.22271">
        <ele>392.6</ele>
        <time>2024-11-10T15:31:05Z</time>
      </trkpt>
      <trkpt lat="45.89864" lon="1.22276">
        <ele>392.7</ele>
        <time>2024-11-10T15:31:06Z</time>
      </trkpt>
      <trkpt lat="45.89863" lon="1.22282">
        <ele>392.8</ele>
        <time>2024-11-10T15:31:07Z</time>
      </trkpt>
      <trkpt lat="45.89862" lon="1.22288">
        <ele>392.9</ele>
        <time>2024-11-10T15:31:08Z</time>
      </trkpt>
      <trkpt lat="45.89861" lon="1.22294">
        <ele>393.1</ele>
        <time>2024-11-10T15:31:09Z</time>
      </trkpt>
      <trkpt lat="45.89859" lon="1.22299">
        <ele>393.2</ele>
        <time>2024-11-10T15:31:10Z</time>
      </trkpt>
      <trkpt lat="45.89857" lon="1.22304">
        <ele>393.3</ele>
        <time>2024-11-10T15:31:11Z</time>
      </trkpt>
      <trkpt lat="45.89856" lon="1.2231">
        <ele>393.4</ele>
        <time>2024-11-10T15:31:12Z</time>
      </trkpt>
      <trkpt lat="45.89855" lon="1.22315">
        <ele>393.5</ele>
        <time>2024-11-10T15:31:13Z</time>
      </trkpt>
      <trkpt lat="45.89853" lon="1.2232">
        <ele>393.7</ele>
        <time>2024-11-10T15:31:14Z</time>
      </trkpt>
      <trkpt lat="45.89852" lon="1.22325">
        <ele>393.8</ele>
        <time>2024-11-10T15:31:15Z</time>
      </trkpt>
      <trkpt lat="45.89851" lon="1.2233">
        <ele>393.9</ele>
        <time>2024-11-10T15:31:16Z</time>
      </trkpt>
      <trkpt lat="45.8985" lon="1.22335">
        <ele>394</ele>
        <time>2024-11-10T15:31:17Z</time>
      </trkpt>
      <trkpt lat="45.89849" lon="1.2234">
        <ele>394.1</ele>
        <time>2024-11-10T15:31:18Z</time>
      </trkpt>
      <trkpt lat="45.89848" lon="1.22345">
        <ele>394.2</ele>
        <time>2024-11-10T15:31:19Z</time>
      </trkpt>
      <trkpt lat="45.89847" lon="1.22351">
        <ele>394.3</ele>
        <time>2024-11-10T15:31:20Z</time>
      </trkpt>
      <trkpt lat="45.89846" lon="1.22355">
        <ele>394.3</ele>
        <time>2024-11-10T15:31:21Z</time>
      </trkpt>
      <trkpt lat="45.89845" lon="1.22361">
        <ele>394.4</ele>
        <time>2024-11-10T15:31:22Z</time>
      </trkpt>
      <trkpt lat="45.89844" lon="1.22367">
        <ele>394.5</ele>
        <time>2024-11-10T15:31:23Z</time>
      </trkpt>
      <trkpt lat="45.89843" lon="1.22372">
        <ele>394.5</ele>
        <time>2024-11-10T15:31:24Z</time>
      </trkpt>
      <trkpt lat="45.8984" lon="1.22377">
        <ele>394.6</ele>
        <time>2024-11-10T15:31:25Z</time>
      </trkpt>
      <trkpt lat="45.89836" lon="1.2238">
        <ele>394.8</ele>
        <time>2024-11-10T15:31:26Z</time>
      </trkpt>
      <trkpt lat="45.89831" lon="1.2238">
        <ele>394.9</ele>
        <time>2024-11-10T15:31:27Z</time>
      </trkpt>
      <trkpt lat="45.89826" lon="1.22378">
        <ele>395</ele>
        <time>2024-11-10T15:31:28Z</time>
      </trkpt>
      <trkpt lat="45.89822" lon="1.22376">
        <ele>395.1</ele>
        <time>2024-11-10T15:31:29Z</time>
      </trkpt>
      <trkpt lat="45.89818" lon="1.22373">
        <ele>395.2</ele>
        <time>2024-11-10T15:31:30Z</time>
      </trkpt>
      <trkpt lat="45.89814" lon="1.2237">
        <ele>395.3</ele>
        <time>2024-11-10T15:31:31Z</time>
      </trkpt>
      <trkpt lat="45.8981" lon="1.22367">
        <ele>395.3</ele>
        <time>2024-11-10T15:31:32Z</time>
      </trkpt>
      <trkpt lat="45.89807" lon="1.22363">
        <ele>395.4</ele>
        <time>2024-11-10T15:31:33Z</time>
      </trkpt>
      <trkpt lat="45.89804" lon="1.2236">
        <ele>395.5</ele>
        <time>2024-11-10T15:31:34Z</time>
      </trkpt>
      <trkpt lat="45.898" lon="1.22358">
        <ele>395.5</ele>
        <time>2024-11-10T15:31:35Z</time>
      </trkpt>
      <trkpt lat="45.89797" lon="1.22355">
        <ele>395.6</ele>
        <time>2024-11-10T15:31:36Z</time>
      </trkpt>
      <trkpt lat="45.89794" lon="1.22352">
        <ele>395.6</ele>
        <time>2024-11-10T15:31:37Z</time>
      </trkpt>
      <trkpt lat="45.8979" lon="1.22348">
        <ele>395.7</ele>
        <time>2024-11-10T15:31:38Z</time>
      </trkpt>
      <trkpt lat="45.89787" lon="1.22345">
        <ele>395.7</ele>
        <time>2024-11-10T15:31:39Z</time>
      </trkpt>
      <trkpt lat="45.89784" lon="1.22342">
        <ele>395.8</ele>
        <time>2024-11-10T15:31:40Z</time>
      </trkpt>
      <trkpt lat="45.8978" lon="1.22339">
        <ele>395.8</ele>
        <time>2024-11-10T15:31:41Z</time>
      </trkpt>
      <trkpt lat="45.89777" lon="1.22335">
        <ele>395.9</ele>
        <time>2024-11-10T15:31:42Z</time>
      </trkpt>
      <trkpt lat="45.89773" lon="1.22332">
        <ele>396</ele>
        <time>2024-11-10T15:31:43Z</time>
      </trkpt>
      <trkpt lat="45.89769" lon="1.22329">
        <ele>396</ele>
        <time>2024-11-10T15:31:44Z</time>
      </trkpt>
      <trkpt lat="45.89766" lon="1.22326">
        <ele>396</ele>
        <time>2024-11-10T15:31:45Z</time>
      </trkpt>
      <trkpt lat="45.89762" lon="1.22323">
        <ele>396.1</ele>
        <time>2024-11-10T15:31:46Z</time>
      </trkpt>
      <trkpt lat="45.89759" lon="1.2232">
        <ele>396.1</ele>
        <time>2024-11-10T15:31:47Z</time>
      </trkpt>
      <trkpt lat="45.89755" lon="1.22317">
        <ele>396.2</ele>
        <time>2024-11-10T15:31:48Z</time>
      </trkpt>
      <trkpt lat="45.89752" lon="1.22314">
        <ele>396.2</ele>
        <time>2024-11-10T15:31:49Z</time>
      </trkpt>
      <trkpt lat="45.89749" lon="1.22311">
        <ele>396.2</ele>
        <time>2024-11-10T15:31:50Z</time>
      </trkpt>
      <trkpt lat="45.89746" lon="1.22308">
        <ele>396.3</ele>
        <time>2024-11-10T15:31:51Z</time>
      </trkpt>
      <trkpt lat="45.89742" lon="1.22305">
        <ele>396.3</ele>
        <time>2024-11-10T15:31:52Z</time>
      </trkpt>
      <trkpt lat="45.89739" lon="1.22302">
        <ele>396.4</ele>
        <time>2024-11-10T15:31:53Z</time>
      </trkpt>
      <trkpt lat="45.89736" lon="1.22299">
        <ele>396.4</ele>
        <time>2024-11-10T15:31:54Z</time>
      </trkpt>
      <trkpt lat="45.89732" lon="1.22296">
        <ele>396.4</ele>
        <time>2024-11-10T15:31:55Z</time>
      </trkpt>
      <trkpt lat="45.89729" lon="1.22292">
        <ele>396.5</ele>
        <time>2024-11-10T15:31:56Z</time>
      </trkpt>
      <trkpt lat="45.89726" lon="1.22288">
        <ele>396.5</ele>
        <time>2024-11-10T15:31:57Z</time>
      </trkpt>
      <trkpt lat="45.89722" lon="1.22284">
        <ele>396.5</ele>
        <time>2024-11-10T15:31:58Z</time>
      </trkpt>
      <trkpt lat="45.89719" lon="1.2228">
        <ele>396.6</ele>
        <time>2024-11-10T15:31:59Z</time>
      </trkpt>
      <trkpt lat="45.89716" lon="1.22276">
        <ele>396.6</ele>
        <time>2024-11-10T15:32:00Z</time>
      </trkpt>
      <trkpt lat="45.89713" lon="1.2227">
        <ele>396.7</ele>
        <time>2024-11-10T15:32:01Z</time>
      </trkpt>
      <trkpt lat="45.8971" lon="1.22265">
        <ele>396.7</ele>
        <time>2024-11-10T15:32:02Z</time>
      </trkpt>
      <trkpt lat="45.89707" lon="1.2226">
        <ele>396.8</ele>
        <time>2024-11-10T15:32:03Z</time>
      </trkpt>
      <trkpt lat="45.89704" lon="1.22256">
        <ele>396.8</ele>
        <time>2024-11-10T15:32:04Z</time>
      </trkpt>
      <trkpt lat="45.897" lon="1.22251">
        <ele>396.8</ele>
        <time>2024-11-10T15:32:05Z</time>
      </trkpt>
      <trkpt lat="45.89697" lon="1.22247">
        <ele>396.8</ele>
        <time>2024-11-10T15:32:06Z</time>
      </trkpt>
      <trkpt lat="45.89693" lon="1.22243">
        <ele>396.8</ele>
        <time>2024-11-10T15:32:07Z</time>
      </trkpt>
      <trkpt lat="45.89689" lon="1.22239">
        <ele>396.8</ele>
        <time>2024-11-10T15:32:08Z</time>
      </trkpt>
      <trkpt lat="45.89685" lon="1.22234">
        <ele>396.8</ele>
        <time>2024-11-10T15:32:09Z</time>
      </trkpt>
      <trkpt lat="45.89682" lon="1.2223">
        <ele>396.8</ele>
        <time>2024-11-10T15:32:10Z</time>
      </trkpt>
      <trkpt lat="45.89678" lon="1.22227">
        <ele>396.8</ele>
        <time>2024-11-10T15:32:11Z</time>
      </trkpt>
      <trkpt lat="45.89675" lon="1.22223">
        <ele>396.8</ele>
        <time>2024-11-10T15:32:12Z</time>
      </trkpt>
      <trkpt lat="45.89671" lon="1.22218">
        <ele>396.8</ele>
        <time>2024-11-10T15:32:13Z</time>
      </trkpt>
      <trkpt lat="45.89667" lon="1.22214">
        <ele>396.8</ele>
        <time>2024-11-10T15:32:14Z</time>
      </trkpt>
      <trkpt lat="45.89663" lon="1.2221">
        <ele>396.8</ele>
        <time>2024-11-10T15:32:15Z</time>
      </trkpt>
      <trkpt lat="45.89659" lon="1.22206">
        <ele>396.8</ele>
        <time>2024-11-10T15:32:16Z</time>
      </trkpt>
      <trkpt lat="45.89655" lon="1.22201">
        <ele>396.7</ele>
        <time>2024-11-10T15:32:17Z</time>
      </trkpt>
      <trkpt lat="45.8965" lon="1.22198">
        <ele>396.7</ele>
        <time>2024-11-10T15:32:18Z</time>
      </trkpt>
      <trkpt lat="45.89646" lon="1.22194">
        <ele>396.7</ele>
        <time>2024-11-10T15:32:19Z</time>
      </trkpt>
      <trkpt lat="45.89641" lon="1.22191">
        <ele>396.6</ele>
        <time>2024-11-10T15:32:20Z</time>
      </trkpt>
      <trkpt lat="45.89637" lon="1.22187">
        <ele>396.6</ele>
        <time>2024-11-10T15:32:21Z</time>
      </trkpt>
      <trkpt lat="45.89632" lon="1.22184">
        <ele>396.6</ele>
        <time>2024-11-10T15:32:22Z</time>
      </trkpt>
      <trkpt lat="45.89628" lon="1.22181">
        <ele>396.5</ele>
        <time>2024-11-10T15:32:23Z</time>
      </trkpt>
      <trkpt lat="45.89624" lon="1.22177">
        <ele>396.5</ele>
        <time>2024-11-10T15:32:24Z</time>
      </trkpt>
      <trkpt lat="45.8962" lon="1.22174">
        <ele>396.5</ele>
        <time>2024-11-10T15:32:25Z</time>
      </trkpt>
      <trkpt lat="45.89616" lon="1.22169">
        <ele>396.5</ele>
        <time>2024-11-10T15:32:26Z</time>
      </trkpt>
      <trkpt lat="45.89612" lon="1.22165">
        <ele>396.5</ele>
        <time>2024-11-10T15:32:27Z</time>
      </trkpt>
      <trkpt lat="45.89608" lon="1.2216">
        <ele>396.4</ele>
        <time>2024-11-10T15:32:28Z</time>
      </trkpt>
      <trkpt lat="45.89604" lon="1.22156">
        <ele>396.4</ele>
        <time>2024-11-10T15:32:29Z</time>
      </trkpt>
      <trkpt lat="45.89599" lon="1.22152">
        <ele>396.4</ele>
        <time>2024-11-10T15:32:30Z</time>
      </trkpt>
      <trkpt lat="45.89595" lon="1.22148">
        <ele>396.4</ele>
        <time>2024-11-10T15:32:31Z</time>
      </trkpt>
      <trkpt lat="45.8959" lon="1.22144">
        <ele>396.4</ele>
        <time>2024-11-10T15:32:32Z</time>
      </trkpt>
      <trkpt lat="45.89585" lon="1.22139">
        <ele>396.4</ele>
        <time>2024-11-10T15:32:33Z</time>
      </trkpt>
      <trkpt lat="45.89581" lon="1.22135">
        <ele>396.4</ele>
        <time>2024-11-10T15:32:34Z</time>
      </trkpt>
      <trkpt lat="45.89577" lon="1.2213">
        <ele>396.4</ele>
        <time>2024-11-10T15:32:35Z</time>
      </trkpt>
      <trkpt lat="45.89572" lon="1.22125">
        <ele>396.4</ele>
        <time>2024-11-10T15:32:36Z</time>
      </trkpt>
      <trkpt lat="45.89567" lon="1.22121">
        <ele>396.4</ele>
        <time>2024-11-10T15:32:37Z</time>
      </trkpt>
      <trkpt lat="45.89563" lon="1.22116">
        <ele>396.4</ele>
        <time>2024-11-10T15:32:38Z</time>
      </trkpt>
      <trkpt lat="45.89558" lon="1.22112">
        <ele>396.4</ele>
        <time>2024-11-10T15:32:39Z</time>
      </trkpt>
      <trkpt lat="45.89554" lon="1.22107">
        <ele>396.5</ele>
        <time>2024-11-10T15:32:40Z</time>
      </trkpt>
      <trkpt lat="45.89549" lon="1.22103">
        <ele>396.5</ele>
        <time>2024-11-10T15:32:41Z</time>
      </trkpt>
      <trkpt lat="45.89545" lon="1.22097">
        <ele>396.6</ele>
        <time>2024-11-10T15:32:42Z</time>
      </trkpt>
      <trkpt lat="45.89541" lon="1.22093">
        <ele>396.6</ele>
        <time>2024-11-10T15:32:43Z</time>
      </trkpt>
      <trkpt lat="45.89537" lon="1.22088">
        <ele>396.6</ele>
        <time>2024-11-10T15:32:44Z</time>
      </trkpt>
      <trkpt lat="45.89533" lon="1.22083">
        <ele>396.6</ele>
        <time>2024-11-10T15:32:45Z</time>
      </trkpt>
      <trkpt lat="45.89529" lon="1.22078">
        <ele>396.6</ele>
        <time>2024-11-10T15:32:46Z</time>
      </trkpt>
      <trkpt lat="45.89525" lon="1.22072">
        <ele>396.6</ele>
        <time>2024-11-10T15:32:47Z</time>
      </trkpt>
      <trkpt lat="45.8952" lon="1.22068">
        <ele>396.6</ele>
        <time>2024-11-10T15:32:48Z</time>
      </trkpt>
      <trkpt lat="45.89516" lon="1.22063">
        <ele>396.6</ele>
        <time>2024-11-10T15:32:49Z</time>
      </trkpt>
      <trkpt lat="45.89511" lon="1.2206">
        <ele>396.6</ele>
        <time>2024-11-10T15:32:50Z</time>
      </trkpt>
      <trkpt lat="45.89505" lon="1.22059">
        <ele>396.6</ele>
        <time>2024-11-10T15:32:51Z</time>
      </trkpt>
      <trkpt lat="45.895" lon="1.2206">
        <ele>396.6</ele>
        <time>2024-11-10T15:32:52Z</time>
      </trkpt>
      <trkpt lat="45.89495" lon="1.22064">
        <ele>396.6</ele>
        <time>2024-11-10T15:32:53Z</time>
      </trkpt>
      <trkpt lat="45.8949" lon="1.2207">
        <ele>396.5</ele>
        <time>2024-11-10T15:32:54Z</time>
      </trkpt>
      <trkpt lat="45.89486" lon="1.22076">
        <ele>396.4</ele>
        <time>2024-11-10T15:32:55Z</time>
      </trkpt>
      <trkpt lat="45.89483" lon="1.22082">
        <ele>396.3</ele>
        <time>2024-11-10T15:32:56Z</time>
      </trkpt>
      <trkpt lat="45.89479" lon="1.22089">
        <ele>396.2</ele>
        <time>2024-11-10T15:32:57Z</time>
      </trkpt>
      <trkpt lat="45.89476" lon="1.22096">
        <ele>396.1</ele>
        <time>2024-11-10T15:32:58Z</time>
      </trkpt>
      <trkpt lat="45.89473" lon="1.22103">
        <ele>395.9</ele>
        <time>2024-11-10T15:32:59Z</time>
      </trkpt>
      <trkpt lat="45.8947" lon="1.2211">
        <ele>395.8</ele>
        <time>2024-11-10T15:33:00Z</time>
      </trkpt>
      <trkpt lat="45.89467" lon="1.22117">
        <ele>395.6</ele>
        <time>2024-11-10T15:33:01Z</time>
      </trkpt>
      <trkpt lat="45.89464" lon="1.22124">
        <ele>395.5</ele>
        <time>2024-11-10T15:33:02Z</time>
      </trkpt>
      <trkpt lat="45.89461" lon="1.22132">
        <ele>395.3</ele>
        <time>2024-11-10T15:33:03Z</time>
      </trkpt>
      <trkpt lat="45.89459" lon="1.2214">
        <ele>395.1</ele>
        <time>2024-11-10T15:33:04Z</time>
      </trkpt>
      <trkpt lat="45.89457" lon="1.22147">
        <ele>394.9</ele>
        <time>2024-11-10T15:33:05Z</time>
      </trkpt>
      <trkpt lat="45.89456" lon="1.22155">
        <ele>395</ele>
        <time>2024-11-10T15:33:06Z</time>
      </trkpt>
      <trkpt lat="45.89455" lon="1.22163">
        <ele>394.9</ele>
        <time>2024-11-10T15:33:07Z</time>
      </trkpt>
      <trkpt lat="45.89453" lon="1.2217">
        <ele>394.8</ele>
        <time>2024-11-10T15:33:08Z</time>
      </trkpt>
      <trkpt lat="45.89452" lon="1.22177">
        <ele>394.7</ele>
        <time>2024-11-10T15:33:09Z</time>
      </trkpt>
      <trkpt lat="45.89451" lon="1.22185">
        <ele>394.5</ele>
        <time>2024-11-10T15:33:10Z</time>
      </trkpt>
      <trkpt lat="45.89449" lon="1.22192">
        <ele>394.4</ele>
        <time>2024-11-10T15:33:11Z</time>
      </trkpt>
      <trkpt lat="45.89447" lon="1.222">
        <ele>394.2</ele>
        <time>2024-11-10T15:33:12Z</time>
      </trkpt>
      <trkpt lat="45.89445" lon="1.22209">
        <ele>394</ele>
        <time>2024-11-10T15:33:13Z</time>
      </trkpt>
      <trkpt lat="45.89443" lon="1.22218">
        <ele>393.8</ele>
        <time>2024-11-10T15:33:14Z</time>
      </trkpt>
      <trkpt lat="45.89441" lon="1.22226">
        <ele>393.5</ele>
        <time>2024-11-10T15:33:15Z</time>
      </trkpt>
      <trkpt lat="45.89439" lon="1.22234">
        <ele>393.4</ele>
        <time>2024-11-10T15:33:16Z</time>
      </trkpt>
      <trkpt lat="45.89436" lon="1.22242">
        <ele>393.2</ele>
        <time>2024-11-10T15:33:17Z</time>
      </trkpt>
      <trkpt lat="45.89434" lon="1.2225">
        <ele>393</ele>
        <time>2024-11-10T15:33:18Z</time>
      </trkpt>
      <trkpt lat="45.89432" lon="1.22258">
        <ele>392.8</ele>
        <time>2024-11-10T15:33:19Z</time>
      </trkpt>
      <trkpt lat="45.8943" lon="1.22266">
        <ele>392.6</ele>
        <time>2024-11-10T15:33:20Z</time>
      </trkpt>
      <trkpt lat="45.89428" lon="1.22273">
        <ele>392.5</ele>
        <time>2024-11-10T15:33:21Z</time>
      </trkpt>
      <trkpt lat="45.89427" lon="1.2228">
        <ele>392.3</ele>
        <time>2024-11-10T15:33:22Z</time>
      </trkpt>
      <trkpt lat="45.89424" lon="1.22287">
        <ele>392.2</ele>
        <time>2024-11-10T15:33:23Z</time>
      </trkpt>
      <trkpt lat="45.89421" lon="1.22293">
        <ele>392.1</ele>
        <time>2024-11-10T15:33:24Z</time>
      </trkpt>
      <trkpt lat="45.89417" lon="1.22298">
        <ele>391.9</ele>
        <time>2024-11-10T15:33:25Z</time>
      </trkpt>
      <trkpt lat="45.89413" lon="1.22302">
        <ele>391.8</ele>
        <time>2024-11-10T15:33:26Z</time>
      </trkpt>
      <trkpt lat="45.89409" lon="1.22306">
        <ele>391.9</ele>
        <time>2024-11-10T15:33:27Z</time>
      </trkpt>
      <trkpt lat="45.89405" lon="1.2231">
        <ele>392</ele>
        <time>2024-11-10T15:33:28Z</time>
      </trkpt>
      <trkpt lat="45.89402" lon="1.22314">
        <ele>392</ele>
        <time>2024-11-10T15:33:29Z</time>
      </trkpt>
      <trkpt lat="45.89398" lon="1.22317">
        <ele>392.1</ele>
        <time>2024-11-10T15:33:30Z</time>
      </trkpt>
      <trkpt lat="45.89395" lon="1.22321">
        <ele>392.1</ele>
        <time>2024-11-10T15:33:32Z</time>
      </trkpt>
      <trkpt lat="45.89391" lon="1.22325">
        <ele>392.2</ele>
        <time>2024-11-10T15:33:34Z</time>
      </trkpt>
      <trkpt lat="45.89388" lon="1.22328">
        <ele>392.2</ele>
        <time>2024-11-10T15:33:39Z</time>
      </trkpt>
      <trkpt lat="45.89386" lon="1.2233">
        <ele>392.2</ele>
        <time>2024-11-10T15:33:45Z</time>
      </trkpt>
      <trkpt lat="45.89386" lon="1.22331">
        <ele>392.2</ele>
        <time>2024-11-10T15:34:38Z</time>
      </trkpt>
      <trkpt lat="45.89385" lon="1.22329">
        <ele>392.3</ele>
        <time>2024-11-10T15:35:16Z</time>
      </trkpt>
      <trkpt lat="45.89383" lon="1.22328">
        <ele>392.3</ele>
        <time>2024-11-10T15:35:33Z</time>
      </trkpt>
      <trkpt lat="45.89384" lon="1.22327">
        <ele>392.3</ele>
        <time>2024-11-10T15:36:10Z</time>
      </trkpt>
      <trkpt lat="45.89386" lon="1.22326">
        <ele>392.3</ele>
        <time>2024-11-10T15:36:24Z</time>
      </trkpt>
      <trkpt lat="45.89387" lon="1.22328">
        <ele>392.3</ele>
        <time>2024-11-10T15:36:54Z</time>
      </trkpt>
      <trkpt lat="45.89385" lon="1.2233">
        <ele>392.3</ele>
        <time>2024-11-10T15:37:17Z</time>
      </trkpt>
      <trkpt lat="45.89383" lon="1.22332">
        <ele>392.3</ele>
        <time>2024-11-10T15:37:25Z</time>
      </trkpt>
      <trkpt lat="45.89384" lon="1.22332">
        <ele>392.3</ele>
        <time>2024-11-10T15:38:24Z</time>
      </trkpt>
      <trkpt lat="45.89384" lon="1.2233">
        <ele>392.3</ele>
        <time>2024-11-10T15:40:29Z</time>
      </trkpt>
      <trkpt lat="45.89383" lon="1.22331">
        <ele>392.3</ele>
        <time>2024-11-10T15:41:51Z</time>
      </trkpt>
      <trkpt lat="45.89382" lon="1.22334">
        <ele>392.2</ele>
        <time>2024-11-10T15:42:37Z</time>
      </trkpt>
      <trkpt lat="45.89379" lon="1.22338">
        <ele>392.2</ele>
        <time>2024-11-10T15:42:39Z</time>
      </trkpt>
      <trkpt lat="45.89377" lon="1.22342">
        <ele>392.2</ele>
        <time>2024-11-10T15:42:40Z</time>
      </trkpt>
      <trkpt lat="45.89374" lon="1.22344">
        <ele>392.2</ele>
        <time>2024-11-10T15:42:41Z</time>
      </trkpt>
      <trkpt lat="45.89372" lon="1.22347">
        <ele>392.2</ele>
        <time>2024-11-10T15:42:42Z</time>
      </trkpt>
      <trkpt lat="45.89369" lon="1.2235">
        <ele>392.2</ele>
        <time>2024-11-10T15:42:43Z</time>
      </trkpt>
      <trkpt lat="45.89366" lon="1.22353">
        <ele>392.2</ele>
        <time>2024-11-10T15:42:44Z</time>
      </trkpt>
      <trkpt lat="45.89364" lon="1.22356">
        <ele>392.2</ele>
        <time>2024-11-10T15:42:45Z</time>
      </trkpt>
      <trkpt lat="45.89361" lon="1.2236">
        <ele>392.2</ele>
        <time>2024-11-10T15:42:46Z</time>
      </trkpt>
      <trkpt lat="45.89357" lon="1.22364">
        <ele>392.1</ele>
        <time>2024-11-10T15:42:47Z</time>
      </trkpt>
      <trkpt lat="45.89352" lon="1.22367">
        <ele>392.1</ele>
        <time>2024-11-10T15:42:48Z</time>
      </trkpt>
      <trkpt lat="45.89349" lon="1.22371">
        <ele>392.1</ele>
        <time>2024-11-10T15:42:49Z</time>
      </trkpt>
      <trkpt lat="45.89345" lon="1.22376">
        <ele>392</ele>
        <time>2024-11-10T15:42:50Z</time>
      </trkpt>
      <trkpt lat="45.89341" lon="1.22381">
        <ele>392</ele>
        <time>2024-11-10T15:42:51Z</time>
      </trkpt>
      <trkpt lat="45.89337" lon="1.22386">
        <ele>392</ele>
        <time>2024-11-10T15:42:52Z</time>
      </trkpt>
      <trkpt lat="45.89332" lon="1.22391">
        <ele>392</ele>
        <time>2024-11-10T15:42:53Z</time>
      </trkpt>
      <trkpt lat="45.89329" lon="1.22395">
        <ele>392</ele>
        <time>2024-11-10T15:42:54Z</time>
      </trkpt>
      <trkpt lat="45.89325" lon="1.22399">
        <ele>391.9</ele>
        <time>2024-11-10T15:42:55Z</time>
      </trkpt>
      <trkpt lat="45.89321" lon="1.22402">
        <ele>391.9</ele>
        <time>2024-11-10T15:42:56Z</time>
      </trkpt>
      <trkpt lat="45.89317" lon="1.22404">
        <ele>391.9</ele>
        <time>2024-11-10T15:42:57Z</time>
      </trkpt>
      <trkpt lat="45.89313" lon="1.22406">
        <ele>391.9</ele>
        <time>2024-11-10T15:42:58Z</time>
      </trkpt>
      <trkpt lat="45.89308" lon="1.22407">
        <ele>391.8</ele>
        <time>2024-11-10T15:42:59Z</time>
      </trkpt>
      <trkpt lat="45.89304" lon="1.22408">
        <ele>391.6</ele>
        <time>2024-11-10T15:43:00Z</time>
      </trkpt>
      <trkpt lat="45.893" lon="1.22409">
        <ele>391.5</ele>
        <time>2024-11-10T15:43:01Z</time>
      </trkpt>
      <trkpt lat="45.89297" lon="1.22409">
        <ele>391.4</ele>
        <time>2024-11-10T15:43:02Z</time>
      </trkpt>
      <trkpt lat="45.89293" lon="1.2241">
        <ele>391.2</ele>
        <time>2024-11-10T15:43:03Z</time>
      </trkpt>
      <trkpt lat="45.8929" lon="1.22411">
        <ele>391.1</ele>
        <time>2024-11-10T15:43:04Z</time>
      </trkpt>
      <trkpt lat="45.89287" lon="1.22411">
        <ele>391</ele>
        <time>2024-11-10T15:43:05Z</time>
      </trkpt>
      <trkpt lat="45.89284" lon="1.22411">
        <ele>390.9</ele>
        <time>2024-11-10T15:43:06Z</time>
      </trkpt>
      <trkpt lat="45.8928" lon="1.22411">
        <ele>390.7</ele>
        <time>2024-11-10T15:43:07Z</time>
      </trkpt>
      <trkpt lat="45.89277" lon="1.22412">
        <ele>390.5</ele>
        <time>2024-11-10T15:43:08Z</time>
      </trkpt>
      <trkpt lat="45.89273" lon="1.22413">
        <ele>390.3</ele>
        <time>2024-11-10T15:43:09Z</time>
      </trkpt>
      <trkpt lat="45.8927" lon="1.22413">
        <ele>390.2</ele>
        <time>2024-11-10T15:43:10Z</time>
      </trkpt>
      <trkpt lat="45.89267" lon="1.22413">
        <ele>390.1</ele>
        <time>2024-11-10T15:43:11Z</time>
      </trkpt>
      <trkpt lat="45.89263" lon="1.22412">
        <ele>389.9</ele>
        <time>2024-11-10T15:43:12Z</time>
      </trkpt>
      <trkpt lat="45.89259" lon="1.2241">
        <ele>389.8</ele>
        <time>2024-11-10T15:43:13Z</time>
      </trkpt>
      <trkpt lat="45.89255" lon="1.22407">
        <ele>389.8</ele>
        <time>2024-11-10T15:43:14Z</time>
      </trkpt>
      <trkpt lat="45.89251" lon="1.22404">
        <ele>389.6</ele>
        <time>2024-11-10T15:43:15Z</time>
      </trkpt>
      <trkpt lat="45.89247" lon="1.22401">
        <ele>389.5</ele>
        <time>2024-11-10T15:43:16Z</time>
      </trkpt>
      <trkpt lat="45.89244" lon="1.22399">
        <ele>389.3</ele>
        <time>2024-11-10T15:43:17Z</time>
      </trkpt>
      <trkpt lat="45.89241" lon="1.22397">
        <ele>389.3</ele>
        <time>2024-11-10T15:43:18Z</time>
      </trkpt>
      <trkpt lat="45.89236" lon="1.22395">
        <ele>389.1</ele>
        <time>2024-11-10T15:43:19Z</time>
      </trkpt>
      <trkpt lat="45.89232" lon="1.22392">
        <ele>389</ele>
        <time>2024-11-10T15:43:20Z</time>
      </trkpt>
      <trkpt lat="45.89229" lon="1.2239">
        <ele>388.9</ele>
        <time>2024-11-10T15:43:21Z</time>
      </trkpt>
      <trkpt lat="45.89226" lon="1.22388">
        <ele>388.7</ele>
        <time>2024-11-10T15:43:22Z</time>
      </trkpt>
      <trkpt lat="45.89223" lon="1.22383">
        <ele>388.6</ele>
        <time>2024-11-10T15:43:24Z</time>
      </trkpt>
      <trkpt lat="45.8922" lon="1.22378">
        <ele>388.5</ele>
        <time>2024-11-10T15:43:26Z</time>
      </trkpt>
      <trkpt lat="45.89218" lon="1.22372">
        <ele>388.5</ele>
        <time>2024-11-10T15:43:28Z</time>
      </trkpt>
      <trkpt lat="45.89216" lon="1.22367">
        <ele>388.4</ele>
        <time>2024-11-10T15:43:29Z</time>
      </trkpt>
      <trkpt lat="45.89214" lon="1.22362">
        <ele>388.4</ele>
        <time>2024-11-10T15:43:30Z</time>
      </trkpt>
      <trkpt lat="45.89211" lon="1.22358">
        <ele>388.3</ele>
        <time>2024-11-10T15:43:31Z</time>
      </trkpt>
      <trkpt lat="45.89208" lon="1.22353">
        <ele>388.2</ele>
        <time>2024-11-10T15:43:32Z</time>
      </trkpt>
      <trkpt lat="45.89204" lon="1.22347">
        <ele>388.2</ele>
        <time>2024-11-10T15:43:33Z</time>
      </trkpt>
      <trkpt lat="45.892" lon="1.22342">
        <ele>388</ele>
        <time>2024-11-10T15:43:34Z</time>
      </trkpt>
      <trkpt lat="45.89197" lon="1.22337">
        <ele>387.9</ele>
        <time>2024-11-10T15:43:35Z</time>
      </trkpt>
      <trkpt lat="45.89194" lon="1.22333">
        <ele>387.8</ele>
        <time>2024-11-10T15:43:36Z</time>
      </trkpt>
      <trkpt lat="45.89192" lon="1.22328">
        <ele>387.8</ele>
        <time>2024-11-10T15:43:37Z</time>
      </trkpt>
      <trkpt lat="45.89187" lon="1.22324">
        <ele>387.6</ele>
        <time>2024-11-10T15:43:38Z</time>
      </trkpt>
      <trkpt lat="45.89183" lon="1.2232">
        <ele>387.4</ele>
        <time>2024-11-10T15:43:39Z</time>
      </trkpt>
      <trkpt lat="45.89179" lon="1.22315">
        <ele>387.3</ele>
        <time>2024-11-10T15:43:40Z</time>
      </trkpt>
      <trkpt lat="45.89174" lon="1.22309">
        <ele>387.1</ele>
        <time>2024-11-10T15:43:41Z</time>
      </trkpt>
      <trkpt lat="45.8917" lon="1.22303">
        <ele>387</ele>
        <time>2024-11-10T15:43:42Z</time>
      </trkpt>
      <trkpt lat="45.89168" lon="1.22296">
        <ele>386.9</ele>
        <time>2024-11-10T15:43:43Z</time>
      </trkpt>
      <trkpt lat="45.89164" lon="1.2229">
        <ele>386.8</ele>
        <time>2024-11-10T15:43:44Z</time>
      </trkpt>
      <trkpt lat="45.89162" lon="1.22283">
        <ele>386.7</ele>
        <time>2024-11-10T15:43:45Z</time>
      </trkpt>
      <trkpt lat="45.8916" lon="1.22276">
        <ele>386.8</ele>
        <time>2024-11-10T15:43:46Z</time>
      </trkpt>
      <trkpt lat="45.89157" lon="1.2227">
        <ele>386.8</ele>
        <time>2024-11-10T15:43:47Z</time>
      </trkpt>
      <trkpt lat="45.89151" lon="1.22264">
        <ele>386.7</ele>
        <time>2024-11-10T15:43:49Z</time>
      </trkpt>
      <trkpt lat="45.89147" lon="1.22259">
        <ele>386.5</ele>
        <time>2024-11-10T15:43:50Z</time>
      </trkpt>
      <trkpt lat="45.89144" lon="1.22255">
        <ele>386.4</ele>
        <time>2024-11-10T15:43:51Z</time>
      </trkpt>
      <trkpt lat="45.89141" lon="1.22251">
        <ele>386.4</ele>
        <time>2024-11-10T15:43:52Z</time>
      </trkpt>
      <trkpt lat="45.89137" lon="1.22248">
        <ele>386.3</ele>
        <time>2024-11-10T15:43:53Z</time>
      </trkpt>
      <trkpt lat="45.89133" lon="1.22245">
        <ele>386.1</ele>
        <time>2024-11-10T15:43:54Z</time>
      </trkpt>
      <trkpt lat="45.89131" lon="1.22242">
        <ele>386.1</ele>
        <time>2024-11-10T15:43:55Z</time>
      </trkpt>
      <trkpt lat="45.89128" lon="1.22239">
        <ele>386</ele>
        <time>2024-11-10T15:43:56Z</time>
      </trkpt>
      <trkpt lat="45.89125" lon="1.22236">
        <ele>385.9</ele>
        <time>2024-11-10T15:43:57Z</time>
      </trkpt>
      <trkpt lat="45.89122" lon="1.22234">
        <ele>385.8</ele>
        <time>2024-11-10T15:43:58Z</time>
      </trkpt>
      <trkpt lat="45.89118" lon="1.22235">
        <ele>385.6</ele>
        <time>2024-11-10T15:44:00Z</time>
      </trkpt>
      <trkpt lat="45.89116" lon="1.22237">
        <ele>385.3</ele>
        <time>2024-11-10T15:44:01Z</time>
      </trkpt>
      <trkpt lat="45.89113" lon="1.22239">
        <ele>385.2</ele>
        <time>2024-11-10T15:44:03Z</time>
      </trkpt>
      <trkpt lat="45.89111" lon="1.22243">
        <ele>385.1</ele>
        <time>2024-11-10T15:44:04Z</time>
      </trkpt>
      <trkpt lat="45.8911" lon="1.22249">
        <ele>385</ele>
        <time>2024-11-10T15:44:05Z</time>
      </trkpt>
      <trkpt lat="45.89108" lon="1.22255">
        <ele>384.9</ele>
        <time>2024-11-10T15:44:06Z</time>
      </trkpt>
      <trkpt lat="45.89106" lon="1.22262">
        <ele>384.8</ele>
        <time>2024-11-10T15:44:07Z</time>
      </trkpt>
      <trkpt lat="45.89103" lon="1.22267">
        <ele>384.8</ele>
        <time>2024-11-10T15:44:08Z</time>
      </trkpt>
      <trkpt lat="45.891" lon="1.22272">
        <ele>384.7</ele>
        <time>2024-11-10T15:44:09Z</time>
      </trkpt>
      <trkpt lat="45.89098" lon="1.22277">
        <ele>384.6</ele>
        <time>2024-11-10T15:44:10Z</time>
      </trkpt>
      <trkpt lat="45.89094" lon="1.22281">
        <ele>384.6</ele>
        <time>2024-11-10T15:44:11Z</time>
      </trkpt>
      <trkpt lat="45.89091" lon="1.22285">
        <ele>384.5</ele>
        <time>2024-11-10T15:44:12Z</time>
      </trkpt>
      <trkpt lat="45.89087" lon="1.22288">
        <ele>384.5</ele>
        <time>2024-11-10T15:44:13Z</time>
      </trkpt>
      <trkpt lat="45.89082" lon="1.22292">
        <ele>384.5</ele>
        <time>2024-11-10T15:44:14Z</time>
      </trkpt>
      <trkpt lat="45.89078" lon="1.22296">
        <ele>384.5</ele>
        <time>2024-11-10T15:44:15Z</time>
      </trkpt>
      <trkpt lat="45.89072" lon="1.22298">
        <ele>384.5</ele>
        <time>2024-11-10T15:44:16Z</time>
      </trkpt>
      <trkpt lat="45.89066" lon="1.223">
        <ele>384.5</ele>
        <time>2024-11-10T15:44:17Z</time>
      </trkpt>
      <trkpt lat="45.8906" lon="1.223">
        <ele>384.5</ele>
        <time>2024-11-10T15:44:18Z</time>
      </trkpt>
      <trkpt lat="45.89056" lon="1.223">
        <ele>384.5</ele>
        <time>2024-11-10T15:44:19Z</time>
      </trkpt>
      <trkpt lat="45.8905" lon="1.223">
        <ele>384.4</ele>
        <time>2024-11-10T15:44:20Z</time>
      </trkpt>
      <trkpt lat="45.89045" lon="1.223">
        <ele>384.3</ele>
        <time>2024-11-10T15:44:21Z</time>
      </trkpt>
      <trkpt lat="45.8904" lon="1.223">
        <ele>384.2</ele>
        <time>2024-11-10T15:44:22Z</time>
      </trkpt>
      <trkpt lat="45.89035" lon="1.22302">
        <ele>384.1</ele>
        <time>2024-11-10T15:44:23Z</time>
      </trkpt>
      <trkpt lat="45.8903" lon="1.22303">
        <ele>384</ele>
        <time>2024-11-10T15:44:24Z</time>
      </trkpt>
      <trkpt lat="45.89025" lon="1.22306">
        <ele>383.9</ele>
        <time>2024-11-10T15:44:25Z</time>
      </trkpt>
      <trkpt lat="45.8902" lon="1.22307">
        <ele>383.8</ele>
        <time>2024-11-10T15:44:26Z</time>
      </trkpt>
      <trkpt lat="45.89015" lon="1.22309">
        <ele>383.7</ele>
        <time>2024-11-10T15:44:27Z</time>
      </trkpt>
      <trkpt lat="45.8901" lon="1.2231">
        <ele>383.6</ele>
        <time>2024-11-10T15:44:28Z</time>
      </trkpt>
      <trkpt lat="45.89005" lon="1.22312">
        <ele>383.6</ele>
        <time>2024-11-10T15:44:29Z</time>
      </trkpt>
      <trkpt lat="45.89" lon="1.22312">
        <ele>383.5</ele>
        <time>2024-11-10T15:44:30Z</time>
      </trkpt>
      <trkpt lat="45.88996" lon="1.22314">
        <ele>383.4</ele>
        <time>2024-11-10T15:44:31Z</time>
      </trkpt>
      <trkpt lat="45.88991" lon="1.22316">
        <ele>383.4</ele>
        <time>2024-11-10T15:44:32Z</time>
      </trkpt>
      <trkpt lat="45.88986" lon="1.22318">
        <ele>383.3</ele>
        <time>2024-11-10T15:44:33Z</time>
      </trkpt>
      <trkpt lat="45.8898" lon="1.22321">
        <ele>383.2</ele>
        <time>2024-11-10T15:44:34Z</time>
      </trkpt>
      <trkpt lat="45.88975" lon="1.22323">
        <ele>383.2</ele>
        <time>2024-11-10T15:44:35Z</time>
      </trkpt>
      <trkpt lat="45.8897" lon="1.22325">
        <ele>383.3</ele>
        <time>2024-11-10T15:44:36Z</time>
      </trkpt>
      <trkpt lat="45.88967" lon="1.22327">
        <ele>383.3</ele>
        <time>2024-11-10T15:44:37Z</time>
      </trkpt>
      <trkpt lat="45.88963" lon="1.22328">
        <ele>383.3</ele>
        <time>2024-11-10T15:44:38Z</time>
      </trkpt>
      <trkpt lat="45.88959" lon="1.22329">
        <ele>383.4</ele>
        <time>2024-11-10T15:44:39Z</time>
      </trkpt>
      <trkpt lat="45.88954" lon="1.2233">
        <ele>383.5</ele>
        <time>2024-11-10T15:44:40Z</time>
      </trkpt>
      <trkpt lat="45.88951" lon="1.22332">
        <ele>383.6</ele>
        <time>2024-11-10T15:44:41Z</time>
      </trkpt>
      <trkpt lat="45.88948" lon="1.22333">
        <ele>383.6</ele>
        <time>2024-11-10T15:44:42Z</time>
      </trkpt>
      <trkpt lat="45.88945" lon="1.22336">
        <ele>383.7</ele>
        <time>2024-11-10T15:44:43Z</time>
      </trkpt>
      <trkpt lat="45.88943" lon="1.2234">
        <ele>383.9</ele>
        <time>2024-11-10T15:44:44Z</time>
      </trkpt>
      <trkpt lat="45.88943" lon="1.22345">
        <ele>384</ele>
        <time>2024-11-10T15:44:45Z</time>
      </trkpt>
      <trkpt lat="45.88944" lon="1.2235">
        <ele>384.1</ele>
        <time>2024-11-10T15:44:46Z</time>
      </trkpt>
      <trkpt lat="45.88944" lon="1.22356">
        <ele>384.2</ele>
        <time>2024-11-10T15:44:47Z</time>
      </trkpt>
      <trkpt lat="45.88944" lon="1.22361">
        <ele>384.3</ele>
        <time>2024-11-10T15:44:48Z</time>
      </trkpt>
      <trkpt lat="45.88943" lon="1.22365">
        <ele>384.4</ele>
        <time>2024-11-10T15:44:49Z</time>
      </trkpt>
      <trkpt lat="45.88941" lon="1.22369">
        <ele>384.5</ele>
        <time>2024-11-10T15:44:50Z</time>
      </trkpt>
      <trkpt lat="45.88937" lon="1.22372">
        <ele>384.6</ele>
        <time>2024-11-10T15:44:51Z</time>
      </trkpt>
      <trkpt lat="45.88934" lon="1.22374">
        <ele>384.6</ele>
        <time>2024-11-10T15:44:52Z</time>
      </trkpt>
      <trkpt lat="45.8893" lon="1.22375">
        <ele>384.6</ele>
        <time>2024-11-10T15:44:53Z</time>
      </trkpt>
      <trkpt lat="45.88924" lon="1.22375">
        <ele>384.6</ele>
        <time>2024-11-10T15:44:54Z</time>
      </trkpt>
      <trkpt lat="45.88919" lon="1.22376">
        <ele>384.4</ele>
        <time>2024-11-10T15:44:55Z</time>
      </trkpt>
      <trkpt lat="45.88915" lon="1.22376">
        <ele>384.4</ele>
        <time>2024-11-10T15:44:56Z</time>
      </trkpt>
      <trkpt lat="45.8891" lon="1.22376">
        <ele>384.2</ele>
        <time>2024-11-10T15:44:57Z</time>
      </trkpt>
      <trkpt lat="45.88905" lon="1.22376">
        <ele>384.1</ele>
        <time>2024-11-10T15:44:58Z</time>
      </trkpt>
      <trkpt lat="45.88901" lon="1.22376">
        <ele>384</ele>
        <time>2024-11-10T15:44:59Z</time>
      </trkpt>
      <trkpt lat="45.88897" lon="1.22377">
        <ele>383.9</ele>
        <time>2024-11-10T15:45:00Z</time>
      </trkpt>
      <trkpt lat="45.88893" lon="1.22376">
        <ele>383.8</ele>
        <time>2024-11-10T15:45:02Z</time>
      </trkpt>
      <trkpt lat="45.8889" lon="1.22376">
        <ele>383.7</ele>
        <time>2024-11-10T15:45:05Z</time>
      </trkpt>
      <trkpt lat="45.88886" lon="1.22379">
        <ele>383.6</ele>
        <time>2024-11-10T15:45:08Z</time>
      </trkpt>
      <trkpt lat="45.88886" lon="1.22383">
        <ele>383.5</ele>
        <time>2024-11-10T15:45:10Z</time>
      </trkpt>
      <trkpt lat="45.88888" lon="1.22381">
        <ele>383.5</ele>
        <time>2024-11-10T15:45:12Z</time>
      </trkpt>
      <trkpt lat="45.88888" lon="1.22377">
        <ele>383.5</ele>
        <time>2024-11-10T15:45:13Z</time>
      </trkpt>
      <trkpt lat="45.88888" lon="1.22372">
        <ele>383.5</ele>
        <time>2024-11-10T15:45:14Z</time>
      </trkpt>
      <trkpt lat="45.88887" lon="1.22367">
        <ele>383.5</ele>
        <time>2024-11-10T15:45:15Z</time>
      </trkpt>
      <trkpt lat="45.88886" lon="1.2236">
        <ele>383.5</ele>
        <time>2024-11-10T15:45:16Z</time>
      </trkpt>
      <trkpt lat="45.88886" lon="1.22352">
        <ele>383.5</ele>
        <time>2024-11-10T15:45:17Z</time>
      </trkpt>
      <trkpt lat="45.88885" lon="1.22345">
        <ele>383.4</ele>
        <time>2024-11-10T15:45:18Z</time>
      </trkpt>
      <trkpt lat="45.88885" lon="1.22337">
        <ele>383.3</ele>
        <time>2024-11-10T15:45:19Z</time>
      </trkpt>
      <trkpt lat="45.88884" lon="1.22329">
        <ele>383.2</ele>
        <time>2024-11-10T15:45:20Z</time>
      </trkpt>
      <trkpt lat="45.88883" lon="1.2232">
        <ele>383.1</ele>
        <time>2024-11-10T15:45:21Z</time>
      </trkpt>
      <trkpt lat="45.88882" lon="1.22312">
        <ele>383</ele>
        <time>2024-11-10T15:45:22Z</time>
      </trkpt>
      <trkpt lat="45.88881" lon="1.22302">
        <ele>382.8</ele>
        <time>2024-11-10T15:45:23Z</time>
      </trkpt>
      <trkpt lat="45.8888" lon="1.22293">
        <ele>382.7</ele>
        <time>2024-11-10T15:45:24Z</time>
      </trkpt>
      <trkpt lat="45.88878" lon="1.22283">
        <ele>382.6</ele>
        <time>2024-11-10T15:45:25Z</time>
      </trkpt>
      <trkpt lat="45.88876" lon="1.22274">
        <ele>382.5</ele>
        <time>2024-11-10T15:45:26Z</time>
      </trkpt>
      <trkpt lat="45.88873" lon="1.22266">
        <ele>382.5</ele>
        <time>2024-11-10T15:45:27Z</time>
      </trkpt>
      <trkpt lat="45.8887" lon="1.22258">
        <ele>382.5</ele>
        <time>2024-11-10T15:45:28Z</time>
      </trkpt>
      <trkpt lat="45.88866" lon="1.22251">
        <ele>382.4</ele>
        <time>2024-11-10T15:45:29Z</time>
      </trkpt>
      <trkpt lat="45.88861" lon="1.22245">
        <ele>382.4</ele>
        <time>2024-11-10T15:45:30Z</time>
      </trkpt>
      <trkpt lat="45.88856" lon="1.22239">
        <ele>382.4</ele>
        <time>2024-11-10T15:45:31Z</time>
      </trkpt>
      <trkpt lat="45.88851" lon="1.22235">
        <ele>382.4</ele>
        <time>2024-11-10T15:45:32Z</time>
      </trkpt>
      <trkpt lat="45.88846" lon="1.22231">
        <ele>382.4</ele>
        <time>2024-11-10T15:45:33Z</time>
      </trkpt>
      <trkpt lat="45.88841" lon="1.22226">
        <ele>382.4</ele>
        <time>2024-11-10T15:45:34Z</time>
      </trkpt>
      <trkpt lat="45.88836" lon="1.22222">
        <ele>382.4</ele>
        <time>2024-11-10T15:45:35Z</time>
      </trkpt>
      <trkpt lat="45.88831" lon="1.22218">
        <ele>382.4</ele>
        <time>2024-11-10T15:45:36Z</time>
      </trkpt>
      <trkpt lat="45.88826" lon="1.22213">
        <ele>382.4</ele>
        <time>2024-11-10T15:45:37Z</time>
      </trkpt>
      <trkpt lat="45.88821" lon="1.22208">
        <ele>382.4</ele>
        <time>2024-11-10T15:45:38Z</time>
      </trkpt>
      <trkpt lat="45.88817" lon="1.22202">
        <ele>382.3</ele>
        <time>2024-11-10T15:45:39Z</time>
      </trkpt>
      <trkpt lat="45.88812" lon="1.22197">
        <ele>382.3</ele>
        <time>2024-11-10T15:45:40Z</time>
      </trkpt>
      <trkpt lat="45.88808" lon="1.22191">
        <ele>382.2</ele>
        <time>2024-11-10T15:45:41Z</time>
      </trkpt>
      <trkpt lat="45.88805" lon="1.22185">
        <ele>382.2</ele>
        <time>2024-11-10T15:45:42Z</time>
      </trkpt>
      <trkpt lat="45.88801" lon="1.22179">
        <ele>382.2</ele>
        <time>2024-11-10T15:45:43Z</time>
      </trkpt>
      <trkpt lat="45.88797" lon="1.22173">
        <ele>382.1</ele>
        <time>2024-11-10T15:45:44Z</time>
      </trkpt>
      <trkpt lat="45.88793" lon="1.22166">
        <ele>382.1</ele>
        <time>2024-11-10T15:45:45Z</time>
      </trkpt>
      <trkpt lat="45.88789" lon="1.2216">
        <ele>382.1</ele>
        <time>2024-11-10T15:45:46Z</time>
      </trkpt>
      <trkpt lat="45.88785" lon="1.22153">
        <ele>382.1</ele>
        <time>2024-11-10T15:45:47Z</time>
      </trkpt>
      <trkpt lat="45.88781" lon="1.22147">
        <ele>382.1</ele>
        <time>2024-11-10T15:45:48Z</time>
      </trkpt>
      <trkpt lat="45.88776" lon="1.2214">
        <ele>382.1</ele>
        <time>2024-11-10T15:45:49Z</time>
      </trkpt>
      <trkpt lat="45.88772" lon="1.22134">
        <ele>382.1</ele>
        <time>2024-11-10T15:45:50Z</time>
      </trkpt>
      <trkpt lat="45.88768" lon="1.22128">
        <ele>382.2</ele>
        <time>2024-11-10T15:45:51Z</time>
      </trkpt>
      <trkpt lat="45.88764" lon="1.22122">
        <ele>382.2</ele>
        <time>2024-11-10T15:45:52Z</time>
      </trkpt>
      <trkpt lat="45.8876" lon="1.22117">
        <ele>382.2</ele>
        <time>2024-11-10T15:45:53Z</time>
      </trkpt>
      <trkpt lat="45.88756" lon="1.22111">
        <ele>382.3</ele>
        <time>2024-11-10T15:45:54Z</time>
      </trkpt>
      <trkpt lat="45.88752" lon="1.22106">
        <ele>382.4</ele>
        <time>2024-11-10T15:45:55Z</time>
      </trkpt>
      <trkpt lat="45.88748" lon="1.221">
        <ele>382.5</ele>
        <time>2024-11-10T15:45:56Z</time>
      </trkpt>
      <trkpt lat="45.88744" lon="1.22095">
        <ele>382.6</ele>
        <time>2024-11-10T15:45:57Z</time>
      </trkpt>
      <trkpt lat="45.88741" lon="1.2209">
        <ele>382.7</ele>
        <time>2024-11-10T15:45:58Z</time>
      </trkpt>
      <trkpt lat="45.88736" lon="1.22085">
        <ele>382.8</ele>
        <time>2024-11-10T15:45:59Z</time>
      </trkpt>
      <trkpt lat="45.88732" lon="1.2208">
        <ele>382.9</ele>
        <time>2024-11-10T15:46:00Z</time>
      </trkpt>
      <trkpt lat="45.88729" lon="1.22075">
        <ele>383</ele>
        <time>2024-11-10T15:46:01Z</time>
      </trkpt>
      <trkpt lat="45.88725" lon="1.2207">
        <ele>383.1</ele>
        <time>2024-11-10T15:46:02Z</time>
      </trkpt>
      <trkpt lat="45.88721" lon="1.22065">
        <ele>383.2</ele>
        <time>2024-11-10T15:46:03Z</time>
      </trkpt>
      <trkpt lat="45.88718" lon="1.2206">
        <ele>383.3</ele>
        <time>2024-11-10T15:46:04Z</time>
      </trkpt>
      <trkpt lat="45.88714" lon="1.22056">
        <ele>383.5</ele>
        <time>2024-11-10T15:46:05Z</time>
      </trkpt>
      <trkpt lat="45.8871" lon="1.22051">
        <ele>383.6</ele>
        <time>2024-11-10T15:46:06Z</time>
      </trkpt>
      <trkpt lat="45.88706" lon="1.22046">
        <ele>383.7</ele>
        <time>2024-11-10T15:46:07Z</time>
      </trkpt>
      <trkpt lat="45.88702" lon="1.22042">
        <ele>383.8</ele>
        <time>2024-11-10T15:46:08Z</time>
      </trkpt>
      <trkpt lat="45.88698" lon="1.22037">
        <ele>384</ele>
        <time>2024-11-10T15:46:09Z</time>
      </trkpt>
      <trkpt lat="45.88695" lon="1.22032">
        <ele>384.1</ele>
        <time>2024-11-10T15:46:10Z</time>
      </trkpt>
      <trkpt lat="45.88692" lon="1.22027">
        <ele>384.2</ele>
        <time>2024-11-10T15:46:11Z</time>
      </trkpt>
      <trkpt lat="45.88688" lon="1.22022">
        <ele>384.4</ele>
        <time>2024-11-10T15:46:12Z</time>
      </trkpt>
      <trkpt lat="45.88685" lon="1.22018">
        <ele>384.6</ele>
        <time>2024-11-10T15:46:13Z</time>
      </trkpt>
      <trkpt lat="45.88681" lon="1.22014">
        <ele>384.8</ele>
        <time>2024-11-10T15:46:14Z</time>
      </trkpt>
      <trkpt lat="45.88678" lon="1.22009">
        <ele>384.9</ele>
        <time>2024-11-10T15:46:15Z</time>
      </trkpt>
      <trkpt lat="45.88675" lon="1.22004">
        <ele>385.1</ele>
        <time>2024-11-10T15:46:16Z</time>
      </trkpt>
      <trkpt lat="45.88672" lon="1.22">
        <ele>385.3</ele>
        <time>2024-11-10T15:46:17Z</time>
      </trkpt>
      <trkpt lat="45.88668" lon="1.21995">
        <ele>385.5</ele>
        <time>2024-11-10T15:46:18Z</time>
      </trkpt>
      <trkpt lat="45.88665" lon="1.21991">
        <ele>385.6</ele>
        <time>2024-11-10T15:46:19Z</time>
      </trkpt>
      <trkpt lat="45.88662" lon="1.21987">
        <ele>385.8</ele>
        <time>2024-11-10T15:46:20Z</time>
      </trkpt>
      <trkpt lat="45.88659" lon="1.21983">
        <ele>385.9</ele>
        <time>2024-11-10T15:46:21Z</time>
      </trkpt>
      <trkpt lat="45.88655" lon="1.21979">
        <ele>386.1</ele>
        <time>2024-11-10T15:46:22Z</time>
      </trkpt>
      <trkpt lat="45.88652" lon="1.21975">
        <ele>386.3</ele>
        <time>2024-11-10T15:46:23Z</time>
      </trkpt>
      <trkpt lat="45.88648" lon="1.21972">
        <ele>386.5</ele>
        <time>2024-11-10T15:46:24Z</time>
      </trkpt>
      <trkpt lat="45.88645" lon="1.2197">
        <ele>386.6</ele>
        <time>2024-11-10T15:46:25Z</time>
      </trkpt>
      <trkpt lat="45.88641" lon="1.21968">
        <ele>386.8</ele>
        <time>2024-11-10T15:46:26Z</time>
      </trkpt>
      <trkpt lat="45.88637" lon="1.21966">
        <ele>386.9</ele>
        <time>2024-11-10T15:46:27Z</time>
      </trkpt>
      <trkpt lat="45.88633" lon="1.21965">
        <ele>387.1</ele>
        <time>2024-11-10T15:46:28Z</time>
      </trkpt>
      <trkpt lat="45.88628" lon="1.21964">
        <ele>387.3</ele>
        <time>2024-11-10T15:46:29Z</time>
      </trkpt>
      <trkpt lat="45.88624" lon="1.21963">
        <ele>387.4</ele>
        <time>2024-11-10T15:46:30Z</time>
      </trkpt>
      <trkpt lat="45.8862" lon="1.21963">
        <ele>387.5</ele>
        <time>2024-11-10T15:46:31Z</time>
      </trkpt>
      <trkpt lat="45.88615" lon="1.2196">
        <ele>387.6</ele>
        <time>2024-11-10T15:46:32Z</time>
      </trkpt>
      <trkpt lat="45.88611" lon="1.21959">
        <ele>387.7</ele>
        <time>2024-11-10T15:46:33Z</time>
      </trkpt>
      <trkpt lat="45.88606" lon="1.21959">
        <ele>387.9</ele>
        <time>2024-11-10T15:46:34Z</time>
      </trkpt>
      <trkpt lat="45.88602" lon="1.21959">
        <ele>388</ele>
        <time>2024-11-10T15:46:35Z</time>
      </trkpt>
      <trkpt lat="45.88597" lon="1.21959">
        <ele>388.1</ele>
        <time>2024-11-10T15:46:36Z</time>
      </trkpt>
      <trkpt lat="45.88592" lon="1.2196">
        <ele>388.3</ele>
        <time>2024-11-10T15:46:37Z</time>
      </trkpt>
      <trkpt lat="45.88588" lon="1.2196">
        <ele>388.4</ele>
        <time>2024-11-10T15:46:38Z</time>
      </trkpt>
      <trkpt lat="45.88583" lon="1.21961">
        <ele>388.5</ele>
        <time>2024-11-10T15:46:39Z</time>
      </trkpt>
      <trkpt lat="45.88579" lon="1.21961">
        <ele>388.6</ele>
        <time>2024-11-10T15:46:40Z</time>
      </trkpt>
      <trkpt lat="45.88574" lon="1.21962">
        <ele>388.7</ele>
        <time>2024-11-10T15:46:41Z</time>
      </trkpt>
      <trkpt lat="45.88569" lon="1.21962">
        <ele>388.8</ele>
        <time>2024-11-10T15:46:42Z</time>
      </trkpt>
      <trkpt lat="45.88565" lon="1.21962">
        <ele>388.9</ele>
        <time>2024-11-10T15:46:43Z</time>
      </trkpt>
      <trkpt lat="45.8856" lon="1.21962">
        <ele>389</ele>
        <time>2024-11-10T15:46:44Z</time>
      </trkpt>
      <trkpt lat="45.88556" lon="1.21962">
        <ele>389.1</ele>
        <time>2024-11-10T15:46:45Z</time>
      </trkpt>
      <trkpt lat="45.88551" lon="1.21961">
        <ele>389.2</ele>
        <time>2024-11-10T15:46:46Z</time>
      </trkpt>
      <trkpt lat="45.88547" lon="1.2196">
        <ele>389.2</ele>
        <time>2024-11-10T15:46:47Z</time>
      </trkpt>
      <trkpt lat="45.88543" lon="1.21959">
        <ele>389.3</ele>
        <time>2024-11-10T15:46:48Z</time>
      </trkpt>
      <trkpt lat="45.88539" lon="1.21958">
        <ele>389.3</ele>
        <time>2024-11-10T15:46:49Z</time>
      </trkpt>
      <trkpt lat="45.88536" lon="1.21957">
        <ele>389.3</ele>
        <time>2024-11-10T15:46:50Z</time>
      </trkpt>
      <trkpt lat="45.88533" lon="1.21957">
        <ele>389.3</ele>
        <time>2024-11-10T15:46:51Z</time>
      </trkpt>
      <trkpt lat="45.8853" lon="1.21957">
        <ele>389.3</ele>
        <time>2024-11-10T15:46:52Z</time>
      </trkpt>
      <trkpt lat="45.88526" lon="1.21958">
        <ele>389.3</ele>
        <time>2024-11-10T15:46:53Z</time>
      </trkpt>
      <trkpt lat="45.88521" lon="1.21959">
        <ele>389.4</ele>
        <time>2024-11-10T15:46:54Z</time>
      </trkpt>
      <trkpt lat="45.88517" lon="1.21961">
        <ele>389.5</ele>
        <time>2024-11-10T15:46:55Z</time>
      </trkpt>
      <trkpt lat="45.88513" lon="1.21964">
        <ele>389.6</ele>
        <time>2024-11-10T15:46:56Z</time>
      </trkpt>
      <trkpt lat="45.88508" lon="1.21967">
        <ele>389.7</ele>
        <time>2024-11-10T15:46:57Z</time>
      </trkpt>
      <trkpt lat="45.88504" lon="1.21969">
        <ele>389.7</ele>
        <time>2024-11-10T15:46:58Z</time>
      </trkpt>
      <trkpt lat="45.88499" lon="1.21971">
        <ele>389.8</ele>
        <time>2024-11-10T15:46:59Z</time>
      </trkpt>
      <trkpt lat="45.88495" lon="1.21973">
        <ele>389.9</ele>
        <time>2024-11-10T15:47:00Z</time>
      </trkpt>
      <trkpt lat="45.88491" lon="1.21975">
        <ele>390</ele>
        <time>2024-11-10T15:47:01Z</time>
      </trkpt>
      <trkpt lat="45.88487" lon="1.21976">
        <ele>390</ele>
        <time>2024-11-10T15:47:02Z</time>
      </trkpt>
      <trkpt lat="45.88483" lon="1.21977">
        <ele>390.1</ele>
        <time>2024-11-10T15:47:03Z</time>
      </trkpt>
      <trkpt lat="45.88479" lon="1.21977">
        <ele>390.2</ele>
        <time>2024-11-10T15:47:04Z</time>
      </trkpt>
      <trkpt lat="45.88475" lon="1.21976">
        <ele>390</ele>
        <time>2024-11-10T15:47:05Z</time>
      </trkpt>
      <trkpt lat="45.88473" lon="1.2197">
        <ele>389.8</ele>
        <time>2024-11-10T15:47:06Z</time>
      </trkpt>
      <trkpt lat="45.88471" lon="1.21965">
        <ele>389.6</ele>
        <time>2024-11-10T15:47:07Z</time>
      </trkpt>
      <trkpt lat="45.8847" lon="1.21958">
        <ele>389.3</ele>
        <time>2024-11-10T15:47:08Z</time>
      </trkpt>
      <trkpt lat="45.8847" lon="1.2195">
        <ele>389.1</ele>
        <time>2024-11-10T15:47:09Z</time>
      </trkpt>
      <trkpt lat="45.88469" lon="1.21942">
        <ele>388.8</ele>
        <time>2024-11-10T15:47:10Z</time>
      </trkpt>
      <trkpt lat="45.88468" lon="1.21933">
        <ele>388.5</ele>
        <time>2024-11-10T15:47:11Z</time>
      </trkpt>
      <trkpt lat="45.88467" lon="1.21924">
        <ele>388.3</ele>
        <time>2024-11-10T15:47:12Z</time>
      </trkpt>
      <trkpt lat="45.88466" lon="1.21915">
        <ele>388</ele>
        <time>2024-11-10T15:47:13Z</time>
      </trkpt>
      <trkpt lat="45.88464" lon="1.21906">
        <ele>387.8</ele>
        <time>2024-11-10T15:47:14Z</time>
      </trkpt>
      <trkpt lat="45.88463" lon="1.21896">
        <ele>387.6</ele>
        <time>2024-11-10T15:47:15Z</time>
      </trkpt>
      <trkpt lat="45.88461" lon="1.21887">
        <ele>387.4</ele>
        <time>2024-11-10T15:47:16Z</time>
      </trkpt>
      <trkpt lat="45.88459" lon="1.21878">
        <ele>387.2</ele>
        <time>2024-11-10T15:47:17Z</time>
      </trkpt>
      <trkpt lat="45.88456" lon="1.21869">
        <ele>387.1</ele>
        <time>2024-11-10T15:47:18Z</time>
      </trkpt>
      <trkpt lat="45.88453" lon="1.2186">
        <ele>387</ele>
        <time>2024-11-10T15:47:19Z</time>
      </trkpt>
      <trkpt lat="45.8845" lon="1.21853">
        <ele>386.8</ele>
        <time>2024-11-10T15:47:20Z</time>
      </trkpt>
      <trkpt lat="45.88447" lon="1.21845">
        <ele>386.7</ele>
        <time>2024-11-10T15:47:21Z</time>
      </trkpt>
      <trkpt lat="45.88444" lon="1.21837">
        <ele>386.6</ele>
        <time>2024-11-10T15:47:22Z</time>
      </trkpt>
      <trkpt lat="45.88441" lon="1.21829">
        <ele>386.5</ele>
        <time>2024-11-10T15:47:23Z</time>
      </trkpt>
      <trkpt lat="45.88438" lon="1.21822">
        <ele>386.4</ele>
        <time>2024-11-10T15:47:24Z</time>
      </trkpt>
      <trkpt lat="45.88435" lon="1.21814">
        <ele>386.3</ele>
        <time>2024-11-10T15:47:25Z</time>
      </trkpt>
      <trkpt lat="45.88431" lon="1.21807">
        <ele>386.2</ele>
        <time>2024-11-10T15:47:26Z</time>
      </trkpt>
      <trkpt lat="45.88428" lon="1.21799">
        <ele>386</ele>
        <time>2024-11-10T15:47:27Z</time>
      </trkpt>
      <trkpt lat="45.88425" lon="1.21792">
        <ele>385.9</ele>
        <time>2024-11-10T15:47:28Z</time>
      </trkpt>
      <trkpt lat="45.88423" lon="1.21785">
        <ele>385.8</ele>
        <time>2024-11-10T15:47:29Z</time>
      </trkpt>
      <trkpt lat="45.8842" lon="1.21777">
        <ele>385.6</ele>
        <time>2024-11-10T15:47:30Z</time>
      </trkpt>
      <trkpt lat="45.88418" lon="1.21769">
        <ele>385.5</ele>
        <time>2024-11-10T15:47:31Z</time>
      </trkpt>
      <trkpt lat="45.88416" lon="1.21761">
        <ele>385.4</ele>
        <time>2024-11-10T15:47:32Z</time>
      </trkpt>
      <trkpt lat="45.88413" lon="1.21754">
        <ele>385.3</ele>
        <time>2024-11-10T15:47:33Z</time>
      </trkpt>
      <trkpt lat="45.8841" lon="1.21746">
        <ele>385.1</ele>
        <time>2024-11-10T15:47:34Z</time>
      </trkpt>
      <trkpt lat="45.88407" lon="1.2174">
        <ele>385.1</ele>
        <time>2024-11-10T15:47:35Z</time>
      </trkpt>
      <trkpt lat="45.88403" lon="1.21737">
        <ele>385</ele>
        <time>2024-11-10T15:47:36Z</time>
      </trkpt>
      <trkpt lat="45.884" lon="1.21735">
        <ele>385</ele>
        <time>2024-11-10T15:47:37Z</time>
      </trkpt>
      <trkpt lat="45.88397" lon="1.21734">
        <ele>385</ele>
        <time>2024-11-10T15:47:38Z</time>
      </trkpt>
      <trkpt lat="45.88393" lon="1.21736">
        <ele>385</ele>
        <time>2024-11-10T15:47:39Z</time>
      </trkpt>
      <trkpt lat="45.8839" lon="1.21739">
        <ele>385</ele>
        <time>2024-11-10T15:47:40Z</time>
      </trkpt>
      <trkpt lat="45.88387" lon="1.21742">
        <ele>385.1</ele>
        <time>2024-11-10T15:47:41Z</time>
      </trkpt>
      <trkpt lat="45.88383" lon="1.21746">
        <ele>385.1</ele>
        <time>2024-11-10T15:47:42Z</time>
      </trkpt>
      <trkpt lat="45.8838" lon="1.21749">
        <ele>385</ele>
        <time>2024-11-10T15:47:43Z</time>
      </trkpt>
      <trkpt lat="45.88376" lon="1.21752">
        <ele>385</ele>
        <time>2024-11-10T15:47:44Z</time>
      </trkpt>
      <trkpt lat="45.88372" lon="1.21756">
        <ele>384.9</ele>
        <time>2024-11-10T15:47:45Z</time>
      </trkpt>
      <trkpt lat="45.88366" lon="1.21761">
        <ele>384.8</ele>
        <time>2024-11-10T15:47:46Z</time>
      </trkpt>
      <trkpt lat="45.88361" lon="1.21765">
        <ele>384.8</ele>
        <time>2024-11-10T15:47:47Z</time>
      </trkpt>
      <trkpt lat="45.88355" lon="1.21769">
        <ele>384.7</ele>
        <time>2024-11-10T15:47:48Z</time>
      </trkpt>
      <trkpt lat="45.8835" lon="1.21773">
        <ele>384.6</ele>
        <time>2024-11-10T15:47:49Z</time>
      </trkpt>
      <trkpt lat="45.88344" lon="1.21777">
        <ele>384.5</ele>
        <time>2024-11-10T15:47:50Z</time>
      </trkpt>
      <trkpt lat="45.88339" lon="1.21781">
        <ele>384.4</ele>
        <time>2024-11-10T15:47:51Z</time>
      </trkpt>
      <trkpt lat="45.88334" lon="1.21786">
        <ele>384.4</ele>
        <time>2024-11-10T15:47:52Z</time>
      </trkpt>
      <trkpt lat="45.88328" lon="1.2179">
        <ele>384.3</ele>
        <time>2024-11-10T15:47:53Z</time>
      </trkpt>
      <trkpt lat="45.88323" lon="1.21793">
        <ele>384.2</ele>
        <time>2024-11-10T15:47:54Z</time>
      </trkpt>
      <trkpt lat="45.88318" lon="1.21797">
        <ele>384.1</ele>
        <time>2024-11-10T15:47:55Z</time>
      </trkpt>
      <trkpt lat="45.88312" lon="1.21801">
        <ele>384.1</ele>
        <time>2024-11-10T15:47:56Z</time>
      </trkpt>
      <trkpt lat="45.88307" lon="1.21805">
        <ele>384.1</ele>
        <time>2024-11-10T15:47:57Z</time>
      </trkpt>
      <trkpt lat="45.88301" lon="1.21809">
        <ele>384.1</ele>
        <time>2024-11-10T15:47:58Z</time>
      </trkpt>
      <trkpt lat="45.88296" lon="1.21813">
        <ele>384.1</ele>
        <time>2024-11-10T15:47:59Z</time>
      </trkpt>
      <trkpt lat="45.88291" lon="1.21816">
        <ele>384.2</ele>
        <time>2024-11-10T15:48:00Z</time>
      </trkpt>
      <trkpt lat="45.88286" lon="1.21819">
        <ele>384.2</ele>
        <time>2024-11-10T15:48:01Z</time>
      </trkpt>
      <trkpt lat="45.88282" lon="1.21823">
        <ele>384.3</ele>
        <time>2024-11-10T15:48:02Z</time>
      </trkpt>
      <trkpt lat="45.88278" lon="1.21826">
        <ele>384.3</ele>
        <time>2024-11-10T15:48:03Z</time>
      </trkpt>
      <trkpt lat="45.88274" lon="1.21829">
        <ele>384.4</ele>
        <time>2024-11-10T15:48:04Z</time>
      </trkpt>
      <trkpt lat="45.8827" lon="1.21832">
        <ele>384.4</ele>
        <time>2024-11-10T15:48:05Z</time>
      </trkpt>
      <trkpt lat="45.88266" lon="1.21835">
        <ele>384.4</ele>
        <time>2024-11-10T15:48:06Z</time>
      </trkpt>
      <trkpt lat="45.88263" lon="1.21837">
        <ele>384.4</ele>
        <time>2024-11-10T15:48:07Z</time>
      </trkpt>
      <trkpt lat="45.88259" lon="1.2184">
        <ele>384.4</ele>
        <time>2024-11-10T15:48:08Z</time>
      </trkpt>
      <trkpt lat="45.88256" lon="1.21844">
        <ele>384.4</ele>
        <time>2024-11-10T15:48:09Z</time>
      </trkpt>
      <trkpt lat="45.88253" lon="1.21848">
        <ele>384.3</ele>
        <time>2024-11-10T15:48:10Z</time>
      </trkpt>
      <trkpt lat="45.88249" lon="1.21851">
        <ele>384.2</ele>
        <time>2024-11-10T15:48:11Z</time>
      </trkpt>
      <trkpt lat="45.88245" lon="1.21855">
        <ele>384.1</ele>
        <time>2024-11-10T15:48:12Z</time>
      </trkpt>
      <trkpt lat="45.88242" lon="1.21858">
        <ele>384</ele>
        <time>2024-11-10T15:48:13Z</time>
      </trkpt>
      <trkpt lat="45.88237" lon="1.21862">
        <ele>383.8</ele>
        <time>2024-11-10T15:48:14Z</time>
      </trkpt>
      <trkpt lat="45.88233" lon="1.21864">
        <ele>383.6</ele>
        <time>2024-11-10T15:48:15Z</time>
      </trkpt>
      <trkpt lat="45.88228" lon="1.21866">
        <ele>383.4</ele>
        <time>2024-11-10T15:48:16Z</time>
      </trkpt>
      <trkpt lat="45.88223" lon="1.21867">
        <ele>383.1</ele>
        <time>2024-11-10T15:48:17Z</time>
      </trkpt>
      <trkpt lat="45.88218" lon="1.2187">
        <ele>382.9</ele>
        <time>2024-11-10T15:48:18Z</time>
      </trkpt>
      <trkpt lat="45.88213" lon="1.21873">
        <ele>382.6</ele>
        <time>2024-11-10T15:48:19Z</time>
      </trkpt>
      <trkpt lat="45.88207" lon="1.21876">
        <ele>382.3</ele>
        <time>2024-11-10T15:48:20Z</time>
      </trkpt>
      <trkpt lat="45.88203" lon="1.21877">
        <ele>382.2</ele>
        <time>2024-11-10T15:48:21Z</time>
      </trkpt>
      <trkpt lat="45.88197" lon="1.21879">
        <ele>382</ele>
        <time>2024-11-10T15:48:22Z</time>
      </trkpt>
      <trkpt lat="45.88192" lon="1.21882">
        <ele>381.8</ele>
        <time>2024-11-10T15:48:23Z</time>
      </trkpt>
      <trkpt lat="45.88187" lon="1.21884">
        <ele>381.7</ele>
        <time>2024-11-10T15:48:24Z</time>
      </trkpt>
      <trkpt lat="45.88182" lon="1.21886">
        <ele>381.5</ele>
        <time>2024-11-10T15:48:25Z</time>
      </trkpt>
      <trkpt lat="45.88178" lon="1.21888">
        <ele>381.4</ele>
        <time>2024-11-10T15:48:26Z</time>
      </trkpt>
      <trkpt lat="45.88173" lon="1.21888">
        <ele>381.3</ele>
        <time>2024-11-10T15:48:27Z</time>
      </trkpt>
      <trkpt lat="45.88169" lon="1.21889">
        <ele>381.1</ele>
        <time>2024-11-10T15:48:28Z</time>
      </trkpt>
      <trkpt lat="45.88165" lon="1.21891">
        <ele>381</ele>
        <time>2024-11-10T15:48:29Z</time>
      </trkpt>
      <trkpt lat="45.8816" lon="1.21895">
        <ele>380.9</ele>
        <time>2024-11-10T15:48:30Z</time>
      </trkpt>
      <trkpt lat="45.88155" lon="1.21898">
        <ele>380.8</ele>
        <time>2024-11-10T15:48:31Z</time>
      </trkpt>
      <trkpt lat="45.88149" lon="1.21902">
        <ele>380.6</ele>
        <time>2024-11-10T15:48:32Z</time>
      </trkpt>
      <trkpt lat="45.88144" lon="1.21906">
        <ele>380.5</ele>
        <time>2024-11-10T15:48:33Z</time>
      </trkpt>
      <trkpt lat="45.88138" lon="1.2191">
        <ele>380.4</ele>
        <time>2024-11-10T15:48:34Z</time>
      </trkpt>
      <trkpt lat="45.88133" lon="1.21915">
        <ele>380.3</ele>
        <time>2024-11-10T15:48:35Z</time>
      </trkpt>
      <trkpt lat="45.88128" lon="1.21919">
        <ele>380.2</ele>
        <time>2024-11-10T15:48:36Z</time>
      </trkpt>
      <trkpt lat="45.88123" lon="1.21923">
        <ele>380.1</ele>
        <time>2024-11-10T15:48:37Z</time>
      </trkpt>
      <trkpt lat="45.88119" lon="1.21927">
        <ele>380</ele>
        <time>2024-11-10T15:48:38Z</time>
      </trkpt>
      <trkpt lat="45.88115" lon="1.21931">
        <ele>380</ele>
        <time>2024-11-10T15:48:39Z</time>
      </trkpt>
      <trkpt lat="45.88111" lon="1.21935">
        <ele>379.9</ele>
        <time>2024-11-10T15:48:40Z</time>
      </trkpt>
      <trkpt lat="45.88107" lon="1.21941">
        <ele>379.9</ele>
        <time>2024-11-10T15:48:41Z</time>
      </trkpt>
      <trkpt lat="45.88103" lon="1.21946">
        <ele>379.8</ele>
        <time>2024-11-10T15:48:42Z</time>
      </trkpt>
      <trkpt lat="45.88099" lon="1.21952">
        <ele>379.8</ele>
        <time>2024-11-10T15:48:43Z</time>
      </trkpt>
      <trkpt lat="45.88095" lon="1.21957">
        <ele>379.7</ele>
        <time>2024-11-10T15:48:44Z</time>
      </trkpt>
      <trkpt lat="45.88092" lon="1.21962">
        <ele>379.7</ele>
        <time>2024-11-10T15:48:45Z</time>
      </trkpt>
      <trkpt lat="45.88089" lon="1.21966">
        <ele>379.7</ele>
        <time>2024-11-10T15:48:46Z</time>
      </trkpt>
      <trkpt lat="45.88086" lon="1.21969">
        <ele>379.6</ele>
        <time>2024-11-10T15:48:47Z</time>
      </trkpt>
      <trkpt lat="45.88083" lon="1.21974">
        <ele>379.6</ele>
        <time>2024-11-10T15:48:49Z</time>
      </trkpt>
      <trkpt lat="45.88082" lon="1.21978">
        <ele>379.6</ele>
        <time>2024-11-10T15:48:50Z</time>
      </trkpt>
      <trkpt lat="45.88082" lon="1.21983">
        <ele>379.7</ele>
        <time>2024-11-10T15:48:51Z</time>
      </trkpt>
      <trkpt lat="45.88082" lon="1.21988">
        <ele>379.7</ele>
        <time>2024-11-10T15:48:52Z</time>
      </trkpt>
      <trkpt lat="45.88084" lon="1.21994">
        <ele>379.8</ele>
        <time>2024-11-10T15:48:53Z</time>
      </trkpt>
      <trkpt lat="45.88086" lon="1.22">
        <ele>379.9</ele>
        <time>2024-11-10T15:48:54Z</time>
      </trkpt>
      <trkpt lat="45.88088" lon="1.22007">
        <ele>380</ele>
        <time>2024-11-10T15:48:55Z</time>
      </trkpt>
      <trkpt lat="45.8809" lon="1.22013">
        <ele>380</ele>
        <time>2024-11-10T15:48:56Z</time>
      </trkpt>
      <trkpt lat="45.88093" lon="1.2202">
        <ele>380.1</ele>
        <time>2024-11-10T15:48:57Z</time>
      </trkpt>
      <trkpt lat="45.88095" lon="1.22027">
        <ele>380.1</ele>
        <time>2024-11-10T15:48:58Z</time>
      </trkpt>
      <trkpt lat="45.88098" lon="1.22034">
        <ele>380.1</ele>
        <time>2024-11-10T15:48:59Z</time>
      </trkpt>
      <trkpt lat="45.881" lon="1.22042">
        <ele>380.1</ele>
        <time>2024-11-10T15:49:00Z</time>
      </trkpt>
      <trkpt lat="45.88102" lon="1.22049">
        <ele>380</ele>
        <time>2024-11-10T15:49:01Z</time>
      </trkpt>
      <trkpt lat="45.88105" lon="1.22057">
        <ele>380</ele>
        <time>2024-11-10T15:49:02Z</time>
      </trkpt>
      <trkpt lat="45.88107" lon="1.22065">
        <ele>379.9</ele>
        <time>2024-11-10T15:49:03Z</time>
      </trkpt>
      <trkpt lat="45.88109" lon="1.22072">
        <ele>379.8</ele>
        <time>2024-11-10T15:49:04Z</time>
      </trkpt>
      <trkpt lat="45.88111" lon="1.22079">
        <ele>379.7</ele>
        <time>2024-11-10T15:49:05Z</time>
      </trkpt>
      <trkpt lat="45.88113" lon="1.22087">
        <ele>379.6</ele>
        <time>2024-11-10T15:49:06Z</time>
      </trkpt>
      <trkpt lat="45.88116" lon="1.22094">
        <ele>379.5</ele>
        <time>2024-11-10T15:49:07Z</time>
      </trkpt>
      <trkpt lat="45.88117" lon="1.22102">
        <ele>379.5</ele>
        <time>2024-11-10T15:49:08Z</time>
      </trkpt>
      <trkpt lat="45.88118" lon="1.2211">
        <ele>379.4</ele>
        <time>2024-11-10T15:49:09Z</time>
      </trkpt>
      <trkpt lat="45.88117" lon="1.22118">
        <ele>379</ele>
        <time>2024-11-10T15:49:10Z</time>
      </trkpt>
      <trkpt lat="45.88115" lon="1.22126">
        <ele>378.6</ele>
        <time>2024-11-10T15:49:11Z</time>
      </trkpt>
      <trkpt lat="45.88112" lon="1.22134">
        <ele>378.1</ele>
        <time>2024-11-10T15:49:12Z</time>
      </trkpt>
      <trkpt lat="45.88108" lon="1.22141">
        <ele>377.7</ele>
        <time>2024-11-10T15:49:13Z</time>
      </trkpt>
      <trkpt lat="45.88103" lon="1.22149">
        <ele>377.2</ele>
        <time>2024-11-10T15:49:14Z</time>
      </trkpt>
      <trkpt lat="45.88098" lon="1.22156">
        <ele>376.7</ele>
        <time>2024-11-10T15:49:15Z</time>
      </trkpt>
      <trkpt lat="45.88092" lon="1.22164">
        <ele>376.2</ele>
        <time>2024-11-10T15:49:16Z</time>
      </trkpt>
      <trkpt lat="45.88086" lon="1.22171">
        <ele>375.8</ele>
        <time>2024-11-10T15:49:17Z</time>
      </trkpt>
      <trkpt lat="45.8808" lon="1.22179">
        <ele>375.3</ele>
        <time>2024-11-10T15:49:18Z</time>
      </trkpt>
      <trkpt lat="45.88074" lon="1.22188">
        <ele>374.8</ele>
        <time>2024-11-10T15:49:19Z</time>
      </trkpt>
      <trkpt lat="45.88067" lon="1.22196">
        <ele>374.4</ele>
        <time>2024-11-10T15:49:20Z</time>
      </trkpt>
      <trkpt lat="45.8806" lon="1.22204">
        <ele>373.9</ele>
        <time>2024-11-10T15:49:21Z</time>
      </trkpt>
      <trkpt lat="45.88054" lon="1.22212">
        <ele>373.5</ele>
        <time>2024-11-10T15:49:22Z</time>
      </trkpt>
      <trkpt lat="45.88047" lon="1.22221">
        <ele>373</ele>
        <time>2024-11-10T15:49:23Z</time>
      </trkpt>
      <trkpt lat="45.88041" lon="1.22229">
        <ele>372.7</ele>
        <time>2024-11-10T15:49:24Z</time>
      </trkpt>
      <trkpt lat="45.88035" lon="1.22238">
        <ele>372.3</ele>
        <time>2024-11-10T15:49:25Z</time>
      </trkpt>
      <trkpt lat="45.88028" lon="1.22246">
        <ele>371.9</ele>
        <time>2024-11-10T15:49:26Z</time>
      </trkpt>
      <trkpt lat="45.88022" lon="1.22255">
        <ele>371.5</ele>
        <time>2024-11-10T15:49:27Z</time>
      </trkpt>
      <trkpt lat="45.88015" lon="1.22263">
        <ele>371.1</ele>
        <time>2024-11-10T15:49:28Z</time>
      </trkpt>
      <trkpt lat="45.88009" lon="1.22272">
        <ele>370.7</ele>
        <time>2024-11-10T15:49:29Z</time>
      </trkpt>
      <trkpt lat="45.88002" lon="1.2228">
        <ele>370.3</ele>
        <time>2024-11-10T15:49:30Z</time>
      </trkpt>
      <trkpt lat="45.87997" lon="1.22288">
        <ele>369.9</ele>
        <time>2024-11-10T15:49:31Z</time>
      </trkpt>
      <trkpt lat="45.87991" lon="1.22296">
        <ele>369.5</ele>
        <time>2024-11-10T15:49:32Z</time>
      </trkpt>
      <trkpt lat="45.87987" lon="1.22303">
        <ele>369.2</ele>
        <time>2024-11-10T15:49:33Z</time>
      </trkpt>
      <trkpt lat="45.87982" lon="1.22308">
        <ele>368.6</ele>
        <time>2024-11-10T15:49:34Z</time>
      </trkpt>
      <trkpt lat="45.87978" lon="1.2231">
        <ele>368.7</ele>
        <time>2024-11-10T15:49:35Z</time>
      </trkpt>
      <trkpt lat="45.87975" lon="1.22309">
        <ele>368.7</ele>
        <time>2024-11-10T15:49:36Z</time>
      </trkpt>
      <trkpt lat="45.87971" lon="1.22306">
        <ele>368.8</ele>
        <time>2024-11-10T15:49:37Z</time>
      </trkpt>
      <trkpt lat="45.87967" lon="1.22301">
        <ele>369</ele>
        <time>2024-11-10T15:49:38Z</time>
      </trkpt>
      <trkpt lat="45.87964" lon="1.22295">
        <ele>369.1</ele>
        <time>2024-11-10T15:49:39Z</time>
      </trkpt>
      <trkpt lat="45.87961" lon="1.22289">
        <ele>369.3</ele>
        <time>2024-11-10T15:49:40Z</time>
      </trkpt>
      <trkpt lat="45.87958" lon="1.22284">
        <ele>369.4</ele>
        <time>2024-11-10T15:49:41Z</time>
      </trkpt>
      <trkpt lat="45.87955" lon="1.22277">
        <ele>369.5</ele>
        <time>2024-11-10T15:49:42Z</time>
      </trkpt>
      <trkpt lat="45.87951" lon="1.22271">
        <ele>369.7</ele>
        <time>2024-11-10T15:49:43Z</time>
      </trkpt>
      <trkpt lat="45.87947" lon="1.22264">
        <ele>369.8</ele>
        <time>2024-11-10T15:49:44Z</time>
      </trkpt>
      <trkpt lat="45.87944" lon="1.22258">
        <ele>369.9</ele>
        <time>2024-11-10T15:49:45Z</time>
      </trkpt>
      <trkpt lat="45.8794" lon="1.22252">
        <ele>370</ele>
        <time>2024-11-10T15:49:46Z</time>
      </trkpt>
      <trkpt lat="45.87936" lon="1.22245">
        <ele>370.1</ele>
        <time>2024-11-10T15:49:47Z</time>
      </trkpt>
      <trkpt lat="45.87933" lon="1.22238">
        <ele>370.1</ele>
        <time>2024-11-10T15:49:48Z</time>
      </trkpt>
      <trkpt lat="45.8793" lon="1.22232">
        <ele>370.2</ele>
        <time>2024-11-10T15:49:49Z</time>
      </trkpt>
      <trkpt lat="45.87926" lon="1.22226">
        <ele>370.2</ele>
        <time>2024-11-10T15:49:50Z</time>
      </trkpt>
      <trkpt lat="45.87922" lon="1.22221">
        <ele>370.2</ele>
        <time>2024-11-10T15:49:51Z</time>
      </trkpt>
      <trkpt lat="45.87917" lon="1.22218">
        <ele>370.2</ele>
        <time>2024-11-10T15:49:52Z</time>
      </trkpt>
      <trkpt lat="45.87911" lon="1.22217">
        <ele>370.1</ele>
        <time>2024-11-10T15:49:53Z</time>
      </trkpt>
      <trkpt lat="45.87905" lon="1.22218">
        <ele>370</ele>
        <time>2024-11-10T15:49:54Z</time>
      </trkpt>
      <trkpt lat="45.87899" lon="1.2222">
        <ele>369.8</ele>
        <time>2024-11-10T15:49:55Z</time>
      </trkpt>
      <trkpt lat="45.87894" lon="1.22223">
        <ele>369.7</ele>
        <time>2024-11-10T15:49:56Z</time>
      </trkpt>
      <trkpt lat="45.87888" lon="1.22227">
        <ele>369.5</ele>
        <time>2024-11-10T15:49:57Z</time>
      </trkpt>
      <trkpt lat="45.87882" lon="1.2223">
        <ele>369.3</ele>
        <time>2024-11-10T15:49:58Z</time>
      </trkpt>
      <trkpt lat="45.87875" lon="1.22234">
        <ele>369.1</ele>
        <time>2024-11-10T15:49:59Z</time>
      </trkpt>
      <trkpt lat="45.87869" lon="1.22238">
        <ele>369</ele>
        <time>2024-11-10T15:50:00Z</time>
      </trkpt>
      <trkpt lat="45.87863" lon="1.22242">
        <ele>368.8</ele>
        <time>2024-11-10T15:50:01Z</time>
      </trkpt>
      <trkpt lat="45.87856" lon="1.22246">
        <ele>368.6</ele>
        <time>2024-11-10T15:50:02Z</time>
      </trkpt>
      <trkpt lat="45.87849" lon="1.2225">
        <ele>368.4</ele>
        <time>2024-11-10T15:50:03Z</time>
      </trkpt>
      <trkpt lat="45.87843" lon="1.22254">
        <ele>368.3</ele>
        <time>2024-11-10T15:50:04Z</time>
      </trkpt>
      <trkpt lat="45.87837" lon="1.22257">
        <ele>368.1</ele>
        <time>2024-11-10T15:50:05Z</time>
      </trkpt>
      <trkpt lat="45.8783" lon="1.22261">
        <ele>368</ele>
        <time>2024-11-10T15:50:06Z</time>
      </trkpt>
      <trkpt lat="45.87824" lon="1.22264">
        <ele>367.8</ele>
        <time>2024-11-10T15:50:07Z</time>
      </trkpt>
      <trkpt lat="45.87817" lon="1.22267">
        <ele>367.6</ele>
        <time>2024-11-10T15:50:08Z</time>
      </trkpt>
      <trkpt lat="45.87811" lon="1.2227">
        <ele>367.3</ele>
        <time>2024-11-10T15:50:09Z</time>
      </trkpt>
      <trkpt lat="45.87804" lon="1.22274">
        <ele>367</ele>
        <time>2024-11-10T15:50:10Z</time>
      </trkpt>
      <trkpt lat="45.87797" lon="1.22277">
        <ele>366.8</ele>
        <time>2024-11-10T15:50:11Z</time>
      </trkpt>
      <trkpt lat="45.8779" lon="1.2228">
        <ele>366.5</ele>
        <time>2024-11-10T15:50:12Z</time>
      </trkpt>
      <trkpt lat="45.87783" lon="1.22284">
        <ele>366.2</ele>
        <time>2024-11-10T15:50:13Z</time>
      </trkpt>
      <trkpt lat="45.87776" lon="1.22288">
        <ele>365.8</ele>
        <time>2024-11-10T15:50:14Z</time>
      </trkpt>
      <trkpt lat="45.87768" lon="1.22292">
        <ele>365.5</ele>
        <time>2024-11-10T15:50:15Z</time>
      </trkpt>
      <trkpt lat="45.87761" lon="1.22296">
        <ele>365.3</ele>
        <time>2024-11-10T15:50:16Z</time>
      </trkpt>
      <trkpt lat="45.87753" lon="1.223">
        <ele>365</ele>
        <time>2024-11-10T15:50:17Z</time>
      </trkpt>
      <trkpt lat="45.87745" lon="1.22305">
        <ele>364.7</ele>
        <time>2024-11-10T15:50:18Z</time>
      </trkpt>
      <trkpt lat="45.87737" lon="1.22309">
        <ele>364.3</ele>
        <time>2024-11-10T15:50:19Z</time>
      </trkpt>
      <trkpt lat="45.87729" lon="1.22314">
        <ele>363.8</ele>
        <time>2024-11-10T15:50:20Z</time>
      </trkpt>
      <trkpt lat="45.87721" lon="1.22318">
        <ele>363.4</ele>
        <time>2024-11-10T15:50:21Z</time>
      </trkpt>
      <trkpt lat="45.87713" lon="1.22323">
        <ele>362.9</ele>
        <time>2024-11-10T15:50:22Z</time>
      </trkpt>
      <trkpt lat="45.87707" lon="1.22326">
        <ele>362.7</ele>
        <time>2024-11-10T15:50:23Z</time>
      </trkpt>
      <trkpt lat="45.87701" lon="1.2233">
        <ele>362.3</ele>
        <time>2024-11-10T15:50:24Z</time>
      </trkpt>
      <trkpt lat="45.87696" lon="1.22333">
        <ele>362</ele>
        <time>2024-11-10T15:50:25Z</time>
      </trkpt>
      <trkpt lat="45.87695" lon="1.22332">
        <ele>361.9</ele>
        <time>2024-11-10T15:50:26Z</time>
      </trkpt>
      <trkpt lat="45.87693" lon="1.22333">
        <ele>361.7</ele>
        <time>2024-11-10T15:50:27Z</time>
      </trkpt>
      <trkpt lat="45.8769" lon="1.22334">
        <ele>361.5</ele>
        <time>2024-11-10T15:50:28Z</time>
      </trkpt>
      <trkpt lat="45.87687" lon="1.22336">
        <ele>361.2</ele>
        <time>2024-11-10T15:50:29Z</time>
      </trkpt>
      <trkpt lat="45.87683" lon="1.22338">
        <ele>360.8</ele>
        <time>2024-11-10T15:50:30Z</time>
      </trkpt>
      <trkpt lat="45.87679" lon="1.22341">
        <ele>360.4</ele>
        <time>2024-11-10T15:50:31Z</time>
      </trkpt>
      <trkpt lat="45.87674" lon="1.22345">
        <ele>360</ele>
        <time>2024-11-10T15:50:32Z</time>
      </trkpt>
      <trkpt lat="45.8767" lon="1.22346">
        <ele>359.6</ele>
        <time>2024-11-10T15:50:33Z</time>
      </trkpt>
      <trkpt lat="45.87665" lon="1.22342">
        <ele>359.9</ele>
        <time>2024-11-10T15:50:35Z</time>
      </trkpt>
      <trkpt lat="45.87661" lon="1.22338">
        <ele>360.2</ele>
        <time>2024-11-10T15:50:36Z</time>
      </trkpt>
      <trkpt lat="45.87657" lon="1.22333">
        <ele>360.3</ele>
        <time>2024-11-10T15:50:37Z</time>
      </trkpt>
      <trkpt lat="45.87653" lon="1.22327">
        <ele>360.5</ele>
        <time>2024-11-10T15:50:38Z</time>
      </trkpt>
      <trkpt lat="45.87649" lon="1.22321">
        <ele>360.5</ele>
        <time>2024-11-10T15:50:39Z</time>
      </trkpt>
      <trkpt lat="45.87645" lon="1.22319">
        <ele>360.5</ele>
        <time>2024-11-10T15:50:40Z</time>
      </trkpt>
      <trkpt lat="45.87642" lon="1.22316">
        <ele>360.4</ele>
        <time>2024-11-10T15:50:41Z</time>
      </trkpt>
      <trkpt lat="45.87637" lon="1.22314">
        <ele>360.3</ele>
        <time>2024-11-10T15:50:42Z</time>
      </trkpt>
      <trkpt lat="45.87633" lon="1.22311">
        <ele>360.2</ele>
        <time>2024-11-10T15:50:43Z</time>
      </trkpt>
      <trkpt lat="45.87628" lon="1.22308">
        <ele>360</ele>
        <time>2024-11-10T15:50:44Z</time>
      </trkpt>
      <trkpt lat="45.87621" lon="1.22305">
        <ele>359.8</ele>
        <time>2024-11-10T15:50:45Z</time>
      </trkpt>
      <trkpt lat="45.87616" lon="1.22301">
        <ele>359.6</ele>
        <time>2024-11-10T15:50:46Z</time>
      </trkpt>
      <trkpt lat="45.8761" lon="1.22297">
        <ele>359.4</ele>
        <time>2024-11-10T15:50:47Z</time>
      </trkpt>
      <trkpt lat="45.87603" lon="1.22293">
        <ele>359.2</ele>
        <time>2024-11-10T15:50:48Z</time>
      </trkpt>
      <trkpt lat="45.87599" lon="1.22289">
        <ele>359.1</ele>
        <time>2024-11-10T15:50:49Z</time>
      </trkpt>
      <trkpt lat="45.87593" lon="1.22286">
        <ele>358.9</ele>
        <time>2024-11-10T15:50:50Z</time>
      </trkpt>
      <trkpt lat="45.87587" lon="1.22283">
        <ele>358.7</ele>
        <time>2024-11-10T15:50:51Z</time>
      </trkpt>
      <trkpt lat="45.8758" lon="1.22282">
        <ele>358.5</ele>
        <time>2024-11-10T15:50:52Z</time>
      </trkpt>
      <trkpt lat="45.87574" lon="1.22281">
        <ele>358.3</ele>
        <time>2024-11-10T15:50:53Z</time>
      </trkpt>
      <trkpt lat="45.87568" lon="1.22279">
        <ele>358.1</ele>
        <time>2024-11-10T15:50:54Z</time>
      </trkpt>
      <trkpt lat="45.8756" lon="1.22276">
        <ele>357.7</ele>
        <time>2024-11-10T15:50:55Z</time>
      </trkpt>
      <trkpt lat="45.87554" lon="1.22273">
        <ele>357.4</ele>
        <time>2024-11-10T15:50:56Z</time>
      </trkpt>
      <trkpt lat="45.87546" lon="1.22268">
        <ele>357.1</ele>
        <time>2024-11-10T15:50:57Z</time>
      </trkpt>
      <trkpt lat="45.87538" lon="1.22262">
        <ele>356.8</ele>
        <time>2024-11-10T15:50:58Z</time>
      </trkpt>
      <trkpt lat="45.87533" lon="1.22253">
        <ele>356.6</ele>
        <time>2024-11-10T15:50:59Z</time>
      </trkpt>
      <trkpt lat="45.87528" lon="1.22246">
        <ele>356.3</ele>
        <time>2024-11-10T15:51:00Z</time>
      </trkpt>
      <trkpt lat="45.87524" lon="1.22238">
        <ele>356.1</ele>
        <time>2024-11-10T15:51:01Z</time>
      </trkpt>
      <trkpt lat="45.8752" lon="1.22231">
        <ele>355.8</ele>
        <time>2024-11-10T15:51:02Z</time>
      </trkpt>
      <trkpt lat="45.87517" lon="1.22222">
        <ele>355.6</ele>
        <time>2024-11-10T15:51:03Z</time>
      </trkpt>
      <trkpt lat="45.87516" lon="1.22211">
        <ele>355.3</ele>
        <time>2024-11-10T15:51:04Z</time>
      </trkpt>
      <trkpt lat="45.87516" lon="1.22199">
        <ele>355</ele>
        <time>2024-11-10T15:51:05Z</time>
      </trkpt>
      <trkpt lat="45.87516" lon="1.22189">
        <ele>354.8</ele>
        <time>2024-11-10T15:51:06Z</time>
      </trkpt>
      <trkpt lat="45.87518" lon="1.22179">
        <ele>354.6</ele>
        <time>2024-11-10T15:51:07Z</time>
      </trkpt>
      <trkpt lat="45.87519" lon="1.22169">
        <ele>354.5</ele>
        <time>2024-11-10T15:51:08Z</time>
      </trkpt>
      <trkpt lat="45.87522" lon="1.2216">
        <ele>354.4</ele>
        <time>2024-11-10T15:51:09Z</time>
      </trkpt>
      <trkpt lat="45.87524" lon="1.22151">
        <ele>354.4</ele>
        <time>2024-11-10T15:51:10Z</time>
      </trkpt>
      <trkpt lat="45.87528" lon="1.22143">
        <ele>354.4</ele>
        <time>2024-11-10T15:51:11Z</time>
      </trkpt>
      <trkpt lat="45.87534" lon="1.22134">
        <ele>354.3</ele>
        <time>2024-11-10T15:51:12Z</time>
      </trkpt>
      <trkpt lat="45.87537" lon="1.22126">
        <ele>354.3</ele>
        <time>2024-11-10T15:51:13Z</time>
      </trkpt>
      <trkpt lat="45.87541" lon="1.2212">
        <ele>354.3</ele>
        <time>2024-11-10T15:51:14Z</time>
      </trkpt>
      <trkpt lat="45.87545" lon="1.22114">
        <ele>354.2</ele>
        <time>2024-11-10T15:51:15Z</time>
      </trkpt>
      <trkpt lat="45.87548" lon="1.22108">
        <ele>354.1</ele>
        <time>2024-11-10T15:51:16Z</time>
      </trkpt>
      <trkpt lat="45.8755" lon="1.22103">
        <ele>354</ele>
        <time>2024-11-10T15:51:17Z</time>
      </trkpt>
      <trkpt lat="45.87552" lon="1.22097">
        <ele>353.9</ele>
        <time>2024-11-10T15:51:18Z</time>
      </trkpt>
      <trkpt lat="45.87553" lon="1.2209">
        <ele>353.4</ele>
        <time>2024-11-10T15:51:19Z</time>
      </trkpt>
      <trkpt lat="45.87551" lon="1.22083">
        <ele>352.8</ele>
        <time>2024-11-10T15:51:20Z</time>
      </trkpt>
      <trkpt lat="45.87544" lon="1.22078">
        <ele>351.9</ele>
        <time>2024-11-10T15:51:21Z</time>
      </trkpt>
      <trkpt lat="45.87538" lon="1.22072">
        <ele>351.1</ele>
        <time>2024-11-10T15:51:22Z</time>
      </trkpt>
      <trkpt lat="45.87531" lon="1.22068">
        <ele>350.3</ele>
        <time>2024-11-10T15:51:23Z</time>
      </trkpt>
      <trkpt lat="45.87524" lon="1.22064">
        <ele>349.6</ele>
        <time>2024-11-10T15:51:24Z</time>
      </trkpt>
      <trkpt lat="45.87519" lon="1.22062">
        <ele>349.3</ele>
        <time>2024-11-10T15:51:25Z</time>
      </trkpt>
      <trkpt lat="45.87514" lon="1.22061">
        <ele>349</ele>
        <time>2024-11-10T15:51:26Z</time>
      </trkpt>
      <trkpt lat="45.87508" lon="1.22059">
        <ele>348.8</ele>
        <time>2024-11-10T15:51:27Z</time>
      </trkpt>
      <trkpt lat="45.87505" lon="1.22057">
        <ele>348.7</ele>
        <time>2024-11-10T15:51:28Z</time>
      </trkpt>
      <trkpt lat="45.875" lon="1.22056">
        <ele>348.6</ele>
        <time>2024-11-10T15:51:29Z</time>
      </trkpt>
      <trkpt lat="45.87496" lon="1.22054">
        <ele>348.6</ele>
        <time>2024-11-10T15:51:30Z</time>
      </trkpt>
      <trkpt lat="45.87492" lon="1.2205">
        <ele>348.7</ele>
        <time>2024-11-10T15:51:31Z</time>
      </trkpt>
      <trkpt lat="45.87489" lon="1.22046">
        <ele>348.8</ele>
        <time>2024-11-10T15:51:32Z</time>
      </trkpt>
      <trkpt lat="45.87488" lon="1.22041">
        <ele>349</ele>
        <time>2024-11-10T15:51:33Z</time>
      </trkpt>
      <trkpt lat="45.87489" lon="1.22036">
        <ele>349.1</ele>
        <time>2024-11-10T15:51:34Z</time>
      </trkpt>
      <trkpt lat="45.87491" lon="1.2203">
        <ele>349.3</ele>
        <time>2024-11-10T15:51:35Z</time>
      </trkpt>
      <trkpt lat="45.87493" lon="1.22024">
        <ele>349.5</ele>
        <time>2024-11-10T15:51:36Z</time>
      </trkpt>
      <trkpt lat="45.87494" lon="1.22018">
        <ele>349.7</ele>
        <time>2024-11-10T15:51:37Z</time>
      </trkpt>
      <trkpt lat="45.87497" lon="1.22011">
        <ele>350</ele>
        <time>2024-11-10T15:51:38Z</time>
      </trkpt>
      <trkpt lat="45.875" lon="1.22004">
        <ele>350.3</ele>
        <time>2024-11-10T15:51:39Z</time>
      </trkpt>
      <trkpt lat="45.87504" lon="1.21998">
        <ele>350.6</ele>
        <time>2024-11-10T15:51:40Z</time>
      </trkpt>
      <trkpt lat="45.87508" lon="1.21992">
        <ele>350.9</ele>
        <time>2024-11-10T15:51:41Z</time>
      </trkpt>
      <trkpt lat="45.87512" lon="1.21987">
        <ele>351.2</ele>
        <time>2024-11-10T15:51:42Z</time>
      </trkpt>
      <trkpt lat="45.87516" lon="1.21983">
        <ele>351.5</ele>
        <time>2024-11-10T15:51:43Z</time>
      </trkpt>
      <trkpt lat="45.87519" lon="1.2198">
        <ele>351.8</ele>
        <time>2024-11-10T15:51:44Z</time>
      </trkpt>
      <trkpt lat="45.87521" lon="1.21976">
        <ele>352.1</ele>
        <time>2024-11-10T15:51:45Z</time>
      </trkpt>
      <trkpt lat="45.87523" lon="1.21972">
        <ele>352.3</ele>
        <time>2024-11-10T15:51:46Z</time>
      </trkpt>
      <trkpt lat="45.87525" lon="1.21969">
        <ele>352.6</ele>
        <time>2024-11-10T15:51:47Z</time>
      </trkpt>
      <trkpt lat="45.87528" lon="1.21966">
        <ele>353</ele>
        <time>2024-11-10T15:51:48Z</time>
      </trkpt>
      <trkpt lat="45.87529" lon="1.2196">
        <ele>353.4</ele>
        <time>2024-11-10T15:51:49Z</time>
      </trkpt>
      <trkpt lat="45.87529" lon="1.21955">
        <ele>353.8</ele>
        <time>2024-11-10T15:51:50Z</time>
      </trkpt>
      <trkpt lat="45.87527" lon="1.2195">
        <ele>354.2</ele>
        <time>2024-11-10T15:51:51Z</time>
      </trkpt>
      <trkpt lat="45.87526" lon="1.21946">
        <ele>354.5</ele>
        <time>2024-11-10T15:51:52Z</time>
      </trkpt>
      <trkpt lat="45.87524" lon="1.21942">
        <ele>354.9</ele>
        <time>2024-11-10T15:51:53Z</time>
      </trkpt>
      <trkpt lat="45.87521" lon="1.21939">
        <ele>355.3</ele>
        <time>2024-11-10T15:51:54Z</time>
      </trkpt>
      <trkpt lat="45.87518" lon="1.21934">
        <ele>355.8</ele>
        <time>2024-11-10T15:51:56Z</time>
      </trkpt>
      <trkpt lat="45.87516" lon="1.2193">
        <ele>356.2</ele>
        <time>2024-11-10T15:51:57Z</time>
      </trkpt>
      <trkpt lat="45.87514" lon="1.21925">
        <ele>356.6</ele>
        <time>2024-11-10T15:51:58Z</time>
      </trkpt>
      <trkpt lat="45.87513" lon="1.2192">
        <ele>357</ele>
        <time>2024-11-10T15:51:59Z</time>
      </trkpt>
      <trkpt lat="45.87512" lon="1.21916">
        <ele>357.3</ele>
        <time>2024-11-10T15:52:00Z</time>
      </trkpt>
      <trkpt lat="45.87509" lon="1.2191">
        <ele>357.8</ele>
        <time>2024-11-10T15:52:02Z</time>
      </trkpt>
      <trkpt lat="45.87507" lon="1.21905">
        <ele>358.1</ele>
        <time>2024-11-10T15:52:03Z</time>
      </trkpt>
      <trkpt lat="45.87505" lon="1.21901">
        <ele>358.4</ele>
        <time>2024-11-10T15:52:04Z</time>
      </trkpt>
      <trkpt lat="45.87504" lon="1.21897">
        <ele>358.6</ele>
        <time>2024-11-10T15:52:05Z</time>
      </trkpt>
      <trkpt lat="45.87502" lon="1.21893">
        <ele>358.8</ele>
        <time>2024-11-10T15:52:06Z</time>
      </trkpt>
      <trkpt lat="45.875" lon="1.21888">
        <ele>359.1</ele>
        <time>2024-11-10T15:52:07Z</time>
      </trkpt>
      <trkpt lat="45.87499" lon="1.21883">
        <ele>359.2</ele>
        <time>2024-11-10T15:52:08Z</time>
      </trkpt>
      <trkpt lat="45.87498" lon="1.21878">
        <ele>359.4</ele>
        <time>2024-11-10T15:52:09Z</time>
      </trkpt>
      <trkpt lat="45.87498" lon="1.21873">
        <ele>359.5</ele>
        <time>2024-11-10T15:52:10Z</time>
      </trkpt>
      <trkpt lat="45.87498" lon="1.21869">
        <ele>359.6</ele>
        <time>2024-11-10T15:52:11Z</time>
      </trkpt>
      <trkpt lat="45.87499" lon="1.21864">
        <ele>359.7</ele>
        <time>2024-11-10T15:52:12Z</time>
      </trkpt>
      <trkpt lat="45.875" lon="1.21859">
        <ele>359.7</ele>
        <time>2024-11-10T15:52:13Z</time>
      </trkpt>
      <trkpt lat="45.87502" lon="1.21854">
        <ele>359.7</ele>
        <time>2024-11-10T15:52:14Z</time>
      </trkpt>
      <trkpt lat="45.87502" lon="1.21849">
        <ele>359.7</ele>
        <time>2024-11-10T15:52:15Z</time>
      </trkpt>
      <trkpt lat="45.87503" lon="1.21845">
        <ele>359.6</ele>
        <time>2024-11-10T15:52:16Z</time>
      </trkpt>
      <trkpt lat="45.87502" lon="1.2184">
        <ele>359.5</ele>
        <time>2024-11-10T15:52:17Z</time>
      </trkpt>
      <trkpt lat="45.87501" lon="1.21835">
        <ele>359.3</ele>
        <time>2024-11-10T15:52:18Z</time>
      </trkpt>
      <trkpt lat="45.875" lon="1.21831">
        <ele>359.2</ele>
        <time>2024-11-10T15:52:19Z</time>
      </trkpt>
      <trkpt lat="45.87498" lon="1.21827">
        <ele>358.9</ele>
        <time>2024-11-10T15:52:20Z</time>
      </trkpt>
      <trkpt lat="45.87497" lon="1.21823">
        <ele>358.7</ele>
        <time>2024-11-10T15:52:21Z</time>
      </trkpt>
      <trkpt lat="45.87495" lon="1.21819">
        <ele>358.4</ele>
        <time>2024-11-10T15:52:22Z</time>
      </trkpt>
      <trkpt lat="45.87493" lon="1.21815">
        <ele>358.1</ele>
        <time>2024-11-10T15:52:23Z</time>
      </trkpt>
      <trkpt lat="45.8749" lon="1.21812">
        <ele>357.8</ele>
        <time>2024-11-10T15:52:25Z</time>
      </trkpt>
      <trkpt lat="45.87486" lon="1.21812">
        <ele>357.4</ele>
        <time>2024-11-10T15:52:27Z</time>
      </trkpt>
      <trkpt lat="45.87482" lon="1.21814">
        <ele>356.9</ele>
        <time>2024-11-10T15:52:29Z</time>
      </trkpt>
      <trkpt lat="45.87478" lon="1.21816">
        <ele>356.5</ele>
        <time>2024-11-10T15:52:31Z</time>
      </trkpt>
      <trkpt lat="45.87474" lon="1.21817">
        <ele>356.1</ele>
        <time>2024-11-10T15:52:32Z</time>
      </trkpt>
      <trkpt lat="45.8747" lon="1.21819">
        <ele>355.7</ele>
        <time>2024-11-10T15:52:34Z</time>
      </trkpt>
      <trkpt lat="45.87465" lon="1.21821">
        <ele>355.5</ele>
        <time>2024-11-10T15:52:35Z</time>
      </trkpt>
      <trkpt lat="45.8746" lon="1.21824">
        <ele>355.4</ele>
        <time>2024-11-10T15:52:36Z</time>
      </trkpt>
      <trkpt lat="45.87455" lon="1.21826">
        <ele>355.4</ele>
        <time>2024-11-10T15:52:37Z</time>
      </trkpt>
      <trkpt lat="45.87451" lon="1.21827">
        <ele>355.5</ele>
        <time>2024-11-10T15:52:38Z</time>
      </trkpt>
      <trkpt lat="45.87447" lon="1.21828">
        <ele>355.6</ele>
        <time>2024-11-10T15:52:39Z</time>
      </trkpt>
      <trkpt lat="45.87444" lon="1.2183">
        <ele>355.7</ele>
        <time>2024-11-10T15:52:41Z</time>
      </trkpt>
      <trkpt lat="45.8744" lon="1.21833">
        <ele>355.9</ele>
        <time>2024-11-10T15:52:43Z</time>
      </trkpt>
      <trkpt lat="45.87437" lon="1.21837">
        <ele>356.2</ele>
        <time>2024-11-10T15:52:45Z</time>
      </trkpt>
      <trkpt lat="45.87434" lon="1.21839">
        <ele>356.4</ele>
        <time>2024-11-10T15:52:46Z</time>
      </trkpt>
      <trkpt lat="45.87431" lon="1.21843">
        <ele>356.7</ele>
        <time>2024-11-10T15:52:48Z</time>
      </trkpt>
      <trkpt lat="45.87427" lon="1.21847">
        <ele>357</ele>
        <time>2024-11-10T15:52:50Z</time>
      </trkpt>
      <trkpt lat="45.87424" lon="1.21852">
        <ele>357.3</ele>
        <time>2024-11-10T15:52:52Z</time>
      </trkpt>
      <trkpt lat="45.87422" lon="1.21856">
        <ele>357.5</ele>
        <time>2024-11-10T15:52:54Z</time>
      </trkpt>
      <trkpt lat="45.87419" lon="1.21861">
        <ele>357.8</ele>
        <time>2024-11-10T15:52:56Z</time>
      </trkpt>
      <trkpt lat="45.87416" lon="1.21866">
        <ele>358.1</ele>
        <time>2024-11-10T15:52:58Z</time>
      </trkpt>
      <trkpt lat="45.87413" lon="1.21872">
        <ele>358.4</ele>
        <time>2024-11-10T15:53:00Z</time>
      </trkpt>
      <trkpt lat="45.87411" lon="1.21877">
        <ele>358.6</ele>
        <time>2024-11-10T15:53:02Z</time>
      </trkpt>
      <trkpt lat="45.87408" lon="1.21882">
        <ele>358.8</ele>
        <time>2024-11-10T15:53:04Z</time>
      </trkpt>
      <trkpt lat="45.87406" lon="1.21886">
        <ele>358.9</ele>
        <time>2024-11-10T15:53:05Z</time>
      </trkpt>
      <trkpt lat="45.87403" lon="1.21892">
        <ele>359</ele>
        <time>2024-11-10T15:53:07Z</time>
      </trkpt>
      <trkpt lat="45.87401" lon="1.21896">
        <ele>359</ele>
        <time>2024-11-10T15:53:08Z</time>
      </trkpt>
      <trkpt lat="45.87399" lon="1.219">
        <ele>358.9</ele>
        <time>2024-11-10T15:53:09Z</time>
      </trkpt>
      <trkpt lat="45.87397" lon="1.21906">
        <ele>358.7</ele>
        <time>2024-11-10T15:53:11Z</time>
      </trkpt>
      <trkpt lat="45.87395" lon="1.21911">
        <ele>358.5</ele>
        <time>2024-11-10T15:53:12Z</time>
      </trkpt>
      <trkpt lat="45.87393" lon="1.21915">
        <ele>358.3</ele>
        <time>2024-11-10T15:53:13Z</time>
      </trkpt>
      <trkpt lat="45.87391" lon="1.2192">
        <ele>358</ele>
        <time>2024-11-10T15:53:14Z</time>
      </trkpt>
      <trkpt lat="45.8739" lon="1.21924">
        <ele>357.8</ele>
        <time>2024-11-10T15:53:15Z</time>
      </trkpt>
      <trkpt lat="45.87388" lon="1.21929">
        <ele>357.4</ele>
        <time>2024-11-10T15:53:16Z</time>
      </trkpt>
      <trkpt lat="45.87386" lon="1.21934">
        <ele>357.1</ele>
        <time>2024-11-10T15:53:17Z</time>
      </trkpt>
      <trkpt lat="45.87385" lon="1.2194">
        <ele>356.6</ele>
        <time>2024-11-10T15:53:18Z</time>
      </trkpt>
      <trkpt lat="45.87383" lon="1.21945">
        <ele>356.3</ele>
        <time>2024-11-10T15:53:19Z</time>
      </trkpt>
      <trkpt lat="45.87381" lon="1.21951">
        <ele>355.8</ele>
        <time>2024-11-10T15:53:20Z</time>
      </trkpt>
      <trkpt lat="45.87379" lon="1.21956">
        <ele>355.3</ele>
        <time>2024-11-10T15:53:21Z</time>
      </trkpt>
      <trkpt lat="45.87377" lon="1.21961">
        <ele>354.9</ele>
        <time>2024-11-10T15:53:22Z</time>
      </trkpt>
      <trkpt lat="45.87376" lon="1.21966">
        <ele>354.5</ele>
        <time>2024-11-10T15:53:23Z</time>
      </trkpt>
      <trkpt lat="45.87375" lon="1.21971">
        <ele>354.1</ele>
        <time>2024-11-10T15:53:24Z</time>
      </trkpt>
      <trkpt lat="45.87373" lon="1.21975">
        <ele>353.7</ele>
        <time>2024-11-10T15:53:25Z</time>
      </trkpt>
      <trkpt lat="45.87372" lon="1.2198">
        <ele>353.3</ele>
        <time>2024-11-10T15:53:26Z</time>
      </trkpt>
      <trkpt lat="45.87371" lon="1.21984">
        <ele>352.9</ele>
        <time>2024-11-10T15:53:27Z</time>
      </trkpt>
      <trkpt lat="45.8737" lon="1.21989">
        <ele>352.5</ele>
        <time>2024-11-10T15:53:28Z</time>
      </trkpt>
      <trkpt lat="45.87369" lon="1.21994">
        <ele>352.1</ele>
        <time>2024-11-10T15:53:29Z</time>
      </trkpt>
      <trkpt lat="45.87366" lon="1.22">
        <ele>351.4</ele>
        <time>2024-11-10T15:53:30Z</time>
      </trkpt>
      <trkpt lat="45.87363" lon="1.22007">
        <ele>350.7</ele>
        <time>2024-11-10T15:53:31Z</time>
      </trkpt>
      <trkpt lat="45.87361" lon="1.22013">
        <ele>350.1</ele>
        <time>2024-11-10T15:53:32Z</time>
      </trkpt>
      <trkpt lat="45.87359" lon="1.22018">
        <ele>349.5</ele>
        <time>2024-11-10T15:53:33Z</time>
      </trkpt>
      <trkpt lat="45.87357" lon="1.22024">
        <ele>348.9</ele>
        <time>2024-11-10T15:53:35Z</time>
      </trkpt>
      <trkpt lat="45.87356" lon="1.2203">
        <ele>348.3</ele>
        <time>2024-11-10T15:53:37Z</time>
      </trkpt>
      <trkpt lat="45.87353" lon="1.22037">
        <ele>347.6</ele>
        <time>2024-11-10T15:53:39Z</time>
      </trkpt>
      <trkpt lat="45.87349" lon="1.22043">
        <ele>346.8</ele>
        <time>2024-11-10T15:53:40Z</time>
      </trkpt>
      <trkpt lat="45.87346" lon="1.22049">
        <ele>346.2</ele>
        <time>2024-11-10T15:53:41Z</time>
      </trkpt>
      <trkpt lat="45.87343" lon="1.22056">
        <ele>345.5</ele>
        <time>2024-11-10T15:53:42Z</time>
      </trkpt>
      <trkpt lat="45.87339" lon="1.22064">
        <ele>344.7</ele>
        <time>2024-11-10T15:53:43Z</time>
      </trkpt>
      <trkpt lat="45.87335" lon="1.22072">
        <ele>344</ele>
        <time>2024-11-10T15:53:44Z</time>
      </trkpt>
      <trkpt lat="45.87331" lon="1.2208">
        <ele>343.4</ele>
        <time>2024-11-10T15:53:45Z</time>
      </trkpt>
      <trkpt lat="45.87328" lon="1.22089">
        <ele>342.8</ele>
        <time>2024-11-10T15:53:46Z</time>
      </trkpt>
      <trkpt lat="45.87324" lon="1.22098">
        <ele>342.2</ele>
        <time>2024-11-10T15:53:47Z</time>
      </trkpt>
      <trkpt lat="45.8732" lon="1.22108">
        <ele>341.7</ele>
        <time>2024-11-10T15:53:48Z</time>
      </trkpt>
      <trkpt lat="45.87315" lon="1.22117">
        <ele>341.3</ele>
        <time>2024-11-10T15:53:49Z</time>
      </trkpt>
      <trkpt lat="45.87311" lon="1.22126">
        <ele>340.9</ele>
        <time>2024-11-10T15:53:50Z</time>
      </trkpt>
      <trkpt lat="45.87307" lon="1.22136">
        <ele>340.6</ele>
        <time>2024-11-10T15:53:51Z</time>
      </trkpt>
      <trkpt lat="45.87304" lon="1.22145">
        <ele>340.3</ele>
        <time>2024-11-10T15:53:52Z</time>
      </trkpt>
      <trkpt lat="45.873" lon="1.22154">
        <ele>340.1</ele>
        <time>2024-11-10T15:53:53Z</time>
      </trkpt>
      <trkpt lat="45.87297" lon="1.22164">
        <ele>339.8</ele>
        <time>2024-11-10T15:53:54Z</time>
      </trkpt>
      <trkpt lat="45.87294" lon="1.22173">
        <ele>339.6</ele>
        <time>2024-11-10T15:53:55Z</time>
      </trkpt>
      <trkpt lat="45.8729" lon="1.22183">
        <ele>339.3</ele>
        <time>2024-11-10T15:53:56Z</time>
      </trkpt>
      <trkpt lat="45.87287" lon="1.22192">
        <ele>339.1</ele>
        <time>2024-11-10T15:53:57Z</time>
      </trkpt>
      <trkpt lat="45.87285" lon="1.22202">
        <ele>338.8</ele>
        <time>2024-11-10T15:53:58Z</time>
      </trkpt>
      <trkpt lat="45.87283" lon="1.22212">
        <ele>338.6</ele>
        <time>2024-11-10T15:53:59Z</time>
      </trkpt>
      <trkpt lat="45.87281" lon="1.22222">
        <ele>338.5</ele>
        <time>2024-11-10T15:54:00Z</time>
      </trkpt>
      <trkpt lat="45.87279" lon="1.22232">
        <ele>338.4</ele>
        <time>2024-11-10T15:54:01Z</time>
      </trkpt>
      <trkpt lat="45.87277" lon="1.22242">
        <ele>338.5</ele>
        <time>2024-11-10T15:54:02Z</time>
      </trkpt>
      <trkpt lat="45.87275" lon="1.22252">
        <ele>338.6</ele>
        <time>2024-11-10T15:54:03Z</time>
      </trkpt>
      <trkpt lat="45.87273" lon="1.22261">
        <ele>338.8</ele>
        <time>2024-11-10T15:54:04Z</time>
      </trkpt>
      <trkpt lat="45.87271" lon="1.2227">
        <ele>339.1</ele>
        <time>2024-11-10T15:54:05Z</time>
      </trkpt>
      <trkpt lat="45.87269" lon="1.22278">
        <ele>339.4</ele>
        <time>2024-11-10T15:54:06Z</time>
      </trkpt>
      <trkpt lat="45.87268" lon="1.22285">
        <ele>339.6</ele>
        <time>2024-11-10T15:54:07Z</time>
      </trkpt>
      <trkpt lat="45.87266" lon="1.22292">
        <ele>339.9</ele>
        <time>2024-11-10T15:54:08Z</time>
      </trkpt>
      <trkpt lat="45.87265" lon="1.22299">
        <ele>340.1</ele>
        <time>2024-11-10T15:54:09Z</time>
      </trkpt>
      <trkpt lat="45.87263" lon="1.22305">
        <ele>340.3</ele>
        <time>2024-11-10T15:54:10Z</time>
      </trkpt>
      <trkpt lat="45.87261" lon="1.22313">
        <ele>340.4</ele>
        <time>2024-11-10T15:54:11Z</time>
      </trkpt>
      <trkpt lat="45.87259" lon="1.22321">
        <ele>340.5</ele>
        <time>2024-11-10T15:54:12Z</time>
      </trkpt>
      <trkpt lat="45.87258" lon="1.22329">
        <ele>340.5</ele>
        <time>2024-11-10T15:54:13Z</time>
      </trkpt>
      <trkpt lat="45.87256" lon="1.22337">
        <ele>340.4</ele>
        <time>2024-11-10T15:54:14Z</time>
      </trkpt>
      <trkpt lat="45.87255" lon="1.22346">
        <ele>340.3</ele>
        <time>2024-11-10T15:54:15Z</time>
      </trkpt>
      <trkpt lat="45.87254" lon="1.22355">
        <ele>340</ele>
        <time>2024-11-10T15:54:16Z</time>
      </trkpt>
      <trkpt lat="45.87253" lon="1.22366">
        <ele>339.3</ele>
        <time>2024-11-10T15:54:17Z</time>
      </trkpt>
      <trkpt lat="45.87253" lon="1.22377">
        <ele>338.6</ele>
        <time>2024-11-10T15:54:18Z</time>
      </trkpt>
      <trkpt lat="45.87252" lon="1.22388">
        <ele>337.7</ele>
        <time>2024-11-10T15:54:19Z</time>
      </trkpt>
      <trkpt lat="45.87251" lon="1.224">
        <ele>336.7</ele>
        <time>2024-11-10T15:54:20Z</time>
      </trkpt>
      <trkpt lat="45.87251" lon="1.22412">
        <ele>335.7</ele>
        <time>2024-11-10T15:54:21Z</time>
      </trkpt>
      <trkpt lat="45.87253" lon="1.22426">
        <ele>334.4</ele>
        <time>2024-11-10T15:54:22Z</time>
      </trkpt>
      <trkpt lat="45.87255" lon="1.22439">
        <ele>333.3</ele>
        <time>2024-11-10T15:54:23Z</time>
      </trkpt>
      <trkpt lat="45.8726" lon="1.22452">
        <ele>332.3</ele>
        <time>2024-11-10T15:54:24Z</time>
      </trkpt>
      <trkpt lat="45.87265" lon="1.22465">
        <ele>331.4</ele>
        <time>2024-11-10T15:54:25Z</time>
      </trkpt>
      <trkpt lat="45.87271" lon="1.22477">
        <ele>330.7</ele>
        <time>2024-11-10T15:54:26Z</time>
      </trkpt>
      <trkpt lat="45.87278" lon="1.22489">
        <ele>330.1</ele>
        <time>2024-11-10T15:54:27Z</time>
      </trkpt>
      <trkpt lat="45.87284" lon="1.22501">
        <ele>329.7</ele>
        <time>2024-11-10T15:54:28Z</time>
      </trkpt>
      <trkpt lat="45.87291" lon="1.22512">
        <ele>329.3</ele>
        <time>2024-11-10T15:54:29Z</time>
      </trkpt>
      <trkpt lat="45.87297" lon="1.22523">
        <ele>329</ele>
        <time>2024-11-10T15:54:30Z</time>
      </trkpt>
      <trkpt lat="45.87304" lon="1.22534">
        <ele>328.7</ele>
        <time>2024-11-10T15:54:31Z</time>
      </trkpt>
      <trkpt lat="45.87308" lon="1.22545">
        <ele>328.5</ele>
        <time>2024-11-10T15:54:32Z</time>
      </trkpt>
      <trkpt lat="45.87311" lon="1.22557">
        <ele>328.3</ele>
        <time>2024-11-10T15:54:33Z</time>
      </trkpt>
      <trkpt lat="45.87312" lon="1.22568">
        <ele>328.1</ele>
        <time>2024-11-10T15:54:34Z</time>
      </trkpt>
      <trkpt lat="45.8731" lon="1.22579">
        <ele>328.1</ele>
        <time>2024-11-10T15:54:35Z</time>
      </trkpt>
      <trkpt lat="45.87307" lon="1.22588">
        <ele>328</ele>
        <time>2024-11-10T15:54:36Z</time>
      </trkpt>
      <trkpt lat="45.87302" lon="1.22597">
        <ele>328</ele>
        <time>2024-11-10T15:54:37Z</time>
      </trkpt>
      <trkpt lat="45.87296" lon="1.22604">
        <ele>328</ele>
        <time>2024-11-10T15:54:38Z</time>
      </trkpt>
      <trkpt lat="45.8729" lon="1.22611">
        <ele>328</ele>
        <time>2024-11-10T15:54:39Z</time>
      </trkpt>
      <trkpt lat="45.87284" lon="1.22617">
        <ele>328</ele>
        <time>2024-11-10T15:54:40Z</time>
      </trkpt>
      <trkpt lat="45.87278" lon="1.22624">
        <ele>328.1</ele>
        <time>2024-11-10T15:54:41Z</time>
      </trkpt>
      <trkpt lat="45.87273" lon="1.2263">
        <ele>328.2</ele>
        <time>2024-11-10T15:54:42Z</time>
      </trkpt>
      <trkpt lat="45.87268" lon="1.22637">
        <ele>328.3</ele>
        <time>2024-11-10T15:54:43Z</time>
      </trkpt>
      <trkpt lat="45.87263" lon="1.22643">
        <ele>328.4</ele>
        <time>2024-11-10T15:54:44Z</time>
      </trkpt>
      <trkpt lat="45.87258" lon="1.22649">
        <ele>328.6</ele>
        <time>2024-11-10T15:54:45Z</time>
      </trkpt>
      <trkpt lat="45.87253" lon="1.22655">
        <ele>328.7</ele>
        <time>2024-11-10T15:54:46Z</time>
      </trkpt>
      <trkpt lat="45.87249" lon="1.2266">
        <ele>328.9</ele>
        <time>2024-11-10T15:54:47Z</time>
      </trkpt>
      <trkpt lat="45.87244" lon="1.22666">
        <ele>329.1</ele>
        <time>2024-11-10T15:54:48Z</time>
      </trkpt>
      <trkpt lat="45.87239" lon="1.22671">
        <ele>329.3</ele>
        <time>2024-11-10T15:54:49Z</time>
      </trkpt>
      <trkpt lat="45.87235" lon="1.22677">
        <ele>329.4</ele>
        <time>2024-11-10T15:54:50Z</time>
      </trkpt>
      <trkpt lat="45.87231" lon="1.22682">
        <ele>329.5</ele>
        <time>2024-11-10T15:54:51Z</time>
      </trkpt>
      <trkpt lat="45.87226" lon="1.22688">
        <ele>329.7</ele>
        <time>2024-11-10T15:54:52Z</time>
      </trkpt>
      <trkpt lat="45.87222" lon="1.22693">
        <ele>329.7</ele>
        <time>2024-11-10T15:54:53Z</time>
      </trkpt>
      <trkpt lat="45.87217" lon="1.22699">
        <ele>329.7</ele>
        <time>2024-11-10T15:54:54Z</time>
      </trkpt>
      <trkpt lat="45.87213" lon="1.22704">
        <ele>329.7</ele>
        <time>2024-11-10T15:54:55Z</time>
      </trkpt>
      <trkpt lat="45.87209" lon="1.2271">
        <ele>329.8</ele>
        <time>2024-11-10T15:54:56Z</time>
      </trkpt>
      <trkpt lat="45.87204" lon="1.22716">
        <ele>329.8</ele>
        <time>2024-11-10T15:54:57Z</time>
      </trkpt>
      <trkpt lat="45.872" lon="1.22721">
        <ele>329.9</ele>
        <time>2024-11-10T15:54:58Z</time>
      </trkpt>
      <trkpt lat="45.87195" lon="1.22727">
        <ele>329.9</ele>
        <time>2024-11-10T15:54:59Z</time>
      </trkpt>
      <trkpt lat="45.8719" lon="1.22733">
        <ele>330.1</ele>
        <time>2024-11-10T15:55:00Z</time>
      </trkpt>
      <trkpt lat="45.87186" lon="1.22738">
        <ele>330.2</ele>
        <time>2024-11-10T15:55:01Z</time>
      </trkpt>
      <trkpt lat="45.87182" lon="1.22744">
        <ele>330.4</ele>
        <time>2024-11-10T15:55:02Z</time>
      </trkpt>
      <trkpt lat="45.87178" lon="1.2275">
        <ele>330.6</ele>
        <time>2024-11-10T15:55:03Z</time>
      </trkpt>
      <trkpt lat="45.87174" lon="1.22756">
        <ele>330.8</ele>
        <time>2024-11-10T15:55:04Z</time>
      </trkpt>
      <trkpt lat="45.87172" lon="1.22762">
        <ele>331</ele>
        <time>2024-11-10T15:55:05Z</time>
      </trkpt>
      <trkpt lat="45.8717" lon="1.22768">
        <ele>331.3</ele>
        <time>2024-11-10T15:55:06Z</time>
      </trkpt>
      <trkpt lat="45.87168" lon="1.22774">
        <ele>331.5</ele>
        <time>2024-11-10T15:55:07Z</time>
      </trkpt>
      <trkpt lat="45.87166" lon="1.2278">
        <ele>331.8</ele>
        <time>2024-11-10T15:55:08Z</time>
      </trkpt>
      <trkpt lat="45.87164" lon="1.22786">
        <ele>332.2</ele>
        <time>2024-11-10T15:55:09Z</time>
      </trkpt>
      <trkpt lat="45.87162" lon="1.22792">
        <ele>332.6</ele>
        <time>2024-11-10T15:55:10Z</time>
      </trkpt>
      <trkpt lat="45.87161" lon="1.22797">
        <ele>332.9</ele>
        <time>2024-11-10T15:55:11Z</time>
      </trkpt>
      <trkpt lat="45.87159" lon="1.22802">
        <ele>333.2</ele>
        <time>2024-11-10T15:55:12Z</time>
      </trkpt>
      <trkpt lat="45.87157" lon="1.22807">
        <ele>333.6</ele>
        <time>2024-11-10T15:55:13Z</time>
      </trkpt>
      <trkpt lat="45.87156" lon="1.22812">
        <ele>334</ele>
        <time>2024-11-10T15:55:14Z</time>
      </trkpt>
      <trkpt lat="45.87154" lon="1.22817">
        <ele>334.4</ele>
        <time>2024-11-10T15:55:15Z</time>
      </trkpt>
      <trkpt lat="45.87153" lon="1.22821">
        <ele>334.7</ele>
        <time>2024-11-10T15:55:16Z</time>
      </trkpt>
      <trkpt lat="45.87151" lon="1.22826">
        <ele>335.2</ele>
        <time>2024-11-10T15:55:17Z</time>
      </trkpt>
      <trkpt lat="45.8715" lon="1.2283">
        <ele>335.5</ele>
        <time>2024-11-10T15:55:18Z</time>
      </trkpt>
      <trkpt lat="45.87149" lon="1.22834">
        <ele>335.9</ele>
        <time>2024-11-10T15:55:19Z</time>
      </trkpt>
      <trkpt lat="45.87147" lon="1.22838">
        <ele>336.3</ele>
        <time>2024-11-10T15:55:20Z</time>
      </trkpt>
      <trkpt lat="45.87146" lon="1.22842">
        <ele>336.6</ele>
        <time>2024-11-10T15:55:21Z</time>
      </trkpt>
      <trkpt lat="45.87144" lon="1.22845">
        <ele>337</ele>
        <time>2024-11-10T15:55:22Z</time>
      </trkpt>
      <trkpt lat="45.87142" lon="1.22849">
        <ele>337.4</ele>
        <time>2024-11-10T15:55:23Z</time>
      </trkpt>
      <trkpt lat="45.87139" lon="1.22853">
        <ele>337.8</ele>
        <time>2024-11-10T15:55:25Z</time>
      </trkpt>
      <trkpt lat="45.87137" lon="1.22857">
        <ele>338.2</ele>
        <time>2024-11-10T15:55:26Z</time>
      </trkpt>
      <trkpt lat="45.87134" lon="1.22861">
        <ele>338.6</ele>
        <time>2024-11-10T15:55:28Z</time>
      </trkpt>
      <trkpt lat="45.87131" lon="1.22866">
        <ele>339</ele>
        <time>2024-11-10T15:55:30Z</time>
      </trkpt>
      <trkpt lat="45.87128" lon="1.22872">
        <ele>339.4</ele>
        <time>2024-11-10T15:55:32Z</time>
      </trkpt>
      <trkpt lat="45.87125" lon="1.22877">
        <ele>339.7</ele>
        <time>2024-11-10T15:55:34Z</time>
      </trkpt>
      <trkpt lat="45.87122" lon="1.22881">
        <ele>340</ele>
        <time>2024-11-10T15:55:35Z</time>
      </trkpt>
      <trkpt lat="45.8712" lon="1.22886">
        <ele>340.2</ele>
        <time>2024-11-10T15:55:37Z</time>
      </trkpt>
      <trkpt lat="45.87117" lon="1.2289">
        <ele>340.3</ele>
        <time>2024-11-10T15:55:39Z</time>
      </trkpt>
      <trkpt lat="45.87114" lon="1.22895">
        <ele>340.5</ele>
        <time>2024-11-10T15:55:41Z</time>
      </trkpt>
      <trkpt lat="45.87111" lon="1.22901">
        <ele>340.7</ele>
        <time>2024-11-10T15:55:43Z</time>
      </trkpt>
      <trkpt lat="45.87108" lon="1.22906">
        <ele>340.8</ele>
        <time>2024-11-10T15:55:45Z</time>
      </trkpt>
      <trkpt lat="45.87105" lon="1.22911">
        <ele>340.9</ele>
        <time>2024-11-10T15:55:47Z</time>
      </trkpt>
      <trkpt lat="45.87102" lon="1.22915">
        <ele>341</ele>
        <time>2024-11-10T15:55:49Z</time>
      </trkpt>
      <trkpt lat="45.87101" lon="1.2292">
        <ele>341.1</ele>
        <time>2024-11-10T15:55:51Z</time>
      </trkpt>
      <trkpt lat="45.87102" lon="1.22926">
        <ele>341.3</ele>
        <time>2024-11-10T15:55:53Z</time>
      </trkpt>
      <trkpt lat="45.87103" lon="1.22932">
        <ele>341.4</ele>
        <time>2024-11-10T15:55:55Z</time>
      </trkpt>
      <trkpt lat="45.87105" lon="1.22939">
        <ele>341.6</ele>
        <time>2024-11-10T15:55:57Z</time>
      </trkpt>
      <trkpt lat="45.87106" lon="1.22944">
        <ele>341.8</ele>
        <time>2024-11-10T15:55:58Z</time>
      </trkpt>
      <trkpt lat="45.87108" lon="1.2295">
        <ele>341.9</ele>
        <time>2024-11-10T15:56:00Z</time>
      </trkpt>
      <trkpt lat="45.8711" lon="1.22957">
        <ele>342.2</ele>
        <time>2024-11-10T15:56:02Z</time>
      </trkpt>
      <trkpt lat="45.87112" lon="1.22964">
        <ele>342.4</ele>
        <time>2024-11-10T15:56:04Z</time>
      </trkpt>
      <trkpt lat="45.87113" lon="1.22969">
        <ele>342.5</ele>
        <time>2024-11-10T15:56:05Z</time>
      </trkpt>
      <trkpt lat="45.87114" lon="1.22973">
        <ele>342.6</ele>
        <time>2024-11-10T15:56:06Z</time>
      </trkpt>
      <trkpt lat="45.87116" lon="1.22979">
        <ele>342.8</ele>
        <time>2024-11-10T15:56:08Z</time>
      </trkpt>
      <trkpt lat="45.87117" lon="1.22984">
        <ele>343</ele>
        <time>2024-11-10T15:56:09Z</time>
      </trkpt>
      <trkpt lat="45.87118" lon="1.22988">
        <ele>343.1</ele>
        <time>2024-11-10T15:56:10Z</time>
      </trkpt>
      <trkpt lat="45.8712" lon="1.22994">
        <ele>343.3</ele>
        <time>2024-11-10T15:56:12Z</time>
      </trkpt>
      <trkpt lat="45.87121" lon="1.22998">
        <ele>343.4</ele>
        <time>2024-11-10T15:56:13Z</time>
      </trkpt>
      <trkpt lat="45.87123" lon="1.23003">
        <ele>343.6</ele>
        <time>2024-11-10T15:56:14Z</time>
      </trkpt>
      <trkpt lat="45.87124" lon="1.23006">
        <ele>343.7</ele>
        <time>2024-11-10T15:56:15Z</time>
      </trkpt>
      <trkpt lat="45.87125" lon="1.2301">
        <ele>343.9</ele>
        <time>2024-11-10T15:56:16Z</time>
      </trkpt>
      <trkpt lat="45.87127" lon="1.23016">
        <ele>344.1</ele>
        <time>2024-11-10T15:56:18Z</time>
      </trkpt>
      <trkpt lat="45.87128" lon="1.2302">
        <ele>344.2</ele>
        <time>2024-11-10T15:56:19Z</time>
      </trkpt>
      <trkpt lat="45.87129" lon="1.23025">
        <ele>344.4</ele>
        <time>2024-11-10T15:56:20Z</time>
      </trkpt>
      <trkpt lat="45.8713" lon="1.23029">
        <ele>344.6</ele>
        <time>2024-11-10T15:56:21Z</time>
      </trkpt>
      <trkpt lat="45.87131" lon="1.23033">
        <ele>344.7</ele>
        <time>2024-11-10T15:56:22Z</time>
      </trkpt>
      <trkpt lat="45.87132" lon="1.23037">
        <ele>344.9</ele>
        <time>2024-11-10T15:56:23Z</time>
      </trkpt>
      <trkpt lat="45.87133" lon="1.23041">
        <ele>345</ele>
        <time>2024-11-10T15:56:24Z</time>
      </trkpt>
      <trkpt lat="45.87134" lon="1.23045">
        <ele>345.2</ele>
        <time>2024-11-10T15:56:25Z</time>
      </trkpt>
      <trkpt lat="45.87135" lon="1.23049">
        <ele>345.3</ele>
        <time>2024-11-10T15:56:26Z</time>
      </trkpt>
      <trkpt lat="45.87136" lon="1.23053">
        <ele>345.4</ele>
        <time>2024-11-10T15:56:27Z</time>
      </trkpt>
      <trkpt lat="45.87138" lon="1.23059">
        <ele>345.6</ele>
        <time>2024-11-10T15:56:29Z</time>
      </trkpt>
      <trkpt lat="45.8714" lon="1.23063">
        <ele>345.8</ele>
        <time>2024-11-10T15:56:30Z</time>
      </trkpt>
      <trkpt lat="45.87141" lon="1.23068">
        <ele>345.9</ele>
        <time>2024-11-10T15:56:31Z</time>
      </trkpt>
      <trkpt lat="45.87143" lon="1.23074">
        <ele>346.1</ele>
        <time>2024-11-10T15:56:33Z</time>
      </trkpt>
      <trkpt lat="45.87144" lon="1.23078">
        <ele>346.2</ele>
        <time>2024-11-10T15:56:34Z</time>
      </trkpt>
      <trkpt lat="45.87146" lon="1.23082">
        <ele>346.3</ele>
        <time>2024-11-10T15:56:35Z</time>
      </trkpt>
      <trkpt lat="45.87147" lon="1.23087">
        <ele>346.5</ele>
        <time>2024-11-10T15:56:36Z</time>
      </trkpt>
      <trkpt lat="45.87148" lon="1.23091">
        <ele>346.5</ele>
        <time>2024-11-10T15:56:37Z</time>
      </trkpt>
      <trkpt lat="45.87149" lon="1.23096">
        <ele>346.7</ele>
        <time>2024-11-10T15:56:38Z</time>
      </trkpt>
      <trkpt lat="45.87151" lon="1.231">
        <ele>346.8</ele>
        <time>2024-11-10T15:56:39Z</time>
      </trkpt>
      <trkpt lat="45.87152" lon="1.23104">
        <ele>346.8</ele>
        <time>2024-11-10T15:56:40Z</time>
      </trkpt>
      <trkpt lat="45.87153" lon="1.23108">
        <ele>346.9</ele>
        <time>2024-11-10T15:56:41Z</time>
      </trkpt>
      <trkpt lat="45.87155" lon="1.23112">
        <ele>347</ele>
        <time>2024-11-10T15:56:42Z</time>
      </trkpt>
      <trkpt lat="45.87156" lon="1.23117">
        <ele>347.1</ele>
        <time>2024-11-10T15:56:43Z</time>
      </trkpt>
      <trkpt lat="45.87157" lon="1.23121">
        <ele>347.1</ele>
        <time>2024-11-10T15:56:44Z</time>
      </trkpt>
      <trkpt lat="45.87158" lon="1.23125">
        <ele>347.2</ele>
        <time>2024-11-10T15:56:45Z</time>
      </trkpt>
      <trkpt lat="45.87159" lon="1.2313">
        <ele>347.2</ele>
        <time>2024-11-10T15:56:46Z</time>
      </trkpt>
      <trkpt lat="45.8716" lon="1.23134">
        <ele>347.3</ele>
        <time>2024-11-10T15:56:47Z</time>
      </trkpt>
      <trkpt lat="45.8716" lon="1.23138">
        <ele>347.4</ele>
        <time>2024-11-10T15:56:48Z</time>
      </trkpt>
      <trkpt lat="45.87159" lon="1.23143">
        <ele>347.4</ele>
        <time>2024-11-10T15:56:49Z</time>
      </trkpt>
      <trkpt lat="45.87157" lon="1.23147">
        <ele>347.7</ele>
        <time>2024-11-10T15:56:50Z</time>
      </trkpt>
      <trkpt lat="45.87154" lon="1.2315">
        <ele>348</ele>
        <time>2024-11-10T15:56:51Z</time>
      </trkpt>
      <trkpt lat="45.87151" lon="1.23153">
        <ele>348.3</ele>
        <time>2024-11-10T15:56:52Z</time>
      </trkpt>
      <trkpt lat="45.87148" lon="1.23155">
        <ele>348.6</ele>
        <time>2024-11-10T15:56:53Z</time>
      </trkpt>
      <trkpt lat="45.87145" lon="1.23157">
        <ele>348.9</ele>
        <time>2024-11-10T15:56:54Z</time>
      </trkpt>
      <trkpt lat="45.87141" lon="1.23159">
        <ele>349.3</ele>
        <time>2024-11-10T15:56:56Z</time>
      </trkpt>
      <trkpt lat="45.87137" lon="1.23161">
        <ele>349.7</ele>
        <time>2024-11-10T15:56:58Z</time>
      </trkpt>
      <trkpt lat="45.87133" lon="1.23164">
        <ele>350.1</ele>
        <time>2024-11-10T15:57:00Z</time>
      </trkpt>
      <trkpt lat="45.87129" lon="1.23167">
        <ele>350.5</ele>
        <time>2024-11-10T15:57:02Z</time>
      </trkpt>
      <trkpt lat="45.87124" lon="1.2317">
        <ele>351.1</ele>
        <time>2024-11-10T15:57:04Z</time>
      </trkpt>
      <trkpt lat="45.8712" lon="1.23172">
        <ele>351.4</ele>
        <time>2024-11-10T15:57:06Z</time>
      </trkpt>
      <trkpt lat="45.87116" lon="1.23175">
        <ele>351.8</ele>
        <time>2024-11-10T15:57:08Z</time>
      </trkpt>
      <trkpt lat="45.87112" lon="1.23177">
        <ele>352.2</ele>
        <time>2024-11-10T15:57:10Z</time>
      </trkpt>
      <trkpt lat="45.87108" lon="1.23179">
        <ele>352.6</ele>
        <time>2024-11-10T15:57:12Z</time>
      </trkpt>
      <trkpt lat="45.87104" lon="1.23182">
        <ele>352.9</ele>
        <time>2024-11-10T15:57:14Z</time>
      </trkpt>
      <trkpt lat="45.87099" lon="1.23183">
        <ele>353.2</ele>
        <time>2024-11-10T15:57:16Z</time>
      </trkpt>
      <trkpt lat="45.87095" lon="1.23184">
        <ele>353.4</ele>
        <time>2024-11-10T15:57:18Z</time>
      </trkpt>
      <trkpt lat="45.87091" lon="1.23185">
        <ele>353.6</ele>
        <time>2024-11-10T15:57:20Z</time>
      </trkpt>
      <trkpt lat="45.87087" lon="1.23186">
        <ele>353.8</ele>
        <time>2024-11-10T15:57:22Z</time>
      </trkpt>
      <trkpt lat="45.87083" lon="1.23186">
        <ele>353.9</ele>
        <time>2024-11-10T15:57:24Z</time>
      </trkpt>
      <trkpt lat="45.87079" lon="1.23186">
        <ele>354</ele>
        <time>2024-11-10T15:57:26Z</time>
      </trkpt>
      <trkpt lat="45.87075" lon="1.23186">
        <ele>354</ele>
        <time>2024-11-10T15:57:28Z</time>
      </trkpt>
      <trkpt lat="45.87071" lon="1.23185">
        <ele>354</ele>
        <time>2024-11-10T15:57:30Z</time>
      </trkpt>
      <trkpt lat="45.87067" lon="1.23183">
        <ele>354</ele>
        <time>2024-11-10T15:57:32Z</time>
      </trkpt>
      <trkpt lat="45.87064" lon="1.23183">
        <ele>354</ele>
        <time>2024-11-10T15:57:34Z</time>
      </trkpt>
      <trkpt lat="45.87061" lon="1.23182">
        <ele>353.9</ele>
        <time>2024-11-10T15:57:36Z</time>
      </trkpt>
      <trkpt lat="45.87058" lon="1.23182">
        <ele>353.9</ele>
        <time>2024-11-10T15:57:38Z</time>
      </trkpt>
      <trkpt lat="45.87054" lon="1.23182">
        <ele>353.8</ele>
        <time>2024-11-10T15:57:40Z</time>
      </trkpt>
      <trkpt lat="45.87051" lon="1.23182">
        <ele>353.7</ele>
        <time>2024-11-10T15:57:42Z</time>
      </trkpt>
      <trkpt lat="45.87047" lon="1.23181">
        <ele>353.6</ele>
        <time>2024-11-10T15:57:44Z</time>
      </trkpt>
      <trkpt lat="45.87043" lon="1.2318">
        <ele>353.5</ele>
        <time>2024-11-10T15:57:46Z</time>
      </trkpt>
      <trkpt lat="45.87039" lon="1.23179">
        <ele>353.4</ele>
        <time>2024-11-10T15:57:48Z</time>
      </trkpt>
      <trkpt lat="45.87034" lon="1.23178">
        <ele>353.2</ele>
        <time>2024-11-10T15:57:50Z</time>
      </trkpt>
      <trkpt lat="45.87031" lon="1.23177">
        <ele>353</ele>
        <time>2024-11-10T15:57:51Z</time>
      </trkpt>
      <trkpt lat="45.87028" lon="1.23176">
        <ele>352.8</ele>
        <time>2024-11-10T15:57:52Z</time>
      </trkpt>
      <trkpt lat="45.87024" lon="1.23175">
        <ele>352.6</ele>
        <time>2024-11-10T15:57:53Z</time>
      </trkpt>
      <trkpt lat="45.8702" lon="1.23173">
        <ele>352.4</ele>
        <time>2024-11-10T15:57:54Z</time>
      </trkpt>
      <trkpt lat="45.87016" lon="1.23172">
        <ele>352.2</ele>
        <time>2024-11-10T15:57:55Z</time>
      </trkpt>
      <trkpt lat="45.87012" lon="1.23171">
        <ele>352</ele>
        <time>2024-11-10T15:57:56Z</time>
      </trkpt>
      <trkpt lat="45.87008" lon="1.2317">
        <ele>351.8</ele>
        <time>2024-11-10T15:57:57Z</time>
      </trkpt>
      <trkpt lat="45.87004" lon="1.2317">
        <ele>351.6</ele>
        <time>2024-11-10T15:57:58Z</time>
      </trkpt>
      <trkpt lat="45.86999" lon="1.23168">
        <ele>351.4</ele>
        <time>2024-11-10T15:57:59Z</time>
      </trkpt>
      <trkpt lat="45.86994" lon="1.23164">
        <ele>351.1</ele>
        <time>2024-11-10T15:58:00Z</time>
      </trkpt>
      <trkpt lat="45.86989" lon="1.23161">
        <ele>350.9</ele>
        <time>2024-11-10T15:58:01Z</time>
      </trkpt>
      <trkpt lat="45.86984" lon="1.2316">
        <ele>350.7</ele>
        <time>2024-11-10T15:58:02Z</time>
      </trkpt>
      <trkpt lat="45.86979" lon="1.23158">
        <ele>350.5</ele>
        <time>2024-11-10T15:58:03Z</time>
      </trkpt>
      <trkpt lat="45.86974" lon="1.23156">
        <ele>350.3</ele>
        <time>2024-11-10T15:58:04Z</time>
      </trkpt>
      <trkpt lat="45.86969" lon="1.23154">
        <ele>350.1</ele>
        <time>2024-11-10T15:58:05Z</time>
      </trkpt>
      <trkpt lat="45.86964" lon="1.23152">
        <ele>350</ele>
        <time>2024-11-10T15:58:06Z</time>
      </trkpt>
      <trkpt lat="45.86958" lon="1.2315">
        <ele>349.8</ele>
        <time>2024-11-10T15:58:07Z</time>
      </trkpt>
      <trkpt lat="45.86953" lon="1.23149">
        <ele>349.7</ele>
        <time>2024-11-10T15:58:08Z</time>
      </trkpt>
      <trkpt lat="45.86948" lon="1.23148">
        <ele>349.7</ele>
        <time>2024-11-10T15:58:09Z</time>
      </trkpt>
      <trkpt lat="45.86942" lon="1.23149">
        <ele>349.6</ele>
        <time>2024-11-10T15:58:10Z</time>
      </trkpt>
      <trkpt lat="45.86937" lon="1.23149">
        <ele>349.5</ele>
        <time>2024-11-10T15:58:11Z</time>
      </trkpt>
      <trkpt lat="45.86932" lon="1.2315">
        <ele>349.5</ele>
        <time>2024-11-10T15:58:12Z</time>
      </trkpt>
      <trkpt lat="45.86928" lon="1.23151">
        <ele>349.5</ele>
        <time>2024-11-10T15:58:13Z</time>
      </trkpt>
      <trkpt lat="45.86924" lon="1.23153">
        <ele>349.4</ele>
        <time>2024-11-10T15:58:14Z</time>
      </trkpt>
      <trkpt lat="45.86919" lon="1.23155">
        <ele>349.4</ele>
        <time>2024-11-10T15:58:15Z</time>
      </trkpt>
      <trkpt lat="45.86915" lon="1.23156">
        <ele>349.4</ele>
        <time>2024-11-10T15:58:16Z</time>
      </trkpt>
      <trkpt lat="45.86911" lon="1.23158">
        <ele>349.3</ele>
        <time>2024-11-10T15:58:17Z</time>
      </trkpt>
      <trkpt lat="45.86907" lon="1.2316">
        <ele>349.2</ele>
        <time>2024-11-10T15:58:18Z</time>
      </trkpt>
      <trkpt lat="45.86903" lon="1.23161">
        <ele>349.1</ele>
        <time>2024-11-10T15:58:19Z</time>
      </trkpt>
      <trkpt lat="45.86899" lon="1.23163">
        <ele>349</ele>
        <time>2024-11-10T15:58:20Z</time>
      </trkpt>
      <trkpt lat="45.86894" lon="1.23165">
        <ele>348.9</ele>
        <time>2024-11-10T15:58:21Z</time>
      </trkpt>
      <trkpt lat="45.8689" lon="1.23167">
        <ele>348.8</ele>
        <time>2024-11-10T15:58:22Z</time>
      </trkpt>
      <trkpt lat="45.86886" lon="1.23169">
        <ele>348.8</ele>
        <time>2024-11-10T15:58:23Z</time>
      </trkpt>
      <trkpt lat="45.86882" lon="1.23171">
        <ele>348.7</ele>
        <time>2024-11-10T15:58:24Z</time>
      </trkpt>
      <trkpt lat="45.86877" lon="1.23173">
        <ele>348.6</ele>
        <time>2024-11-10T15:58:25Z</time>
      </trkpt>
      <trkpt lat="45.86872" lon="1.23175">
        <ele>348.5</ele>
        <time>2024-11-10T15:58:26Z</time>
      </trkpt>
      <trkpt lat="45.86867" lon="1.23178">
        <ele>348.4</ele>
        <time>2024-11-10T15:58:27Z</time>
      </trkpt>
      <trkpt lat="45.86862" lon="1.2318">
        <ele>348.3</ele>
        <time>2024-11-10T15:58:28Z</time>
      </trkpt>
      <trkpt lat="45.86857" lon="1.23182">
        <ele>348.1</ele>
        <time>2024-11-10T15:58:29Z</time>
      </trkpt>
      <trkpt lat="45.86852" lon="1.23184">
        <ele>347.9</ele>
        <time>2024-11-10T15:58:30Z</time>
      </trkpt>
      <trkpt lat="45.86847" lon="1.23187">
        <ele>347.6</ele>
        <time>2024-11-10T15:58:31Z</time>
      </trkpt>
      <trkpt lat="45.86841" lon="1.2319">
        <ele>347.2</ele>
        <time>2024-11-10T15:58:32Z</time>
      </trkpt>
      <trkpt lat="45.86836" lon="1.23193">
        <ele>346.6</ele>
        <time>2024-11-10T15:58:33Z</time>
      </trkpt>
      <trkpt lat="45.8683" lon="1.23196">
        <ele>345.8</ele>
        <time>2024-11-10T15:58:34Z</time>
      </trkpt>
      <trkpt lat="45.86823" lon="1.232">
        <ele>344.9</ele>
        <time>2024-11-10T15:58:35Z</time>
      </trkpt>
      <trkpt lat="45.86817" lon="1.23204">
        <ele>344.1</ele>
        <time>2024-11-10T15:58:36Z</time>
      </trkpt>
      <trkpt lat="45.86809" lon="1.2321">
        <ele>342.9</ele>
        <time>2024-11-10T15:58:37Z</time>
      </trkpt>
      <trkpt lat="45.86802" lon="1.23216">
        <ele>341.9</ele>
        <time>2024-11-10T15:58:38Z</time>
      </trkpt>
      <trkpt lat="45.86794" lon="1.23223">
        <ele>340.7</ele>
        <time>2024-11-10T15:58:39Z</time>
      </trkpt>
      <trkpt lat="45.86786" lon="1.23232">
        <ele>339.5</ele>
        <time>2024-11-10T15:58:40Z</time>
      </trkpt>
      <trkpt lat="45.86779" lon="1.23241">
        <ele>338.7</ele>
        <time>2024-11-10T15:58:41Z</time>
      </trkpt>
      <trkpt lat="45.86772" lon="1.2325">
        <ele>338</ele>
        <time>2024-11-10T15:58:42Z</time>
      </trkpt>
      <trkpt lat="45.86765" lon="1.23261">
        <ele>337.5</ele>
        <time>2024-11-10T15:58:43Z</time>
      </trkpt>
      <trkpt lat="45.86758" lon="1.23272">
        <ele>337</ele>
        <time>2024-11-10T15:58:44Z</time>
      </trkpt>
      <trkpt lat="45.86751" lon="1.23283">
        <ele>336.4</ele>
        <time>2024-11-10T15:58:45Z</time>
      </trkpt>
      <trkpt lat="45.86745" lon="1.23294">
        <ele>335.9</ele>
        <time>2024-11-10T15:58:46Z</time>
      </trkpt>
      <trkpt lat="45.86738" lon="1.23304">
        <ele>335.4</ele>
        <time>2024-11-10T15:58:47Z</time>
      </trkpt>
      <trkpt lat="45.86732" lon="1.23315">
        <ele>334.9</ele>
        <time>2024-11-10T15:58:48Z</time>
      </trkpt>
      <trkpt lat="45.86726" lon="1.23325">
        <ele>334.5</ele>
        <time>2024-11-10T15:58:49Z</time>
      </trkpt>
      <trkpt lat="45.86721" lon="1.23334">
        <ele>334.1</ele>
        <time>2024-11-10T15:58:50Z</time>
      </trkpt>
      <trkpt lat="45.86716" lon="1.23342">
        <ele>333.8</ele>
        <time>2024-11-10T15:58:51Z</time>
      </trkpt>
      <trkpt lat="45.86712" lon="1.23349">
        <ele>333.6</ele>
        <time>2024-11-10T15:58:52Z</time>
      </trkpt>
      <trkpt lat="45.8671" lon="1.23355">
        <ele>333.4</ele>
        <time>2024-11-10T15:58:53Z</time>
      </trkpt>
      <trkpt lat="45.86708" lon="1.2336">
        <ele>333.3</ele>
        <time>2024-11-10T15:58:54Z</time>
      </trkpt>
      <trkpt lat="45.86707" lon="1.23365">
        <ele>333.2</ele>
        <time>2024-11-10T15:58:56Z</time>
      </trkpt>
      <trkpt lat="45.86705" lon="1.2337">
        <ele>333.2</ele>
        <time>2024-11-10T15:58:58Z</time>
      </trkpt>
      <trkpt lat="45.86702" lon="1.23375">
        <ele>333.2</ele>
        <time>2024-11-10T15:58:59Z</time>
      </trkpt>
      <trkpt lat="45.86699" lon="1.23379">
        <ele>333.1</ele>
        <time>2024-11-10T15:59:00Z</time>
      </trkpt>
      <trkpt lat="45.86695" lon="1.23385">
        <ele>333.1</ele>
        <time>2024-11-10T15:59:01Z</time>
      </trkpt>
      <trkpt lat="45.8669" lon="1.23391">
        <ele>333.1</ele>
        <time>2024-11-10T15:59:02Z</time>
      </trkpt>
      <trkpt lat="45.86686" lon="1.23397">
        <ele>333.1</ele>
        <time>2024-11-10T15:59:03Z</time>
      </trkpt>
      <trkpt lat="45.86681" lon="1.23403">
        <ele>333.1</ele>
        <time>2024-11-10T15:59:04Z</time>
      </trkpt>
      <trkpt lat="45.86677" lon="1.23408">
        <ele>333.1</ele>
        <time>2024-11-10T15:59:05Z</time>
      </trkpt>
      <trkpt lat="45.86673" lon="1.23415">
        <ele>332.9</ele>
        <time>2024-11-10T15:59:06Z</time>
      </trkpt>
      <trkpt lat="45.86669" lon="1.23421">
        <ele>333.1</ele>
        <time>2024-11-10T15:59:07Z</time>
      </trkpt>
      <trkpt lat="45.86665" lon="1.23428">
        <ele>333</ele>
        <time>2024-11-10T15:59:08Z</time>
      </trkpt>
      <trkpt lat="45.86662" lon="1.23434">
        <ele>333.2</ele>
        <time>2024-11-10T15:59:09Z</time>
      </trkpt>
      <trkpt lat="45.86658" lon="1.23441">
        <ele>333.2</ele>
        <time>2024-11-10T15:59:10Z</time>
      </trkpt>
      <trkpt lat="45.86654" lon="1.23447">
        <ele>333.3</ele>
        <time>2024-11-10T15:59:11Z</time>
      </trkpt>
      <trkpt lat="45.8665" lon="1.23453">
        <ele>333.4</ele>
        <time>2024-11-10T15:59:12Z</time>
      </trkpt>
      <trkpt lat="45.86646" lon="1.23459">
        <ele>333.5</ele>
        <time>2024-11-10T15:59:13Z</time>
      </trkpt>
      <trkpt lat="45.86642" lon="1.23465">
        <ele>333.7</ele>
        <time>2024-11-10T15:59:14Z</time>
      </trkpt>
      <trkpt lat="45.86638" lon="1.23471">
        <ele>333.8</ele>
        <time>2024-11-10T15:59:15Z</time>
      </trkpt>
      <trkpt lat="45.86635" lon="1.23476">
        <ele>333.9</ele>
        <time>2024-11-10T15:59:16Z</time>
      </trkpt>
      <trkpt lat="45.86632" lon="1.23482">
        <ele>334</ele>
        <time>2024-11-10T15:59:17Z</time>
      </trkpt>
      <trkpt lat="45.86629" lon="1.23487">
        <ele>334.2</ele>
        <time>2024-11-10T15:59:18Z</time>
      </trkpt>
      <trkpt lat="45.86625" lon="1.23493">
        <ele>334.4</ele>
        <time>2024-11-10T15:59:19Z</time>
      </trkpt>
      <trkpt lat="45.86622" lon="1.23498">
        <ele>334.5</ele>
        <time>2024-11-10T15:59:20Z</time>
      </trkpt>
      <trkpt lat="45.86618" lon="1.23502">
        <ele>334.7</ele>
        <time>2024-11-10T15:59:21Z</time>
      </trkpt>
      <trkpt lat="45.86615" lon="1.23507">
        <ele>334.8</ele>
        <time>2024-11-10T15:59:22Z</time>
      </trkpt>
      <trkpt lat="45.86611" lon="1.2351">
        <ele>335</ele>
        <time>2024-11-10T15:59:23Z</time>
      </trkpt>
      <trkpt lat="45.86607" lon="1.23515">
        <ele>335.2</ele>
        <time>2024-11-10T15:59:24Z</time>
      </trkpt>
      <trkpt lat="45.86604" lon="1.23519">
        <ele>335.3</ele>
        <time>2024-11-10T15:59:25Z</time>
      </trkpt>
      <trkpt lat="45.86601" lon="1.23523">
        <ele>335.5</ele>
        <time>2024-11-10T15:59:26Z</time>
      </trkpt>
      <trkpt lat="45.86598" lon="1.23527">
        <ele>335.6</ele>
        <time>2024-11-10T15:59:27Z</time>
      </trkpt>
      <trkpt lat="45.86595" lon="1.23531">
        <ele>335.8</ele>
        <time>2024-11-10T15:59:28Z</time>
      </trkpt>
      <trkpt lat="45.86592" lon="1.23535">
        <ele>335.9</ele>
        <time>2024-11-10T15:59:29Z</time>
      </trkpt>
      <trkpt lat="45.86588" lon="1.23539">
        <ele>336.1</ele>
        <time>2024-11-10T15:59:30Z</time>
      </trkpt>
      <trkpt lat="45.86584" lon="1.23544">
        <ele>336.3</ele>
        <time>2024-11-10T15:59:31Z</time>
      </trkpt>
      <trkpt lat="45.8658" lon="1.23548">
        <ele>336.5</ele>
        <time>2024-11-10T15:59:32Z</time>
      </trkpt>
      <trkpt lat="45.86576" lon="1.23552">
        <ele>336.7</ele>
        <time>2024-11-10T15:59:33Z</time>
      </trkpt>
      <trkpt lat="45.86572" lon="1.23556">
        <ele>336.9</ele>
        <time>2024-11-10T15:59:34Z</time>
      </trkpt>
      <trkpt lat="45.86569" lon="1.2356">
        <ele>337</ele>
        <time>2024-11-10T15:59:35Z</time>
      </trkpt>
      <trkpt lat="45.86566" lon="1.23564">
        <ele>337.1</ele>
        <time>2024-11-10T15:59:36Z</time>
      </trkpt>
      <trkpt lat="45.86563" lon="1.23568">
        <ele>337.2</ele>
        <time>2024-11-10T15:59:37Z</time>
      </trkpt>
      <trkpt lat="45.8656" lon="1.23573">
        <ele>337.2</ele>
        <time>2024-11-10T15:59:38Z</time>
      </trkpt>
      <trkpt lat="45.86558" lon="1.23577">
        <ele>337.2</ele>
        <time>2024-11-10T15:59:39Z</time>
      </trkpt>
      <trkpt lat="45.86557" lon="1.23581">
        <ele>337.3</ele>
        <time>2024-11-10T15:59:40Z</time>
      </trkpt>
      <trkpt lat="45.86558" lon="1.23587">
        <ele>337.4</ele>
        <time>2024-11-10T15:59:41Z</time>
      </trkpt>
      <trkpt lat="45.8656" lon="1.23591">
        <ele>337.4</ele>
        <time>2024-11-10T15:59:42Z</time>
      </trkpt>
      <trkpt lat="45.86562" lon="1.23595">
        <ele>337.5</ele>
        <time>2024-11-10T15:59:43Z</time>
      </trkpt>
      <trkpt lat="45.86564" lon="1.23598">
        <ele>337.5</ele>
        <time>2024-11-10T15:59:44Z</time>
      </trkpt>
      <trkpt lat="45.86566" lon="1.23602">
        <ele>337.5</ele>
        <time>2024-11-10T15:59:45Z</time>
      </trkpt>
      <trkpt lat="45.86568" lon="1.23606">
        <ele>337.5</ele>
        <time>2024-11-10T15:59:46Z</time>
      </trkpt>
      <trkpt lat="45.86569" lon="1.2361">
        <ele>337.5</ele>
        <time>2024-11-10T15:59:47Z</time>
      </trkpt>
      <trkpt lat="45.86571" lon="1.23613">
        <ele>337.5</ele>
        <time>2024-11-10T15:59:48Z</time>
      </trkpt>
      <trkpt lat="45.86572" lon="1.23617">
        <ele>337.5</ele>
        <time>2024-11-10T15:59:49Z</time>
      </trkpt>
      <trkpt lat="45.86574" lon="1.23621">
        <ele>337.5</ele>
        <time>2024-11-10T15:59:50Z</time>
      </trkpt>
      <trkpt lat="45.86576" lon="1.23626">
        <ele>337.4</ele>
        <time>2024-11-10T15:59:51Z</time>
      </trkpt>
      <trkpt lat="45.86577" lon="1.23631">
        <ele>337.4</ele>
        <time>2024-11-10T15:59:52Z</time>
      </trkpt>
      <trkpt lat="45.86579" lon="1.23636">
        <ele>337.4</ele>
        <time>2024-11-10T15:59:53Z</time>
      </trkpt>
      <trkpt lat="45.86582" lon="1.23641">
        <ele>337.4</ele>
        <time>2024-11-10T15:59:54Z</time>
      </trkpt>
      <trkpt lat="45.86584" lon="1.23646">
        <ele>337.4</ele>
        <time>2024-11-10T15:59:55Z</time>
      </trkpt>
      <trkpt lat="45.86586" lon="1.23652">
        <ele>337.4</ele>
        <time>2024-11-10T15:59:56Z</time>
      </trkpt>
      <trkpt lat="45.86588" lon="1.23658">
        <ele>337.5</ele>
        <time>2024-11-10T15:59:57Z</time>
      </trkpt>
      <trkpt lat="45.8659" lon="1.23664">
        <ele>337.5</ele>
        <time>2024-11-10T15:59:58Z</time>
      </trkpt>
      <trkpt lat="45.86593" lon="1.2367">
        <ele>337.6</ele>
        <time>2024-11-10T15:59:59Z</time>
      </trkpt>
      <trkpt lat="45.86594" lon="1.23675">
        <ele>337.7</ele>
        <time>2024-11-10T16:00:00Z</time>
      </trkpt>
      <trkpt lat="45.86597" lon="1.23681">
        <ele>337.8</ele>
        <time>2024-11-10T16:00:01Z</time>
      </trkpt>
      <trkpt lat="45.86599" lon="1.23686">
        <ele>337.9</ele>
        <time>2024-11-10T16:00:02Z</time>
      </trkpt>
      <trkpt lat="45.86602" lon="1.23691">
        <ele>338</ele>
        <time>2024-11-10T16:00:03Z</time>
      </trkpt>
      <trkpt lat="45.86604" lon="1.23696">
        <ele>338.1</ele>
        <time>2024-11-10T16:00:04Z</time>
      </trkpt>
      <trkpt lat="45.86607" lon="1.23702">
        <ele>338.3</ele>
        <time>2024-11-10T16:00:05Z</time>
      </trkpt>
      <trkpt lat="45.86609" lon="1.23707">
        <ele>338.5</ele>
        <time>2024-11-10T16:00:06Z</time>
      </trkpt>
      <trkpt lat="45.86612" lon="1.23712">
        <ele>338.7</ele>
        <time>2024-11-10T16:00:07Z</time>
      </trkpt>
      <trkpt lat="45.86614" lon="1.23716">
        <ele>338.9</ele>
        <time>2024-11-10T16:00:08Z</time>
      </trkpt>
      <trkpt lat="45.86617" lon="1.2372">
        <ele>339.1</ele>
        <time>2024-11-10T16:00:09Z</time>
      </trkpt>
      <trkpt lat="45.8662" lon="1.23725">
        <ele>339.4</ele>
        <time>2024-11-10T16:00:10Z</time>
      </trkpt>
      <trkpt lat="45.86622" lon="1.23729">
        <ele>339.6</ele>
        <time>2024-11-10T16:00:11Z</time>
      </trkpt>
      <trkpt lat="45.86625" lon="1.23733">
        <ele>339.9</ele>
        <time>2024-11-10T16:00:12Z</time>
      </trkpt>
      <trkpt lat="45.86627" lon="1.23738">
        <ele>340.1</ele>
        <time>2024-11-10T16:00:13Z</time>
      </trkpt>
      <trkpt lat="45.86629" lon="1.23742">
        <ele>340.2</ele>
        <time>2024-11-10T16:00:14Z</time>
      </trkpt>
      <trkpt lat="45.86632" lon="1.23746">
        <ele>340.4</ele>
        <time>2024-11-10T16:00:15Z</time>
      </trkpt>
      <trkpt lat="45.86634" lon="1.2375">
        <ele>340.6</ele>
        <time>2024-11-10T16:00:16Z</time>
      </trkpt>
      <trkpt lat="45.86635" lon="1.23754">
        <ele>340.7</ele>
        <time>2024-11-10T16:00:17Z</time>
      </trkpt>
      <trkpt lat="45.86637" lon="1.23758">
        <ele>340.9</ele>
        <time>2024-11-10T16:00:18Z</time>
      </trkpt>
      <trkpt lat="45.86639" lon="1.23762">
        <ele>341</ele>
        <time>2024-11-10T16:00:19Z</time>
      </trkpt>
      <trkpt lat="45.8664" lon="1.23766">
        <ele>341.1</ele>
        <time>2024-11-10T16:00:20Z</time>
      </trkpt>
      <trkpt lat="45.86642" lon="1.2377">
        <ele>341.2</ele>
        <time>2024-11-10T16:00:21Z</time>
      </trkpt>
      <trkpt lat="45.86644" lon="1.23774">
        <ele>341.3</ele>
        <time>2024-11-10T16:00:22Z</time>
      </trkpt>
      <trkpt lat="45.86646" lon="1.23778">
        <ele>341.4</ele>
        <time>2024-11-10T16:00:23Z</time>
      </trkpt>
      <trkpt lat="45.86649" lon="1.23782">
        <ele>341.6</ele>
        <time>2024-11-10T16:00:24Z</time>
      </trkpt>
      <trkpt lat="45.86651" lon="1.23785">
        <ele>341.7</ele>
        <time>2024-11-10T16:00:25Z</time>
      </trkpt>
      <trkpt lat="45.86653" lon="1.23789">
        <ele>341.8</ele>
        <time>2024-11-10T16:00:26Z</time>
      </trkpt>
      <trkpt lat="45.86655" lon="1.23793">
        <ele>342</ele>
        <time>2024-11-10T16:00:27Z</time>
      </trkpt>
      <trkpt lat="45.86656" lon="1.23797">
        <ele>342.1</ele>
        <time>2024-11-10T16:00:28Z</time>
      </trkpt>
      <trkpt lat="45.86658" lon="1.23802">
        <ele>342.2</ele>
        <time>2024-11-10T16:00:30Z</time>
      </trkpt>
      <trkpt lat="45.86658" lon="1.23808">
        <ele>342.4</ele>
        <time>2024-11-10T16:00:32Z</time>
      </trkpt>
      <trkpt lat="45.86657" lon="1.23811">
        <ele>342.4</ele>
        <time>2024-11-10T16:00:33Z</time>
      </trkpt>
      <trkpt lat="45.86654" lon="1.23811">
        <ele>342.3</ele>
        <time>2024-11-10T16:00:34Z</time>
      </trkpt>
      <trkpt lat="45.86651" lon="1.23811">
        <ele>342.2</ele>
        <time>2024-11-10T16:00:35Z</time>
      </trkpt>
      <trkpt lat="45.86647" lon="1.23811">
        <ele>342</ele>
        <time>2024-11-10T16:00:36Z</time>
      </trkpt>
      <trkpt lat="45.86644" lon="1.23811">
        <ele>341.9</ele>
        <time>2024-11-10T16:00:37Z</time>
      </trkpt>
      <trkpt lat="45.8664" lon="1.23812">
        <ele>341.8</ele>
        <time>2024-11-10T16:00:38Z</time>
      </trkpt>
      <trkpt lat="45.86637" lon="1.23812">
        <ele>341.7</ele>
        <time>2024-11-10T16:00:39Z</time>
      </trkpt>
      <trkpt lat="45.86633" lon="1.23813">
        <ele>341.6</ele>
        <time>2024-11-10T16:00:40Z</time>
      </trkpt>
      <trkpt lat="45.8663" lon="1.23814">
        <ele>341.5</ele>
        <time>2024-11-10T16:00:41Z</time>
      </trkpt>
      <trkpt lat="45.86626" lon="1.23813">
        <ele>341.3</ele>
        <time>2024-11-10T16:00:42Z</time>
      </trkpt>
      <trkpt lat="45.86623" lon="1.23812">
        <ele>341.3</ele>
        <time>2024-11-10T16:00:43Z</time>
      </trkpt>
      <trkpt lat="45.86619" lon="1.23812">
        <ele>341.2</ele>
        <time>2024-11-10T16:00:44Z</time>
      </trkpt>
      <trkpt lat="45.86615" lon="1.23812">
        <ele>341.1</ele>
        <time>2024-11-10T16:00:45Z</time>
      </trkpt>
      <trkpt lat="45.86611" lon="1.23812">
        <ele>341</ele>
        <time>2024-11-10T16:00:46Z</time>
      </trkpt>
      <trkpt lat="45.86607" lon="1.23812">
        <ele>340.9</ele>
        <time>2024-11-10T16:00:47Z</time>
      </trkpt>
      <trkpt lat="45.86604" lon="1.23812">
        <ele>340.9</ele>
        <time>2024-11-10T16:00:48Z</time>
      </trkpt>
      <trkpt lat="45.866" lon="1.23812">
        <ele>340.8</ele>
        <time>2024-11-10T16:00:49Z</time>
      </trkpt>
      <trkpt lat="45.86597" lon="1.23811">
        <ele>340.7</ele>
        <time>2024-11-10T16:00:50Z</time>
      </trkpt>
      <trkpt lat="45.86593" lon="1.23811">
        <ele>340.7</ele>
        <time>2024-11-10T16:00:51Z</time>
      </trkpt>
      <trkpt lat="45.8659" lon="1.23811">
        <ele>340.6</ele>
        <time>2024-11-10T16:00:52Z</time>
      </trkpt>
      <trkpt lat="45.86586" lon="1.2381">
        <ele>340.5</ele>
        <time>2024-11-10T16:00:53Z</time>
      </trkpt>
      <trkpt lat="45.86582" lon="1.2381">
        <ele>340.5</ele>
        <time>2024-11-10T16:00:54Z</time>
      </trkpt>
      <trkpt lat="45.86579" lon="1.2381">
        <ele>340.4</ele>
        <time>2024-11-10T16:00:55Z</time>
      </trkpt>
      <trkpt lat="45.86575" lon="1.2381">
        <ele>340.3</ele>
        <time>2024-11-10T16:00:56Z</time>
      </trkpt>
      <trkpt lat="45.86571" lon="1.2381">
        <ele>340.2</ele>
        <time>2024-11-10T16:00:57Z</time>
      </trkpt>
      <trkpt lat="45.86566" lon="1.23809">
        <ele>340.1</ele>
        <time>2024-11-10T16:00:58Z</time>
      </trkpt>
      <trkpt lat="45.86562" lon="1.23808">
        <ele>340.1</ele>
        <time>2024-11-10T16:00:59Z</time>
      </trkpt>
      <trkpt lat="45.86558" lon="1.23808">
        <ele>340</ele>
        <time>2024-11-10T16:01:00Z</time>
      </trkpt>
      <trkpt lat="45.86555" lon="1.23807">
        <ele>339.9</ele>
        <time>2024-11-10T16:01:01Z</time>
      </trkpt>
      <trkpt lat="45.86551" lon="1.23807">
        <ele>339.8</ele>
        <time>2024-11-10T16:01:02Z</time>
      </trkpt>
      <trkpt lat="45.86547" lon="1.23806">
        <ele>339.8</ele>
        <time>2024-11-10T16:01:03Z</time>
      </trkpt>
      <trkpt lat="45.86543" lon="1.23806">
        <ele>339.7</ele>
        <time>2024-11-10T16:01:04Z</time>
      </trkpt>
      <trkpt lat="45.86539" lon="1.23805">
        <ele>339.6</ele>
        <time>2024-11-10T16:01:05Z</time>
      </trkpt>
      <trkpt lat="45.86536" lon="1.23805">
        <ele>339.5</ele>
        <time>2024-11-10T16:01:06Z</time>
      </trkpt>
      <trkpt lat="45.86532" lon="1.23805">
        <ele>339.5</ele>
        <time>2024-11-10T16:01:07Z</time>
      </trkpt>
      <trkpt lat="45.86528" lon="1.23805">
        <ele>339.4</ele>
        <time>2024-11-10T16:01:08Z</time>
      </trkpt>
      <trkpt lat="45.86525" lon="1.23805">
        <ele>339.3</ele>
        <time>2024-11-10T16:01:09Z</time>
      </trkpt>
      <trkpt lat="45.86523" lon="1.23802">
        <ele>339.3</ele>
        <time>2024-11-10T16:01:10Z</time>
      </trkpt>
      <trkpt lat="45.86521" lon="1.23798">
        <ele>339.2</ele>
        <time>2024-11-10T16:01:11Z</time>
      </trkpt>
      <trkpt lat="45.86521" lon="1.23794">
        <ele>339.2</ele>
        <time>2024-11-10T16:01:12Z</time>
      </trkpt>
      <trkpt lat="45.86521" lon="1.2379">
        <ele>339.1</ele>
        <time>2024-11-10T16:01:13Z</time>
      </trkpt>
      <trkpt lat="45.86521" lon="1.23786">
        <ele>339.1</ele>
        <time>2024-11-10T16:01:14Z</time>
      </trkpt>
      <trkpt lat="45.8652" lon="1.23782">
        <ele>339</ele>
        <time>2024-11-10T16:01:15Z</time>
      </trkpt>
      <trkpt lat="45.86518" lon="1.23779">
        <ele>339</ele>
        <time>2024-11-10T16:01:17Z</time>
      </trkpt>
      <trkpt lat="45.86515" lon="1.23779">
        <ele>338.9</ele>
        <time>2024-11-10T16:01:19Z</time>
      </trkpt>
      <trkpt lat="45.86515" lon="1.23782">
        <ele>338.9</ele>
        <time>2024-11-10T16:01:21Z</time>
      </trkpt>
    </trkseg>
  </trk>
</gpx>